<?xml version="1.0" encoding="UTF-8"?><gpx version="1.1" creator="Exported from Strava via extension e-ivanov.ru"  xsi:schemaLocation="http://www.topografix.com/GPX/1/1 http://www.topografix.com/GPX/1/1/gpx.xsd http://www.garmin.com/xmlschemas/GpxExtensions/v3 http://www.garmin.com/xmlschemas/GpxExtensionsv3.xsd http://www.garmin.com/xmlschemas/TrackPointExtension/v1 http://www.garmin.com/xmlschemas/TrackPointExtensionv1.xsd"  xmlns="http://www.topografix.com/GPX/1/1"  xmlns:gpxtpx="http://www.garmin.com/xmlschemas/TrackPointExtension/v1"  xmlns:gpxx="http://www.garmin.com/xmlschemas/GpxExtensions/v3" xmlns:xsi="http://www.w3.org/2001/XMLSchema-instance"><metadata><link href="http://e-ivanov.ru/projects/strava-export-gpx/"><text>Strava gpx export</text></link><time>2018-04-04T11:23:53.013Z</time></metadata><trk><name>Харувит - зеленый и черный | Велосипед | Strava</name><trkseg><trkpt lon="34.852262" lat="31.738883"><ele>127.9</ele><time>2018-04-04T11:23:52.392Z</time></trkpt><trkpt lon="34.852262" lat="31.738883"><ele>127.9</ele><time>2018-04-04T11:23:53.392Z</time></trkpt><trkpt lon="34.852262" lat="31.738883"><ele>127.9</ele><time>2018-04-04T11:23:54.392Z</time></trkpt><trkpt lon="34.852275" lat="31.7389"><ele>127.9</ele><time>2018-04-04T11:23:55.392Z</time></trkpt><trkpt lon="34.852292" lat="31.73891"><ele>127.9</ele><time>2018-04-04T11:23:56.392Z</time></trkpt><trkpt lon="34.852308" lat="31.738912"><ele>127.9</ele><time>2018-04-04T11:23:57.392Z</time></trkpt><trkpt lon="34.852325" lat="31.738908"><ele>127.9</ele><time>2018-04-04T11:23:58.392Z</time></trkpt><trkpt lon="34.85234" lat="31.738902"><ele>127.9</ele><time>2018-04-04T11:23:59.392Z</time></trkpt><trkpt lon="34.85235" lat="31.73889"><ele>127.9</ele><time>2018-04-04T11:24:00.392Z</time></trkpt><trkpt lon="34.852353" lat="31.738877"><ele>127.9</ele><time>2018-04-04T11:24:01.392Z</time></trkpt><trkpt lon="34.852355" lat="31.738863"><ele>127.9</ele><time>2018-04-04T11:24:02.392Z</time></trkpt><trkpt lon="34.852355" lat="31.738848"><ele>127.9</ele><time>2018-04-04T11:24:03.392Z</time></trkpt><trkpt lon="34.852358" lat="31.738833"><ele>127.9</ele><time>2018-04-04T11:24:04.392Z</time></trkpt><trkpt lon="34.852357" lat="31.73882"><ele>127.9</ele><time>2018-04-04T11:24:05.392Z</time></trkpt><trkpt lon="34.85235" lat="31.73881"><ele>127.9</ele><time>2018-04-04T11:24:06.392Z</time></trkpt><trkpt lon="34.852337" lat="31.738803"><ele>127.9</ele><time>2018-04-04T11:24:07.392Z</time></trkpt><trkpt lon="34.85232" lat="31.7388"><ele>127.9</ele><time>2018-04-04T11:24:08.392Z</time></trkpt><trkpt lon="34.852305" lat="31.738805"><ele>127.9</ele><time>2018-04-04T11:24:09.392Z</time></trkpt><trkpt lon="34.852293" lat="31.738813"><ele>127.9</ele><time>2018-04-04T11:24:10.392Z</time></trkpt><trkpt lon="34.85229" lat="31.738825"><ele>127.9</ele><time>2018-04-04T11:24:11.392Z</time></trkpt><trkpt lon="34.852288" lat="31.738833"><ele>127.9</ele><time>2018-04-04T11:24:12.392Z</time></trkpt><trkpt lon="34.852288" lat="31.738833"><ele>127.9</ele><time>2018-04-04T11:24:13.392Z</time></trkpt><trkpt lon="34.852288" lat="31.738833"><ele>127.9</ele><time>2018-04-04T11:24:14.392Z</time></trkpt><trkpt lon="34.852288" lat="31.738832"><ele>127.9</ele><time>2018-04-04T11:24:15.392Z</time></trkpt><trkpt lon="34.852287" lat="31.738832"><ele>127.9</ele><time>2018-04-04T11:24:16.392Z</time></trkpt><trkpt lon="34.852287" lat="31.738832"><ele>127.9</ele><time>2018-04-04T11:24:17.392Z</time></trkpt><trkpt lon="34.852285" lat="31.73883"><ele>127.9</ele><time>2018-04-04T11:24:18.392Z</time></trkpt><trkpt lon="34.852285" lat="31.73883"><ele>127.9</ele><time>2018-04-04T11:24:19.392Z</time></trkpt><trkpt lon="34.852285" lat="31.73883"><ele>127.9</ele><time>2018-04-04T11:24:20.392Z</time></trkpt><trkpt lon="34.852283" lat="31.73883"><ele>127.9</ele><time>2018-04-04T11:24:21.392Z</time></trkpt><trkpt lon="34.852275" lat="31.738805"><ele>127.9</ele><time>2018-04-04T11:30:55.392Z</time></trkpt><trkpt lon="34.852287" lat="31.738798"><ele>127.9</ele><time>2018-04-04T11:30:56.392Z</time></trkpt><trkpt lon="34.8523" lat="31.738793"><ele>127.9</ele><time>2018-04-04T11:30:57.392Z</time></trkpt><trkpt lon="34.852317" lat="31.738793"><ele>127.9</ele><time>2018-04-04T11:30:58.392Z</time></trkpt><trkpt lon="34.852337" lat="31.738798"><ele>127.9</ele><time>2018-04-04T11:30:59.392Z</time></trkpt><trkpt lon="34.852357" lat="31.738808"><ele>127.9</ele><time>2018-04-04T11:31:00.392Z</time></trkpt><trkpt lon="34.852378" lat="31.738818"><ele>127.9</ele><time>2018-04-04T11:31:01.392Z</time></trkpt><trkpt lon="34.8524" lat="31.73883"><ele>127.9</ele><time>2018-04-04T11:31:02.392Z</time></trkpt><trkpt lon="34.852422" lat="31.738843"><ele>127.9</ele><time>2018-04-04T11:31:03.392Z</time></trkpt><trkpt lon="34.852447" lat="31.738857"><ele>127.9</ele><time>2018-04-04T11:31:04.392Z</time></trkpt><trkpt lon="34.852472" lat="31.73887"><ele>127.9</ele><time>2018-04-04T11:31:05.392Z</time></trkpt><trkpt lon="34.852495" lat="31.738883"><ele>127.9</ele><time>2018-04-04T11:31:06.392Z</time></trkpt><trkpt lon="34.852517" lat="31.738897"><ele>127.9</ele><time>2018-04-04T11:31:07.392Z</time></trkpt><trkpt lon="34.852537" lat="31.738915"><ele>127.9</ele><time>2018-04-04T11:31:08.392Z</time></trkpt><trkpt lon="34.852553" lat="31.738937"><ele>127.9</ele><time>2018-04-04T11:31:09.392Z</time></trkpt><trkpt lon="34.852565" lat="31.738962"><ele>127.9</ele><time>2018-04-04T11:31:10.392Z</time></trkpt><trkpt lon="34.852575" lat="31.738987"><ele>127.9</ele><time>2018-04-04T11:31:11.392Z</time></trkpt><trkpt lon="34.85259" lat="31.739012"><ele>127.9</ele><time>2018-04-04T11:31:12.392Z</time></trkpt><trkpt lon="34.852608" lat="31.739035"><ele>128.9</ele><time>2018-04-04T11:31:13.392Z</time></trkpt><trkpt lon="34.852625" lat="31.739053"><ele>128.9</ele><time>2018-04-04T11:31:14.392Z</time></trkpt><trkpt lon="34.852647" lat="31.739068"><ele>128.9</ele><time>2018-04-04T11:31:15.392Z</time></trkpt><trkpt lon="34.852675" lat="31.739075"><ele>128.9</ele><time>2018-04-04T11:31:16.392Z</time></trkpt><trkpt lon="34.852707" lat="31.739077"><ele>128.9</ele><time>2018-04-04T11:31:17.392Z</time></trkpt><trkpt lon="34.852738" lat="31.739075"><ele>128.9</ele><time>2018-04-04T11:31:18.392Z</time></trkpt><trkpt lon="34.852768" lat="31.739077"><ele>128.9</ele><time>2018-04-04T11:31:19.392Z</time></trkpt><trkpt lon="34.852797" lat="31.739082"><ele>128.9</ele><time>2018-04-04T11:31:20.392Z</time></trkpt><trkpt lon="34.852825" lat="31.739087"><ele>129.8</ele><time>2018-04-04T11:31:21.392Z</time></trkpt><trkpt lon="34.852855" lat="31.73909"><ele>129.8</ele><time>2018-04-04T11:31:22.392Z</time></trkpt><trkpt lon="34.852883" lat="31.739093"><ele>129.8</ele><time>2018-04-04T11:31:23.392Z</time></trkpt><trkpt lon="34.852912" lat="31.739092"><ele>129.8</ele><time>2018-04-04T11:31:24.392Z</time></trkpt><trkpt lon="34.85294" lat="31.739088"><ele>129.8</ele><time>2018-04-04T11:31:25.392Z</time></trkpt><trkpt lon="34.852968" lat="31.73908"><ele>129.8</ele><time>2018-04-04T11:31:26.392Z</time></trkpt><trkpt lon="34.852995" lat="31.739072"><ele>130.9</ele><time>2018-04-04T11:31:27.392Z</time></trkpt><trkpt lon="34.853022" lat="31.739063"><ele>130.9</ele><time>2018-04-04T11:31:28.392Z</time></trkpt><trkpt lon="34.853043" lat="31.73905"><ele>130.9</ele><time>2018-04-04T11:31:29.392Z</time></trkpt><trkpt lon="34.85306" lat="31.739035"><ele>130.9</ele><time>2018-04-04T11:31:30.392Z</time></trkpt><trkpt lon="34.853075" lat="31.739018"><ele>130.9</ele><time>2018-04-04T11:31:31.392Z</time></trkpt><trkpt lon="34.85309" lat="31.739002"><ele>130.9</ele><time>2018-04-04T11:31:32.392Z</time></trkpt><trkpt lon="34.853107" lat="31.738987"><ele>130.9</ele><time>2018-04-04T11:31:33.392Z</time></trkpt><trkpt lon="34.853123" lat="31.738973"><ele>130.9</ele><time>2018-04-04T11:31:34.392Z</time></trkpt><trkpt lon="34.853142" lat="31.73896"><ele>130.9</ele><time>2018-04-04T11:31:35.392Z</time></trkpt><trkpt lon="34.853158" lat="31.738948"><ele>130.9</ele><time>2018-04-04T11:31:36.392Z</time></trkpt><trkpt lon="34.853177" lat="31.738933"><ele>130.9</ele><time>2018-04-04T11:31:37.392Z</time></trkpt><trkpt lon="34.853193" lat="31.738915"><ele>130.9</ele><time>2018-04-04T11:31:38.392Z</time></trkpt><trkpt lon="34.853208" lat="31.738895"><ele>130.9</ele><time>2018-04-04T11:31:39.392Z</time></trkpt><trkpt lon="34.853218" lat="31.738873"><ele>130.9</ele><time>2018-04-04T11:31:40.392Z</time></trkpt><trkpt lon="34.853223" lat="31.738852"><ele>131.8</ele><time>2018-04-04T11:31:41.392Z</time></trkpt><trkpt lon="34.853227" lat="31.738828"><ele>131.8</ele><time>2018-04-04T11:31:42.392Z</time></trkpt><trkpt lon="34.853232" lat="31.738807"><ele>131.8</ele><time>2018-04-04T11:31:43.392Z</time></trkpt><trkpt lon="34.853238" lat="31.738783"><ele>131.8</ele><time>2018-04-04T11:31:44.392Z</time></trkpt><trkpt lon="34.853243" lat="31.73876"><ele>131.8</ele><time>2018-04-04T11:31:45.392Z</time></trkpt><trkpt lon="34.853247" lat="31.738737"><ele>131.8</ele><time>2018-04-04T11:31:46.392Z</time></trkpt><trkpt lon="34.853248" lat="31.738713"><ele>131.8</ele><time>2018-04-04T11:31:47.392Z</time></trkpt><trkpt lon="34.853248" lat="31.73869"><ele>131.8</ele><time>2018-04-04T11:31:48.392Z</time></trkpt><trkpt lon="34.853245" lat="31.738667"><ele>131.8</ele><time>2018-04-04T11:31:49.392Z</time></trkpt><trkpt lon="34.853242" lat="31.738643"><ele>131.8</ele><time>2018-04-04T11:31:50.392Z</time></trkpt><trkpt lon="34.853238" lat="31.738618"><ele>132.9</ele><time>2018-04-04T11:31:51.392Z</time></trkpt><trkpt lon="34.853237" lat="31.738592"><ele>132.9</ele><time>2018-04-04T11:31:52.392Z</time></trkpt><trkpt lon="34.853237" lat="31.738568"><ele>132.9</ele><time>2018-04-04T11:31:53.392Z</time></trkpt><trkpt lon="34.853235" lat="31.738543"><ele>132.9</ele><time>2018-04-04T11:31:54.392Z</time></trkpt><trkpt lon="34.853232" lat="31.738518"><ele>133.8</ele><time>2018-04-04T11:31:55.392Z</time></trkpt><trkpt lon="34.853228" lat="31.738493"><ele>133.8</ele><time>2018-04-04T11:31:56.392Z</time></trkpt><trkpt lon="34.853223" lat="31.73847"><ele>133.8</ele><time>2018-04-04T11:31:57.392Z</time></trkpt><trkpt lon="34.853222" lat="31.738445"><ele>133.8</ele><time>2018-04-04T11:31:58.392Z</time></trkpt><trkpt lon="34.853225" lat="31.73842"><ele>133.8</ele><time>2018-04-04T11:31:59.392Z</time></trkpt><trkpt lon="34.853233" lat="31.738395"><ele>133.8</ele><time>2018-04-04T11:32:00.392Z</time></trkpt><trkpt lon="34.853248" lat="31.738372"><ele>133.8</ele><time>2018-04-04T11:32:01.392Z</time></trkpt><trkpt lon="34.853265" lat="31.738348"><ele>133.8</ele><time>2018-04-04T11:32:02.392Z</time></trkpt><trkpt lon="34.853283" lat="31.738328"><ele>133.8</ele><time>2018-04-04T11:32:03.392Z</time></trkpt><trkpt lon="34.853303" lat="31.73831"><ele>133.8</ele><time>2018-04-04T11:32:04.392Z</time></trkpt><trkpt lon="34.853328" lat="31.738297"><ele>133.8</ele><time>2018-04-04T11:32:05.392Z</time></trkpt><trkpt lon="34.853355" lat="31.738288"><ele>133.8</ele><time>2018-04-04T11:32:06.392Z</time></trkpt><trkpt lon="34.853382" lat="31.738283"><ele>134.9</ele><time>2018-04-04T11:32:07.392Z</time></trkpt><trkpt lon="34.853408" lat="31.738285"><ele>134.9</ele><time>2018-04-04T11:32:08.392Z</time></trkpt><trkpt lon="34.853438" lat="31.738287"><ele>134.9</ele><time>2018-04-04T11:32:09.392Z</time></trkpt><trkpt lon="34.853468" lat="31.738287"><ele>134.9</ele><time>2018-04-04T11:32:10.392Z</time></trkpt><trkpt lon="34.8535" lat="31.738287"><ele>135.9</ele><time>2018-04-04T11:32:11.392Z</time></trkpt><trkpt lon="34.85353" lat="31.738283"><ele>135.9</ele><time>2018-04-04T11:32:12.392Z</time></trkpt><trkpt lon="34.853558" lat="31.73828"><ele>135.9</ele><time>2018-04-04T11:32:13.392Z</time></trkpt><trkpt lon="34.853588" lat="31.738277"><ele>135.9</ele><time>2018-04-04T11:32:14.392Z</time></trkpt><trkpt lon="34.853617" lat="31.738272"><ele>135.9</ele><time>2018-04-04T11:32:15.392Z</time></trkpt><trkpt lon="34.853645" lat="31.738263"><ele>135.9</ele><time>2018-04-04T11:32:16.392Z</time></trkpt><trkpt lon="34.853673" lat="31.738252"><ele>136.9</ele><time>2018-04-04T11:32:17.392Z</time></trkpt><trkpt lon="34.8537" lat="31.738242"><ele>136.9</ele><time>2018-04-04T11:32:18.392Z</time></trkpt><trkpt lon="34.853728" lat="31.738233"><ele>136.9</ele><time>2018-04-04T11:32:19.392Z</time></trkpt><trkpt lon="34.853757" lat="31.738227"><ele>136.9</ele><time>2018-04-04T11:32:20.392Z</time></trkpt><trkpt lon="34.853787" lat="31.738222"><ele>136.9</ele><time>2018-04-04T11:32:21.392Z</time></trkpt><trkpt lon="34.853815" lat="31.738215"><ele>136.9</ele><time>2018-04-04T11:32:22.392Z</time></trkpt><trkpt lon="34.853842" lat="31.738207"><ele>136.9</ele><time>2018-04-04T11:32:23.392Z</time></trkpt><trkpt lon="34.85387" lat="31.738198"><ele>136.9</ele><time>2018-04-04T11:32:24.392Z</time></trkpt><trkpt lon="34.853897" lat="31.73819"><ele>136.9</ele><time>2018-04-04T11:32:25.392Z</time></trkpt><trkpt lon="34.853922" lat="31.73818"><ele>136.9</ele><time>2018-04-04T11:32:26.392Z</time></trkpt><trkpt lon="34.853947" lat="31.73817"><ele>137.9</ele><time>2018-04-04T11:32:27.392Z</time></trkpt><trkpt lon="34.853972" lat="31.73816"><ele>137.9</ele><time>2018-04-04T11:32:28.392Z</time></trkpt><trkpt lon="34.853995" lat="31.738148"><ele>137.9</ele><time>2018-04-04T11:32:29.392Z</time></trkpt><trkpt lon="34.854017" lat="31.738135"><ele>137.9</ele><time>2018-04-04T11:32:30.392Z</time></trkpt><trkpt lon="34.854042" lat="31.738123"><ele>137.9</ele><time>2018-04-04T11:32:31.392Z</time></trkpt><trkpt lon="34.854065" lat="31.73811"><ele>137.9</ele><time>2018-04-04T11:32:32.392Z</time></trkpt><trkpt lon="34.85409" lat="31.7381"><ele>138.8</ele><time>2018-04-04T11:32:33.392Z</time></trkpt><trkpt lon="34.854117" lat="31.738092"><ele>138.8</ele><time>2018-04-04T11:32:34.392Z</time></trkpt><trkpt lon="34.854142" lat="31.738082"><ele>138.8</ele><time>2018-04-04T11:32:35.392Z</time></trkpt><trkpt lon="34.854168" lat="31.738073"><ele>138.8</ele><time>2018-04-04T11:32:36.392Z</time></trkpt><trkpt lon="34.854193" lat="31.738063"><ele>139.9</ele><time>2018-04-04T11:32:37.392Z</time></trkpt><trkpt lon="34.85422" lat="31.738055"><ele>139.9</ele><time>2018-04-04T11:32:38.392Z</time></trkpt><trkpt lon="34.854245" lat="31.738045"><ele>139.9</ele><time>2018-04-04T11:32:39.392Z</time></trkpt><trkpt lon="34.854272" lat="31.738035"><ele>139.9</ele><time>2018-04-04T11:32:40.392Z</time></trkpt><trkpt lon="34.854297" lat="31.738023"><ele>139.9</ele><time>2018-04-04T11:32:41.392Z</time></trkpt><trkpt lon="34.854323" lat="31.738012"><ele>139.9</ele><time>2018-04-04T11:32:42.392Z</time></trkpt><trkpt lon="34.854348" lat="31.738"><ele>140.8</ele><time>2018-04-04T11:32:43.392Z</time></trkpt><trkpt lon="34.854375" lat="31.73799"><ele>140.8</ele><time>2018-04-04T11:32:44.392Z</time></trkpt><trkpt lon="34.8544" lat="31.73798"><ele>140.8</ele><time>2018-04-04T11:32:45.392Z</time></trkpt><trkpt lon="34.854425" lat="31.73797"><ele>140.8</ele><time>2018-04-04T11:32:46.392Z</time></trkpt><trkpt lon="34.85445" lat="31.737958"><ele>140.8</ele><time>2018-04-04T11:32:47.392Z</time></trkpt><trkpt lon="34.854473" lat="31.737945"><ele>140.8</ele><time>2018-04-04T11:32:48.392Z</time></trkpt><trkpt lon="34.854493" lat="31.73793"><ele>141.9</ele><time>2018-04-04T11:32:49.392Z</time></trkpt><trkpt lon="34.854513" lat="31.737913"><ele>141.9</ele><time>2018-04-04T11:32:50.392Z</time></trkpt><trkpt lon="34.854533" lat="31.737895"><ele>141.9</ele><time>2018-04-04T11:32:51.392Z</time></trkpt><trkpt lon="34.854553" lat="31.737877"><ele>141.9</ele><time>2018-04-04T11:32:52.392Z</time></trkpt><trkpt lon="34.854577" lat="31.73786"><ele>141.9</ele><time>2018-04-04T11:32:53.392Z</time></trkpt><trkpt lon="34.854598" lat="31.737842"><ele>141.9</ele><time>2018-04-04T11:32:54.392Z</time></trkpt><trkpt lon="34.854622" lat="31.737823"><ele>141.9</ele><time>2018-04-04T11:32:55.392Z</time></trkpt><trkpt lon="34.854647" lat="31.737807"><ele>141.9</ele><time>2018-04-04T11:32:56.392Z</time></trkpt><trkpt lon="34.854672" lat="31.737788"><ele>141.9</ele><time>2018-04-04T11:32:57.392Z</time></trkpt><trkpt lon="34.854698" lat="31.737772"><ele>141.9</ele><time>2018-04-04T11:32:58.392Z</time></trkpt><trkpt lon="34.854727" lat="31.737755"><ele>141.9</ele><time>2018-04-04T11:32:59.392Z</time></trkpt><trkpt lon="34.854755" lat="31.73774"><ele>141.9</ele><time>2018-04-04T11:33:00.392Z</time></trkpt><trkpt lon="34.854783" lat="31.737728"><ele>141.9</ele><time>2018-04-04T11:33:01.392Z</time></trkpt><trkpt lon="34.854813" lat="31.73772"><ele>141.9</ele><time>2018-04-04T11:33:02.392Z</time></trkpt><trkpt lon="34.854843" lat="31.737713"><ele>141.9</ele><time>2018-04-04T11:33:03.392Z</time></trkpt><trkpt lon="34.85487" lat="31.73771"><ele>141.9</ele><time>2018-04-04T11:33:04.392Z</time></trkpt><trkpt lon="34.854898" lat="31.737708"><ele>142.8</ele><time>2018-04-04T11:33:05.392Z</time></trkpt><trkpt lon="34.854927" lat="31.737705"><ele>142.8</ele><time>2018-04-04T11:33:06.392Z</time></trkpt><trkpt lon="34.854955" lat="31.737702"><ele>143.9</ele><time>2018-04-04T11:33:07.392Z</time></trkpt><trkpt lon="34.85498" lat="31.737698"><ele>143.9</ele><time>2018-04-04T11:33:08.392Z</time></trkpt><trkpt lon="34.855007" lat="31.737693"><ele>143.9</ele><time>2018-04-04T11:33:09.392Z</time></trkpt><trkpt lon="34.855033" lat="31.737682"><ele>143.9</ele><time>2018-04-04T11:33:10.392Z</time></trkpt><trkpt lon="34.85506" lat="31.737672"><ele>143.9</ele><time>2018-04-04T11:33:11.392Z</time></trkpt><trkpt lon="34.855088" lat="31.737663"><ele>143.9</ele><time>2018-04-04T11:33:12.392Z</time></trkpt><trkpt lon="34.855118" lat="31.737658"><ele>143.9</ele><time>2018-04-04T11:33:13.392Z</time></trkpt><trkpt lon="34.855147" lat="31.737655"><ele>143.9</ele><time>2018-04-04T11:33:14.392Z</time></trkpt><trkpt lon="34.855177" lat="31.737652"><ele>143.9</ele><time>2018-04-04T11:33:15.392Z</time></trkpt><trkpt lon="34.855203" lat="31.73765"><ele>143.9</ele><time>2018-04-04T11:33:16.392Z</time></trkpt><trkpt lon="34.855232" lat="31.737648"><ele>144.9</ele><time>2018-04-04T11:33:17.392Z</time></trkpt><trkpt lon="34.85526" lat="31.737645"><ele>144.9</ele><time>2018-04-04T11:33:18.392Z</time></trkpt><trkpt lon="34.855287" lat="31.737642"><ele>144.9</ele><time>2018-04-04T11:33:19.392Z</time></trkpt><trkpt lon="34.855315" lat="31.737637"><ele>144.9</ele><time>2018-04-04T11:33:20.392Z</time></trkpt><trkpt lon="34.855343" lat="31.737632"><ele>144.9</ele><time>2018-04-04T11:33:21.392Z</time></trkpt><trkpt lon="34.855372" lat="31.737628"><ele>144.9</ele><time>2018-04-04T11:33:22.392Z</time></trkpt><trkpt lon="34.855402" lat="31.737625"><ele>145.8</ele><time>2018-04-04T11:33:23.392Z</time></trkpt><trkpt lon="34.855432" lat="31.737623"><ele>145.8</ele><time>2018-04-04T11:33:24.392Z</time></trkpt><trkpt lon="34.855458" lat="31.73762"><ele>145.8</ele><time>2018-04-04T11:33:25.392Z</time></trkpt><trkpt lon="34.855487" lat="31.737618"><ele>145.8</ele><time>2018-04-04T11:33:26.392Z</time></trkpt><trkpt lon="34.855513" lat="31.737615"><ele>145.8</ele><time>2018-04-04T11:33:27.392Z</time></trkpt><trkpt lon="34.85554" lat="31.73761"><ele>145.8</ele><time>2018-04-04T11:33:28.392Z</time></trkpt><trkpt lon="34.855567" lat="31.737605"><ele>146.9</ele><time>2018-04-04T11:33:29.392Z</time></trkpt><trkpt lon="34.855592" lat="31.737602"><ele>146.9</ele><time>2018-04-04T11:33:30.392Z</time></trkpt><trkpt lon="34.85562" lat="31.7376"><ele>146.9</ele><time>2018-04-04T11:33:31.392Z</time></trkpt><trkpt lon="34.855648" lat="31.737597"><ele>146.9</ele><time>2018-04-04T11:33:32.392Z</time></trkpt><trkpt lon="34.855675" lat="31.737595"><ele>146.9</ele><time>2018-04-04T11:33:33.392Z</time></trkpt><trkpt lon="34.855702" lat="31.737593"><ele>146.9</ele><time>2018-04-04T11:33:34.392Z</time></trkpt><trkpt lon="34.85573" lat="31.737593"><ele>146.9</ele><time>2018-04-04T11:33:35.392Z</time></trkpt><trkpt lon="34.855757" lat="31.737592"><ele>146.9</ele><time>2018-04-04T11:33:36.392Z</time></trkpt><trkpt lon="34.855785" lat="31.737593"><ele>147.8</ele><time>2018-04-04T11:33:37.392Z</time></trkpt><trkpt lon="34.855815" lat="31.737595"><ele>147.8</ele><time>2018-04-04T11:33:38.392Z</time></trkpt><trkpt lon="34.855843" lat="31.737598"><ele>147.8</ele><time>2018-04-04T11:33:39.392Z</time></trkpt><trkpt lon="34.855873" lat="31.7376"><ele>147.8</ele><time>2018-04-04T11:33:40.392Z</time></trkpt><trkpt lon="34.855902" lat="31.737602"><ele>148.9</ele><time>2018-04-04T11:33:41.392Z</time></trkpt><trkpt lon="34.855932" lat="31.737605"><ele>148.9</ele><time>2018-04-04T11:33:42.392Z</time></trkpt><trkpt lon="34.85596" lat="31.737608"><ele>148.9</ele><time>2018-04-04T11:33:43.392Z</time></trkpt><trkpt lon="34.85599" lat="31.737613"><ele>148.9</ele><time>2018-04-04T11:33:44.392Z</time></trkpt><trkpt lon="34.85602" lat="31.737617"><ele>148.9</ele><time>2018-04-04T11:33:45.392Z</time></trkpt><trkpt lon="34.85605" lat="31.737618"><ele>148.9</ele><time>2018-04-04T11:33:46.392Z</time></trkpt><trkpt lon="34.85608" lat="31.737618"><ele>148.9</ele><time>2018-04-04T11:33:47.392Z</time></trkpt><trkpt lon="34.85611" lat="31.737622"><ele>148.9</ele><time>2018-04-04T11:33:48.392Z</time></trkpt><trkpt lon="34.85614" lat="31.737625"><ele>148.9</ele><time>2018-04-04T11:33:49.392Z</time></trkpt><trkpt lon="34.856167" lat="31.73763"><ele>148.9</ele><time>2018-04-04T11:33:50.392Z</time></trkpt><trkpt lon="34.856195" lat="31.737632"><ele>149.8</ele><time>2018-04-04T11:33:51.392Z</time></trkpt><trkpt lon="34.856225" lat="31.73763"><ele>149.8</ele><time>2018-04-04T11:33:52.392Z</time></trkpt><trkpt lon="34.856253" lat="31.737628"><ele>149.8</ele><time>2018-04-04T11:33:53.392Z</time></trkpt><trkpt lon="34.856282" lat="31.737628"><ele>149.8</ele><time>2018-04-04T11:33:54.392Z</time></trkpt><trkpt lon="34.85631" lat="31.737628"><ele>149.8</ele><time>2018-04-04T11:33:55.392Z</time></trkpt><trkpt lon="34.85634" lat="31.737628"><ele>149.8</ele><time>2018-04-04T11:33:56.392Z</time></trkpt><trkpt lon="34.856372" lat="31.737628"><ele>150.9</ele><time>2018-04-04T11:33:57.392Z</time></trkpt><trkpt lon="34.856402" lat="31.73763"><ele>150.9</ele><time>2018-04-04T11:33:58.392Z</time></trkpt><trkpt lon="34.856432" lat="31.73763"><ele>150.9</ele><time>2018-04-04T11:33:59.392Z</time></trkpt><trkpt lon="34.85646" lat="31.73763"><ele>150.9</ele><time>2018-04-04T11:34:00.392Z</time></trkpt><trkpt lon="34.856488" lat="31.73763"><ele>150.9</ele><time>2018-04-04T11:34:01.392Z</time></trkpt><trkpt lon="34.856518" lat="31.737628"><ele>150.9</ele><time>2018-04-04T11:34:02.392Z</time></trkpt><trkpt lon="34.856548" lat="31.737628"><ele>150.9</ele><time>2018-04-04T11:34:03.392Z</time></trkpt><trkpt lon="34.856578" lat="31.737627"><ele>150.9</ele><time>2018-04-04T11:34:04.392Z</time></trkpt><trkpt lon="34.856607" lat="31.737627"><ele>150.9</ele><time>2018-04-04T11:34:05.392Z</time></trkpt><trkpt lon="34.856638" lat="31.737623"><ele>150.9</ele><time>2018-04-04T11:34:06.392Z</time></trkpt><trkpt lon="34.856668" lat="31.737622"><ele>150.9</ele><time>2018-04-04T11:34:07.392Z</time></trkpt><trkpt lon="34.856698" lat="31.73762"><ele>150.9</ele><time>2018-04-04T11:34:08.392Z</time></trkpt><trkpt lon="34.85673" lat="31.737618"><ele>150.9</ele><time>2018-04-04T11:34:09.392Z</time></trkpt><trkpt lon="34.856763" lat="31.737618"><ele>150.9</ele><time>2018-04-04T11:34:10.392Z</time></trkpt><trkpt lon="34.856798" lat="31.737617"><ele>150.9</ele><time>2018-04-04T11:34:11.392Z</time></trkpt><trkpt lon="34.856833" lat="31.737615"><ele>150.9</ele><time>2018-04-04T11:34:12.392Z</time></trkpt><trkpt lon="34.856867" lat="31.737617"><ele>150.9</ele><time>2018-04-04T11:34:13.392Z</time></trkpt><trkpt lon="34.856903" lat="31.737615"><ele>150.9</ele><time>2018-04-04T11:34:14.392Z</time></trkpt><trkpt lon="34.856937" lat="31.737612"><ele>150.9</ele><time>2018-04-04T11:34:15.392Z</time></trkpt><trkpt lon="34.85697" lat="31.737603"><ele>150.9</ele><time>2018-04-04T11:34:16.392Z</time></trkpt><trkpt lon="34.857002" lat="31.737588"><ele>151.9</ele><time>2018-04-04T11:34:17.392Z</time></trkpt><trkpt lon="34.85703" lat="31.73757"><ele>151.9</ele><time>2018-04-04T11:34:18.392Z</time></trkpt><trkpt lon="34.857055" lat="31.737548"><ele>151.9</ele><time>2018-04-04T11:34:19.392Z</time></trkpt><trkpt lon="34.857075" lat="31.737523"><ele>151.9</ele><time>2018-04-04T11:34:20.392Z</time></trkpt><trkpt lon="34.857087" lat="31.737495"><ele>151.9</ele><time>2018-04-04T11:34:21.392Z</time></trkpt><trkpt lon="34.857095" lat="31.737465"><ele>151.9</ele><time>2018-04-04T11:34:22.392Z</time></trkpt><trkpt lon="34.857098" lat="31.737437"><ele>151.9</ele><time>2018-04-04T11:34:23.392Z</time></trkpt><trkpt lon="34.857102" lat="31.737407"><ele>151.9</ele><time>2018-04-04T11:34:24.392Z</time></trkpt><trkpt lon="34.857102" lat="31.737378"><ele>151.9</ele><time>2018-04-04T11:34:25.392Z</time></trkpt><trkpt lon="34.857095" lat="31.73735"><ele>151.9</ele><time>2018-04-04T11:34:26.392Z</time></trkpt><trkpt lon="34.857087" lat="31.737323"><ele>151.9</ele><time>2018-04-04T11:34:27.392Z</time></trkpt><trkpt lon="34.857078" lat="31.737297"><ele>151.9</ele><time>2018-04-04T11:34:28.392Z</time></trkpt><trkpt lon="34.857068" lat="31.73727"><ele>151.9</ele><time>2018-04-04T11:34:29.392Z</time></trkpt><trkpt lon="34.857063" lat="31.737242"><ele>151.9</ele><time>2018-04-04T11:34:30.392Z</time></trkpt><trkpt lon="34.857065" lat="31.737212"><ele>151.9</ele><time>2018-04-04T11:34:31.392Z</time></trkpt><trkpt lon="34.85707" lat="31.737187"><ele>151.9</ele><time>2018-04-04T11:34:32.392Z</time></trkpt><trkpt lon="34.857068" lat="31.737165"><ele>152.9</ele><time>2018-04-04T11:34:33.392Z</time></trkpt><trkpt lon="34.857065" lat="31.737147"><ele>152.9</ele><time>2018-04-04T11:34:34.392Z</time></trkpt><trkpt lon="34.857057" lat="31.737135"><ele>152.9</ele><time>2018-04-04T11:34:35.392Z</time></trkpt><trkpt lon="34.857047" lat="31.737127"><ele>152.9</ele><time>2018-04-04T11:34:36.392Z</time></trkpt><trkpt lon="34.857032" lat="31.737118"><ele>152.9</ele><time>2018-04-04T11:34:37.392Z</time></trkpt><trkpt lon="34.857015" lat="31.737112"><ele>152.9</ele><time>2018-04-04T11:34:38.392Z</time></trkpt><trkpt lon="34.856997" lat="31.737107"><ele>152.9</ele><time>2018-04-04T11:34:39.392Z</time></trkpt><trkpt lon="34.856977" lat="31.737098"><ele>152.9</ele><time>2018-04-04T11:34:40.392Z</time></trkpt><trkpt lon="34.856957" lat="31.73709"><ele>152.9</ele><time>2018-04-04T11:34:41.392Z</time></trkpt><trkpt lon="34.85694" lat="31.737078"><ele>152.9</ele><time>2018-04-04T11:34:42.392Z</time></trkpt><trkpt lon="34.856933" lat="31.737065"><ele>152.9</ele><time>2018-04-04T11:34:43.392Z</time></trkpt><trkpt lon="34.856927" lat="31.737047"><ele>152.9</ele><time>2018-04-04T11:34:44.392Z</time></trkpt><trkpt lon="34.85692" lat="31.737025"><ele>152.9</ele><time>2018-04-04T11:34:45.392Z</time></trkpt><trkpt lon="34.856915" lat="31.737002"><ele>152.9</ele><time>2018-04-04T11:34:46.392Z</time></trkpt><trkpt lon="34.856912" lat="31.736975"><ele>152.9</ele><time>2018-04-04T11:34:47.392Z</time></trkpt><trkpt lon="34.856912" lat="31.73695"><ele>152.9</ele><time>2018-04-04T11:34:48.392Z</time></trkpt><trkpt lon="34.856915" lat="31.736925"><ele>152.9</ele><time>2018-04-04T11:34:49.392Z</time></trkpt><trkpt lon="34.856923" lat="31.7369"><ele>152.9</ele><time>2018-04-04T11:34:50.392Z</time></trkpt><trkpt lon="34.856933" lat="31.736877"><ele>152.9</ele><time>2018-04-04T11:34:51.392Z</time></trkpt><trkpt lon="34.856943" lat="31.736852"><ele>152.9</ele><time>2018-04-04T11:34:52.392Z</time></trkpt><trkpt lon="34.856953" lat="31.73683"><ele>153.9</ele><time>2018-04-04T11:34:53.392Z</time></trkpt><trkpt lon="34.856963" lat="31.736807"><ele>153.9</ele><time>2018-04-04T11:34:54.392Z</time></trkpt><trkpt lon="34.856978" lat="31.736788"><ele>153.9</ele><time>2018-04-04T11:34:55.392Z</time></trkpt><trkpt lon="34.857002" lat="31.736777"><ele>153.9</ele><time>2018-04-04T11:34:56.392Z</time></trkpt><trkpt lon="34.857023" lat="31.736762"><ele>153.9</ele><time>2018-04-04T11:34:57.392Z</time></trkpt><trkpt lon="34.857045" lat="31.736748"><ele>153.9</ele><time>2018-04-04T11:34:58.392Z</time></trkpt><trkpt lon="34.857068" lat="31.736733"><ele>153.9</ele><time>2018-04-04T11:34:59.392Z</time></trkpt><trkpt lon="34.85709" lat="31.736718"><ele>153.9</ele><time>2018-04-04T11:35:00.392Z</time></trkpt><trkpt lon="34.857112" lat="31.736703"><ele>153.9</ele><time>2018-04-04T11:35:01.392Z</time></trkpt><trkpt lon="34.857133" lat="31.736688"><ele>153.9</ele><time>2018-04-04T11:35:02.392Z</time></trkpt><trkpt lon="34.857153" lat="31.736675"><ele>153.9</ele><time>2018-04-04T11:35:03.392Z</time></trkpt><trkpt lon="34.857173" lat="31.736663"><ele>153.9</ele><time>2018-04-04T11:35:04.392Z</time></trkpt><trkpt lon="34.857193" lat="31.736652"><ele>154.8</ele><time>2018-04-04T11:35:05.392Z</time></trkpt><trkpt lon="34.857217" lat="31.73664"><ele>154.8</ele><time>2018-04-04T11:35:06.392Z</time></trkpt><trkpt lon="34.857242" lat="31.73663"><ele>154.8</ele><time>2018-04-04T11:35:07.392Z</time></trkpt><trkpt lon="34.857267" lat="31.736622"><ele>154.8</ele><time>2018-04-04T11:35:08.392Z</time></trkpt><trkpt lon="34.857295" lat="31.736613"><ele>155.9</ele><time>2018-04-04T11:35:09.392Z</time></trkpt><trkpt lon="34.85732" lat="31.736602"><ele>155.9</ele><time>2018-04-04T11:35:10.392Z</time></trkpt><trkpt lon="34.857343" lat="31.736588"><ele>155.9</ele><time>2018-04-04T11:35:11.392Z</time></trkpt><trkpt lon="34.857367" lat="31.736575"><ele>155.9</ele><time>2018-04-04T11:35:12.392Z</time></trkpt><trkpt lon="34.857388" lat="31.73656"><ele>156.8</ele><time>2018-04-04T11:35:13.392Z</time></trkpt><trkpt lon="34.857413" lat="31.736548"><ele>156.8</ele><time>2018-04-04T11:35:14.392Z</time></trkpt><trkpt lon="34.85744" lat="31.736542"><ele>156.8</ele><time>2018-04-04T11:35:15.392Z</time></trkpt><trkpt lon="34.857468" lat="31.736537"><ele>156.8</ele><time>2018-04-04T11:35:16.392Z</time></trkpt><trkpt lon="34.857497" lat="31.736533"><ele>156.8</ele><time>2018-04-04T11:35:17.392Z</time></trkpt><trkpt lon="34.857525" lat="31.73653"><ele>156.8</ele><time>2018-04-04T11:35:18.392Z</time></trkpt><trkpt lon="34.857552" lat="31.736528"><ele>156.8</ele><time>2018-04-04T11:35:19.392Z</time></trkpt><trkpt lon="34.857578" lat="31.736528"><ele>156.8</ele><time>2018-04-04T11:35:20.392Z</time></trkpt><trkpt lon="34.857607" lat="31.736528"><ele>156.8</ele><time>2018-04-04T11:35:21.392Z</time></trkpt><trkpt lon="34.857633" lat="31.736528"><ele>156.8</ele><time>2018-04-04T11:35:22.392Z</time></trkpt><trkpt lon="34.857663" lat="31.736523"><ele>157.9</ele><time>2018-04-04T11:35:23.392Z</time></trkpt><trkpt lon="34.857692" lat="31.736513"><ele>157.9</ele><time>2018-04-04T11:35:24.392Z</time></trkpt><trkpt lon="34.85772" lat="31.736498"><ele>157.9</ele><time>2018-04-04T11:35:25.392Z</time></trkpt><trkpt lon="34.857745" lat="31.736482"><ele>157.9</ele><time>2018-04-04T11:35:26.392Z</time></trkpt><trkpt lon="34.85777" lat="31.736465"><ele>157.9</ele><time>2018-04-04T11:35:27.392Z</time></trkpt><trkpt lon="34.857793" lat="31.736447"><ele>157.9</ele><time>2018-04-04T11:35:28.392Z</time></trkpt><trkpt lon="34.857813" lat="31.736427"><ele>158.8</ele><time>2018-04-04T11:35:29.392Z</time></trkpt><trkpt lon="34.857828" lat="31.736405"><ele>158.8</ele><time>2018-04-04T11:35:30.392Z</time></trkpt><trkpt lon="34.85784" lat="31.736382"><ele>158.8</ele><time>2018-04-04T11:35:31.392Z</time></trkpt><trkpt lon="34.857847" lat="31.736357"><ele>158.8</ele><time>2018-04-04T11:35:32.392Z</time></trkpt><trkpt lon="34.857855" lat="31.736333"><ele>158.8</ele><time>2018-04-04T11:35:33.392Z</time></trkpt><trkpt lon="34.857865" lat="31.73631"><ele>158.8</ele><time>2018-04-04T11:35:34.392Z</time></trkpt><trkpt lon="34.857875" lat="31.736288"><ele>159.9</ele><time>2018-04-04T11:35:35.392Z</time></trkpt><trkpt lon="34.857885" lat="31.736265"><ele>159.9</ele><time>2018-04-04T11:35:36.392Z</time></trkpt><trkpt lon="34.857895" lat="31.73624"><ele>159.9</ele><time>2018-04-04T11:35:37.392Z</time></trkpt><trkpt lon="34.857897" lat="31.736218"><ele>159.9</ele><time>2018-04-04T11:35:38.392Z</time></trkpt><trkpt lon="34.857897" lat="31.736193"><ele>159.9</ele><time>2018-04-04T11:35:39.392Z</time></trkpt><trkpt lon="34.857893" lat="31.736168"><ele>159.9</ele><time>2018-04-04T11:35:40.392Z</time></trkpt><trkpt lon="34.85789" lat="31.736143"><ele>159.9</ele><time>2018-04-04T11:35:41.392Z</time></trkpt><trkpt lon="34.857883" lat="31.73612"><ele>159.9</ele><time>2018-04-04T11:35:42.392Z</time></trkpt><trkpt lon="34.857878" lat="31.736095"><ele>160.9</ele><time>2018-04-04T11:35:43.392Z</time></trkpt><trkpt lon="34.857875" lat="31.736072"><ele>160.9</ele><time>2018-04-04T11:35:44.392Z</time></trkpt><trkpt lon="34.857868" lat="31.736052"><ele>160.9</ele><time>2018-04-04T11:35:45.392Z</time></trkpt><trkpt lon="34.857857" lat="31.73603"><ele>160.9</ele><time>2018-04-04T11:35:46.392Z</time></trkpt><trkpt lon="34.857845" lat="31.736008"><ele>161.9</ele><time>2018-04-04T11:35:47.392Z</time></trkpt><trkpt lon="34.857835" lat="31.735985"><ele>161.9</ele><time>2018-04-04T11:35:48.392Z</time></trkpt><trkpt lon="34.85783" lat="31.735962"><ele>161.9</ele><time>2018-04-04T11:35:49.392Z</time></trkpt><trkpt lon="34.857827" lat="31.735942"><ele>161.9</ele><time>2018-04-04T11:35:50.392Z</time></trkpt><trkpt lon="34.857823" lat="31.735923"><ele>161.9</ele><time>2018-04-04T11:35:51.392Z</time></trkpt><trkpt lon="34.857818" lat="31.735907"><ele>161.9</ele><time>2018-04-04T11:35:52.392Z</time></trkpt><trkpt lon="34.857812" lat="31.73589"><ele>162.9</ele><time>2018-04-04T11:35:53.392Z</time></trkpt><trkpt lon="34.857808" lat="31.735875"><ele>162.9</ele><time>2018-04-04T11:35:54.392Z</time></trkpt><trkpt lon="34.857805" lat="31.73586"><ele>162.9</ele><time>2018-04-04T11:35:55.392Z</time></trkpt><trkpt lon="34.857802" lat="31.735847"><ele>162.9</ele><time>2018-04-04T11:35:56.392Z</time></trkpt><trkpt lon="34.8578" lat="31.735835"><ele>162.9</ele><time>2018-04-04T11:35:57.392Z</time></trkpt><trkpt lon="34.8578" lat="31.735828"><ele>162.9</ele><time>2018-04-04T11:35:58.392Z</time></trkpt><trkpt lon="34.857798" lat="31.735827"><ele>162.9</ele><time>2018-04-04T11:35:59.392Z</time></trkpt><trkpt lon="34.857803" lat="31.735828"><ele>162.9</ele><time>2018-04-04T11:36:00.392Z</time></trkpt><trkpt lon="34.857807" lat="31.735828"><ele>162.9</ele><time>2018-04-04T11:36:01.392Z</time></trkpt><trkpt lon="34.85781" lat="31.735828"><ele>162.9</ele><time>2018-04-04T11:36:02.392Z</time></trkpt><trkpt lon="34.857812" lat="31.735828"><ele>162.9</ele><time>2018-04-04T11:36:03.392Z</time></trkpt><trkpt lon="34.85781" lat="31.73583"><ele>162.9</ele><time>2018-04-04T11:36:04.392Z</time></trkpt><trkpt lon="34.857812" lat="31.735838"><ele>162.9</ele><time>2018-04-04T11:36:05.392Z</time></trkpt><trkpt lon="34.857815" lat="31.73585"><ele>162.9</ele><time>2018-04-04T11:36:06.392Z</time></trkpt><trkpt lon="34.857815" lat="31.735865"><ele>162.9</ele><time>2018-04-04T11:36:07.392Z</time></trkpt><trkpt lon="34.857815" lat="31.735882"><ele>162.9</ele><time>2018-04-04T11:36:08.392Z</time></trkpt><trkpt lon="34.857818" lat="31.735905"><ele>162.9</ele><time>2018-04-04T11:36:09.392Z</time></trkpt><trkpt lon="34.857823" lat="31.735925"><ele>162.9</ele><time>2018-04-04T11:36:10.392Z</time></trkpt><trkpt lon="34.857827" lat="31.735947"><ele>161.9</ele><time>2018-04-04T11:36:11.392Z</time></trkpt><trkpt lon="34.857832" lat="31.73597"><ele>161.9</ele><time>2018-04-04T11:36:12.392Z</time></trkpt><trkpt lon="34.857842" lat="31.735993"><ele>161.9</ele><time>2018-04-04T11:36:13.392Z</time></trkpt><trkpt lon="34.85786" lat="31.736015"><ele>161.9</ele><time>2018-04-04T11:36:14.392Z</time></trkpt><trkpt lon="34.857888" lat="31.736028"><ele>161.9</ele><time>2018-04-04T11:36:15.392Z</time></trkpt><trkpt lon="34.857918" lat="31.736038"><ele>161.9</ele><time>2018-04-04T11:36:16.392Z</time></trkpt><trkpt lon="34.857948" lat="31.736045"><ele>161.9</ele><time>2018-04-04T11:36:17.392Z</time></trkpt><trkpt lon="34.857975" lat="31.736055"><ele>161.9</ele><time>2018-04-04T11:36:18.392Z</time></trkpt><trkpt lon="34.858002" lat="31.736063"><ele>160.9</ele><time>2018-04-04T11:36:19.392Z</time></trkpt><trkpt lon="34.858032" lat="31.736068"><ele>160.9</ele><time>2018-04-04T11:36:20.392Z</time></trkpt><trkpt lon="34.858058" lat="31.736075"><ele>160.9</ele><time>2018-04-04T11:36:21.392Z</time></trkpt><trkpt lon="34.858085" lat="31.736082"><ele>160.9</ele><time>2018-04-04T11:36:22.392Z</time></trkpt><trkpt lon="34.85811" lat="31.73609"><ele>160.9</ele><time>2018-04-04T11:36:23.392Z</time></trkpt><trkpt lon="34.858133" lat="31.736098"><ele>160.9</ele><time>2018-04-04T11:36:24.392Z</time></trkpt><trkpt lon="34.858158" lat="31.736102"><ele>160.9</ele><time>2018-04-04T11:36:25.392Z</time></trkpt><trkpt lon="34.858188" lat="31.736103"><ele>160.9</ele><time>2018-04-04T11:36:26.392Z</time></trkpt><trkpt lon="34.858218" lat="31.736102"><ele>160.9</ele><time>2018-04-04T11:36:27.392Z</time></trkpt><trkpt lon="34.858247" lat="31.736097"><ele>160.9</ele><time>2018-04-04T11:36:28.392Z</time></trkpt><trkpt lon="34.858263" lat="31.736087"><ele>160.9</ele><time>2018-04-04T11:36:29.392Z</time></trkpt><trkpt lon="34.858275" lat="31.736072"><ele>160.9</ele><time>2018-04-04T11:36:30.392Z</time></trkpt><trkpt lon="34.858288" lat="31.73606"><ele>161.9</ele><time>2018-04-04T11:36:31.392Z</time></trkpt><trkpt lon="34.858303" lat="31.73605"><ele>161.9</ele><time>2018-04-04T11:36:32.392Z</time></trkpt><trkpt lon="34.858317" lat="31.736038"><ele>161.9</ele><time>2018-04-04T11:36:33.392Z</time></trkpt><trkpt lon="34.858328" lat="31.736025"><ele>161.9</ele><time>2018-04-04T11:36:34.392Z</time></trkpt><trkpt lon="34.858342" lat="31.736008"><ele>161.9</ele><time>2018-04-04T11:36:35.392Z</time></trkpt><trkpt lon="34.858358" lat="31.735997"><ele>161.9</ele><time>2018-04-04T11:36:36.392Z</time></trkpt><trkpt lon="34.858375" lat="31.735988"><ele>161.9</ele><time>2018-04-04T11:36:37.392Z</time></trkpt><trkpt lon="34.85839" lat="31.735977"><ele>161.9</ele><time>2018-04-04T11:36:38.392Z</time></trkpt><trkpt lon="34.858405" lat="31.735963"><ele>161.9</ele><time>2018-04-04T11:36:39.392Z</time></trkpt><trkpt lon="34.858413" lat="31.735947"><ele>161.9</ele><time>2018-04-04T11:36:40.392Z</time></trkpt><trkpt lon="34.85842" lat="31.735927"><ele>161.9</ele><time>2018-04-04T11:36:41.392Z</time></trkpt><trkpt lon="34.85843" lat="31.735905"><ele>161.9</ele><time>2018-04-04T11:36:42.392Z</time></trkpt><trkpt lon="34.85844" lat="31.735887"><ele>161.9</ele><time>2018-04-04T11:36:43.392Z</time></trkpt><trkpt lon="34.858448" lat="31.735865"><ele>161.9</ele><time>2018-04-04T11:36:44.392Z</time></trkpt><trkpt lon="34.85846" lat="31.735845"><ele>162.9</ele><time>2018-04-04T11:36:45.392Z</time></trkpt><trkpt lon="34.858472" lat="31.735825"><ele>162.9</ele><time>2018-04-04T11:36:46.392Z</time></trkpt><trkpt lon="34.858483" lat="31.735808"><ele>162.9</ele><time>2018-04-04T11:36:47.392Z</time></trkpt><trkpt lon="34.858498" lat="31.735795"><ele>162.9</ele><time>2018-04-04T11:36:48.392Z</time></trkpt><trkpt lon="34.858515" lat="31.73578"><ele>162.9</ele><time>2018-04-04T11:36:49.392Z</time></trkpt><trkpt lon="34.85853" lat="31.73576"><ele>162.9</ele><time>2018-04-04T11:36:50.392Z</time></trkpt><trkpt lon="34.85854" lat="31.735738"><ele>162.9</ele><time>2018-04-04T11:36:51.392Z</time></trkpt><trkpt lon="34.858547" lat="31.735717"><ele>162.9</ele><time>2018-04-04T11:36:52.392Z</time></trkpt><trkpt lon="34.858552" lat="31.735695"><ele>162.9</ele><time>2018-04-04T11:36:53.392Z</time></trkpt><trkpt lon="34.858555" lat="31.735675"><ele>162.9</ele><time>2018-04-04T11:36:54.392Z</time></trkpt><trkpt lon="34.858558" lat="31.735655"><ele>163.8</ele><time>2018-04-04T11:36:55.392Z</time></trkpt><trkpt lon="34.858565" lat="31.735637"><ele>163.8</ele><time>2018-04-04T11:36:56.392Z</time></trkpt><trkpt lon="34.858572" lat="31.735615"><ele>163.8</ele><time>2018-04-04T11:36:57.392Z</time></trkpt><trkpt lon="34.858582" lat="31.735592"><ele>163.8</ele><time>2018-04-04T11:36:58.392Z</time></trkpt><trkpt lon="34.858593" lat="31.735568"><ele>163.8</ele><time>2018-04-04T11:36:59.392Z</time></trkpt><trkpt lon="34.858603" lat="31.735547"><ele>163.8</ele><time>2018-04-04T11:37:00.392Z</time></trkpt><trkpt lon="34.858615" lat="31.73553"><ele>163.8</ele><time>2018-04-04T11:37:01.392Z</time></trkpt><trkpt lon="34.858635" lat="31.735517"><ele>163.8</ele><time>2018-04-04T11:37:02.392Z</time></trkpt><trkpt lon="34.858658" lat="31.735507"><ele>163.8</ele><time>2018-04-04T11:37:03.392Z</time></trkpt><trkpt lon="34.85868" lat="31.735495"><ele>163.8</ele><time>2018-04-04T11:37:04.392Z</time></trkpt><trkpt lon="34.858703" lat="31.735482"><ele>163.8</ele><time>2018-04-04T11:37:05.392Z</time></trkpt><trkpt lon="34.858722" lat="31.735465"><ele>163.8</ele><time>2018-04-04T11:37:06.392Z</time></trkpt><trkpt lon="34.858735" lat="31.735443"><ele>163.8</ele><time>2018-04-04T11:37:07.392Z</time></trkpt><trkpt lon="34.85875" lat="31.735423"><ele>163.8</ele><time>2018-04-04T11:37:08.392Z</time></trkpt><trkpt lon="34.858762" lat="31.735405"><ele>164.9</ele><time>2018-04-04T11:37:09.392Z</time></trkpt><trkpt lon="34.858767" lat="31.735387"><ele>164.9</ele><time>2018-04-04T11:37:10.392Z</time></trkpt><trkpt lon="34.858767" lat="31.735372"><ele>164.9</ele><time>2018-04-04T11:37:11.392Z</time></trkpt><trkpt lon="34.858767" lat="31.735358"><ele>164.9</ele><time>2018-04-04T11:37:12.392Z</time></trkpt><trkpt lon="34.858765" lat="31.73535"><ele>164.9</ele><time>2018-04-04T11:37:13.392Z</time></trkpt><trkpt lon="34.858763" lat="31.735345"><ele>164.9</ele><time>2018-04-04T11:37:14.392Z</time></trkpt><trkpt lon="34.858765" lat="31.735337"><ele>164.9</ele><time>2018-04-04T11:37:15.392Z</time></trkpt><trkpt lon="34.858767" lat="31.735327"><ele>164.9</ele><time>2018-04-04T11:37:16.392Z</time></trkpt><trkpt lon="34.85877" lat="31.735317"><ele>165.8</ele><time>2018-04-04T11:37:17.392Z</time></trkpt><trkpt lon="34.858772" lat="31.735303"><ele>165.8</ele><time>2018-04-04T11:37:18.392Z</time></trkpt><trkpt lon="34.858775" lat="31.735287"><ele>165.8</ele><time>2018-04-04T11:37:19.392Z</time></trkpt><trkpt lon="34.85878" lat="31.735267"><ele>165.8</ele><time>2018-04-04T11:37:20.392Z</time></trkpt><trkpt lon="34.858785" lat="31.73525"><ele>166.9</ele><time>2018-04-04T11:37:21.392Z</time></trkpt><trkpt lon="34.858792" lat="31.735232"><ele>166.9</ele><time>2018-04-04T11:37:22.392Z</time></trkpt><trkpt lon="34.858802" lat="31.735215"><ele>166.9</ele><time>2018-04-04T11:37:23.392Z</time></trkpt><trkpt lon="34.858815" lat="31.735198"><ele>166.9</ele><time>2018-04-04T11:37:24.392Z</time></trkpt><trkpt lon="34.858828" lat="31.735183"><ele>166.9</ele><time>2018-04-04T11:37:25.392Z</time></trkpt><trkpt lon="34.858842" lat="31.735172"><ele>166.9</ele><time>2018-04-04T11:37:26.392Z</time></trkpt><trkpt lon="34.858863" lat="31.73516"><ele>166.9</ele><time>2018-04-04T11:37:27.392Z</time></trkpt><trkpt lon="34.85889" lat="31.735147"><ele>166.9</ele><time>2018-04-04T11:37:28.392Z</time></trkpt><trkpt lon="34.858917" lat="31.735133"><ele>166.9</ele><time>2018-04-04T11:37:29.392Z</time></trkpt><trkpt lon="34.858943" lat="31.735117"><ele>166.9</ele><time>2018-04-04T11:37:30.392Z</time></trkpt><trkpt lon="34.858965" lat="31.7351"><ele>166.9</ele><time>2018-04-04T11:37:31.392Z</time></trkpt><trkpt lon="34.858985" lat="31.735085"><ele>166.9</ele><time>2018-04-04T11:37:32.392Z</time></trkpt><trkpt lon="34.859005" lat="31.735072"><ele>166.9</ele><time>2018-04-04T11:37:33.392Z</time></trkpt><trkpt lon="34.859023" lat="31.735063"><ele>166.9</ele><time>2018-04-04T11:37:34.392Z</time></trkpt><trkpt lon="34.859047" lat="31.73505"><ele>166.9</ele><time>2018-04-04T11:37:35.392Z</time></trkpt><trkpt lon="34.85907" lat="31.735038"><ele>166.9</ele><time>2018-04-04T11:37:36.392Z</time></trkpt><trkpt lon="34.859092" lat="31.735025"><ele>166.9</ele><time>2018-04-04T11:37:37.392Z</time></trkpt><trkpt lon="34.859115" lat="31.735017"><ele>166.9</ele><time>2018-04-04T11:37:38.392Z</time></trkpt><trkpt lon="34.859133" lat="31.735007"><ele>166.9</ele><time>2018-04-04T11:37:39.392Z</time></trkpt><trkpt lon="34.859152" lat="31.734992"><ele>166.9</ele><time>2018-04-04T11:37:40.392Z</time></trkpt><trkpt lon="34.859167" lat="31.73498"><ele>166.9</ele><time>2018-04-04T11:37:41.392Z</time></trkpt><trkpt lon="34.859185" lat="31.73497"><ele>166.9</ele><time>2018-04-04T11:37:42.392Z</time></trkpt><trkpt lon="34.859207" lat="31.734962"><ele>166.9</ele><time>2018-04-04T11:37:43.392Z</time></trkpt><trkpt lon="34.85923" lat="31.734953"><ele>166.9</ele><time>2018-04-04T11:37:44.392Z</time></trkpt><trkpt lon="34.859252" lat="31.734947"><ele>166.9</ele><time>2018-04-04T11:37:45.392Z</time></trkpt><trkpt lon="34.859275" lat="31.734943"><ele>166.9</ele><time>2018-04-04T11:37:46.392Z</time></trkpt><trkpt lon="34.859303" lat="31.73494"><ele>166.9</ele><time>2018-04-04T11:37:47.392Z</time></trkpt><trkpt lon="34.859332" lat="31.734932"><ele>166.9</ele><time>2018-04-04T11:37:48.392Z</time></trkpt><trkpt lon="34.859362" lat="31.734928"><ele>166.9</ele><time>2018-04-04T11:37:49.392Z</time></trkpt><trkpt lon="34.859385" lat="31.734932"><ele>166.9</ele><time>2018-04-04T11:37:50.392Z</time></trkpt><trkpt lon="34.859413" lat="31.734928"><ele>166.9</ele><time>2018-04-04T11:37:51.392Z</time></trkpt><trkpt lon="34.859437" lat="31.734925"><ele>166.9</ele><time>2018-04-04T11:37:52.392Z</time></trkpt><trkpt lon="34.85946" lat="31.734922"><ele>166.9</ele><time>2018-04-04T11:37:53.392Z</time></trkpt><trkpt lon="34.859485" lat="31.734918"><ele>166.9</ele><time>2018-04-04T11:37:54.392Z</time></trkpt><trkpt lon="34.859512" lat="31.734912"><ele>168.9</ele><time>2018-04-04T11:37:55.392Z</time></trkpt><trkpt lon="34.859533" lat="31.7349"><ele>168.9</ele><time>2018-04-04T11:37:56.392Z</time></trkpt><trkpt lon="34.85955" lat="31.734887"><ele>169.9</ele><time>2018-04-04T11:37:57.392Z</time></trkpt><trkpt lon="34.859562" lat="31.734877"><ele>169.9</ele><time>2018-04-04T11:37:58.392Z</time></trkpt><trkpt lon="34.859577" lat="31.734867"><ele>169.9</ele><time>2018-04-04T11:37:59.392Z</time></trkpt><trkpt lon="34.859592" lat="31.734853"><ele>169.9</ele><time>2018-04-04T11:38:00.392Z</time></trkpt><trkpt lon="34.859598" lat="31.734838"><ele>170.8</ele><time>2018-04-04T11:38:01.392Z</time></trkpt><trkpt lon="34.859605" lat="31.734827"><ele>170.8</ele><time>2018-04-04T11:38:02.392Z</time></trkpt><trkpt lon="34.859617" lat="31.734813"><ele>170.8</ele><time>2018-04-04T11:38:03.392Z</time></trkpt><trkpt lon="34.859632" lat="31.7348"><ele>170.8</ele><time>2018-04-04T11:38:04.392Z</time></trkpt><trkpt lon="34.859645" lat="31.73479"><ele>171.9</ele><time>2018-04-04T11:38:05.392Z</time></trkpt><trkpt lon="34.85966" lat="31.734782"><ele>171.9</ele><time>2018-04-04T11:38:06.392Z</time></trkpt><trkpt lon="34.859677" lat="31.734772"><ele>171.9</ele><time>2018-04-04T11:38:07.392Z</time></trkpt><trkpt lon="34.85969" lat="31.734765"><ele>171.9</ele><time>2018-04-04T11:38:08.392Z</time></trkpt><trkpt lon="34.859708" lat="31.734762"><ele>172.8</ele><time>2018-04-04T11:38:09.392Z</time></trkpt><trkpt lon="34.85973" lat="31.734762"><ele>172.8</ele><time>2018-04-04T11:38:10.392Z</time></trkpt><trkpt lon="34.859752" lat="31.734765"><ele>172.8</ele><time>2018-04-04T11:38:11.392Z</time></trkpt><trkpt lon="34.859773" lat="31.734765"><ele>172.8</ele><time>2018-04-04T11:38:12.392Z</time></trkpt><trkpt lon="34.859797" lat="31.734762"><ele>172.8</ele><time>2018-04-04T11:38:13.392Z</time></trkpt><trkpt lon="34.859818" lat="31.734755"><ele>172.8</ele><time>2018-04-04T11:38:14.392Z</time></trkpt><trkpt lon="34.859837" lat="31.734745"><ele>172.8</ele><time>2018-04-04T11:38:15.392Z</time></trkpt><trkpt lon="34.859845" lat="31.734732"><ele>172.8</ele><time>2018-04-04T11:38:16.392Z</time></trkpt><trkpt lon="34.859853" lat="31.73472"><ele>172.8</ele><time>2018-04-04T11:38:17.392Z</time></trkpt><trkpt lon="34.859865" lat="31.73471"><ele>172.8</ele><time>2018-04-04T11:38:18.392Z</time></trkpt><trkpt lon="34.859878" lat="31.7347"><ele>173.9</ele><time>2018-04-04T11:38:19.392Z</time></trkpt><trkpt lon="34.85989" lat="31.734688"><ele>173.9</ele><time>2018-04-04T11:38:20.392Z</time></trkpt><trkpt lon="34.859902" lat="31.734677"><ele>173.9</ele><time>2018-04-04T11:38:21.392Z</time></trkpt><trkpt lon="34.859913" lat="31.734665"><ele>173.9</ele><time>2018-04-04T11:38:22.392Z</time></trkpt><trkpt lon="34.859925" lat="31.73465"><ele>173.9</ele><time>2018-04-04T11:38:23.392Z</time></trkpt><trkpt lon="34.859937" lat="31.734635"><ele>173.9</ele><time>2018-04-04T11:38:24.392Z</time></trkpt><trkpt lon="34.859947" lat="31.734618"><ele>173.9</ele><time>2018-04-04T11:38:25.392Z</time></trkpt><trkpt lon="34.859957" lat="31.734605"><ele>173.9</ele><time>2018-04-04T11:38:26.392Z</time></trkpt><trkpt lon="34.859968" lat="31.734593"><ele>173.9</ele><time>2018-04-04T11:38:27.392Z</time></trkpt><trkpt lon="34.859983" lat="31.734582"><ele>173.9</ele><time>2018-04-04T11:38:28.392Z</time></trkpt><trkpt lon="34.859998" lat="31.734568"><ele>173.9</ele><time>2018-04-04T11:38:29.392Z</time></trkpt><trkpt lon="34.860017" lat="31.734557"><ele>173.9</ele><time>2018-04-04T11:38:30.392Z</time></trkpt><trkpt lon="34.86003" lat="31.734542"><ele>173.9</ele><time>2018-04-04T11:38:31.392Z</time></trkpt><trkpt lon="34.860042" lat="31.734528"><ele>173.9</ele><time>2018-04-04T11:38:32.392Z</time></trkpt><trkpt lon="34.860055" lat="31.734512"><ele>175.9</ele><time>2018-04-04T11:38:33.392Z</time></trkpt><trkpt lon="34.860068" lat="31.734495"><ele>175.9</ele><time>2018-04-04T11:38:34.392Z</time></trkpt><trkpt lon="34.860083" lat="31.734482"><ele>175.9</ele><time>2018-04-04T11:38:35.392Z</time></trkpt><trkpt lon="34.8601" lat="31.73447"><ele>175.9</ele><time>2018-04-04T11:38:36.392Z</time></trkpt><trkpt lon="34.860115" lat="31.73446"><ele>175.9</ele><time>2018-04-04T11:38:37.392Z</time></trkpt><trkpt lon="34.86013" lat="31.734448"><ele>175.9</ele><time>2018-04-04T11:38:38.392Z</time></trkpt><trkpt lon="34.860143" lat="31.734437"><ele>175.9</ele><time>2018-04-04T11:38:39.392Z</time></trkpt><trkpt lon="34.860157" lat="31.734425"><ele>175.9</ele><time>2018-04-04T11:38:40.392Z</time></trkpt><trkpt lon="34.860168" lat="31.73441"><ele>176.9</ele><time>2018-04-04T11:38:41.392Z</time></trkpt><trkpt lon="34.860177" lat="31.734393"><ele>176.9</ele><time>2018-04-04T11:38:42.392Z</time></trkpt><trkpt lon="34.860182" lat="31.734377"><ele>176.9</ele><time>2018-04-04T11:38:43.392Z</time></trkpt><trkpt lon="34.860178" lat="31.73436"><ele>176.9</ele><time>2018-04-04T11:38:44.392Z</time></trkpt><trkpt lon="34.860178" lat="31.734342"><ele>176.9</ele><time>2018-04-04T11:38:45.392Z</time></trkpt><trkpt lon="34.860183" lat="31.734327"><ele>176.9</ele><time>2018-04-04T11:38:46.392Z</time></trkpt><trkpt lon="34.86019" lat="31.734312"><ele>177.9</ele><time>2018-04-04T11:38:47.392Z</time></trkpt><trkpt lon="34.860195" lat="31.734297"><ele>177.9</ele><time>2018-04-04T11:38:48.392Z</time></trkpt><trkpt lon="34.860203" lat="31.734282"><ele>177.9</ele><time>2018-04-04T11:38:49.392Z</time></trkpt><trkpt lon="34.860217" lat="31.734268"><ele>177.9</ele><time>2018-04-04T11:38:50.392Z</time></trkpt><trkpt lon="34.860232" lat="31.734253"><ele>177.9</ele><time>2018-04-04T11:38:51.392Z</time></trkpt><trkpt lon="34.86025" lat="31.734242"><ele>177.9</ele><time>2018-04-04T11:38:52.392Z</time></trkpt><trkpt lon="34.860268" lat="31.734228"><ele>177.9</ele><time>2018-04-04T11:38:53.392Z</time></trkpt><trkpt lon="34.860285" lat="31.734213"><ele>177.9</ele><time>2018-04-04T11:38:54.392Z</time></trkpt><trkpt lon="34.860303" lat="31.734197"><ele>178.9</ele><time>2018-04-04T11:38:55.392Z</time></trkpt><trkpt lon="34.860322" lat="31.73418"><ele>178.9</ele><time>2018-04-04T11:38:56.392Z</time></trkpt><trkpt lon="34.860342" lat="31.734163"><ele>178.9</ele><time>2018-04-04T11:38:57.392Z</time></trkpt><trkpt lon="34.860362" lat="31.734147"><ele>178.9</ele><time>2018-04-04T11:38:58.392Z</time></trkpt><trkpt lon="34.860385" lat="31.73413"><ele>178.9</ele><time>2018-04-04T11:38:59.392Z</time></trkpt><trkpt lon="34.860408" lat="31.734115"><ele>178.9</ele><time>2018-04-04T11:39:00.392Z</time></trkpt><trkpt lon="34.860432" lat="31.734098"><ele>178.9</ele><time>2018-04-04T11:39:01.392Z</time></trkpt><trkpt lon="34.860455" lat="31.734083"><ele>178.9</ele><time>2018-04-04T11:39:02.392Z</time></trkpt><trkpt lon="34.860477" lat="31.734067"><ele>178.9</ele><time>2018-04-04T11:39:03.392Z</time></trkpt><trkpt lon="34.860497" lat="31.734052"><ele>178.9</ele><time>2018-04-04T11:39:04.392Z</time></trkpt><trkpt lon="34.860517" lat="31.734037"><ele>178.9</ele><time>2018-04-04T11:39:05.392Z</time></trkpt><trkpt lon="34.860538" lat="31.734027"><ele>178.9</ele><time>2018-04-04T11:39:06.392Z</time></trkpt><trkpt lon="34.860563" lat="31.734015"><ele>178.9</ele><time>2018-04-04T11:39:07.392Z</time></trkpt><trkpt lon="34.860588" lat="31.734003"><ele>178.9</ele><time>2018-04-04T11:39:08.392Z</time></trkpt><trkpt lon="34.860615" lat="31.733988"><ele>178.9</ele><time>2018-04-04T11:39:09.392Z</time></trkpt><trkpt lon="34.86064" lat="31.733975"><ele>178.9</ele><time>2018-04-04T11:39:10.392Z</time></trkpt><trkpt lon="34.86067" lat="31.733967"><ele>178.9</ele><time>2018-04-04T11:39:11.392Z</time></trkpt><trkpt lon="34.860702" lat="31.73396"><ele>178.9</ele><time>2018-04-04T11:39:12.392Z</time></trkpt><trkpt lon="34.860738" lat="31.733953"><ele>178.9</ele><time>2018-04-04T11:39:13.392Z</time></trkpt><trkpt lon="34.860773" lat="31.733943"><ele>178.9</ele><time>2018-04-04T11:39:14.392Z</time></trkpt><trkpt lon="34.860808" lat="31.733928"><ele>178.9</ele><time>2018-04-04T11:39:15.392Z</time></trkpt><trkpt lon="34.860837" lat="31.733912"><ele>178.9</ele><time>2018-04-04T11:39:16.392Z</time></trkpt><trkpt lon="34.860847" lat="31.73389"><ele>178.9</ele><time>2018-04-04T11:39:17.392Z</time></trkpt><trkpt lon="34.860857" lat="31.733865"><ele>178.9</ele><time>2018-04-04T11:39:18.392Z</time></trkpt><trkpt lon="34.860865" lat="31.733838"><ele>178.9</ele><time>2018-04-04T11:39:19.392Z</time></trkpt><trkpt lon="34.860873" lat="31.733808"><ele>178.9</ele><time>2018-04-04T11:39:20.392Z</time></trkpt><trkpt lon="34.860877" lat="31.733778"><ele>178.9</ele><time>2018-04-04T11:39:21.392Z</time></trkpt><trkpt lon="34.860883" lat="31.73375"><ele>178.9</ele><time>2018-04-04T11:39:22.392Z</time></trkpt><trkpt lon="34.860893" lat="31.733725"><ele>178.9</ele><time>2018-04-04T11:39:23.392Z</time></trkpt><trkpt lon="34.860913" lat="31.733702"><ele>178.9</ele><time>2018-04-04T11:39:24.392Z</time></trkpt><trkpt lon="34.860938" lat="31.733677"><ele>178.9</ele><time>2018-04-04T11:39:25.392Z</time></trkpt><trkpt lon="34.860962" lat="31.733647"><ele>178.9</ele><time>2018-04-04T11:39:26.392Z</time></trkpt><trkpt lon="34.860987" lat="31.733615"><ele>178.9</ele><time>2018-04-04T11:39:27.392Z</time></trkpt><trkpt lon="34.860998" lat="31.733578"><ele>178.9</ele><time>2018-04-04T11:39:28.392Z</time></trkpt><trkpt lon="34.860998" lat="31.733545"><ele>178.9</ele><time>2018-04-04T11:39:29.392Z</time></trkpt><trkpt lon="34.86097" lat="31.733518"><ele>178.9</ele><time>2018-04-04T11:39:30.392Z</time></trkpt><trkpt lon="34.860943" lat="31.733498"><ele>178.9</ele><time>2018-04-04T11:39:31.392Z</time></trkpt><trkpt lon="34.860917" lat="31.733475"><ele>178.9</ele><time>2018-04-04T11:39:32.392Z</time></trkpt><trkpt lon="34.860888" lat="31.73345"><ele>179.8</ele><time>2018-04-04T11:39:33.392Z</time></trkpt><trkpt lon="34.860858" lat="31.733428"><ele>179.8</ele><time>2018-04-04T11:39:34.392Z</time></trkpt><trkpt lon="34.860827" lat="31.733407"><ele>179.8</ele><time>2018-04-04T11:39:35.392Z</time></trkpt><trkpt lon="34.860798" lat="31.733383"><ele>179.8</ele><time>2018-04-04T11:39:36.392Z</time></trkpt><trkpt lon="34.860768" lat="31.73336"><ele>180.9</ele><time>2018-04-04T11:39:37.392Z</time></trkpt><trkpt lon="34.86074" lat="31.733333"><ele>180.9</ele><time>2018-04-04T11:39:38.392Z</time></trkpt><trkpt lon="34.860713" lat="31.733308"><ele>180.9</ele><time>2018-04-04T11:39:39.392Z</time></trkpt><trkpt lon="34.860685" lat="31.733285"><ele>180.9</ele><time>2018-04-04T11:39:40.392Z</time></trkpt><trkpt lon="34.860658" lat="31.733263"><ele>180.9</ele><time>2018-04-04T11:39:41.392Z</time></trkpt><trkpt lon="34.860633" lat="31.733245"><ele>180.9</ele><time>2018-04-04T11:39:42.392Z</time></trkpt><trkpt lon="34.860613" lat="31.733225"><ele>180.9</ele><time>2018-04-04T11:39:43.392Z</time></trkpt><trkpt lon="34.860592" lat="31.733205"><ele>180.9</ele><time>2018-04-04T11:39:44.392Z</time></trkpt><trkpt lon="34.860572" lat="31.733185"><ele>181.8</ele><time>2018-04-04T11:39:45.392Z</time></trkpt><trkpt lon="34.860548" lat="31.733168"><ele>181.8</ele><time>2018-04-04T11:39:46.392Z</time></trkpt><trkpt lon="34.86052" lat="31.733157"><ele>182.9</ele><time>2018-04-04T11:39:47.392Z</time></trkpt><trkpt lon="34.86049" lat="31.733152"><ele>182.9</ele><time>2018-04-04T11:39:48.392Z</time></trkpt><trkpt lon="34.86046" lat="31.73315"><ele>182.9</ele><time>2018-04-04T11:39:49.392Z</time></trkpt><trkpt lon="34.860433" lat="31.733152"><ele>182.9</ele><time>2018-04-04T11:39:50.392Z</time></trkpt><trkpt lon="34.860408" lat="31.733153"><ele>183.8</ele><time>2018-04-04T11:39:51.392Z</time></trkpt><trkpt lon="34.860382" lat="31.733153"><ele>183.8</ele><time>2018-04-04T11:39:52.392Z</time></trkpt><trkpt lon="34.860353" lat="31.733148"><ele>183.8</ele><time>2018-04-04T11:39:53.392Z</time></trkpt><trkpt lon="34.860325" lat="31.733143"><ele>183.8</ele><time>2018-04-04T11:39:54.392Z</time></trkpt><trkpt lon="34.860298" lat="31.733138"><ele>183.8</ele><time>2018-04-04T11:39:55.392Z</time></trkpt><trkpt lon="34.860272" lat="31.733133"><ele>183.8</ele><time>2018-04-04T11:39:56.392Z</time></trkpt><trkpt lon="34.860243" lat="31.733127"><ele>184.9</ele><time>2018-04-04T11:39:57.392Z</time></trkpt><trkpt lon="34.860217" lat="31.733117"><ele>184.9</ele><time>2018-04-04T11:39:58.392Z</time></trkpt><trkpt lon="34.860197" lat="31.733103"><ele>184.9</ele><time>2018-04-04T11:39:59.392Z</time></trkpt><trkpt lon="34.860178" lat="31.733085"><ele>184.9</ele><time>2018-04-04T11:40:00.392Z</time></trkpt><trkpt lon="34.860158" lat="31.733065"><ele>185.9</ele><time>2018-04-04T11:40:01.392Z</time></trkpt><trkpt lon="34.860142" lat="31.733043"><ele>185.9</ele><time>2018-04-04T11:40:02.392Z</time></trkpt><trkpt lon="34.860127" lat="31.733022"><ele>185.9</ele><time>2018-04-04T11:40:03.392Z</time></trkpt><trkpt lon="34.860108" lat="31.733"><ele>185.9</ele><time>2018-04-04T11:40:04.392Z</time></trkpt><trkpt lon="34.860092" lat="31.732978"><ele>185.9</ele><time>2018-04-04T11:40:05.392Z</time></trkpt><trkpt lon="34.860078" lat="31.732953"><ele>185.9</ele><time>2018-04-04T11:40:06.392Z</time></trkpt><trkpt lon="34.860073" lat="31.732925"><ele>185.9</ele><time>2018-04-04T11:40:07.392Z</time></trkpt><trkpt lon="34.860075" lat="31.732897"><ele>185.9</ele><time>2018-04-04T11:40:08.392Z</time></trkpt><trkpt lon="34.860083" lat="31.732868"><ele>185.9</ele><time>2018-04-04T11:40:09.392Z</time></trkpt><trkpt lon="34.860087" lat="31.73284"><ele>185.9</ele><time>2018-04-04T11:40:10.392Z</time></trkpt><trkpt lon="34.860082" lat="31.73281"><ele>185.9</ele><time>2018-04-04T11:40:11.392Z</time></trkpt><trkpt lon="34.860067" lat="31.732782"><ele>185.9</ele><time>2018-04-04T11:40:12.392Z</time></trkpt><trkpt lon="34.860048" lat="31.732753"><ele>185.9</ele><time>2018-04-04T11:40:13.392Z</time></trkpt><trkpt lon="34.860037" lat="31.732722"><ele>185.9</ele><time>2018-04-04T11:40:14.392Z</time></trkpt><trkpt lon="34.860028" lat="31.732688"><ele>185.9</ele><time>2018-04-04T11:40:15.392Z</time></trkpt><trkpt lon="34.860023" lat="31.732657"><ele>185.9</ele><time>2018-04-04T11:40:16.392Z</time></trkpt><trkpt lon="34.860013" lat="31.732623"><ele>185.9</ele><time>2018-04-04T11:40:17.392Z</time></trkpt><trkpt lon="34.86" lat="31.73259"><ele>185.9</ele><time>2018-04-04T11:40:18.392Z</time></trkpt><trkpt lon="34.859982" lat="31.732557"><ele>185.9</ele><time>2018-04-04T11:40:19.392Z</time></trkpt><trkpt lon="34.859965" lat="31.732523"><ele>185.9</ele><time>2018-04-04T11:40:20.392Z</time></trkpt><trkpt lon="34.859953" lat="31.732488"><ele>185.9</ele><time>2018-04-04T11:40:21.392Z</time></trkpt><trkpt lon="34.859938" lat="31.732455"><ele>185.9</ele><time>2018-04-04T11:40:22.392Z</time></trkpt><trkpt lon="34.859917" lat="31.732422"><ele>185.9</ele><time>2018-04-04T11:40:23.392Z</time></trkpt><trkpt lon="34.859885" lat="31.732397"><ele>185.9</ele><time>2018-04-04T11:40:24.392Z</time></trkpt><trkpt lon="34.859847" lat="31.73238"><ele>186.8</ele><time>2018-04-04T11:40:25.392Z</time></trkpt><trkpt lon="34.85981" lat="31.73236"><ele>186.8</ele><time>2018-04-04T11:40:26.392Z</time></trkpt><trkpt lon="34.859782" lat="31.732332"><ele>186.8</ele><time>2018-04-04T11:40:27.392Z</time></trkpt><trkpt lon="34.859755" lat="31.732302"><ele>186.8</ele><time>2018-04-04T11:40:28.392Z</time></trkpt><trkpt lon="34.859732" lat="31.732268"><ele>185.9</ele><time>2018-04-04T11:40:29.392Z</time></trkpt><trkpt lon="34.859705" lat="31.732238"><ele>185.9</ele><time>2018-04-04T11:40:30.392Z</time></trkpt><trkpt lon="34.85967" lat="31.732208"><ele>185.9</ele><time>2018-04-04T11:40:31.392Z</time></trkpt><trkpt lon="34.859632" lat="31.732178"><ele>185.9</ele><time>2018-04-04T11:40:32.392Z</time></trkpt><trkpt lon="34.859592" lat="31.732147"><ele>185.9</ele><time>2018-04-04T11:40:33.392Z</time></trkpt><trkpt lon="34.859563" lat="31.732108"><ele>185.9</ele><time>2018-04-04T11:40:34.392Z</time></trkpt><trkpt lon="34.859533" lat="31.73207"><ele>185.9</ele><time>2018-04-04T11:40:35.392Z</time></trkpt><trkpt lon="34.859497" lat="31.732035"><ele>185.9</ele><time>2018-04-04T11:40:36.392Z</time></trkpt><trkpt lon="34.859462" lat="31.731992"><ele>185.9</ele><time>2018-04-04T11:40:37.392Z</time></trkpt><trkpt lon="34.859413" lat="31.731963"><ele>185.9</ele><time>2018-04-04T11:40:38.392Z</time></trkpt><trkpt lon="34.859365" lat="31.731942"><ele>182.9</ele><time>2018-04-04T11:40:39.392Z</time></trkpt><trkpt lon="34.859323" lat="31.731915"><ele>182.9</ele><time>2018-04-04T11:40:40.392Z</time></trkpt><trkpt lon="34.859297" lat="31.731888"><ele>182.9</ele><time>2018-04-04T11:40:41.392Z</time></trkpt><trkpt lon="34.859293" lat="31.731863"><ele>182.9</ele><time>2018-04-04T11:40:42.392Z</time></trkpt><trkpt lon="34.859315" lat="31.731845"><ele>182.9</ele><time>2018-04-04T11:40:43.392Z</time></trkpt><trkpt lon="34.859348" lat="31.731838"><ele>182.9</ele><time>2018-04-04T11:40:44.392Z</time></trkpt><trkpt lon="34.859383" lat="31.731828"><ele>182.9</ele><time>2018-04-04T11:40:45.392Z</time></trkpt><trkpt lon="34.859417" lat="31.731812"><ele>182.9</ele><time>2018-04-04T11:40:46.392Z</time></trkpt><trkpt lon="34.859447" lat="31.731793"><ele>182.9</ele><time>2018-04-04T11:40:47.392Z</time></trkpt><trkpt lon="34.859473" lat="31.731773"><ele>182.9</ele><time>2018-04-04T11:40:48.392Z</time></trkpt><trkpt lon="34.859492" lat="31.731752"><ele>182.9</ele><time>2018-04-04T11:40:49.392Z</time></trkpt><trkpt lon="34.859517" lat="31.731733"><ele>182.9</ele><time>2018-04-04T11:40:50.392Z</time></trkpt><trkpt lon="34.859542" lat="31.731713"><ele>182.9</ele><time>2018-04-04T11:40:51.392Z</time></trkpt><trkpt lon="34.859567" lat="31.731693"><ele>182.9</ele><time>2018-04-04T11:40:52.392Z</time></trkpt><trkpt lon="34.8596" lat="31.731678"><ele>182.9</ele><time>2018-04-04T11:40:53.392Z</time></trkpt><trkpt lon="34.859638" lat="31.731667"><ele>182.9</ele><time>2018-04-04T11:40:54.392Z</time></trkpt><trkpt lon="34.859677" lat="31.731658"><ele>182.9</ele><time>2018-04-04T11:40:55.392Z</time></trkpt><trkpt lon="34.859718" lat="31.731658"><ele>182.9</ele><time>2018-04-04T11:40:56.392Z</time></trkpt><trkpt lon="34.859762" lat="31.73166"><ele>182.9</ele><time>2018-04-04T11:40:57.392Z</time></trkpt><trkpt lon="34.859803" lat="31.731662"><ele>182.9</ele><time>2018-04-04T11:40:58.392Z</time></trkpt><trkpt lon="34.859845" lat="31.731665"><ele>182.9</ele><time>2018-04-04T11:40:59.392Z</time></trkpt><trkpt lon="34.859888" lat="31.73167"><ele>182.9</ele><time>2018-04-04T11:41:00.392Z</time></trkpt><trkpt lon="34.859932" lat="31.731672"><ele>182.9</ele><time>2018-04-04T11:41:01.392Z</time></trkpt><trkpt lon="34.859975" lat="31.731677"><ele>182.9</ele><time>2018-04-04T11:41:02.392Z</time></trkpt><trkpt lon="34.860018" lat="31.731682"><ele>182.9</ele><time>2018-04-04T11:41:03.392Z</time></trkpt><trkpt lon="34.860065" lat="31.731685"><ele>182.9</ele><time>2018-04-04T11:41:04.392Z</time></trkpt><trkpt lon="34.860113" lat="31.731687"><ele>182.9</ele><time>2018-04-04T11:41:05.392Z</time></trkpt><trkpt lon="34.860163" lat="31.731687"><ele>182.9</ele><time>2018-04-04T11:41:06.392Z</time></trkpt><trkpt lon="34.860212" lat="31.731682"><ele>182.9</ele><time>2018-04-04T11:41:07.392Z</time></trkpt><trkpt lon="34.860263" lat="31.73168"><ele>182.9</ele><time>2018-04-04T11:41:08.392Z</time></trkpt><trkpt lon="34.860315" lat="31.731673"><ele>182.9</ele><time>2018-04-04T11:41:09.392Z</time></trkpt><trkpt lon="34.860372" lat="31.731667"><ele>182.9</ele><time>2018-04-04T11:41:10.392Z</time></trkpt><trkpt lon="34.860432" lat="31.731657"><ele>182.9</ele><time>2018-04-04T11:41:11.392Z</time></trkpt><trkpt lon="34.860493" lat="31.731643"><ele>182.9</ele><time>2018-04-04T11:41:12.392Z</time></trkpt><trkpt lon="34.860558" lat="31.731635"><ele>180.9</ele><time>2018-04-04T11:41:13.392Z</time></trkpt><trkpt lon="34.860625" lat="31.731635"><ele>180.9</ele><time>2018-04-04T11:41:14.392Z</time></trkpt><trkpt lon="34.860693" lat="31.73163"><ele>178.9</ele><time>2018-04-04T11:41:15.392Z</time></trkpt><trkpt lon="34.86077" lat="31.731617"><ele>178.9</ele><time>2018-04-04T11:41:16.392Z</time></trkpt><trkpt lon="34.860842" lat="31.7316"><ele>177.9</ele><time>2018-04-04T11:41:17.392Z</time></trkpt><trkpt lon="34.860902" lat="31.731557"><ele>177.9</ele><time>2018-04-04T11:41:18.392Z</time></trkpt><trkpt lon="34.860942" lat="31.731503"><ele>176.9</ele><time>2018-04-04T11:41:19.392Z</time></trkpt><trkpt lon="34.86098" lat="31.731452"><ele>176.9</ele><time>2018-04-04T11:41:20.392Z</time></trkpt><trkpt lon="34.861022" lat="31.7314"><ele>175.9</ele><time>2018-04-04T11:41:21.392Z</time></trkpt><trkpt lon="34.861068" lat="31.731352"><ele>175.9</ele><time>2018-04-04T11:41:22.392Z</time></trkpt><trkpt lon="34.861122" lat="31.731308"><ele>175.9</ele><time>2018-04-04T11:41:23.392Z</time></trkpt><trkpt lon="34.86118" lat="31.731272"><ele>175.9</ele><time>2018-04-04T11:41:24.392Z</time></trkpt><trkpt lon="34.861242" lat="31.731242"><ele>175.9</ele><time>2018-04-04T11:41:25.392Z</time></trkpt><trkpt lon="34.861313" lat="31.731223"><ele>175.9</ele><time>2018-04-04T11:41:26.392Z</time></trkpt><trkpt lon="34.86138" lat="31.731212"><ele>175.9</ele><time>2018-04-04T11:41:27.392Z</time></trkpt><trkpt lon="34.86144" lat="31.731213"><ele>175.9</ele><time>2018-04-04T11:41:28.392Z</time></trkpt><trkpt lon="34.861497" lat="31.731213"><ele>175.9</ele><time>2018-04-04T11:41:29.392Z</time></trkpt><trkpt lon="34.861548" lat="31.731208"><ele>175.9</ele><time>2018-04-04T11:41:30.392Z</time></trkpt><trkpt lon="34.861592" lat="31.731198"><ele>175.9</ele><time>2018-04-04T11:41:31.392Z</time></trkpt><trkpt lon="34.861635" lat="31.73119"><ele>175.9</ele><time>2018-04-04T11:41:32.392Z</time></trkpt><trkpt lon="34.86168" lat="31.731187"><ele>176.9</ele><time>2018-04-04T11:41:33.392Z</time></trkpt><trkpt lon="34.861725" lat="31.731182"><ele>176.9</ele><time>2018-04-04T11:41:34.392Z</time></trkpt><trkpt lon="34.861768" lat="31.731182"><ele>176.9</ele><time>2018-04-04T11:41:35.392Z</time></trkpt><trkpt lon="34.86181" lat="31.731182"><ele>176.9</ele><time>2018-04-04T11:41:36.392Z</time></trkpt><trkpt lon="34.86185" lat="31.731177"><ele>176.9</ele><time>2018-04-04T11:41:37.392Z</time></trkpt><trkpt lon="34.861887" lat="31.731168"><ele>176.9</ele><time>2018-04-04T11:41:38.392Z</time></trkpt><trkpt lon="34.861922" lat="31.731157"><ele>177.9</ele><time>2018-04-04T11:41:39.392Z</time></trkpt><trkpt lon="34.861957" lat="31.731147"><ele>177.9</ele><time>2018-04-04T11:41:40.392Z</time></trkpt><trkpt lon="34.861997" lat="31.731148"><ele>177.9</ele><time>2018-04-04T11:41:41.392Z</time></trkpt><trkpt lon="34.862035" lat="31.731158"><ele>177.9</ele><time>2018-04-04T11:41:42.392Z</time></trkpt><trkpt lon="34.862075" lat="31.731155"><ele>178.9</ele><time>2018-04-04T11:41:43.392Z</time></trkpt><trkpt lon="34.862113" lat="31.731147"><ele>178.9</ele><time>2018-04-04T11:41:44.392Z</time></trkpt><trkpt lon="34.862153" lat="31.731133"><ele>178.9</ele><time>2018-04-04T11:41:45.392Z</time></trkpt><trkpt lon="34.862193" lat="31.731123"><ele>178.9</ele><time>2018-04-04T11:41:46.392Z</time></trkpt><trkpt lon="34.862235" lat="31.731113"><ele>179.8</ele><time>2018-04-04T11:41:47.392Z</time></trkpt><trkpt lon="34.862277" lat="31.731107"><ele>179.8</ele><time>2018-04-04T11:41:48.392Z</time></trkpt><trkpt lon="34.86232" lat="31.731108"><ele>179.8</ele><time>2018-04-04T11:41:49.392Z</time></trkpt><trkpt lon="34.862362" lat="31.731117"><ele>179.8</ele><time>2018-04-04T11:41:50.392Z</time></trkpt><trkpt lon="34.862402" lat="31.731128"><ele>179.8</ele><time>2018-04-04T11:41:51.392Z</time></trkpt><trkpt lon="34.862442" lat="31.731143"><ele>179.8</ele><time>2018-04-04T11:41:52.392Z</time></trkpt><trkpt lon="34.862482" lat="31.731155"><ele>179.8</ele><time>2018-04-04T11:41:53.392Z</time></trkpt><trkpt lon="34.862522" lat="31.73117"><ele>179.8</ele><time>2018-04-04T11:41:54.392Z</time></trkpt><trkpt lon="34.862563" lat="31.731177"><ele>179.8</ele><time>2018-04-04T11:41:55.392Z</time></trkpt><trkpt lon="34.862607" lat="31.731188"><ele>179.8</ele><time>2018-04-04T11:41:56.392Z</time></trkpt><trkpt lon="34.862652" lat="31.731197"><ele>179.8</ele><time>2018-04-04T11:41:57.392Z</time></trkpt><trkpt lon="34.862698" lat="31.7312"><ele>179.8</ele><time>2018-04-04T11:41:58.392Z</time></trkpt><trkpt lon="34.862743" lat="31.731207"><ele>179.8</ele><time>2018-04-04T11:41:59.392Z</time></trkpt><trkpt lon="34.86279" lat="31.731218"><ele>179.8</ele><time>2018-04-04T11:42:00.392Z</time></trkpt><trkpt lon="34.862837" lat="31.731235"><ele>179.8</ele><time>2018-04-04T11:42:01.392Z</time></trkpt><trkpt lon="34.862885" lat="31.731252"><ele>179.8</ele><time>2018-04-04T11:42:02.392Z</time></trkpt><trkpt lon="34.86294" lat="31.731258"><ele>179.8</ele><time>2018-04-04T11:42:03.392Z</time></trkpt><trkpt lon="34.862992" lat="31.73127"><ele>179.8</ele><time>2018-04-04T11:42:04.392Z</time></trkpt><trkpt lon="34.863047" lat="31.731285"><ele>178.9</ele><time>2018-04-04T11:42:05.392Z</time></trkpt><trkpt lon="34.863105" lat="31.731285"><ele>178.9</ele><time>2018-04-04T11:42:06.392Z</time></trkpt><trkpt lon="34.86316" lat="31.731272"><ele>178.9</ele><time>2018-04-04T11:42:07.392Z</time></trkpt><trkpt lon="34.863215" lat="31.73126"><ele>178.9</ele><time>2018-04-04T11:42:08.392Z</time></trkpt><trkpt lon="34.863272" lat="31.731253"><ele>177.9</ele><time>2018-04-04T11:42:09.392Z</time></trkpt><trkpt lon="34.863325" lat="31.731257"><ele>177.9</ele><time>2018-04-04T11:42:10.392Z</time></trkpt><trkpt lon="34.863375" lat="31.731245"><ele>177.9</ele><time>2018-04-04T11:42:11.392Z</time></trkpt><trkpt lon="34.863413" lat="31.731212"><ele>177.9</ele><time>2018-04-04T11:42:12.392Z</time></trkpt><trkpt lon="34.863452" lat="31.731175"><ele>176.9</ele><time>2018-04-04T11:42:13.392Z</time></trkpt><trkpt lon="34.863497" lat="31.73114"><ele>176.9</ele><time>2018-04-04T11:42:14.392Z</time></trkpt><trkpt lon="34.863525" lat="31.731095"><ele>176.9</ele><time>2018-04-04T11:42:15.392Z</time></trkpt><trkpt lon="34.863548" lat="31.731048"><ele>176.9</ele><time>2018-04-04T11:42:16.392Z</time></trkpt><trkpt lon="34.863573" lat="31.731002"><ele>176.9</ele><time>2018-04-04T11:42:17.392Z</time></trkpt><trkpt lon="34.863602" lat="31.730957"><ele>176.9</ele><time>2018-04-04T11:42:18.392Z</time></trkpt><trkpt lon="34.863632" lat="31.730913"><ele>175.9</ele><time>2018-04-04T11:42:19.392Z</time></trkpt><trkpt lon="34.863667" lat="31.730877"><ele>175.9</ele><time>2018-04-04T11:42:20.392Z</time></trkpt><trkpt lon="34.863715" lat="31.730848"><ele>174.8</ele><time>2018-04-04T11:42:21.392Z</time></trkpt><trkpt lon="34.86377" lat="31.730833"><ele>174.8</ele><time>2018-04-04T11:42:22.392Z</time></trkpt><trkpt lon="34.863828" lat="31.73083"><ele>173.9</ele><time>2018-04-04T11:42:23.392Z</time></trkpt><trkpt lon="34.863893" lat="31.730828"><ele>173.9</ele><time>2018-04-04T11:42:24.392Z</time></trkpt><trkpt lon="34.863958" lat="31.730825"><ele>172.8</ele><time>2018-04-04T11:42:25.392Z</time></trkpt><trkpt lon="34.864025" lat="31.730818"><ele>172.8</ele><time>2018-04-04T11:42:26.392Z</time></trkpt><trkpt lon="34.864087" lat="31.730807"><ele>171.9</ele><time>2018-04-04T11:42:27.392Z</time></trkpt><trkpt lon="34.864137" lat="31.730788"><ele>171.9</ele><time>2018-04-04T11:42:28.392Z</time></trkpt><trkpt lon="34.864178" lat="31.730763"><ele>171.9</ele><time>2018-04-04T11:42:29.392Z</time></trkpt><trkpt lon="34.864198" lat="31.730723"><ele>171.9</ele><time>2018-04-04T11:42:30.392Z</time></trkpt><trkpt lon="34.864218" lat="31.730675"><ele>171.9</ele><time>2018-04-04T11:42:31.392Z</time></trkpt><trkpt lon="34.86425" lat="31.730627"><ele>171.9</ele><time>2018-04-04T11:42:32.392Z</time></trkpt><trkpt lon="34.86427" lat="31.73057"><ele>171.9</ele><time>2018-04-04T11:42:33.392Z</time></trkpt><trkpt lon="34.86427" lat="31.73051"><ele>171.9</ele><time>2018-04-04T11:42:34.392Z</time></trkpt><trkpt lon="34.864253" lat="31.730453"><ele>170.8</ele><time>2018-04-04T11:42:35.392Z</time></trkpt><trkpt lon="34.864228" lat="31.730402"><ele>170.8</ele><time>2018-04-04T11:42:36.392Z</time></trkpt><trkpt lon="34.864203" lat="31.730353"><ele>170.8</ele><time>2018-04-04T11:42:37.392Z</time></trkpt><trkpt lon="34.864187" lat="31.730303"><ele>170.8</ele><time>2018-04-04T11:42:38.392Z</time></trkpt><trkpt lon="34.864165" lat="31.730257"><ele>170.8</ele><time>2018-04-04T11:42:39.392Z</time></trkpt><trkpt lon="34.864148" lat="31.730213"><ele>170.8</ele><time>2018-04-04T11:42:40.392Z</time></trkpt><trkpt lon="34.864143" lat="31.73017"><ele>170.8</ele><time>2018-04-04T11:42:41.392Z</time></trkpt><trkpt lon="34.864143" lat="31.730122"><ele>170.8</ele><time>2018-04-04T11:42:42.392Z</time></trkpt><trkpt lon="34.86414" lat="31.730075"><ele>170.8</ele><time>2018-04-04T11:42:43.392Z</time></trkpt><trkpt lon="34.864132" lat="31.730027"><ele>170.8</ele><time>2018-04-04T11:42:44.392Z</time></trkpt><trkpt lon="34.864125" lat="31.729975"><ele>170.8</ele><time>2018-04-04T11:42:45.392Z</time></trkpt><trkpt lon="34.864132" lat="31.729923"><ele>170.8</ele><time>2018-04-04T11:42:46.392Z</time></trkpt><trkpt lon="34.864153" lat="31.729873"><ele>170.8</ele><time>2018-04-04T11:42:47.392Z</time></trkpt><trkpt lon="34.864172" lat="31.729823"><ele>170.8</ele><time>2018-04-04T11:42:48.392Z</time></trkpt><trkpt lon="34.864188" lat="31.729773"><ele>170.8</ele><time>2018-04-04T11:42:49.392Z</time></trkpt><trkpt lon="34.864198" lat="31.729723"><ele>170.8</ele><time>2018-04-04T11:42:50.392Z</time></trkpt><trkpt lon="34.864208" lat="31.729675"><ele>170.8</ele><time>2018-04-04T11:42:51.392Z</time></trkpt><trkpt lon="34.86423" lat="31.729627"><ele>170.8</ele><time>2018-04-04T11:42:52.392Z</time></trkpt><trkpt lon="34.864257" lat="31.729583"><ele>170.8</ele><time>2018-04-04T11:42:53.392Z</time></trkpt><trkpt lon="34.864288" lat="31.729543"><ele>170.8</ele><time>2018-04-04T11:42:54.392Z</time></trkpt><trkpt lon="34.864327" lat="31.729507"><ele>169.9</ele><time>2018-04-04T11:42:55.392Z</time></trkpt><trkpt lon="34.864368" lat="31.72947"><ele>169.9</ele><time>2018-04-04T11:42:56.392Z</time></trkpt><trkpt lon="34.86441" lat="31.729427"><ele>169.9</ele><time>2018-04-04T11:42:57.392Z</time></trkpt><trkpt lon="34.864447" lat="31.72938"><ele>169.9</ele><time>2018-04-04T11:42:58.392Z</time></trkpt><trkpt lon="34.864487" lat="31.729332"><ele>169.9</ele><time>2018-04-04T11:42:59.392Z</time></trkpt><trkpt lon="34.864523" lat="31.729282"><ele>169.9</ele><time>2018-04-04T11:43:00.392Z</time></trkpt><trkpt lon="34.86456" lat="31.72923"><ele>168.9</ele><time>2018-04-04T11:43:01.392Z</time></trkpt><trkpt lon="34.864603" lat="31.729183"><ele>168.9</ele><time>2018-04-04T11:43:02.392Z</time></trkpt><trkpt lon="34.864643" lat="31.729135"><ele>168.9</ele><time>2018-04-04T11:43:03.392Z</time></trkpt><trkpt lon="34.864678" lat="31.72909"><ele>168.9</ele><time>2018-04-04T11:43:04.392Z</time></trkpt><trkpt lon="34.864693" lat="31.729052"><ele>167.9</ele><time>2018-04-04T11:43:05.392Z</time></trkpt><trkpt lon="34.864642" lat="31.729015"><ele>167.9</ele><time>2018-04-04T11:43:06.392Z</time></trkpt><trkpt lon="34.8646" lat="31.728982"><ele>167.9</ele><time>2018-04-04T11:43:07.392Z</time></trkpt><trkpt lon="34.86456" lat="31.728943"><ele>167.9</ele><time>2018-04-04T11:43:08.392Z</time></trkpt><trkpt lon="34.864528" lat="31.7289"><ele>167.9</ele><time>2018-04-04T11:43:09.392Z</time></trkpt><trkpt lon="34.864512" lat="31.728853"><ele>167.9</ele><time>2018-04-04T11:43:10.392Z</time></trkpt><trkpt lon="34.864502" lat="31.728805"><ele>167.9</ele><time>2018-04-04T11:43:11.392Z</time></trkpt><trkpt lon="34.864492" lat="31.728758"><ele>167.9</ele><time>2018-04-04T11:43:12.392Z</time></trkpt><trkpt lon="34.864472" lat="31.728717"><ele>166.9</ele><time>2018-04-04T11:43:13.392Z</time></trkpt><trkpt lon="34.864447" lat="31.72868"><ele>166.9</ele><time>2018-04-04T11:43:14.392Z</time></trkpt><trkpt lon="34.86441" lat="31.728648"><ele>166.9</ele><time>2018-04-04T11:43:15.392Z</time></trkpt><trkpt lon="34.864373" lat="31.728623"><ele>166.9</ele><time>2018-04-04T11:43:16.392Z</time></trkpt><trkpt lon="34.864337" lat="31.72861"><ele>166.9</ele><time>2018-04-04T11:43:17.392Z</time></trkpt><trkpt lon="34.864303" lat="31.728603"><ele>166.9</ele><time>2018-04-04T11:43:18.392Z</time></trkpt><trkpt lon="34.864273" lat="31.728593"><ele>166.9</ele><time>2018-04-04T11:43:19.392Z</time></trkpt><trkpt lon="34.864247" lat="31.728567"><ele>166.9</ele><time>2018-04-04T11:43:20.392Z</time></trkpt><trkpt lon="34.864215" lat="31.728542"><ele>166.9</ele><time>2018-04-04T11:43:21.392Z</time></trkpt><trkpt lon="34.864187" lat="31.728513"><ele>166.9</ele><time>2018-04-04T11:43:22.392Z</time></trkpt><trkpt lon="34.864158" lat="31.728482"><ele>165.8</ele><time>2018-04-04T11:43:23.392Z</time></trkpt><trkpt lon="34.864138" lat="31.72845"><ele>165.8</ele><time>2018-04-04T11:43:24.392Z</time></trkpt><trkpt lon="34.864122" lat="31.728417"><ele>164.9</ele><time>2018-04-04T11:43:25.392Z</time></trkpt><trkpt lon="34.86411" lat="31.728372"><ele>164.9</ele><time>2018-04-04T11:43:26.392Z</time></trkpt><trkpt lon="34.864087" lat="31.728322"><ele>164.9</ele><time>2018-04-04T11:43:27.392Z</time></trkpt><trkpt lon="34.864055" lat="31.728272"><ele>164.9</ele><time>2018-04-04T11:43:28.392Z</time></trkpt><trkpt lon="34.864022" lat="31.728217"><ele>164.9</ele><time>2018-04-04T11:43:29.392Z</time></trkpt><trkpt lon="34.86399" lat="31.728157"><ele>164.9</ele><time>2018-04-04T11:43:30.392Z</time></trkpt><trkpt lon="34.863958" lat="31.728092"><ele>164.9</ele><time>2018-04-04T11:43:31.392Z</time></trkpt><trkpt lon="34.863927" lat="31.72803"><ele>164.9</ele><time>2018-04-04T11:43:32.392Z</time></trkpt><trkpt lon="34.863892" lat="31.727973"><ele>161.9</ele><time>2018-04-04T11:43:33.392Z</time></trkpt><trkpt lon="34.863857" lat="31.727927"><ele>161.9</ele><time>2018-04-04T11:43:34.392Z</time></trkpt><trkpt lon="34.863838" lat="31.727913"><ele>161.9</ele><time>2018-04-04T11:43:35.392Z</time></trkpt><trkpt lon="34.863837" lat="31.727912"><ele>161.9</ele><time>2018-04-04T11:43:36.392Z</time></trkpt><trkpt lon="34.86384" lat="31.727913"><ele>161.9</ele><time>2018-04-04T11:43:37.392Z</time></trkpt><trkpt lon="34.863847" lat="31.727917"><ele>161.9</ele><time>2018-04-04T11:43:38.392Z</time></trkpt><trkpt lon="34.863855" lat="31.72792"><ele>161.9</ele><time>2018-04-04T11:43:39.392Z</time></trkpt><trkpt lon="34.863867" lat="31.727923"><ele>161.9</ele><time>2018-04-04T11:43:40.392Z</time></trkpt><trkpt lon="34.863873" lat="31.727927"><ele>161.9</ele><time>2018-04-04T11:43:41.392Z</time></trkpt><trkpt lon="34.863883" lat="31.72793"><ele>161.9</ele><time>2018-04-04T11:43:42.392Z</time></trkpt><trkpt lon="34.863898" lat="31.72793"><ele>161.9</ele><time>2018-04-04T11:43:43.392Z</time></trkpt><trkpt lon="34.863912" lat="31.727928"><ele>161.9</ele><time>2018-04-04T11:43:44.392Z</time></trkpt><trkpt lon="34.863933" lat="31.727923"><ele>161.9</ele><time>2018-04-04T11:43:45.392Z</time></trkpt><trkpt lon="34.86396" lat="31.727907"><ele>161.9</ele><time>2018-04-04T11:43:46.392Z</time></trkpt><trkpt lon="34.863983" lat="31.72788"><ele>160.9</ele><time>2018-04-04T11:43:47.392Z</time></trkpt><trkpt lon="34.864007" lat="31.727848"><ele>160.9</ele><time>2018-04-04T11:43:48.392Z</time></trkpt><trkpt lon="34.864035" lat="31.727818"><ele>160.9</ele><time>2018-04-04T11:43:49.392Z</time></trkpt><trkpt lon="34.864073" lat="31.72779"><ele>160.9</ele><time>2018-04-04T11:43:50.392Z</time></trkpt><trkpt lon="34.864113" lat="31.727762"><ele>160.9</ele><time>2018-04-04T11:43:51.392Z</time></trkpt><trkpt lon="34.864152" lat="31.727727"><ele>160.9</ele><time>2018-04-04T11:43:52.392Z</time></trkpt><trkpt lon="34.864188" lat="31.727688"><ele>160.9</ele><time>2018-04-04T11:43:53.392Z</time></trkpt><trkpt lon="34.864227" lat="31.727652"><ele>160.9</ele><time>2018-04-04T11:43:54.392Z</time></trkpt><trkpt lon="34.86427" lat="31.727613"><ele>160.9</ele><time>2018-04-04T11:43:55.392Z</time></trkpt><trkpt lon="34.864312" lat="31.727575"><ele>160.9</ele><time>2018-04-04T11:43:56.392Z</time></trkpt><trkpt lon="34.86435" lat="31.727533"><ele>159.9</ele><time>2018-04-04T11:43:57.392Z</time></trkpt><trkpt lon="34.864382" lat="31.727495"><ele>159.9</ele><time>2018-04-04T11:43:58.392Z</time></trkpt><trkpt lon="34.864405" lat="31.727458"><ele>159.9</ele><time>2018-04-04T11:43:59.392Z</time></trkpt><trkpt lon="34.864437" lat="31.72742"><ele>159.9</ele><time>2018-04-04T11:44:00.392Z</time></trkpt><trkpt lon="34.864467" lat="31.72738"><ele>159.9</ele><time>2018-04-04T11:44:01.392Z</time></trkpt><trkpt lon="34.8645" lat="31.727338"><ele>159.9</ele><time>2018-04-04T11:44:02.392Z</time></trkpt><trkpt lon="34.864537" lat="31.727303"><ele>159.9</ele><time>2018-04-04T11:44:03.392Z</time></trkpt><trkpt lon="34.864575" lat="31.727268"><ele>159.9</ele><time>2018-04-04T11:44:04.392Z</time></trkpt><trkpt lon="34.864613" lat="31.727233"><ele>159.9</ele><time>2018-04-04T11:44:05.392Z</time></trkpt><trkpt lon="34.864647" lat="31.727195"><ele>159.9</ele><time>2018-04-04T11:44:06.392Z</time></trkpt><trkpt lon="34.864677" lat="31.727155"><ele>159.9</ele><time>2018-04-04T11:44:07.392Z</time></trkpt><trkpt lon="34.864708" lat="31.727118"><ele>159.9</ele><time>2018-04-04T11:44:08.392Z</time></trkpt><trkpt lon="34.864742" lat="31.727082"><ele>159.9</ele><time>2018-04-04T11:44:09.392Z</time></trkpt><trkpt lon="34.864777" lat="31.727047"><ele>159.9</ele><time>2018-04-04T11:44:10.392Z</time></trkpt><trkpt lon="34.864808" lat="31.727017"><ele>160.9</ele><time>2018-04-04T11:44:11.392Z</time></trkpt><trkpt lon="34.864838" lat="31.726988"><ele>160.9</ele><time>2018-04-04T11:44:12.392Z</time></trkpt><trkpt lon="34.86487" lat="31.726963"><ele>160.9</ele><time>2018-04-04T11:44:13.392Z</time></trkpt><trkpt lon="34.864903" lat="31.726942"><ele>160.9</ele><time>2018-04-04T11:44:14.392Z</time></trkpt><trkpt lon="34.864932" lat="31.726925"><ele>160.9</ele><time>2018-04-04T11:44:15.392Z</time></trkpt><trkpt lon="34.864952" lat="31.726908"><ele>160.9</ele><time>2018-04-04T11:44:16.392Z</time></trkpt><trkpt lon="34.86497" lat="31.726887"><ele>161.9</ele><time>2018-04-04T11:44:17.392Z</time></trkpt><trkpt lon="34.864985" lat="31.726863"><ele>161.9</ele><time>2018-04-04T11:44:18.392Z</time></trkpt><trkpt lon="34.864997" lat="31.72684"><ele>161.9</ele><time>2018-04-04T11:44:19.392Z</time></trkpt><trkpt lon="34.865007" lat="31.72682"><ele>161.9</ele><time>2018-04-04T11:44:20.392Z</time></trkpt><trkpt lon="34.865018" lat="31.726805"><ele>161.9</ele><time>2018-04-04T11:44:21.392Z</time></trkpt><trkpt lon="34.865027" lat="31.72679"><ele>161.9</ele><time>2018-04-04T11:44:22.392Z</time></trkpt><trkpt lon="34.865037" lat="31.726775"><ele>161.9</ele><time>2018-04-04T11:44:23.392Z</time></trkpt><trkpt lon="34.865047" lat="31.726755"><ele>161.9</ele><time>2018-04-04T11:44:24.392Z</time></trkpt><trkpt lon="34.865057" lat="31.72673"><ele>161.9</ele><time>2018-04-04T11:44:25.392Z</time></trkpt><trkpt lon="34.865062" lat="31.726705"><ele>161.9</ele><time>2018-04-04T11:44:26.392Z</time></trkpt><trkpt lon="34.865068" lat="31.72668"><ele>161.9</ele><time>2018-04-04T11:44:27.392Z</time></trkpt><trkpt lon="34.865078" lat="31.726653"><ele>161.9</ele><time>2018-04-04T11:44:28.392Z</time></trkpt><trkpt lon="34.86509" lat="31.726627"><ele>162.9</ele><time>2018-04-04T11:44:29.392Z</time></trkpt><trkpt lon="34.865103" lat="31.7266"><ele>162.9</ele><time>2018-04-04T11:44:30.392Z</time></trkpt><trkpt lon="34.865115" lat="31.726573"><ele>162.9</ele><time>2018-04-04T11:44:31.392Z</time></trkpt><trkpt lon="34.865128" lat="31.726543"><ele>162.9</ele><time>2018-04-04T11:44:32.392Z</time></trkpt><trkpt lon="34.865138" lat="31.726512"><ele>162.9</ele><time>2018-04-04T11:44:33.392Z</time></trkpt><trkpt lon="34.865147" lat="31.726482"><ele>162.9</ele><time>2018-04-04T11:44:34.392Z</time></trkpt><trkpt lon="34.865153" lat="31.726457"><ele>162.9</ele><time>2018-04-04T11:44:35.392Z</time></trkpt><trkpt lon="34.86516" lat="31.72643"><ele>162.9</ele><time>2018-04-04T11:44:36.392Z</time></trkpt><trkpt lon="34.865165" lat="31.726403"><ele>162.9</ele><time>2018-04-04T11:44:37.392Z</time></trkpt><trkpt lon="34.865168" lat="31.726375"><ele>162.9</ele><time>2018-04-04T11:44:38.392Z</time></trkpt><trkpt lon="34.865175" lat="31.726348"><ele>162.9</ele><time>2018-04-04T11:44:39.392Z</time></trkpt><trkpt lon="34.865182" lat="31.726317"><ele>162.9</ele><time>2018-04-04T11:44:40.392Z</time></trkpt><trkpt lon="34.865188" lat="31.726282"><ele>161.9</ele><time>2018-04-04T11:44:41.392Z</time></trkpt><trkpt lon="34.865197" lat="31.726252"><ele>161.9</ele><time>2018-04-04T11:44:42.392Z</time></trkpt><trkpt lon="34.86521" lat="31.726225"><ele>161.9</ele><time>2018-04-04T11:44:43.392Z</time></trkpt><trkpt lon="34.865222" lat="31.726203"><ele>161.9</ele><time>2018-04-04T11:44:44.392Z</time></trkpt><trkpt lon="34.865238" lat="31.726187"><ele>161.9</ele><time>2018-04-04T11:44:45.392Z</time></trkpt><trkpt lon="34.865252" lat="31.726168"><ele>161.9</ele><time>2018-04-04T11:44:46.392Z</time></trkpt><trkpt lon="34.865262" lat="31.72615"><ele>161.9</ele><time>2018-04-04T11:44:47.392Z</time></trkpt><trkpt lon="34.865273" lat="31.72613"><ele>161.9</ele><time>2018-04-04T11:44:48.392Z</time></trkpt><trkpt lon="34.865287" lat="31.726108"><ele>161.9</ele><time>2018-04-04T11:44:49.392Z</time></trkpt><trkpt lon="34.865302" lat="31.72608"><ele>161.9</ele><time>2018-04-04T11:44:50.392Z</time></trkpt><trkpt lon="34.865315" lat="31.726048"><ele>161.9</ele><time>2018-04-04T11:44:51.392Z</time></trkpt><trkpt lon="34.865327" lat="31.726015"><ele>161.9</ele><time>2018-04-04T11:44:52.392Z</time></trkpt><trkpt lon="34.86534" lat="31.72598"><ele>161.9</ele><time>2018-04-04T11:44:53.392Z</time></trkpt><trkpt lon="34.865353" lat="31.725943"><ele>161.9</ele><time>2018-04-04T11:44:54.392Z</time></trkpt><trkpt lon="34.865373" lat="31.72591"><ele>161.9</ele><time>2018-04-04T11:44:55.392Z</time></trkpt><trkpt lon="34.865393" lat="31.72588"><ele>161.9</ele><time>2018-04-04T11:44:56.392Z</time></trkpt><trkpt lon="34.865417" lat="31.725858"><ele>161.9</ele><time>2018-04-04T11:44:57.392Z</time></trkpt><trkpt lon="34.865445" lat="31.725837"><ele>161.9</ele><time>2018-04-04T11:44:58.392Z</time></trkpt><trkpt lon="34.865473" lat="31.725815"><ele>161.9</ele><time>2018-04-04T11:44:59.392Z</time></trkpt><trkpt lon="34.865503" lat="31.725792"><ele>161.9</ele><time>2018-04-04T11:45:00.392Z</time></trkpt><trkpt lon="34.865532" lat="31.725763"><ele>161.9</ele><time>2018-04-04T11:45:01.392Z</time></trkpt><trkpt lon="34.865558" lat="31.725735"><ele>161.9</ele><time>2018-04-04T11:45:02.392Z</time></trkpt><trkpt lon="34.865587" lat="31.725703"><ele>161.9</ele><time>2018-04-04T11:45:03.392Z</time></trkpt><trkpt lon="34.865612" lat="31.725672"><ele>161.9</ele><time>2018-04-04T11:45:04.392Z</time></trkpt><trkpt lon="34.865635" lat="31.72564"><ele>161.9</ele><time>2018-04-04T11:45:05.392Z</time></trkpt><trkpt lon="34.865663" lat="31.725612"><ele>161.9</ele><time>2018-04-04T11:45:06.392Z</time></trkpt><trkpt lon="34.865697" lat="31.725587"><ele>160.9</ele><time>2018-04-04T11:45:07.392Z</time></trkpt><trkpt lon="34.86573" lat="31.725563"><ele>160.9</ele><time>2018-04-04T11:45:08.392Z</time></trkpt><trkpt lon="34.86576" lat="31.72554"><ele>160.9</ele><time>2018-04-04T11:45:09.392Z</time></trkpt><trkpt lon="34.865795" lat="31.725518"><ele>160.9</ele><time>2018-04-04T11:45:10.392Z</time></trkpt><trkpt lon="34.865828" lat="31.725502"><ele>160.9</ele><time>2018-04-04T11:45:11.392Z</time></trkpt><trkpt lon="34.865863" lat="31.725485"><ele>160.9</ele><time>2018-04-04T11:45:12.392Z</time></trkpt><trkpt lon="34.86589" lat="31.725475"><ele>160.9</ele><time>2018-04-04T11:45:13.392Z</time></trkpt><trkpt lon="34.865912" lat="31.725473"><ele>160.9</ele><time>2018-04-04T11:45:14.392Z</time></trkpt><trkpt lon="34.865933" lat="31.725472"><ele>160.9</ele><time>2018-04-04T11:45:15.392Z</time></trkpt><trkpt lon="34.865957" lat="31.725472"><ele>160.9</ele><time>2018-04-04T11:45:16.392Z</time></trkpt><trkpt lon="34.865983" lat="31.725472"><ele>160.9</ele><time>2018-04-04T11:45:17.392Z</time></trkpt><trkpt lon="34.866012" lat="31.725468"><ele>160.9</ele><time>2018-04-04T11:45:18.392Z</time></trkpt><trkpt lon="34.866038" lat="31.725465"><ele>160.9</ele><time>2018-04-04T11:45:19.392Z</time></trkpt><trkpt lon="34.866058" lat="31.725453"><ele>160.9</ele><time>2018-04-04T11:45:20.392Z</time></trkpt><trkpt lon="34.866073" lat="31.725435"><ele>159.9</ele><time>2018-04-04T11:45:21.392Z</time></trkpt><trkpt lon="34.866083" lat="31.725413"><ele>159.9</ele><time>2018-04-04T11:45:22.392Z</time></trkpt><trkpt lon="34.866097" lat="31.725392"><ele>159.9</ele><time>2018-04-04T11:45:23.392Z</time></trkpt><trkpt lon="34.866108" lat="31.72537"><ele>159.9</ele><time>2018-04-04T11:45:24.392Z</time></trkpt><trkpt lon="34.86612" lat="31.725353"><ele>158.8</ele><time>2018-04-04T11:45:25.392Z</time></trkpt><trkpt lon="34.86614" lat="31.725343"><ele>158.8</ele><time>2018-04-04T11:45:26.392Z</time></trkpt><trkpt lon="34.86617" lat="31.725342"><ele>158.8</ele><time>2018-04-04T11:45:27.392Z</time></trkpt><trkpt lon="34.866205" lat="31.725345"><ele>158.8</ele><time>2018-04-04T11:45:28.392Z</time></trkpt><trkpt lon="34.866243" lat="31.72535"><ele>158.8</ele><time>2018-04-04T11:45:29.392Z</time></trkpt><trkpt lon="34.866278" lat="31.725352"><ele>158.8</ele><time>2018-04-04T11:45:30.392Z</time></trkpt><trkpt lon="34.866317" lat="31.725347"><ele>158.8</ele><time>2018-04-04T11:45:31.392Z</time></trkpt><trkpt lon="34.866358" lat="31.725337"><ele>158.8</ele><time>2018-04-04T11:45:32.392Z</time></trkpt><trkpt lon="34.866403" lat="31.725328"><ele>157.9</ele><time>2018-04-04T11:45:33.392Z</time></trkpt><trkpt lon="34.866447" lat="31.725318"><ele>157.9</ele><time>2018-04-04T11:45:34.392Z</time></trkpt><trkpt lon="34.866487" lat="31.725315"><ele>157.9</ele><time>2018-04-04T11:45:35.392Z</time></trkpt><trkpt lon="34.866527" lat="31.725315"><ele>157.9</ele><time>2018-04-04T11:45:36.392Z</time></trkpt><trkpt lon="34.866568" lat="31.725318"><ele>157.9</ele><time>2018-04-04T11:45:37.392Z</time></trkpt><trkpt lon="34.866613" lat="31.725323"><ele>157.9</ele><time>2018-04-04T11:45:38.392Z</time></trkpt><trkpt lon="34.866655" lat="31.725332"><ele>157.9</ele><time>2018-04-04T11:45:39.392Z</time></trkpt><trkpt lon="34.866688" lat="31.725347"><ele>157.9</ele><time>2018-04-04T11:45:40.392Z</time></trkpt><trkpt lon="34.86672" lat="31.72536"><ele>157.9</ele><time>2018-04-04T11:45:41.392Z</time></trkpt><trkpt lon="34.866755" lat="31.725377"><ele>157.9</ele><time>2018-04-04T11:45:42.392Z</time></trkpt><trkpt lon="34.86679" lat="31.725392"><ele>157.9</ele><time>2018-04-04T11:45:43.392Z</time></trkpt><trkpt lon="34.866825" lat="31.72541"><ele>157.9</ele><time>2018-04-04T11:45:44.392Z</time></trkpt><trkpt lon="34.866857" lat="31.725428"><ele>157.9</ele><time>2018-04-04T11:45:45.392Z</time></trkpt><trkpt lon="34.866887" lat="31.725448"><ele>157.9</ele><time>2018-04-04T11:45:46.392Z</time></trkpt><trkpt lon="34.866908" lat="31.72547"><ele>157.9</ele><time>2018-04-04T11:45:47.392Z</time></trkpt><trkpt lon="34.866927" lat="31.725492"><ele>157.9</ele><time>2018-04-04T11:45:48.392Z</time></trkpt><trkpt lon="34.866945" lat="31.725513"><ele>157.9</ele><time>2018-04-04T11:45:49.392Z</time></trkpt><trkpt lon="34.866965" lat="31.725533"><ele>157.9</ele><time>2018-04-04T11:45:50.392Z</time></trkpt><trkpt lon="34.866992" lat="31.725557"><ele>157.9</ele><time>2018-04-04T11:45:51.392Z</time></trkpt><trkpt lon="34.867018" lat="31.725578"><ele>157.9</ele><time>2018-04-04T11:45:52.392Z</time></trkpt><trkpt lon="34.86705" lat="31.725597"><ele>157.9</ele><time>2018-04-04T11:45:53.392Z</time></trkpt><trkpt lon="34.867085" lat="31.725613"><ele>157.9</ele><time>2018-04-04T11:45:54.392Z</time></trkpt><trkpt lon="34.867125" lat="31.725627"><ele>156.8</ele><time>2018-04-04T11:45:55.392Z</time></trkpt><trkpt lon="34.867168" lat="31.725642"><ele>156.8</ele><time>2018-04-04T11:45:56.392Z</time></trkpt><trkpt lon="34.867208" lat="31.725662"><ele>156.8</ele><time>2018-04-04T11:45:57.392Z</time></trkpt><trkpt lon="34.867247" lat="31.725685"><ele>156.8</ele><time>2018-04-04T11:45:58.392Z</time></trkpt><trkpt lon="34.867282" lat="31.725713"><ele>156.8</ele><time>2018-04-04T11:45:59.392Z</time></trkpt><trkpt lon="34.86732" lat="31.725742"><ele>156.8</ele><time>2018-04-04T11:46:00.392Z</time></trkpt><trkpt lon="34.867357" lat="31.725772"><ele>156.8</ele><time>2018-04-04T11:46:01.392Z</time></trkpt><trkpt lon="34.867392" lat="31.725803"><ele>156.8</ele><time>2018-04-04T11:46:02.392Z</time></trkpt><trkpt lon="34.867418" lat="31.725838"><ele>156.8</ele><time>2018-04-04T11:46:03.392Z</time></trkpt><trkpt lon="34.867443" lat="31.725877"><ele>156.8</ele><time>2018-04-04T11:46:04.392Z</time></trkpt><trkpt lon="34.867465" lat="31.725917"><ele>156.8</ele><time>2018-04-04T11:46:05.392Z</time></trkpt><trkpt lon="34.867485" lat="31.725957"><ele>156.8</ele><time>2018-04-04T11:46:06.392Z</time></trkpt><trkpt lon="34.867503" lat="31.725995"><ele>156.8</ele><time>2018-04-04T11:46:07.392Z</time></trkpt><trkpt lon="34.867522" lat="31.726032"><ele>156.8</ele><time>2018-04-04T11:46:08.392Z</time></trkpt><trkpt lon="34.867535" lat="31.726067"><ele>156.8</ele><time>2018-04-04T11:46:09.392Z</time></trkpt><trkpt lon="34.867552" lat="31.726102"><ele>156.8</ele><time>2018-04-04T11:46:10.392Z</time></trkpt><trkpt lon="34.86757" lat="31.726133"><ele>156.8</ele><time>2018-04-04T11:46:11.392Z</time></trkpt><trkpt lon="34.86759" lat="31.726162"><ele>156.8</ele><time>2018-04-04T11:46:12.392Z</time></trkpt><trkpt lon="34.867612" lat="31.72619"><ele>156.8</ele><time>2018-04-04T11:46:13.392Z</time></trkpt><trkpt lon="34.86763" lat="31.726218"><ele>156.8</ele><time>2018-04-04T11:46:14.392Z</time></trkpt><trkpt lon="34.867652" lat="31.726247"><ele>156.8</ele><time>2018-04-04T11:46:15.392Z</time></trkpt><trkpt lon="34.867677" lat="31.726275"><ele>156.8</ele><time>2018-04-04T11:46:16.392Z</time></trkpt><trkpt lon="34.867698" lat="31.726308"><ele>156.8</ele><time>2018-04-04T11:46:17.392Z</time></trkpt><trkpt lon="34.867713" lat="31.726343"><ele>156.8</ele><time>2018-04-04T11:46:18.392Z</time></trkpt><trkpt lon="34.867723" lat="31.726377"><ele>156.8</ele><time>2018-04-04T11:46:19.392Z</time></trkpt><trkpt lon="34.867738" lat="31.726407"><ele>156.8</ele><time>2018-04-04T11:46:20.392Z</time></trkpt><trkpt lon="34.867762" lat="31.726427"><ele>155.9</ele><time>2018-04-04T11:46:21.392Z</time></trkpt><trkpt lon="34.867783" lat="31.72645"><ele>155.9</ele><time>2018-04-04T11:46:22.392Z</time></trkpt><trkpt lon="34.867802" lat="31.726475"><ele>155.9</ele><time>2018-04-04T11:46:23.392Z</time></trkpt><trkpt lon="34.867808" lat="31.726502"><ele>155.9</ele><time>2018-04-04T11:46:24.392Z</time></trkpt><trkpt lon="34.86781" lat="31.726532"><ele>155.9</ele><time>2018-04-04T11:46:25.392Z</time></trkpt><trkpt lon="34.867818" lat="31.726562"><ele>155.9</ele><time>2018-04-04T11:46:26.392Z</time></trkpt><trkpt lon="34.86783" lat="31.726592"><ele>155.9</ele><time>2018-04-04T11:46:27.392Z</time></trkpt><trkpt lon="34.867845" lat="31.726618"><ele>155.9</ele><time>2018-04-04T11:46:28.392Z</time></trkpt><trkpt lon="34.867858" lat="31.726648"><ele>155.9</ele><time>2018-04-04T11:46:29.392Z</time></trkpt><trkpt lon="34.867873" lat="31.726677"><ele>155.9</ele><time>2018-04-04T11:46:30.392Z</time></trkpt><trkpt lon="34.867893" lat="31.726707"><ele>155.9</ele><time>2018-04-04T11:46:31.392Z</time></trkpt><trkpt lon="34.86791" lat="31.726745"><ele>155.9</ele><time>2018-04-04T11:46:32.392Z</time></trkpt><trkpt lon="34.867925" lat="31.726782"><ele>154.8</ele><time>2018-04-04T11:46:33.392Z</time></trkpt><trkpt lon="34.867937" lat="31.726822"><ele>154.8</ele><time>2018-04-04T11:46:34.392Z</time></trkpt><trkpt lon="34.867943" lat="31.726868"><ele>154.8</ele><time>2018-04-04T11:46:35.392Z</time></trkpt><trkpt lon="34.867958" lat="31.726913"><ele>154.8</ele><time>2018-04-04T11:46:36.392Z</time></trkpt><trkpt lon="34.867968" lat="31.726957"><ele>154.8</ele><time>2018-04-04T11:46:37.392Z</time></trkpt><trkpt lon="34.867968" lat="31.726995"><ele>154.8</ele><time>2018-04-04T11:46:38.392Z</time></trkpt><trkpt lon="34.867973" lat="31.727033"><ele>154.8</ele><time>2018-04-04T11:46:39.392Z</time></trkpt><trkpt lon="34.867985" lat="31.727072"><ele>154.8</ele><time>2018-04-04T11:46:40.392Z</time></trkpt><trkpt lon="34.868003" lat="31.727107"><ele>153.9</ele><time>2018-04-04T11:46:41.392Z</time></trkpt><trkpt lon="34.86803" lat="31.727135"><ele>153.9</ele><time>2018-04-04T11:46:42.392Z</time></trkpt><trkpt lon="34.868063" lat="31.727155"><ele>153.9</ele><time>2018-04-04T11:46:43.392Z</time></trkpt><trkpt lon="34.868105" lat="31.727167"><ele>153.9</ele><time>2018-04-04T11:46:44.392Z</time></trkpt><trkpt lon="34.868153" lat="31.72718"><ele>152.9</ele><time>2018-04-04T11:46:45.392Z</time></trkpt><trkpt lon="34.8682" lat="31.727197"><ele>152.9</ele><time>2018-04-04T11:46:46.392Z</time></trkpt><trkpt lon="34.86824" lat="31.727212"><ele>152.9</ele><time>2018-04-04T11:46:47.392Z</time></trkpt><trkpt lon="34.86828" lat="31.727223"><ele>152.9</ele><time>2018-04-04T11:46:48.392Z</time></trkpt><trkpt lon="34.868315" lat="31.727228"><ele>152.9</ele><time>2018-04-04T11:46:49.392Z</time></trkpt><trkpt lon="34.868348" lat="31.727238"><ele>152.9</ele><time>2018-04-04T11:46:50.392Z</time></trkpt><trkpt lon="34.868385" lat="31.727247"><ele>152.9</ele><time>2018-04-04T11:46:51.392Z</time></trkpt><trkpt lon="34.868423" lat="31.727248"><ele>152.9</ele><time>2018-04-04T11:46:52.392Z</time></trkpt><trkpt lon="34.868465" lat="31.727247"><ele>152.9</ele><time>2018-04-04T11:46:53.392Z</time></trkpt><trkpt lon="34.868505" lat="31.727238"><ele>152.9</ele><time>2018-04-04T11:46:54.392Z</time></trkpt><trkpt lon="34.86855" lat="31.72723"><ele>152.9</ele><time>2018-04-04T11:46:55.392Z</time></trkpt><trkpt lon="34.868592" lat="31.727222"><ele>152.9</ele><time>2018-04-04T11:46:56.392Z</time></trkpt><trkpt lon="34.868635" lat="31.72721"><ele>152.9</ele><time>2018-04-04T11:46:57.392Z</time></trkpt><trkpt lon="34.86868" lat="31.727202"><ele>152.9</ele><time>2018-04-04T11:46:58.392Z</time></trkpt><trkpt lon="34.868723" lat="31.727195"><ele>152.9</ele><time>2018-04-04T11:46:59.392Z</time></trkpt><trkpt lon="34.868767" lat="31.727193"><ele>152.9</ele><time>2018-04-04T11:47:00.392Z</time></trkpt><trkpt lon="34.868812" lat="31.72719"><ele>152.9</ele><time>2018-04-04T11:47:01.392Z</time></trkpt><trkpt lon="34.868855" lat="31.727183"><ele>152.9</ele><time>2018-04-04T11:47:02.392Z</time></trkpt><trkpt lon="34.868892" lat="31.727173"><ele>152.9</ele><time>2018-04-04T11:47:03.392Z</time></trkpt><trkpt lon="34.868927" lat="31.727168"><ele>152.9</ele><time>2018-04-04T11:47:04.392Z</time></trkpt><trkpt lon="34.868965" lat="31.727163"><ele>152.9</ele><time>2018-04-04T11:47:05.392Z</time></trkpt><trkpt lon="34.869003" lat="31.727162"><ele>152.9</ele><time>2018-04-04T11:47:06.392Z</time></trkpt><trkpt lon="34.869043" lat="31.727165"><ele>152.9</ele><time>2018-04-04T11:47:07.392Z</time></trkpt><trkpt lon="34.869085" lat="31.727172"><ele>152.9</ele><time>2018-04-04T11:47:08.392Z</time></trkpt><trkpt lon="34.869128" lat="31.727178"><ele>152.9</ele><time>2018-04-04T11:47:09.392Z</time></trkpt><trkpt lon="34.869172" lat="31.727182"><ele>152.9</ele><time>2018-04-04T11:47:10.392Z</time></trkpt><trkpt lon="34.869215" lat="31.727187"><ele>153.9</ele><time>2018-04-04T11:47:11.392Z</time></trkpt><trkpt lon="34.86926" lat="31.727192"><ele>153.9</ele><time>2018-04-04T11:47:12.392Z</time></trkpt><trkpt lon="34.8693" lat="31.727202"><ele>153.9</ele><time>2018-04-04T11:47:13.392Z</time></trkpt><trkpt lon="34.869338" lat="31.727217"><ele>153.9</ele><time>2018-04-04T11:47:14.392Z</time></trkpt><trkpt lon="34.86937" lat="31.727232"><ele>154.8</ele><time>2018-04-04T11:47:15.392Z</time></trkpt><trkpt lon="34.869398" lat="31.727247"><ele>154.8</ele><time>2018-04-04T11:47:16.392Z</time></trkpt><trkpt lon="34.869428" lat="31.72726"><ele>155.9</ele><time>2018-04-04T11:47:17.392Z</time></trkpt><trkpt lon="34.869457" lat="31.727272"><ele>155.9</ele><time>2018-04-04T11:47:18.392Z</time></trkpt><trkpt lon="34.869483" lat="31.727278"><ele>155.9</ele><time>2018-04-04T11:47:19.392Z</time></trkpt><trkpt lon="34.869512" lat="31.727278"><ele>155.9</ele><time>2018-04-04T11:47:20.392Z</time></trkpt><trkpt lon="34.869535" lat="31.727275"><ele>155.9</ele><time>2018-04-04T11:47:21.392Z</time></trkpt><trkpt lon="34.869553" lat="31.727258"><ele>155.9</ele><time>2018-04-04T11:47:22.392Z</time></trkpt><trkpt lon="34.869572" lat="31.727235"><ele>155.9</ele><time>2018-04-04T11:47:23.392Z</time></trkpt><trkpt lon="34.869588" lat="31.727205"><ele>155.9</ele><time>2018-04-04T11:47:24.392Z</time></trkpt><trkpt lon="34.869602" lat="31.727175"><ele>156.8</ele><time>2018-04-04T11:47:25.392Z</time></trkpt><trkpt lon="34.869607" lat="31.727148"><ele>156.8</ele><time>2018-04-04T11:47:26.392Z</time></trkpt><trkpt lon="34.869608" lat="31.727123"><ele>156.8</ele><time>2018-04-04T11:47:27.392Z</time></trkpt><trkpt lon="34.869605" lat="31.727098"><ele>156.8</ele><time>2018-04-04T11:47:28.392Z</time></trkpt><trkpt lon="34.869602" lat="31.727075"><ele>156.8</ele><time>2018-04-04T11:47:29.392Z</time></trkpt><trkpt lon="34.869593" lat="31.727055"><ele>156.8</ele><time>2018-04-04T11:47:30.392Z</time></trkpt><trkpt lon="34.869578" lat="31.727035"><ele>156.8</ele><time>2018-04-04T11:47:31.392Z</time></trkpt><trkpt lon="34.869558" lat="31.727012"><ele>156.8</ele><time>2018-04-04T11:47:32.392Z</time></trkpt><trkpt lon="34.869537" lat="31.726987"><ele>157.9</ele><time>2018-04-04T11:47:33.392Z</time></trkpt><trkpt lon="34.869518" lat="31.72696"><ele>157.9</ele><time>2018-04-04T11:47:34.392Z</time></trkpt><trkpt lon="34.869505" lat="31.726933"><ele>157.9</ele><time>2018-04-04T11:47:35.392Z</time></trkpt><trkpt lon="34.869492" lat="31.72691"><ele>157.9</ele><time>2018-04-04T11:47:36.392Z</time></trkpt><trkpt lon="34.869482" lat="31.726883"><ele>157.9</ele><time>2018-04-04T11:47:37.392Z</time></trkpt><trkpt lon="34.869473" lat="31.726855"><ele>157.9</ele><time>2018-04-04T11:47:38.392Z</time></trkpt><trkpt lon="34.869467" lat="31.726828"><ele>158.8</ele><time>2018-04-04T11:47:39.392Z</time></trkpt><trkpt lon="34.86946" lat="31.726798"><ele>158.8</ele><time>2018-04-04T11:47:40.392Z</time></trkpt><trkpt lon="34.869453" lat="31.726768"><ele>158.8</ele><time>2018-04-04T11:47:41.392Z</time></trkpt><trkpt lon="34.869443" lat="31.726738"><ele>158.8</ele><time>2018-04-04T11:47:42.392Z</time></trkpt><trkpt lon="34.869433" lat="31.726707"><ele>158.8</ele><time>2018-04-04T11:47:43.392Z</time></trkpt><trkpt lon="34.869427" lat="31.726675"><ele>158.8</ele><time>2018-04-04T11:47:44.392Z</time></trkpt><trkpt lon="34.86942" lat="31.72664"><ele>158.8</ele><time>2018-04-04T11:47:45.392Z</time></trkpt><trkpt lon="34.869413" lat="31.726607"><ele>158.8</ele><time>2018-04-04T11:47:46.392Z</time></trkpt><trkpt lon="34.869407" lat="31.726572"><ele>158.8</ele><time>2018-04-04T11:47:47.392Z</time></trkpt><trkpt lon="34.869395" lat="31.72654"><ele>158.8</ele><time>2018-04-04T11:47:48.392Z</time></trkpt><trkpt lon="34.869375" lat="31.726512"><ele>158.8</ele><time>2018-04-04T11:47:49.392Z</time></trkpt><trkpt lon="34.869348" lat="31.726487"><ele>158.8</ele><time>2018-04-04T11:47:50.392Z</time></trkpt><trkpt lon="34.869322" lat="31.726455"><ele>157.9</ele><time>2018-04-04T11:47:51.392Z</time></trkpt><trkpt lon="34.869298" lat="31.726418"><ele>157.9</ele><time>2018-04-04T11:47:52.392Z</time></trkpt><trkpt lon="34.86928" lat="31.726377"><ele>157.9</ele><time>2018-04-04T11:47:53.392Z</time></trkpt><trkpt lon="34.86926" lat="31.726338"><ele>157.9</ele><time>2018-04-04T11:47:54.392Z</time></trkpt><trkpt lon="34.869227" lat="31.726303"><ele>157.9</ele><time>2018-04-04T11:47:55.392Z</time></trkpt><trkpt lon="34.869198" lat="31.72627"><ele>157.9</ele><time>2018-04-04T11:47:56.392Z</time></trkpt><trkpt lon="34.86918" lat="31.726233"><ele>157.9</ele><time>2018-04-04T11:47:57.392Z</time></trkpt><trkpt lon="34.86917" lat="31.726197"><ele>157.9</ele><time>2018-04-04T11:47:58.392Z</time></trkpt><trkpt lon="34.869165" lat="31.726162"><ele>157.9</ele><time>2018-04-04T11:47:59.392Z</time></trkpt><trkpt lon="34.869162" lat="31.726127"><ele>157.9</ele><time>2018-04-04T11:48:00.392Z</time></trkpt><trkpt lon="34.86916" lat="31.726092"><ele>157.9</ele><time>2018-04-04T11:48:01.392Z</time></trkpt><trkpt lon="34.869163" lat="31.72606"><ele>157.9</ele><time>2018-04-04T11:48:02.392Z</time></trkpt><trkpt lon="34.869173" lat="31.726032"><ele>156.8</ele><time>2018-04-04T11:48:03.392Z</time></trkpt><trkpt lon="34.869183" lat="31.726005"><ele>156.8</ele><time>2018-04-04T11:48:04.392Z</time></trkpt><trkpt lon="34.869183" lat="31.725978"><ele>156.8</ele><time>2018-04-04T11:48:05.392Z</time></trkpt><trkpt lon="34.86918" lat="31.725952"><ele>156.8</ele><time>2018-04-04T11:48:06.392Z</time></trkpt><trkpt lon="34.869177" lat="31.72592"><ele>156.8</ele><time>2018-04-04T11:48:07.392Z</time></trkpt><trkpt lon="34.869175" lat="31.72589"><ele>156.8</ele><time>2018-04-04T11:48:08.392Z</time></trkpt><trkpt lon="34.869178" lat="31.72586"><ele>156.8</ele><time>2018-04-04T11:48:09.392Z</time></trkpt><trkpt lon="34.869187" lat="31.725832"><ele>156.8</ele><time>2018-04-04T11:48:10.392Z</time></trkpt><trkpt lon="34.86919" lat="31.725802"><ele>155.9</ele><time>2018-04-04T11:48:11.392Z</time></trkpt><trkpt lon="34.86919" lat="31.725773"><ele>155.9</ele><time>2018-04-04T11:48:12.392Z</time></trkpt><trkpt lon="34.869188" lat="31.725747"><ele>155.9</ele><time>2018-04-04T11:48:13.392Z</time></trkpt><trkpt lon="34.86918" lat="31.725725"><ele>155.9</ele><time>2018-04-04T11:48:14.392Z</time></trkpt><trkpt lon="34.869163" lat="31.7257"><ele>154.8</ele><time>2018-04-04T11:48:15.392Z</time></trkpt><trkpt lon="34.869143" lat="31.725673"><ele>154.8</ele><time>2018-04-04T11:48:16.392Z</time></trkpt><trkpt lon="34.869118" lat="31.725643"><ele>154.8</ele><time>2018-04-04T11:48:17.392Z</time></trkpt><trkpt lon="34.869095" lat="31.725602"><ele>154.8</ele><time>2018-04-04T11:48:18.392Z</time></trkpt><trkpt lon="34.869067" lat="31.725555"><ele>154.8</ele><time>2018-04-04T11:48:19.392Z</time></trkpt><trkpt lon="34.869033" lat="31.725512"><ele>154.8</ele><time>2018-04-04T11:48:20.392Z</time></trkpt><trkpt lon="34.869" lat="31.725472"><ele>154.8</ele><time>2018-04-04T11:48:21.392Z</time></trkpt><trkpt lon="34.868967" lat="31.72543"><ele>154.8</ele><time>2018-04-04T11:48:22.392Z</time></trkpt><trkpt lon="34.868942" lat="31.725388"><ele>154.8</ele><time>2018-04-04T11:48:23.392Z</time></trkpt><trkpt lon="34.868923" lat="31.72535"><ele>154.8</ele><time>2018-04-04T11:48:24.392Z</time></trkpt><trkpt lon="34.868908" lat="31.725317"><ele>155.9</ele><time>2018-04-04T11:48:25.392Z</time></trkpt><trkpt lon="34.868893" lat="31.725287"><ele>155.9</ele><time>2018-04-04T11:48:26.392Z</time></trkpt><trkpt lon="34.868882" lat="31.725262"><ele>155.9</ele><time>2018-04-04T11:48:27.392Z</time></trkpt><trkpt lon="34.86887" lat="31.725237"><ele>155.9</ele><time>2018-04-04T11:48:28.392Z</time></trkpt><trkpt lon="34.868863" lat="31.725215"><ele>155.9</ele><time>2018-04-04T11:48:29.392Z</time></trkpt><trkpt lon="34.868858" lat="31.7252"><ele>155.9</ele><time>2018-04-04T11:48:30.392Z</time></trkpt><trkpt lon="34.86885" lat="31.725185"><ele>155.9</ele><time>2018-04-04T11:48:31.392Z</time></trkpt><trkpt lon="34.868843" lat="31.725172"><ele>155.9</ele><time>2018-04-04T11:48:32.392Z</time></trkpt><trkpt lon="34.868838" lat="31.725163"><ele>155.9</ele><time>2018-04-04T11:48:33.392Z</time></trkpt><trkpt lon="34.868833" lat="31.725157"><ele>155.9</ele><time>2018-04-04T11:48:34.392Z</time></trkpt><trkpt lon="34.86883" lat="31.72515"><ele>155.9</ele><time>2018-04-04T11:48:35.392Z</time></trkpt><trkpt lon="34.868827" lat="31.72514"><ele>155.9</ele><time>2018-04-04T11:48:36.392Z</time></trkpt><trkpt lon="34.868823" lat="31.725127"><ele>155.9</ele><time>2018-04-04T11:48:37.392Z</time></trkpt><trkpt lon="34.868822" lat="31.725115"><ele>155.9</ele><time>2018-04-04T11:48:38.392Z</time></trkpt><trkpt lon="34.86882" lat="31.725103"><ele>156.8</ele><time>2018-04-04T11:48:39.392Z</time></trkpt><trkpt lon="34.868817" lat="31.725088"><ele>156.8</ele><time>2018-04-04T11:48:40.392Z</time></trkpt><trkpt lon="34.868817" lat="31.725075"><ele>156.8</ele><time>2018-04-04T11:48:41.392Z</time></trkpt><trkpt lon="34.868817" lat="31.72506"><ele>156.8</ele><time>2018-04-04T11:48:42.392Z</time></trkpt><trkpt lon="34.868817" lat="31.725042"><ele>156.8</ele><time>2018-04-04T11:48:43.392Z</time></trkpt><trkpt lon="34.868812" lat="31.725027"><ele>156.8</ele><time>2018-04-04T11:48:44.392Z</time></trkpt><trkpt lon="34.868808" lat="31.725012"><ele>156.8</ele><time>2018-04-04T11:48:45.392Z</time></trkpt><trkpt lon="34.868807" lat="31.724995"><ele>156.8</ele><time>2018-04-04T11:48:46.392Z</time></trkpt><trkpt lon="34.868805" lat="31.72498"><ele>156.8</ele><time>2018-04-04T11:48:47.392Z</time></trkpt><trkpt lon="34.868797" lat="31.72496"><ele>156.8</ele><time>2018-04-04T11:48:48.392Z</time></trkpt><trkpt lon="34.86879" lat="31.724938"><ele>156.8</ele><time>2018-04-04T11:48:49.392Z</time></trkpt><trkpt lon="34.86878" lat="31.724915"><ele>156.8</ele><time>2018-04-04T11:48:50.392Z</time></trkpt><trkpt lon="34.868773" lat="31.724893"><ele>156.8</ele><time>2018-04-04T11:48:51.392Z</time></trkpt><trkpt lon="34.868772" lat="31.72487"><ele>156.8</ele><time>2018-04-04T11:48:52.392Z</time></trkpt><trkpt lon="34.868775" lat="31.72485"><ele>156.8</ele><time>2018-04-04T11:48:53.392Z</time></trkpt><trkpt lon="34.868772" lat="31.724833"><ele>156.8</ele><time>2018-04-04T11:48:54.392Z</time></trkpt><trkpt lon="34.868762" lat="31.724822"><ele>156.8</ele><time>2018-04-04T11:48:55.392Z</time></trkpt><trkpt lon="34.868748" lat="31.724812"><ele>156.8</ele><time>2018-04-04T11:48:56.392Z</time></trkpt><trkpt lon="34.868737" lat="31.7248"><ele>157.9</ele><time>2018-04-04T11:48:57.392Z</time></trkpt><trkpt lon="34.868725" lat="31.724787"><ele>157.9</ele><time>2018-04-04T11:48:58.392Z</time></trkpt><trkpt lon="34.868705" lat="31.724773"><ele>157.9</ele><time>2018-04-04T11:48:59.392Z</time></trkpt><trkpt lon="34.868688" lat="31.724763"><ele>157.9</ele><time>2018-04-04T11:49:00.392Z</time></trkpt><trkpt lon="34.868672" lat="31.724758"><ele>157.9</ele><time>2018-04-04T11:49:01.392Z</time></trkpt><trkpt lon="34.868658" lat="31.724752"><ele>157.9</ele><time>2018-04-04T11:49:02.392Z</time></trkpt><trkpt lon="34.868648" lat="31.724742"><ele>157.9</ele><time>2018-04-04T11:49:03.392Z</time></trkpt><trkpt lon="34.868635" lat="31.724725"><ele>157.9</ele><time>2018-04-04T11:49:04.392Z</time></trkpt><trkpt lon="34.868623" lat="31.724705"><ele>157.9</ele><time>2018-04-04T11:49:05.392Z</time></trkpt><trkpt lon="34.868617" lat="31.72469"><ele>157.9</ele><time>2018-04-04T11:49:06.392Z</time></trkpt><trkpt lon="34.86861" lat="31.724675"><ele>157.9</ele><time>2018-04-04T11:49:07.392Z</time></trkpt><trkpt lon="34.868598" lat="31.724657"><ele>157.9</ele><time>2018-04-04T11:49:08.392Z</time></trkpt><trkpt lon="34.868585" lat="31.72464"><ele>157.9</ele><time>2018-04-04T11:49:09.392Z</time></trkpt><trkpt lon="34.86857" lat="31.724623"><ele>157.9</ele><time>2018-04-04T11:49:10.392Z</time></trkpt><trkpt lon="34.868555" lat="31.724605"><ele>157.9</ele><time>2018-04-04T11:49:11.392Z</time></trkpt><trkpt lon="34.868543" lat="31.724583"><ele>157.9</ele><time>2018-04-04T11:49:12.392Z</time></trkpt><trkpt lon="34.868535" lat="31.724563"><ele>157.9</ele><time>2018-04-04T11:49:13.392Z</time></trkpt><trkpt lon="34.868528" lat="31.724542"><ele>157.9</ele><time>2018-04-04T11:49:14.392Z</time></trkpt><trkpt lon="34.868523" lat="31.72452"><ele>157.9</ele><time>2018-04-04T11:49:15.392Z</time></trkpt><trkpt lon="34.868518" lat="31.7245"><ele>157.9</ele><time>2018-04-04T11:49:16.392Z</time></trkpt><trkpt lon="34.868515" lat="31.724477"><ele>158.8</ele><time>2018-04-04T11:49:17.392Z</time></trkpt><trkpt lon="34.868507" lat="31.724455"><ele>158.8</ele><time>2018-04-04T11:49:18.392Z</time></trkpt><trkpt lon="34.868493" lat="31.724438"><ele>158.8</ele><time>2018-04-04T11:49:19.392Z</time></trkpt><trkpt lon="34.868478" lat="31.724417"><ele>158.8</ele><time>2018-04-04T11:49:20.392Z</time></trkpt><trkpt lon="34.868465" lat="31.724393"><ele>158.8</ele><time>2018-04-04T11:49:21.392Z</time></trkpt><trkpt lon="34.868453" lat="31.724367"><ele>158.8</ele><time>2018-04-04T11:49:22.392Z</time></trkpt><trkpt lon="34.868445" lat="31.724342"><ele>158.8</ele><time>2018-04-04T11:49:23.392Z</time></trkpt><trkpt lon="34.868443" lat="31.724318"><ele>158.8</ele><time>2018-04-04T11:49:24.392Z</time></trkpt><trkpt lon="34.868438" lat="31.724293"><ele>158.8</ele><time>2018-04-04T11:49:25.392Z</time></trkpt><trkpt lon="34.868432" lat="31.72427"><ele>158.8</ele><time>2018-04-04T11:49:26.392Z</time></trkpt><trkpt lon="34.868418" lat="31.724252"><ele>158.8</ele><time>2018-04-04T11:49:27.392Z</time></trkpt><trkpt lon="34.868403" lat="31.724233"><ele>158.8</ele><time>2018-04-04T11:49:28.392Z</time></trkpt><trkpt lon="34.86839" lat="31.724215"><ele>158.8</ele><time>2018-04-04T11:49:29.392Z</time></trkpt><trkpt lon="34.86837" lat="31.724198"><ele>158.8</ele><time>2018-04-04T11:49:30.392Z</time></trkpt><trkpt lon="34.868348" lat="31.724177"><ele>158.8</ele><time>2018-04-04T11:49:31.392Z</time></trkpt><trkpt lon="34.868333" lat="31.724152"><ele>158.8</ele><time>2018-04-04T11:49:32.392Z</time></trkpt><trkpt lon="34.868323" lat="31.724123"><ele>158.8</ele><time>2018-04-04T11:49:33.392Z</time></trkpt><trkpt lon="34.868315" lat="31.724095"><ele>158.8</ele><time>2018-04-04T11:49:34.392Z</time></trkpt><trkpt lon="34.868305" lat="31.724067"><ele>158.8</ele><time>2018-04-04T11:49:35.392Z</time></trkpt><trkpt lon="34.868292" lat="31.724043"><ele>158.8</ele><time>2018-04-04T11:49:36.392Z</time></trkpt><trkpt lon="34.868275" lat="31.72402"><ele>158.8</ele><time>2018-04-04T11:49:37.392Z</time></trkpt><trkpt lon="34.86825" lat="31.723998"><ele>158.8</ele><time>2018-04-04T11:49:38.392Z</time></trkpt><trkpt lon="34.868218" lat="31.723978"><ele>158.8</ele><time>2018-04-04T11:49:39.392Z</time></trkpt><trkpt lon="34.868188" lat="31.723957"><ele>158.8</ele><time>2018-04-04T11:49:40.392Z</time></trkpt><trkpt lon="34.86816" lat="31.723932"><ele>157.9</ele><time>2018-04-04T11:49:41.392Z</time></trkpt><trkpt lon="34.868135" lat="31.723903"><ele>157.9</ele><time>2018-04-04T11:49:42.392Z</time></trkpt><trkpt lon="34.868115" lat="31.72387"><ele>157.9</ele><time>2018-04-04T11:49:43.392Z</time></trkpt><trkpt lon="34.868102" lat="31.723838"><ele>157.9</ele><time>2018-04-04T11:49:44.392Z</time></trkpt><trkpt lon="34.868092" lat="31.723812"><ele>157.9</ele><time>2018-04-04T11:49:45.392Z</time></trkpt><trkpt lon="34.868078" lat="31.723792"><ele>157.9</ele><time>2018-04-04T11:49:46.392Z</time></trkpt><trkpt lon="34.868065" lat="31.723775"><ele>156.8</ele><time>2018-04-04T11:49:47.392Z</time></trkpt><trkpt lon="34.868045" lat="31.723762"><ele>156.8</ele><time>2018-04-04T11:49:48.392Z</time></trkpt><trkpt lon="34.868022" lat="31.723748"><ele>156.8</ele><time>2018-04-04T11:49:49.392Z</time></trkpt><trkpt lon="34.867992" lat="31.723732"><ele>156.8</ele><time>2018-04-04T11:49:50.392Z</time></trkpt><trkpt lon="34.867962" lat="31.723713"><ele>155.9</ele><time>2018-04-04T11:49:51.392Z</time></trkpt><trkpt lon="34.867935" lat="31.723695"><ele>155.9</ele><time>2018-04-04T11:49:52.392Z</time></trkpt><trkpt lon="34.867912" lat="31.723677"><ele>155.9</ele><time>2018-04-04T11:49:53.392Z</time></trkpt><trkpt lon="34.867895" lat="31.723657"><ele>155.9</ele><time>2018-04-04T11:49:54.392Z</time></trkpt><trkpt lon="34.867888" lat="31.723633"><ele>155.9</ele><time>2018-04-04T11:49:55.392Z</time></trkpt><trkpt lon="34.867888" lat="31.723602"><ele>155.9</ele><time>2018-04-04T11:49:56.392Z</time></trkpt><trkpt lon="34.86789" lat="31.723565"><ele>155.9</ele><time>2018-04-04T11:49:57.392Z</time></trkpt><trkpt lon="34.867888" lat="31.723532"><ele>155.9</ele><time>2018-04-04T11:49:58.392Z</time></trkpt><trkpt lon="34.867882" lat="31.7235"><ele>155.9</ele><time>2018-04-04T11:49:59.392Z</time></trkpt><trkpt lon="34.86788" lat="31.723468"><ele>155.9</ele><time>2018-04-04T11:50:00.392Z</time></trkpt><trkpt lon="34.867882" lat="31.72344"><ele>155.9</ele><time>2018-04-04T11:50:01.392Z</time></trkpt><trkpt lon="34.867883" lat="31.723408"><ele>155.9</ele><time>2018-04-04T11:50:02.392Z</time></trkpt><trkpt lon="34.867885" lat="31.723378"><ele>155.9</ele><time>2018-04-04T11:50:03.392Z</time></trkpt><trkpt lon="34.867882" lat="31.723348"><ele>155.9</ele><time>2018-04-04T11:50:04.392Z</time></trkpt><trkpt lon="34.86788" lat="31.72332"><ele>155.9</ele><time>2018-04-04T11:50:05.392Z</time></trkpt><trkpt lon="34.867882" lat="31.723293"><ele>155.9</ele><time>2018-04-04T11:50:06.392Z</time></trkpt><trkpt lon="34.867883" lat="31.72327"><ele>155.9</ele><time>2018-04-04T11:50:07.392Z</time></trkpt><trkpt lon="34.867883" lat="31.723248"><ele>155.9</ele><time>2018-04-04T11:50:08.392Z</time></trkpt><trkpt lon="34.867885" lat="31.723225"><ele>155.9</ele><time>2018-04-04T11:50:09.392Z</time></trkpt><trkpt lon="34.867888" lat="31.7232"><ele>155.9</ele><time>2018-04-04T11:50:10.392Z</time></trkpt><trkpt lon="34.867893" lat="31.723175"><ele>155.9</ele><time>2018-04-04T11:50:11.392Z</time></trkpt><trkpt lon="34.867903" lat="31.723155"><ele>155.9</ele><time>2018-04-04T11:50:12.392Z</time></trkpt><trkpt lon="34.867915" lat="31.723135"><ele>155.9</ele><time>2018-04-04T11:50:13.392Z</time></trkpt><trkpt lon="34.867927" lat="31.723115"><ele>155.9</ele><time>2018-04-04T11:50:14.392Z</time></trkpt><trkpt lon="34.867933" lat="31.723098"><ele>155.9</ele><time>2018-04-04T11:50:15.392Z</time></trkpt><trkpt lon="34.867935" lat="31.723082"><ele>155.9</ele><time>2018-04-04T11:50:16.392Z</time></trkpt><trkpt lon="34.867933" lat="31.72306"><ele>155.9</ele><time>2018-04-04T11:50:17.392Z</time></trkpt><trkpt lon="34.867932" lat="31.723033"><ele>155.9</ele><time>2018-04-04T11:50:18.392Z</time></trkpt><trkpt lon="34.867933" lat="31.723007"><ele>155.9</ele><time>2018-04-04T11:50:19.392Z</time></trkpt><trkpt lon="34.867935" lat="31.722982"><ele>155.9</ele><time>2018-04-04T11:50:20.392Z</time></trkpt><trkpt lon="34.867938" lat="31.722955"><ele>155.9</ele><time>2018-04-04T11:50:21.392Z</time></trkpt><trkpt lon="34.867943" lat="31.722932"><ele>155.9</ele><time>2018-04-04T11:50:22.392Z</time></trkpt><trkpt lon="34.867945" lat="31.722908"><ele>155.9</ele><time>2018-04-04T11:50:23.392Z</time></trkpt><trkpt lon="34.867945" lat="31.722887"><ele>155.9</ele><time>2018-04-04T11:50:24.392Z</time></trkpt><trkpt lon="34.867945" lat="31.722887"><ele>155.9</ele><time>2018-04-04T11:50:25.392Z</time></trkpt><trkpt lon="34.867943" lat="31.722863"><ele>155.9</ele><time>2018-04-04T11:50:26.392Z</time></trkpt><trkpt lon="34.86794" lat="31.722845"><ele>155.9</ele><time>2018-04-04T11:50:27.392Z</time></trkpt><trkpt lon="34.86794" lat="31.722845"><ele>155.9</ele><time>2018-04-04T11:50:28.392Z</time></trkpt><trkpt lon="34.86794" lat="31.722845"><ele>155.9</ele><time>2018-04-04T11:50:29.392Z</time></trkpt><trkpt lon="34.86793" lat="31.722805"><ele>155.9</ele><time>2018-04-04T11:50:30.392Z</time></trkpt><trkpt lon="34.86793" lat="31.722802"><ele>155.9</ele><time>2018-04-04T11:50:31.392Z</time></trkpt><trkpt lon="34.867933" lat="31.722798"><ele>155.9</ele><time>2018-04-04T11:50:32.392Z</time></trkpt><trkpt lon="34.867932" lat="31.72279"><ele>155.9</ele><time>2018-04-04T11:50:33.392Z</time></trkpt><trkpt lon="34.867928" lat="31.722778"><ele>155.9</ele><time>2018-04-04T11:50:34.392Z</time></trkpt><trkpt lon="34.867925" lat="31.722762"><ele>155.9</ele><time>2018-04-04T11:50:35.392Z</time></trkpt><trkpt lon="34.867922" lat="31.722742"><ele>155.9</ele><time>2018-04-04T11:50:36.392Z</time></trkpt><trkpt lon="34.86792" lat="31.72272"><ele>155.9</ele><time>2018-04-04T11:50:37.392Z</time></trkpt><trkpt lon="34.86792" lat="31.722698"><ele>155.9</ele><time>2018-04-04T11:50:38.392Z</time></trkpt><trkpt lon="34.867918" lat="31.722675"><ele>154.8</ele><time>2018-04-04T11:50:39.392Z</time></trkpt><trkpt lon="34.867923" lat="31.722652"><ele>154.8</ele><time>2018-04-04T11:50:40.392Z</time></trkpt><trkpt lon="34.867928" lat="31.722628"><ele>154.8</ele><time>2018-04-04T11:50:41.392Z</time></trkpt><trkpt lon="34.86793" lat="31.722602"><ele>154.8</ele><time>2018-04-04T11:50:42.392Z</time></trkpt><trkpt lon="34.867935" lat="31.722575"><ele>154.8</ele><time>2018-04-04T11:50:43.392Z</time></trkpt><trkpt lon="34.867937" lat="31.722552"><ele>154.8</ele><time>2018-04-04T11:50:44.392Z</time></trkpt><trkpt lon="34.867937" lat="31.722523"><ele>154.8</ele><time>2018-04-04T11:50:45.392Z</time></trkpt><trkpt lon="34.867938" lat="31.722493"><ele>154.8</ele><time>2018-04-04T11:50:46.392Z</time></trkpt><trkpt lon="34.867942" lat="31.722465"><ele>154.8</ele><time>2018-04-04T11:50:47.392Z</time></trkpt><trkpt lon="34.86795" lat="31.72244"><ele>154.8</ele><time>2018-04-04T11:50:48.392Z</time></trkpt><trkpt lon="34.867958" lat="31.722418"><ele>153.9</ele><time>2018-04-04T11:50:49.392Z</time></trkpt><trkpt lon="34.867965" lat="31.72239"><ele>153.9</ele><time>2018-04-04T11:50:50.392Z</time></trkpt><trkpt lon="34.867973" lat="31.722363"><ele>153.9</ele><time>2018-04-04T11:50:51.392Z</time></trkpt><trkpt lon="34.867982" lat="31.722332"><ele>153.9</ele><time>2018-04-04T11:50:52.392Z</time></trkpt><trkpt lon="34.867997" lat="31.7223"><ele>153.9</ele><time>2018-04-04T11:50:53.392Z</time></trkpt><trkpt lon="34.86802" lat="31.72227"><ele>153.9</ele><time>2018-04-04T11:50:54.392Z</time></trkpt><trkpt lon="34.868047" lat="31.722243"><ele>153.9</ele><time>2018-04-04T11:50:55.392Z</time></trkpt><trkpt lon="34.868072" lat="31.722218"><ele>153.9</ele><time>2018-04-04T11:50:56.392Z</time></trkpt><trkpt lon="34.868095" lat="31.722193"><ele>153.9</ele><time>2018-04-04T11:50:57.392Z</time></trkpt><trkpt lon="34.868113" lat="31.722167"><ele>153.9</ele><time>2018-04-04T11:50:58.392Z</time></trkpt><trkpt lon="34.868137" lat="31.722143"><ele>153.9</ele><time>2018-04-04T11:50:59.392Z</time></trkpt><trkpt lon="34.868162" lat="31.722125"><ele>153.9</ele><time>2018-04-04T11:51:00.392Z</time></trkpt><trkpt lon="34.86819" lat="31.72211"><ele>154.8</ele><time>2018-04-04T11:51:01.392Z</time></trkpt><trkpt lon="34.868215" lat="31.722095"><ele>154.8</ele><time>2018-04-04T11:51:02.392Z</time></trkpt><trkpt lon="34.868238" lat="31.722078"><ele>154.8</ele><time>2018-04-04T11:51:03.392Z</time></trkpt><trkpt lon="34.868258" lat="31.722063"><ele>154.8</ele><time>2018-04-04T11:51:04.392Z</time></trkpt><trkpt lon="34.868282" lat="31.722047"><ele>154.8</ele><time>2018-04-04T11:51:05.392Z</time></trkpt><trkpt lon="34.8683" lat="31.722033"><ele>154.8</ele><time>2018-04-04T11:51:06.392Z</time></trkpt><trkpt lon="34.868313" lat="31.722017"><ele>155.9</ele><time>2018-04-04T11:51:07.392Z</time></trkpt><trkpt lon="34.868325" lat="31.721997"><ele>155.9</ele><time>2018-04-04T11:51:08.392Z</time></trkpt><trkpt lon="34.868332" lat="31.721977"><ele>155.9</ele><time>2018-04-04T11:51:09.392Z</time></trkpt><trkpt lon="34.868337" lat="31.721957"><ele>155.9</ele><time>2018-04-04T11:51:10.392Z</time></trkpt><trkpt lon="34.868342" lat="31.721938"><ele>155.9</ele><time>2018-04-04T11:51:11.392Z</time></trkpt><trkpt lon="34.868347" lat="31.72192"><ele>155.9</ele><time>2018-04-04T11:51:12.392Z</time></trkpt><trkpt lon="34.868352" lat="31.721902"><ele>155.9</ele><time>2018-04-04T11:51:13.392Z</time></trkpt><trkpt lon="34.86836" lat="31.72188"><ele>155.9</ele><time>2018-04-04T11:51:14.392Z</time></trkpt><trkpt lon="34.868373" lat="31.721858"><ele>154.8</ele><time>2018-04-04T11:51:15.392Z</time></trkpt><trkpt lon="34.86839" lat="31.721832"><ele>154.8</ele><time>2018-04-04T11:51:16.392Z</time></trkpt><trkpt lon="34.868407" lat="31.721807"><ele>154.8</ele><time>2018-04-04T11:51:17.392Z</time></trkpt><trkpt lon="34.868425" lat="31.721778"><ele>154.8</ele><time>2018-04-04T11:51:18.392Z</time></trkpt><trkpt lon="34.86844" lat="31.721752"><ele>154.8</ele><time>2018-04-04T11:51:19.392Z</time></trkpt><trkpt lon="34.868452" lat="31.721722"><ele>154.8</ele><time>2018-04-04T11:51:20.392Z</time></trkpt><trkpt lon="34.868452" lat="31.721702"><ele>153.9</ele><time>2018-04-04T11:51:21.392Z</time></trkpt><trkpt lon="34.868448" lat="31.72168"><ele>153.9</ele><time>2018-04-04T11:51:22.392Z</time></trkpt><trkpt lon="34.868433" lat="31.721662"><ele>152.9</ele><time>2018-04-04T11:51:23.392Z</time></trkpt><trkpt lon="34.868412" lat="31.721642"><ele>152.9</ele><time>2018-04-04T11:51:24.392Z</time></trkpt><trkpt lon="34.868382" lat="31.721617"><ele>152.9</ele><time>2018-04-04T11:51:25.392Z</time></trkpt><trkpt lon="34.86834" lat="31.721592"><ele>152.9</ele><time>2018-04-04T11:51:26.392Z</time></trkpt><trkpt lon="34.8683" lat="31.721568"><ele>152.9</ele><time>2018-04-04T11:51:27.392Z</time></trkpt><trkpt lon="34.868258" lat="31.721542"><ele>152.9</ele><time>2018-04-04T11:51:28.392Z</time></trkpt><trkpt lon="34.868218" lat="31.72151"><ele>152.9</ele><time>2018-04-04T11:51:29.392Z</time></trkpt><trkpt lon="34.868178" lat="31.721475"><ele>152.9</ele><time>2018-04-04T11:51:30.392Z</time></trkpt><trkpt lon="34.86814" lat="31.72144"><ele>152.9</ele><time>2018-04-04T11:51:31.392Z</time></trkpt><trkpt lon="34.868105" lat="31.721403"><ele>152.9</ele><time>2018-04-04T11:51:32.392Z</time></trkpt><trkpt lon="34.868077" lat="31.721368"><ele>152.9</ele><time>2018-04-04T11:51:33.392Z</time></trkpt><trkpt lon="34.868058" lat="31.721335"><ele>152.9</ele><time>2018-04-04T11:51:34.392Z</time></trkpt><trkpt lon="34.868047" lat="31.721305"><ele>152.9</ele><time>2018-04-04T11:51:35.392Z</time></trkpt><trkpt lon="34.868035" lat="31.721278"><ele>152.9</ele><time>2018-04-04T11:51:36.392Z</time></trkpt><trkpt lon="34.868022" lat="31.721252"><ele>154.8</ele><time>2018-04-04T11:51:37.392Z</time></trkpt><trkpt lon="34.868002" lat="31.721225"><ele>154.8</ele><time>2018-04-04T11:51:38.392Z</time></trkpt><trkpt lon="34.86798" lat="31.721193"><ele>154.8</ele><time>2018-04-04T11:51:39.392Z</time></trkpt><trkpt lon="34.867963" lat="31.721163"><ele>154.8</ele><time>2018-04-04T11:51:40.392Z</time></trkpt><trkpt lon="34.867952" lat="31.72113"><ele>154.8</ele><time>2018-04-04T11:51:41.392Z</time></trkpt><trkpt lon="34.867943" lat="31.721097"><ele>154.8</ele><time>2018-04-04T11:51:42.392Z</time></trkpt><trkpt lon="34.867932" lat="31.721072"><ele>154.8</ele><time>2018-04-04T11:51:43.392Z</time></trkpt><trkpt lon="34.867922" lat="31.721043"><ele>154.8</ele><time>2018-04-04T11:51:44.392Z</time></trkpt><trkpt lon="34.867913" lat="31.721015"><ele>154.8</ele><time>2018-04-04T11:51:45.392Z</time></trkpt><trkpt lon="34.867902" lat="31.720983"><ele>154.8</ele><time>2018-04-04T11:51:46.392Z</time></trkpt><trkpt lon="34.867888" lat="31.720952"><ele>153.9</ele><time>2018-04-04T11:51:47.392Z</time></trkpt><trkpt lon="34.867875" lat="31.720917"><ele>153.9</ele><time>2018-04-04T11:51:48.392Z</time></trkpt><trkpt lon="34.867862" lat="31.720877"><ele>153.9</ele><time>2018-04-04T11:51:49.392Z</time></trkpt><trkpt lon="34.86785" lat="31.720833"><ele>153.9</ele><time>2018-04-04T11:51:50.392Z</time></trkpt><trkpt lon="34.86784" lat="31.72079"><ele>153.9</ele><time>2018-04-04T11:51:51.392Z</time></trkpt><trkpt lon="34.867828" lat="31.720748"><ele>153.9</ele><time>2018-04-04T11:51:52.392Z</time></trkpt><trkpt lon="34.867815" lat="31.720712"><ele>153.9</ele><time>2018-04-04T11:51:53.392Z</time></trkpt><trkpt lon="34.867797" lat="31.720673"><ele>153.9</ele><time>2018-04-04T11:51:54.392Z</time></trkpt><trkpt lon="34.867778" lat="31.720633"><ele>153.9</ele><time>2018-04-04T11:51:55.392Z</time></trkpt><trkpt lon="34.867762" lat="31.720592"><ele>153.9</ele><time>2018-04-04T11:51:56.392Z</time></trkpt><trkpt lon="34.867747" lat="31.720552"><ele>153.9</ele><time>2018-04-04T11:51:57.392Z</time></trkpt><trkpt lon="34.867738" lat="31.720513"><ele>153.9</ele><time>2018-04-04T11:51:58.392Z</time></trkpt><trkpt lon="34.867735" lat="31.720477"><ele>153.9</ele><time>2018-04-04T11:51:59.392Z</time></trkpt><trkpt lon="34.867738" lat="31.720445"><ele>153.9</ele><time>2018-04-04T11:52:00.392Z</time></trkpt><trkpt lon="34.867738" lat="31.720415"><ele>153.9</ele><time>2018-04-04T11:52:01.392Z</time></trkpt><trkpt lon="34.867732" lat="31.720387"><ele>153.9</ele><time>2018-04-04T11:52:02.392Z</time></trkpt><trkpt lon="34.867723" lat="31.720358"><ele>153.9</ele><time>2018-04-04T11:52:03.392Z</time></trkpt><trkpt lon="34.867717" lat="31.720325"><ele>153.9</ele><time>2018-04-04T11:52:04.392Z</time></trkpt><trkpt lon="34.867715" lat="31.720288"><ele>153.9</ele><time>2018-04-04T11:52:05.392Z</time></trkpt><trkpt lon="34.867712" lat="31.72025"><ele>153.9</ele><time>2018-04-04T11:52:06.392Z</time></trkpt><trkpt lon="34.86771" lat="31.720212"><ele>153.9</ele><time>2018-04-04T11:52:07.392Z</time></trkpt><trkpt lon="34.867708" lat="31.720178"><ele>153.9</ele><time>2018-04-04T11:52:08.392Z</time></trkpt><trkpt lon="34.867712" lat="31.720147"><ele>153.9</ele><time>2018-04-04T11:52:09.392Z</time></trkpt><trkpt lon="34.867713" lat="31.72012"><ele>153.9</ele><time>2018-04-04T11:52:10.392Z</time></trkpt><trkpt lon="34.867715" lat="31.720093"><ele>153.9</ele><time>2018-04-04T11:52:11.392Z</time></trkpt><trkpt lon="34.867713" lat="31.720067"><ele>153.9</ele><time>2018-04-04T11:52:12.392Z</time></trkpt><trkpt lon="34.867712" lat="31.720037"><ele>153.9</ele><time>2018-04-04T11:52:13.392Z</time></trkpt><trkpt lon="34.86771" lat="31.720002"><ele>153.9</ele><time>2018-04-04T11:52:14.392Z</time></trkpt><trkpt lon="34.867708" lat="31.719963"><ele>153.9</ele><time>2018-04-04T11:52:15.392Z</time></trkpt><trkpt lon="34.86771" lat="31.719927"><ele>153.9</ele><time>2018-04-04T11:52:16.392Z</time></trkpt><trkpt lon="34.867717" lat="31.71989"><ele>153.9</ele><time>2018-04-04T11:52:17.392Z</time></trkpt><trkpt lon="34.867722" lat="31.719853"><ele>153.9</ele><time>2018-04-04T11:52:18.392Z</time></trkpt><trkpt lon="34.867727" lat="31.71982"><ele>153.9</ele><time>2018-04-04T11:52:19.392Z</time></trkpt><trkpt lon="34.867735" lat="31.719787"><ele>153.9</ele><time>2018-04-04T11:52:20.392Z</time></trkpt><trkpt lon="34.867747" lat="31.719755"><ele>154.8</ele><time>2018-04-04T11:52:21.392Z</time></trkpt><trkpt lon="34.867758" lat="31.719727"><ele>154.8</ele><time>2018-04-04T11:52:22.392Z</time></trkpt><trkpt lon="34.867772" lat="31.719703"><ele>154.8</ele><time>2018-04-04T11:52:23.392Z</time></trkpt><trkpt lon="34.867787" lat="31.719682"><ele>154.8</ele><time>2018-04-04T11:52:24.392Z</time></trkpt><trkpt lon="34.867797" lat="31.719663"><ele>154.8</ele><time>2018-04-04T11:52:25.392Z</time></trkpt><trkpt lon="34.867802" lat="31.719643"><ele>154.8</ele><time>2018-04-04T11:52:26.392Z</time></trkpt><trkpt lon="34.867805" lat="31.71962"><ele>155.9</ele><time>2018-04-04T11:52:27.392Z</time></trkpt><trkpt lon="34.867812" lat="31.719595"><ele>155.9</ele><time>2018-04-04T11:52:28.392Z</time></trkpt><trkpt lon="34.867822" lat="31.719573"><ele>155.9</ele><time>2018-04-04T11:52:29.392Z</time></trkpt><trkpt lon="34.867828" lat="31.719552"><ele>155.9</ele><time>2018-04-04T11:52:30.392Z</time></trkpt><trkpt lon="34.86783" lat="31.719532"><ele>155.9</ele><time>2018-04-04T11:52:31.392Z</time></trkpt><trkpt lon="34.867833" lat="31.719508"><ele>155.9</ele><time>2018-04-04T11:52:32.392Z</time></trkpt><trkpt lon="34.867837" lat="31.719485"><ele>155.9</ele><time>2018-04-04T11:52:33.392Z</time></trkpt><trkpt lon="34.867842" lat="31.719465"><ele>155.9</ele><time>2018-04-04T11:52:34.392Z</time></trkpt><trkpt lon="34.867848" lat="31.719442"><ele>156.8</ele><time>2018-04-04T11:52:35.392Z</time></trkpt><trkpt lon="34.867852" lat="31.719418"><ele>156.8</ele><time>2018-04-04T11:52:36.392Z</time></trkpt><trkpt lon="34.867855" lat="31.719397"><ele>156.8</ele><time>2018-04-04T11:52:37.392Z</time></trkpt><trkpt lon="34.867862" lat="31.719377"><ele>156.8</ele><time>2018-04-04T11:52:38.392Z</time></trkpt><trkpt lon="34.867872" lat="31.719358"><ele>157.9</ele><time>2018-04-04T11:52:39.392Z</time></trkpt><trkpt lon="34.867883" lat="31.719342"><ele>157.9</ele><time>2018-04-04T11:52:40.392Z</time></trkpt><trkpt lon="34.867892" lat="31.719323"><ele>157.9</ele><time>2018-04-04T11:52:41.392Z</time></trkpt><trkpt lon="34.867895" lat="31.719303"><ele>157.9</ele><time>2018-04-04T11:52:42.392Z</time></trkpt><trkpt lon="34.867897" lat="31.719283"><ele>158.8</ele><time>2018-04-04T11:52:43.392Z</time></trkpt><trkpt lon="34.867898" lat="31.719262"><ele>158.8</ele><time>2018-04-04T11:52:44.392Z</time></trkpt><trkpt lon="34.867905" lat="31.719243"><ele>158.8</ele><time>2018-04-04T11:52:45.392Z</time></trkpt><trkpt lon="34.867912" lat="31.719223"><ele>158.8</ele><time>2018-04-04T11:52:46.392Z</time></trkpt><trkpt lon="34.867917" lat="31.719203"><ele>159.9</ele><time>2018-04-04T11:52:47.392Z</time></trkpt><trkpt lon="34.867922" lat="31.719185"><ele>159.9</ele><time>2018-04-04T11:52:48.392Z</time></trkpt><trkpt lon="34.867923" lat="31.719167"><ele>159.9</ele><time>2018-04-04T11:52:49.392Z</time></trkpt><trkpt lon="34.867925" lat="31.71915"><ele>159.9</ele><time>2018-04-04T11:52:50.392Z</time></trkpt><trkpt lon="34.867922" lat="31.71913"><ele>159.9</ele><time>2018-04-04T11:52:51.392Z</time></trkpt><trkpt lon="34.867913" lat="31.719108"><ele>159.9</ele><time>2018-04-04T11:52:52.392Z</time></trkpt><trkpt lon="34.867905" lat="31.719083"><ele>159.9</ele><time>2018-04-04T11:52:53.392Z</time></trkpt><trkpt lon="34.867898" lat="31.719058"><ele>159.9</ele><time>2018-04-04T11:52:54.392Z</time></trkpt><trkpt lon="34.867897" lat="31.719032"><ele>160.9</ele><time>2018-04-04T11:52:55.392Z</time></trkpt><trkpt lon="34.867897" lat="31.719007"><ele>160.9</ele><time>2018-04-04T11:52:56.392Z</time></trkpt><trkpt lon="34.8679" lat="31.718983"><ele>160.9</ele><time>2018-04-04T11:52:57.392Z</time></trkpt><trkpt lon="34.867902" lat="31.718963"><ele>160.9</ele><time>2018-04-04T11:52:58.392Z</time></trkpt><trkpt lon="34.867905" lat="31.718943"><ele>160.9</ele><time>2018-04-04T11:52:59.392Z</time></trkpt><trkpt lon="34.867905" lat="31.718922"><ele>160.9</ele><time>2018-04-04T11:53:00.392Z</time></trkpt><trkpt lon="34.867905" lat="31.718902"><ele>161.9</ele><time>2018-04-04T11:53:01.392Z</time></trkpt><trkpt lon="34.8679" lat="31.718878"><ele>161.9</ele><time>2018-04-04T11:53:02.392Z</time></trkpt><trkpt lon="34.867898" lat="31.718855"><ele>161.9</ele><time>2018-04-04T11:53:03.392Z</time></trkpt><trkpt lon="34.867897" lat="31.718832"><ele>161.9</ele><time>2018-04-04T11:53:04.392Z</time></trkpt><trkpt lon="34.867897" lat="31.718808"><ele>162.9</ele><time>2018-04-04T11:53:05.392Z</time></trkpt><trkpt lon="34.867897" lat="31.718783"><ele>162.9</ele><time>2018-04-04T11:53:06.392Z</time></trkpt><trkpt lon="34.867893" lat="31.718762"><ele>162.9</ele><time>2018-04-04T11:53:07.392Z</time></trkpt><trkpt lon="34.867883" lat="31.71874"><ele>162.9</ele><time>2018-04-04T11:53:08.392Z</time></trkpt><trkpt lon="34.867873" lat="31.718717"><ele>162.9</ele><time>2018-04-04T11:53:09.392Z</time></trkpt><trkpt lon="34.867863" lat="31.718692"><ele>162.9</ele><time>2018-04-04T11:53:10.392Z</time></trkpt><trkpt lon="34.867853" lat="31.718668"><ele>162.9</ele><time>2018-04-04T11:53:11.392Z</time></trkpt><trkpt lon="34.86784" lat="31.718647"><ele>162.9</ele><time>2018-04-04T11:53:12.392Z</time></trkpt><trkpt lon="34.867828" lat="31.718623"><ele>162.9</ele><time>2018-04-04T11:53:13.392Z</time></trkpt><trkpt lon="34.86782" lat="31.7186"><ele>162.9</ele><time>2018-04-04T11:53:14.392Z</time></trkpt><trkpt lon="34.867813" lat="31.718577"><ele>163.8</ele><time>2018-04-04T11:53:15.392Z</time></trkpt><trkpt lon="34.867807" lat="31.718555"><ele>163.8</ele><time>2018-04-04T11:53:16.392Z</time></trkpt><trkpt lon="34.867798" lat="31.718535"><ele>163.8</ele><time>2018-04-04T11:53:17.392Z</time></trkpt><trkpt lon="34.867792" lat="31.718513"><ele>163.8</ele><time>2018-04-04T11:53:18.392Z</time></trkpt><trkpt lon="34.867787" lat="31.718493"><ele>163.8</ele><time>2018-04-04T11:53:19.392Z</time></trkpt><trkpt lon="34.86778" lat="31.718472"><ele>163.8</ele><time>2018-04-04T11:53:20.392Z</time></trkpt><trkpt lon="34.867775" lat="31.718448"><ele>163.8</ele><time>2018-04-04T11:53:21.392Z</time></trkpt><trkpt lon="34.867768" lat="31.718425"><ele>163.8</ele><time>2018-04-04T11:53:22.392Z</time></trkpt><trkpt lon="34.86776" lat="31.718403"><ele>163.8</ele><time>2018-04-04T11:53:23.392Z</time></trkpt><trkpt lon="34.867753" lat="31.718378"><ele>163.8</ele><time>2018-04-04T11:53:24.392Z</time></trkpt><trkpt lon="34.867748" lat="31.718353"><ele>163.8</ele><time>2018-04-04T11:53:25.392Z</time></trkpt><trkpt lon="34.867745" lat="31.71833"><ele>163.8</ele><time>2018-04-04T11:53:26.392Z</time></trkpt><trkpt lon="34.867745" lat="31.71831"><ele>164.9</ele><time>2018-04-04T11:53:27.392Z</time></trkpt><trkpt lon="34.867743" lat="31.71829"><ele>164.9</ele><time>2018-04-04T11:53:28.392Z</time></trkpt><trkpt lon="34.867742" lat="31.718272"><ele>164.9</ele><time>2018-04-04T11:53:29.392Z</time></trkpt><trkpt lon="34.867737" lat="31.718255"><ele>164.9</ele><time>2018-04-04T11:53:30.392Z</time></trkpt><trkpt lon="34.867735" lat="31.718235"><ele>165.8</ele><time>2018-04-04T11:53:31.392Z</time></trkpt><trkpt lon="34.867733" lat="31.718217"><ele>165.8</ele><time>2018-04-04T11:53:32.392Z</time></trkpt><trkpt lon="34.867732" lat="31.718203"><ele>165.8</ele><time>2018-04-04T11:53:33.392Z</time></trkpt><trkpt lon="34.867728" lat="31.718187"><ele>165.8</ele><time>2018-04-04T11:53:34.392Z</time></trkpt><trkpt lon="34.86772" lat="31.718168"><ele>165.8</ele><time>2018-04-04T11:53:35.392Z</time></trkpt><trkpt lon="34.867715" lat="31.718152"><ele>165.8</ele><time>2018-04-04T11:53:36.392Z</time></trkpt><trkpt lon="34.867705" lat="31.718133"><ele>166.9</ele><time>2018-04-04T11:53:37.392Z</time></trkpt><trkpt lon="34.867698" lat="31.718117"><ele>166.9</ele><time>2018-04-04T11:53:38.392Z</time></trkpt><trkpt lon="34.867695" lat="31.718098"><ele>166.9</ele><time>2018-04-04T11:53:39.392Z</time></trkpt><trkpt lon="34.867692" lat="31.71808"><ele>166.9</ele><time>2018-04-04T11:53:40.392Z</time></trkpt><trkpt lon="34.86769" lat="31.718062"><ele>166.9</ele><time>2018-04-04T11:53:41.392Z</time></trkpt><trkpt lon="34.86769" lat="31.718047"><ele>166.9</ele><time>2018-04-04T11:53:42.392Z</time></trkpt><trkpt lon="34.86769" lat="31.718032"><ele>167.9</ele><time>2018-04-04T11:53:43.392Z</time></trkpt><trkpt lon="34.867693" lat="31.718017"><ele>167.9</ele><time>2018-04-04T11:53:44.392Z</time></trkpt><trkpt lon="34.867693" lat="31.718"><ele>167.9</ele><time>2018-04-04T11:53:45.392Z</time></trkpt><trkpt lon="34.86769" lat="31.717983"><ele>167.9</ele><time>2018-04-04T11:53:46.392Z</time></trkpt><trkpt lon="34.867683" lat="31.717972"><ele>167.9</ele><time>2018-04-04T11:53:47.392Z</time></trkpt><trkpt lon="34.867682" lat="31.717955"><ele>167.9</ele><time>2018-04-04T11:53:48.392Z</time></trkpt><trkpt lon="34.867682" lat="31.717937"><ele>167.9</ele><time>2018-04-04T11:53:49.392Z</time></trkpt><trkpt lon="34.867682" lat="31.717923"><ele>167.9</ele><time>2018-04-04T11:53:50.392Z</time></trkpt><trkpt lon="34.867678" lat="31.717907"><ele>167.9</ele><time>2018-04-04T11:53:51.392Z</time></trkpt><trkpt lon="34.86768" lat="31.71789"><ele>167.9</ele><time>2018-04-04T11:53:52.392Z</time></trkpt><trkpt lon="34.867683" lat="31.717877"><ele>168.9</ele><time>2018-04-04T11:53:53.392Z</time></trkpt><trkpt lon="34.86769" lat="31.717865"><ele>168.9</ele><time>2018-04-04T11:53:54.392Z</time></trkpt><trkpt lon="34.867698" lat="31.717855"><ele>168.9</ele><time>2018-04-04T11:53:55.392Z</time></trkpt><trkpt lon="34.867707" lat="31.717848"><ele>168.9</ele><time>2018-04-04T11:53:56.392Z</time></trkpt><trkpt lon="34.867715" lat="31.71785"><ele>168.9</ele><time>2018-04-04T11:53:57.392Z</time></trkpt><trkpt lon="34.867727" lat="31.717852"><ele>168.9</ele><time>2018-04-04T11:53:58.392Z</time></trkpt><trkpt lon="34.867743" lat="31.717855"><ele>168.9</ele><time>2018-04-04T11:53:59.392Z</time></trkpt><trkpt lon="34.867758" lat="31.71786"><ele>168.9</ele><time>2018-04-04T11:54:00.392Z</time></trkpt><trkpt lon="34.867777" lat="31.717865"><ele>168.9</ele><time>2018-04-04T11:54:01.392Z</time></trkpt><trkpt lon="34.86779" lat="31.717865"><ele>168.9</ele><time>2018-04-04T11:54:02.392Z</time></trkpt><trkpt lon="34.867798" lat="31.717865"><ele>169.9</ele><time>2018-04-04T11:54:03.392Z</time></trkpt><trkpt lon="34.867802" lat="31.717865"><ele>169.9</ele><time>2018-04-04T11:54:04.392Z</time></trkpt><trkpt lon="34.867803" lat="31.717863"><ele>169.9</ele><time>2018-04-04T11:54:05.392Z</time></trkpt><trkpt lon="34.867803" lat="31.717865"><ele>169.9</ele><time>2018-04-04T11:54:06.392Z</time></trkpt><trkpt lon="34.867802" lat="31.717863"><ele>169.9</ele><time>2018-04-04T11:54:07.392Z</time></trkpt><trkpt lon="34.867802" lat="31.717863"><ele>169.9</ele><time>2018-04-04T11:54:08.392Z</time></trkpt><trkpt lon="34.867802" lat="31.717865"><ele>169.9</ele><time>2018-04-04T11:54:09.392Z</time></trkpt><trkpt lon="34.8678" lat="31.717865"><ele>169.9</ele><time>2018-04-04T11:54:10.392Z</time></trkpt><trkpt lon="34.8678" lat="31.717867"><ele>169.9</ele><time>2018-04-04T11:54:11.392Z</time></trkpt><trkpt lon="34.8678" lat="31.717867"><ele>169.9</ele><time>2018-04-04T11:54:12.392Z</time></trkpt><trkpt lon="34.8678" lat="31.717868"><ele>169.9</ele><time>2018-04-04T11:54:13.392Z</time></trkpt><trkpt lon="34.867798" lat="31.717868"><ele>169.9</ele><time>2018-04-04T11:54:14.392Z</time></trkpt><trkpt lon="34.867798" lat="31.717868"><ele>169.9</ele><time>2018-04-04T11:54:15.392Z</time></trkpt><trkpt lon="34.867798" lat="31.71787"><ele>169.9</ele><time>2018-04-04T11:54:16.392Z</time></trkpt><trkpt lon="34.867797" lat="31.71787"><ele>169.9</ele><time>2018-04-04T11:54:17.392Z</time></trkpt><trkpt lon="34.867797" lat="31.71787"><ele>169.9</ele><time>2018-04-04T11:54:18.392Z</time></trkpt><trkpt lon="34.867797" lat="31.71787"><ele>169.9</ele><time>2018-04-04T11:54:19.392Z</time></trkpt><trkpt lon="34.867797" lat="31.717875"><ele>169.9</ele><time>2018-04-04T11:54:20.392Z</time></trkpt><trkpt lon="34.867797" lat="31.717877"><ele>169.9</ele><time>2018-04-04T11:54:21.392Z</time></trkpt><trkpt lon="34.867797" lat="31.71788"><ele>169.9</ele><time>2018-04-04T11:54:22.392Z</time></trkpt><trkpt lon="34.867795" lat="31.71788"><ele>169.9</ele><time>2018-04-04T11:54:23.392Z</time></trkpt><trkpt lon="34.867793" lat="31.71788"><ele>169.9</ele><time>2018-04-04T11:54:24.392Z</time></trkpt><trkpt lon="34.867792" lat="31.71788"><ele>169.9</ele><time>2018-04-04T11:54:25.392Z</time></trkpt><trkpt lon="34.867792" lat="31.71788"><ele>169.9</ele><time>2018-04-04T11:54:26.392Z</time></trkpt><trkpt lon="34.86779" lat="31.717878"><ele>169.9</ele><time>2018-04-04T11:54:27.392Z</time></trkpt><trkpt lon="34.86779" lat="31.717878"><ele>169.9</ele><time>2018-04-04T11:54:28.392Z</time></trkpt><trkpt lon="34.867788" lat="31.717878"><ele>169.9</ele><time>2018-04-04T11:54:29.392Z</time></trkpt><trkpt lon="34.867788" lat="31.717878"><ele>169.9</ele><time>2018-04-04T11:54:30.392Z</time></trkpt><trkpt lon="34.867787" lat="31.717878"><ele>169.9</ele><time>2018-04-04T11:54:31.392Z</time></trkpt><trkpt lon="34.867787" lat="31.717877"><ele>169.9</ele><time>2018-04-04T11:54:32.392Z</time></trkpt><trkpt lon="34.867785" lat="31.717877"><ele>169.9</ele><time>2018-04-04T11:54:33.392Z</time></trkpt><trkpt lon="34.867785" lat="31.717877"><ele>169.9</ele><time>2018-04-04T11:54:34.392Z</time></trkpt><trkpt lon="34.867785" lat="31.717877"><ele>169.9</ele><time>2018-04-04T11:54:35.392Z</time></trkpt><trkpt lon="34.867783" lat="31.717877"><ele>169.9</ele><time>2018-04-04T11:54:36.392Z</time></trkpt><trkpt lon="34.867783" lat="31.717877"><ele>169.9</ele><time>2018-04-04T11:54:37.392Z</time></trkpt><trkpt lon="34.867782" lat="31.717877"><ele>169.9</ele><time>2018-04-04T11:54:38.392Z</time></trkpt><trkpt lon="34.867782" lat="31.717877"><ele>169.9</ele><time>2018-04-04T11:54:39.392Z</time></trkpt><trkpt lon="34.867782" lat="31.717877"><ele>169.9</ele><time>2018-04-04T11:54:40.392Z</time></trkpt><trkpt lon="34.86778" lat="31.717875"><ele>169.9</ele><time>2018-04-04T11:54:41.392Z</time></trkpt><trkpt lon="34.86778" lat="31.717877"><ele>169.9</ele><time>2018-04-04T11:54:42.392Z</time></trkpt><trkpt lon="34.86778" lat="31.717875"><ele>169.9</ele><time>2018-04-04T11:54:43.392Z</time></trkpt><trkpt lon="34.867778" lat="31.717873"><ele>169.9</ele><time>2018-04-04T11:54:44.392Z</time></trkpt><trkpt lon="34.86778" lat="31.717872"><ele>169.9</ele><time>2018-04-04T11:54:45.392Z</time></trkpt><trkpt lon="34.867785" lat="31.717868"><ele>169.9</ele><time>2018-04-04T11:54:46.392Z</time></trkpt><trkpt lon="34.86779" lat="31.717867"><ele>169.9</ele><time>2018-04-04T11:54:47.392Z</time></trkpt><trkpt lon="34.867795" lat="31.717868"><ele>169.9</ele><time>2018-04-04T11:54:48.392Z</time></trkpt><trkpt lon="34.8678" lat="31.717868"><ele>169.9</ele><time>2018-04-04T11:54:49.392Z</time></trkpt><trkpt lon="34.867807" lat="31.717867"><ele>169.9</ele><time>2018-04-04T11:54:50.392Z</time></trkpt><trkpt lon="34.867813" lat="31.717863"><ele>170.8</ele><time>2018-04-04T11:54:51.392Z</time></trkpt><trkpt lon="34.867822" lat="31.717863"><ele>170.8</ele><time>2018-04-04T11:54:52.392Z</time></trkpt><trkpt lon="34.867832" lat="31.717867"><ele>170.8</ele><time>2018-04-04T11:54:53.392Z</time></trkpt><trkpt lon="34.867837" lat="31.71787"><ele>170.8</ele><time>2018-04-04T11:54:54.392Z</time></trkpt><trkpt lon="34.867842" lat="31.717875"><ele>170.8</ele><time>2018-04-04T11:54:55.392Z</time></trkpt><trkpt lon="34.867847" lat="31.71788"><ele>170.8</ele><time>2018-04-04T11:54:56.392Z</time></trkpt><trkpt lon="34.86785" lat="31.717885"><ele>170.8</ele><time>2018-04-04T11:54:57.392Z</time></trkpt><trkpt lon="34.867853" lat="31.717888"><ele>170.8</ele><time>2018-04-04T11:54:58.392Z</time></trkpt><trkpt lon="34.867853" lat="31.717887"><ele>170.8</ele><time>2018-04-04T11:54:59.392Z</time></trkpt><trkpt lon="34.867853" lat="31.717888"><ele>170.8</ele><time>2018-04-04T11:55:00.392Z</time></trkpt><trkpt lon="34.867857" lat="31.717892"><ele>171.9</ele><time>2018-04-04T11:55:01.392Z</time></trkpt><trkpt lon="34.867862" lat="31.717897"><ele>171.9</ele><time>2018-04-04T11:55:02.392Z</time></trkpt><trkpt lon="34.867873" lat="31.717903"><ele>171.9</ele><time>2018-04-04T11:55:03.392Z</time></trkpt><trkpt lon="34.867882" lat="31.71791"><ele>171.9</ele><time>2018-04-04T11:55:04.392Z</time></trkpt><trkpt lon="34.867895" lat="31.717912"><ele>171.9</ele><time>2018-04-04T11:55:05.392Z</time></trkpt><trkpt lon="34.867912" lat="31.717908"><ele>171.9</ele><time>2018-04-04T11:55:06.392Z</time></trkpt><trkpt lon="34.86793" lat="31.717902"><ele>172.8</ele><time>2018-04-04T11:55:07.392Z</time></trkpt><trkpt lon="34.867948" lat="31.717893"><ele>172.8</ele><time>2018-04-04T11:55:08.392Z</time></trkpt><trkpt lon="34.867965" lat="31.717882"><ele>172.8</ele><time>2018-04-04T11:55:09.392Z</time></trkpt><trkpt lon="34.867977" lat="31.71787"><ele>172.8</ele><time>2018-04-04T11:55:10.392Z</time></trkpt><trkpt lon="34.867983" lat="31.717857"><ele>172.8</ele><time>2018-04-04T11:55:11.392Z</time></trkpt><trkpt lon="34.867987" lat="31.717838"><ele>172.8</ele><time>2018-04-04T11:55:12.392Z</time></trkpt><trkpt lon="34.867992" lat="31.717822"><ele>172.8</ele><time>2018-04-04T11:55:13.392Z</time></trkpt><trkpt lon="34.867998" lat="31.717808"><ele>172.8</ele><time>2018-04-04T11:55:14.392Z</time></trkpt><trkpt lon="34.868008" lat="31.717795"><ele>173.9</ele><time>2018-04-04T11:55:15.392Z</time></trkpt><trkpt lon="34.868022" lat="31.717783"><ele>173.9</ele><time>2018-04-04T11:55:16.392Z</time></trkpt><trkpt lon="34.868038" lat="31.717775"><ele>173.9</ele><time>2018-04-04T11:55:17.392Z</time></trkpt><trkpt lon="34.868053" lat="31.717762"><ele>173.9</ele><time>2018-04-04T11:55:18.392Z</time></trkpt><trkpt lon="34.868063" lat="31.717745"><ele>173.9</ele><time>2018-04-04T11:55:19.392Z</time></trkpt><trkpt lon="34.868068" lat="31.717728"><ele>173.9</ele><time>2018-04-04T11:55:20.392Z</time></trkpt><trkpt lon="34.868073" lat="31.717712"><ele>173.9</ele><time>2018-04-04T11:55:21.392Z</time></trkpt><trkpt lon="34.868077" lat="31.717693"><ele>173.9</ele><time>2018-04-04T11:55:22.392Z</time></trkpt><trkpt lon="34.868072" lat="31.717675"><ele>173.9</ele><time>2018-04-04T11:55:23.392Z</time></trkpt><trkpt lon="34.868063" lat="31.717658"><ele>173.9</ele><time>2018-04-04T11:55:24.392Z</time></trkpt><trkpt lon="34.868052" lat="31.717638"><ele>173.9</ele><time>2018-04-04T11:55:25.392Z</time></trkpt><trkpt lon="34.868042" lat="31.717617"><ele>173.9</ele><time>2018-04-04T11:55:26.392Z</time></trkpt><trkpt lon="34.868033" lat="31.717593"><ele>173.9</ele><time>2018-04-04T11:55:27.392Z</time></trkpt><trkpt lon="34.868027" lat="31.71757"><ele>173.9</ele><time>2018-04-04T11:55:28.392Z</time></trkpt><trkpt lon="34.868022" lat="31.717545"><ele>173.9</ele><time>2018-04-04T11:55:29.392Z</time></trkpt><trkpt lon="34.86801" lat="31.717522"><ele>173.9</ele><time>2018-04-04T11:55:30.392Z</time></trkpt><trkpt lon="34.867988" lat="31.7175"><ele>172.8</ele><time>2018-04-04T11:55:31.392Z</time></trkpt><trkpt lon="34.867962" lat="31.717475"><ele>172.8</ele><time>2018-04-04T11:55:32.392Z</time></trkpt><trkpt lon="34.867935" lat="31.717447"><ele>172.8</ele><time>2018-04-04T11:55:33.392Z</time></trkpt><trkpt lon="34.86791" lat="31.717412"><ele>172.8</ele><time>2018-04-04T11:55:34.392Z</time></trkpt><trkpt lon="34.867893" lat="31.717372"><ele>171.9</ele><time>2018-04-04T11:55:35.392Z</time></trkpt><trkpt lon="34.867885" lat="31.717332"><ele>171.9</ele><time>2018-04-04T11:55:36.392Z</time></trkpt><trkpt lon="34.867892" lat="31.71729"><ele>171.9</ele><time>2018-04-04T11:55:37.392Z</time></trkpt><trkpt lon="34.867903" lat="31.71725"><ele>171.9</ele><time>2018-04-04T11:55:38.392Z</time></trkpt><trkpt lon="34.867915" lat="31.717215"><ele>171.9</ele><time>2018-04-04T11:55:39.392Z</time></trkpt><trkpt lon="34.867922" lat="31.717182"><ele>171.9</ele><time>2018-04-04T11:55:40.392Z</time></trkpt><trkpt lon="34.867922" lat="31.717148"><ele>171.9</ele><time>2018-04-04T11:55:41.392Z</time></trkpt><trkpt lon="34.867918" lat="31.717117"><ele>171.9</ele><time>2018-04-04T11:55:42.392Z</time></trkpt><trkpt lon="34.867915" lat="31.717085"><ele>171.9</ele><time>2018-04-04T11:55:43.392Z</time></trkpt><trkpt lon="34.867912" lat="31.717052"><ele>171.9</ele><time>2018-04-04T11:55:44.392Z</time></trkpt><trkpt lon="34.867913" lat="31.717015"><ele>170.8</ele><time>2018-04-04T11:55:45.392Z</time></trkpt><trkpt lon="34.867913" lat="31.716973"><ele>170.8</ele><time>2018-04-04T11:55:46.392Z</time></trkpt><trkpt lon="34.86792" lat="31.71693"><ele>170.8</ele><time>2018-04-04T11:55:47.392Z</time></trkpt><trkpt lon="34.867935" lat="31.716893"><ele>170.8</ele><time>2018-04-04T11:55:48.392Z</time></trkpt><trkpt lon="34.86796" lat="31.716863"><ele>170.8</ele><time>2018-04-04T11:55:49.392Z</time></trkpt><trkpt lon="34.867992" lat="31.716842"><ele>170.8</ele><time>2018-04-04T11:55:50.392Z</time></trkpt><trkpt lon="34.868022" lat="31.716825"><ele>170.8</ele><time>2018-04-04T11:55:51.392Z</time></trkpt><trkpt lon="34.868052" lat="31.716807"><ele>170.8</ele><time>2018-04-04T11:55:52.392Z</time></trkpt><trkpt lon="34.868078" lat="31.716788"><ele>170.8</ele><time>2018-04-04T11:55:53.392Z</time></trkpt><trkpt lon="34.868103" lat="31.716767"><ele>170.8</ele><time>2018-04-04T11:55:54.392Z</time></trkpt><trkpt lon="34.868125" lat="31.716745"><ele>170.8</ele><time>2018-04-04T11:55:55.392Z</time></trkpt><trkpt lon="34.86814" lat="31.716723"><ele>170.8</ele><time>2018-04-04T11:55:56.392Z</time></trkpt><trkpt lon="34.868147" lat="31.716707"><ele>170.8</ele><time>2018-04-04T11:55:57.392Z</time></trkpt><trkpt lon="34.868137" lat="31.716695"><ele>170.8</ele><time>2018-04-04T11:55:58.392Z</time></trkpt><trkpt lon="34.868118" lat="31.716688"><ele>169.9</ele><time>2018-04-04T11:55:59.392Z</time></trkpt><trkpt lon="34.86809" lat="31.716683"><ele>169.9</ele><time>2018-04-04T11:56:00.392Z</time></trkpt><trkpt lon="34.86806" lat="31.716677"><ele>169.9</ele><time>2018-04-04T11:56:01.392Z</time></trkpt><trkpt lon="34.86803" lat="31.716665"><ele>169.9</ele><time>2018-04-04T11:56:02.392Z</time></trkpt><trkpt lon="34.868" lat="31.71665"><ele>168.9</ele><time>2018-04-04T11:56:03.392Z</time></trkpt><trkpt lon="34.867977" lat="31.71663"><ele>168.9</ele><time>2018-04-04T11:56:04.392Z</time></trkpt><trkpt lon="34.867962" lat="31.716603"><ele>168.9</ele><time>2018-04-04T11:56:05.392Z</time></trkpt><trkpt lon="34.867962" lat="31.716577"><ele>168.9</ele><time>2018-04-04T11:56:06.392Z</time></trkpt><trkpt lon="34.867975" lat="31.716548"><ele>168.9</ele><time>2018-04-04T11:56:07.392Z</time></trkpt><trkpt lon="34.86799" lat="31.716513"><ele>168.9</ele><time>2018-04-04T11:56:08.392Z</time></trkpt><trkpt lon="34.868003" lat="31.716477"><ele>168.9</ele><time>2018-04-04T11:56:09.392Z</time></trkpt><trkpt lon="34.868013" lat="31.71644"><ele>168.9</ele><time>2018-04-04T11:56:10.392Z</time></trkpt><trkpt lon="34.86801" lat="31.716403"><ele>168.9</ele><time>2018-04-04T11:56:11.392Z</time></trkpt><trkpt lon="34.868003" lat="31.716362"><ele>168.9</ele><time>2018-04-04T11:56:12.392Z</time></trkpt><trkpt lon="34.868005" lat="31.71632"><ele>168.9</ele><time>2018-04-04T11:56:13.392Z</time></trkpt><trkpt lon="34.868017" lat="31.716282"><ele>168.9</ele><time>2018-04-04T11:56:14.392Z</time></trkpt><trkpt lon="34.86804" lat="31.716255"><ele>168.9</ele><time>2018-04-04T11:56:15.392Z</time></trkpt><trkpt lon="34.868078" lat="31.71624"><ele>168.9</ele><time>2018-04-04T11:56:16.392Z</time></trkpt><trkpt lon="34.868107" lat="31.71622"><ele>168.9</ele><time>2018-04-04T11:56:17.392Z</time></trkpt><trkpt lon="34.86811" lat="31.716193"><ele>168.9</ele><time>2018-04-04T11:56:18.392Z</time></trkpt><trkpt lon="34.86811" lat="31.716163"><ele>167.9</ele><time>2018-04-04T11:56:19.392Z</time></trkpt><trkpt lon="34.868107" lat="31.716133"><ele>167.9</ele><time>2018-04-04T11:56:20.392Z</time></trkpt><trkpt lon="34.868093" lat="31.7161"><ele>166.9</ele><time>2018-04-04T11:56:21.392Z</time></trkpt><trkpt lon="34.868068" lat="31.71608"><ele>166.9</ele><time>2018-04-04T11:56:22.392Z</time></trkpt><trkpt lon="34.868043" lat="31.71607"><ele>166.9</ele><time>2018-04-04T11:56:23.392Z</time></trkpt><trkpt lon="34.868018" lat="31.716072"><ele>166.9</ele><time>2018-04-04T11:56:24.392Z</time></trkpt><trkpt lon="34.867988" lat="31.716067"><ele>166.9</ele><time>2018-04-04T11:56:25.392Z</time></trkpt><trkpt lon="34.867962" lat="31.716048"><ele>166.9</ele><time>2018-04-04T11:56:26.392Z</time></trkpt><trkpt lon="34.867955" lat="31.71602"><ele>166.9</ele><time>2018-04-04T11:56:27.392Z</time></trkpt><trkpt lon="34.867965" lat="31.71599"><ele>166.9</ele><time>2018-04-04T11:56:28.392Z</time></trkpt><trkpt lon="34.867985" lat="31.715967"><ele>166.9</ele><time>2018-04-04T11:56:29.392Z</time></trkpt><trkpt lon="34.86801" lat="31.715943"><ele>166.9</ele><time>2018-04-04T11:56:30.392Z</time></trkpt><trkpt lon="34.86803" lat="31.715923"><ele>166.9</ele><time>2018-04-04T11:56:31.392Z</time></trkpt><trkpt lon="34.868043" lat="31.715905"><ele>166.9</ele><time>2018-04-04T11:56:32.392Z</time></trkpt><trkpt lon="34.86804" lat="31.715892"><ele>166.9</ele><time>2018-04-04T11:56:33.392Z</time></trkpt><trkpt lon="34.868018" lat="31.715885"><ele>166.9</ele><time>2018-04-04T11:56:34.392Z</time></trkpt><trkpt lon="34.867992" lat="31.715887"><ele>165.8</ele><time>2018-04-04T11:56:35.392Z</time></trkpt><trkpt lon="34.86796" lat="31.715895"><ele>165.8</ele><time>2018-04-04T11:56:36.392Z</time></trkpt><trkpt lon="34.867925" lat="31.715915"><ele>165.8</ele><time>2018-04-04T11:56:37.392Z</time></trkpt><trkpt lon="34.86789" lat="31.715935"><ele>165.8</ele><time>2018-04-04T11:56:38.392Z</time></trkpt><trkpt lon="34.867852" lat="31.715953"><ele>165.8</ele><time>2018-04-04T11:56:39.392Z</time></trkpt><trkpt lon="34.86781" lat="31.715968"><ele>165.8</ele><time>2018-04-04T11:56:40.392Z</time></trkpt><trkpt lon="34.867773" lat="31.71597"><ele>164.9</ele><time>2018-04-04T11:56:41.392Z</time></trkpt><trkpt lon="34.867748" lat="31.715957"><ele>164.9</ele><time>2018-04-04T11:56:42.392Z</time></trkpt><trkpt lon="34.867732" lat="31.715937"><ele>164.9</ele><time>2018-04-04T11:56:43.392Z</time></trkpt><trkpt lon="34.867748" lat="31.715905"><ele>164.9</ele><time>2018-04-04T11:56:44.392Z</time></trkpt><trkpt lon="34.867778" lat="31.715883"><ele>164.9</ele><time>2018-04-04T11:56:45.392Z</time></trkpt><trkpt lon="34.86781" lat="31.71586"><ele>164.9</ele><time>2018-04-04T11:56:46.392Z</time></trkpt><trkpt lon="34.86784" lat="31.715833"><ele>164.9</ele><time>2018-04-04T11:56:47.392Z</time></trkpt><trkpt lon="34.867867" lat="31.7158"><ele>164.9</ele><time>2018-04-04T11:56:48.392Z</time></trkpt><trkpt lon="34.867887" lat="31.71576"><ele>163.8</ele><time>2018-04-04T11:56:49.392Z</time></trkpt><trkpt lon="34.867898" lat="31.715718"><ele>163.8</ele><time>2018-04-04T11:56:50.392Z</time></trkpt><trkpt lon="34.867913" lat="31.715673"><ele>163.8</ele><time>2018-04-04T11:56:51.392Z</time></trkpt><trkpt lon="34.867933" lat="31.715632"><ele>163.8</ele><time>2018-04-04T11:56:52.392Z</time></trkpt><trkpt lon="34.867953" lat="31.71559"><ele>162.9</ele><time>2018-04-04T11:56:53.392Z</time></trkpt><trkpt lon="34.867963" lat="31.715555"><ele>162.9</ele><time>2018-04-04T11:56:54.392Z</time></trkpt><trkpt lon="34.86796" lat="31.71552"><ele>161.9</ele><time>2018-04-04T11:56:55.392Z</time></trkpt><trkpt lon="34.867945" lat="31.715488"><ele>161.9</ele><time>2018-04-04T11:56:56.392Z</time></trkpt><trkpt lon="34.867915" lat="31.715467"><ele>161.9</ele><time>2018-04-04T11:56:57.392Z</time></trkpt><trkpt lon="34.867868" lat="31.715457"><ele>161.9</ele><time>2018-04-04T11:56:58.392Z</time></trkpt><trkpt lon="34.867813" lat="31.715455"><ele>161.9</ele><time>2018-04-04T11:56:59.392Z</time></trkpt><trkpt lon="34.86776" lat="31.715452"><ele>161.9</ele><time>2018-04-04T11:57:00.392Z</time></trkpt><trkpt lon="34.86771" lat="31.715448"><ele>160.9</ele><time>2018-04-04T11:57:01.392Z</time></trkpt><trkpt lon="34.867662" lat="31.715442"><ele>160.9</ele><time>2018-04-04T11:57:02.392Z</time></trkpt><trkpt lon="34.867615" lat="31.715433"><ele>160.9</ele><time>2018-04-04T11:57:03.392Z</time></trkpt><trkpt lon="34.867578" lat="31.715418"><ele>160.9</ele><time>2018-04-04T11:57:04.392Z</time></trkpt><trkpt lon="34.867557" lat="31.715397"><ele>159.9</ele><time>2018-04-04T11:57:05.392Z</time></trkpt><trkpt lon="34.867548" lat="31.715372"><ele>159.9</ele><time>2018-04-04T11:57:06.392Z</time></trkpt><trkpt lon="34.86756" lat="31.715347"><ele>159.9</ele><time>2018-04-04T11:57:07.392Z</time></trkpt><trkpt lon="34.867578" lat="31.715323"><ele>159.9</ele><time>2018-04-04T11:57:08.392Z</time></trkpt><trkpt lon="34.867598" lat="31.715312"><ele>159.9</ele><time>2018-04-04T11:57:09.392Z</time></trkpt><trkpt lon="34.86762" lat="31.715308"><ele>159.9</ele><time>2018-04-04T11:57:10.392Z</time></trkpt><trkpt lon="34.867648" lat="31.715305"><ele>159.9</ele><time>2018-04-04T11:57:11.392Z</time></trkpt><trkpt lon="34.867682" lat="31.715303"><ele>159.9</ele><time>2018-04-04T11:57:12.392Z</time></trkpt><trkpt lon="34.86772" lat="31.715302"><ele>159.9</ele><time>2018-04-04T11:57:13.392Z</time></trkpt><trkpt lon="34.867757" lat="31.715297"><ele>159.9</ele><time>2018-04-04T11:57:14.392Z</time></trkpt><trkpt lon="34.867788" lat="31.715288"><ele>158.8</ele><time>2018-04-04T11:57:15.392Z</time></trkpt><trkpt lon="34.86782" lat="31.715268"><ele>158.8</ele><time>2018-04-04T11:57:16.392Z</time></trkpt><trkpt lon="34.867845" lat="31.715243"><ele>158.8</ele><time>2018-04-04T11:57:17.392Z</time></trkpt><trkpt lon="34.867862" lat="31.715218"><ele>158.8</ele><time>2018-04-04T11:57:18.392Z</time></trkpt><trkpt lon="34.86786" lat="31.715197"><ele>157.9</ele><time>2018-04-04T11:57:19.392Z</time></trkpt><trkpt lon="34.867845" lat="31.715175"><ele>157.9</ele><time>2018-04-04T11:57:20.392Z</time></trkpt><trkpt lon="34.86782" lat="31.715165"><ele>157.9</ele><time>2018-04-04T11:57:21.392Z</time></trkpt><trkpt lon="34.867787" lat="31.71516"><ele>157.9</ele><time>2018-04-04T11:57:22.392Z</time></trkpt><trkpt lon="34.867748" lat="31.71516"><ele>157.9</ele><time>2018-04-04T11:57:23.392Z</time></trkpt><trkpt lon="34.867707" lat="31.715165"><ele>157.9</ele><time>2018-04-04T11:57:24.392Z</time></trkpt><trkpt lon="34.867667" lat="31.715173"><ele>157.9</ele><time>2018-04-04T11:57:25.392Z</time></trkpt><trkpt lon="34.867633" lat="31.715185"><ele>157.9</ele><time>2018-04-04T11:57:26.392Z</time></trkpt><trkpt lon="34.867595" lat="31.715192"><ele>157.9</ele><time>2018-04-04T11:57:27.392Z</time></trkpt><trkpt lon="34.86756" lat="31.7152"><ele>157.9</ele><time>2018-04-04T11:57:28.392Z</time></trkpt><trkpt lon="34.867527" lat="31.715207"><ele>158.8</ele><time>2018-04-04T11:57:29.392Z</time></trkpt><trkpt lon="34.86749" lat="31.715213"><ele>158.8</ele><time>2018-04-04T11:57:30.392Z</time></trkpt><trkpt lon="34.867457" lat="31.715222"><ele>158.8</ele><time>2018-04-04T11:57:31.392Z</time></trkpt><trkpt lon="34.867425" lat="31.715233"><ele>158.8</ele><time>2018-04-04T11:57:32.392Z</time></trkpt><trkpt lon="34.867392" lat="31.715245"><ele>158.8</ele><time>2018-04-04T11:57:33.392Z</time></trkpt><trkpt lon="34.86736" lat="31.71525"><ele>158.8</ele><time>2018-04-04T11:57:34.392Z</time></trkpt><trkpt lon="34.867333" lat="31.71525"><ele>158.8</ele><time>2018-04-04T11:57:35.392Z</time></trkpt><trkpt lon="34.867312" lat="31.715242"><ele>158.8</ele><time>2018-04-04T11:57:36.392Z</time></trkpt><trkpt lon="34.867293" lat="31.715225"><ele>158.8</ele><time>2018-04-04T11:57:37.392Z</time></trkpt><trkpt lon="34.867287" lat="31.715205"><ele>158.8</ele><time>2018-04-04T11:57:38.392Z</time></trkpt><trkpt lon="34.867293" lat="31.715182"><ele>157.9</ele><time>2018-04-04T11:57:39.392Z</time></trkpt><trkpt lon="34.867313" lat="31.715147"><ele>157.9</ele><time>2018-04-04T11:57:40.392Z</time></trkpt><trkpt lon="34.867347" lat="31.715115"><ele>156.8</ele><time>2018-04-04T11:57:41.392Z</time></trkpt><trkpt lon="34.867385" lat="31.71509"><ele>156.8</ele><time>2018-04-04T11:57:42.392Z</time></trkpt><trkpt lon="34.867432" lat="31.715067"><ele>155.9</ele><time>2018-04-04T11:57:43.392Z</time></trkpt><trkpt lon="34.86748" lat="31.715047"><ele>155.9</ele><time>2018-04-04T11:57:44.392Z</time></trkpt><trkpt lon="34.86753" lat="31.71503"><ele>155.9</ele><time>2018-04-04T11:57:45.392Z</time></trkpt><trkpt lon="34.867588" lat="31.715022"><ele>155.9</ele><time>2018-04-04T11:57:46.392Z</time></trkpt><trkpt lon="34.867643" lat="31.715013"><ele>154.8</ele><time>2018-04-04T11:57:47.392Z</time></trkpt><trkpt lon="34.867695" lat="31.714997"><ele>154.8</ele><time>2018-04-04T11:57:48.392Z</time></trkpt><trkpt lon="34.867722" lat="31.71498"><ele>154.8</ele><time>2018-04-04T11:57:49.392Z</time></trkpt><trkpt lon="34.8677" lat="31.714969"><ele>154.8</ele><time>2018-04-04T11:57:50.392Z</time></trkpt><trkpt lon="34.867668" lat="31.714971"><ele>154.8</ele><time>2018-04-04T11:57:51.392Z</time></trkpt><trkpt lon="34.867635" lat="31.714972"><ele>154.8</ele><time>2018-04-04T11:57:52.392Z</time></trkpt><trkpt lon="34.867603" lat="31.714973"><ele>154.8</ele><time>2018-04-04T11:57:53.392Z</time></trkpt><trkpt lon="34.86757" lat="31.714975"><ele>154.8</ele><time>2018-04-04T11:57:54.392Z</time></trkpt><trkpt lon="34.867538" lat="31.714976"><ele>153.9</ele><time>2018-04-04T11:57:55.392Z</time></trkpt><trkpt lon="34.867505" lat="31.714977"><ele>153.9</ele><time>2018-04-04T11:57:56.392Z</time></trkpt><trkpt lon="34.867473" lat="31.714979"><ele>153.9</ele><time>2018-04-04T11:57:57.392Z</time></trkpt><trkpt lon="34.86744" lat="31.71498"><ele>153.9</ele><time>2018-04-04T11:57:58.392Z</time></trkpt><trkpt lon="34.867395" lat="31.714987"><ele>153.9</ele><time>2018-04-04T11:57:59.392Z</time></trkpt><trkpt lon="34.867348" lat="31.714993"><ele>153.9</ele><time>2018-04-04T11:58:00.392Z</time></trkpt><trkpt lon="34.867305" lat="31.715003"><ele>153.9</ele><time>2018-04-04T11:58:01.392Z</time></trkpt><trkpt lon="34.86726" lat="31.715018"><ele>153.9</ele><time>2018-04-04T11:58:02.392Z</time></trkpt><trkpt lon="34.86722" lat="31.715037"><ele>153.9</ele><time>2018-04-04T11:58:03.392Z</time></trkpt><trkpt lon="34.867183" lat="31.715053"><ele>153.9</ele><time>2018-04-04T11:58:04.392Z</time></trkpt><trkpt lon="34.867147" lat="31.715072"><ele>153.9</ele><time>2018-04-04T11:58:05.392Z</time></trkpt><trkpt lon="34.867108" lat="31.715087"><ele>153.9</ele><time>2018-04-04T11:58:06.392Z</time></trkpt><trkpt lon="34.867067" lat="31.715093"><ele>155.9</ele><time>2018-04-04T11:58:07.392Z</time></trkpt><trkpt lon="34.867027" lat="31.7151"><ele>155.9</ele><time>2018-04-04T11:58:08.392Z</time></trkpt><trkpt lon="34.866987" lat="31.715102"><ele>155.9</ele><time>2018-04-04T11:58:09.392Z</time></trkpt><trkpt lon="34.866948" lat="31.715107"><ele>155.9</ele><time>2018-04-04T11:58:10.392Z</time></trkpt><trkpt lon="34.866915" lat="31.715115"><ele>155.9</ele><time>2018-04-04T11:58:11.392Z</time></trkpt><trkpt lon="34.866878" lat="31.715122"><ele>155.9</ele><time>2018-04-04T11:58:12.392Z</time></trkpt><trkpt lon="34.866842" lat="31.71513"><ele>154.8</ele><time>2018-04-04T11:58:13.392Z</time></trkpt><trkpt lon="34.866803" lat="31.715133"><ele>154.8</ele><time>2018-04-04T11:58:14.392Z</time></trkpt><trkpt lon="34.866763" lat="31.715133"><ele>154.8</ele><time>2018-04-04T11:58:15.392Z</time></trkpt><trkpt lon="34.866725" lat="31.71513"><ele>154.8</ele><time>2018-04-04T11:58:16.392Z</time></trkpt><trkpt lon="34.866693" lat="31.715127"><ele>153.9</ele><time>2018-04-04T11:58:17.392Z</time></trkpt><trkpt lon="34.866678" lat="31.715122"><ele>153.9</ele><time>2018-04-04T11:58:18.392Z</time></trkpt><trkpt lon="34.866683" lat="31.715113"><ele>153.9</ele><time>2018-04-04T11:58:19.392Z</time></trkpt><trkpt lon="34.86671" lat="31.715107"><ele>153.9</ele><time>2018-04-04T11:58:20.392Z</time></trkpt><trkpt lon="34.866747" lat="31.715098"><ele>153.9</ele><time>2018-04-04T11:58:21.392Z</time></trkpt><trkpt lon="34.866788" lat="31.715087"><ele>153.9</ele><time>2018-04-04T11:58:22.392Z</time></trkpt><trkpt lon="34.866833" lat="31.71507"><ele>153.9</ele><time>2018-04-04T11:58:23.392Z</time></trkpt><trkpt lon="34.866883" lat="31.715052"><ele>153.9</ele><time>2018-04-04T11:58:24.392Z</time></trkpt><trkpt lon="34.866933" lat="31.715032"><ele>152.9</ele><time>2018-04-04T11:58:25.392Z</time></trkpt><trkpt lon="34.866985" lat="31.71501"><ele>152.9</ele><time>2018-04-04T11:58:26.392Z</time></trkpt><trkpt lon="34.867038" lat="31.714987"><ele>152.9</ele><time>2018-04-04T11:58:27.392Z</time></trkpt><trkpt lon="34.86709" lat="31.714967"><ele>152.9</ele><time>2018-04-04T11:58:28.392Z</time></trkpt><trkpt lon="34.867145" lat="31.71495"><ele>152.9</ele><time>2018-04-04T11:58:29.392Z</time></trkpt><trkpt lon="34.867205" lat="31.714935"><ele>152.9</ele><time>2018-04-04T11:58:30.392Z</time></trkpt><trkpt lon="34.867265" lat="31.714918"><ele>152.9</ele><time>2018-04-04T11:58:31.392Z</time></trkpt><trkpt lon="34.867327" lat="31.714903"><ele>152.9</ele><time>2018-04-04T11:58:32.392Z</time></trkpt><trkpt lon="34.867388" lat="31.714888"><ele>151.9</ele><time>2018-04-04T11:58:33.392Z</time></trkpt><trkpt lon="34.867447" lat="31.714877"><ele>151.9</ele><time>2018-04-04T11:58:34.392Z</time></trkpt><trkpt lon="34.867502" lat="31.714862"><ele>151.9</ele><time>2018-04-04T11:58:35.392Z</time></trkpt><trkpt lon="34.867557" lat="31.714848"><ele>151.9</ele><time>2018-04-04T11:58:36.392Z</time></trkpt><trkpt lon="34.867613" lat="31.714838"><ele>151.9</ele><time>2018-04-04T11:58:37.392Z</time></trkpt><trkpt lon="34.867673" lat="31.71483"><ele>151.9</ele><time>2018-04-04T11:58:38.392Z</time></trkpt><trkpt lon="34.867733" lat="31.714825"><ele>151.9</ele><time>2018-04-04T11:58:39.392Z</time></trkpt><trkpt lon="34.867795" lat="31.714825"><ele>151.9</ele><time>2018-04-04T11:58:40.392Z</time></trkpt><trkpt lon="34.867855" lat="31.714825"><ele>151.9</ele><time>2018-04-04T11:58:41.392Z</time></trkpt><trkpt lon="34.867917" lat="31.714823"><ele>151.9</ele><time>2018-04-04T11:58:42.392Z</time></trkpt><trkpt lon="34.867972" lat="31.714822"><ele>151.9</ele><time>2018-04-04T11:58:43.392Z</time></trkpt><trkpt lon="34.868025" lat="31.71482"><ele>151.9</ele><time>2018-04-04T11:58:44.392Z</time></trkpt><trkpt lon="34.868078" lat="31.71482"><ele>151.9</ele><time>2018-04-04T11:58:45.392Z</time></trkpt><trkpt lon="34.868127" lat="31.714815"><ele>151.9</ele><time>2018-04-04T11:58:46.392Z</time></trkpt><trkpt lon="34.868177" lat="31.71481"><ele>151.9</ele><time>2018-04-04T11:58:47.392Z</time></trkpt><trkpt lon="34.868223" lat="31.714807"><ele>151.9</ele><time>2018-04-04T11:58:48.392Z</time></trkpt><trkpt lon="34.868275" lat="31.714808"><ele>150.9</ele><time>2018-04-04T11:58:49.392Z</time></trkpt><trkpt lon="34.868325" lat="31.714815"><ele>150.9</ele><time>2018-04-04T11:58:50.392Z</time></trkpt><trkpt lon="34.868372" lat="31.714825"><ele>150.9</ele><time>2018-04-04T11:58:51.392Z</time></trkpt><trkpt lon="34.868408" lat="31.714835"><ele>150.9</ele><time>2018-04-04T11:58:52.392Z</time></trkpt><trkpt lon="34.868443" lat="31.714845"><ele>150.9</ele><time>2018-04-04T11:58:53.392Z</time></trkpt><trkpt lon="34.868478" lat="31.714857"><ele>150.9</ele><time>2018-04-04T11:58:54.392Z</time></trkpt><trkpt lon="34.868512" lat="31.714872"><ele>150.9</ele><time>2018-04-04T11:58:55.392Z</time></trkpt><trkpt lon="34.868543" lat="31.714887"><ele>150.9</ele><time>2018-04-04T11:58:56.392Z</time></trkpt><trkpt lon="34.868573" lat="31.7149"><ele>150.9</ele><time>2018-04-04T11:58:57.392Z</time></trkpt><trkpt lon="34.868595" lat="31.714917"><ele>150.9</ele><time>2018-04-04T11:58:58.392Z</time></trkpt><trkpt lon="34.868608" lat="31.714938"><ele>150.9</ele><time>2018-04-04T11:58:59.392Z</time></trkpt><trkpt lon="34.868615" lat="31.714962"><ele>150.9</ele><time>2018-04-04T11:59:00.392Z</time></trkpt><trkpt lon="34.868613" lat="31.714983"><ele>150.9</ele><time>2018-04-04T11:59:01.392Z</time></trkpt><trkpt lon="34.868605" lat="31.715003"><ele>150.9</ele><time>2018-04-04T11:59:02.392Z</time></trkpt><trkpt lon="34.8686" lat="31.715023"><ele>153.9</ele><time>2018-04-04T11:59:03.392Z</time></trkpt><trkpt lon="34.868593" lat="31.71504"><ele>153.9</ele><time>2018-04-04T11:59:04.392Z</time></trkpt><trkpt lon="34.868593" lat="31.715057"><ele>153.9</ele><time>2018-04-04T11:59:05.392Z</time></trkpt><trkpt lon="34.868595" lat="31.715073"><ele>153.9</ele><time>2018-04-04T11:59:06.392Z</time></trkpt><trkpt lon="34.868602" lat="31.715088"><ele>153.9</ele><time>2018-04-04T11:59:07.392Z</time></trkpt><trkpt lon="34.868615" lat="31.7151"><ele>153.9</ele><time>2018-04-04T11:59:08.392Z</time></trkpt><trkpt lon="34.868633" lat="31.715105"><ele>154.8</ele><time>2018-04-04T11:59:09.392Z</time></trkpt><trkpt lon="34.868655" lat="31.715112"><ele>154.8</ele><time>2018-04-04T11:59:10.392Z</time></trkpt><trkpt lon="34.868682" lat="31.715117"><ele>154.8</ele><time>2018-04-04T11:59:11.392Z</time></trkpt><trkpt lon="34.868715" lat="31.715118"><ele>154.8</ele><time>2018-04-04T11:59:12.392Z</time></trkpt><trkpt lon="34.86875" lat="31.715123"><ele>154.8</ele><time>2018-04-04T11:59:13.392Z</time></trkpt><trkpt lon="34.868787" lat="31.71513"><ele>154.8</ele><time>2018-04-04T11:59:14.392Z</time></trkpt><trkpt lon="34.868827" lat="31.715133"><ele>153.9</ele><time>2018-04-04T11:59:15.392Z</time></trkpt><trkpt lon="34.868865" lat="31.715135"><ele>153.9</ele><time>2018-04-04T11:59:16.392Z</time></trkpt><trkpt lon="34.8689" lat="31.715137"><ele>153.9</ele><time>2018-04-04T11:59:17.392Z</time></trkpt><trkpt lon="34.868928" lat="31.715138"><ele>153.9</ele><time>2018-04-04T11:59:18.392Z</time></trkpt><trkpt lon="34.868947" lat="31.715138"><ele>153.9</ele><time>2018-04-04T11:59:19.392Z</time></trkpt><trkpt lon="34.868947" lat="31.715138"><ele>153.9</ele><time>2018-04-04T11:59:20.392Z</time></trkpt><trkpt lon="34.868945" lat="31.715138"><ele>153.9</ele><time>2018-04-04T11:59:21.392Z</time></trkpt><trkpt lon="34.868943" lat="31.715138"><ele>153.9</ele><time>2018-04-04T11:59:22.392Z</time></trkpt><trkpt lon="34.868942" lat="31.715138"><ele>152.9</ele><time>2018-04-04T11:59:23.392Z</time></trkpt><trkpt lon="34.86894" lat="31.715138"><ele>152.9</ele><time>2018-04-04T11:59:24.392Z</time></trkpt><trkpt lon="34.868938" lat="31.715138"><ele>152.9</ele><time>2018-04-04T11:59:25.392Z</time></trkpt><trkpt lon="34.868938" lat="31.715138"><ele>152.9</ele><time>2018-04-04T11:59:26.392Z</time></trkpt><trkpt lon="34.868937" lat="31.71514"><ele>152.9</ele><time>2018-04-04T11:59:27.392Z</time></trkpt><trkpt lon="34.868935" lat="31.71514"><ele>152.9</ele><time>2018-04-04T11:59:28.392Z</time></trkpt><trkpt lon="34.868933" lat="31.71514"><ele>152.9</ele><time>2018-04-04T11:59:29.392Z</time></trkpt><trkpt lon="34.868933" lat="31.71514"><ele>152.9</ele><time>2018-04-04T11:59:30.392Z</time></trkpt><trkpt lon="34.868933" lat="31.715138"><ele>152.9</ele><time>2018-04-04T11:59:31.392Z</time></trkpt><trkpt lon="34.868932" lat="31.715138"><ele>152.9</ele><time>2018-04-04T11:59:32.392Z</time></trkpt><trkpt lon="34.86893" lat="31.715138"><ele>153.9</ele><time>2018-04-04T11:59:33.392Z</time></trkpt><trkpt lon="34.86893" lat="31.715138"><ele>153.9</ele><time>2018-04-04T11:59:34.392Z</time></trkpt><trkpt lon="34.86893" lat="31.71514"><ele>153.9</ele><time>2018-04-04T11:59:35.392Z</time></trkpt><trkpt lon="34.86893" lat="31.71514"><ele>153.9</ele><time>2018-04-04T11:59:36.392Z</time></trkpt><trkpt lon="34.86893" lat="31.71514"><ele>153.9</ele><time>2018-04-04T11:59:37.392Z</time></trkpt><trkpt lon="34.86893" lat="31.71514"><ele>153.9</ele><time>2018-04-04T11:59:38.392Z</time></trkpt><trkpt lon="34.86893" lat="31.71514"><ele>153.9</ele><time>2018-04-04T11:59:39.392Z</time></trkpt><trkpt lon="34.868928" lat="31.71514"><ele>153.9</ele><time>2018-04-04T11:59:40.392Z</time></trkpt><trkpt lon="34.868928" lat="31.715142"><ele>153.9</ele><time>2018-04-04T11:59:41.392Z</time></trkpt><trkpt lon="34.868928" lat="31.71514"><ele>153.9</ele><time>2018-04-04T11:59:42.392Z</time></trkpt><trkpt lon="34.868932" lat="31.71514"><ele>153.9</ele><time>2018-04-04T11:59:43.392Z</time></trkpt><trkpt lon="34.86894" lat="31.715138"><ele>153.9</ele><time>2018-04-04T11:59:44.392Z</time></trkpt><trkpt lon="34.868955" lat="31.715137"><ele>153.9</ele><time>2018-04-04T11:59:45.392Z</time></trkpt><trkpt lon="34.868973" lat="31.715137"><ele>153.9</ele><time>2018-04-04T11:59:46.392Z</time></trkpt><trkpt lon="34.868995" lat="31.715137"><ele>153.9</ele><time>2018-04-04T11:59:47.392Z</time></trkpt><trkpt lon="34.869022" lat="31.71514"><ele>153.9</ele><time>2018-04-04T11:59:48.392Z</time></trkpt><trkpt lon="34.86905" lat="31.715147"><ele>153.9</ele><time>2018-04-04T11:59:49.392Z</time></trkpt><trkpt lon="34.869075" lat="31.715158"><ele>153.9</ele><time>2018-04-04T11:59:50.392Z</time></trkpt><trkpt lon="34.8691" lat="31.715172"><ele>153.9</ele><time>2018-04-04T11:59:51.392Z</time></trkpt><trkpt lon="34.86912" lat="31.715183"><ele>153.9</ele><time>2018-04-04T11:59:52.392Z</time></trkpt><trkpt lon="34.869137" lat="31.7152"><ele>153.9</ele><time>2018-04-04T11:59:53.392Z</time></trkpt><trkpt lon="34.869148" lat="31.715217"><ele>153.9</ele><time>2018-04-04T11:59:54.392Z</time></trkpt><trkpt lon="34.869158" lat="31.715233"><ele>153.9</ele><time>2018-04-04T11:59:55.392Z</time></trkpt><trkpt lon="34.86917" lat="31.715247"><ele>153.9</ele><time>2018-04-04T11:59:56.392Z</time></trkpt><trkpt lon="34.869183" lat="31.71526"><ele>154.8</ele><time>2018-04-04T11:59:57.392Z</time></trkpt><trkpt lon="34.869202" lat="31.715272"><ele>154.8</ele><time>2018-04-04T11:59:58.392Z</time></trkpt><trkpt lon="34.869222" lat="31.715282"><ele>154.8</ele><time>2018-04-04T11:59:59.392Z</time></trkpt><trkpt lon="34.869242" lat="31.715295"><ele>154.8</ele><time>2018-04-04T12:00:00.392Z</time></trkpt><trkpt lon="34.869263" lat="31.715307"><ele>154.8</ele><time>2018-04-04T12:00:01.392Z</time></trkpt><trkpt lon="34.869288" lat="31.715317"><ele>154.8</ele><time>2018-04-04T12:00:02.392Z</time></trkpt><trkpt lon="34.869315" lat="31.715325"><ele>154.8</ele><time>2018-04-04T12:00:03.392Z</time></trkpt><trkpt lon="34.869348" lat="31.715332"><ele>154.8</ele><time>2018-04-04T12:00:04.392Z</time></trkpt><trkpt lon="34.869388" lat="31.715343"><ele>154.8</ele><time>2018-04-04T12:00:05.392Z</time></trkpt><trkpt lon="34.869425" lat="31.715358"><ele>154.8</ele><time>2018-04-04T12:00:06.392Z</time></trkpt><trkpt lon="34.86946" lat="31.715377"><ele>154.8</ele><time>2018-04-04T12:00:07.392Z</time></trkpt><trkpt lon="34.869485" lat="31.715398"><ele>154.8</ele><time>2018-04-04T12:00:08.392Z</time></trkpt><trkpt lon="34.869502" lat="31.715423"><ele>154.8</ele><time>2018-04-04T12:00:09.392Z</time></trkpt><trkpt lon="34.86951" lat="31.715455"><ele>154.8</ele><time>2018-04-04T12:00:10.392Z</time></trkpt><trkpt lon="34.869513" lat="31.715483"><ele>155.9</ele><time>2018-04-04T12:00:11.392Z</time></trkpt><trkpt lon="34.869515" lat="31.715508"><ele>155.9</ele><time>2018-04-04T12:00:12.392Z</time></trkpt><trkpt lon="34.869513" lat="31.715533"><ele>155.9</ele><time>2018-04-04T12:00:13.392Z</time></trkpt><trkpt lon="34.869512" lat="31.715555"><ele>155.9</ele><time>2018-04-04T12:00:14.392Z</time></trkpt><trkpt lon="34.86951" lat="31.715573"><ele>155.9</ele><time>2018-04-04T12:00:15.392Z</time></trkpt><trkpt lon="34.869508" lat="31.715593"><ele>155.9</ele><time>2018-04-04T12:00:16.392Z</time></trkpt><trkpt lon="34.869508" lat="31.715612"><ele>155.9</ele><time>2018-04-04T12:00:17.392Z</time></trkpt><trkpt lon="34.869515" lat="31.715628"><ele>155.9</ele><time>2018-04-04T12:00:18.392Z</time></trkpt><trkpt lon="34.869525" lat="31.715647"><ele>155.9</ele><time>2018-04-04T12:00:19.392Z</time></trkpt><trkpt lon="34.869532" lat="31.715665"><ele>155.9</ele><time>2018-04-04T12:00:20.392Z</time></trkpt><trkpt lon="34.86954" lat="31.715685"><ele>155.9</ele><time>2018-04-04T12:00:21.392Z</time></trkpt><trkpt lon="34.869552" lat="31.715705"><ele>155.9</ele><time>2018-04-04T12:00:22.392Z</time></trkpt><trkpt lon="34.869565" lat="31.715718"><ele>155.9</ele><time>2018-04-04T12:00:23.392Z</time></trkpt><trkpt lon="34.869583" lat="31.715725"><ele>155.9</ele><time>2018-04-04T12:00:24.392Z</time></trkpt><trkpt lon="34.869608" lat="31.715728"><ele>155.9</ele><time>2018-04-04T12:00:25.392Z</time></trkpt><trkpt lon="34.869633" lat="31.715732"><ele>155.9</ele><time>2018-04-04T12:00:26.392Z</time></trkpt><trkpt lon="34.869653" lat="31.715735"><ele>154.8</ele><time>2018-04-04T12:00:27.392Z</time></trkpt><trkpt lon="34.869682" lat="31.715735"><ele>154.8</ele><time>2018-04-04T12:00:28.392Z</time></trkpt><trkpt lon="34.869718" lat="31.715735"><ele>153.9</ele><time>2018-04-04T12:00:29.392Z</time></trkpt><trkpt lon="34.869762" lat="31.715733"><ele>153.9</ele><time>2018-04-04T12:00:30.392Z</time></trkpt><trkpt lon="34.86981" lat="31.715733"><ele>153.9</ele><time>2018-04-04T12:00:31.392Z</time></trkpt><trkpt lon="34.869857" lat="31.715733"><ele>153.9</ele><time>2018-04-04T12:00:32.392Z</time></trkpt><trkpt lon="34.869903" lat="31.715733"><ele>153.9</ele><time>2018-04-04T12:00:33.392Z</time></trkpt><trkpt lon="34.869943" lat="31.715737"><ele>153.9</ele><time>2018-04-04T12:00:34.392Z</time></trkpt><trkpt lon="34.869972" lat="31.715742"><ele>153.9</ele><time>2018-04-04T12:00:35.392Z</time></trkpt><trkpt lon="34.869998" lat="31.715742"><ele>153.9</ele><time>2018-04-04T12:00:36.392Z</time></trkpt><trkpt lon="34.870023" lat="31.715742"><ele>153.9</ele><time>2018-04-04T12:00:37.392Z</time></trkpt><trkpt lon="34.870043" lat="31.715738"><ele>153.9</ele><time>2018-04-04T12:00:38.392Z</time></trkpt><trkpt lon="34.870063" lat="31.715728"><ele>153.9</ele><time>2018-04-04T12:00:39.392Z</time></trkpt><trkpt lon="34.87008" lat="31.715712"><ele>153.9</ele><time>2018-04-04T12:00:40.392Z</time></trkpt><trkpt lon="34.870095" lat="31.71569"><ele>153.9</ele><time>2018-04-04T12:00:41.392Z</time></trkpt><trkpt lon="34.870117" lat="31.715667"><ele>153.9</ele><time>2018-04-04T12:00:42.392Z</time></trkpt><trkpt lon="34.870145" lat="31.715642"><ele>152.9</ele><time>2018-04-04T12:00:43.392Z</time></trkpt><trkpt lon="34.870173" lat="31.715615"><ele>152.9</ele><time>2018-04-04T12:00:44.392Z</time></trkpt><trkpt lon="34.870205" lat="31.715585"><ele>152.9</ele><time>2018-04-04T12:00:45.392Z</time></trkpt><trkpt lon="34.870238" lat="31.715553"><ele>152.9</ele><time>2018-04-04T12:00:46.392Z</time></trkpt><trkpt lon="34.870272" lat="31.715518"><ele>152.9</ele><time>2018-04-04T12:00:47.392Z</time></trkpt><trkpt lon="34.870312" lat="31.715492"><ele>152.9</ele><time>2018-04-04T12:00:48.392Z</time></trkpt><trkpt lon="34.870358" lat="31.715473"><ele>152.9</ele><time>2018-04-04T12:00:49.392Z</time></trkpt><trkpt lon="34.87041" lat="31.71546"><ele>152.9</ele><time>2018-04-04T12:00:50.392Z</time></trkpt><trkpt lon="34.87046" lat="31.715445"><ele>150.9</ele><time>2018-04-04T12:00:51.392Z</time></trkpt><trkpt lon="34.870505" lat="31.715433"><ele>150.9</ele><time>2018-04-04T12:00:52.392Z</time></trkpt><trkpt lon="34.870548" lat="31.715417"><ele>150.9</ele><time>2018-04-04T12:00:53.392Z</time></trkpt><trkpt lon="34.870588" lat="31.715393"><ele>150.9</ele><time>2018-04-04T12:00:54.392Z</time></trkpt><trkpt lon="34.870627" lat="31.715363"><ele>150.9</ele><time>2018-04-04T12:00:55.392Z</time></trkpt><trkpt lon="34.87067" lat="31.715333"><ele>150.9</ele><time>2018-04-04T12:00:56.392Z</time></trkpt><trkpt lon="34.870718" lat="31.715305"><ele>149.8</ele><time>2018-04-04T12:00:57.392Z</time></trkpt><trkpt lon="34.870772" lat="31.71528"><ele>149.8</ele><time>2018-04-04T12:00:58.392Z</time></trkpt><trkpt lon="34.87083" lat="31.715255"><ele>149.8</ele><time>2018-04-04T12:00:59.392Z</time></trkpt><trkpt lon="34.870892" lat="31.715232"><ele>149.8</ele><time>2018-04-04T12:01:00.392Z</time></trkpt><trkpt lon="34.870952" lat="31.715205"><ele>149.8</ele><time>2018-04-04T12:01:01.392Z</time></trkpt><trkpt lon="34.871008" lat="31.715177"><ele>149.8</ele><time>2018-04-04T12:01:02.392Z</time></trkpt><trkpt lon="34.871048" lat="31.715143"><ele>149.8</ele><time>2018-04-04T12:01:03.392Z</time></trkpt><trkpt lon="34.871085" lat="31.715105"><ele>149.8</ele><time>2018-04-04T12:01:04.392Z</time></trkpt><trkpt lon="34.8711" lat="31.715065"><ele>146.9</ele><time>2018-04-04T12:01:05.392Z</time></trkpt><trkpt lon="34.871098" lat="31.715023"><ele>146.9</ele><time>2018-04-04T12:01:06.392Z</time></trkpt><trkpt lon="34.871098" lat="31.714982"><ele>145.8</ele><time>2018-04-04T12:01:07.392Z</time></trkpt><trkpt lon="34.871093" lat="31.714938"><ele>145.8</ele><time>2018-04-04T12:01:08.392Z</time></trkpt><trkpt lon="34.871092" lat="31.714898"><ele>145.8</ele><time>2018-04-04T12:01:09.392Z</time></trkpt><trkpt lon="34.871093" lat="31.714858"><ele>145.8</ele><time>2018-04-04T12:01:10.392Z</time></trkpt><trkpt lon="34.871103" lat="31.71483"><ele>145.8</ele><time>2018-04-04T12:01:11.392Z</time></trkpt><trkpt lon="34.871125" lat="31.714807"><ele>145.8</ele><time>2018-04-04T12:01:12.392Z</time></trkpt><trkpt lon="34.871153" lat="31.714783"><ele>143.9</ele><time>2018-04-04T12:01:13.392Z</time></trkpt><trkpt lon="34.871182" lat="31.714762"><ele>143.9</ele><time>2018-04-04T12:01:14.392Z</time></trkpt><trkpt lon="34.87121" lat="31.714733"><ele>143.9</ele><time>2018-04-04T12:01:15.392Z</time></trkpt><trkpt lon="34.87123" lat="31.714703"><ele>143.9</ele><time>2018-04-04T12:01:16.392Z</time></trkpt><trkpt lon="34.871247" lat="31.71467"><ele>142.8</ele><time>2018-04-04T12:01:17.392Z</time></trkpt><trkpt lon="34.871263" lat="31.714643"><ele>142.8</ele><time>2018-04-04T12:01:18.392Z</time></trkpt><trkpt lon="34.871285" lat="31.71462"><ele>142.8</ele><time>2018-04-04T12:01:19.392Z</time></trkpt><trkpt lon="34.871303" lat="31.714597"><ele>142.8</ele><time>2018-04-04T12:01:20.392Z</time></trkpt><trkpt lon="34.871318" lat="31.714582"><ele>142.8</ele><time>2018-04-04T12:01:21.392Z</time></trkpt><trkpt lon="34.871328" lat="31.714573"><ele>142.8</ele><time>2018-04-04T12:01:22.392Z</time></trkpt><trkpt lon="34.871332" lat="31.71457"><ele>141.9</ele><time>2018-04-04T12:01:23.392Z</time></trkpt><trkpt lon="34.871333" lat="31.71457"><ele>141.9</ele><time>2018-04-04T12:01:24.392Z</time></trkpt><trkpt lon="34.871333" lat="31.714568"><ele>141.9</ele><time>2018-04-04T12:01:25.392Z</time></trkpt><trkpt lon="34.871333" lat="31.714567"><ele>141.9</ele><time>2018-04-04T12:01:26.392Z</time></trkpt><trkpt lon="34.871333" lat="31.714565"><ele>141.9</ele><time>2018-04-04T12:01:27.392Z</time></trkpt><trkpt lon="34.871332" lat="31.714567"><ele>141.9</ele><time>2018-04-04T12:01:28.392Z</time></trkpt><trkpt lon="34.87133" lat="31.714568"><ele>141.9</ele><time>2018-04-04T12:01:29.392Z</time></trkpt><trkpt lon="34.87133" lat="31.714567"><ele>141.9</ele><time>2018-04-04T12:01:30.392Z</time></trkpt><trkpt lon="34.871332" lat="31.714565"><ele>141.9</ele><time>2018-04-04T12:01:31.392Z</time></trkpt><trkpt lon="34.87133" lat="31.714565"><ele>141.9</ele><time>2018-04-04T12:01:32.392Z</time></trkpt><trkpt lon="34.871327" lat="31.714563"><ele>141.9</ele><time>2018-04-04T12:01:33.392Z</time></trkpt><trkpt lon="34.87132" lat="31.714562"><ele>141.9</ele><time>2018-04-04T12:01:34.392Z</time></trkpt><trkpt lon="34.871315" lat="31.71456"><ele>141.9</ele><time>2018-04-04T12:01:35.392Z</time></trkpt><trkpt lon="34.871312" lat="31.71456"><ele>141.9</ele><time>2018-04-04T12:01:36.392Z</time></trkpt><trkpt lon="34.871305" lat="31.71456"><ele>141.9</ele><time>2018-04-04T12:01:37.392Z</time></trkpt><trkpt lon="34.871298" lat="31.714562"><ele>141.9</ele><time>2018-04-04T12:01:38.392Z</time></trkpt><trkpt lon="34.871293" lat="31.714563"><ele>141.9</ele><time>2018-04-04T12:01:39.392Z</time></trkpt><trkpt lon="34.871292" lat="31.714565"><ele>141.9</ele><time>2018-04-04T12:01:40.392Z</time></trkpt><trkpt lon="34.871293" lat="31.714568"><ele>141.9</ele><time>2018-04-04T12:01:41.392Z</time></trkpt><trkpt lon="34.871295" lat="31.71457"><ele>141.9</ele><time>2018-04-04T12:01:42.392Z</time></trkpt><trkpt lon="34.871297" lat="31.714568"><ele>141.9</ele><time>2018-04-04T12:01:43.392Z</time></trkpt><trkpt lon="34.871297" lat="31.714568"><ele>141.9</ele><time>2018-04-04T12:01:44.392Z</time></trkpt><trkpt lon="34.871302" lat="31.714568"><ele>141.9</ele><time>2018-04-04T12:01:45.392Z</time></trkpt><trkpt lon="34.871303" lat="31.71457"><ele>142.8</ele><time>2018-04-04T12:01:46.392Z</time></trkpt><trkpt lon="34.871305" lat="31.71457"><ele>142.8</ele><time>2018-04-04T12:01:47.392Z</time></trkpt><trkpt lon="34.871273" lat="31.714565"><ele>142.8</ele><time>2018-04-04T12:14:30.392Z</time></trkpt><trkpt lon="34.871272" lat="31.714567"><ele>142.8</ele><time>2018-04-04T12:14:31.392Z</time></trkpt><trkpt lon="34.871268" lat="31.714568"><ele>142.8</ele><time>2018-04-04T12:14:32.392Z</time></trkpt><trkpt lon="34.871247" lat="31.714585"><ele>142.8</ele><time>2018-04-04T12:14:41.392Z</time></trkpt><trkpt lon="34.871242" lat="31.714587"><ele>142.8</ele><time>2018-04-04T12:14:42.392Z</time></trkpt><trkpt lon="34.871237" lat="31.714588"><ele>142.8</ele><time>2018-04-04T12:14:43.392Z</time></trkpt><trkpt lon="34.871227" lat="31.714593"><ele>142.8</ele><time>2018-04-04T12:14:44.392Z</time></trkpt><trkpt lon="34.87122" lat="31.714595"><ele>142.8</ele><time>2018-04-04T12:14:45.392Z</time></trkpt><trkpt lon="34.87122" lat="31.714598"><ele>142.8</ele><time>2018-04-04T12:14:46.392Z</time></trkpt><trkpt lon="34.87122" lat="31.7146"><ele>142.8</ele><time>2018-04-04T12:14:47.392Z</time></trkpt><trkpt lon="34.87122" lat="31.7146"><ele>142.8</ele><time>2018-04-04T12:14:48.392Z</time></trkpt><trkpt lon="34.871208" lat="31.714615"><ele>142.8</ele><time>2018-04-04T12:14:52.392Z</time></trkpt><trkpt lon="34.871203" lat="31.714627"><ele>142.8</ele><time>2018-04-04T12:14:53.392Z</time></trkpt><trkpt lon="34.8712" lat="31.714643"><ele>142.8</ele><time>2018-04-04T12:14:54.392Z</time></trkpt><trkpt lon="34.871197" lat="31.714662"><ele>142.8</ele><time>2018-04-04T12:14:55.392Z</time></trkpt><trkpt lon="34.871192" lat="31.71468"><ele>143.9</ele><time>2018-04-04T12:14:56.392Z</time></trkpt><trkpt lon="34.871187" lat="31.7147"><ele>143.9</ele><time>2018-04-04T12:14:57.392Z</time></trkpt><trkpt lon="34.871182" lat="31.714717"><ele>143.9</ele><time>2018-04-04T12:14:58.392Z</time></trkpt><trkpt lon="34.871168" lat="31.71473"><ele>143.9</ele><time>2018-04-04T12:14:59.392Z</time></trkpt><trkpt lon="34.871155" lat="31.714743"><ele>144.9</ele><time>2018-04-04T12:15:00.392Z</time></trkpt><trkpt lon="34.871137" lat="31.714758"><ele>144.9</ele><time>2018-04-04T12:15:01.392Z</time></trkpt><trkpt lon="34.871118" lat="31.714773"><ele>144.9</ele><time>2018-04-04T12:15:02.392Z</time></trkpt><trkpt lon="34.8711" lat="31.71479"><ele>144.9</ele><time>2018-04-04T12:15:03.392Z</time></trkpt><trkpt lon="34.871082" lat="31.714803"><ele>144.9</ele><time>2018-04-04T12:15:04.392Z</time></trkpt><trkpt lon="34.871063" lat="31.714818"><ele>144.9</ele><time>2018-04-04T12:15:05.392Z</time></trkpt><trkpt lon="34.871045" lat="31.714833"><ele>145.8</ele><time>2018-04-04T12:15:06.392Z</time></trkpt><trkpt lon="34.871033" lat="31.71485"><ele>145.8</ele><time>2018-04-04T12:15:07.392Z</time></trkpt><trkpt lon="34.871027" lat="31.714868"><ele>145.8</ele><time>2018-04-04T12:15:08.392Z</time></trkpt><trkpt lon="34.871025" lat="31.714883"><ele>145.8</ele><time>2018-04-04T12:15:09.392Z</time></trkpt><trkpt lon="34.871022" lat="31.714903"><ele>146.9</ele><time>2018-04-04T12:15:10.392Z</time></trkpt><trkpt lon="34.871015" lat="31.714922"><ele>146.9</ele><time>2018-04-04T12:15:11.392Z</time></trkpt><trkpt lon="34.871008" lat="31.71494"><ele>146.9</ele><time>2018-04-04T12:15:12.392Z</time></trkpt><trkpt lon="34.871007" lat="31.714955"><ele>146.9</ele><time>2018-04-04T12:15:13.392Z</time></trkpt><trkpt lon="34.871008" lat="31.714968"><ele>146.9</ele><time>2018-04-04T12:15:14.392Z</time></trkpt><trkpt lon="34.871015" lat="31.714982"><ele>146.9</ele><time>2018-04-04T12:15:15.392Z</time></trkpt><trkpt lon="34.871018" lat="31.714998"><ele>147.8</ele><time>2018-04-04T12:15:16.392Z</time></trkpt><trkpt lon="34.871015" lat="31.715017"><ele>147.8</ele><time>2018-04-04T12:15:17.392Z</time></trkpt><trkpt lon="34.871008" lat="31.715037"><ele>147.8</ele><time>2018-04-04T12:15:18.392Z</time></trkpt><trkpt lon="34.870998" lat="31.715058"><ele>147.8</ele><time>2018-04-04T12:15:19.392Z</time></trkpt><trkpt lon="34.870985" lat="31.715078"><ele>148.9</ele><time>2018-04-04T12:15:20.392Z</time></trkpt><trkpt lon="34.870977" lat="31.715098"><ele>148.9</ele><time>2018-04-04T12:15:21.392Z</time></trkpt><trkpt lon="34.870967" lat="31.715117"><ele>148.9</ele><time>2018-04-04T12:15:22.392Z</time></trkpt><trkpt lon="34.870955" lat="31.715132"><ele>148.9</ele><time>2018-04-04T12:15:23.392Z</time></trkpt><trkpt lon="34.870942" lat="31.715145"><ele>148.9</ele><time>2018-04-04T12:15:24.392Z</time></trkpt><trkpt lon="34.870927" lat="31.715158"><ele>148.9</ele><time>2018-04-04T12:15:25.392Z</time></trkpt><trkpt lon="34.87091" lat="31.715167"><ele>148.9</ele><time>2018-04-04T12:15:26.392Z</time></trkpt><trkpt lon="34.87089" lat="31.715177"><ele>148.9</ele><time>2018-04-04T12:15:27.392Z</time></trkpt><trkpt lon="34.87087" lat="31.715187"><ele>149.8</ele><time>2018-04-04T12:15:28.392Z</time></trkpt><trkpt lon="34.870852" lat="31.715197"><ele>149.8</ele><time>2018-04-04T12:15:29.392Z</time></trkpt><trkpt lon="34.870832" lat="31.71521"><ele>149.8</ele><time>2018-04-04T12:15:30.392Z</time></trkpt><trkpt lon="34.87081" lat="31.715222"><ele>149.8</ele><time>2018-04-04T12:15:31.392Z</time></trkpt><trkpt lon="34.870788" lat="31.715233"><ele>149.8</ele><time>2018-04-04T12:15:32.392Z</time></trkpt><trkpt lon="34.870765" lat="31.715247"><ele>149.8</ele><time>2018-04-04T12:15:33.392Z</time></trkpt><trkpt lon="34.870745" lat="31.71526"><ele>149.8</ele><time>2018-04-04T12:15:34.392Z</time></trkpt><trkpt lon="34.870722" lat="31.715275"><ele>149.8</ele><time>2018-04-04T12:15:35.392Z</time></trkpt><trkpt lon="34.870702" lat="31.715292"><ele>149.8</ele><time>2018-04-04T12:15:36.392Z</time></trkpt><trkpt lon="34.870682" lat="31.715308"><ele>149.8</ele><time>2018-04-04T12:15:37.392Z</time></trkpt><trkpt lon="34.870663" lat="31.715323"><ele>149.8</ele><time>2018-04-04T12:15:38.392Z</time></trkpt><trkpt lon="34.870645" lat="31.715342"><ele>149.8</ele><time>2018-04-04T12:15:39.392Z</time></trkpt><trkpt lon="34.870628" lat="31.715358"><ele>150.9</ele><time>2018-04-04T12:15:40.392Z</time></trkpt><trkpt lon="34.870608" lat="31.715373"><ele>150.9</ele><time>2018-04-04T12:15:41.392Z</time></trkpt><trkpt lon="34.870587" lat="31.715387"><ele>150.9</ele><time>2018-04-04T12:15:42.392Z</time></trkpt><trkpt lon="34.870565" lat="31.715398"><ele>150.9</ele><time>2018-04-04T12:15:43.392Z</time></trkpt><trkpt lon="34.870543" lat="31.715412"><ele>151.9</ele><time>2018-04-04T12:15:44.392Z</time></trkpt><trkpt lon="34.870518" lat="31.715422"><ele>151.9</ele><time>2018-04-04T12:15:45.392Z</time></trkpt><trkpt lon="34.870493" lat="31.715432"><ele>151.9</ele><time>2018-04-04T12:15:46.392Z</time></trkpt><trkpt lon="34.87047" lat="31.71544"><ele>151.9</ele><time>2018-04-04T12:15:47.392Z</time></trkpt><trkpt lon="34.870448" lat="31.715443"><ele>151.9</ele><time>2018-04-04T12:15:48.392Z</time></trkpt><trkpt lon="34.870423" lat="31.71545"><ele>151.9</ele><time>2018-04-04T12:15:49.392Z</time></trkpt><trkpt lon="34.870398" lat="31.715457"><ele>151.9</ele><time>2018-04-04T12:15:50.392Z</time></trkpt><trkpt lon="34.87037" lat="31.715463"><ele>151.9</ele><time>2018-04-04T12:15:51.392Z</time></trkpt><trkpt lon="34.870345" lat="31.71547"><ele>151.9</ele><time>2018-04-04T12:15:52.392Z</time></trkpt><trkpt lon="34.870318" lat="31.715477"><ele>151.9</ele><time>2018-04-04T12:15:53.392Z</time></trkpt><trkpt lon="34.87029" lat="31.715482"><ele>151.9</ele><time>2018-04-04T12:15:54.392Z</time></trkpt><trkpt lon="34.870265" lat="31.715492"><ele>151.9</ele><time>2018-04-04T12:15:55.392Z</time></trkpt><trkpt lon="34.870243" lat="31.715505"><ele>152.9</ele><time>2018-04-04T12:15:56.392Z</time></trkpt><trkpt lon="34.870225" lat="31.71552"><ele>152.9</ele><time>2018-04-04T12:15:57.392Z</time></trkpt><trkpt lon="34.870208" lat="31.715537"><ele>152.9</ele><time>2018-04-04T12:15:58.392Z</time></trkpt><trkpt lon="34.870193" lat="31.71555"><ele>152.9</ele><time>2018-04-04T12:15:59.392Z</time></trkpt><trkpt lon="34.870178" lat="31.715563"><ele>152.9</ele><time>2018-04-04T12:16:00.392Z</time></trkpt><trkpt lon="34.870162" lat="31.715575"><ele>152.9</ele><time>2018-04-04T12:16:01.392Z</time></trkpt><trkpt lon="34.870145" lat="31.71559"><ele>153.9</ele><time>2018-04-04T12:16:02.392Z</time></trkpt><trkpt lon="34.87013" lat="31.715605"><ele>153.9</ele><time>2018-04-04T12:16:03.392Z</time></trkpt><trkpt lon="34.870117" lat="31.715622"><ele>154.8</ele><time>2018-04-04T12:16:04.392Z</time></trkpt><trkpt lon="34.870103" lat="31.715638"><ele>154.8</ele><time>2018-04-04T12:16:05.392Z</time></trkpt><trkpt lon="34.870092" lat="31.715655"><ele>154.8</ele><time>2018-04-04T12:16:06.392Z</time></trkpt><trkpt lon="34.870082" lat="31.715673"><ele>154.8</ele><time>2018-04-04T12:16:07.392Z</time></trkpt><trkpt lon="34.870073" lat="31.71569"><ele>154.8</ele><time>2018-04-04T12:16:08.392Z</time></trkpt><trkpt lon="34.870065" lat="31.715707"><ele>154.8</ele><time>2018-04-04T12:16:09.392Z</time></trkpt><trkpt lon="34.870055" lat="31.715718"><ele>154.8</ele><time>2018-04-04T12:16:10.392Z</time></trkpt><trkpt lon="34.870042" lat="31.715727"><ele>154.8</ele><time>2018-04-04T12:16:11.392Z</time></trkpt><trkpt lon="34.870025" lat="31.715732"><ele>154.8</ele><time>2018-04-04T12:16:12.392Z</time></trkpt><trkpt lon="34.870005" lat="31.715732"><ele>154.8</ele><time>2018-04-04T12:16:13.392Z</time></trkpt><trkpt lon="34.869982" lat="31.715728"><ele>154.8</ele><time>2018-04-04T12:16:14.392Z</time></trkpt><trkpt lon="34.869957" lat="31.715723"><ele>154.8</ele><time>2018-04-04T12:16:15.392Z</time></trkpt><trkpt lon="34.869925" lat="31.715725"><ele>154.8</ele><time>2018-04-04T12:16:16.392Z</time></trkpt><trkpt lon="34.869893" lat="31.715732"><ele>154.8</ele><time>2018-04-04T12:16:17.392Z</time></trkpt><trkpt lon="34.869863" lat="31.71574"><ele>154.8</ele><time>2018-04-04T12:16:18.392Z</time></trkpt><trkpt lon="34.869838" lat="31.715745"><ele>154.8</ele><time>2018-04-04T12:16:19.392Z</time></trkpt><trkpt lon="34.869813" lat="31.71575"><ele>155.9</ele><time>2018-04-04T12:16:20.392Z</time></trkpt><trkpt lon="34.869788" lat="31.715752"><ele>155.9</ele><time>2018-04-04T12:16:21.392Z</time></trkpt><trkpt lon="34.869767" lat="31.715752"><ele>155.9</ele><time>2018-04-04T12:16:22.392Z</time></trkpt><trkpt lon="34.869747" lat="31.71575"><ele>155.9</ele><time>2018-04-04T12:16:23.392Z</time></trkpt><trkpt lon="34.869725" lat="31.71575"><ele>156.8</ele><time>2018-04-04T12:16:24.392Z</time></trkpt><trkpt lon="34.869707" lat="31.71575"><ele>156.8</ele><time>2018-04-04T12:16:25.392Z</time></trkpt><trkpt lon="34.869688" lat="31.715752"><ele>156.8</ele><time>2018-04-04T12:16:26.392Z</time></trkpt><trkpt lon="34.869672" lat="31.71575"><ele>156.8</ele><time>2018-04-04T12:16:27.392Z</time></trkpt><trkpt lon="34.86966" lat="31.715743"><ele>156.8</ele><time>2018-04-04T12:16:28.392Z</time></trkpt><trkpt lon="34.869647" lat="31.715732"><ele>156.8</ele><time>2018-04-04T12:16:29.392Z</time></trkpt><trkpt lon="34.869638" lat="31.715717"><ele>156.8</ele><time>2018-04-04T12:16:30.392Z</time></trkpt><trkpt lon="34.869627" lat="31.715698"><ele>156.8</ele><time>2018-04-04T12:16:31.392Z</time></trkpt><trkpt lon="34.869608" lat="31.715678"><ele>156.8</ele><time>2018-04-04T12:16:32.392Z</time></trkpt><trkpt lon="34.869595" lat="31.71566"><ele>156.8</ele><time>2018-04-04T12:16:33.392Z</time></trkpt><trkpt lon="34.869585" lat="31.715638"><ele>155.9</ele><time>2018-04-04T12:16:34.392Z</time></trkpt><trkpt lon="34.869578" lat="31.715613"><ele>155.9</ele><time>2018-04-04T12:16:35.392Z</time></trkpt><trkpt lon="34.869575" lat="31.715582"><ele>155.9</ele><time>2018-04-04T12:16:36.392Z</time></trkpt><trkpt lon="34.869573" lat="31.715548"><ele>155.9</ele><time>2018-04-04T12:16:37.392Z</time></trkpt><trkpt lon="34.86957" lat="31.715512"><ele>154.8</ele><time>2018-04-04T12:16:38.392Z</time></trkpt><trkpt lon="34.869567" lat="31.715475"><ele>154.8</ele><time>2018-04-04T12:16:39.392Z</time></trkpt><trkpt lon="34.869555" lat="31.715443"><ele>154.8</ele><time>2018-04-04T12:16:40.392Z</time></trkpt><trkpt lon="34.869542" lat="31.715417"><ele>154.8</ele><time>2018-04-04T12:16:41.392Z</time></trkpt><trkpt lon="34.869522" lat="31.715395"><ele>154.8</ele><time>2018-04-04T12:16:42.392Z</time></trkpt><trkpt lon="34.869502" lat="31.715377"><ele>154.8</ele><time>2018-04-04T12:16:43.392Z</time></trkpt><trkpt lon="34.869478" lat="31.715363"><ele>154.8</ele><time>2018-04-04T12:16:44.392Z</time></trkpt><trkpt lon="34.86946" lat="31.715352"><ele>154.8</ele><time>2018-04-04T12:16:45.392Z</time></trkpt><trkpt lon="34.869438" lat="31.715337"><ele>154.8</ele><time>2018-04-04T12:16:46.392Z</time></trkpt><trkpt lon="34.869413" lat="31.71532"><ele>154.8</ele><time>2018-04-04T12:16:47.392Z</time></trkpt><trkpt lon="34.869385" lat="31.715303"><ele>154.8</ele><time>2018-04-04T12:16:48.392Z</time></trkpt><trkpt lon="34.869357" lat="31.715282"><ele>154.8</ele><time>2018-04-04T12:16:49.392Z</time></trkpt><trkpt lon="34.869332" lat="31.715257"><ele>153.9</ele><time>2018-04-04T12:16:50.392Z</time></trkpt><trkpt lon="34.869305" lat="31.715228"><ele>153.9</ele><time>2018-04-04T12:16:51.392Z</time></trkpt><trkpt lon="34.869278" lat="31.715203"><ele>153.9</ele><time>2018-04-04T12:16:52.392Z</time></trkpt><trkpt lon="34.86925" lat="31.71518"><ele>153.9</ele><time>2018-04-04T12:16:53.392Z</time></trkpt><trkpt lon="34.869217" lat="31.715158"><ele>153.9</ele><time>2018-04-04T12:16:54.392Z</time></trkpt><trkpt lon="34.86918" lat="31.715142"><ele>153.9</ele><time>2018-04-04T12:16:55.392Z</time></trkpt><trkpt lon="34.869145" lat="31.71513"><ele>153.9</ele><time>2018-04-04T12:16:56.392Z</time></trkpt><trkpt lon="34.869113" lat="31.715127"><ele>153.9</ele><time>2018-04-04T12:16:57.392Z</time></trkpt><trkpt lon="34.86908" lat="31.71513"><ele>153.9</ele><time>2018-04-04T12:16:58.392Z</time></trkpt><trkpt lon="34.869045" lat="31.715132"><ele>153.9</ele><time>2018-04-04T12:16:59.392Z</time></trkpt><trkpt lon="34.869012" lat="31.715132"><ele>154.8</ele><time>2018-04-04T12:17:00.392Z</time></trkpt><trkpt lon="34.868978" lat="31.715135"><ele>154.8</ele><time>2018-04-04T12:17:01.392Z</time></trkpt><trkpt lon="34.868945" lat="31.715135"><ele>154.8</ele><time>2018-04-04T12:17:02.392Z</time></trkpt><trkpt lon="34.868913" lat="31.715138"><ele>154.8</ele><time>2018-04-04T12:17:03.392Z</time></trkpt><trkpt lon="34.86888" lat="31.715142"><ele>154.8</ele><time>2018-04-04T12:17:04.392Z</time></trkpt><trkpt lon="34.868848" lat="31.715142"><ele>154.8</ele><time>2018-04-04T12:17:05.392Z</time></trkpt><trkpt lon="34.868815" lat="31.71514"><ele>154.8</ele><time>2018-04-04T12:17:06.392Z</time></trkpt><trkpt lon="34.868783" lat="31.715138"><ele>154.8</ele><time>2018-04-04T12:17:07.392Z</time></trkpt><trkpt lon="34.868753" lat="31.715137"><ele>154.8</ele><time>2018-04-04T12:17:08.392Z</time></trkpt><trkpt lon="34.86873" lat="31.715132"><ele>154.8</ele><time>2018-04-04T12:17:09.392Z</time></trkpt><trkpt lon="34.868708" lat="31.715113"><ele>154.8</ele><time>2018-04-04T12:17:10.392Z</time></trkpt><trkpt lon="34.86869" lat="31.715092"><ele>154.8</ele><time>2018-04-04T12:17:11.392Z</time></trkpt><trkpt lon="34.868673" lat="31.715068"><ele>153.9</ele><time>2018-04-04T12:17:12.392Z</time></trkpt><trkpt lon="34.868665" lat="31.71504"><ele>153.9</ele><time>2018-04-04T12:17:13.392Z</time></trkpt><trkpt lon="34.868655" lat="31.715008"><ele>152.9</ele><time>2018-04-04T12:17:14.392Z</time></trkpt><trkpt lon="34.868643" lat="31.714978"><ele>152.9</ele><time>2018-04-04T12:17:15.392Z</time></trkpt><trkpt lon="34.868625" lat="31.714953"><ele>152.9</ele><time>2018-04-04T12:17:16.392Z</time></trkpt><trkpt lon="34.868598" lat="31.714933"><ele>152.9</ele><time>2018-04-04T12:17:17.392Z</time></trkpt><trkpt lon="34.86857" lat="31.714915"><ele>151.9</ele><time>2018-04-04T12:17:18.392Z</time></trkpt><trkpt lon="34.868535" lat="31.714898"><ele>151.9</ele><time>2018-04-04T12:17:19.392Z</time></trkpt><trkpt lon="34.868497" lat="31.714882"><ele>151.9</ele><time>2018-04-04T12:17:20.392Z</time></trkpt><trkpt lon="34.868457" lat="31.714863"><ele>151.9</ele><time>2018-04-04T12:17:21.392Z</time></trkpt><trkpt lon="34.868417" lat="31.714847"><ele>151.9</ele><time>2018-04-04T12:17:22.392Z</time></trkpt><trkpt lon="34.868382" lat="31.714828"><ele>151.9</ele><time>2018-04-04T12:17:23.392Z</time></trkpt><trkpt lon="34.868347" lat="31.714813"><ele>151.9</ele><time>2018-04-04T12:17:24.392Z</time></trkpt><trkpt lon="34.86831" lat="31.714803"><ele>151.9</ele><time>2018-04-04T12:17:25.392Z</time></trkpt><trkpt lon="34.868275" lat="31.714798"><ele>151.9</ele><time>2018-04-04T12:17:26.392Z</time></trkpt><trkpt lon="34.86824" lat="31.714797"><ele>151.9</ele><time>2018-04-04T12:17:27.392Z</time></trkpt><trkpt lon="34.868207" lat="31.714798"><ele>151.9</ele><time>2018-04-04T12:17:28.392Z</time></trkpt><trkpt lon="34.868173" lat="31.714802"><ele>151.9</ele><time>2018-04-04T12:17:29.392Z</time></trkpt><trkpt lon="34.868143" lat="31.714803"><ele>151.9</ele><time>2018-04-04T12:17:30.392Z</time></trkpt><trkpt lon="34.868108" lat="31.714802"><ele>151.9</ele><time>2018-04-04T12:17:31.392Z</time></trkpt><trkpt lon="34.868075" lat="31.714802"><ele>151.9</ele><time>2018-04-04T12:17:32.392Z</time></trkpt><trkpt lon="34.86804" lat="31.714802"><ele>151.9</ele><time>2018-04-04T12:17:33.392Z</time></trkpt><trkpt lon="34.868008" lat="31.714802"><ele>151.9</ele><time>2018-04-04T12:17:34.392Z</time></trkpt><trkpt lon="34.867977" lat="31.7148"><ele>151.9</ele><time>2018-04-04T12:17:35.392Z</time></trkpt><trkpt lon="34.867945" lat="31.714797"><ele>151.9</ele><time>2018-04-04T12:17:36.392Z</time></trkpt><trkpt lon="34.867913" lat="31.714793"><ele>151.9</ele><time>2018-04-04T12:17:37.392Z</time></trkpt><trkpt lon="34.86788" lat="31.714793"><ele>151.9</ele><time>2018-04-04T12:17:38.392Z</time></trkpt><trkpt lon="34.867845" lat="31.714795"><ele>151.9</ele><time>2018-04-04T12:17:39.392Z</time></trkpt><trkpt lon="34.867807" lat="31.714797"><ele>151.9</ele><time>2018-04-04T12:17:40.392Z</time></trkpt><trkpt lon="34.867772" lat="31.714798"><ele>151.9</ele><time>2018-04-04T12:17:41.392Z</time></trkpt><trkpt lon="34.867738" lat="31.714798"><ele>151.9</ele><time>2018-04-04T12:17:42.392Z</time></trkpt><trkpt lon="34.867707" lat="31.714793"><ele>151.9</ele><time>2018-04-04T12:17:43.392Z</time></trkpt><trkpt lon="34.867672" lat="31.714793"><ele>151.9</ele><time>2018-04-04T12:17:44.392Z</time></trkpt><trkpt lon="34.867635" lat="31.714795"><ele>151.9</ele><time>2018-04-04T12:17:45.392Z</time></trkpt><trkpt lon="34.867598" lat="31.714802"><ele>151.9</ele><time>2018-04-04T12:17:46.392Z</time></trkpt><trkpt lon="34.867563" lat="31.71481"><ele>151.9</ele><time>2018-04-04T12:17:47.392Z</time></trkpt><trkpt lon="34.86753" lat="31.714817"><ele>151.9</ele><time>2018-04-04T12:17:48.392Z</time></trkpt><trkpt lon="34.867497" lat="31.714823"><ele>151.9</ele><time>2018-04-04T12:17:49.392Z</time></trkpt><trkpt lon="34.867462" lat="31.714832"><ele>151.9</ele><time>2018-04-04T12:17:50.392Z</time></trkpt><trkpt lon="34.867423" lat="31.71484"><ele>151.9</ele><time>2018-04-04T12:17:51.392Z</time></trkpt><trkpt lon="34.867383" lat="31.71485"><ele>152.9</ele><time>2018-04-04T12:17:52.392Z</time></trkpt><trkpt lon="34.867342" lat="31.714857"><ele>152.9</ele><time>2018-04-04T12:17:53.392Z</time></trkpt><trkpt lon="34.8673" lat="31.714865"><ele>152.9</ele><time>2018-04-04T12:17:54.392Z</time></trkpt><trkpt lon="34.867257" lat="31.714873"><ele>152.9</ele><time>2018-04-04T12:17:55.392Z</time></trkpt><trkpt lon="34.867215" lat="31.714887"><ele>152.9</ele><time>2018-04-04T12:17:56.392Z</time></trkpt><trkpt lon="34.867175" lat="31.7149"><ele>152.9</ele><time>2018-04-04T12:17:57.392Z</time></trkpt><trkpt lon="34.867135" lat="31.714913"><ele>152.9</ele><time>2018-04-04T12:17:58.392Z</time></trkpt><trkpt lon="34.867098" lat="31.71493"><ele>152.9</ele><time>2018-04-04T12:17:59.392Z</time></trkpt><trkpt lon="34.867062" lat="31.714945"><ele>152.9</ele><time>2018-04-04T12:18:00.392Z</time></trkpt><trkpt lon="34.867025" lat="31.71496"><ele>152.9</ele><time>2018-04-04T12:18:01.392Z</time></trkpt><trkpt lon="34.866992" lat="31.714973"><ele>153.9</ele><time>2018-04-04T12:18:02.392Z</time></trkpt><trkpt lon="34.866955" lat="31.714985"><ele>153.9</ele><time>2018-04-04T12:18:03.392Z</time></trkpt><trkpt lon="34.866918" lat="31.714997"><ele>153.9</ele><time>2018-04-04T12:18:04.392Z</time></trkpt><trkpt lon="34.866882" lat="31.715007"><ele>153.9</ele><time>2018-04-04T12:18:05.392Z</time></trkpt><trkpt lon="34.866845" lat="31.715013"><ele>153.9</ele><time>2018-04-04T12:18:06.392Z</time></trkpt><trkpt lon="34.86681" lat="31.715022"><ele>153.9</ele><time>2018-04-04T12:18:07.392Z</time></trkpt><trkpt lon="34.866775" lat="31.715033"><ele>153.9</ele><time>2018-04-04T12:18:08.392Z</time></trkpt><trkpt lon="34.866743" lat="31.715048"><ele>153.9</ele><time>2018-04-04T12:18:09.392Z</time></trkpt><trkpt lon="34.866715" lat="31.715067"><ele>154.8</ele><time>2018-04-04T12:18:10.392Z</time></trkpt><trkpt lon="34.866688" lat="31.715085"><ele>154.8</ele><time>2018-04-04T12:18:11.392Z</time></trkpt><trkpt lon="34.86667" lat="31.7151"><ele>154.8</ele><time>2018-04-04T12:18:12.392Z</time></trkpt><trkpt lon="34.86667" lat="31.715113"><ele>154.8</ele><time>2018-04-04T12:18:13.392Z</time></trkpt><trkpt lon="34.866683" lat="31.715122"><ele>155.9</ele><time>2018-04-04T12:18:14.392Z</time></trkpt><trkpt lon="34.866705" lat="31.715127"><ele>155.9</ele><time>2018-04-04T12:18:15.392Z</time></trkpt><trkpt lon="34.866732" lat="31.715128"><ele>155.9</ele><time>2018-04-04T12:18:16.392Z</time></trkpt><trkpt lon="34.86676" lat="31.715127"><ele>155.9</ele><time>2018-04-04T12:18:17.392Z</time></trkpt><trkpt lon="34.866795" lat="31.71512"><ele>155.9</ele><time>2018-04-04T12:18:18.392Z</time></trkpt><trkpt lon="34.866833" lat="31.715117"><ele>155.9</ele><time>2018-04-04T12:18:19.392Z</time></trkpt><trkpt lon="34.866872" lat="31.715112"><ele>155.9</ele><time>2018-04-04T12:18:20.392Z</time></trkpt><trkpt lon="34.86691" lat="31.715105"><ele>155.9</ele><time>2018-04-04T12:18:21.392Z</time></trkpt><trkpt lon="34.866947" lat="31.715098"><ele>155.9</ele><time>2018-04-04T12:18:22.392Z</time></trkpt><trkpt lon="34.866982" lat="31.715092"><ele>155.9</ele><time>2018-04-04T12:18:23.392Z</time></trkpt><trkpt lon="34.867015" lat="31.715083"><ele>155.9</ele><time>2018-04-04T12:18:24.392Z</time></trkpt><trkpt lon="34.867052" lat="31.715068"><ele>155.9</ele><time>2018-04-04T12:18:25.392Z</time></trkpt><trkpt lon="34.867093" lat="31.715055"><ele>155.9</ele><time>2018-04-04T12:18:26.392Z</time></trkpt><trkpt lon="34.867142" lat="31.71504"><ele>155.9</ele><time>2018-04-04T12:18:27.392Z</time></trkpt><trkpt lon="34.86719" lat="31.715027"><ele>155.9</ele><time>2018-04-04T12:18:28.392Z</time></trkpt><trkpt lon="34.867237" lat="31.715017"><ele>155.9</ele><time>2018-04-04T12:18:29.392Z</time></trkpt><trkpt lon="34.867283" lat="31.715007"><ele>155.9</ele><time>2018-04-04T12:18:30.392Z</time></trkpt><trkpt lon="34.86733" lat="31.715"><ele>155.9</ele><time>2018-04-04T12:18:31.392Z</time></trkpt><trkpt lon="34.867377" lat="31.714992"><ele>155.9</ele><time>2018-04-04T12:18:32.392Z</time></trkpt><trkpt lon="34.867423" lat="31.714987"><ele>155.9</ele><time>2018-04-04T12:18:33.392Z</time></trkpt><trkpt lon="34.867473" lat="31.71498"><ele>154.8</ele><time>2018-04-04T12:18:34.392Z</time></trkpt><trkpt lon="34.867527" lat="31.714972"><ele>154.8</ele><time>2018-04-04T12:18:35.392Z</time></trkpt><trkpt lon="34.867578" lat="31.71497"><ele>154.8</ele><time>2018-04-04T12:18:36.392Z</time></trkpt><trkpt lon="34.867628" lat="31.714972"><ele>154.8</ele><time>2018-04-04T12:18:37.392Z</time></trkpt><trkpt lon="34.867672" lat="31.714975"><ele>154.8</ele><time>2018-04-04T12:18:38.392Z</time></trkpt><trkpt lon="34.867705" lat="31.714985"><ele>154.8</ele><time>2018-04-04T12:18:39.392Z</time></trkpt><trkpt lon="34.867717" lat="31.714998"><ele>154.8</ele><time>2018-04-04T12:18:40.392Z</time></trkpt><trkpt lon="34.86771" lat="31.715013"><ele>154.8</ele><time>2018-04-04T12:18:41.392Z</time></trkpt><trkpt lon="34.867692" lat="31.715023"><ele>154.8</ele><time>2018-04-04T12:18:42.392Z</time></trkpt><trkpt lon="34.867668" lat="31.715028"><ele>154.8</ele><time>2018-04-04T12:18:43.392Z</time></trkpt><trkpt lon="34.86764" lat="31.715033"><ele>155.9</ele><time>2018-04-04T12:18:44.392Z</time></trkpt><trkpt lon="34.867607" lat="31.71504"><ele>155.9</ele><time>2018-04-04T12:18:45.392Z</time></trkpt><trkpt lon="34.867572" lat="31.715048"><ele>155.9</ele><time>2018-04-04T12:18:46.392Z</time></trkpt><trkpt lon="34.867538" lat="31.715058"><ele>155.9</ele><time>2018-04-04T12:18:47.392Z</time></trkpt><trkpt lon="34.867505" lat="31.715065"><ele>156.8</ele><time>2018-04-04T12:18:48.392Z</time></trkpt><trkpt lon="34.867475" lat="31.715077"><ele>156.8</ele><time>2018-04-04T12:18:49.392Z</time></trkpt><trkpt lon="34.867443" lat="31.71509"><ele>156.8</ele><time>2018-04-04T12:18:50.392Z</time></trkpt><trkpt lon="34.867417" lat="31.715105"><ele>156.8</ele><time>2018-04-04T12:18:51.392Z</time></trkpt><trkpt lon="34.867393" lat="31.715125"><ele>157.9</ele><time>2018-04-04T12:18:52.392Z</time></trkpt><trkpt lon="34.867375" lat="31.715145"><ele>157.9</ele><time>2018-04-04T12:18:53.392Z</time></trkpt><trkpt lon="34.867358" lat="31.715165"><ele>157.9</ele><time>2018-04-04T12:18:54.392Z</time></trkpt><trkpt lon="34.867347" lat="31.715185"><ele>157.9</ele><time>2018-04-04T12:18:55.392Z</time></trkpt><trkpt lon="34.867333" lat="31.715202"><ele>158.8</ele><time>2018-04-04T12:18:56.392Z</time></trkpt><trkpt lon="34.867323" lat="31.71522"><ele>158.8</ele><time>2018-04-04T12:18:57.392Z</time></trkpt><trkpt lon="34.867315" lat="31.715235"><ele>158.8</ele><time>2018-04-04T12:18:58.392Z</time></trkpt><trkpt lon="34.867312" lat="31.715247"><ele>158.8</ele><time>2018-04-04T12:18:59.392Z</time></trkpt><trkpt lon="34.867313" lat="31.715255"><ele>158.8</ele><time>2018-04-04T12:19:00.392Z</time></trkpt><trkpt lon="34.867322" lat="31.715258"><ele>158.8</ele><time>2018-04-04T12:19:01.392Z</time></trkpt><trkpt lon="34.867338" lat="31.715258"><ele>158.8</ele><time>2018-04-04T12:19:02.392Z</time></trkpt><trkpt lon="34.867358" lat="31.715252"><ele>158.8</ele><time>2018-04-04T12:19:03.392Z</time></trkpt><trkpt lon="34.867385" lat="31.715243"><ele>158.8</ele><time>2018-04-04T12:19:04.392Z</time></trkpt><trkpt lon="34.867417" lat="31.715237"><ele>158.8</ele><time>2018-04-04T12:19:05.392Z</time></trkpt><trkpt lon="34.867447" lat="31.715233"><ele>158.8</ele><time>2018-04-04T12:19:06.392Z</time></trkpt><trkpt lon="34.867478" lat="31.715228"><ele>158.8</ele><time>2018-04-04T12:19:07.392Z</time></trkpt><trkpt lon="34.867507" lat="31.715227"><ele>158.8</ele><time>2018-04-04T12:19:08.392Z</time></trkpt><trkpt lon="34.867533" lat="31.715222"><ele>158.8</ele><time>2018-04-04T12:19:09.392Z</time></trkpt><trkpt lon="34.867558" lat="31.71521"><ele>158.8</ele><time>2018-04-04T12:19:10.392Z</time></trkpt><trkpt lon="34.867587" lat="31.715197"><ele>158.8</ele><time>2018-04-04T12:19:11.392Z</time></trkpt><trkpt lon="34.867617" lat="31.715187"><ele>158.8</ele><time>2018-04-04T12:19:12.392Z</time></trkpt><trkpt lon="34.86765" lat="31.71518"><ele>158.8</ele><time>2018-04-04T12:19:13.392Z</time></trkpt><trkpt lon="34.867687" lat="31.715177"><ele>158.8</ele><time>2018-04-04T12:19:14.392Z</time></trkpt><trkpt lon="34.867728" lat="31.71517"><ele>158.8</ele><time>2018-04-04T12:19:15.392Z</time></trkpt><trkpt lon="34.86777" lat="31.715165"><ele>158.8</ele><time>2018-04-04T12:19:16.392Z</time></trkpt><trkpt lon="34.86781" lat="31.715163"><ele>158.8</ele><time>2018-04-04T12:19:17.392Z</time></trkpt><trkpt lon="34.867845" lat="31.715167"><ele>158.8</ele><time>2018-04-04T12:19:18.392Z</time></trkpt><trkpt lon="34.86787" lat="31.715177"><ele>158.8</ele><time>2018-04-04T12:19:19.392Z</time></trkpt><trkpt lon="34.867877" lat="31.715193"><ele>158.8</ele><time>2018-04-04T12:19:20.392Z</time></trkpt><trkpt lon="34.867867" lat="31.715218"><ele>158.8</ele><time>2018-04-04T12:19:21.392Z</time></trkpt><trkpt lon="34.86785" lat="31.715242"><ele>159.9</ele><time>2018-04-04T12:19:22.392Z</time></trkpt><trkpt lon="34.867828" lat="31.715255"><ele>159.9</ele><time>2018-04-04T12:19:23.392Z</time></trkpt><trkpt lon="34.867803" lat="31.715265"><ele>159.9</ele><time>2018-04-04T12:19:24.392Z</time></trkpt><trkpt lon="34.867778" lat="31.71527"><ele>159.9</ele><time>2018-04-04T12:19:25.392Z</time></trkpt><trkpt lon="34.867752" lat="31.715277"><ele>159.9</ele><time>2018-04-04T12:19:26.392Z</time></trkpt><trkpt lon="34.867723" lat="31.715283"><ele>159.9</ele><time>2018-04-04T12:19:27.392Z</time></trkpt><trkpt lon="34.867695" lat="31.715283"><ele>159.9</ele><time>2018-04-04T12:19:28.392Z</time></trkpt><trkpt lon="34.867668" lat="31.71528"><ele>159.9</ele><time>2018-04-04T12:19:29.392Z</time></trkpt><trkpt lon="34.867642" lat="31.715277"><ele>159.9</ele><time>2018-04-04T12:19:30.392Z</time></trkpt><trkpt lon="34.867615" lat="31.715278"><ele>159.9</ele><time>2018-04-04T12:19:31.392Z</time></trkpt><trkpt lon="34.86759" lat="31.715283"><ele>159.9</ele><time>2018-04-04T12:19:32.392Z</time></trkpt><trkpt lon="34.867572" lat="31.71529"><ele>159.9</ele><time>2018-04-04T12:19:33.392Z</time></trkpt><trkpt lon="34.86756" lat="31.715303"><ele>160.9</ele><time>2018-04-04T12:19:34.392Z</time></trkpt><trkpt lon="34.867552" lat="31.715318"><ele>160.9</ele><time>2018-04-04T12:19:35.392Z</time></trkpt><trkpt lon="34.86755" lat="31.715333"><ele>160.9</ele><time>2018-04-04T12:19:36.392Z</time></trkpt><trkpt lon="34.867552" lat="31.71535"><ele>160.9</ele><time>2018-04-04T12:19:37.392Z</time></trkpt><trkpt lon="34.867562" lat="31.715363"><ele>160.9</ele><time>2018-04-04T12:19:38.392Z</time></trkpt><trkpt lon="34.86758" lat="31.715373"><ele>160.9</ele><time>2018-04-04T12:19:39.392Z</time></trkpt><trkpt lon="34.867602" lat="31.715382"><ele>160.9</ele><time>2018-04-04T12:19:40.392Z</time></trkpt><trkpt lon="34.867625" lat="31.715388"><ele>160.9</ele><time>2018-04-04T12:19:41.392Z</time></trkpt><trkpt lon="34.86765" lat="31.715397"><ele>160.9</ele><time>2018-04-04T12:19:42.392Z</time></trkpt><trkpt lon="34.867673" lat="31.71541"><ele>160.9</ele><time>2018-04-04T12:19:43.392Z</time></trkpt><trkpt lon="34.867698" lat="31.715417"><ele>161.9</ele><time>2018-04-04T12:19:44.392Z</time></trkpt><trkpt lon="34.867727" lat="31.71542"><ele>161.9</ele><time>2018-04-04T12:19:45.392Z</time></trkpt><trkpt lon="34.867758" lat="31.715423"><ele>161.9</ele><time>2018-04-04T12:19:46.392Z</time></trkpt><trkpt lon="34.867788" lat="31.715428"><ele>161.9</ele><time>2018-04-04T12:19:47.392Z</time></trkpt><trkpt lon="34.86782" lat="31.715433"><ele>161.9</ele><time>2018-04-04T12:19:48.392Z</time></trkpt><trkpt lon="34.86785" lat="31.715435"><ele>161.9</ele><time>2018-04-04T12:19:49.392Z</time></trkpt><trkpt lon="34.867878" lat="31.715442"><ele>161.9</ele><time>2018-04-04T12:19:50.392Z</time></trkpt><trkpt lon="34.8679" lat="31.715452"><ele>161.9</ele><time>2018-04-04T12:19:51.392Z</time></trkpt><trkpt lon="34.867915" lat="31.715467"><ele>161.9</ele><time>2018-04-04T12:19:52.392Z</time></trkpt><trkpt lon="34.867928" lat="31.715485"><ele>161.9</ele><time>2018-04-04T12:19:53.392Z</time></trkpt><trkpt lon="34.867937" lat="31.715503"><ele>161.9</ele><time>2018-04-04T12:19:54.392Z</time></trkpt><trkpt lon="34.867935" lat="31.715523"><ele>161.9</ele><time>2018-04-04T12:19:55.392Z</time></trkpt><trkpt lon="34.86793" lat="31.715542"><ele>161.9</ele><time>2018-04-04T12:19:56.392Z</time></trkpt><trkpt lon="34.86792" lat="31.715558"><ele>161.9</ele><time>2018-04-04T12:19:57.392Z</time></trkpt><trkpt lon="34.867908" lat="31.715572"><ele>161.9</ele><time>2018-04-04T12:19:58.392Z</time></trkpt><trkpt lon="34.867898" lat="31.715588"><ele>161.9</ele><time>2018-04-04T12:19:59.392Z</time></trkpt><trkpt lon="34.867892" lat="31.715605"><ele>163.8</ele><time>2018-04-04T12:20:00.392Z</time></trkpt><trkpt lon="34.867885" lat="31.715622"><ele>163.8</ele><time>2018-04-04T12:20:01.392Z</time></trkpt><trkpt lon="34.867878" lat="31.715635"><ele>163.8</ele><time>2018-04-04T12:20:02.392Z</time></trkpt><trkpt lon="34.867877" lat="31.715652"><ele>163.8</ele><time>2018-04-04T12:20:03.392Z</time></trkpt><trkpt lon="34.867875" lat="31.71567"><ele>163.8</ele><time>2018-04-04T12:20:04.392Z</time></trkpt><trkpt lon="34.867868" lat="31.715687"><ele>163.8</ele><time>2018-04-04T12:20:05.392Z</time></trkpt><trkpt lon="34.86786" lat="31.715705"><ele>163.8</ele><time>2018-04-04T12:20:06.392Z</time></trkpt><trkpt lon="34.867848" lat="31.715722"><ele>163.8</ele><time>2018-04-04T12:20:07.392Z</time></trkpt><trkpt lon="34.867835" lat="31.715737"><ele>164.9</ele><time>2018-04-04T12:20:08.392Z</time></trkpt><trkpt lon="34.867822" lat="31.715752"><ele>164.9</ele><time>2018-04-04T12:20:09.392Z</time></trkpt><trkpt lon="34.867803" lat="31.715763"><ele>164.9</ele><time>2018-04-04T12:20:10.392Z</time></trkpt><trkpt lon="34.867783" lat="31.715778"><ele>164.9</ele><time>2018-04-04T12:20:11.392Z</time></trkpt><trkpt lon="34.867762" lat="31.715793"><ele>164.9</ele><time>2018-04-04T12:20:12.392Z</time></trkpt><trkpt lon="34.867742" lat="31.715807"><ele>164.9</ele><time>2018-04-04T12:20:13.392Z</time></trkpt><trkpt lon="34.867725" lat="31.715822"><ele>164.9</ele><time>2018-04-04T12:20:14.392Z</time></trkpt><trkpt lon="34.867713" lat="31.71584"><ele>164.9</ele><time>2018-04-04T12:20:15.392Z</time></trkpt><trkpt lon="34.867703" lat="31.715865"><ele>164.9</ele><time>2018-04-04T12:20:16.392Z</time></trkpt><trkpt lon="34.867698" lat="31.715892"><ele>164.9</ele><time>2018-04-04T12:20:17.392Z</time></trkpt><trkpt lon="34.867702" lat="31.715918"><ele>165.8</ele><time>2018-04-04T12:20:18.392Z</time></trkpt><trkpt lon="34.867717" lat="31.715942"><ele>165.8</ele><time>2018-04-04T12:20:19.392Z</time></trkpt><trkpt lon="34.86775" lat="31.715972"><ele>165.8</ele><time>2018-04-04T12:20:20.392Z</time></trkpt><trkpt lon="34.867783" lat="31.715998"><ele>165.8</ele><time>2018-04-04T12:20:21.392Z</time></trkpt><trkpt lon="34.867812" lat="31.716007"><ele>165.8</ele><time>2018-04-04T12:20:22.392Z</time></trkpt><trkpt lon="34.86783" lat="31.715995"><ele>165.8</ele><time>2018-04-04T12:20:23.392Z</time></trkpt><trkpt lon="34.867853" lat="31.715982"><ele>165.8</ele><time>2018-04-04T12:20:24.392Z</time></trkpt><trkpt lon="34.867878" lat="31.715968"><ele>165.8</ele><time>2018-04-04T12:20:25.392Z</time></trkpt><trkpt lon="34.867905" lat="31.715953"><ele>165.8</ele><time>2018-04-04T12:20:26.392Z</time></trkpt><trkpt lon="34.867933" lat="31.715943"><ele>165.8</ele><time>2018-04-04T12:20:27.392Z</time></trkpt><trkpt lon="34.867963" lat="31.715937"><ele>166.9</ele><time>2018-04-04T12:20:28.392Z</time></trkpt><trkpt lon="34.86799" lat="31.715938"><ele>166.9</ele><time>2018-04-04T12:20:29.392Z</time></trkpt><trkpt lon="34.868012" lat="31.715948"><ele>166.9</ele><time>2018-04-04T12:20:30.392Z</time></trkpt><trkpt lon="34.868028" lat="31.715958"><ele>166.9</ele><time>2018-04-04T12:20:31.392Z</time></trkpt><trkpt lon="34.868035" lat="31.71597"><ele>166.9</ele><time>2018-04-04T12:20:32.392Z</time></trkpt><trkpt lon="34.868035" lat="31.715982"><ele>166.9</ele><time>2018-04-04T12:20:33.392Z</time></trkpt><trkpt lon="34.868035" lat="31.715985"><ele>166.9</ele><time>2018-04-04T12:20:34.392Z</time></trkpt><trkpt lon="34.868033" lat="31.715985"><ele>166.9</ele><time>2018-04-04T12:20:35.392Z</time></trkpt><trkpt lon="34.86803" lat="31.715987"><ele>166.9</ele><time>2018-04-04T12:20:36.392Z</time></trkpt><trkpt lon="34.868022" lat="31.715987"><ele>166.9</ele><time>2018-04-04T12:20:37.392Z</time></trkpt><trkpt lon="34.868015" lat="31.715987"><ele>166.9</ele><time>2018-04-04T12:20:38.392Z</time></trkpt><trkpt lon="34.86801" lat="31.715988"><ele>166.9</ele><time>2018-04-04T12:20:39.392Z</time></trkpt><trkpt lon="34.868007" lat="31.715992"><ele>166.9</ele><time>2018-04-04T12:20:40.392Z</time></trkpt><trkpt lon="34.868003" lat="31.715998"><ele>166.9</ele><time>2018-04-04T12:20:41.392Z</time></trkpt><trkpt lon="34.868" lat="31.716003"><ele>166.9</ele><time>2018-04-04T12:20:42.392Z</time></trkpt><trkpt lon="34.867998" lat="31.716005"><ele>166.9</ele><time>2018-04-04T12:20:43.392Z</time></trkpt><trkpt lon="34.867997" lat="31.716005"><ele>166.9</ele><time>2018-04-04T12:20:44.392Z</time></trkpt><trkpt lon="34.867997" lat="31.716003"><ele>166.9</ele><time>2018-04-04T12:20:45.392Z</time></trkpt><trkpt lon="34.867995" lat="31.716003"><ele>166.9</ele><time>2018-04-04T12:20:46.392Z</time></trkpt><trkpt lon="34.86797" lat="31.71603"><ele>166.9</ele><time>2018-04-04T12:20:49.392Z</time></trkpt><trkpt lon="34.867967" lat="31.716043"><ele>167.9</ele><time>2018-04-04T12:20:50.392Z</time></trkpt><trkpt lon="34.86797" lat="31.716057"><ele>167.9</ele><time>2018-04-04T12:20:51.392Z</time></trkpt><trkpt lon="34.86797" lat="31.716057"><ele>167.9</ele><time>2018-04-04T12:20:52.392Z</time></trkpt><trkpt lon="34.867995" lat="31.716082"><ele>167.9</ele><time>2018-04-04T12:20:53.392Z</time></trkpt><trkpt lon="34.868012" lat="31.716088"><ele>167.9</ele><time>2018-04-04T12:20:54.392Z</time></trkpt><trkpt lon="34.868012" lat="31.716088"><ele>167.9</ele><time>2018-04-04T12:20:55.392Z</time></trkpt><trkpt lon="34.868033" lat="31.716087"><ele>167.9</ele><time>2018-04-04T12:20:56.392Z</time></trkpt><trkpt lon="34.868055" lat="31.716078"><ele>167.9</ele><time>2018-04-04T12:20:57.392Z</time></trkpt><trkpt lon="34.8681" lat="31.716072"><ele>168.9</ele><time>2018-04-04T12:20:58.392Z</time></trkpt><trkpt lon="34.8681" lat="31.716072"><ele>168.9</ele><time>2018-04-04T12:20:59.392Z</time></trkpt><trkpt lon="34.868115" lat="31.716078"><ele>168.9</ele><time>2018-04-04T12:21:00.392Z</time></trkpt><trkpt lon="34.868127" lat="31.716107"><ele>168.9</ele><time>2018-04-04T12:21:01.392Z</time></trkpt><trkpt lon="34.868132" lat="31.716125"><ele>168.9</ele><time>2018-04-04T12:21:02.392Z</time></trkpt><trkpt lon="34.868132" lat="31.716125"><ele>168.9</ele><time>2018-04-04T12:21:03.392Z</time></trkpt><trkpt lon="34.868137" lat="31.716143"><ele>168.9</ele><time>2018-04-04T12:21:04.392Z</time></trkpt><trkpt lon="34.868142" lat="31.716163"><ele>168.9</ele><time>2018-04-04T12:21:05.392Z</time></trkpt><trkpt lon="34.868148" lat="31.716185"><ele>168.9</ele><time>2018-04-04T12:21:06.392Z</time></trkpt><trkpt lon="34.868143" lat="31.716205"><ele>168.9</ele><time>2018-04-04T12:21:07.392Z</time></trkpt><trkpt lon="34.868135" lat="31.716222"><ele>168.9</ele><time>2018-04-04T12:21:08.392Z</time></trkpt><trkpt lon="34.868107" lat="31.716248"><ele>168.9</ele><time>2018-04-04T12:21:09.392Z</time></trkpt><trkpt lon="34.868085" lat="31.716263"><ele>168.9</ele><time>2018-04-04T12:21:10.392Z</time></trkpt><trkpt lon="34.868085" lat="31.716263"><ele>168.9</ele><time>2018-04-04T12:21:11.392Z</time></trkpt><trkpt lon="34.868067" lat="31.716277"><ele>168.9</ele><time>2018-04-04T12:21:12.392Z</time></trkpt><trkpt lon="34.868035" lat="31.716312"><ele>168.9</ele><time>2018-04-04T12:21:13.392Z</time></trkpt><trkpt lon="34.868025" lat="31.716332"><ele>168.9</ele><time>2018-04-04T12:21:14.392Z</time></trkpt><trkpt lon="34.868025" lat="31.716332"><ele>168.9</ele><time>2018-04-04T12:21:15.392Z</time></trkpt><trkpt lon="34.868017" lat="31.716353"><ele>168.9</ele><time>2018-04-04T12:21:16.392Z</time></trkpt><trkpt lon="34.868017" lat="31.716375"><ele>168.9</ele><time>2018-04-04T12:21:17.392Z</time></trkpt><trkpt lon="34.868005" lat="31.71642"><ele>168.9</ele><time>2018-04-04T12:21:18.392Z</time></trkpt><trkpt lon="34.868005" lat="31.71642"><ele>168.9</ele><time>2018-04-04T12:21:19.392Z</time></trkpt><trkpt lon="34.868002" lat="31.716445"><ele>168.9</ele><time>2018-04-04T12:21:20.392Z</time></trkpt><trkpt lon="34.867997" lat="31.71647"><ele>168.9</ele><time>2018-04-04T12:21:21.392Z</time></trkpt><trkpt lon="34.867975" lat="31.716518"><ele>168.9</ele><time>2018-04-04T12:21:22.392Z</time></trkpt><trkpt lon="34.867957" lat="31.71654"><ele>168.9</ele><time>2018-04-04T12:21:23.392Z</time></trkpt><trkpt lon="34.867957" lat="31.71654"><ele>168.9</ele><time>2018-04-04T12:21:24.392Z</time></trkpt><trkpt lon="34.867928" lat="31.71659"><ele>168.9</ele><time>2018-04-04T12:21:25.392Z</time></trkpt><trkpt lon="34.867925" lat="31.716613"><ele>168.9</ele><time>2018-04-04T12:21:26.392Z</time></trkpt><trkpt lon="34.867932" lat="31.716635"><ele>168.9</ele><time>2018-04-04T12:21:27.392Z</time></trkpt><trkpt lon="34.867947" lat="31.71665"><ele>168.9</ele><time>2018-04-04T12:21:28.392Z</time></trkpt><trkpt lon="34.867965" lat="31.716663"><ele>168.9</ele><time>2018-04-04T12:21:29.392Z</time></trkpt><trkpt lon="34.867983" lat="31.716668"><ele>168.9</ele><time>2018-04-04T12:21:30.392Z</time></trkpt><trkpt lon="34.868003" lat="31.716668"><ele>168.9</ele><time>2018-04-04T12:21:31.392Z</time></trkpt><trkpt lon="34.868025" lat="31.71667"><ele>170.8</ele><time>2018-04-04T12:21:32.392Z</time></trkpt><trkpt lon="34.868025" lat="31.71667"><ele>170.8</ele><time>2018-04-04T12:21:33.392Z</time></trkpt><trkpt lon="34.868072" lat="31.71668"><ele>170.8</ele><time>2018-04-04T12:21:34.392Z</time></trkpt><trkpt lon="34.868072" lat="31.71668"><ele>170.8</ele><time>2018-04-04T12:21:35.392Z</time></trkpt><trkpt lon="34.868095" lat="31.71671"><ele>170.8</ele><time>2018-04-04T12:21:36.392Z</time></trkpt><trkpt lon="34.868095" lat="31.716728"><ele>170.8</ele><time>2018-04-04T12:21:37.392Z</time></trkpt><trkpt lon="34.868092" lat="31.716745"><ele>171.9</ele><time>2018-04-04T12:21:38.392Z</time></trkpt><trkpt lon="34.868092" lat="31.716745"><ele>171.9</ele><time>2018-04-04T12:21:39.392Z</time></trkpt><trkpt lon="34.868083" lat="31.716758"><ele>171.9</ele><time>2018-04-04T12:21:40.392Z</time></trkpt><trkpt lon="34.868073" lat="31.716775"><ele>171.9</ele><time>2018-04-04T12:21:41.392Z</time></trkpt><trkpt lon="34.868038" lat="31.716805"><ele>171.9</ele><time>2018-04-04T12:21:42.392Z</time></trkpt><trkpt lon="34.868038" lat="31.716805"><ele>171.9</ele><time>2018-04-04T12:21:43.392Z</time></trkpt><trkpt lon="34.868017" lat="31.71682"><ele>171.9</ele><time>2018-04-04T12:21:44.392Z</time></trkpt><trkpt lon="34.867963" lat="31.71685"><ele>171.9</ele><time>2018-04-04T12:21:45.392Z</time></trkpt><trkpt lon="34.867938" lat="31.716873"><ele>170.8</ele><time>2018-04-04T12:21:46.392Z</time></trkpt><trkpt lon="34.867938" lat="31.716873"><ele>170.8</ele><time>2018-04-04T12:21:47.392Z</time></trkpt><trkpt lon="34.867895" lat="31.716923"><ele>170.8</ele><time>2018-04-04T12:21:48.392Z</time></trkpt><trkpt lon="34.86789" lat="31.716953"><ele>170.8</ele><time>2018-04-04T12:21:49.392Z</time></trkpt><trkpt lon="34.86789" lat="31.716953"><ele>170.8</ele><time>2018-04-04T12:21:50.392Z</time></trkpt><trkpt lon="34.867892" lat="31.716978"><ele>170.8</ele><time>2018-04-04T12:21:51.392Z</time></trkpt><trkpt lon="34.867888" lat="31.717022"><ele>170.8</ele><time>2018-04-04T12:21:52.392Z</time></trkpt><trkpt lon="34.86789" lat="31.717042"><ele>170.8</ele><time>2018-04-04T12:21:53.392Z</time></trkpt><trkpt lon="34.867895" lat="31.71706"><ele>170.8</ele><time>2018-04-04T12:21:54.392Z</time></trkpt><trkpt lon="34.867898" lat="31.71708"><ele>170.8</ele><time>2018-04-04T12:21:55.392Z</time></trkpt><trkpt lon="34.8679" lat="31.7171"><ele>171.9</ele><time>2018-04-04T12:21:56.392Z</time></trkpt><trkpt lon="34.867903" lat="31.71712"><ele>171.9</ele><time>2018-04-04T12:21:57.392Z</time></trkpt><trkpt lon="34.867905" lat="31.717143"><ele>171.9</ele><time>2018-04-04T12:21:58.392Z</time></trkpt><trkpt lon="34.867905" lat="31.717143"><ele>171.9</ele><time>2018-04-04T12:21:59.392Z</time></trkpt><trkpt lon="34.867903" lat="31.717167"><ele>171.9</ele><time>2018-04-04T12:22:00.392Z</time></trkpt><trkpt lon="34.867895" lat="31.71719"><ele>171.9</ele><time>2018-04-04T12:22:01.392Z</time></trkpt><trkpt lon="34.867878" lat="31.717243"><ele>171.9</ele><time>2018-04-04T12:22:02.392Z</time></trkpt><trkpt lon="34.867878" lat="31.717243"><ele>171.9</ele><time>2018-04-04T12:22:03.392Z</time></trkpt><trkpt lon="34.867873" lat="31.717272"><ele>171.9</ele><time>2018-04-04T12:22:04.392Z</time></trkpt><trkpt lon="34.867873" lat="31.717327"><ele>171.9</ele><time>2018-04-04T12:22:05.392Z</time></trkpt><trkpt lon="34.867877" lat="31.717352"><ele>171.9</ele><time>2018-04-04T12:22:06.392Z</time></trkpt><trkpt lon="34.867882" lat="31.717378"><ele>171.9</ele><time>2018-04-04T12:22:07.392Z</time></trkpt><trkpt lon="34.867882" lat="31.717378"><ele>171.9</ele><time>2018-04-04T12:22:08.392Z</time></trkpt><trkpt lon="34.867907" lat="31.717427"><ele>171.9</ele><time>2018-04-04T12:22:09.392Z</time></trkpt><trkpt lon="34.867915" lat="31.717447"><ele>172.8</ele><time>2018-04-04T12:22:10.392Z</time></trkpt><trkpt lon="34.867915" lat="31.717447"><ele>172.8</ele><time>2018-04-04T12:22:11.392Z</time></trkpt><trkpt lon="34.867942" lat="31.717478"><ele>172.8</ele><time>2018-04-04T12:22:12.392Z</time></trkpt><trkpt lon="34.867958" lat="31.717492"><ele>172.8</ele><time>2018-04-04T12:22:13.392Z</time></trkpt><trkpt lon="34.867973" lat="31.717507"><ele>173.9</ele><time>2018-04-04T12:22:14.392Z</time></trkpt><trkpt lon="34.867973" lat="31.717507"><ele>173.9</ele><time>2018-04-04T12:22:15.392Z</time></trkpt><trkpt lon="34.867985" lat="31.717522"><ele>173.9</ele><time>2018-04-04T12:22:16.392Z</time></trkpt><trkpt lon="34.867997" lat="31.717558"><ele>173.9</ele><time>2018-04-04T12:22:17.392Z</time></trkpt><trkpt lon="34.868" lat="31.717577"><ele>173.9</ele><time>2018-04-04T12:22:18.392Z</time></trkpt><trkpt lon="34.868" lat="31.717577"><ele>173.9</ele><time>2018-04-04T12:22:19.392Z</time></trkpt><trkpt lon="34.868008" lat="31.717593"><ele>173.9</ele><time>2018-04-04T12:22:20.392Z</time></trkpt><trkpt lon="34.86802" lat="31.717612"><ele>173.9</ele><time>2018-04-04T12:22:21.392Z</time></trkpt><trkpt lon="34.868043" lat="31.717652"><ele>174.8</ele><time>2018-04-04T12:22:22.392Z</time></trkpt><trkpt lon="34.868043" lat="31.717652"><ele>174.8</ele><time>2018-04-04T12:22:23.392Z</time></trkpt><trkpt lon="34.868052" lat="31.717673"><ele>174.8</ele><time>2018-04-04T12:22:24.392Z</time></trkpt><trkpt lon="34.86805" lat="31.717708"><ele>174.8</ele><time>2018-04-04T12:22:25.392Z</time></trkpt><trkpt lon="34.868043" lat="31.71773"><ele>174.8</ele><time>2018-04-04T12:22:26.392Z</time></trkpt><trkpt lon="34.868027" lat="31.717755"><ele>174.8</ele><time>2018-04-04T12:22:27.392Z</time></trkpt><trkpt lon="34.868008" lat="31.717777"><ele>174.8</ele><time>2018-04-04T12:22:28.392Z</time></trkpt><trkpt lon="34.867992" lat="31.717803"><ele>174.8</ele><time>2018-04-04T12:22:29.392Z</time></trkpt><trkpt lon="34.867985" lat="31.717833"><ele>173.9</ele><time>2018-04-04T12:22:30.392Z</time></trkpt><trkpt lon="34.867973" lat="31.717865"><ele>173.9</ele><time>2018-04-04T12:22:31.392Z</time></trkpt><trkpt lon="34.867955" lat="31.717893"><ele>172.8</ele><time>2018-04-04T12:22:32.392Z</time></trkpt><trkpt lon="34.867933" lat="31.71792"><ele>172.8</ele><time>2018-04-04T12:22:33.392Z</time></trkpt><trkpt lon="34.867907" lat="31.717943"><ele>172.8</ele><time>2018-04-04T12:22:34.392Z</time></trkpt><trkpt lon="34.867907" lat="31.717943"><ele>172.8</ele><time>2018-04-04T12:22:35.392Z</time></trkpt><trkpt lon="34.867863" lat="31.717962"><ele>171.9</ele><time>2018-04-04T12:22:36.392Z</time></trkpt><trkpt lon="34.867835" lat="31.717955"><ele>171.9</ele><time>2018-04-04T12:22:37.392Z</time></trkpt><trkpt lon="34.867802" lat="31.717945"><ele>170.8</ele><time>2018-04-04T12:22:38.392Z</time></trkpt><trkpt lon="34.867763" lat="31.717925"><ele>170.8</ele><time>2018-04-04T12:22:39.392Z</time></trkpt><trkpt lon="34.867728" lat="31.717905"><ele>169.9</ele><time>2018-04-04T12:22:40.392Z</time></trkpt><trkpt lon="34.867697" lat="31.717888"><ele>169.9</ele><time>2018-04-04T12:22:41.392Z</time></trkpt><trkpt lon="34.867697" lat="31.717888"><ele>168.9</ele><time>2018-04-04T12:22:42.392Z</time></trkpt><trkpt lon="34.86764" lat="31.717862"><ele>168.9</ele><time>2018-04-04T12:22:43.392Z</time></trkpt><trkpt lon="34.867618" lat="31.717852"><ele>168.9</ele><time>2018-04-04T12:22:44.392Z</time></trkpt><trkpt lon="34.867603" lat="31.717852"><ele>168.9</ele><time>2018-04-04T12:22:45.392Z</time></trkpt><trkpt lon="34.867597" lat="31.717858"><ele>167.9</ele><time>2018-04-04T12:22:46.392Z</time></trkpt><trkpt lon="34.867597" lat="31.717858"><ele>167.9</ele><time>2018-04-04T12:22:47.392Z</time></trkpt><trkpt lon="34.867598" lat="31.717868"><ele>167.9</ele><time>2018-04-04T12:22:48.392Z</time></trkpt><trkpt lon="34.867595" lat="31.717907"><ele>167.9</ele><time>2018-04-04T12:22:49.392Z</time></trkpt><trkpt lon="34.867592" lat="31.717933"><ele>167.9</ele><time>2018-04-04T12:22:50.392Z</time></trkpt><trkpt lon="34.867592" lat="31.717933"><ele>167.9</ele><time>2018-04-04T12:22:51.392Z</time></trkpt><trkpt lon="34.867595" lat="31.717963"><ele>166.9</ele><time>2018-04-04T12:22:52.392Z</time></trkpt><trkpt lon="34.867603" lat="31.717995"><ele>166.9</ele><time>2018-04-04T12:22:53.392Z</time></trkpt><trkpt lon="34.86763" lat="31.718067"><ele>166.9</ele><time>2018-04-04T12:22:54.392Z</time></trkpt><trkpt lon="34.86764" lat="31.718105"><ele>166.9</ele><time>2018-04-04T12:22:55.392Z</time></trkpt><trkpt lon="34.867645" lat="31.71815"><ele>165.8</ele><time>2018-04-04T12:22:56.392Z</time></trkpt><trkpt lon="34.867647" lat="31.718192"><ele>165.8</ele><time>2018-04-04T12:22:57.392Z</time></trkpt><trkpt lon="34.867652" lat="31.718237"><ele>165.8</ele><time>2018-04-04T12:22:58.392Z</time></trkpt><trkpt lon="34.867662" lat="31.71828"><ele>165.8</ele><time>2018-04-04T12:22:59.392Z</time></trkpt><trkpt lon="34.867672" lat="31.718322"><ele>164.9</ele><time>2018-04-04T12:23:00.392Z</time></trkpt><trkpt lon="34.867685" lat="31.718365"><ele>164.9</ele><time>2018-04-04T12:23:01.392Z</time></trkpt><trkpt lon="34.8677" lat="31.718407"><ele>164.9</ele><time>2018-04-04T12:23:02.392Z</time></trkpt><trkpt lon="34.867717" lat="31.718447"><ele>164.9</ele><time>2018-04-04T12:23:03.392Z</time></trkpt><trkpt lon="34.867733" lat="31.718488"><ele>163.8</ele><time>2018-04-04T12:23:04.392Z</time></trkpt><trkpt lon="34.867748" lat="31.71853"><ele>163.8</ele><time>2018-04-04T12:23:05.392Z</time></trkpt><trkpt lon="34.867765" lat="31.718572"><ele>163.8</ele><time>2018-04-04T12:23:06.392Z</time></trkpt><trkpt lon="34.867782" lat="31.718613"><ele>163.8</ele><time>2018-04-04T12:23:07.392Z</time></trkpt><trkpt lon="34.867793" lat="31.718655"><ele>162.9</ele><time>2018-04-04T12:23:08.392Z</time></trkpt><trkpt lon="34.867798" lat="31.7187"><ele>162.9</ele><time>2018-04-04T12:23:09.392Z</time></trkpt><trkpt lon="34.867807" lat="31.718745"><ele>161.9</ele><time>2018-04-04T12:23:10.392Z</time></trkpt><trkpt lon="34.867813" lat="31.718795"><ele>161.9</ele><time>2018-04-04T12:23:11.392Z</time></trkpt><trkpt lon="34.867817" lat="31.718847"><ele>161.9</ele><time>2018-04-04T12:23:12.392Z</time></trkpt><trkpt lon="34.867815" lat="31.718898"><ele>161.9</ele><time>2018-04-04T12:23:13.392Z</time></trkpt><trkpt lon="34.867815" lat="31.718898"><ele>160.9</ele><time>2018-04-04T12:23:14.392Z</time></trkpt><trkpt lon="34.867833" lat="31.719007"><ele>160.9</ele><time>2018-04-04T12:23:15.392Z</time></trkpt><trkpt lon="34.86784" lat="31.71906"><ele>160.9</ele><time>2018-04-04T12:23:16.392Z</time></trkpt><trkpt lon="34.867833" lat="31.719115"><ele>160.9</ele><time>2018-04-04T12:23:17.392Z</time></trkpt><trkpt lon="34.867823" lat="31.719172"><ele>160.9</ele><time>2018-04-04T12:23:18.392Z</time></trkpt><trkpt lon="34.867808" lat="31.719227"><ele>160.9</ele><time>2018-04-04T12:23:19.392Z</time></trkpt><trkpt lon="34.867788" lat="31.71928"><ele>160.9</ele><time>2018-04-04T12:23:20.392Z</time></trkpt><trkpt lon="34.867773" lat="31.719333"><ele>160.9</ele><time>2018-04-04T12:23:21.392Z</time></trkpt><trkpt lon="34.867758" lat="31.719385"><ele>156.8</ele><time>2018-04-04T12:23:22.392Z</time></trkpt><trkpt lon="34.867747" lat="31.719433"><ele>156.8</ele><time>2018-04-04T12:23:23.392Z</time></trkpt><trkpt lon="34.867738" lat="31.719478"><ele>155.9</ele><time>2018-04-04T12:23:24.392Z</time></trkpt><trkpt lon="34.867722" lat="31.719527"><ele>155.9</ele><time>2018-04-04T12:23:25.392Z</time></trkpt><trkpt lon="34.867708" lat="31.719573"><ele>155.9</ele><time>2018-04-04T12:23:26.392Z</time></trkpt><trkpt lon="34.867708" lat="31.719573"><ele>155.9</ele><time>2018-04-04T12:23:27.392Z</time></trkpt><trkpt lon="34.867688" lat="31.719662"><ele>154.8</ele><time>2018-04-04T12:23:28.392Z</time></trkpt><trkpt lon="34.867672" lat="31.7197"><ele>154.8</ele><time>2018-04-04T12:23:29.392Z</time></trkpt><trkpt lon="34.867655" lat="31.71974"><ele>154.8</ele><time>2018-04-04T12:23:30.392Z</time></trkpt><trkpt lon="34.867642" lat="31.719787"><ele>154.8</ele><time>2018-04-04T12:23:31.392Z</time></trkpt><trkpt lon="34.867635" lat="31.719833"><ele>154.8</ele><time>2018-04-04T12:23:32.392Z</time></trkpt><trkpt lon="34.867625" lat="31.719883"><ele>154.8</ele><time>2018-04-04T12:23:33.392Z</time></trkpt><trkpt lon="34.867622" lat="31.719938"><ele>154.8</ele><time>2018-04-04T12:23:34.392Z</time></trkpt><trkpt lon="34.867623" lat="31.719993"><ele>154.8</ele><time>2018-04-04T12:23:35.392Z</time></trkpt><trkpt lon="34.86763" lat="31.720045"><ele>153.9</ele><time>2018-04-04T12:23:36.392Z</time></trkpt><trkpt lon="34.867635" lat="31.720095"><ele>153.9</ele><time>2018-04-04T12:23:37.392Z</time></trkpt><trkpt lon="34.867635" lat="31.720143"><ele>153.9</ele><time>2018-04-04T12:23:38.392Z</time></trkpt><trkpt lon="34.867633" lat="31.720192"><ele>153.9</ele><time>2018-04-04T12:23:39.392Z</time></trkpt><trkpt lon="34.867635" lat="31.720237"><ele>153.9</ele><time>2018-04-04T12:23:40.392Z</time></trkpt><trkpt lon="34.867638" lat="31.72028"><ele>153.9</ele><time>2018-04-04T12:23:41.392Z</time></trkpt><trkpt lon="34.867648" lat="31.720322"><ele>153.9</ele><time>2018-04-04T12:23:42.392Z</time></trkpt><trkpt lon="34.867667" lat="31.72036"><ele>153.9</ele><time>2018-04-04T12:23:43.392Z</time></trkpt><trkpt lon="34.867667" lat="31.72036"><ele>153.9</ele><time>2018-04-04T12:23:44.392Z</time></trkpt><trkpt lon="34.867685" lat="31.720428"><ele>153.9</ele><time>2018-04-04T12:23:45.392Z</time></trkpt><trkpt lon="34.867685" lat="31.720462"><ele>153.9</ele><time>2018-04-04T12:23:46.392Z</time></trkpt><trkpt lon="34.867687" lat="31.720495"><ele>153.9</ele><time>2018-04-04T12:23:47.392Z</time></trkpt><trkpt lon="34.867693" lat="31.720528"><ele>153.9</ele><time>2018-04-04T12:23:48.392Z</time></trkpt><trkpt lon="34.867702" lat="31.720558"><ele>153.9</ele><time>2018-04-04T12:23:49.392Z</time></trkpt><trkpt lon="34.867712" lat="31.720587"><ele>153.9</ele><time>2018-04-04T12:23:50.392Z</time></trkpt><trkpt lon="34.867722" lat="31.720613"><ele>153.9</ele><time>2018-04-04T12:23:51.392Z</time></trkpt><trkpt lon="34.86773" lat="31.72064"><ele>153.9</ele><time>2018-04-04T12:23:52.392Z</time></trkpt><trkpt lon="34.867742" lat="31.720665"><ele>153.9</ele><time>2018-04-04T12:23:53.392Z</time></trkpt><trkpt lon="34.86775" lat="31.720692"><ele>153.9</ele><time>2018-04-04T12:23:54.392Z</time></trkpt><trkpt lon="34.867757" lat="31.72072"><ele>153.9</ele><time>2018-04-04T12:23:55.392Z</time></trkpt><trkpt lon="34.867767" lat="31.720752"><ele>153.9</ele><time>2018-04-04T12:23:56.392Z</time></trkpt><trkpt lon="34.867778" lat="31.720782"><ele>153.9</ele><time>2018-04-04T12:23:57.392Z</time></trkpt><trkpt lon="34.867793" lat="31.720813"><ele>153.9</ele><time>2018-04-04T12:23:58.392Z</time></trkpt><trkpt lon="34.86781" lat="31.720845"><ele>153.9</ele><time>2018-04-04T12:23:59.392Z</time></trkpt><trkpt lon="34.867825" lat="31.720877"><ele>153.9</ele><time>2018-04-04T12:24:00.392Z</time></trkpt><trkpt lon="34.867838" lat="31.720905"><ele>153.9</ele><time>2018-04-04T12:24:01.392Z</time></trkpt><trkpt lon="34.867843" lat="31.720938"><ele>153.9</ele><time>2018-04-04T12:24:02.392Z</time></trkpt><trkpt lon="34.867853" lat="31.720968"><ele>153.9</ele><time>2018-04-04T12:24:03.392Z</time></trkpt><trkpt lon="34.867867" lat="31.720995"><ele>153.9</ele><time>2018-04-04T12:24:04.392Z</time></trkpt><trkpt lon="34.867867" lat="31.720995"><ele>153.9</ele><time>2018-04-04T12:24:05.392Z</time></trkpt><trkpt lon="34.867877" lat="31.721053"><ele>153.9</ele><time>2018-04-04T12:24:06.392Z</time></trkpt><trkpt lon="34.86788" lat="31.721082"><ele>153.9</ele><time>2018-04-04T12:24:07.392Z</time></trkpt><trkpt lon="34.867887" lat="31.721108"><ele>153.9</ele><time>2018-04-04T12:24:08.392Z</time></trkpt><trkpt lon="34.867897" lat="31.72113"><ele>153.9</ele><time>2018-04-04T12:24:09.392Z</time></trkpt><trkpt lon="34.867915" lat="31.721148"><ele>153.9</ele><time>2018-04-04T12:24:10.392Z</time></trkpt><trkpt lon="34.867932" lat="31.72117"><ele>153.9</ele><time>2018-04-04T12:24:11.392Z</time></trkpt><trkpt lon="34.867948" lat="31.72119"><ele>154.8</ele><time>2018-04-04T12:24:12.392Z</time></trkpt><trkpt lon="34.867965" lat="31.72121"><ele>154.8</ele><time>2018-04-04T12:24:13.392Z</time></trkpt><trkpt lon="34.867977" lat="31.721235"><ele>154.8</ele><time>2018-04-04T12:24:14.392Z</time></trkpt><trkpt lon="34.86799" lat="31.721265"><ele>154.8</ele><time>2018-04-04T12:24:15.392Z</time></trkpt><trkpt lon="34.868002" lat="31.721297"><ele>154.8</ele><time>2018-04-04T12:24:16.392Z</time></trkpt><trkpt lon="34.868017" lat="31.72133"><ele>154.8</ele><time>2018-04-04T12:24:17.392Z</time></trkpt><trkpt lon="34.868037" lat="31.721363"><ele>154.8</ele><time>2018-04-04T12:24:18.392Z</time></trkpt><trkpt lon="34.868062" lat="31.721393"><ele>154.8</ele><time>2018-04-04T12:24:19.392Z</time></trkpt><trkpt lon="34.86809" lat="31.721422"><ele>153.9</ele><time>2018-04-04T12:24:20.392Z</time></trkpt><trkpt lon="34.868117" lat="31.721443"><ele>153.9</ele><time>2018-04-04T12:24:21.392Z</time></trkpt><trkpt lon="34.868145" lat="31.721463"><ele>153.9</ele><time>2018-04-04T12:24:22.392Z</time></trkpt><trkpt lon="34.868175" lat="31.721483"><ele>153.9</ele><time>2018-04-04T12:24:23.392Z</time></trkpt><trkpt lon="34.868208" lat="31.721505"><ele>153.9</ele><time>2018-04-04T12:24:24.392Z</time></trkpt><trkpt lon="34.86824" lat="31.721525"><ele>153.9</ele><time>2018-04-04T12:24:25.392Z</time></trkpt><trkpt lon="34.86827" lat="31.721543"><ele>153.9</ele><time>2018-04-04T12:24:26.392Z</time></trkpt><trkpt lon="34.868297" lat="31.72156"><ele>153.9</ele><time>2018-04-04T12:24:27.392Z</time></trkpt><trkpt lon="34.86832" lat="31.721577"><ele>153.9</ele><time>2018-04-04T12:24:28.392Z</time></trkpt><trkpt lon="34.86834" lat="31.721593"><ele>153.9</ele><time>2018-04-04T12:24:29.392Z</time></trkpt><trkpt lon="34.868358" lat="31.721612"><ele>153.9</ele><time>2018-04-04T12:24:30.392Z</time></trkpt><trkpt lon="34.868377" lat="31.721632"><ele>153.9</ele><time>2018-04-04T12:24:31.392Z</time></trkpt><trkpt lon="34.868392" lat="31.721652"><ele>153.9</ele><time>2018-04-04T12:24:32.392Z</time></trkpt><trkpt lon="34.868395" lat="31.721673"><ele>153.9</ele><time>2018-04-04T12:24:33.392Z</time></trkpt><trkpt lon="34.868392" lat="31.721693"><ele>153.9</ele><time>2018-04-04T12:24:34.392Z</time></trkpt><trkpt lon="34.868385" lat="31.721713"><ele>153.9</ele><time>2018-04-04T12:24:35.392Z</time></trkpt><trkpt lon="34.868373" lat="31.721737"><ele>153.9</ele><time>2018-04-04T12:24:36.392Z</time></trkpt><trkpt lon="34.868362" lat="31.721762"><ele>153.9</ele><time>2018-04-04T12:24:37.392Z</time></trkpt><trkpt lon="34.868353" lat="31.721785"><ele>153.9</ele><time>2018-04-04T12:24:38.392Z</time></trkpt><trkpt lon="34.868352" lat="31.721807"><ele>153.9</ele><time>2018-04-04T12:24:39.392Z</time></trkpt><trkpt lon="34.868347" lat="31.721825"><ele>154.8</ele><time>2018-04-04T12:24:40.392Z</time></trkpt><trkpt lon="34.868343" lat="31.721842"><ele>154.8</ele><time>2018-04-04T12:24:41.392Z</time></trkpt><trkpt lon="34.868342" lat="31.721847"><ele>154.8</ele><time>2018-04-04T12:24:42.392Z</time></trkpt><trkpt lon="34.86834" lat="31.721848"><ele>154.8</ele><time>2018-04-04T12:24:43.392Z</time></trkpt><trkpt lon="34.868338" lat="31.72185"><ele>155.9</ele><time>2018-04-04T12:24:44.392Z</time></trkpt><trkpt lon="34.868335" lat="31.721855"><ele>155.9</ele><time>2018-04-04T12:24:45.392Z</time></trkpt><trkpt lon="34.868318" lat="31.721915"><ele>155.9</ele><time>2018-04-04T12:25:07.392Z</time></trkpt><trkpt lon="34.868318" lat="31.72192"><ele>155.9</ele><time>2018-04-04T12:25:08.392Z</time></trkpt><trkpt lon="34.86832" lat="31.721925"><ele>155.9</ele><time>2018-04-04T12:25:09.392Z</time></trkpt><trkpt lon="34.86832" lat="31.721933"><ele>155.9</ele><time>2018-04-04T12:25:10.392Z</time></trkpt><trkpt lon="34.86832" lat="31.721943"><ele>155.9</ele><time>2018-04-04T12:25:11.392Z</time></trkpt><trkpt lon="34.868317" lat="31.721952"><ele>155.9</ele><time>2018-04-04T12:25:12.392Z</time></trkpt><trkpt lon="34.868315" lat="31.721958"><ele>155.9</ele><time>2018-04-04T12:25:13.392Z</time></trkpt><trkpt lon="34.868317" lat="31.721958"><ele>155.9</ele><time>2018-04-04T12:25:14.392Z</time></trkpt><trkpt lon="34.86831" lat="31.721967"><ele>155.9</ele><time>2018-04-04T12:25:15.392Z</time></trkpt><trkpt lon="34.868307" lat="31.721977"><ele>155.9</ele><time>2018-04-04T12:25:16.392Z</time></trkpt><trkpt lon="34.868302" lat="31.721988"><ele>155.9</ele><time>2018-04-04T12:25:17.392Z</time></trkpt><trkpt lon="34.86829" lat="31.722"><ele>155.9</ele><time>2018-04-04T12:25:18.392Z</time></trkpt><trkpt lon="34.868272" lat="31.722012"><ele>155.9</ele><time>2018-04-04T12:25:19.392Z</time></trkpt><trkpt lon="34.868248" lat="31.722028"><ele>155.9</ele><time>2018-04-04T12:25:20.392Z</time></trkpt><trkpt lon="34.86822" lat="31.722047"><ele>155.9</ele><time>2018-04-04T12:25:21.392Z</time></trkpt><trkpt lon="34.868187" lat="31.722065"><ele>154.8</ele><time>2018-04-04T12:25:22.392Z</time></trkpt><trkpt lon="34.868148" lat="31.722088"><ele>154.8</ele><time>2018-04-04T12:25:23.392Z</time></trkpt><trkpt lon="34.868115" lat="31.722115"><ele>153.9</ele><time>2018-04-04T12:25:24.392Z</time></trkpt><trkpt lon="34.868085" lat="31.722145"><ele>153.9</ele><time>2018-04-04T12:25:25.392Z</time></trkpt><trkpt lon="34.868055" lat="31.722175"><ele>153.9</ele><time>2018-04-04T12:25:26.392Z</time></trkpt><trkpt lon="34.868023" lat="31.722207"><ele>153.9</ele><time>2018-04-04T12:25:27.392Z</time></trkpt><trkpt lon="34.867997" lat="31.722238"><ele>153.9</ele><time>2018-04-04T12:25:28.392Z</time></trkpt><trkpt lon="34.867977" lat="31.722273"><ele>153.9</ele><time>2018-04-04T12:25:29.392Z</time></trkpt><trkpt lon="34.867962" lat="31.722307"><ele>153.9</ele><time>2018-04-04T12:25:30.392Z</time></trkpt><trkpt lon="34.86795" lat="31.72234"><ele>153.9</ele><time>2018-04-04T12:25:31.392Z</time></trkpt><trkpt lon="34.867932" lat="31.722372"><ele>153.9</ele><time>2018-04-04T12:25:32.392Z</time></trkpt><trkpt lon="34.867915" lat="31.7224"><ele>153.9</ele><time>2018-04-04T12:25:33.392Z</time></trkpt><trkpt lon="34.867902" lat="31.722428"><ele>153.9</ele><time>2018-04-04T12:25:34.392Z</time></trkpt><trkpt lon="34.867895" lat="31.722453"><ele>153.9</ele><time>2018-04-04T12:25:35.392Z</time></trkpt><trkpt lon="34.867892" lat="31.722473"><ele>153.9</ele><time>2018-04-04T12:25:36.392Z</time></trkpt><trkpt lon="34.86789" lat="31.722495"><ele>153.9</ele><time>2018-04-04T12:25:37.392Z</time></trkpt><trkpt lon="34.86789" lat="31.722517"><ele>153.9</ele><time>2018-04-04T12:25:38.392Z</time></trkpt><trkpt lon="34.867885" lat="31.722535"><ele>153.9</ele><time>2018-04-04T12:25:39.392Z</time></trkpt><trkpt lon="34.867882" lat="31.722555"><ele>153.9</ele><time>2018-04-04T12:25:40.392Z</time></trkpt><trkpt lon="34.86788" lat="31.722575"><ele>153.9</ele><time>2018-04-04T12:25:41.392Z</time></trkpt><trkpt lon="34.867877" lat="31.722593"><ele>153.9</ele><time>2018-04-04T12:25:42.392Z</time></trkpt><trkpt lon="34.867873" lat="31.722615"><ele>153.9</ele><time>2018-04-04T12:25:43.392Z</time></trkpt><trkpt lon="34.867872" lat="31.722637"><ele>153.9</ele><time>2018-04-04T12:25:44.392Z</time></trkpt><trkpt lon="34.867872" lat="31.722657"><ele>153.9</ele><time>2018-04-04T12:25:45.392Z</time></trkpt><trkpt lon="34.86787" lat="31.722675"><ele>154.8</ele><time>2018-04-04T12:25:46.392Z</time></trkpt><trkpt lon="34.867873" lat="31.72269"><ele>154.8</ele><time>2018-04-04T12:25:47.392Z</time></trkpt><trkpt lon="34.867877" lat="31.7227"><ele>154.8</ele><time>2018-04-04T12:25:48.392Z</time></trkpt><trkpt lon="34.867877" lat="31.72271"><ele>154.8</ele><time>2018-04-04T12:25:49.392Z</time></trkpt><trkpt lon="34.86788" lat="31.72272"><ele>154.8</ele><time>2018-04-04T12:25:50.392Z</time></trkpt><trkpt lon="34.867887" lat="31.722733"><ele>154.8</ele><time>2018-04-04T12:25:51.392Z</time></trkpt><trkpt lon="34.867897" lat="31.722745"><ele>154.8</ele><time>2018-04-04T12:25:52.392Z</time></trkpt><trkpt lon="34.8679" lat="31.722758"><ele>154.8</ele><time>2018-04-04T12:25:53.392Z</time></trkpt><trkpt lon="34.8679" lat="31.722772"><ele>154.8</ele><time>2018-04-04T12:25:54.392Z</time></trkpt><trkpt lon="34.867895" lat="31.722785"><ele>154.8</ele><time>2018-04-04T12:25:55.392Z</time></trkpt><trkpt lon="34.867888" lat="31.722803"><ele>154.8</ele><time>2018-04-04T12:25:56.392Z</time></trkpt><trkpt lon="34.867885" lat="31.72282"><ele>154.8</ele><time>2018-04-04T12:25:57.392Z</time></trkpt><trkpt lon="34.867885" lat="31.722837"><ele>154.8</ele><time>2018-04-04T12:25:58.392Z</time></trkpt><trkpt lon="34.867883" lat="31.722855"><ele>154.8</ele><time>2018-04-04T12:25:59.392Z</time></trkpt><trkpt lon="34.867873" lat="31.722872"><ele>154.8</ele><time>2018-04-04T12:26:00.392Z</time></trkpt><trkpt lon="34.867867" lat="31.722893"><ele>154.8</ele><time>2018-04-04T12:26:01.392Z</time></trkpt><trkpt lon="34.86786" lat="31.722915"><ele>154.8</ele><time>2018-04-04T12:26:02.392Z</time></trkpt><trkpt lon="34.867852" lat="31.722938"><ele>154.8</ele><time>2018-04-04T12:26:03.392Z</time></trkpt><trkpt lon="34.867847" lat="31.722965"><ele>154.8</ele><time>2018-04-04T12:26:04.392Z</time></trkpt><trkpt lon="34.867847" lat="31.722993"><ele>154.8</ele><time>2018-04-04T12:26:05.392Z</time></trkpt><trkpt lon="34.867853" lat="31.723015"><ele>154.8</ele><time>2018-04-04T12:26:06.392Z</time></trkpt><trkpt lon="34.867863" lat="31.72303"><ele>154.8</ele><time>2018-04-04T12:26:07.392Z</time></trkpt><trkpt lon="34.867868" lat="31.723043"><ele>155.9</ele><time>2018-04-04T12:26:08.392Z</time></trkpt><trkpt lon="34.867868" lat="31.723058"><ele>155.9</ele><time>2018-04-04T12:26:09.392Z</time></trkpt><trkpt lon="34.867863" lat="31.72307"><ele>155.9</ele><time>2018-04-04T12:26:10.392Z</time></trkpt><trkpt lon="34.867858" lat="31.72308"><ele>155.9</ele><time>2018-04-04T12:26:11.392Z</time></trkpt><trkpt lon="34.86785" lat="31.723095"><ele>155.9</ele><time>2018-04-04T12:26:12.392Z</time></trkpt><trkpt lon="34.867843" lat="31.723112"><ele>155.9</ele><time>2018-04-04T12:26:13.392Z</time></trkpt><trkpt lon="34.867838" lat="31.72313"><ele>155.9</ele><time>2018-04-04T12:26:14.392Z</time></trkpt><trkpt lon="34.867833" lat="31.72315"><ele>155.9</ele><time>2018-04-04T12:26:15.392Z</time></trkpt><trkpt lon="34.867833" lat="31.723167"><ele>155.9</ele><time>2018-04-04T12:26:16.392Z</time></trkpt><trkpt lon="34.867827" lat="31.723183"><ele>155.9</ele><time>2018-04-04T12:26:17.392Z</time></trkpt><trkpt lon="34.86782" lat="31.723198"><ele>155.9</ele><time>2018-04-04T12:26:18.392Z</time></trkpt><trkpt lon="34.867813" lat="31.723217"><ele>155.9</ele><time>2018-04-04T12:26:19.392Z</time></trkpt><trkpt lon="34.867807" lat="31.723235"><ele>155.9</ele><time>2018-04-04T12:26:20.392Z</time></trkpt><trkpt lon="34.867802" lat="31.723253"><ele>155.9</ele><time>2018-04-04T12:26:21.392Z</time></trkpt><trkpt lon="34.8678" lat="31.723267"><ele>155.9</ele><time>2018-04-04T12:26:22.392Z</time></trkpt><trkpt lon="34.8678" lat="31.723278"><ele>155.9</ele><time>2018-04-04T12:26:23.392Z</time></trkpt><trkpt lon="34.867802" lat="31.723295"><ele>155.9</ele><time>2018-04-04T12:26:24.392Z</time></trkpt><trkpt lon="34.867798" lat="31.72331"><ele>155.9</ele><time>2018-04-04T12:26:25.392Z</time></trkpt><trkpt lon="34.867793" lat="31.723327"><ele>155.9</ele><time>2018-04-04T12:26:26.392Z</time></trkpt><trkpt lon="34.867793" lat="31.723345"><ele>155.9</ele><time>2018-04-04T12:26:27.392Z</time></trkpt><trkpt lon="34.867798" lat="31.723362"><ele>155.9</ele><time>2018-04-04T12:26:28.392Z</time></trkpt><trkpt lon="34.867808" lat="31.723383"><ele>155.9</ele><time>2018-04-04T12:26:29.392Z</time></trkpt><trkpt lon="34.867815" lat="31.723403"><ele>155.9</ele><time>2018-04-04T12:26:30.392Z</time></trkpt><trkpt lon="34.86782" lat="31.723423"><ele>155.9</ele><time>2018-04-04T12:26:31.392Z</time></trkpt><trkpt lon="34.86782" lat="31.723447"><ele>154.8</ele><time>2018-04-04T12:26:32.392Z</time></trkpt><trkpt lon="34.867817" lat="31.72347"><ele>154.8</ele><time>2018-04-04T12:26:33.392Z</time></trkpt><trkpt lon="34.867812" lat="31.723493"><ele>154.8</ele><time>2018-04-04T12:26:34.392Z</time></trkpt><trkpt lon="34.86781" lat="31.723517"><ele>154.8</ele><time>2018-04-04T12:26:35.392Z</time></trkpt><trkpt lon="34.867808" lat="31.723545"><ele>154.8</ele><time>2018-04-04T12:26:36.392Z</time></trkpt><trkpt lon="34.867808" lat="31.723575"><ele>154.8</ele><time>2018-04-04T12:26:37.392Z</time></trkpt><trkpt lon="34.86782" lat="31.723602"><ele>154.8</ele><time>2018-04-04T12:26:38.392Z</time></trkpt><trkpt lon="34.867837" lat="31.723622"><ele>154.8</ele><time>2018-04-04T12:26:39.392Z</time></trkpt><trkpt lon="34.867852" lat="31.723637"><ele>154.8</ele><time>2018-04-04T12:26:40.392Z</time></trkpt><trkpt lon="34.867867" lat="31.72365"><ele>154.8</ele><time>2018-04-04T12:26:41.392Z</time></trkpt><trkpt lon="34.86788" lat="31.723663"><ele>155.9</ele><time>2018-04-04T12:26:42.392Z</time></trkpt><trkpt lon="34.867895" lat="31.723677"><ele>155.9</ele><time>2018-04-04T12:26:43.392Z</time></trkpt><trkpt lon="34.867912" lat="31.723687"><ele>155.9</ele><time>2018-04-04T12:26:44.392Z</time></trkpt><trkpt lon="34.86793" lat="31.723695"><ele>155.9</ele><time>2018-04-04T12:26:45.392Z</time></trkpt><trkpt lon="34.86795" lat="31.723703"><ele>155.9</ele><time>2018-04-04T12:26:46.392Z</time></trkpt><trkpt lon="34.867968" lat="31.723713"><ele>155.9</ele><time>2018-04-04T12:26:47.392Z</time></trkpt><trkpt lon="34.867987" lat="31.723725"><ele>156.8</ele><time>2018-04-04T12:26:48.392Z</time></trkpt><trkpt lon="34.868005" lat="31.723733"><ele>156.8</ele><time>2018-04-04T12:26:49.392Z</time></trkpt><trkpt lon="34.868018" lat="31.723745"><ele>156.8</ele><time>2018-04-04T12:26:50.392Z</time></trkpt><trkpt lon="34.868028" lat="31.723758"><ele>156.8</ele><time>2018-04-04T12:26:51.392Z</time></trkpt><trkpt lon="34.868033" lat="31.723773"><ele>156.8</ele><time>2018-04-04T12:26:52.392Z</time></trkpt><trkpt lon="34.868033" lat="31.72379"><ele>156.8</ele><time>2018-04-04T12:26:53.392Z</time></trkpt><trkpt lon="34.868033" lat="31.72381"><ele>156.8</ele><time>2018-04-04T12:26:54.392Z</time></trkpt><trkpt lon="34.868035" lat="31.723835"><ele>156.8</ele><time>2018-04-04T12:26:55.392Z</time></trkpt><trkpt lon="34.868045" lat="31.723858"><ele>156.8</ele><time>2018-04-04T12:26:56.392Z</time></trkpt><trkpt lon="34.86806" lat="31.723878"><ele>156.8</ele><time>2018-04-04T12:26:57.392Z</time></trkpt><trkpt lon="34.868083" lat="31.723895"><ele>156.8</ele><time>2018-04-04T12:26:58.392Z</time></trkpt><trkpt lon="34.868105" lat="31.723907"><ele>156.8</ele><time>2018-04-04T12:26:59.392Z</time></trkpt><trkpt lon="34.868125" lat="31.723918"><ele>156.8</ele><time>2018-04-04T12:27:00.392Z</time></trkpt><trkpt lon="34.868142" lat="31.723925"><ele>156.8</ele><time>2018-04-04T12:27:01.392Z</time></trkpt><trkpt lon="34.868155" lat="31.72393"><ele>157.9</ele><time>2018-04-04T12:27:02.392Z</time></trkpt><trkpt lon="34.868167" lat="31.723937"><ele>157.9</ele><time>2018-04-04T12:27:03.392Z</time></trkpt><trkpt lon="34.868177" lat="31.723942"><ele>157.9</ele><time>2018-04-04T12:27:04.392Z</time></trkpt><trkpt lon="34.868185" lat="31.72395"><ele>157.9</ele><time>2018-04-04T12:27:05.392Z</time></trkpt><trkpt lon="34.868193" lat="31.723955"><ele>158.8</ele><time>2018-04-04T12:27:06.392Z</time></trkpt><trkpt lon="34.868205" lat="31.723963"><ele>158.8</ele><time>2018-04-04T12:27:07.392Z</time></trkpt><trkpt lon="34.868213" lat="31.723978"><ele>158.8</ele><time>2018-04-04T12:27:08.392Z</time></trkpt><trkpt lon="34.868222" lat="31.723995"><ele>158.8</ele><time>2018-04-04T12:27:09.392Z</time></trkpt><trkpt lon="34.868223" lat="31.724013"><ele>158.8</ele><time>2018-04-04T12:27:10.392Z</time></trkpt><trkpt lon="34.86822" lat="31.724032"><ele>158.8</ele><time>2018-04-04T12:27:11.392Z</time></trkpt><trkpt lon="34.868223" lat="31.724052"><ele>157.9</ele><time>2018-04-04T12:27:12.392Z</time></trkpt><trkpt lon="34.868233" lat="31.724072"><ele>157.9</ele><time>2018-04-04T12:27:13.392Z</time></trkpt><trkpt lon="34.868247" lat="31.72409"><ele>157.9</ele><time>2018-04-04T12:27:14.392Z</time></trkpt><trkpt lon="34.868263" lat="31.724108"><ele>157.9</ele><time>2018-04-04T12:27:15.392Z</time></trkpt><trkpt lon="34.86828" lat="31.724127"><ele>157.9</ele><time>2018-04-04T12:27:16.392Z</time></trkpt><trkpt lon="34.868295" lat="31.724143"><ele>157.9</ele><time>2018-04-04T12:27:17.392Z</time></trkpt><trkpt lon="34.868312" lat="31.724163"><ele>157.9</ele><time>2018-04-04T12:27:18.392Z</time></trkpt><trkpt lon="34.868327" lat="31.72418"><ele>157.9</ele><time>2018-04-04T12:27:19.392Z</time></trkpt><trkpt lon="34.868338" lat="31.724198"><ele>157.9</ele><time>2018-04-04T12:27:20.392Z</time></trkpt><trkpt lon="34.868338" lat="31.724217"><ele>157.9</ele><time>2018-04-04T12:27:21.392Z</time></trkpt><trkpt lon="34.868337" lat="31.724235"><ele>158.8</ele><time>2018-04-04T12:27:22.392Z</time></trkpt><trkpt lon="34.868338" lat="31.724257"><ele>158.8</ele><time>2018-04-04T12:27:23.392Z</time></trkpt><trkpt lon="34.868348" lat="31.724278"><ele>158.8</ele><time>2018-04-04T12:27:24.392Z</time></trkpt><trkpt lon="34.86836" lat="31.724297"><ele>158.8</ele><time>2018-04-04T12:27:25.392Z</time></trkpt><trkpt lon="34.868375" lat="31.724315"><ele>158.8</ele><time>2018-04-04T12:27:26.392Z</time></trkpt><trkpt lon="34.868393" lat="31.724333"><ele>158.8</ele><time>2018-04-04T12:27:27.392Z</time></trkpt><trkpt lon="34.868408" lat="31.724353"><ele>158.8</ele><time>2018-04-04T12:27:28.392Z</time></trkpt><trkpt lon="34.86842" lat="31.724373"><ele>158.8</ele><time>2018-04-04T12:27:29.392Z</time></trkpt><trkpt lon="34.868428" lat="31.724395"><ele>158.8</ele><time>2018-04-04T12:27:30.392Z</time></trkpt><trkpt lon="34.868433" lat="31.72442"><ele>158.8</ele><time>2018-04-04T12:27:31.392Z</time></trkpt><trkpt lon="34.868442" lat="31.72445"><ele>158.8</ele><time>2018-04-04T12:27:32.392Z</time></trkpt><trkpt lon="34.86845" lat="31.724482"><ele>158.8</ele><time>2018-04-04T12:27:33.392Z</time></trkpt><trkpt lon="34.868462" lat="31.724513"><ele>157.9</ele><time>2018-04-04T12:27:34.392Z</time></trkpt><trkpt lon="34.868482" lat="31.724545"><ele>157.9</ele><time>2018-04-04T12:27:35.392Z</time></trkpt><trkpt lon="34.868498" lat="31.724575"><ele>157.9</ele><time>2018-04-04T12:27:36.392Z</time></trkpt><trkpt lon="34.868517" lat="31.724605"><ele>157.9</ele><time>2018-04-04T12:27:37.392Z</time></trkpt><trkpt lon="34.868532" lat="31.724637"><ele>157.9</ele><time>2018-04-04T12:27:38.392Z</time></trkpt><trkpt lon="34.868555" lat="31.724663"><ele>157.9</ele><time>2018-04-04T12:27:39.392Z</time></trkpt><trkpt lon="34.868585" lat="31.724683"><ele>157.9</ele><time>2018-04-04T12:27:40.392Z</time></trkpt><trkpt lon="34.868615" lat="31.724703"><ele>157.9</ele><time>2018-04-04T12:27:41.392Z</time></trkpt><trkpt lon="34.86864" lat="31.724728"><ele>157.9</ele><time>2018-04-04T12:27:42.392Z</time></trkpt><trkpt lon="34.868665" lat="31.724748"><ele>157.9</ele><time>2018-04-04T12:27:43.392Z</time></trkpt><trkpt lon="34.868687" lat="31.724767"><ele>157.9</ele><time>2018-04-04T12:27:44.392Z</time></trkpt><trkpt lon="34.868707" lat="31.724787"><ele>157.9</ele><time>2018-04-04T12:27:45.392Z</time></trkpt><trkpt lon="34.868717" lat="31.724805"><ele>156.8</ele><time>2018-04-04T12:27:46.392Z</time></trkpt><trkpt lon="34.868727" lat="31.724827"><ele>156.8</ele><time>2018-04-04T12:27:47.392Z</time></trkpt><trkpt lon="34.868737" lat="31.724848"><ele>156.8</ele><time>2018-04-04T12:27:48.392Z</time></trkpt><trkpt lon="34.868748" lat="31.72487"><ele>156.8</ele><time>2018-04-04T12:27:49.392Z</time></trkpt><trkpt lon="34.868763" lat="31.72489"><ele>156.8</ele><time>2018-04-04T12:27:50.392Z</time></trkpt><trkpt lon="34.868775" lat="31.724912"><ele>156.8</ele><time>2018-04-04T12:27:51.392Z</time></trkpt><trkpt lon="34.868787" lat="31.724933"><ele>156.8</ele><time>2018-04-04T12:27:52.392Z</time></trkpt><trkpt lon="34.8688" lat="31.724955"><ele>156.8</ele><time>2018-04-04T12:27:53.392Z</time></trkpt><trkpt lon="34.868807" lat="31.724982"><ele>156.8</ele><time>2018-04-04T12:27:54.392Z</time></trkpt><trkpt lon="34.868808" lat="31.725008"><ele>156.8</ele><time>2018-04-04T12:27:55.392Z</time></trkpt><trkpt lon="34.868808" lat="31.725033"><ele>156.8</ele><time>2018-04-04T12:27:56.392Z</time></trkpt><trkpt lon="34.868813" lat="31.725057"><ele>156.8</ele><time>2018-04-04T12:27:57.392Z</time></trkpt><trkpt lon="34.86882" lat="31.725085"><ele>155.9</ele><time>2018-04-04T12:27:58.392Z</time></trkpt><trkpt lon="34.868828" lat="31.725112"><ele>155.9</ele><time>2018-04-04T12:27:59.392Z</time></trkpt><trkpt lon="34.868843" lat="31.725137"><ele>155.9</ele><time>2018-04-04T12:28:00.392Z</time></trkpt><trkpt lon="34.868858" lat="31.725158"><ele>155.9</ele><time>2018-04-04T12:28:01.392Z</time></trkpt><trkpt lon="34.868872" lat="31.725178"><ele>155.9</ele><time>2018-04-04T12:28:02.392Z</time></trkpt><trkpt lon="34.86888" lat="31.725198"><ele>155.9</ele><time>2018-04-04T12:28:03.392Z</time></trkpt><trkpt lon="34.868885" lat="31.725218"><ele>155.9</ele><time>2018-04-04T12:28:04.392Z</time></trkpt><trkpt lon="34.86889" lat="31.725238"><ele>155.9</ele><time>2018-04-04T12:28:05.392Z</time></trkpt><trkpt lon="34.868897" lat="31.725253"><ele>155.9</ele><time>2018-04-04T12:28:06.392Z</time></trkpt><trkpt lon="34.8689" lat="31.725273"><ele>155.9</ele><time>2018-04-04T12:28:07.392Z</time></trkpt><trkpt lon="34.868902" lat="31.725298"><ele>154.8</ele><time>2018-04-04T12:28:08.392Z</time></trkpt><trkpt lon="34.8689" lat="31.725328"><ele>154.8</ele><time>2018-04-04T12:28:09.392Z</time></trkpt><trkpt lon="34.868903" lat="31.72536"><ele>154.8</ele><time>2018-04-04T12:28:10.392Z</time></trkpt><trkpt lon="34.868913" lat="31.72539"><ele>154.8</ele><time>2018-04-04T12:28:11.392Z</time></trkpt><trkpt lon="34.868927" lat="31.725423"><ele>154.8</ele><time>2018-04-04T12:28:12.392Z</time></trkpt><trkpt lon="34.868943" lat="31.72546"><ele>154.8</ele><time>2018-04-04T12:28:13.392Z</time></trkpt><trkpt lon="34.86896" lat="31.725502"><ele>154.8</ele><time>2018-04-04T12:28:14.392Z</time></trkpt><trkpt lon="34.868982" lat="31.72554"><ele>154.8</ele><time>2018-04-04T12:28:15.392Z</time></trkpt><trkpt lon="34.869003" lat="31.725577"><ele>152.9</ele><time>2018-04-04T12:28:16.392Z</time></trkpt><trkpt lon="34.869025" lat="31.725612"><ele>152.9</ele><time>2018-04-04T12:28:17.392Z</time></trkpt><trkpt lon="34.869045" lat="31.72564"><ele>153.9</ele><time>2018-04-04T12:28:18.392Z</time></trkpt><trkpt lon="34.869063" lat="31.72566"><ele>153.9</ele><time>2018-04-04T12:28:19.392Z</time></trkpt><trkpt lon="34.869078" lat="31.725677"><ele>154.8</ele><time>2018-04-04T12:28:20.392Z</time></trkpt><trkpt lon="34.869097" lat="31.725687"><ele>154.8</ele><time>2018-04-04T12:28:21.392Z</time></trkpt><trkpt lon="34.869117" lat="31.725697"><ele>154.8</ele><time>2018-04-04T12:28:22.392Z</time></trkpt><trkpt lon="34.869133" lat="31.725708"><ele>154.8</ele><time>2018-04-04T12:28:23.392Z</time></trkpt><trkpt lon="34.869143" lat="31.725722"><ele>155.9</ele><time>2018-04-04T12:28:24.392Z</time></trkpt><trkpt lon="34.86915" lat="31.725735"><ele>155.9</ele><time>2018-04-04T12:28:25.392Z</time></trkpt><trkpt lon="34.869155" lat="31.725752"><ele>155.9</ele><time>2018-04-04T12:28:26.392Z</time></trkpt><trkpt lon="34.869153" lat="31.725772"><ele>155.9</ele><time>2018-04-04T12:28:27.392Z</time></trkpt><trkpt lon="34.869147" lat="31.725793"><ele>155.9</ele><time>2018-04-04T12:28:28.392Z</time></trkpt><trkpt lon="34.869138" lat="31.725815"><ele>155.9</ele><time>2018-04-04T12:28:29.392Z</time></trkpt><trkpt lon="34.869132" lat="31.725838"><ele>155.9</ele><time>2018-04-04T12:28:30.392Z</time></trkpt><trkpt lon="34.869132" lat="31.725858"><ele>155.9</ele><time>2018-04-04T12:28:31.392Z</time></trkpt><trkpt lon="34.869133" lat="31.725875"><ele>155.9</ele><time>2018-04-04T12:28:32.392Z</time></trkpt><trkpt lon="34.86914" lat="31.725893"><ele>155.9</ele><time>2018-04-04T12:28:33.392Z</time></trkpt><trkpt lon="34.86915" lat="31.72591"><ele>155.9</ele><time>2018-04-04T12:28:34.392Z</time></trkpt><trkpt lon="34.869157" lat="31.725922"><ele>155.9</ele><time>2018-04-04T12:28:35.392Z</time></trkpt><trkpt lon="34.869162" lat="31.725933"><ele>155.9</ele><time>2018-04-04T12:28:36.392Z</time></trkpt><trkpt lon="34.869163" lat="31.725947"><ele>155.9</ele><time>2018-04-04T12:28:37.392Z</time></trkpt><trkpt lon="34.86916" lat="31.725962"><ele>155.9</ele><time>2018-04-04T12:28:38.392Z</time></trkpt><trkpt lon="34.86916" lat="31.72598"><ele>155.9</ele><time>2018-04-04T12:28:39.392Z</time></trkpt><trkpt lon="34.869153" lat="31.725995"><ele>155.9</ele><time>2018-04-04T12:28:40.392Z</time></trkpt><trkpt lon="34.869143" lat="31.726012"><ele>155.9</ele><time>2018-04-04T12:28:41.392Z</time></trkpt><trkpt lon="34.869137" lat="31.726032"><ele>155.9</ele><time>2018-04-04T12:28:42.392Z</time></trkpt><trkpt lon="34.869133" lat="31.726055"><ele>155.9</ele><time>2018-04-04T12:28:43.392Z</time></trkpt><trkpt lon="34.869137" lat="31.726078"><ele>155.9</ele><time>2018-04-04T12:28:44.392Z</time></trkpt><trkpt lon="34.869137" lat="31.726098"><ele>155.9</ele><time>2018-04-04T12:28:45.392Z</time></trkpt><trkpt lon="34.869135" lat="31.726117"><ele>155.9</ele><time>2018-04-04T12:28:46.392Z</time></trkpt><trkpt lon="34.869135" lat="31.726132"><ele>155.9</ele><time>2018-04-04T12:28:47.392Z</time></trkpt><trkpt lon="34.869133" lat="31.726152"><ele>155.9</ele><time>2018-04-04T12:28:48.392Z</time></trkpt><trkpt lon="34.869133" lat="31.72617"><ele>155.9</ele><time>2018-04-04T12:28:49.392Z</time></trkpt><trkpt lon="34.869133" lat="31.72619"><ele>155.9</ele><time>2018-04-04T12:28:50.392Z</time></trkpt><trkpt lon="34.869138" lat="31.726207"><ele>155.9</ele><time>2018-04-04T12:28:51.392Z</time></trkpt><trkpt lon="34.86915" lat="31.726222"><ele>155.9</ele><time>2018-04-04T12:28:52.392Z</time></trkpt><trkpt lon="34.869168" lat="31.726235"><ele>155.9</ele><time>2018-04-04T12:28:53.392Z</time></trkpt><trkpt lon="34.869185" lat="31.726247"><ele>155.9</ele><time>2018-04-04T12:28:54.392Z</time></trkpt><trkpt lon="34.869202" lat="31.72626"><ele>155.9</ele><time>2018-04-04T12:28:55.392Z</time></trkpt><trkpt lon="34.869215" lat="31.726277"><ele>155.9</ele><time>2018-04-04T12:28:56.392Z</time></trkpt><trkpt lon="34.869223" lat="31.726295"><ele>155.9</ele><time>2018-04-04T12:28:57.392Z</time></trkpt><trkpt lon="34.86923" lat="31.726315"><ele>155.9</ele><time>2018-04-04T12:28:58.392Z</time></trkpt><trkpt lon="34.869238" lat="31.726333"><ele>155.9</ele><time>2018-04-04T12:28:59.392Z</time></trkpt><trkpt lon="34.869248" lat="31.72635"><ele>156.8</ele><time>2018-04-04T12:29:00.392Z</time></trkpt><trkpt lon="34.869258" lat="31.726365"><ele>156.8</ele><time>2018-04-04T12:29:01.392Z</time></trkpt><trkpt lon="34.869267" lat="31.72638"><ele>156.8</ele><time>2018-04-04T12:29:02.392Z</time></trkpt><trkpt lon="34.869277" lat="31.726392"><ele>156.8</ele><time>2018-04-04T12:29:03.392Z</time></trkpt><trkpt lon="34.869292" lat="31.726402"><ele>157.9</ele><time>2018-04-04T12:29:04.392Z</time></trkpt><trkpt lon="34.86931" lat="31.72641"><ele>157.9</ele><time>2018-04-04T12:29:05.392Z</time></trkpt><trkpt lon="34.869328" lat="31.72642"><ele>157.9</ele><time>2018-04-04T12:29:06.392Z</time></trkpt><trkpt lon="34.869345" lat="31.726432"><ele>157.9</ele><time>2018-04-04T12:29:07.392Z</time></trkpt><trkpt lon="34.869357" lat="31.726448"><ele>157.9</ele><time>2018-04-04T12:29:08.392Z</time></trkpt><trkpt lon="34.869362" lat="31.726468"><ele>157.9</ele><time>2018-04-04T12:29:09.392Z</time></trkpt><trkpt lon="34.869368" lat="31.726487"><ele>157.9</ele><time>2018-04-04T12:29:10.392Z</time></trkpt><trkpt lon="34.869373" lat="31.726507"><ele>157.9</ele><time>2018-04-04T12:29:11.392Z</time></trkpt><trkpt lon="34.869378" lat="31.726527"><ele>157.9</ele><time>2018-04-04T12:29:12.392Z</time></trkpt><trkpt lon="34.869382" lat="31.72655"><ele>157.9</ele><time>2018-04-04T12:29:13.392Z</time></trkpt><trkpt lon="34.869383" lat="31.726575"><ele>157.9</ele><time>2018-04-04T12:29:14.392Z</time></trkpt><trkpt lon="34.869385" lat="31.726603"><ele>157.9</ele><time>2018-04-04T12:29:15.392Z</time></trkpt><trkpt lon="34.869388" lat="31.726628"><ele>157.9</ele><time>2018-04-04T12:29:16.392Z</time></trkpt><trkpt lon="34.869393" lat="31.726657"><ele>157.9</ele><time>2018-04-04T12:29:17.392Z</time></trkpt><trkpt lon="34.869398" lat="31.726687"><ele>157.9</ele><time>2018-04-04T12:29:18.392Z</time></trkpt><trkpt lon="34.869403" lat="31.72672"><ele>157.9</ele><time>2018-04-04T12:29:19.392Z</time></trkpt><trkpt lon="34.869408" lat="31.726755"><ele>157.9</ele><time>2018-04-04T12:29:20.392Z</time></trkpt><trkpt lon="34.869413" lat="31.72679"><ele>157.9</ele><time>2018-04-04T12:29:21.392Z</time></trkpt><trkpt lon="34.869423" lat="31.726825"><ele>156.8</ele><time>2018-04-04T12:29:22.392Z</time></trkpt><trkpt lon="34.869438" lat="31.726858"><ele>156.8</ele><time>2018-04-04T12:29:23.392Z</time></trkpt><trkpt lon="34.869458" lat="31.726892"><ele>156.8</ele><time>2018-04-04T12:29:24.392Z</time></trkpt><trkpt lon="34.86948" lat="31.726927"><ele>156.8</ele><time>2018-04-04T12:29:25.392Z</time></trkpt><trkpt lon="34.869497" lat="31.726965"><ele>155.9</ele><time>2018-04-04T12:29:26.392Z</time></trkpt><trkpt lon="34.86951" lat="31.727008"><ele>155.9</ele><time>2018-04-04T12:29:27.392Z</time></trkpt><trkpt lon="34.869518" lat="31.727055"><ele>155.9</ele><time>2018-04-04T12:29:28.392Z</time></trkpt><trkpt lon="34.869515" lat="31.727105"><ele>155.9</ele><time>2018-04-04T12:29:29.392Z</time></trkpt><trkpt lon="34.869503" lat="31.727155"><ele>154.8</ele><time>2018-04-04T12:29:30.392Z</time></trkpt><trkpt lon="34.86949" lat="31.727203"><ele>154.8</ele><time>2018-04-04T12:29:31.392Z</time></trkpt><trkpt lon="34.869473" lat="31.727248"><ele>154.8</ele><time>2018-04-04T12:29:32.392Z</time></trkpt><trkpt lon="34.869453" lat="31.72728"><ele>154.8</ele><time>2018-04-04T12:29:33.392Z</time></trkpt><trkpt lon="34.86943" lat="31.727307"><ele>154.8</ele><time>2018-04-04T12:29:34.392Z</time></trkpt><trkpt lon="34.869398" lat="31.727323"><ele>154.8</ele><time>2018-04-04T12:29:35.392Z</time></trkpt><trkpt lon="34.86936" lat="31.727332"><ele>153.9</ele><time>2018-04-04T12:29:36.392Z</time></trkpt><trkpt lon="34.869315" lat="31.727335"><ele>153.9</ele><time>2018-04-04T12:29:37.392Z</time></trkpt><trkpt lon="34.869262" lat="31.727327"><ele>152.9</ele><time>2018-04-04T12:29:38.392Z</time></trkpt><trkpt lon="34.869195" lat="31.727305"><ele>152.9</ele><time>2018-04-04T12:29:39.392Z</time></trkpt><trkpt lon="34.869127" lat="31.727287"><ele>152.9</ele><time>2018-04-04T12:29:40.392Z</time></trkpt><trkpt lon="34.86906" lat="31.727268"><ele>152.9</ele><time>2018-04-04T12:29:41.392Z</time></trkpt><trkpt lon="34.868993" lat="31.727253"><ele>152.9</ele><time>2018-04-04T12:29:42.392Z</time></trkpt><trkpt lon="34.868933" lat="31.727243"><ele>152.9</ele><time>2018-04-04T12:29:43.392Z</time></trkpt><trkpt lon="34.868878" lat="31.727235"><ele>152.9</ele><time>2018-04-04T12:29:44.392Z</time></trkpt><trkpt lon="34.868825" lat="31.727228"><ele>152.9</ele><time>2018-04-04T12:29:45.392Z</time></trkpt><trkpt lon="34.868775" lat="31.727223"><ele>152.9</ele><time>2018-04-04T12:29:46.392Z</time></trkpt><trkpt lon="34.868727" lat="31.727223"><ele>152.9</ele><time>2018-04-04T12:29:47.392Z</time></trkpt><trkpt lon="34.868677" lat="31.727228"><ele>151.9</ele><time>2018-04-04T12:29:48.392Z</time></trkpt><trkpt lon="34.868627" lat="31.727235"><ele>151.9</ele><time>2018-04-04T12:29:49.392Z</time></trkpt><trkpt lon="34.868573" lat="31.72724"><ele>151.9</ele><time>2018-04-04T12:29:50.392Z</time></trkpt><trkpt lon="34.868522" lat="31.727243"><ele>151.9</ele><time>2018-04-04T12:29:51.392Z</time></trkpt><trkpt lon="34.868468" lat="31.727243"><ele>151.9</ele><time>2018-04-04T12:29:52.392Z</time></trkpt><trkpt lon="34.868413" lat="31.727242"><ele>151.9</ele><time>2018-04-04T12:29:53.392Z</time></trkpt><trkpt lon="34.86836" lat="31.727237"><ele>151.9</ele><time>2018-04-04T12:29:54.392Z</time></trkpt><trkpt lon="34.868308" lat="31.727225"><ele>151.9</ele><time>2018-04-04T12:29:55.392Z</time></trkpt><trkpt lon="34.868263" lat="31.72721"><ele>151.9</ele><time>2018-04-04T12:29:56.392Z</time></trkpt><trkpt lon="34.86822" lat="31.727197"><ele>151.9</ele><time>2018-04-04T12:29:57.392Z</time></trkpt><trkpt lon="34.86818" lat="31.727183"><ele>151.9</ele><time>2018-04-04T12:29:58.392Z</time></trkpt><trkpt lon="34.86814" lat="31.727173"><ele>151.9</ele><time>2018-04-04T12:29:59.392Z</time></trkpt><trkpt lon="34.868105" lat="31.727163"><ele>151.9</ele><time>2018-04-04T12:30:00.392Z</time></trkpt><trkpt lon="34.868077" lat="31.727147"><ele>151.9</ele><time>2018-04-04T12:30:01.392Z</time></trkpt><trkpt lon="34.868053" lat="31.727125"><ele>151.9</ele><time>2018-04-04T12:30:02.392Z</time></trkpt><trkpt lon="34.868035" lat="31.727105"><ele>151.9</ele><time>2018-04-04T12:30:03.392Z</time></trkpt><trkpt lon="34.868022" lat="31.727082"><ele>152.9</ele><time>2018-04-04T12:30:04.392Z</time></trkpt><trkpt lon="34.86801" lat="31.72706"><ele>152.9</ele><time>2018-04-04T12:30:05.392Z</time></trkpt><trkpt lon="34.868008" lat="31.727038"><ele>152.9</ele><time>2018-04-04T12:30:06.392Z</time></trkpt><trkpt lon="34.868008" lat="31.727017"><ele>152.9</ele><time>2018-04-04T12:30:07.392Z</time></trkpt><trkpt lon="34.868003" lat="31.726995"><ele>152.9</ele><time>2018-04-04T12:30:08.392Z</time></trkpt><trkpt lon="34.867997" lat="31.726972"><ele>152.9</ele><time>2018-04-04T12:30:09.392Z</time></trkpt><trkpt lon="34.867988" lat="31.726947"><ele>152.9</ele><time>2018-04-04T12:30:10.392Z</time></trkpt><trkpt lon="34.867988" lat="31.726922"><ele>152.9</ele><time>2018-04-04T12:30:11.392Z</time></trkpt><trkpt lon="34.867985" lat="31.726897"><ele>152.9</ele><time>2018-04-04T12:30:12.392Z</time></trkpt><trkpt lon="34.867978" lat="31.72687"><ele>152.9</ele><time>2018-04-04T12:30:13.392Z</time></trkpt><trkpt lon="34.86797" lat="31.726848"><ele>152.9</ele><time>2018-04-04T12:30:14.392Z</time></trkpt><trkpt lon="34.867962" lat="31.726827"><ele>152.9</ele><time>2018-04-04T12:30:15.392Z</time></trkpt><trkpt lon="34.867953" lat="31.726807"><ele>153.9</ele><time>2018-04-04T12:30:16.392Z</time></trkpt><trkpt lon="34.867943" lat="31.726787"><ele>153.9</ele><time>2018-04-04T12:30:17.392Z</time></trkpt><trkpt lon="34.867927" lat="31.726768"><ele>153.9</ele><time>2018-04-04T12:30:18.392Z</time></trkpt><trkpt lon="34.867913" lat="31.726752"><ele>153.9</ele><time>2018-04-04T12:30:19.392Z</time></trkpt><trkpt lon="34.867907" lat="31.726735"><ele>153.9</ele><time>2018-04-04T12:30:20.392Z</time></trkpt><trkpt lon="34.8679" lat="31.726718"><ele>153.9</ele><time>2018-04-04T12:30:21.392Z</time></trkpt><trkpt lon="34.867888" lat="31.7267"><ele>154.8</ele><time>2018-04-04T12:30:22.392Z</time></trkpt><trkpt lon="34.867873" lat="31.726685"><ele>154.8</ele><time>2018-04-04T12:30:23.392Z</time></trkpt><trkpt lon="34.867867" lat="31.726667"><ele>154.8</ele><time>2018-04-04T12:30:24.392Z</time></trkpt><trkpt lon="34.867858" lat="31.726648"><ele>154.8</ele><time>2018-04-04T12:30:25.392Z</time></trkpt><trkpt lon="34.867853" lat="31.726628"><ele>154.8</ele><time>2018-04-04T12:30:26.392Z</time></trkpt><trkpt lon="34.867852" lat="31.726608"><ele>154.8</ele><time>2018-04-04T12:30:27.392Z</time></trkpt><trkpt lon="34.867852" lat="31.726585"><ele>154.8</ele><time>2018-04-04T12:30:28.392Z</time></trkpt><trkpt lon="34.867848" lat="31.726562"><ele>154.8</ele><time>2018-04-04T12:30:29.392Z</time></trkpt><trkpt lon="34.867838" lat="31.726542"><ele>154.8</ele><time>2018-04-04T12:30:30.392Z</time></trkpt><trkpt lon="34.867827" lat="31.726527"><ele>154.8</ele><time>2018-04-04T12:30:31.392Z</time></trkpt><trkpt lon="34.86781" lat="31.726515"><ele>154.8</ele><time>2018-04-04T12:30:32.392Z</time></trkpt><trkpt lon="34.867798" lat="31.7265"><ele>154.8</ele><time>2018-04-04T12:30:33.392Z</time></trkpt><trkpt lon="34.86779" lat="31.726483"><ele>154.8</ele><time>2018-04-04T12:30:34.392Z</time></trkpt><trkpt lon="34.867787" lat="31.726467"><ele>154.8</ele><time>2018-04-04T12:30:35.392Z</time></trkpt><trkpt lon="34.867783" lat="31.72645"><ele>154.8</ele><time>2018-04-04T12:30:36.392Z</time></trkpt><trkpt lon="34.867778" lat="31.726433"><ele>154.8</ele><time>2018-04-04T12:30:37.392Z</time></trkpt><trkpt lon="34.867767" lat="31.726413"><ele>154.8</ele><time>2018-04-04T12:30:38.392Z</time></trkpt><trkpt lon="34.867753" lat="31.726393"><ele>154.8</ele><time>2018-04-04T12:30:39.392Z</time></trkpt><trkpt lon="34.867743" lat="31.726375"><ele>154.8</ele><time>2018-04-04T12:30:40.392Z</time></trkpt><trkpt lon="34.867733" lat="31.726357"><ele>154.8</ele><time>2018-04-04T12:30:41.392Z</time></trkpt><trkpt lon="34.867723" lat="31.726342"><ele>155.9</ele><time>2018-04-04T12:30:42.392Z</time></trkpt><trkpt lon="34.867712" lat="31.726327"><ele>155.9</ele><time>2018-04-04T12:30:43.392Z</time></trkpt><trkpt lon="34.8677" lat="31.726312"><ele>155.9</ele><time>2018-04-04T12:30:44.392Z</time></trkpt><trkpt lon="34.867687" lat="31.726295"><ele>155.9</ele><time>2018-04-04T12:30:45.392Z</time></trkpt><trkpt lon="34.867677" lat="31.72628"><ele>155.9</ele><time>2018-04-04T12:30:46.392Z</time></trkpt><trkpt lon="34.867667" lat="31.726263"><ele>155.9</ele><time>2018-04-04T12:30:47.392Z</time></trkpt><trkpt lon="34.867658" lat="31.726245"><ele>155.9</ele><time>2018-04-04T12:30:48.392Z</time></trkpt><trkpt lon="34.867648" lat="31.726225"><ele>155.9</ele><time>2018-04-04T12:30:49.392Z</time></trkpt><trkpt lon="34.867638" lat="31.726203"><ele>155.9</ele><time>2018-04-04T12:30:50.392Z</time></trkpt><trkpt lon="34.86763" lat="31.726183"><ele>155.9</ele><time>2018-04-04T12:30:51.392Z</time></trkpt><trkpt lon="34.867623" lat="31.726163"><ele>155.9</ele><time>2018-04-04T12:30:52.392Z</time></trkpt><trkpt lon="34.867618" lat="31.72614"><ele>155.9</ele><time>2018-04-04T12:30:53.392Z</time></trkpt><trkpt lon="34.867608" lat="31.726115"><ele>155.9</ele><time>2018-04-04T12:30:54.392Z</time></trkpt><trkpt lon="34.867598" lat="31.72609"><ele>155.9</ele><time>2018-04-04T12:30:55.392Z</time></trkpt><trkpt lon="34.867588" lat="31.726063"><ele>154.8</ele><time>2018-04-04T12:30:56.392Z</time></trkpt><trkpt lon="34.867575" lat="31.726038"><ele>154.8</ele><time>2018-04-04T12:30:57.392Z</time></trkpt><trkpt lon="34.86756" lat="31.726017"><ele>154.8</ele><time>2018-04-04T12:30:58.392Z</time></trkpt><trkpt lon="34.867548" lat="31.725997"><ele>154.8</ele><time>2018-04-04T12:30:59.392Z</time></trkpt><trkpt lon="34.867542" lat="31.725975"><ele>154.8</ele><time>2018-04-04T12:31:00.392Z</time></trkpt><trkpt lon="34.867533" lat="31.725955"><ele>154.8</ele><time>2018-04-04T12:31:01.392Z</time></trkpt><trkpt lon="34.86752" lat="31.725937"><ele>154.8</ele><time>2018-04-04T12:31:02.392Z</time></trkpt><trkpt lon="34.867505" lat="31.72592"><ele>154.8</ele><time>2018-04-04T12:31:03.392Z</time></trkpt><trkpt lon="34.86749" lat="31.725903"><ele>154.8</ele><time>2018-04-04T12:31:04.392Z</time></trkpt><trkpt lon="34.867475" lat="31.725887"><ele>154.8</ele><time>2018-04-04T12:31:05.392Z</time></trkpt><trkpt lon="34.867462" lat="31.72587"><ele>154.8</ele><time>2018-04-04T12:31:06.392Z</time></trkpt><trkpt lon="34.867448" lat="31.72585"><ele>154.8</ele><time>2018-04-04T12:31:07.392Z</time></trkpt><trkpt lon="34.86743" lat="31.72583"><ele>154.8</ele><time>2018-04-04T12:31:08.392Z</time></trkpt><trkpt lon="34.86741" lat="31.725808"><ele>154.8</ele><time>2018-04-04T12:31:09.392Z</time></trkpt><trkpt lon="34.867392" lat="31.725788"><ele>154.8</ele><time>2018-04-04T12:31:10.392Z</time></trkpt><trkpt lon="34.867372" lat="31.725767"><ele>154.8</ele><time>2018-04-04T12:31:11.392Z</time></trkpt><trkpt lon="34.867348" lat="31.725748"><ele>154.8</ele><time>2018-04-04T12:31:12.392Z</time></trkpt><trkpt lon="34.867325" lat="31.725728"><ele>154.8</ele><time>2018-04-04T12:31:13.392Z</time></trkpt><trkpt lon="34.867303" lat="31.72571"><ele>154.8</ele><time>2018-04-04T12:31:14.392Z</time></trkpt><trkpt lon="34.867278" lat="31.725698"><ele>154.8</ele><time>2018-04-04T12:31:15.392Z</time></trkpt><trkpt lon="34.867253" lat="31.72569"><ele>155.9</ele><time>2018-04-04T12:31:16.392Z</time></trkpt><trkpt lon="34.867233" lat="31.72568"><ele>155.9</ele><time>2018-04-04T12:31:17.392Z</time></trkpt><trkpt lon="34.867215" lat="31.72567"><ele>155.9</ele><time>2018-04-04T12:31:18.392Z</time></trkpt><trkpt lon="34.867193" lat="31.725655"><ele>155.9</ele><time>2018-04-04T12:31:19.392Z</time></trkpt><trkpt lon="34.867172" lat="31.72564"><ele>155.9</ele><time>2018-04-04T12:31:20.392Z</time></trkpt><trkpt lon="34.86715" lat="31.725623"><ele>155.9</ele><time>2018-04-04T12:31:21.392Z</time></trkpt><trkpt lon="34.86713" lat="31.725605"><ele>155.9</ele><time>2018-04-04T12:31:22.392Z</time></trkpt><trkpt lon="34.86711" lat="31.725583"><ele>155.9</ele><time>2018-04-04T12:31:23.392Z</time></trkpt><trkpt lon="34.867092" lat="31.725562"><ele>155.9</ele><time>2018-04-04T12:31:24.392Z</time></trkpt><trkpt lon="34.867072" lat="31.725538"><ele>155.9</ele><time>2018-04-04T12:31:25.392Z</time></trkpt><trkpt lon="34.867047" lat="31.725513"><ele>155.9</ele><time>2018-04-04T12:31:26.392Z</time></trkpt><trkpt lon="34.86702" lat="31.725488"><ele>155.9</ele><time>2018-04-04T12:31:27.392Z</time></trkpt><trkpt lon="34.866993" lat="31.725467"><ele>155.9</ele><time>2018-04-04T12:31:28.392Z</time></trkpt><trkpt lon="34.866967" lat="31.725447"><ele>155.9</ele><time>2018-04-04T12:31:29.392Z</time></trkpt><trkpt lon="34.86694" lat="31.72543"><ele>155.9</ele><time>2018-04-04T12:31:30.392Z</time></trkpt><trkpt lon="34.866915" lat="31.725413"><ele>155.9</ele><time>2018-04-04T12:31:31.392Z</time></trkpt><trkpt lon="34.86689" lat="31.7254"><ele>155.9</ele><time>2018-04-04T12:31:32.392Z</time></trkpt><trkpt lon="34.866863" lat="31.725387"><ele>155.9</ele><time>2018-04-04T12:31:33.392Z</time></trkpt><trkpt lon="34.866835" lat="31.725368"><ele>155.9</ele><time>2018-04-04T12:31:34.392Z</time></trkpt><trkpt lon="34.866808" lat="31.72535"><ele>155.9</ele><time>2018-04-04T12:31:35.392Z</time></trkpt><trkpt lon="34.86678" lat="31.725335"><ele>155.9</ele><time>2018-04-04T12:31:36.392Z</time></trkpt><trkpt lon="34.866748" lat="31.725322"><ele>155.9</ele><time>2018-04-04T12:31:37.392Z</time></trkpt><trkpt lon="34.866715" lat="31.72531"><ele>155.9</ele><time>2018-04-04T12:31:38.392Z</time></trkpt><trkpt lon="34.866678" lat="31.7253"><ele>155.9</ele><time>2018-04-04T12:31:39.392Z</time></trkpt><trkpt lon="34.866642" lat="31.72529"><ele>155.9</ele><time>2018-04-04T12:31:40.392Z</time></trkpt><trkpt lon="34.866608" lat="31.725285"><ele>155.9</ele><time>2018-04-04T12:31:41.392Z</time></trkpt><trkpt lon="34.866573" lat="31.725285"><ele>155.9</ele><time>2018-04-04T12:31:42.392Z</time></trkpt><trkpt lon="34.86654" lat="31.725287"><ele>155.9</ele><time>2018-04-04T12:31:43.392Z</time></trkpt><trkpt lon="34.866513" lat="31.725288"><ele>155.9</ele><time>2018-04-04T12:31:44.392Z</time></trkpt><trkpt lon="34.866487" lat="31.725295"><ele>155.9</ele><time>2018-04-04T12:31:45.392Z</time></trkpt><trkpt lon="34.866462" lat="31.725303"><ele>155.9</ele><time>2018-04-04T12:31:46.392Z</time></trkpt><trkpt lon="34.866433" lat="31.725308"><ele>155.9</ele><time>2018-04-04T12:31:47.392Z</time></trkpt><trkpt lon="34.866408" lat="31.725312"><ele>156.8</ele><time>2018-04-04T12:31:48.392Z</time></trkpt><trkpt lon="34.866378" lat="31.72531"><ele>156.8</ele><time>2018-04-04T12:31:49.392Z</time></trkpt><trkpt lon="34.866345" lat="31.725303"><ele>156.8</ele><time>2018-04-04T12:31:50.392Z</time></trkpt><trkpt lon="34.86631" lat="31.725297"><ele>156.8</ele><time>2018-04-04T12:31:51.392Z</time></trkpt><trkpt lon="34.866277" lat="31.725293"><ele>156.8</ele><time>2018-04-04T12:31:52.392Z</time></trkpt><trkpt lon="34.866242" lat="31.72529"><ele>156.8</ele><time>2018-04-04T12:31:53.392Z</time></trkpt><trkpt lon="34.866207" lat="31.725292"><ele>156.8</ele><time>2018-04-04T12:31:54.392Z</time></trkpt><trkpt lon="34.866175" lat="31.7253"><ele>156.8</ele><time>2018-04-04T12:31:55.392Z</time></trkpt><trkpt lon="34.866152" lat="31.725312"><ele>156.8</ele><time>2018-04-04T12:31:56.392Z</time></trkpt><trkpt lon="34.866137" lat="31.725327"><ele>156.8</ele><time>2018-04-04T12:31:57.392Z</time></trkpt><trkpt lon="34.866132" lat="31.725342"><ele>157.9</ele><time>2018-04-04T12:31:58.392Z</time></trkpt><trkpt lon="34.866133" lat="31.725357"><ele>157.9</ele><time>2018-04-04T12:31:59.392Z</time></trkpt><trkpt lon="34.86614" lat="31.725368"><ele>157.9</ele><time>2018-04-04T12:32:00.392Z</time></trkpt><trkpt lon="34.866142" lat="31.725385"><ele>157.9</ele><time>2018-04-04T12:32:01.392Z</time></trkpt><trkpt lon="34.866132" lat="31.725403"><ele>158.8</ele><time>2018-04-04T12:32:02.392Z</time></trkpt><trkpt lon="34.866118" lat="31.72542"><ele>158.8</ele><time>2018-04-04T12:32:03.392Z</time></trkpt><trkpt lon="34.866103" lat="31.725437"><ele>158.8</ele><time>2018-04-04T12:32:04.392Z</time></trkpt><trkpt lon="34.866082" lat="31.725448"><ele>158.8</ele><time>2018-04-04T12:32:05.392Z</time></trkpt><trkpt lon="34.86606" lat="31.725453"><ele>158.8</ele><time>2018-04-04T12:32:06.392Z</time></trkpt><trkpt lon="34.866037" lat="31.72546"><ele>158.8</ele><time>2018-04-04T12:32:07.392Z</time></trkpt><trkpt lon="34.866012" lat="31.725465"><ele>159.9</ele><time>2018-04-04T12:32:08.392Z</time></trkpt><trkpt lon="34.865988" lat="31.725468"><ele>159.9</ele><time>2018-04-04T12:32:09.392Z</time></trkpt><trkpt lon="34.865965" lat="31.725467"><ele>159.9</ele><time>2018-04-04T12:32:10.392Z</time></trkpt><trkpt lon="34.865947" lat="31.725462"><ele>159.9</ele><time>2018-04-04T12:32:11.392Z</time></trkpt><trkpt lon="34.865923" lat="31.725453"><ele>159.9</ele><time>2018-04-04T12:32:12.392Z</time></trkpt><trkpt lon="34.8659" lat="31.725447"><ele>159.9</ele><time>2018-04-04T12:32:13.392Z</time></trkpt><trkpt lon="34.86588" lat="31.725445"><ele>159.9</ele><time>2018-04-04T12:32:14.392Z</time></trkpt><trkpt lon="34.865862" lat="31.725445"><ele>159.9</ele><time>2018-04-04T12:32:15.392Z</time></trkpt><trkpt lon="34.865845" lat="31.725448"><ele>159.9</ele><time>2018-04-04T12:32:16.392Z</time></trkpt><trkpt lon="34.865832" lat="31.725453"><ele>159.9</ele><time>2018-04-04T12:32:17.392Z</time></trkpt><trkpt lon="34.865822" lat="31.725458"><ele>159.9</ele><time>2018-04-04T12:32:18.392Z</time></trkpt><trkpt lon="34.865812" lat="31.725463"><ele>159.9</ele><time>2018-04-04T12:32:19.392Z</time></trkpt><trkpt lon="34.865797" lat="31.725468"><ele>159.9</ele><time>2018-04-04T12:32:20.392Z</time></trkpt><trkpt lon="34.865778" lat="31.725473"><ele>159.9</ele><time>2018-04-04T12:32:21.392Z</time></trkpt><trkpt lon="34.865758" lat="31.72548"><ele>159.9</ele><time>2018-04-04T12:32:22.392Z</time></trkpt><trkpt lon="34.865738" lat="31.725485"><ele>159.9</ele><time>2018-04-04T12:32:23.392Z</time></trkpt><trkpt lon="34.865717" lat="31.725493"><ele>159.9</ele><time>2018-04-04T12:32:24.392Z</time></trkpt><trkpt lon="34.865697" lat="31.725507"><ele>159.9</ele><time>2018-04-04T12:32:25.392Z</time></trkpt><trkpt lon="34.865678" lat="31.725523"><ele>159.9</ele><time>2018-04-04T12:32:26.392Z</time></trkpt><trkpt lon="34.865663" lat="31.725542"><ele>159.9</ele><time>2018-04-04T12:32:27.392Z</time></trkpt><trkpt lon="34.865652" lat="31.72556"><ele>159.9</ele><time>2018-04-04T12:32:28.392Z</time></trkpt><trkpt lon="34.865642" lat="31.72558"><ele>159.9</ele><time>2018-04-04T12:32:29.392Z</time></trkpt><trkpt lon="34.865632" lat="31.725597"><ele>159.9</ele><time>2018-04-04T12:32:30.392Z</time></trkpt><trkpt lon="34.86562" lat="31.72561"><ele>159.9</ele><time>2018-04-04T12:32:31.392Z</time></trkpt><trkpt lon="34.865605" lat="31.725627"><ele>159.9</ele><time>2018-04-04T12:32:32.392Z</time></trkpt><trkpt lon="34.865588" lat="31.725642"><ele>159.9</ele><time>2018-04-04T12:32:33.392Z</time></trkpt><trkpt lon="34.86557" lat="31.725657"><ele>160.9</ele><time>2018-04-04T12:32:34.392Z</time></trkpt><trkpt lon="34.865552" lat="31.725673"><ele>160.9</ele><time>2018-04-04T12:32:35.392Z</time></trkpt><trkpt lon="34.86553" lat="31.72569"><ele>160.9</ele><time>2018-04-04T12:32:36.392Z</time></trkpt><trkpt lon="34.865508" lat="31.725705"><ele>160.9</ele><time>2018-04-04T12:32:37.392Z</time></trkpt><trkpt lon="34.865485" lat="31.72572"><ele>160.9</ele><time>2018-04-04T12:32:38.392Z</time></trkpt><trkpt lon="34.865462" lat="31.725735"><ele>160.9</ele><time>2018-04-04T12:32:39.392Z</time></trkpt><trkpt lon="34.865435" lat="31.725753"><ele>160.9</ele><time>2018-04-04T12:32:40.392Z</time></trkpt><trkpt lon="34.865412" lat="31.725775"><ele>160.9</ele><time>2018-04-04T12:32:41.392Z</time></trkpt><trkpt lon="34.865392" lat="31.725795"><ele>160.9</ele><time>2018-04-04T12:32:42.392Z</time></trkpt><trkpt lon="34.865373" lat="31.725813"><ele>160.9</ele><time>2018-04-04T12:32:43.392Z</time></trkpt><trkpt lon="34.86536" lat="31.72583"><ele>160.9</ele><time>2018-04-04T12:32:44.392Z</time></trkpt><trkpt lon="34.865348" lat="31.725847"><ele>160.9</ele><time>2018-04-04T12:32:45.392Z</time></trkpt><trkpt lon="34.865338" lat="31.725863"><ele>160.9</ele><time>2018-04-04T12:32:46.392Z</time></trkpt><trkpt lon="34.865332" lat="31.725875"><ele>160.9</ele><time>2018-04-04T12:32:47.392Z</time></trkpt><trkpt lon="34.865328" lat="31.725887"><ele>160.9</ele><time>2018-04-04T12:32:48.392Z</time></trkpt><trkpt lon="34.865327" lat="31.7259"><ele>160.9</ele><time>2018-04-04T12:32:49.392Z</time></trkpt><trkpt lon="34.865323" lat="31.725912"><ele>160.9</ele><time>2018-04-04T12:32:50.392Z</time></trkpt><trkpt lon="34.86532" lat="31.725925"><ele>160.9</ele><time>2018-04-04T12:32:51.392Z</time></trkpt><trkpt lon="34.865317" lat="31.72594"><ele>160.9</ele><time>2018-04-04T12:32:52.392Z</time></trkpt><trkpt lon="34.86531" lat="31.725955"><ele>160.9</ele><time>2018-04-04T12:32:53.392Z</time></trkpt><trkpt lon="34.8653" lat="31.725972"><ele>160.9</ele><time>2018-04-04T12:32:54.392Z</time></trkpt><trkpt lon="34.865288" lat="31.725992"><ele>160.9</ele><time>2018-04-04T12:32:55.392Z</time></trkpt><trkpt lon="34.865275" lat="31.726012"><ele>160.9</ele><time>2018-04-04T12:32:56.392Z</time></trkpt><trkpt lon="34.865252" lat="31.726028"><ele>160.9</ele><time>2018-04-04T12:32:57.392Z</time></trkpt><trkpt lon="34.86523" lat="31.726043"><ele>160.9</ele><time>2018-04-04T12:32:58.392Z</time></trkpt><trkpt lon="34.865213" lat="31.726058"><ele>160.9</ele><time>2018-04-04T12:32:59.392Z</time></trkpt><trkpt lon="34.865198" lat="31.726077"><ele>160.9</ele><time>2018-04-04T12:33:00.392Z</time></trkpt><trkpt lon="34.865188" lat="31.726095"><ele>160.9</ele><time>2018-04-04T12:33:01.392Z</time></trkpt><trkpt lon="34.865178" lat="31.72611"><ele>160.9</ele><time>2018-04-04T12:33:02.392Z</time></trkpt><trkpt lon="34.865175" lat="31.726127"><ele>160.9</ele><time>2018-04-04T12:33:03.392Z</time></trkpt><trkpt lon="34.865168" lat="31.726145"><ele>160.9</ele><time>2018-04-04T12:33:04.392Z</time></trkpt><trkpt lon="34.865162" lat="31.726163"><ele>160.9</ele><time>2018-04-04T12:33:05.392Z</time></trkpt><trkpt lon="34.865158" lat="31.726182"><ele>160.9</ele><time>2018-04-04T12:33:06.392Z</time></trkpt><trkpt lon="34.865155" lat="31.726202"><ele>160.9</ele><time>2018-04-04T12:33:07.392Z</time></trkpt><trkpt lon="34.865152" lat="31.72622"><ele>160.9</ele><time>2018-04-04T12:33:08.392Z</time></trkpt><trkpt lon="34.865143" lat="31.726242"><ele>160.9</ele><time>2018-04-04T12:33:09.392Z</time></trkpt><trkpt lon="34.865135" lat="31.726262"><ele>160.9</ele><time>2018-04-04T12:33:10.392Z</time></trkpt><trkpt lon="34.86513" lat="31.72628"><ele>160.9</ele><time>2018-04-04T12:33:11.392Z</time></trkpt><trkpt lon="34.865123" lat="31.726293"><ele>160.9</ele><time>2018-04-04T12:33:12.392Z</time></trkpt><trkpt lon="34.865117" lat="31.726308"><ele>160.9</ele><time>2018-04-04T12:33:13.392Z</time></trkpt><trkpt lon="34.865115" lat="31.726322"><ele>160.9</ele><time>2018-04-04T12:33:14.392Z</time></trkpt><trkpt lon="34.865112" lat="31.726337"><ele>160.9</ele><time>2018-04-04T12:33:15.392Z</time></trkpt><trkpt lon="34.865108" lat="31.72635"><ele>160.9</ele><time>2018-04-04T12:33:16.392Z</time></trkpt><trkpt lon="34.865103" lat="31.726367"><ele>160.9</ele><time>2018-04-04T12:33:17.392Z</time></trkpt><trkpt lon="34.865098" lat="31.726382"><ele>160.9</ele><time>2018-04-04T12:33:18.392Z</time></trkpt><trkpt lon="34.865088" lat="31.726397"><ele>160.9</ele><time>2018-04-04T12:33:19.392Z</time></trkpt><trkpt lon="34.865085" lat="31.726413"><ele>160.9</ele><time>2018-04-04T12:33:20.392Z</time></trkpt><trkpt lon="34.86508" lat="31.72643"><ele>160.9</ele><time>2018-04-04T12:33:21.392Z</time></trkpt><trkpt lon="34.865068" lat="31.726447"><ele>160.9</ele><time>2018-04-04T12:33:22.392Z</time></trkpt><trkpt lon="34.86506" lat="31.726465"><ele>160.9</ele><time>2018-04-04T12:33:23.392Z</time></trkpt><trkpt lon="34.865047" lat="31.726483"><ele>160.9</ele><time>2018-04-04T12:33:24.392Z</time></trkpt><trkpt lon="34.865038" lat="31.726502"><ele>160.9</ele><time>2018-04-04T12:33:25.392Z</time></trkpt><trkpt lon="34.865032" lat="31.72652"><ele>160.9</ele><time>2018-04-04T12:33:26.392Z</time></trkpt><trkpt lon="34.865027" lat="31.726542"><ele>160.9</ele><time>2018-04-04T12:33:27.392Z</time></trkpt><trkpt lon="34.865022" lat="31.726567"><ele>160.9</ele><time>2018-04-04T12:33:28.392Z</time></trkpt><trkpt lon="34.865017" lat="31.726592"><ele>160.9</ele><time>2018-04-04T12:33:29.392Z</time></trkpt><trkpt lon="34.86501" lat="31.726617"><ele>160.9</ele><time>2018-04-04T12:33:30.392Z</time></trkpt><trkpt lon="34.865003" lat="31.72664"><ele>160.9</ele><time>2018-04-04T12:33:31.392Z</time></trkpt><trkpt lon="34.864992" lat="31.726665"><ele>160.9</ele><time>2018-04-04T12:33:32.392Z</time></trkpt><trkpt lon="34.864982" lat="31.726687"><ele>160.9</ele><time>2018-04-04T12:33:33.392Z</time></trkpt><trkpt lon="34.864973" lat="31.726708"><ele>160.9</ele><time>2018-04-04T12:33:34.392Z</time></trkpt><trkpt lon="34.864967" lat="31.72673"><ele>160.9</ele><time>2018-04-04T12:33:35.392Z</time></trkpt><trkpt lon="34.864963" lat="31.726748"><ele>160.9</ele><time>2018-04-04T12:33:36.392Z</time></trkpt><trkpt lon="34.864957" lat="31.726768"><ele>160.9</ele><time>2018-04-04T12:33:37.392Z</time></trkpt><trkpt lon="34.864947" lat="31.726787"><ele>160.9</ele><time>2018-04-04T12:33:38.392Z</time></trkpt><trkpt lon="34.864933" lat="31.726805"><ele>160.9</ele><time>2018-04-04T12:33:39.392Z</time></trkpt><trkpt lon="34.86492" lat="31.726818"><ele>160.9</ele><time>2018-04-04T12:33:40.392Z</time></trkpt><trkpt lon="34.864903" lat="31.726832"><ele>160.9</ele><time>2018-04-04T12:33:41.392Z</time></trkpt><trkpt lon="34.864882" lat="31.726847"><ele>159.9</ele><time>2018-04-04T12:33:42.392Z</time></trkpt><trkpt lon="34.864855" lat="31.726867"><ele>159.9</ele><time>2018-04-04T12:33:43.392Z</time></trkpt><trkpt lon="34.864822" lat="31.726893"><ele>159.9</ele><time>2018-04-04T12:33:44.392Z</time></trkpt><trkpt lon="34.864787" lat="31.726925"><ele>159.9</ele><time>2018-04-04T12:33:45.392Z</time></trkpt><trkpt lon="34.86475" lat="31.726958"><ele>158.8</ele><time>2018-04-04T12:33:46.392Z</time></trkpt><trkpt lon="34.864718" lat="31.726993"><ele>158.8</ele><time>2018-04-04T12:33:47.392Z</time></trkpt><trkpt lon="34.86469" lat="31.727027"><ele>158.8</ele><time>2018-04-04T12:33:48.392Z</time></trkpt><trkpt lon="34.864662" lat="31.727063"><ele>158.8</ele><time>2018-04-04T12:33:49.392Z</time></trkpt><trkpt lon="34.864633" lat="31.727098"><ele>158.8</ele><time>2018-04-04T12:33:50.392Z</time></trkpt><trkpt lon="34.864602" lat="31.727132"><ele>158.8</ele><time>2018-04-04T12:33:51.392Z</time></trkpt><trkpt lon="34.864568" lat="31.727162"><ele>158.8</ele><time>2018-04-04T12:33:52.392Z</time></trkpt><trkpt lon="34.864537" lat="31.72719"><ele>158.8</ele><time>2018-04-04T12:33:53.392Z</time></trkpt><trkpt lon="34.864503" lat="31.72722"><ele>158.8</ele><time>2018-04-04T12:33:54.392Z</time></trkpt><trkpt lon="34.864475" lat="31.727253"><ele>158.8</ele><time>2018-04-04T12:33:55.392Z</time></trkpt><trkpt lon="34.864448" lat="31.727287"><ele>157.9</ele><time>2018-04-04T12:33:56.392Z</time></trkpt><trkpt lon="34.864422" lat="31.72732"><ele>157.9</ele><time>2018-04-04T12:33:57.392Z</time></trkpt><trkpt lon="34.864393" lat="31.727353"><ele>157.9</ele><time>2018-04-04T12:33:58.392Z</time></trkpt><trkpt lon="34.864367" lat="31.727388"><ele>157.9</ele><time>2018-04-04T12:33:59.392Z</time></trkpt><trkpt lon="34.864347" lat="31.72742"><ele>157.9</ele><time>2018-04-04T12:34:00.392Z</time></trkpt><trkpt lon="34.864337" lat="31.727458"><ele>157.9</ele><time>2018-04-04T12:34:01.392Z</time></trkpt><trkpt lon="34.864327" lat="31.727493"><ele>157.9</ele><time>2018-04-04T12:34:02.392Z</time></trkpt><trkpt lon="34.864303" lat="31.727525"><ele>157.9</ele><time>2018-04-04T12:34:03.392Z</time></trkpt><trkpt lon="34.864273" lat="31.727553"><ele>157.9</ele><time>2018-04-04T12:34:04.392Z</time></trkpt><trkpt lon="34.864243" lat="31.727582"><ele>157.9</ele><time>2018-04-04T12:34:05.392Z</time></trkpt><trkpt lon="34.864215" lat="31.72761"><ele>157.9</ele><time>2018-04-04T12:34:06.392Z</time></trkpt><trkpt lon="34.864188" lat="31.727638"><ele>157.9</ele><time>2018-04-04T12:34:07.392Z</time></trkpt><trkpt lon="34.864167" lat="31.727668"><ele>158.8</ele><time>2018-04-04T12:34:08.392Z</time></trkpt><trkpt lon="34.864145" lat="31.7277"><ele>158.8</ele><time>2018-04-04T12:34:09.392Z</time></trkpt><trkpt lon="34.86412" lat="31.727728"><ele>158.8</ele><time>2018-04-04T12:34:10.392Z</time></trkpt><trkpt lon="34.86409" lat="31.727752"><ele>158.8</ele><time>2018-04-04T12:34:11.392Z</time></trkpt><trkpt lon="34.864062" lat="31.727775"><ele>158.8</ele><time>2018-04-04T12:34:12.392Z</time></trkpt><trkpt lon="34.86404" lat="31.727802"><ele>158.8</ele><time>2018-04-04T12:34:13.392Z</time></trkpt><trkpt lon="34.86402" lat="31.727832"><ele>158.8</ele><time>2018-04-04T12:34:14.392Z</time></trkpt><trkpt lon="34.864" lat="31.72786"><ele>158.8</ele><time>2018-04-04T12:34:15.392Z</time></trkpt><trkpt lon="34.863977" lat="31.727885"><ele>158.8</ele><time>2018-04-04T12:34:16.392Z</time></trkpt><trkpt lon="34.863948" lat="31.727903"><ele>158.8</ele><time>2018-04-04T12:34:17.392Z</time></trkpt><trkpt lon="34.863923" lat="31.727922"><ele>158.8</ele><time>2018-04-04T12:34:18.392Z</time></trkpt><trkpt lon="34.863898" lat="31.727935"><ele>158.8</ele><time>2018-04-04T12:34:19.392Z</time></trkpt><trkpt lon="34.863875" lat="31.727943"><ele>158.8</ele><time>2018-04-04T12:34:20.392Z</time></trkpt><trkpt lon="34.863855" lat="31.727947"><ele>158.8</ele><time>2018-04-04T12:34:21.392Z</time></trkpt><trkpt lon="34.863837" lat="31.727935"><ele>158.8</ele><time>2018-04-04T12:34:22.392Z</time></trkpt><trkpt lon="34.863807" lat="31.727912"><ele>158.8</ele><time>2018-04-04T12:34:23.392Z</time></trkpt><trkpt lon="34.863765" lat="31.727885"><ele>157.9</ele><time>2018-04-04T12:34:24.392Z</time></trkpt><trkpt lon="34.863718" lat="31.727855"><ele>157.9</ele><time>2018-04-04T12:34:25.392Z</time></trkpt><trkpt lon="34.863673" lat="31.727823"><ele>157.9</ele><time>2018-04-04T12:34:26.392Z</time></trkpt><trkpt lon="34.86362" lat="31.727788"><ele>157.9</ele><time>2018-04-04T12:34:27.392Z</time></trkpt><trkpt lon="34.86356" lat="31.727755"><ele>157.9</ele><time>2018-04-04T12:34:28.392Z</time></trkpt><trkpt lon="34.86349" lat="31.72772"><ele>157.9</ele><time>2018-04-04T12:34:29.392Z</time></trkpt><trkpt lon="34.863413" lat="31.727688"><ele>157.9</ele><time>2018-04-04T12:34:30.392Z</time></trkpt><trkpt lon="34.863338" lat="31.727653"><ele>157.9</ele><time>2018-04-04T12:34:31.392Z</time></trkpt><trkpt lon="34.863268" lat="31.727618"><ele>154.8</ele><time>2018-04-04T12:34:32.392Z</time></trkpt><trkpt lon="34.863203" lat="31.72758"><ele>154.8</ele><time>2018-04-04T12:34:33.392Z</time></trkpt><trkpt lon="34.863142" lat="31.72754"><ele>154.8</ele><time>2018-04-04T12:34:34.392Z</time></trkpt><trkpt lon="34.863097" lat="31.727495"><ele>154.8</ele><time>2018-04-04T12:34:35.392Z</time></trkpt><trkpt lon="34.863062" lat="31.727445"><ele>153.9</ele><time>2018-04-04T12:34:36.392Z</time></trkpt><trkpt lon="34.86304" lat="31.727392"><ele>153.9</ele><time>2018-04-04T12:34:37.392Z</time></trkpt><trkpt lon="34.863028" lat="31.727342"><ele>153.9</ele><time>2018-04-04T12:34:38.392Z</time></trkpt><trkpt lon="34.863025" lat="31.727292"><ele>153.9</ele><time>2018-04-04T12:34:39.392Z</time></trkpt><trkpt lon="34.863032" lat="31.727248"><ele>153.9</ele><time>2018-04-04T12:34:40.392Z</time></trkpt><trkpt lon="34.863043" lat="31.727207"><ele>153.9</ele><time>2018-04-04T12:34:41.392Z</time></trkpt><trkpt lon="34.86306" lat="31.727165"><ele>153.9</ele><time>2018-04-04T12:34:42.392Z</time></trkpt><trkpt lon="34.863073" lat="31.727123"><ele>153.9</ele><time>2018-04-04T12:34:43.392Z</time></trkpt><trkpt lon="34.863083" lat="31.727078"><ele>153.9</ele><time>2018-04-04T12:34:44.392Z</time></trkpt><trkpt lon="34.863093" lat="31.727035"><ele>153.9</ele><time>2018-04-04T12:34:45.392Z</time></trkpt><trkpt lon="34.863102" lat="31.726992"><ele>154.8</ele><time>2018-04-04T12:34:46.392Z</time></trkpt><trkpt lon="34.863108" lat="31.726953"><ele>154.8</ele><time>2018-04-04T12:34:47.392Z</time></trkpt><trkpt lon="34.863113" lat="31.726917"><ele>154.8</ele><time>2018-04-04T12:34:48.392Z</time></trkpt><trkpt lon="34.863117" lat="31.726885"><ele>154.8</ele><time>2018-04-04T12:34:49.392Z</time></trkpt><trkpt lon="34.863117" lat="31.726858"><ele>155.9</ele><time>2018-04-04T12:34:50.392Z</time></trkpt><trkpt lon="34.863113" lat="31.726838"><ele>155.9</ele><time>2018-04-04T12:34:51.392Z</time></trkpt><trkpt lon="34.863108" lat="31.72682"><ele>155.9</ele><time>2018-04-04T12:34:52.392Z</time></trkpt><trkpt lon="34.863103" lat="31.726802"><ele>155.9</ele><time>2018-04-04T12:34:53.392Z</time></trkpt><trkpt lon="34.863098" lat="31.726783"><ele>156.8</ele><time>2018-04-04T12:34:54.392Z</time></trkpt><trkpt lon="34.863098" lat="31.726762"><ele>156.8</ele><time>2018-04-04T12:34:55.392Z</time></trkpt><trkpt lon="34.863097" lat="31.72674"><ele>156.8</ele><time>2018-04-04T12:34:56.392Z</time></trkpt><trkpt lon="34.863095" lat="31.726718"><ele>156.8</ele><time>2018-04-04T12:34:57.392Z</time></trkpt><trkpt lon="34.86309" lat="31.7267"><ele>157.9</ele><time>2018-04-04T12:34:58.392Z</time></trkpt><trkpt lon="34.86308" lat="31.726685"><ele>157.9</ele><time>2018-04-04T12:34:59.392Z</time></trkpt><trkpt lon="34.863065" lat="31.726675"><ele>157.9</ele><time>2018-04-04T12:35:00.392Z</time></trkpt><trkpt lon="34.863052" lat="31.726668"><ele>157.9</ele><time>2018-04-04T12:35:01.392Z</time></trkpt><trkpt lon="34.863038" lat="31.726662"><ele>158.8</ele><time>2018-04-04T12:35:02.392Z</time></trkpt><trkpt lon="34.863025" lat="31.726655"><ele>158.8</ele><time>2018-04-04T12:35:03.392Z</time></trkpt><trkpt lon="34.863015" lat="31.726647"><ele>158.8</ele><time>2018-04-04T12:35:04.392Z</time></trkpt><trkpt lon="34.863008" lat="31.726633"><ele>158.8</ele><time>2018-04-04T12:35:05.392Z</time></trkpt><trkpt lon="34.863002" lat="31.72662"><ele>159.9</ele><time>2018-04-04T12:35:06.392Z</time></trkpt><trkpt lon="34.862993" lat="31.726608"><ele>159.9</ele><time>2018-04-04T12:35:07.392Z</time></trkpt><trkpt lon="34.862988" lat="31.726597"><ele>159.9</ele><time>2018-04-04T12:35:08.392Z</time></trkpt><trkpt lon="34.862978" lat="31.726587"><ele>159.9</ele><time>2018-04-04T12:35:09.392Z</time></trkpt><trkpt lon="34.862967" lat="31.726578"><ele>160.9</ele><time>2018-04-04T12:35:10.392Z</time></trkpt><trkpt lon="34.862952" lat="31.726573"><ele>160.9</ele><time>2018-04-04T12:35:11.392Z</time></trkpt><trkpt lon="34.862933" lat="31.726572"><ele>160.9</ele><time>2018-04-04T12:35:12.392Z</time></trkpt><trkpt lon="34.862915" lat="31.72657"><ele>160.9</ele><time>2018-04-04T12:35:13.392Z</time></trkpt><trkpt lon="34.862895" lat="31.72657"><ele>161.9</ele><time>2018-04-04T12:35:14.392Z</time></trkpt><trkpt lon="34.862883" lat="31.726573"><ele>161.9</ele><time>2018-04-04T12:35:15.392Z</time></trkpt><trkpt lon="34.86287" lat="31.726582"><ele>161.9</ele><time>2018-04-04T12:35:16.392Z</time></trkpt><trkpt lon="34.862855" lat="31.726588"><ele>161.9</ele><time>2018-04-04T12:35:17.392Z</time></trkpt><trkpt lon="34.862835" lat="31.726595"><ele>161.9</ele><time>2018-04-04T12:35:18.392Z</time></trkpt><trkpt lon="34.862815" lat="31.726602"><ele>161.9</ele><time>2018-04-04T12:35:19.392Z</time></trkpt><trkpt lon="34.862795" lat="31.726605"><ele>161.9</ele><time>2018-04-04T12:35:20.392Z</time></trkpt><trkpt lon="34.862777" lat="31.726613"><ele>161.9</ele><time>2018-04-04T12:35:21.392Z</time></trkpt><trkpt lon="34.862758" lat="31.726622"><ele>161.9</ele><time>2018-04-04T12:35:22.392Z</time></trkpt><trkpt lon="34.86274" lat="31.726625"><ele>161.9</ele><time>2018-04-04T12:35:23.392Z</time></trkpt><trkpt lon="34.86272" lat="31.726622"><ele>161.9</ele><time>2018-04-04T12:35:24.392Z</time></trkpt><trkpt lon="34.862703" lat="31.726612"><ele>161.9</ele><time>2018-04-04T12:35:25.392Z</time></trkpt><trkpt lon="34.862687" lat="31.7266"><ele>162.9</ele><time>2018-04-04T12:35:26.392Z</time></trkpt><trkpt lon="34.862673" lat="31.726585"><ele>162.9</ele><time>2018-04-04T12:35:27.392Z</time></trkpt><trkpt lon="34.862665" lat="31.726568"><ele>162.9</ele><time>2018-04-04T12:35:28.392Z</time></trkpt><trkpt lon="34.862663" lat="31.726552"><ele>162.9</ele><time>2018-04-04T12:35:29.392Z</time></trkpt><trkpt lon="34.862665" lat="31.726537"><ele>162.9</ele><time>2018-04-04T12:35:30.392Z</time></trkpt><trkpt lon="34.862672" lat="31.72652"><ele>162.9</ele><time>2018-04-04T12:35:31.392Z</time></trkpt><trkpt lon="34.862678" lat="31.726502"><ele>162.9</ele><time>2018-04-04T12:35:32.392Z</time></trkpt><trkpt lon="34.862677" lat="31.726485"><ele>162.9</ele><time>2018-04-04T12:35:33.392Z</time></trkpt><trkpt lon="34.862675" lat="31.72647"><ele>162.9</ele><time>2018-04-04T12:35:34.392Z</time></trkpt><trkpt lon="34.862675" lat="31.726453"><ele>162.9</ele><time>2018-04-04T12:35:35.392Z</time></trkpt><trkpt lon="34.862672" lat="31.726437"><ele>162.9</ele><time>2018-04-04T12:35:36.392Z</time></trkpt><trkpt lon="34.862662" lat="31.726418"><ele>162.9</ele><time>2018-04-04T12:35:37.392Z</time></trkpt><trkpt lon="34.862657" lat="31.726398"><ele>162.9</ele><time>2018-04-04T12:35:38.392Z</time></trkpt><trkpt lon="34.862652" lat="31.726378"><ele>162.9</ele><time>2018-04-04T12:35:39.392Z</time></trkpt><trkpt lon="34.86265" lat="31.726355"><ele>162.9</ele><time>2018-04-04T12:35:40.392Z</time></trkpt><trkpt lon="34.862645" lat="31.726333"><ele>162.9</ele><time>2018-04-04T12:35:41.392Z</time></trkpt><trkpt lon="34.862637" lat="31.72631"><ele>163.8</ele><time>2018-04-04T12:35:42.392Z</time></trkpt><trkpt lon="34.862627" lat="31.726288"><ele>163.8</ele><time>2018-04-04T12:35:43.392Z</time></trkpt><trkpt lon="34.862617" lat="31.726268"><ele>163.8</ele><time>2018-04-04T12:35:44.392Z</time></trkpt><trkpt lon="34.862607" lat="31.726248"><ele>163.8</ele><time>2018-04-04T12:35:45.392Z</time></trkpt><trkpt lon="34.862603" lat="31.72623"><ele>163.8</ele><time>2018-04-04T12:35:46.392Z</time></trkpt><trkpt lon="34.862607" lat="31.72621"><ele>163.8</ele><time>2018-04-04T12:35:47.392Z</time></trkpt><trkpt lon="34.862613" lat="31.72619"><ele>163.8</ele><time>2018-04-04T12:35:48.392Z</time></trkpt><trkpt lon="34.862625" lat="31.726172"><ele>163.8</ele><time>2018-04-04T12:35:49.392Z</time></trkpt><trkpt lon="34.862637" lat="31.726152"><ele>163.8</ele><time>2018-04-04T12:35:50.392Z</time></trkpt><trkpt lon="34.862647" lat="31.726127"><ele>163.8</ele><time>2018-04-04T12:35:51.392Z</time></trkpt><trkpt lon="34.862652" lat="31.726102"><ele>163.8</ele><time>2018-04-04T12:35:52.392Z</time></trkpt><trkpt lon="34.862653" lat="31.726073"><ele>163.8</ele><time>2018-04-04T12:35:53.392Z</time></trkpt><trkpt lon="34.86265" lat="31.726047"><ele>163.8</ele><time>2018-04-04T12:35:54.392Z</time></trkpt><trkpt lon="34.862648" lat="31.72602"><ele>163.8</ele><time>2018-04-04T12:35:55.392Z</time></trkpt><trkpt lon="34.862643" lat="31.725993"><ele>163.8</ele><time>2018-04-04T12:35:56.392Z</time></trkpt><trkpt lon="34.86263" lat="31.725972"><ele>163.8</ele><time>2018-04-04T12:35:57.392Z</time></trkpt><trkpt lon="34.862612" lat="31.725953"><ele>164.9</ele><time>2018-04-04T12:35:58.392Z</time></trkpt><trkpt lon="34.862588" lat="31.72594"><ele>164.9</ele><time>2018-04-04T12:35:59.392Z</time></trkpt><trkpt lon="34.862567" lat="31.725933"><ele>164.9</ele><time>2018-04-04T12:36:00.392Z</time></trkpt><trkpt lon="34.862547" lat="31.725932"><ele>164.9</ele><time>2018-04-04T12:36:01.392Z</time></trkpt><trkpt lon="34.86253" lat="31.725938"><ele>164.9</ele><time>2018-04-04T12:36:02.392Z</time></trkpt><trkpt lon="34.862518" lat="31.72595"><ele>164.9</ele><time>2018-04-04T12:36:03.392Z</time></trkpt><trkpt lon="34.862513" lat="31.725963"><ele>164.9</ele><time>2018-04-04T12:36:04.392Z</time></trkpt><trkpt lon="34.86251" lat="31.725985"><ele>164.9</ele><time>2018-04-04T12:36:05.392Z</time></trkpt><trkpt lon="34.862503" lat="31.726007"><ele>164.9</ele><time>2018-04-04T12:36:06.392Z</time></trkpt><trkpt lon="34.862493" lat="31.726025"><ele>164.9</ele><time>2018-04-04T12:36:07.392Z</time></trkpt><trkpt lon="34.862483" lat="31.726047"><ele>164.9</ele><time>2018-04-04T12:36:08.392Z</time></trkpt><trkpt lon="34.862478" lat="31.726067"><ele>164.9</ele><time>2018-04-04T12:36:09.392Z</time></trkpt><trkpt lon="34.862478" lat="31.726088"><ele>164.9</ele><time>2018-04-04T12:36:10.392Z</time></trkpt><trkpt lon="34.862477" lat="31.726112"><ele>164.9</ele><time>2018-04-04T12:36:11.392Z</time></trkpt><trkpt lon="34.86247" lat="31.726135"><ele>164.9</ele><time>2018-04-04T12:36:12.392Z</time></trkpt><trkpt lon="34.862458" lat="31.726155"><ele>164.9</ele><time>2018-04-04T12:36:13.392Z</time></trkpt><trkpt lon="34.86244" lat="31.726172"><ele>164.9</ele><time>2018-04-04T12:36:14.392Z</time></trkpt><trkpt lon="34.862417" lat="31.726185"><ele>164.9</ele><time>2018-04-04T12:36:15.392Z</time></trkpt><trkpt lon="34.862393" lat="31.726193"><ele>164.9</ele><time>2018-04-04T12:36:16.392Z</time></trkpt><trkpt lon="34.86237" lat="31.726197"><ele>164.9</ele><time>2018-04-04T12:36:17.392Z</time></trkpt><trkpt lon="34.862347" lat="31.726205"><ele>165.8</ele><time>2018-04-04T12:36:18.392Z</time></trkpt><trkpt lon="34.862328" lat="31.726212"><ele>165.8</ele><time>2018-04-04T12:36:19.392Z</time></trkpt><trkpt lon="34.862308" lat="31.726218"><ele>165.8</ele><time>2018-04-04T12:36:20.392Z</time></trkpt><trkpt lon="34.862292" lat="31.726223"><ele>165.8</ele><time>2018-04-04T12:36:21.392Z</time></trkpt><trkpt lon="34.862275" lat="31.726222"><ele>166.9</ele><time>2018-04-04T12:36:22.392Z</time></trkpt><trkpt lon="34.86226" lat="31.726218"><ele>166.9</ele><time>2018-04-04T12:36:23.392Z</time></trkpt><trkpt lon="34.862248" lat="31.726213"><ele>166.9</ele><time>2018-04-04T12:36:24.392Z</time></trkpt><trkpt lon="34.862247" lat="31.726203"><ele>166.9</ele><time>2018-04-04T12:36:25.392Z</time></trkpt><trkpt lon="34.862245" lat="31.726187"><ele>166.9</ele><time>2018-04-04T12:36:26.392Z</time></trkpt><trkpt lon="34.862245" lat="31.726168"><ele>166.9</ele><time>2018-04-04T12:36:27.392Z</time></trkpt><trkpt lon="34.862245" lat="31.726153"><ele>167.9</ele><time>2018-04-04T12:36:28.392Z</time></trkpt><trkpt lon="34.862243" lat="31.72614"><ele>167.9</ele><time>2018-04-04T12:36:29.392Z</time></trkpt><trkpt lon="34.862238" lat="31.726125"><ele>167.9</ele><time>2018-04-04T12:36:30.392Z</time></trkpt><trkpt lon="34.862227" lat="31.726113"><ele>167.9</ele><time>2018-04-04T12:36:31.392Z</time></trkpt><trkpt lon="34.862213" lat="31.726105"><ele>167.9</ele><time>2018-04-04T12:36:32.392Z</time></trkpt><trkpt lon="34.862195" lat="31.726102"><ele>167.9</ele><time>2018-04-04T12:36:33.392Z</time></trkpt><trkpt lon="34.862177" lat="31.726093"><ele>168.9</ele><time>2018-04-04T12:36:34.392Z</time></trkpt><trkpt lon="34.862162" lat="31.726083"><ele>168.9</ele><time>2018-04-04T12:36:35.392Z</time></trkpt><trkpt lon="34.862148" lat="31.72607"><ele>168.9</ele><time>2018-04-04T12:36:36.392Z</time></trkpt><trkpt lon="34.862137" lat="31.726058"><ele>168.9</ele><time>2018-04-04T12:36:37.392Z</time></trkpt><trkpt lon="34.862133" lat="31.726042"><ele>168.9</ele><time>2018-04-04T12:36:38.392Z</time></trkpt><trkpt lon="34.862133" lat="31.726023"><ele>168.9</ele><time>2018-04-04T12:36:39.392Z</time></trkpt><trkpt lon="34.862133" lat="31.726"><ele>168.9</ele><time>2018-04-04T12:36:40.392Z</time></trkpt><trkpt lon="34.862137" lat="31.725975"><ele>168.9</ele><time>2018-04-04T12:36:41.392Z</time></trkpt><trkpt lon="34.862137" lat="31.72595"><ele>168.9</ele><time>2018-04-04T12:36:42.392Z</time></trkpt><trkpt lon="34.86213" lat="31.725923"><ele>168.9</ele><time>2018-04-04T12:36:43.392Z</time></trkpt><trkpt lon="34.862122" lat="31.725898"><ele>168.9</ele><time>2018-04-04T12:36:44.392Z</time></trkpt><trkpt lon="34.862112" lat="31.725875"><ele>168.9</ele><time>2018-04-04T12:36:45.392Z</time></trkpt><trkpt lon="34.862102" lat="31.725857"><ele>168.9</ele><time>2018-04-04T12:36:46.392Z</time></trkpt><trkpt lon="34.862087" lat="31.725843"><ele>168.9</ele><time>2018-04-04T12:36:47.392Z</time></trkpt><trkpt lon="34.862072" lat="31.725833"><ele>169.9</ele><time>2018-04-04T12:36:48.392Z</time></trkpt><trkpt lon="34.862058" lat="31.72582"><ele>169.9</ele><time>2018-04-04T12:36:49.392Z</time></trkpt><trkpt lon="34.862057" lat="31.725805"><ele>169.9</ele><time>2018-04-04T12:36:50.392Z</time></trkpt><trkpt lon="34.86206" lat="31.725787"><ele>169.9</ele><time>2018-04-04T12:36:51.392Z</time></trkpt><trkpt lon="34.862058" lat="31.725768"><ele>169.9</ele><time>2018-04-04T12:36:52.392Z</time></trkpt><trkpt lon="34.86205" lat="31.725755"><ele>169.9</ele><time>2018-04-04T12:36:53.392Z</time></trkpt><trkpt lon="34.86204" lat="31.72574"><ele>169.9</ele><time>2018-04-04T12:36:54.392Z</time></trkpt><trkpt lon="34.862027" lat="31.725723"><ele>169.9</ele><time>2018-04-04T12:36:55.392Z</time></trkpt><trkpt lon="34.862013" lat="31.725708"><ele>169.9</ele><time>2018-04-04T12:36:56.392Z</time></trkpt><trkpt lon="34.861995" lat="31.725693"><ele>169.9</ele><time>2018-04-04T12:36:57.392Z</time></trkpt><trkpt lon="34.861975" lat="31.725683"><ele>170.8</ele><time>2018-04-04T12:36:58.392Z</time></trkpt><trkpt lon="34.861952" lat="31.725672"><ele>170.8</ele><time>2018-04-04T12:36:59.392Z</time></trkpt><trkpt lon="34.861928" lat="31.72566"><ele>170.8</ele><time>2018-04-04T12:37:00.392Z</time></trkpt><trkpt lon="34.861908" lat="31.725647"><ele>170.8</ele><time>2018-04-04T12:37:01.392Z</time></trkpt><trkpt lon="34.861892" lat="31.725632"><ele>170.8</ele><time>2018-04-04T12:37:02.392Z</time></trkpt><trkpt lon="34.861873" lat="31.725618"><ele>170.8</ele><time>2018-04-04T12:37:03.392Z</time></trkpt><trkpt lon="34.861857" lat="31.725608"><ele>171.9</ele><time>2018-04-04T12:37:04.392Z</time></trkpt><trkpt lon="34.861837" lat="31.7256"><ele>171.9</ele><time>2018-04-04T12:37:05.392Z</time></trkpt><trkpt lon="34.861818" lat="31.725597"><ele>171.9</ele><time>2018-04-04T12:37:06.392Z</time></trkpt><trkpt lon="34.861805" lat="31.725597"><ele>171.9</ele><time>2018-04-04T12:37:07.392Z</time></trkpt><trkpt lon="34.861793" lat="31.725607"><ele>171.9</ele><time>2018-04-04T12:37:08.392Z</time></trkpt><trkpt lon="34.861778" lat="31.725618"><ele>171.9</ele><time>2018-04-04T12:37:09.392Z</time></trkpt><trkpt lon="34.86176" lat="31.725627"><ele>171.9</ele><time>2018-04-04T12:37:10.392Z</time></trkpt><trkpt lon="34.86174" lat="31.72563"><ele>171.9</ele><time>2018-04-04T12:37:11.392Z</time></trkpt><trkpt lon="34.86172" lat="31.725627"><ele>172.8</ele><time>2018-04-04T12:37:12.392Z</time></trkpt><trkpt lon="34.861702" lat="31.72562"><ele>172.8</ele><time>2018-04-04T12:37:13.392Z</time></trkpt><trkpt lon="34.861683" lat="31.725617"><ele>172.8</ele><time>2018-04-04T12:37:14.392Z</time></trkpt><trkpt lon="34.861665" lat="31.725615"><ele>172.8</ele><time>2018-04-04T12:37:15.392Z</time></trkpt><trkpt lon="34.861643" lat="31.725613"><ele>172.8</ele><time>2018-04-04T12:37:16.392Z</time></trkpt><trkpt lon="34.861623" lat="31.725608"><ele>172.8</ele><time>2018-04-04T12:37:17.392Z</time></trkpt><trkpt lon="34.861603" lat="31.725598"><ele>172.8</ele><time>2018-04-04T12:37:18.392Z</time></trkpt><trkpt lon="34.861585" lat="31.725588"><ele>172.8</ele><time>2018-04-04T12:37:19.392Z</time></trkpt><trkpt lon="34.861567" lat="31.725577"><ele>172.8</ele><time>2018-04-04T12:37:20.392Z</time></trkpt><trkpt lon="34.86155" lat="31.725565"><ele>172.8</ele><time>2018-04-04T12:37:21.392Z</time></trkpt><trkpt lon="34.861537" lat="31.72555"><ele>173.9</ele><time>2018-04-04T12:37:22.392Z</time></trkpt><trkpt lon="34.861527" lat="31.725535"><ele>173.9</ele><time>2018-04-04T12:37:23.392Z</time></trkpt><trkpt lon="34.861517" lat="31.72552"><ele>173.9</ele><time>2018-04-04T12:37:24.392Z</time></trkpt><trkpt lon="34.861503" lat="31.725502"><ele>173.9</ele><time>2018-04-04T12:37:25.392Z</time></trkpt><trkpt lon="34.861485" lat="31.725487"><ele>173.9</ele><time>2018-04-04T12:37:26.392Z</time></trkpt><trkpt lon="34.861462" lat="31.725478"><ele>173.9</ele><time>2018-04-04T12:37:27.392Z</time></trkpt><trkpt lon="34.861437" lat="31.725477"><ele>173.9</ele><time>2018-04-04T12:37:28.392Z</time></trkpt><trkpt lon="34.861413" lat="31.725475"><ele>173.9</ele><time>2018-04-04T12:37:29.392Z</time></trkpt><trkpt lon="34.861392" lat="31.725468"><ele>173.9</ele><time>2018-04-04T12:37:30.392Z</time></trkpt><trkpt lon="34.861368" lat="31.725455"><ele>173.9</ele><time>2018-04-04T12:37:31.392Z</time></trkpt><trkpt lon="34.861347" lat="31.725442"><ele>173.9</ele><time>2018-04-04T12:37:32.392Z</time></trkpt><trkpt lon="34.861322" lat="31.72543"><ele>173.9</ele><time>2018-04-04T12:37:33.392Z</time></trkpt><trkpt lon="34.861297" lat="31.725423"><ele>173.9</ele><time>2018-04-04T12:37:34.392Z</time></trkpt><trkpt lon="34.86127" lat="31.72542"><ele>173.9</ele><time>2018-04-04T12:37:35.392Z</time></trkpt><trkpt lon="34.861243" lat="31.725422"><ele>174.8</ele><time>2018-04-04T12:37:36.392Z</time></trkpt><trkpt lon="34.861223" lat="31.725433"><ele>174.8</ele><time>2018-04-04T12:37:37.392Z</time></trkpt><trkpt lon="34.861203" lat="31.725443"><ele>174.8</ele><time>2018-04-04T12:37:38.392Z</time></trkpt><trkpt lon="34.861183" lat="31.725452"><ele>174.8</ele><time>2018-04-04T12:37:39.392Z</time></trkpt><trkpt lon="34.861168" lat="31.725455"><ele>174.8</ele><time>2018-04-04T12:37:40.392Z</time></trkpt><trkpt lon="34.861157" lat="31.725458"><ele>174.8</ele><time>2018-04-04T12:37:41.392Z</time></trkpt><trkpt lon="34.861148" lat="31.725458"><ele>174.8</ele><time>2018-04-04T12:37:42.392Z</time></trkpt><trkpt lon="34.861143" lat="31.72546"><ele>174.8</ele><time>2018-04-04T12:37:43.392Z</time></trkpt><trkpt lon="34.86114" lat="31.725462"><ele>175.9</ele><time>2018-04-04T12:37:44.392Z</time></trkpt><trkpt lon="34.861137" lat="31.725467"><ele>175.9</ele><time>2018-04-04T12:37:45.392Z</time></trkpt><trkpt lon="34.861107" lat="31.72549"><ele>175.9</ele><time>2018-04-04T12:37:57.392Z</time></trkpt><trkpt lon="34.8611" lat="31.725497"><ele>175.9</ele><time>2018-04-04T12:37:58.392Z</time></trkpt><trkpt lon="34.861095" lat="31.725502"><ele>175.9</ele><time>2018-04-04T12:37:59.392Z</time></trkpt><trkpt lon="34.861087" lat="31.725505"><ele>175.9</ele><time>2018-04-04T12:38:00.392Z</time></trkpt><trkpt lon="34.861082" lat="31.725508"><ele>175.9</ele><time>2018-04-04T12:38:01.392Z</time></trkpt><trkpt lon="34.861075" lat="31.72551"><ele>176.9</ele><time>2018-04-04T12:38:02.392Z</time></trkpt><trkpt lon="34.861068" lat="31.725512"><ele>176.9</ele><time>2018-04-04T12:38:03.392Z</time></trkpt><trkpt lon="34.861062" lat="31.725512"><ele>176.9</ele><time>2018-04-04T12:38:04.392Z</time></trkpt><trkpt lon="34.861055" lat="31.725508"><ele>176.9</ele><time>2018-04-04T12:38:05.392Z</time></trkpt><trkpt lon="34.86105" lat="31.725507"><ele>176.9</ele><time>2018-04-04T12:38:06.392Z</time></trkpt><trkpt lon="34.861045" lat="31.725503"><ele>176.9</ele><time>2018-04-04T12:38:07.392Z</time></trkpt><trkpt lon="34.861043" lat="31.7255"><ele>176.9</ele><time>2018-04-04T12:38:08.392Z</time></trkpt><trkpt lon="34.861042" lat="31.7255"><ele>176.9</ele><time>2018-04-04T12:38:09.392Z</time></trkpt><trkpt lon="34.861027" lat="31.725492"><ele>176.9</ele><time>2018-04-04T12:38:17.392Z</time></trkpt><trkpt lon="34.86102" lat="31.725488"><ele>176.9</ele><time>2018-04-04T12:38:18.392Z</time></trkpt><trkpt lon="34.861013" lat="31.725487"><ele>176.9</ele><time>2018-04-04T12:38:19.392Z</time></trkpt><trkpt lon="34.861007" lat="31.725483"><ele>176.9</ele><time>2018-04-04T12:38:20.392Z</time></trkpt><trkpt lon="34.861002" lat="31.72548"><ele>176.9</ele><time>2018-04-04T12:38:21.392Z</time></trkpt><trkpt lon="34.860995" lat="31.725477"><ele>176.9</ele><time>2018-04-04T12:38:22.392Z</time></trkpt><trkpt lon="34.860983" lat="31.725475"><ele>176.9</ele><time>2018-04-04T12:38:23.392Z</time></trkpt><trkpt lon="34.860972" lat="31.725477"><ele>176.9</ele><time>2018-04-04T12:38:24.392Z</time></trkpt><trkpt lon="34.860962" lat="31.725477"><ele>176.9</ele><time>2018-04-04T12:38:25.392Z</time></trkpt><trkpt lon="34.860952" lat="31.725477"><ele>176.9</ele><time>2018-04-04T12:38:26.392Z</time></trkpt><trkpt lon="34.860943" lat="31.725475"><ele>176.9</ele><time>2018-04-04T12:38:27.392Z</time></trkpt><trkpt lon="34.860932" lat="31.725473"><ele>176.9</ele><time>2018-04-04T12:38:28.392Z</time></trkpt><trkpt lon="34.86092" lat="31.725473"><ele>176.9</ele><time>2018-04-04T12:38:29.392Z</time></trkpt><trkpt lon="34.860912" lat="31.725477"><ele>176.9</ele><time>2018-04-04T12:38:30.392Z</time></trkpt><trkpt lon="34.860907" lat="31.725482"><ele>176.9</ele><time>2018-04-04T12:38:31.392Z</time></trkpt><trkpt lon="34.860903" lat="31.725485"><ele>177.9</ele><time>2018-04-04T12:38:32.392Z</time></trkpt><trkpt lon="34.8609" lat="31.72549"><ele>177.9</ele><time>2018-04-04T12:38:33.392Z</time></trkpt><trkpt lon="34.860898" lat="31.725497"><ele>177.9</ele><time>2018-04-04T12:38:34.392Z</time></trkpt><trkpt lon="34.860897" lat="31.725503"><ele>177.9</ele><time>2018-04-04T12:38:35.392Z</time></trkpt><trkpt lon="34.860897" lat="31.72551"><ele>177.9</ele><time>2018-04-04T12:38:36.392Z</time></trkpt><trkpt lon="34.860897" lat="31.725515"><ele>177.9</ele><time>2018-04-04T12:38:37.392Z</time></trkpt><trkpt lon="34.860895" lat="31.725522"><ele>177.9</ele><time>2018-04-04T12:38:38.392Z</time></trkpt><trkpt lon="34.860897" lat="31.725528"><ele>177.9</ele><time>2018-04-04T12:38:39.392Z</time></trkpt><trkpt lon="34.860898" lat="31.725537"><ele>177.9</ele><time>2018-04-04T12:38:40.392Z</time></trkpt><trkpt lon="34.8609" lat="31.725543"><ele>177.9</ele><time>2018-04-04T12:38:41.392Z</time></trkpt><trkpt lon="34.860905" lat="31.72555"><ele>177.9</ele><time>2018-04-04T12:38:42.392Z</time></trkpt><trkpt lon="34.86091" lat="31.725558"><ele>177.9</ele><time>2018-04-04T12:38:43.392Z</time></trkpt><trkpt lon="34.860913" lat="31.725565"><ele>177.9</ele><time>2018-04-04T12:38:44.392Z</time></trkpt><trkpt lon="34.860913" lat="31.725573"><ele>177.9</ele><time>2018-04-04T12:38:45.392Z</time></trkpt><trkpt lon="34.860912" lat="31.72558"><ele>177.9</ele><time>2018-04-04T12:38:46.392Z</time></trkpt><trkpt lon="34.860907" lat="31.725585"><ele>177.9</ele><time>2018-04-04T12:38:47.392Z</time></trkpt><trkpt lon="34.8609" lat="31.72559"><ele>177.9</ele><time>2018-04-04T12:38:48.392Z</time></trkpt><trkpt lon="34.860898" lat="31.725592"><ele>177.9</ele><time>2018-04-04T12:38:49.392Z</time></trkpt><trkpt lon="34.860897" lat="31.725595"><ele>177.9</ele><time>2018-04-04T12:38:50.392Z</time></trkpt><trkpt lon="34.860893" lat="31.725598"><ele>177.9</ele><time>2018-04-04T12:38:51.392Z</time></trkpt><trkpt lon="34.860893" lat="31.7256"><ele>177.9</ele><time>2018-04-04T12:38:52.392Z</time></trkpt><trkpt lon="34.86086" lat="31.725603"><ele>177.9</ele><time>2018-04-04T12:40:28.392Z</time></trkpt><trkpt lon="34.860847" lat="31.725603"><ele>177.9</ele><time>2018-04-04T12:40:29.392Z</time></trkpt><trkpt lon="34.86083" lat="31.7256"><ele>177.9</ele><time>2018-04-04T12:40:30.392Z</time></trkpt><trkpt lon="34.860813" lat="31.725595"><ele>177.9</ele><time>2018-04-04T12:40:31.392Z</time></trkpt><trkpt lon="34.860795" lat="31.725593"><ele>177.9</ele><time>2018-04-04T12:40:32.392Z</time></trkpt><trkpt lon="34.860775" lat="31.725588"><ele>177.9</ele><time>2018-04-04T12:40:33.392Z</time></trkpt><trkpt lon="34.860755" lat="31.725583"><ele>177.9</ele><time>2018-04-04T12:40:34.392Z</time></trkpt><trkpt lon="34.860738" lat="31.725582"><ele>177.9</ele><time>2018-04-04T12:40:35.392Z</time></trkpt><trkpt lon="34.860717" lat="31.725578"><ele>177.9</ele><time>2018-04-04T12:40:36.392Z</time></trkpt><trkpt lon="34.860695" lat="31.725577"><ele>177.9</ele><time>2018-04-04T12:40:37.392Z</time></trkpt><trkpt lon="34.860672" lat="31.725575"><ele>177.9</ele><time>2018-04-04T12:40:38.392Z</time></trkpt><trkpt lon="34.860647" lat="31.725573"><ele>177.9</ele><time>2018-04-04T12:40:39.392Z</time></trkpt><trkpt lon="34.860623" lat="31.725575"><ele>177.9</ele><time>2018-04-04T12:40:40.392Z</time></trkpt><trkpt lon="34.860602" lat="31.725582"><ele>177.9</ele><time>2018-04-04T12:40:41.392Z</time></trkpt><trkpt lon="34.860577" lat="31.725587"><ele>177.9</ele><time>2018-04-04T12:40:42.392Z</time></trkpt><trkpt lon="34.860552" lat="31.725592"><ele>177.9</ele><time>2018-04-04T12:40:43.392Z</time></trkpt><trkpt lon="34.860532" lat="31.725602"><ele>178.9</ele><time>2018-04-04T12:40:44.392Z</time></trkpt><trkpt lon="34.860508" lat="31.72561"><ele>178.9</ele><time>2018-04-04T12:40:45.392Z</time></trkpt><trkpt lon="34.860488" lat="31.725622"><ele>178.9</ele><time>2018-04-04T12:40:46.392Z</time></trkpt><trkpt lon="34.860468" lat="31.725632"><ele>178.9</ele><time>2018-04-04T12:40:47.392Z</time></trkpt><trkpt lon="34.860445" lat="31.725642"><ele>178.9</ele><time>2018-04-04T12:40:48.392Z</time></trkpt><trkpt lon="34.860423" lat="31.725652"><ele>178.9</ele><time>2018-04-04T12:40:49.392Z</time></trkpt><trkpt lon="34.860405" lat="31.725662"><ele>178.9</ele><time>2018-04-04T12:40:50.392Z</time></trkpt><trkpt lon="34.860382" lat="31.725667"><ele>178.9</ele><time>2018-04-04T12:40:51.392Z</time></trkpt><trkpt lon="34.86036" lat="31.725677"><ele>178.9</ele><time>2018-04-04T12:40:52.392Z</time></trkpt><trkpt lon="34.860345" lat="31.725687"><ele>178.9</ele><time>2018-04-04T12:40:53.392Z</time></trkpt><trkpt lon="34.86033" lat="31.725698"><ele>179.8</ele><time>2018-04-04T12:40:54.392Z</time></trkpt><trkpt lon="34.860312" lat="31.725707"><ele>179.8</ele><time>2018-04-04T12:40:55.392Z</time></trkpt><trkpt lon="34.86029" lat="31.725717"><ele>179.8</ele><time>2018-04-04T12:40:56.392Z</time></trkpt><trkpt lon="34.86027" lat="31.725728"><ele>179.8</ele><time>2018-04-04T12:40:57.392Z</time></trkpt><trkpt lon="34.860248" lat="31.725737"><ele>179.8</ele><time>2018-04-04T12:40:58.392Z</time></trkpt><trkpt lon="34.860235" lat="31.725752"><ele>179.8</ele><time>2018-04-04T12:40:59.392Z</time></trkpt><trkpt lon="34.860223" lat="31.725773"><ele>179.8</ele><time>2018-04-04T12:41:00.392Z</time></trkpt><trkpt lon="34.860213" lat="31.725795"><ele>179.8</ele><time>2018-04-04T12:41:01.392Z</time></trkpt><trkpt lon="34.860208" lat="31.725813"><ele>180.9</ele><time>2018-04-04T12:41:02.392Z</time></trkpt><trkpt lon="34.860203" lat="31.725832"><ele>180.9</ele><time>2018-04-04T12:41:03.392Z</time></trkpt><trkpt lon="34.860193" lat="31.725848"><ele>180.9</ele><time>2018-04-04T12:41:04.392Z</time></trkpt><trkpt lon="34.860182" lat="31.725862"><ele>180.9</ele><time>2018-04-04T12:41:05.392Z</time></trkpt><trkpt lon="34.860173" lat="31.725872"><ele>180.9</ele><time>2018-04-04T12:41:06.392Z</time></trkpt><trkpt lon="34.860162" lat="31.725882"><ele>180.9</ele><time>2018-04-04T12:41:07.392Z</time></trkpt><trkpt lon="34.860148" lat="31.725888"><ele>180.9</ele><time>2018-04-04T12:41:08.392Z</time></trkpt><trkpt lon="34.86013" lat="31.725895"><ele>180.9</ele><time>2018-04-04T12:41:09.392Z</time></trkpt><trkpt lon="34.860113" lat="31.725903"><ele>180.9</ele><time>2018-04-04T12:41:10.392Z</time></trkpt><trkpt lon="34.860095" lat="31.725908"><ele>180.9</ele><time>2018-04-04T12:41:11.392Z</time></trkpt><trkpt lon="34.860078" lat="31.725912"><ele>180.9</ele><time>2018-04-04T12:41:12.392Z</time></trkpt><trkpt lon="34.860062" lat="31.725917"><ele>180.9</ele><time>2018-04-04T12:41:13.392Z</time></trkpt><trkpt lon="34.860043" lat="31.725917"><ele>180.9</ele><time>2018-04-04T12:41:14.392Z</time></trkpt><trkpt lon="34.860023" lat="31.725913"><ele>180.9</ele><time>2018-04-04T12:41:15.392Z</time></trkpt><trkpt lon="34.860007" lat="31.725908"><ele>180.9</ele><time>2018-04-04T12:41:16.392Z</time></trkpt><trkpt lon="34.859987" lat="31.725905"><ele>180.9</ele><time>2018-04-04T12:41:17.392Z</time></trkpt><trkpt lon="34.859967" lat="31.725903"><ele>180.9</ele><time>2018-04-04T12:41:18.392Z</time></trkpt><trkpt lon="34.859948" lat="31.725903"><ele>180.9</ele><time>2018-04-04T12:41:19.392Z</time></trkpt><trkpt lon="34.859927" lat="31.725905"><ele>180.9</ele><time>2018-04-04T12:41:20.392Z</time></trkpt><trkpt lon="34.859903" lat="31.725908"><ele>180.9</ele><time>2018-04-04T12:41:21.392Z</time></trkpt><trkpt lon="34.859882" lat="31.725905"><ele>181.8</ele><time>2018-04-04T12:41:22.392Z</time></trkpt><trkpt lon="34.859865" lat="31.725892"><ele>181.8</ele><time>2018-04-04T12:41:23.392Z</time></trkpt><trkpt lon="34.859848" lat="31.725878"><ele>181.8</ele><time>2018-04-04T12:41:24.392Z</time></trkpt><trkpt lon="34.859828" lat="31.725868"><ele>181.8</ele><time>2018-04-04T12:41:25.392Z</time></trkpt><trkpt lon="34.859808" lat="31.725853"><ele>181.8</ele><time>2018-04-04T12:41:26.392Z</time></trkpt><trkpt lon="34.859782" lat="31.725842"><ele>181.8</ele><time>2018-04-04T12:41:27.392Z</time></trkpt><trkpt lon="34.859752" lat="31.725837"><ele>180.9</ele><time>2018-04-04T12:41:28.392Z</time></trkpt><trkpt lon="34.85972" lat="31.725837"><ele>180.9</ele><time>2018-04-04T12:41:29.392Z</time></trkpt><trkpt lon="34.859688" lat="31.725835"><ele>180.9</ele><time>2018-04-04T12:41:30.392Z</time></trkpt><trkpt lon="34.85966" lat="31.725835"><ele>180.9</ele><time>2018-04-04T12:41:31.392Z</time></trkpt><trkpt lon="34.859637" lat="31.725835"><ele>180.9</ele><time>2018-04-04T12:41:32.392Z</time></trkpt><trkpt lon="34.859615" lat="31.725833"><ele>180.9</ele><time>2018-04-04T12:41:33.392Z</time></trkpt><trkpt lon="34.85959" lat="31.725837"><ele>180.9</ele><time>2018-04-04T12:41:34.392Z</time></trkpt><trkpt lon="34.859572" lat="31.725843"><ele>180.9</ele><time>2018-04-04T12:41:35.392Z</time></trkpt><trkpt lon="34.859557" lat="31.725853"><ele>181.8</ele><time>2018-04-04T12:41:36.392Z</time></trkpt><trkpt lon="34.859538" lat="31.725858"><ele>181.8</ele><time>2018-04-04T12:41:37.392Z</time></trkpt><trkpt lon="34.859523" lat="31.725858"><ele>181.8</ele><time>2018-04-04T12:41:38.392Z</time></trkpt><trkpt lon="34.859507" lat="31.725853"><ele>181.8</ele><time>2018-04-04T12:41:39.392Z</time></trkpt><trkpt lon="34.859493" lat="31.725845"><ele>181.8</ele><time>2018-04-04T12:41:40.392Z</time></trkpt><trkpt lon="34.859477" lat="31.725837"><ele>181.8</ele><time>2018-04-04T12:41:41.392Z</time></trkpt><trkpt lon="34.859463" lat="31.72583"><ele>181.8</ele><time>2018-04-04T12:41:42.392Z</time></trkpt><trkpt lon="34.859447" lat="31.725825"><ele>181.8</ele><time>2018-04-04T12:41:43.392Z</time></trkpt><trkpt lon="34.859428" lat="31.725818"><ele>181.8</ele><time>2018-04-04T12:41:44.392Z</time></trkpt><trkpt lon="34.859408" lat="31.725807"><ele>181.8</ele><time>2018-04-04T12:41:45.392Z</time></trkpt><trkpt lon="34.859395" lat="31.725797"><ele>181.8</ele><time>2018-04-04T12:41:46.392Z</time></trkpt><trkpt lon="34.85938" lat="31.725785"><ele>181.8</ele><time>2018-04-04T12:41:47.392Z</time></trkpt><trkpt lon="34.859367" lat="31.725772"><ele>181.8</ele><time>2018-04-04T12:41:48.392Z</time></trkpt><trkpt lon="34.859363" lat="31.725755"><ele>181.8</ele><time>2018-04-04T12:41:49.392Z</time></trkpt><trkpt lon="34.859362" lat="31.725737"><ele>181.8</ele><time>2018-04-04T12:41:50.392Z</time></trkpt><trkpt lon="34.859365" lat="31.72572"><ele>181.8</ele><time>2018-04-04T12:41:51.392Z</time></trkpt><trkpt lon="34.859368" lat="31.725698"><ele>181.8</ele><time>2018-04-04T12:41:52.392Z</time></trkpt><trkpt lon="34.859363" lat="31.72567"><ele>181.8</ele><time>2018-04-04T12:41:53.392Z</time></trkpt><trkpt lon="34.85935" lat="31.72564"><ele>180.9</ele><time>2018-04-04T12:41:54.392Z</time></trkpt><trkpt lon="34.859338" lat="31.72561"><ele>180.9</ele><time>2018-04-04T12:41:55.392Z</time></trkpt><trkpt lon="34.85933" lat="31.72558"><ele>180.9</ele><time>2018-04-04T12:41:56.392Z</time></trkpt><trkpt lon="34.859317" lat="31.725553"><ele>180.9</ele><time>2018-04-04T12:41:57.392Z</time></trkpt><trkpt lon="34.859297" lat="31.725532"><ele>180.9</ele><time>2018-04-04T12:41:58.392Z</time></trkpt><trkpt lon="34.859275" lat="31.725513"><ele>180.9</ele><time>2018-04-04T12:41:59.392Z</time></trkpt><trkpt lon="34.859257" lat="31.725498"><ele>180.9</ele><time>2018-04-04T12:42:00.392Z</time></trkpt><trkpt lon="34.859247" lat="31.725483"><ele>180.9</ele><time>2018-04-04T12:42:01.392Z</time></trkpt><trkpt lon="34.85924" lat="31.725462"><ele>180.9</ele><time>2018-04-04T12:42:02.392Z</time></trkpt><trkpt lon="34.85924" lat="31.72544"><ele>180.9</ele><time>2018-04-04T12:42:03.392Z</time></trkpt><trkpt lon="34.859238" lat="31.725417"><ele>180.9</ele><time>2018-04-04T12:42:04.392Z</time></trkpt><trkpt lon="34.859237" lat="31.725395"><ele>180.9</ele><time>2018-04-04T12:42:05.392Z</time></trkpt><trkpt lon="34.859237" lat="31.72537"><ele>180.9</ele><time>2018-04-04T12:42:06.392Z</time></trkpt><trkpt lon="34.859235" lat="31.725347"><ele>180.9</ele><time>2018-04-04T12:42:07.392Z</time></trkpt><trkpt lon="34.859233" lat="31.725325"><ele>180.9</ele><time>2018-04-04T12:42:08.392Z</time></trkpt><trkpt lon="34.859238" lat="31.725303"><ele>180.9</ele><time>2018-04-04T12:42:09.392Z</time></trkpt><trkpt lon="34.859237" lat="31.725285"><ele>180.9</ele><time>2018-04-04T12:42:10.392Z</time></trkpt><trkpt lon="34.859243" lat="31.725267"><ele>180.9</ele><time>2018-04-04T12:42:11.392Z</time></trkpt><trkpt lon="34.859258" lat="31.725245"><ele>180.9</ele><time>2018-04-04T12:42:12.392Z</time></trkpt><trkpt lon="34.859278" lat="31.725223"><ele>180.9</ele><time>2018-04-04T12:42:13.392Z</time></trkpt><trkpt lon="34.859298" lat="31.725197"><ele>179.8</ele><time>2018-04-04T12:42:14.392Z</time></trkpt><trkpt lon="34.85932" lat="31.725172"><ele>179.8</ele><time>2018-04-04T12:42:15.392Z</time></trkpt><trkpt lon="34.859345" lat="31.725148"><ele>178.9</ele><time>2018-04-04T12:42:16.392Z</time></trkpt><trkpt lon="34.859372" lat="31.72513"><ele>178.9</ele><time>2018-04-04T12:42:17.392Z</time></trkpt><trkpt lon="34.859398" lat="31.725113"><ele>177.9</ele><time>2018-04-04T12:42:18.392Z</time></trkpt><trkpt lon="34.859425" lat="31.725097"><ele>177.9</ele><time>2018-04-04T12:42:19.392Z</time></trkpt><trkpt lon="34.859443" lat="31.725075"><ele>177.9</ele><time>2018-04-04T12:42:20.392Z</time></trkpt><trkpt lon="34.859442" lat="31.725052"><ele>177.9</ele><time>2018-04-04T12:42:21.392Z</time></trkpt><trkpt lon="34.859437" lat="31.725028"><ele>176.9</ele><time>2018-04-04T12:42:22.392Z</time></trkpt><trkpt lon="34.859443" lat="31.725012"><ele>176.9</ele><time>2018-04-04T12:42:23.392Z</time></trkpt><trkpt lon="34.859452" lat="31.724997"><ele>176.9</ele><time>2018-04-04T12:42:24.392Z</time></trkpt><trkpt lon="34.859462" lat="31.724982"><ele>176.9</ele><time>2018-04-04T12:42:25.392Z</time></trkpt><trkpt lon="34.859473" lat="31.724962"><ele>176.9</ele><time>2018-04-04T12:42:26.392Z</time></trkpt><trkpt lon="34.859488" lat="31.72494"><ele>176.9</ele><time>2018-04-04T12:42:27.392Z</time></trkpt><trkpt lon="34.859505" lat="31.724913"><ele>176.9</ele><time>2018-04-04T12:42:28.392Z</time></trkpt><trkpt lon="34.859522" lat="31.724885"><ele>176.9</ele><time>2018-04-04T12:42:29.392Z</time></trkpt><trkpt lon="34.85954" lat="31.724857"><ele>176.9</ele><time>2018-04-04T12:42:30.392Z</time></trkpt><trkpt lon="34.859563" lat="31.724832"><ele>176.9</ele><time>2018-04-04T12:42:31.392Z</time></trkpt><trkpt lon="34.859577" lat="31.724802"><ele>176.9</ele><time>2018-04-04T12:42:32.392Z</time></trkpt><trkpt lon="34.859577" lat="31.724777"><ele>176.9</ele><time>2018-04-04T12:42:33.392Z</time></trkpt><trkpt lon="34.85957" lat="31.724755"><ele>174.8</ele><time>2018-04-04T12:42:34.392Z</time></trkpt><trkpt lon="34.859567" lat="31.724737"><ele>174.8</ele><time>2018-04-04T12:42:35.392Z</time></trkpt><trkpt lon="34.859563" lat="31.724718"><ele>174.8</ele><time>2018-04-04T12:42:36.392Z</time></trkpt><trkpt lon="34.859567" lat="31.7247"><ele>174.8</ele><time>2018-04-04T12:42:37.392Z</time></trkpt><trkpt lon="34.859572" lat="31.724682"><ele>174.8</ele><time>2018-04-04T12:42:38.392Z</time></trkpt><trkpt lon="34.859582" lat="31.724667"><ele>174.8</ele><time>2018-04-04T12:42:39.392Z</time></trkpt><trkpt lon="34.85959" lat="31.724653"><ele>174.8</ele><time>2018-04-04T12:42:40.392Z</time></trkpt><trkpt lon="34.859592" lat="31.72465"><ele>174.8</ele><time>2018-04-04T12:42:41.392Z</time></trkpt><trkpt lon="34.859592" lat="31.724648"><ele>174.8</ele><time>2018-04-04T12:42:42.392Z</time></trkpt><trkpt lon="34.85959" lat="31.724648"><ele>173.9</ele><time>2018-04-04T12:42:43.392Z</time></trkpt><trkpt lon="34.85959" lat="31.724648"><ele>173.9</ele><time>2018-04-04T12:42:44.392Z</time></trkpt><trkpt lon="34.8596" lat="31.724642"><ele>173.9</ele><time>2018-04-04T12:42:47.392Z</time></trkpt><trkpt lon="34.859613" lat="31.724625"><ele>173.9</ele><time>2018-04-04T12:42:48.392Z</time></trkpt><trkpt lon="34.859628" lat="31.724605"><ele>173.9</ele><time>2018-04-04T12:42:49.392Z</time></trkpt><trkpt lon="34.859643" lat="31.724583"><ele>173.9</ele><time>2018-04-04T12:42:50.392Z</time></trkpt><trkpt lon="34.85966" lat="31.724558"><ele>173.9</ele><time>2018-04-04T12:42:51.392Z</time></trkpt><trkpt lon="34.85967" lat="31.724528"><ele>173.9</ele><time>2018-04-04T12:42:52.392Z</time></trkpt><trkpt lon="34.859677" lat="31.724497"><ele>173.9</ele><time>2018-04-04T12:42:53.392Z</time></trkpt><trkpt lon="34.859685" lat="31.72447"><ele>173.9</ele><time>2018-04-04T12:42:54.392Z</time></trkpt><trkpt lon="34.859702" lat="31.724445"><ele>173.9</ele><time>2018-04-04T12:42:55.392Z</time></trkpt><trkpt lon="34.859718" lat="31.724417"><ele>173.9</ele><time>2018-04-04T12:42:56.392Z</time></trkpt><trkpt lon="34.859735" lat="31.724387"><ele>173.9</ele><time>2018-04-04T12:42:57.392Z</time></trkpt><trkpt lon="34.859752" lat="31.724353"><ele>173.9</ele><time>2018-04-04T12:42:58.392Z</time></trkpt><trkpt lon="34.859768" lat="31.724322"><ele>172.8</ele><time>2018-04-04T12:42:59.392Z</time></trkpt><trkpt lon="34.859788" lat="31.724292"><ele>172.8</ele><time>2018-04-04T12:43:00.392Z</time></trkpt><trkpt lon="34.859812" lat="31.72426"><ele>172.8</ele><time>2018-04-04T12:43:01.392Z</time></trkpt><trkpt lon="34.859833" lat="31.724223"><ele>172.8</ele><time>2018-04-04T12:43:02.392Z</time></trkpt><trkpt lon="34.85985" lat="31.724185"><ele>171.9</ele><time>2018-04-04T12:43:03.392Z</time></trkpt><trkpt lon="34.859857" lat="31.724147"><ele>171.9</ele><time>2018-04-04T12:43:04.392Z</time></trkpt><trkpt lon="34.859862" lat="31.724108"><ele>171.9</ele><time>2018-04-04T12:43:05.392Z</time></trkpt><trkpt lon="34.859868" lat="31.72407"><ele>171.9</ele><time>2018-04-04T12:43:06.392Z</time></trkpt><trkpt lon="34.859877" lat="31.72403"><ele>171.9</ele><time>2018-04-04T12:43:07.392Z</time></trkpt><trkpt lon="34.859885" lat="31.723985"><ele>171.9</ele><time>2018-04-04T12:43:08.392Z</time></trkpt><trkpt lon="34.859898" lat="31.72394"><ele>171.9</ele><time>2018-04-04T12:43:09.392Z</time></trkpt><trkpt lon="34.859915" lat="31.723895"><ele>171.9</ele><time>2018-04-04T12:43:10.392Z</time></trkpt><trkpt lon="34.859935" lat="31.72385"><ele>170.8</ele><time>2018-04-04T12:43:11.392Z</time></trkpt><trkpt lon="34.859962" lat="31.7238"><ele>170.8</ele><time>2018-04-04T12:43:12.392Z</time></trkpt><trkpt lon="34.859987" lat="31.72375"><ele>169.9</ele><time>2018-04-04T12:43:13.392Z</time></trkpt><trkpt lon="34.860012" lat="31.723702"><ele>169.9</ele><time>2018-04-04T12:43:14.392Z</time></trkpt><trkpt lon="34.860035" lat="31.723655"><ele>169.9</ele><time>2018-04-04T12:43:15.392Z</time></trkpt><trkpt lon="34.860055" lat="31.723608"><ele>169.9</ele><time>2018-04-04T12:43:16.392Z</time></trkpt><trkpt lon="34.860067" lat="31.723565"><ele>168.9</ele><time>2018-04-04T12:43:17.392Z</time></trkpt><trkpt lon="34.860068" lat="31.723527"><ele>168.9</ele><time>2018-04-04T12:43:18.392Z</time></trkpt><trkpt lon="34.860062" lat="31.723498"><ele>168.9</ele><time>2018-04-04T12:43:19.392Z</time></trkpt><trkpt lon="34.860048" lat="31.72347"><ele>168.9</ele><time>2018-04-04T12:43:20.392Z</time></trkpt><trkpt lon="34.860038" lat="31.723443"><ele>168.9</ele><time>2018-04-04T12:43:21.392Z</time></trkpt><trkpt lon="34.860037" lat="31.72342"><ele>168.9</ele><time>2018-04-04T12:43:22.392Z</time></trkpt><trkpt lon="34.860048" lat="31.723397"><ele>168.9</ele><time>2018-04-04T12:43:23.392Z</time></trkpt><trkpt lon="34.860077" lat="31.723372"><ele>168.9</ele><time>2018-04-04T12:43:24.392Z</time></trkpt><trkpt lon="34.860105" lat="31.723342"><ele>168.9</ele><time>2018-04-04T12:43:25.392Z</time></trkpt><trkpt lon="34.86013" lat="31.72331"><ele>168.9</ele><time>2018-04-04T12:43:26.392Z</time></trkpt><trkpt lon="34.860145" lat="31.723273"><ele>168.9</ele><time>2018-04-04T12:43:27.392Z</time></trkpt><trkpt lon="34.860163" lat="31.723238"><ele>168.9</ele><time>2018-04-04T12:43:28.392Z</time></trkpt><trkpt lon="34.860183" lat="31.723205"><ele>168.9</ele><time>2018-04-04T12:43:29.392Z</time></trkpt><trkpt lon="34.860202" lat="31.723175"><ele>168.9</ele><time>2018-04-04T12:43:30.392Z</time></trkpt><trkpt lon="34.860227" lat="31.723148"><ele>165.8</ele><time>2018-04-04T12:43:31.392Z</time></trkpt><trkpt lon="34.860258" lat="31.723127"><ele>165.8</ele><time>2018-04-04T12:43:32.392Z</time></trkpt><trkpt lon="34.86029" lat="31.723107"><ele>165.8</ele><time>2018-04-04T12:43:33.392Z</time></trkpt><trkpt lon="34.860318" lat="31.72309"><ele>165.8</ele><time>2018-04-04T12:43:34.392Z</time></trkpt><trkpt lon="34.860345" lat="31.723073"><ele>164.9</ele><time>2018-04-04T12:43:35.392Z</time></trkpt><trkpt lon="34.86036" lat="31.72305"><ele>164.9</ele><time>2018-04-04T12:43:36.392Z</time></trkpt><trkpt lon="34.860377" lat="31.723022"><ele>164.9</ele><time>2018-04-04T12:43:37.392Z</time></trkpt><trkpt lon="34.860387" lat="31.722988"><ele>164.9</ele><time>2018-04-04T12:43:38.392Z</time></trkpt><trkpt lon="34.860395" lat="31.722953"><ele>163.8</ele><time>2018-04-04T12:43:39.392Z</time></trkpt><trkpt lon="34.860408" lat="31.722915"><ele>163.8</ele><time>2018-04-04T12:43:40.392Z</time></trkpt><trkpt lon="34.86043" lat="31.72288"><ele>162.9</ele><time>2018-04-04T12:43:41.392Z</time></trkpt><trkpt lon="34.860458" lat="31.722848"><ele>162.9</ele><time>2018-04-04T12:43:42.392Z</time></trkpt><trkpt lon="34.860493" lat="31.722817"><ele>162.9</ele><time>2018-04-04T12:43:43.392Z</time></trkpt><trkpt lon="34.860527" lat="31.722783"><ele>162.9</ele><time>2018-04-04T12:43:44.392Z</time></trkpt><trkpt lon="34.860547" lat="31.722753"><ele>161.9</ele><time>2018-04-04T12:43:45.392Z</time></trkpt><trkpt lon="34.860562" lat="31.722725"><ele>161.9</ele><time>2018-04-04T12:43:46.392Z</time></trkpt><trkpt lon="34.86057" lat="31.722697"><ele>161.9</ele><time>2018-04-04T12:43:47.392Z</time></trkpt><trkpt lon="34.860567" lat="31.72267"><ele>161.9</ele><time>2018-04-04T12:43:48.392Z</time></trkpt><trkpt lon="34.860542" lat="31.722648"><ele>161.9</ele><time>2018-04-04T12:43:49.392Z</time></trkpt><trkpt lon="34.860505" lat="31.722635"><ele>161.9</ele><time>2018-04-04T12:43:50.392Z</time></trkpt><trkpt lon="34.860462" lat="31.722623"><ele>161.9</ele><time>2018-04-04T12:43:51.392Z</time></trkpt><trkpt lon="34.860418" lat="31.722615"><ele>161.9</ele><time>2018-04-04T12:43:52.392Z</time></trkpt><trkpt lon="34.860377" lat="31.722605"><ele>161.9</ele><time>2018-04-04T12:43:53.392Z</time></trkpt><trkpt lon="34.86034" lat="31.722593"><ele>161.9</ele><time>2018-04-04T12:43:54.392Z</time></trkpt><trkpt lon="34.860303" lat="31.722582"><ele>161.9</ele><time>2018-04-04T12:43:55.392Z</time></trkpt><trkpt lon="34.860265" lat="31.72257"><ele>161.9</ele><time>2018-04-04T12:43:56.392Z</time></trkpt><trkpt lon="34.860223" lat="31.72256"><ele>161.9</ele><time>2018-04-04T12:43:57.392Z</time></trkpt><trkpt lon="34.860183" lat="31.722553"><ele>161.9</ele><time>2018-04-04T12:43:58.392Z</time></trkpt><trkpt lon="34.860147" lat="31.72255"><ele>161.9</ele><time>2018-04-04T12:43:59.392Z</time></trkpt><trkpt lon="34.86011" lat="31.722547"><ele>161.9</ele><time>2018-04-04T12:44:00.392Z</time></trkpt><trkpt lon="34.860073" lat="31.722547"><ele>162.9</ele><time>2018-04-04T12:44:01.392Z</time></trkpt><trkpt lon="34.860038" lat="31.72255"><ele>162.9</ele><time>2018-04-04T12:44:02.392Z</time></trkpt><trkpt lon="34.860008" lat="31.722562"><ele>162.9</ele><time>2018-04-04T12:44:03.392Z</time></trkpt><trkpt lon="34.859975" lat="31.722572"><ele>162.9</ele><time>2018-04-04T12:44:04.392Z</time></trkpt><trkpt lon="34.859943" lat="31.722582"><ele>162.9</ele><time>2018-04-04T12:44:05.392Z</time></trkpt><trkpt lon="34.85991" lat="31.722587"><ele>162.9</ele><time>2018-04-04T12:44:06.392Z</time></trkpt><trkpt lon="34.859877" lat="31.722587"><ele>163.8</ele><time>2018-04-04T12:44:07.392Z</time></trkpt><trkpt lon="34.859845" lat="31.722588"><ele>163.8</ele><time>2018-04-04T12:44:08.392Z</time></trkpt><trkpt lon="34.859817" lat="31.722592"><ele>163.8</ele><time>2018-04-04T12:44:09.392Z</time></trkpt><trkpt lon="34.859792" lat="31.722598"><ele>163.8</ele><time>2018-04-04T12:44:10.392Z</time></trkpt><trkpt lon="34.85977" lat="31.722608"><ele>163.8</ele><time>2018-04-04T12:44:11.392Z</time></trkpt><trkpt lon="34.859748" lat="31.72262"><ele>163.8</ele><time>2018-04-04T12:44:12.392Z</time></trkpt><trkpt lon="34.859725" lat="31.72263"><ele>163.8</ele><time>2018-04-04T12:44:13.392Z</time></trkpt><trkpt lon="34.8597" lat="31.722638"><ele>163.8</ele><time>2018-04-04T12:44:14.392Z</time></trkpt><trkpt lon="34.859675" lat="31.722645"><ele>164.9</ele><time>2018-04-04T12:44:15.392Z</time></trkpt><trkpt lon="34.859653" lat="31.722655"><ele>164.9</ele><time>2018-04-04T12:44:16.392Z</time></trkpt><trkpt lon="34.859632" lat="31.722667"><ele>164.9</ele><time>2018-04-04T12:44:17.392Z</time></trkpt><trkpt lon="34.85961" lat="31.722678"><ele>164.9</ele><time>2018-04-04T12:44:18.392Z</time></trkpt><trkpt lon="34.859585" lat="31.722687"><ele>164.9</ele><time>2018-04-04T12:44:19.392Z</time></trkpt><trkpt lon="34.859558" lat="31.722695"><ele>164.9</ele><time>2018-04-04T12:44:20.392Z</time></trkpt><trkpt lon="34.859532" lat="31.722703"><ele>165.8</ele><time>2018-04-04T12:44:21.392Z</time></trkpt><trkpt lon="34.859503" lat="31.72271"><ele>165.8</ele><time>2018-04-04T12:44:22.392Z</time></trkpt><trkpt lon="34.859477" lat="31.722722"><ele>165.8</ele><time>2018-04-04T12:44:23.392Z</time></trkpt><trkpt lon="34.859457" lat="31.722733"><ele>165.8</ele><time>2018-04-04T12:44:24.392Z</time></trkpt><trkpt lon="34.859435" lat="31.722747"><ele>165.8</ele><time>2018-04-04T12:44:25.392Z</time></trkpt><trkpt lon="34.85941" lat="31.72276"><ele>165.8</ele><time>2018-04-04T12:44:26.392Z</time></trkpt><trkpt lon="34.859383" lat="31.722765"><ele>165.8</ele><time>2018-04-04T12:44:27.392Z</time></trkpt><trkpt lon="34.859358" lat="31.722767"><ele>165.8</ele><time>2018-04-04T12:44:28.392Z</time></trkpt><trkpt lon="34.859337" lat="31.722772"><ele>165.8</ele><time>2018-04-04T12:44:29.392Z</time></trkpt><trkpt lon="34.859315" lat="31.722775"><ele>165.8</ele><time>2018-04-04T12:44:30.392Z</time></trkpt><trkpt lon="34.859293" lat="31.722783"><ele>165.8</ele><time>2018-04-04T12:44:31.392Z</time></trkpt><trkpt lon="34.859275" lat="31.722793"><ele>165.8</ele><time>2018-04-04T12:44:32.392Z</time></trkpt><trkpt lon="34.859255" lat="31.722802"><ele>166.9</ele><time>2018-04-04T12:44:33.392Z</time></trkpt><trkpt lon="34.859235" lat="31.72281"><ele>166.9</ele><time>2018-04-04T12:44:34.392Z</time></trkpt><trkpt lon="34.859212" lat="31.72282"><ele>166.9</ele><time>2018-04-04T12:44:35.392Z</time></trkpt><trkpt lon="34.859187" lat="31.72283"><ele>166.9</ele><time>2018-04-04T12:44:36.392Z</time></trkpt><trkpt lon="34.85916" lat="31.722842"><ele>166.9</ele><time>2018-04-04T12:44:37.392Z</time></trkpt><trkpt lon="34.859135" lat="31.722858"><ele>166.9</ele><time>2018-04-04T12:44:38.392Z</time></trkpt><trkpt lon="34.85911" lat="31.722872"><ele>166.9</ele><time>2018-04-04T12:44:39.392Z</time></trkpt><trkpt lon="34.859088" lat="31.722878"><ele>166.9</ele><time>2018-04-04T12:44:40.392Z</time></trkpt><trkpt lon="34.859067" lat="31.72288"><ele>166.9</ele><time>2018-04-04T12:44:41.392Z</time></trkpt><trkpt lon="34.859048" lat="31.72288"><ele>166.9</ele><time>2018-04-04T12:44:42.392Z</time></trkpt><trkpt lon="34.859025" lat="31.722878"><ele>166.9</ele><time>2018-04-04T12:44:43.392Z</time></trkpt><trkpt lon="34.859002" lat="31.722882"><ele>166.9</ele><time>2018-04-04T12:44:44.392Z</time></trkpt><trkpt lon="34.858978" lat="31.72289"><ele>166.9</ele><time>2018-04-04T12:44:45.392Z</time></trkpt><trkpt lon="34.858957" lat="31.722902"><ele>166.9</ele><time>2018-04-04T12:44:46.392Z</time></trkpt><trkpt lon="34.858933" lat="31.722915"><ele>166.9</ele><time>2018-04-04T12:44:47.392Z</time></trkpt><trkpt lon="34.858908" lat="31.722925"><ele>166.9</ele><time>2018-04-04T12:44:48.392Z</time></trkpt><trkpt lon="34.858877" lat="31.722932"><ele>166.9</ele><time>2018-04-04T12:44:49.392Z</time></trkpt><trkpt lon="34.858843" lat="31.722937"><ele>166.9</ele><time>2018-04-04T12:44:50.392Z</time></trkpt><trkpt lon="34.85881" lat="31.722945"><ele>165.8</ele><time>2018-04-04T12:44:51.392Z</time></trkpt><trkpt lon="34.858775" lat="31.722957"><ele>165.8</ele><time>2018-04-04T12:44:52.392Z</time></trkpt><trkpt lon="34.85874" lat="31.72297"><ele>165.8</ele><time>2018-04-04T12:44:53.392Z</time></trkpt><trkpt lon="34.85871" lat="31.72298"><ele>165.8</ele><time>2018-04-04T12:44:54.392Z</time></trkpt><trkpt lon="34.858678" lat="31.722978"><ele>164.9</ele><time>2018-04-04T12:44:55.392Z</time></trkpt><trkpt lon="34.858647" lat="31.72298"><ele>164.9</ele><time>2018-04-04T12:44:56.392Z</time></trkpt><trkpt lon="34.858615" lat="31.722985"><ele>164.9</ele><time>2018-04-04T12:44:57.392Z</time></trkpt><trkpt lon="34.858578" lat="31.722997"><ele>164.9</ele><time>2018-04-04T12:44:58.392Z</time></trkpt><trkpt lon="34.858542" lat="31.72301"><ele>163.8</ele><time>2018-04-04T12:44:59.392Z</time></trkpt><trkpt lon="34.8585" lat="31.723022"><ele>163.8</ele><time>2018-04-04T12:45:00.392Z</time></trkpt><trkpt lon="34.858457" lat="31.723033"><ele>163.8</ele><time>2018-04-04T12:45:01.392Z</time></trkpt><trkpt lon="34.85841" lat="31.723048"><ele>163.8</ele><time>2018-04-04T12:45:02.392Z</time></trkpt><trkpt lon="34.858365" lat="31.72307"><ele>163.8</ele><time>2018-04-04T12:45:03.392Z</time></trkpt><trkpt lon="34.858328" lat="31.723093"><ele>163.8</ele><time>2018-04-04T12:45:04.392Z</time></trkpt><trkpt lon="34.858318" lat="31.72311"><ele>164.9</ele><time>2018-04-04T12:45:05.392Z</time></trkpt><trkpt lon="34.858307" lat="31.723125"><ele>164.9</ele><time>2018-04-04T12:45:06.392Z</time></trkpt><trkpt lon="34.858288" lat="31.723142"><ele>164.9</ele><time>2018-04-04T12:45:07.392Z</time></trkpt><trkpt lon="34.858268" lat="31.723158"><ele>164.9</ele><time>2018-04-04T12:45:08.392Z</time></trkpt><trkpt lon="34.858253" lat="31.723178"><ele>164.9</ele><time>2018-04-04T12:45:09.392Z</time></trkpt><trkpt lon="34.858237" lat="31.723197"><ele>164.9</ele><time>2018-04-04T12:45:10.392Z</time></trkpt><trkpt lon="34.858228" lat="31.723215"><ele>165.8</ele><time>2018-04-04T12:45:11.392Z</time></trkpt><trkpt lon="34.858217" lat="31.723235"><ele>165.8</ele><time>2018-04-04T12:45:12.392Z</time></trkpt><trkpt lon="34.858208" lat="31.723252"><ele>166.9</ele><time>2018-04-04T12:45:13.392Z</time></trkpt><trkpt lon="34.858202" lat="31.723268"><ele>166.9</ele><time>2018-04-04T12:45:14.392Z</time></trkpt><trkpt lon="34.858193" lat="31.723283"><ele>166.9</ele><time>2018-04-04T12:45:15.392Z</time></trkpt><trkpt lon="34.85818" lat="31.723297"><ele>166.9</ele><time>2018-04-04T12:45:16.392Z</time></trkpt><trkpt lon="34.858163" lat="31.723305"><ele>166.9</ele><time>2018-04-04T12:45:17.392Z</time></trkpt><trkpt lon="34.858143" lat="31.723312"><ele>166.9</ele><time>2018-04-04T12:45:18.392Z</time></trkpt><trkpt lon="34.858118" lat="31.723307"><ele>166.9</ele><time>2018-04-04T12:45:19.392Z</time></trkpt><trkpt lon="34.858088" lat="31.723302"><ele>166.9</ele><time>2018-04-04T12:45:20.392Z</time></trkpt><trkpt lon="34.858058" lat="31.7233"><ele>166.9</ele><time>2018-04-04T12:45:21.392Z</time></trkpt><trkpt lon="34.858032" lat="31.723303"><ele>166.9</ele><time>2018-04-04T12:45:22.392Z</time></trkpt><trkpt lon="34.858013" lat="31.72331"><ele>166.9</ele><time>2018-04-04T12:45:23.392Z</time></trkpt><trkpt lon="34.857998" lat="31.723312"><ele>166.9</ele><time>2018-04-04T12:45:24.392Z</time></trkpt><trkpt lon="34.857982" lat="31.72331"><ele>166.9</ele><time>2018-04-04T12:45:25.392Z</time></trkpt><trkpt lon="34.857955" lat="31.723303"><ele>166.9</ele><time>2018-04-04T12:45:26.392Z</time></trkpt><trkpt lon="34.857925" lat="31.7233"><ele>166.9</ele><time>2018-04-04T12:45:27.392Z</time></trkpt><trkpt lon="34.857895" lat="31.72329"><ele>166.9</ele><time>2018-04-04T12:45:28.392Z</time></trkpt><trkpt lon="34.857862" lat="31.723277"><ele>165.8</ele><time>2018-04-04T12:45:29.392Z</time></trkpt><trkpt lon="34.857828" lat="31.723268"><ele>165.8</ele><time>2018-04-04T12:45:30.392Z</time></trkpt><trkpt lon="34.8578" lat="31.72326"><ele>165.8</ele><time>2018-04-04T12:45:31.392Z</time></trkpt><trkpt lon="34.857775" lat="31.72325"><ele>165.8</ele><time>2018-04-04T12:45:32.392Z</time></trkpt><trkpt lon="34.85775" lat="31.723237"><ele>165.8</ele><time>2018-04-04T12:45:33.392Z</time></trkpt><trkpt lon="34.85773" lat="31.723223"><ele>165.8</ele><time>2018-04-04T12:45:34.392Z</time></trkpt><trkpt lon="34.857713" lat="31.723203"><ele>165.8</ele><time>2018-04-04T12:45:35.392Z</time></trkpt><trkpt lon="34.8577" lat="31.723183"><ele>165.8</ele><time>2018-04-04T12:45:36.392Z</time></trkpt><trkpt lon="34.857695" lat="31.72316"><ele>164.9</ele><time>2018-04-04T12:45:37.392Z</time></trkpt><trkpt lon="34.8577" lat="31.723132"><ele>164.9</ele><time>2018-04-04T12:45:38.392Z</time></trkpt><trkpt lon="34.857713" lat="31.7231"><ele>163.8</ele><time>2018-04-04T12:45:39.392Z</time></trkpt><trkpt lon="34.857733" lat="31.723063"><ele>163.8</ele><time>2018-04-04T12:45:40.392Z</time></trkpt><trkpt lon="34.857755" lat="31.723022"><ele>163.8</ele><time>2018-04-04T12:45:41.392Z</time></trkpt><trkpt lon="34.857778" lat="31.722978"><ele>163.8</ele><time>2018-04-04T12:45:42.392Z</time></trkpt><trkpt lon="34.857802" lat="31.722937"><ele>162.9</ele><time>2018-04-04T12:45:43.392Z</time></trkpt><trkpt lon="34.857827" lat="31.722897"><ele>162.9</ele><time>2018-04-04T12:45:44.392Z</time></trkpt><trkpt lon="34.857857" lat="31.722857"><ele>161.9</ele><time>2018-04-04T12:45:45.392Z</time></trkpt><trkpt lon="34.857885" lat="31.722815"><ele>161.9</ele><time>2018-04-04T12:45:46.392Z</time></trkpt><trkpt lon="34.85791" lat="31.72277"><ele>161.9</ele><time>2018-04-04T12:45:47.392Z</time></trkpt><trkpt lon="34.857937" lat="31.722728"><ele>161.9</ele><time>2018-04-04T12:45:48.392Z</time></trkpt><trkpt lon="34.857965" lat="31.722685"><ele>161.9</ele><time>2018-04-04T12:45:49.392Z</time></trkpt><trkpt lon="34.857988" lat="31.722645"><ele>161.9</ele><time>2018-04-04T12:45:50.392Z</time></trkpt><trkpt lon="34.858012" lat="31.722608"><ele>161.9</ele><time>2018-04-04T12:45:51.392Z</time></trkpt><trkpt lon="34.858035" lat="31.722577"><ele>161.9</ele><time>2018-04-04T12:45:52.392Z</time></trkpt><trkpt lon="34.858062" lat="31.722548"><ele>161.9</ele><time>2018-04-04T12:45:53.392Z</time></trkpt><trkpt lon="34.8581" lat="31.722517"><ele>161.9</ele><time>2018-04-04T12:45:54.392Z</time></trkpt><trkpt lon="34.858132" lat="31.722472"><ele>161.9</ele><time>2018-04-04T12:45:55.392Z</time></trkpt><trkpt lon="34.858158" lat="31.722427"><ele>161.9</ele><time>2018-04-04T12:45:56.392Z</time></trkpt><trkpt lon="34.858183" lat="31.722383"><ele>159.9</ele><time>2018-04-04T12:45:57.392Z</time></trkpt><trkpt lon="34.85821" lat="31.722347"><ele>159.9</ele><time>2018-04-04T12:45:58.392Z</time></trkpt><trkpt lon="34.85824" lat="31.722313"><ele>158.8</ele><time>2018-04-04T12:45:59.392Z</time></trkpt><trkpt lon="34.858273" lat="31.722285"><ele>158.8</ele><time>2018-04-04T12:46:00.392Z</time></trkpt><trkpt lon="34.858305" lat="31.72226"><ele>158.8</ele><time>2018-04-04T12:46:01.392Z</time></trkpt><trkpt lon="34.858335" lat="31.722237"><ele>158.8</ele><time>2018-04-04T12:46:02.392Z</time></trkpt><trkpt lon="34.858358" lat="31.722212"><ele>158.8</ele><time>2018-04-04T12:46:03.392Z</time></trkpt><trkpt lon="34.858378" lat="31.72219"><ele>158.8</ele><time>2018-04-04T12:46:04.392Z</time></trkpt><trkpt lon="34.858403" lat="31.722172"><ele>158.8</ele><time>2018-04-04T12:46:05.392Z</time></trkpt><trkpt lon="34.858433" lat="31.72215"><ele>158.8</ele><time>2018-04-04T12:46:06.392Z</time></trkpt><trkpt lon="34.85847" lat="31.722123"><ele>158.8</ele><time>2018-04-04T12:46:07.392Z</time></trkpt><trkpt lon="34.85851" lat="31.722095"><ele>158.8</ele><time>2018-04-04T12:46:08.392Z</time></trkpt><trkpt lon="34.858547" lat="31.722062"><ele>158.8</ele><time>2018-04-04T12:46:09.392Z</time></trkpt><trkpt lon="34.85858" lat="31.72202"><ele>158.8</ele><time>2018-04-04T12:46:10.392Z</time></trkpt><trkpt lon="34.85862" lat="31.721983"><ele>156.8</ele><time>2018-04-04T12:46:11.392Z</time></trkpt><trkpt lon="34.858665" lat="31.721947"><ele>156.8</ele><time>2018-04-04T12:46:12.392Z</time></trkpt><trkpt lon="34.858708" lat="31.721908"><ele>155.9</ele><time>2018-04-04T12:46:13.392Z</time></trkpt><trkpt lon="34.858745" lat="31.721868"><ele>155.9</ele><time>2018-04-04T12:46:14.392Z</time></trkpt><trkpt lon="34.858782" lat="31.72183"><ele>155.9</ele><time>2018-04-04T12:46:15.392Z</time></trkpt><trkpt lon="34.858818" lat="31.721793"><ele>155.9</ele><time>2018-04-04T12:46:16.392Z</time></trkpt><trkpt lon="34.858858" lat="31.721762"><ele>154.8</ele><time>2018-04-04T12:46:17.392Z</time></trkpt><trkpt lon="34.858898" lat="31.721735"><ele>154.8</ele><time>2018-04-04T12:46:18.392Z</time></trkpt><trkpt lon="34.858938" lat="31.721708"><ele>154.8</ele><time>2018-04-04T12:46:19.392Z</time></trkpt><trkpt lon="34.858975" lat="31.721677"><ele>154.8</ele><time>2018-04-04T12:46:20.392Z</time></trkpt><trkpt lon="34.859012" lat="31.721648"><ele>154.8</ele><time>2018-04-04T12:46:21.392Z</time></trkpt><trkpt lon="34.859048" lat="31.72162"><ele>154.8</ele><time>2018-04-04T12:46:22.392Z</time></trkpt><trkpt lon="34.859088" lat="31.721592"><ele>153.9</ele><time>2018-04-04T12:46:23.392Z</time></trkpt><trkpt lon="34.859127" lat="31.721562"><ele>153.9</ele><time>2018-04-04T12:46:24.392Z</time></trkpt><trkpt lon="34.859162" lat="31.721533"><ele>153.9</ele><time>2018-04-04T12:46:25.392Z</time></trkpt><trkpt lon="34.859198" lat="31.721503"><ele>153.9</ele><time>2018-04-04T12:46:26.392Z</time></trkpt><trkpt lon="34.859232" lat="31.721468"><ele>152.9</ele><time>2018-04-04T12:46:27.392Z</time></trkpt><trkpt lon="34.859262" lat="31.721435"><ele>152.9</ele><time>2018-04-04T12:46:28.392Z</time></trkpt><trkpt lon="34.85929" lat="31.721398"><ele>152.9</ele><time>2018-04-04T12:46:29.392Z</time></trkpt><trkpt lon="34.859315" lat="31.721358"><ele>152.9</ele><time>2018-04-04T12:46:30.392Z</time></trkpt><trkpt lon="34.859338" lat="31.721318"><ele>152.9</ele><time>2018-04-04T12:46:31.392Z</time></trkpt><trkpt lon="34.859363" lat="31.72128"><ele>152.9</ele><time>2018-04-04T12:46:32.392Z</time></trkpt><trkpt lon="34.85939" lat="31.721248"><ele>152.9</ele><time>2018-04-04T12:46:33.392Z</time></trkpt><trkpt lon="34.859415" lat="31.721213"><ele>152.9</ele><time>2018-04-04T12:46:34.392Z</time></trkpt><trkpt lon="34.859433" lat="31.721178"><ele>151.9</ele><time>2018-04-04T12:46:35.392Z</time></trkpt><trkpt lon="34.85945" lat="31.721138"><ele>151.9</ele><time>2018-04-04T12:46:36.392Z</time></trkpt><trkpt lon="34.859463" lat="31.721098"><ele>151.9</ele><time>2018-04-04T12:46:37.392Z</time></trkpt><trkpt lon="34.859475" lat="31.721058"><ele>151.9</ele><time>2018-04-04T12:46:38.392Z</time></trkpt><trkpt lon="34.859487" lat="31.72102"><ele>150.9</ele><time>2018-04-04T12:46:39.392Z</time></trkpt><trkpt lon="34.859498" lat="31.720985"><ele>150.9</ele><time>2018-04-04T12:46:40.392Z</time></trkpt><trkpt lon="34.859502" lat="31.720947"><ele>150.9</ele><time>2018-04-04T12:46:41.392Z</time></trkpt><trkpt lon="34.8595" lat="31.720908"><ele>150.9</ele><time>2018-04-04T12:46:42.392Z</time></trkpt><trkpt lon="34.859493" lat="31.720875"><ele>150.9</ele><time>2018-04-04T12:46:43.392Z</time></trkpt><trkpt lon="34.859487" lat="31.720842"><ele>150.9</ele><time>2018-04-04T12:46:44.392Z</time></trkpt><trkpt lon="34.859475" lat="31.720813"><ele>150.9</ele><time>2018-04-04T12:46:45.392Z</time></trkpt><trkpt lon="34.859467" lat="31.720785"><ele>150.9</ele><time>2018-04-04T12:46:46.392Z</time></trkpt><trkpt lon="34.859457" lat="31.72075"><ele>150.9</ele><time>2018-04-04T12:46:47.392Z</time></trkpt><trkpt lon="34.859447" lat="31.720713"><ele>150.9</ele><time>2018-04-04T12:46:48.392Z</time></trkpt><trkpt lon="34.859437" lat="31.720678"><ele>149.8</ele><time>2018-04-04T12:46:49.392Z</time></trkpt><trkpt lon="34.859425" lat="31.720647"><ele>149.8</ele><time>2018-04-04T12:46:50.392Z</time></trkpt><trkpt lon="34.859415" lat="31.720618"><ele>149.8</ele><time>2018-04-04T12:46:51.392Z</time></trkpt><trkpt lon="34.859408" lat="31.720592"><ele>149.8</ele><time>2018-04-04T12:46:52.392Z</time></trkpt><trkpt lon="34.859403" lat="31.720562"><ele>148.9</ele><time>2018-04-04T12:46:53.392Z</time></trkpt><trkpt lon="34.859397" lat="31.72053"><ele>148.9</ele><time>2018-04-04T12:46:54.392Z</time></trkpt><trkpt lon="34.859395" lat="31.720493"><ele>148.9</ele><time>2018-04-04T12:46:55.392Z</time></trkpt><trkpt lon="34.859388" lat="31.720453"><ele>148.9</ele><time>2018-04-04T12:46:56.392Z</time></trkpt><trkpt lon="34.859382" lat="31.720408"><ele>148.9</ele><time>2018-04-04T12:46:57.392Z</time></trkpt><trkpt lon="34.85937" lat="31.720365"><ele>148.9</ele><time>2018-04-04T12:46:58.392Z</time></trkpt><trkpt lon="34.859357" lat="31.720323"><ele>148.9</ele><time>2018-04-04T12:46:59.392Z</time></trkpt><trkpt lon="34.859338" lat="31.720285"><ele>148.9</ele><time>2018-04-04T12:47:00.392Z</time></trkpt><trkpt lon="34.85932" lat="31.72025"><ele>148.9</ele><time>2018-04-04T12:47:01.392Z</time></trkpt><trkpt lon="34.859312" lat="31.72022"><ele>148.9</ele><time>2018-04-04T12:47:02.392Z</time></trkpt><trkpt lon="34.859305" lat="31.720188"><ele>148.9</ele><time>2018-04-04T12:47:03.392Z</time></trkpt><trkpt lon="34.859297" lat="31.720153"><ele>148.9</ele><time>2018-04-04T12:47:04.392Z</time></trkpt><trkpt lon="34.859277" lat="31.72012"><ele>147.8</ele><time>2018-04-04T12:47:05.392Z</time></trkpt><trkpt lon="34.859258" lat="31.720087"><ele>147.8</ele><time>2018-04-04T12:47:06.392Z</time></trkpt><trkpt lon="34.859247" lat="31.720057"><ele>147.8</ele><time>2018-04-04T12:47:07.392Z</time></trkpt><trkpt lon="34.859232" lat="31.720023"><ele>147.8</ele><time>2018-04-04T12:47:08.392Z</time></trkpt><trkpt lon="34.859222" lat="31.719988"><ele>146.9</ele><time>2018-04-04T12:47:09.392Z</time></trkpt><trkpt lon="34.859212" lat="31.719952"><ele>146.9</ele><time>2018-04-04T12:47:10.392Z</time></trkpt><trkpt lon="34.859195" lat="31.719915"><ele>146.9</ele><time>2018-04-04T12:47:11.392Z</time></trkpt><trkpt lon="34.859175" lat="31.719878"><ele>146.9</ele><time>2018-04-04T12:47:12.392Z</time></trkpt><trkpt lon="34.859143" lat="31.719847"><ele>146.9</ele><time>2018-04-04T12:47:13.392Z</time></trkpt><trkpt lon="34.859102" lat="31.719817"><ele>146.9</ele><time>2018-04-04T12:47:14.392Z</time></trkpt><trkpt lon="34.859063" lat="31.719783"><ele>145.8</ele><time>2018-04-04T12:47:15.392Z</time></trkpt><trkpt lon="34.85903" lat="31.719747"><ele>145.8</ele><time>2018-04-04T12:47:16.392Z</time></trkpt><trkpt lon="34.858993" lat="31.719703"><ele>145.8</ele><time>2018-04-04T12:47:17.392Z</time></trkpt><trkpt lon="34.858953" lat="31.719667"><ele>145.8</ele><time>2018-04-04T12:47:18.392Z</time></trkpt><trkpt lon="34.85891" lat="31.719635"><ele>145.8</ele><time>2018-04-04T12:47:19.392Z</time></trkpt><trkpt lon="34.858865" lat="31.719605"><ele>145.8</ele><time>2018-04-04T12:47:20.392Z</time></trkpt><trkpt lon="34.85882" lat="31.719573"><ele>145.8</ele><time>2018-04-04T12:47:21.392Z</time></trkpt><trkpt lon="34.858777" lat="31.719545"><ele>145.8</ele><time>2018-04-04T12:47:22.392Z</time></trkpt><trkpt lon="34.858732" lat="31.719512"><ele>144.9</ele><time>2018-04-04T12:47:23.392Z</time></trkpt><trkpt lon="34.858685" lat="31.719477"><ele>144.9</ele><time>2018-04-04T12:47:24.392Z</time></trkpt><trkpt lon="34.858638" lat="31.719438"><ele>144.9</ele><time>2018-04-04T12:47:25.392Z</time></trkpt><trkpt lon="34.85859" lat="31.7194"><ele>144.9</ele><time>2018-04-04T12:47:26.392Z</time></trkpt><trkpt lon="34.858538" lat="31.719362"><ele>144.9</ele><time>2018-04-04T12:47:27.392Z</time></trkpt><trkpt lon="34.858488" lat="31.719322"><ele>144.9</ele><time>2018-04-04T12:47:28.392Z</time></trkpt><trkpt lon="34.85844" lat="31.719283"><ele>144.9</ele><time>2018-04-04T12:47:29.392Z</time></trkpt><trkpt lon="34.858397" lat="31.719245"><ele>144.9</ele><time>2018-04-04T12:47:30.392Z</time></trkpt><trkpt lon="34.858358" lat="31.719203"><ele>144.9</ele><time>2018-04-04T12:47:31.392Z</time></trkpt><trkpt lon="34.85833" lat="31.71916"><ele>144.9</ele><time>2018-04-04T12:47:32.392Z</time></trkpt><trkpt lon="34.85831" lat="31.719113"><ele>144.9</ele><time>2018-04-04T12:47:33.392Z</time></trkpt><trkpt lon="34.858298" lat="31.719072"><ele>144.9</ele><time>2018-04-04T12:47:34.392Z</time></trkpt><trkpt lon="34.858288" lat="31.719032"><ele>144.9</ele><time>2018-04-04T12:47:35.392Z</time></trkpt><trkpt lon="34.858283" lat="31.719"><ele>144.9</ele><time>2018-04-04T12:47:36.392Z</time></trkpt><trkpt lon="34.858277" lat="31.718972"><ele>145.8</ele><time>2018-04-04T12:47:37.392Z</time></trkpt><trkpt lon="34.85827" lat="31.718945"><ele>145.8</ele><time>2018-04-04T12:47:38.392Z</time></trkpt><trkpt lon="34.858263" lat="31.718923"><ele>145.8</ele><time>2018-04-04T12:47:39.392Z</time></trkpt><trkpt lon="34.858262" lat="31.718907"><ele>145.8</ele><time>2018-04-04T12:47:40.392Z</time></trkpt><trkpt lon="34.85826" lat="31.7189"><ele>145.8</ele><time>2018-04-04T12:47:41.392Z</time></trkpt><trkpt lon="34.858263" lat="31.718895"><ele>145.8</ele><time>2018-04-04T12:47:42.392Z</time></trkpt><trkpt lon="34.858265" lat="31.718887"><ele>145.8</ele><time>2018-04-04T12:47:43.392Z</time></trkpt><trkpt lon="34.858262" lat="31.718877"><ele>145.8</ele><time>2018-04-04T12:47:44.392Z</time></trkpt><trkpt lon="34.858257" lat="31.718867"><ele>146.9</ele><time>2018-04-04T12:47:45.392Z</time></trkpt><trkpt lon="34.85825" lat="31.718857"><ele>146.9</ele><time>2018-04-04T12:47:46.392Z</time></trkpt><trkpt lon="34.858243" lat="31.718843"><ele>146.9</ele><time>2018-04-04T12:47:47.392Z</time></trkpt><trkpt lon="34.858237" lat="31.71883"><ele>146.9</ele><time>2018-04-04T12:47:48.392Z</time></trkpt><trkpt lon="34.858227" lat="31.718818"><ele>147.8</ele><time>2018-04-04T12:47:49.392Z</time></trkpt><trkpt lon="34.858215" lat="31.71881"><ele>147.8</ele><time>2018-04-04T12:47:50.392Z</time></trkpt><trkpt lon="34.8582" lat="31.718803"><ele>147.8</ele><time>2018-04-04T12:47:51.392Z</time></trkpt><trkpt lon="34.858187" lat="31.718798"><ele>147.8</ele><time>2018-04-04T12:47:52.392Z</time></trkpt><trkpt lon="34.858172" lat="31.718793"><ele>147.8</ele><time>2018-04-04T12:47:53.392Z</time></trkpt><trkpt lon="34.858155" lat="31.718793"><ele>147.8</ele><time>2018-04-04T12:47:54.392Z</time></trkpt><trkpt lon="34.858137" lat="31.718795"><ele>148.9</ele><time>2018-04-04T12:47:55.392Z</time></trkpt><trkpt lon="34.858118" lat="31.718793"><ele>148.9</ele><time>2018-04-04T12:47:56.392Z</time></trkpt><trkpt lon="34.8581" lat="31.718785"><ele>148.9</ele><time>2018-04-04T12:47:57.392Z</time></trkpt><trkpt lon="34.858083" lat="31.718777"><ele>148.9</ele><time>2018-04-04T12:47:58.392Z</time></trkpt><trkpt lon="34.858078" lat="31.718763"><ele>148.9</ele><time>2018-04-04T12:47:59.392Z</time></trkpt><trkpt lon="34.858068" lat="31.718752"><ele>148.9</ele><time>2018-04-04T12:48:00.392Z</time></trkpt><trkpt lon="34.858055" lat="31.71874"><ele>148.9</ele><time>2018-04-04T12:48:01.392Z</time></trkpt><trkpt lon="34.858042" lat="31.718728"><ele>148.9</ele><time>2018-04-04T12:48:02.392Z</time></trkpt><trkpt lon="34.858025" lat="31.718717"><ele>149.8</ele><time>2018-04-04T12:48:03.392Z</time></trkpt><trkpt lon="34.858005" lat="31.718705"><ele>149.8</ele><time>2018-04-04T12:48:04.392Z</time></trkpt><trkpt lon="34.857983" lat="31.718692"><ele>149.8</ele><time>2018-04-04T12:48:05.392Z</time></trkpt><trkpt lon="34.857965" lat="31.718682"><ele>149.8</ele><time>2018-04-04T12:48:06.392Z</time></trkpt><trkpt lon="34.857948" lat="31.718677"><ele>149.8</ele><time>2018-04-04T12:48:07.392Z</time></trkpt><trkpt lon="34.857935" lat="31.718673"><ele>149.8</ele><time>2018-04-04T12:48:08.392Z</time></trkpt><trkpt lon="34.857925" lat="31.718673"><ele>150.9</ele><time>2018-04-04T12:48:09.392Z</time></trkpt><trkpt lon="34.85792" lat="31.718672"><ele>150.9</ele><time>2018-04-04T12:48:10.392Z</time></trkpt><trkpt lon="34.857918" lat="31.71867"><ele>150.9</ele><time>2018-04-04T12:48:11.392Z</time></trkpt><trkpt lon="34.857913" lat="31.718668"><ele>150.9</ele><time>2018-04-04T12:48:12.392Z</time></trkpt><trkpt lon="34.857905" lat="31.718668"><ele>150.9</ele><time>2018-04-04T12:48:13.392Z</time></trkpt><trkpt lon="34.857898" lat="31.718672"><ele>150.9</ele><time>2018-04-04T12:48:14.392Z</time></trkpt><trkpt lon="34.85789" lat="31.718673"><ele>150.9</ele><time>2018-04-04T12:48:15.392Z</time></trkpt><trkpt lon="34.857882" lat="31.718672"><ele>150.9</ele><time>2018-04-04T12:48:16.392Z</time></trkpt><trkpt lon="34.857873" lat="31.718668"><ele>150.9</ele><time>2018-04-04T12:48:17.392Z</time></trkpt><trkpt lon="34.857865" lat="31.718663"><ele>150.9</ele><time>2018-04-04T12:48:18.392Z</time></trkpt><trkpt lon="34.857858" lat="31.718658"><ele>150.9</ele><time>2018-04-04T12:48:19.392Z</time></trkpt><trkpt lon="34.857853" lat="31.718655"><ele>150.9</ele><time>2018-04-04T12:48:20.392Z</time></trkpt><trkpt lon="34.857852" lat="31.718652"><ele>150.9</ele><time>2018-04-04T12:48:21.392Z</time></trkpt><trkpt lon="34.85785" lat="31.71865"><ele>150.9</ele><time>2018-04-04T12:48:22.392Z</time></trkpt><trkpt lon="34.857848" lat="31.71865"><ele>151.9</ele><time>2018-04-04T12:48:23.392Z</time></trkpt><trkpt lon="34.857838" lat="31.718635"><ele>150.9</ele><time>2018-04-04T12:48:28.392Z</time></trkpt><trkpt lon="34.857838" lat="31.718635"><ele>150.9</ele><time>2018-04-04T12:48:29.392Z</time></trkpt><trkpt lon="34.857818" lat="31.71862"><ele>150.9</ele><time>2018-04-04T12:49:50.392Z</time></trkpt><trkpt lon="34.857812" lat="31.718613"><ele>150.9</ele><time>2018-04-04T12:49:51.392Z</time></trkpt><trkpt lon="34.857807" lat="31.718608"><ele>150.9</ele><time>2018-04-04T12:49:52.392Z</time></trkpt><trkpt lon="34.857802" lat="31.718605"><ele>150.9</ele><time>2018-04-04T12:49:53.392Z</time></trkpt><trkpt lon="34.857802" lat="31.718605"><ele>150.9</ele><time>2018-04-04T12:49:54.392Z</time></trkpt><trkpt lon="34.8578" lat="31.718605"><ele>150.9</ele><time>2018-04-04T12:49:55.392Z</time></trkpt><trkpt lon="34.857792" lat="31.718595"><ele>150.9</ele><time>2018-04-04T12:49:58.392Z</time></trkpt><trkpt lon="34.857788" lat="31.718592"><ele>150.9</ele><time>2018-04-04T12:49:59.392Z</time></trkpt><trkpt lon="34.857787" lat="31.718587"><ele>150.9</ele><time>2018-04-04T12:50:00.392Z</time></trkpt><trkpt lon="34.857783" lat="31.718578"><ele>150.9</ele><time>2018-04-04T12:50:01.392Z</time></trkpt><trkpt lon="34.857778" lat="31.718567"><ele>150.9</ele><time>2018-04-04T12:50:02.392Z</time></trkpt><trkpt lon="34.85777" lat="31.718552"><ele>150.9</ele><time>2018-04-04T12:50:03.392Z</time></trkpt><trkpt lon="34.857762" lat="31.718538"><ele>150.9</ele><time>2018-04-04T12:50:04.392Z</time></trkpt><trkpt lon="34.857755" lat="31.718527"><ele>150.9</ele><time>2018-04-04T12:50:05.392Z</time></trkpt><trkpt lon="34.857753" lat="31.718513"><ele>150.9</ele><time>2018-04-04T12:50:06.392Z</time></trkpt><trkpt lon="34.857752" lat="31.7185"><ele>150.9</ele><time>2018-04-04T12:50:07.392Z</time></trkpt><trkpt lon="34.857755" lat="31.718483"><ele>150.9</ele><time>2018-04-04T12:50:08.392Z</time></trkpt><trkpt lon="34.857762" lat="31.718465"><ele>150.9</ele><time>2018-04-04T12:50:09.392Z</time></trkpt><trkpt lon="34.857763" lat="31.718442"><ele>150.9</ele><time>2018-04-04T12:50:10.392Z</time></trkpt><trkpt lon="34.857763" lat="31.71842"><ele>150.9</ele><time>2018-04-04T12:50:11.392Z</time></trkpt><trkpt lon="34.857763" lat="31.718402"><ele>150.9</ele><time>2018-04-04T12:50:12.392Z</time></trkpt><trkpt lon="34.85776" lat="31.71838"><ele>150.9</ele><time>2018-04-04T12:50:13.392Z</time></trkpt><trkpt lon="34.857753" lat="31.718353"><ele>150.9</ele><time>2018-04-04T12:50:14.392Z</time></trkpt><trkpt lon="34.857742" lat="31.71833"><ele>150.9</ele><time>2018-04-04T12:50:15.392Z</time></trkpt><trkpt lon="34.857728" lat="31.71831"><ele>150.9</ele><time>2018-04-04T12:50:16.392Z</time></trkpt><trkpt lon="34.857713" lat="31.718292"><ele>149.8</ele><time>2018-04-04T12:50:17.392Z</time></trkpt><trkpt lon="34.857698" lat="31.718273"><ele>149.8</ele><time>2018-04-04T12:50:18.392Z</time></trkpt><trkpt lon="34.857683" lat="31.718255"><ele>149.8</ele><time>2018-04-04T12:50:19.392Z</time></trkpt><trkpt lon="34.857667" lat="31.718237"><ele>149.8</ele><time>2018-04-04T12:50:20.392Z</time></trkpt><trkpt lon="34.857645" lat="31.718217"><ele>149.8</ele><time>2018-04-04T12:50:21.392Z</time></trkpt><trkpt lon="34.857627" lat="31.718197"><ele>149.8</ele><time>2018-04-04T12:50:22.392Z</time></trkpt><trkpt lon="34.857602" lat="31.718178"><ele>148.9</ele><time>2018-04-04T12:50:23.392Z</time></trkpt><trkpt lon="34.857575" lat="31.71816"><ele>148.9</ele><time>2018-04-04T12:50:24.392Z</time></trkpt><trkpt lon="34.857545" lat="31.718142"><ele>148.9</ele><time>2018-04-04T12:50:25.392Z</time></trkpt><trkpt lon="34.857512" lat="31.718128"><ele>148.9</ele><time>2018-04-04T12:50:26.392Z</time></trkpt><trkpt lon="34.857478" lat="31.71812"><ele>148.9</ele><time>2018-04-04T12:50:27.392Z</time></trkpt><trkpt lon="34.857447" lat="31.718115"><ele>148.9</ele><time>2018-04-04T12:50:28.392Z</time></trkpt><trkpt lon="34.857415" lat="31.718113"><ele>148.9</ele><time>2018-04-04T12:50:29.392Z</time></trkpt><trkpt lon="34.857383" lat="31.718113"><ele>148.9</ele><time>2018-04-04T12:50:30.392Z</time></trkpt><trkpt lon="34.857355" lat="31.718117"><ele>148.9</ele><time>2018-04-04T12:50:31.392Z</time></trkpt><trkpt lon="34.857327" lat="31.718122"><ele>148.9</ele><time>2018-04-04T12:50:32.392Z</time></trkpt><trkpt lon="34.857298" lat="31.718125"><ele>148.9</ele><time>2018-04-04T12:50:33.392Z</time></trkpt><trkpt lon="34.857268" lat="31.718127"><ele>148.9</ele><time>2018-04-04T12:50:34.392Z</time></trkpt><trkpt lon="34.857233" lat="31.718125"><ele>150.9</ele><time>2018-04-04T12:50:35.392Z</time></trkpt><trkpt lon="34.857197" lat="31.718127"><ele>150.9</ele><time>2018-04-04T12:50:36.392Z</time></trkpt><trkpt lon="34.857162" lat="31.71813"><ele>150.9</ele><time>2018-04-04T12:50:37.392Z</time></trkpt><trkpt lon="34.857127" lat="31.718133"><ele>150.9</ele><time>2018-04-04T12:50:38.392Z</time></trkpt><trkpt lon="34.857093" lat="31.718138"><ele>150.9</ele><time>2018-04-04T12:50:39.392Z</time></trkpt><trkpt lon="34.857062" lat="31.718145"><ele>150.9</ele><time>2018-04-04T12:50:40.392Z</time></trkpt><trkpt lon="34.85703" lat="31.718153"><ele>151.9</ele><time>2018-04-04T12:50:41.392Z</time></trkpt><trkpt lon="34.856997" lat="31.718157"><ele>151.9</ele><time>2018-04-04T12:50:42.392Z</time></trkpt><trkpt lon="34.856963" lat="31.71816"><ele>151.9</ele><time>2018-04-04T12:50:43.392Z</time></trkpt><trkpt lon="34.856928" lat="31.718163"><ele>151.9</ele><time>2018-04-04T12:50:44.392Z</time></trkpt><trkpt lon="34.856897" lat="31.718167"><ele>151.9</ele><time>2018-04-04T12:50:45.392Z</time></trkpt><trkpt lon="34.856867" lat="31.71817"><ele>151.9</ele><time>2018-04-04T12:50:46.392Z</time></trkpt><trkpt lon="34.856838" lat="31.718178"><ele>152.9</ele><time>2018-04-04T12:50:47.392Z</time></trkpt><trkpt lon="34.856813" lat="31.718188"><ele>152.9</ele><time>2018-04-04T12:50:48.392Z</time></trkpt><trkpt lon="34.85679" lat="31.718197"><ele>152.9</ele><time>2018-04-04T12:50:49.392Z</time></trkpt><trkpt lon="34.856765" lat="31.718202"><ele>152.9</ele><time>2018-04-04T12:50:50.392Z</time></trkpt><trkpt lon="34.856738" lat="31.718207"><ele>152.9</ele><time>2018-04-04T12:50:51.392Z</time></trkpt><trkpt lon="34.856708" lat="31.71821"><ele>152.9</ele><time>2018-04-04T12:50:52.392Z</time></trkpt><trkpt lon="34.856682" lat="31.718213"><ele>152.9</ele><time>2018-04-04T12:50:53.392Z</time></trkpt><trkpt lon="34.856653" lat="31.718217"><ele>152.9</ele><time>2018-04-04T12:50:54.392Z</time></trkpt><trkpt lon="34.856623" lat="31.718225"><ele>152.9</ele><time>2018-04-04T12:50:55.392Z</time></trkpt><trkpt lon="34.856593" lat="31.718233"><ele>152.9</ele><time>2018-04-04T12:50:56.392Z</time></trkpt><trkpt lon="34.856562" lat="31.718247"><ele>152.9</ele><time>2018-04-04T12:50:57.392Z</time></trkpt><trkpt lon="34.856528" lat="31.718262"><ele>152.9</ele><time>2018-04-04T12:50:58.392Z</time></trkpt><trkpt lon="34.856497" lat="31.718277"><ele>152.9</ele><time>2018-04-04T12:50:59.392Z</time></trkpt><trkpt lon="34.856467" lat="31.718292"><ele>152.9</ele><time>2018-04-04T12:51:00.392Z</time></trkpt><trkpt lon="34.856437" lat="31.718308"><ele>152.9</ele><time>2018-04-04T12:51:01.392Z</time></trkpt><trkpt lon="34.856407" lat="31.718323"><ele>152.9</ele><time>2018-04-04T12:51:02.392Z</time></trkpt><trkpt lon="34.856378" lat="31.718337"><ele>152.9</ele><time>2018-04-04T12:51:03.392Z</time></trkpt><trkpt lon="34.85635" lat="31.718352"><ele>152.9</ele><time>2018-04-04T12:51:04.392Z</time></trkpt><trkpt lon="34.856327" lat="31.718367"><ele>152.9</ele><time>2018-04-04T12:51:05.392Z</time></trkpt><trkpt lon="34.856305" lat="31.71838"><ele>152.9</ele><time>2018-04-04T12:51:06.392Z</time></trkpt><trkpt lon="34.856283" lat="31.718395"><ele>153.9</ele><time>2018-04-04T12:51:07.392Z</time></trkpt><trkpt lon="34.856263" lat="31.718412"><ele>153.9</ele><time>2018-04-04T12:51:08.392Z</time></trkpt><trkpt lon="34.856243" lat="31.718427"><ele>153.9</ele><time>2018-04-04T12:51:09.392Z</time></trkpt><trkpt lon="34.856223" lat="31.718442"><ele>153.9</ele><time>2018-04-04T12:51:10.392Z</time></trkpt><trkpt lon="34.856205" lat="31.718455"><ele>153.9</ele><time>2018-04-04T12:51:11.392Z</time></trkpt><trkpt lon="34.856185" lat="31.718467"><ele>153.9</ele><time>2018-04-04T12:51:12.392Z</time></trkpt><trkpt lon="34.856168" lat="31.71848"><ele>154.8</ele><time>2018-04-04T12:51:13.392Z</time></trkpt><trkpt lon="34.856155" lat="31.718492"><ele>154.8</ele><time>2018-04-04T12:51:14.392Z</time></trkpt><trkpt lon="34.856143" lat="31.718503"><ele>154.8</ele><time>2018-04-04T12:51:15.392Z</time></trkpt><trkpt lon="34.856133" lat="31.718518"><ele>154.8</ele><time>2018-04-04T12:51:16.392Z</time></trkpt><trkpt lon="34.856122" lat="31.71853"><ele>155.9</ele><time>2018-04-04T12:51:17.392Z</time></trkpt><trkpt lon="34.856108" lat="31.718543"><ele>155.9</ele><time>2018-04-04T12:51:18.392Z</time></trkpt><trkpt lon="34.856093" lat="31.718557"><ele>155.9</ele><time>2018-04-04T12:51:19.392Z</time></trkpt><trkpt lon="34.856078" lat="31.718568"><ele>155.9</ele><time>2018-04-04T12:51:20.392Z</time></trkpt><trkpt lon="34.85606" lat="31.718582"><ele>156.8</ele><time>2018-04-04T12:51:21.392Z</time></trkpt><trkpt lon="34.856042" lat="31.718595"><ele>156.8</ele><time>2018-04-04T12:51:22.392Z</time></trkpt><trkpt lon="34.856027" lat="31.71861"><ele>156.8</ele><time>2018-04-04T12:51:23.392Z</time></trkpt><trkpt lon="34.856012" lat="31.718623"><ele>156.8</ele><time>2018-04-04T12:51:24.392Z</time></trkpt><trkpt lon="34.855995" lat="31.71864"><ele>156.8</ele><time>2018-04-04T12:51:25.392Z</time></trkpt><trkpt lon="34.855978" lat="31.718657"><ele>156.8</ele><time>2018-04-04T12:51:26.392Z</time></trkpt><trkpt lon="34.85596" lat="31.718675"><ele>156.8</ele><time>2018-04-04T12:51:27.392Z</time></trkpt><trkpt lon="34.85594" lat="31.718693"><ele>156.8</ele><time>2018-04-04T12:51:28.392Z</time></trkpt><trkpt lon="34.855925" lat="31.718713"><ele>157.9</ele><time>2018-04-04T12:51:29.392Z</time></trkpt><trkpt lon="34.855917" lat="31.718737"><ele>157.9</ele><time>2018-04-04T12:51:30.392Z</time></trkpt><trkpt lon="34.855912" lat="31.718758"><ele>157.9</ele><time>2018-04-04T12:51:31.392Z</time></trkpt><trkpt lon="34.855913" lat="31.718778"><ele>157.9</ele><time>2018-04-04T12:51:32.392Z</time></trkpt><trkpt lon="34.855915" lat="31.718797"><ele>157.9</ele><time>2018-04-04T12:51:33.392Z</time></trkpt><trkpt lon="34.855922" lat="31.718808"><ele>157.9</ele><time>2018-04-04T12:51:34.392Z</time></trkpt><trkpt lon="34.855933" lat="31.718818"><ele>157.9</ele><time>2018-04-04T12:51:35.392Z</time></trkpt><trkpt lon="34.855947" lat="31.718822"><ele>157.9</ele><time>2018-04-04T12:51:36.392Z</time></trkpt><trkpt lon="34.855965" lat="31.718823"><ele>158.8</ele><time>2018-04-04T12:51:37.392Z</time></trkpt><trkpt lon="34.855982" lat="31.718828"><ele>158.8</ele><time>2018-04-04T12:51:38.392Z</time></trkpt><trkpt lon="34.856" lat="31.71883"><ele>158.8</ele><time>2018-04-04T12:51:39.392Z</time></trkpt><trkpt lon="34.856017" lat="31.718833"><ele>158.8</ele><time>2018-04-04T12:51:40.392Z</time></trkpt><trkpt lon="34.856032" lat="31.718833"><ele>158.8</ele><time>2018-04-04T12:51:41.392Z</time></trkpt><trkpt lon="34.856045" lat="31.718828"><ele>158.8</ele><time>2018-04-04T12:51:42.392Z</time></trkpt><trkpt lon="34.85606" lat="31.718825"><ele>158.8</ele><time>2018-04-04T12:51:43.392Z</time></trkpt><trkpt lon="34.856077" lat="31.718823"><ele>158.8</ele><time>2018-04-04T12:51:44.392Z</time></trkpt><trkpt lon="34.856092" lat="31.718822"><ele>159.9</ele><time>2018-04-04T12:51:45.392Z</time></trkpt><trkpt lon="34.85611" lat="31.718818"><ele>159.9</ele><time>2018-04-04T12:51:46.392Z</time></trkpt><trkpt lon="34.856128" lat="31.718817"><ele>159.9</ele><time>2018-04-04T12:51:47.392Z</time></trkpt><trkpt lon="34.856148" lat="31.718817"><ele>159.9</ele><time>2018-04-04T12:51:48.392Z</time></trkpt><trkpt lon="34.856165" lat="31.718817"><ele>159.9</ele><time>2018-04-04T12:51:49.392Z</time></trkpt><trkpt lon="34.856182" lat="31.71882"><ele>159.9</ele><time>2018-04-04T12:51:50.392Z</time></trkpt><trkpt lon="34.856198" lat="31.718825"><ele>159.9</ele><time>2018-04-04T12:51:51.392Z</time></trkpt><trkpt lon="34.856213" lat="31.718832"><ele>159.9</ele><time>2018-04-04T12:51:52.392Z</time></trkpt><trkpt lon="34.856223" lat="31.71884"><ele>159.9</ele><time>2018-04-04T12:51:53.392Z</time></trkpt><trkpt lon="34.856232" lat="31.718847"><ele>159.9</ele><time>2018-04-04T12:51:54.392Z</time></trkpt><trkpt lon="34.856242" lat="31.718855"><ele>159.9</ele><time>2018-04-04T12:51:55.392Z</time></trkpt><trkpt lon="34.856252" lat="31.718863"><ele>159.9</ele><time>2018-04-04T12:51:56.392Z</time></trkpt><trkpt lon="34.856258" lat="31.71887"><ele>159.9</ele><time>2018-04-04T12:51:57.392Z</time></trkpt><trkpt lon="34.856263" lat="31.718878"><ele>159.9</ele><time>2018-04-04T12:51:58.392Z</time></trkpt><trkpt lon="34.85627" lat="31.718887"><ele>161.9</ele><time>2018-04-04T12:51:59.392Z</time></trkpt><trkpt lon="34.856272" lat="31.718893"><ele>161.9</ele><time>2018-04-04T12:52:00.392Z</time></trkpt><trkpt lon="34.856272" lat="31.7189"><ele>161.9</ele><time>2018-04-04T12:52:01.392Z</time></trkpt><trkpt lon="34.856268" lat="31.718908"><ele>161.9</ele><time>2018-04-04T12:52:02.392Z</time></trkpt><trkpt lon="34.856263" lat="31.718917"><ele>161.9</ele><time>2018-04-04T12:52:03.392Z</time></trkpt><trkpt lon="34.856253" lat="31.718925"><ele>161.9</ele><time>2018-04-04T12:52:04.392Z</time></trkpt><trkpt lon="34.856245" lat="31.718932"><ele>161.9</ele><time>2018-04-04T12:52:05.392Z</time></trkpt><trkpt lon="34.856235" lat="31.718942"><ele>161.9</ele><time>2018-04-04T12:52:06.392Z</time></trkpt><trkpt lon="34.856223" lat="31.718948"><ele>161.9</ele><time>2018-04-04T12:52:07.392Z</time></trkpt><trkpt lon="34.856215" lat="31.718958"><ele>161.9</ele><time>2018-04-04T12:52:08.392Z</time></trkpt><trkpt lon="34.85621" lat="31.718968"><ele>162.9</ele><time>2018-04-04T12:52:09.392Z</time></trkpt><trkpt lon="34.856205" lat="31.718982"><ele>162.9</ele><time>2018-04-04T12:52:10.392Z</time></trkpt><trkpt lon="34.856202" lat="31.718993"><ele>162.9</ele><time>2018-04-04T12:52:11.392Z</time></trkpt><trkpt lon="34.856193" lat="31.719002"><ele>162.9</ele><time>2018-04-04T12:52:12.392Z</time></trkpt><trkpt lon="34.856187" lat="31.719008"><ele>162.9</ele><time>2018-04-04T12:52:13.392Z</time></trkpt><trkpt lon="34.85618" lat="31.719013"><ele>162.9</ele><time>2018-04-04T12:52:14.392Z</time></trkpt><trkpt lon="34.856172" lat="31.719023"><ele>162.9</ele><time>2018-04-04T12:52:15.392Z</time></trkpt><trkpt lon="34.85617" lat="31.719035"><ele>162.9</ele><time>2018-04-04T12:52:16.392Z</time></trkpt><trkpt lon="34.856168" lat="31.71905"><ele>162.9</ele><time>2018-04-04T12:52:17.392Z</time></trkpt><trkpt lon="34.856168" lat="31.719067"><ele>162.9</ele><time>2018-04-04T12:52:18.392Z</time></trkpt><trkpt lon="34.856165" lat="31.719083"><ele>162.9</ele><time>2018-04-04T12:52:19.392Z</time></trkpt><trkpt lon="34.856155" lat="31.719098"><ele>162.9</ele><time>2018-04-04T12:52:20.392Z</time></trkpt><trkpt lon="34.856145" lat="31.719113"><ele>163.8</ele><time>2018-04-04T12:52:21.392Z</time></trkpt><trkpt lon="34.856135" lat="31.719127"><ele>163.8</ele><time>2018-04-04T12:52:22.392Z</time></trkpt><trkpt lon="34.856132" lat="31.719142"><ele>163.8</ele><time>2018-04-04T12:52:23.392Z</time></trkpt><trkpt lon="34.856133" lat="31.719155"><ele>163.8</ele><time>2018-04-04T12:52:24.392Z</time></trkpt><trkpt lon="34.856132" lat="31.71917"><ele>163.8</ele><time>2018-04-04T12:52:25.392Z</time></trkpt><trkpt lon="34.856133" lat="31.719185"><ele>163.8</ele><time>2018-04-04T12:52:26.392Z</time></trkpt><trkpt lon="34.856133" lat="31.719197"><ele>164.9</ele><time>2018-04-04T12:52:27.392Z</time></trkpt><trkpt lon="34.856138" lat="31.719208"><ele>164.9</ele><time>2018-04-04T12:52:28.392Z</time></trkpt><trkpt lon="34.856138" lat="31.719222"><ele>164.9</ele><time>2018-04-04T12:52:29.392Z</time></trkpt><trkpt lon="34.856135" lat="31.719237"><ele>164.9</ele><time>2018-04-04T12:52:30.392Z</time></trkpt><trkpt lon="34.856127" lat="31.719252"><ele>164.9</ele><time>2018-04-04T12:52:31.392Z</time></trkpt><trkpt lon="34.85612" lat="31.719265"><ele>164.9</ele><time>2018-04-04T12:52:32.392Z</time></trkpt><trkpt lon="34.856112" lat="31.719277"><ele>164.9</ele><time>2018-04-04T12:52:33.392Z</time></trkpt><trkpt lon="34.856105" lat="31.71929"><ele>164.9</ele><time>2018-04-04T12:52:34.392Z</time></trkpt><trkpt lon="34.856098" lat="31.719303"><ele>164.9</ele><time>2018-04-04T12:52:35.392Z</time></trkpt><trkpt lon="34.8561" lat="31.719315"><ele>164.9</ele><time>2018-04-04T12:52:36.392Z</time></trkpt><trkpt lon="34.856107" lat="31.719328"><ele>165.8</ele><time>2018-04-04T12:52:37.392Z</time></trkpt><trkpt lon="34.856115" lat="31.719342"><ele>165.8</ele><time>2018-04-04T12:52:38.392Z</time></trkpt><trkpt lon="34.856123" lat="31.719353"><ele>165.8</ele><time>2018-04-04T12:52:39.392Z</time></trkpt><trkpt lon="34.856132" lat="31.719365"><ele>165.8</ele><time>2018-04-04T12:52:40.392Z</time></trkpt><trkpt lon="34.856138" lat="31.719373"><ele>165.8</ele><time>2018-04-04T12:52:41.392Z</time></trkpt><trkpt lon="34.856148" lat="31.719383"><ele>165.8</ele><time>2018-04-04T12:52:42.392Z</time></trkpt><trkpt lon="34.856157" lat="31.719393"><ele>165.8</ele><time>2018-04-04T12:52:43.392Z</time></trkpt><trkpt lon="34.856163" lat="31.719408"><ele>165.8</ele><time>2018-04-04T12:52:44.392Z</time></trkpt><trkpt lon="34.856163" lat="31.719423"><ele>166.9</ele><time>2018-04-04T12:52:45.392Z</time></trkpt><trkpt lon="34.85616" lat="31.719438"><ele>166.9</ele><time>2018-04-04T12:52:46.392Z</time></trkpt><trkpt lon="34.856162" lat="31.719455"><ele>166.9</ele><time>2018-04-04T12:52:47.392Z</time></trkpt><trkpt lon="34.856165" lat="31.719472"><ele>166.9</ele><time>2018-04-04T12:52:48.392Z</time></trkpt><trkpt lon="34.856172" lat="31.719487"><ele>166.9</ele><time>2018-04-04T12:52:49.392Z</time></trkpt><trkpt lon="34.856182" lat="31.7195"><ele>166.9</ele><time>2018-04-04T12:52:50.392Z</time></trkpt><trkpt lon="34.85619" lat="31.719513"><ele>166.9</ele><time>2018-04-04T12:52:51.392Z</time></trkpt><trkpt lon="34.856195" lat="31.719528"><ele>166.9</ele><time>2018-04-04T12:52:52.392Z</time></trkpt><trkpt lon="34.856197" lat="31.719545"><ele>167.9</ele><time>2018-04-04T12:52:53.392Z</time></trkpt><trkpt lon="34.856198" lat="31.719562"><ele>167.9</ele><time>2018-04-04T12:52:54.392Z</time></trkpt><trkpt lon="34.856198" lat="31.719577"><ele>167.9</ele><time>2018-04-04T12:52:55.392Z</time></trkpt><trkpt lon="34.856198" lat="31.719592"><ele>167.9</ele><time>2018-04-04T12:52:56.392Z</time></trkpt><trkpt lon="34.8562" lat="31.719607"><ele>167.9</ele><time>2018-04-04T12:52:57.392Z</time></trkpt><trkpt lon="34.856205" lat="31.719622"><ele>167.9</ele><time>2018-04-04T12:52:58.392Z</time></trkpt><trkpt lon="34.856213" lat="31.719635"><ele>167.9</ele><time>2018-04-04T12:52:59.392Z</time></trkpt><trkpt lon="34.856222" lat="31.719648"><ele>167.9</ele><time>2018-04-04T12:53:00.392Z</time></trkpt><trkpt lon="34.856228" lat="31.71966"><ele>167.9</ele><time>2018-04-04T12:53:01.392Z</time></trkpt><trkpt lon="34.856232" lat="31.719675"><ele>167.9</ele><time>2018-04-04T12:53:02.392Z</time></trkpt><trkpt lon="34.85623" lat="31.719688"><ele>167.9</ele><time>2018-04-04T12:53:03.392Z</time></trkpt><trkpt lon="34.856223" lat="31.719705"><ele>167.9</ele><time>2018-04-04T12:53:04.392Z</time></trkpt><trkpt lon="34.856217" lat="31.719718"><ele>168.9</ele><time>2018-04-04T12:53:05.392Z</time></trkpt><trkpt lon="34.85621" lat="31.719733"><ele>168.9</ele><time>2018-04-04T12:53:06.392Z</time></trkpt><trkpt lon="34.856207" lat="31.719748"><ele>168.9</ele><time>2018-04-04T12:53:07.392Z</time></trkpt><trkpt lon="34.856207" lat="31.719763"><ele>168.9</ele><time>2018-04-04T12:53:08.392Z</time></trkpt><trkpt lon="34.856212" lat="31.719778"><ele>168.9</ele><time>2018-04-04T12:53:09.392Z</time></trkpt><trkpt lon="34.856213" lat="31.719793"><ele>168.9</ele><time>2018-04-04T12:53:10.392Z</time></trkpt><trkpt lon="34.856215" lat="31.719808"><ele>168.9</ele><time>2018-04-04T12:53:11.392Z</time></trkpt><trkpt lon="34.856215" lat="31.719825"><ele>168.9</ele><time>2018-04-04T12:53:12.392Z</time></trkpt><trkpt lon="34.856212" lat="31.71984"><ele>169.9</ele><time>2018-04-04T12:53:13.392Z</time></trkpt><trkpt lon="34.856203" lat="31.719855"><ele>169.9</ele><time>2018-04-04T12:53:14.392Z</time></trkpt><trkpt lon="34.856195" lat="31.719867"><ele>169.9</ele><time>2018-04-04T12:53:15.392Z</time></trkpt><trkpt lon="34.856183" lat="31.719878"><ele>169.9</ele><time>2018-04-04T12:53:16.392Z</time></trkpt><trkpt lon="34.856173" lat="31.719892"><ele>169.9</ele><time>2018-04-04T12:53:17.392Z</time></trkpt><trkpt lon="34.856167" lat="31.719905"><ele>169.9</ele><time>2018-04-04T12:53:18.392Z</time></trkpt><trkpt lon="34.856167" lat="31.719917"><ele>169.9</ele><time>2018-04-04T12:53:19.392Z</time></trkpt><trkpt lon="34.856165" lat="31.71993"><ele>169.9</ele><time>2018-04-04T12:53:20.392Z</time></trkpt><trkpt lon="34.856163" lat="31.719943"><ele>170.8</ele><time>2018-04-04T12:53:21.392Z</time></trkpt><trkpt lon="34.856158" lat="31.719958"><ele>170.8</ele><time>2018-04-04T12:53:22.392Z</time></trkpt><trkpt lon="34.856152" lat="31.71997"><ele>170.8</ele><time>2018-04-04T12:53:23.392Z</time></trkpt><trkpt lon="34.856143" lat="31.719983"><ele>170.8</ele><time>2018-04-04T12:53:24.392Z</time></trkpt><trkpt lon="34.856135" lat="31.719998"><ele>170.8</ele><time>2018-04-04T12:53:25.392Z</time></trkpt><trkpt lon="34.856128" lat="31.720015"><ele>170.8</ele><time>2018-04-04T12:53:26.392Z</time></trkpt><trkpt lon="34.856123" lat="31.720032"><ele>170.8</ele><time>2018-04-04T12:53:27.392Z</time></trkpt><trkpt lon="34.856118" lat="31.720048"><ele>170.8</ele><time>2018-04-04T12:53:28.392Z</time></trkpt><trkpt lon="34.856115" lat="31.720065"><ele>170.8</ele><time>2018-04-04T12:53:29.392Z</time></trkpt><trkpt lon="34.856112" lat="31.720082"><ele>170.8</ele><time>2018-04-04T12:53:30.392Z</time></trkpt><trkpt lon="34.856103" lat="31.720095"><ele>171.9</ele><time>2018-04-04T12:53:31.392Z</time></trkpt><trkpt lon="34.856092" lat="31.720108"><ele>171.9</ele><time>2018-04-04T12:53:32.392Z</time></trkpt><trkpt lon="34.856077" lat="31.72012"><ele>171.9</ele><time>2018-04-04T12:53:33.392Z</time></trkpt><trkpt lon="34.856065" lat="31.720133"><ele>171.9</ele><time>2018-04-04T12:53:34.392Z</time></trkpt><trkpt lon="34.856057" lat="31.720148"><ele>171.9</ele><time>2018-04-04T12:53:35.392Z</time></trkpt><trkpt lon="34.856047" lat="31.720162"><ele>171.9</ele><time>2018-04-04T12:53:36.392Z</time></trkpt><trkpt lon="34.856037" lat="31.720177"><ele>171.9</ele><time>2018-04-04T12:53:37.392Z</time></trkpt><trkpt lon="34.856027" lat="31.720188"><ele>171.9</ele><time>2018-04-04T12:53:38.392Z</time></trkpt><trkpt lon="34.856018" lat="31.720202"><ele>172.8</ele><time>2018-04-04T12:53:39.392Z</time></trkpt><trkpt lon="34.856013" lat="31.720213"><ele>172.8</ele><time>2018-04-04T12:53:40.392Z</time></trkpt><trkpt lon="34.856007" lat="31.720225"><ele>172.8</ele><time>2018-04-04T12:53:41.392Z</time></trkpt><trkpt lon="34.856002" lat="31.720238"><ele>172.8</ele><time>2018-04-04T12:53:42.392Z</time></trkpt><trkpt lon="34.855992" lat="31.720248"><ele>172.8</ele><time>2018-04-04T12:53:43.392Z</time></trkpt><trkpt lon="34.855982" lat="31.720258"><ele>172.8</ele><time>2018-04-04T12:53:44.392Z</time></trkpt><trkpt lon="34.855967" lat="31.72027"><ele>172.8</ele><time>2018-04-04T12:53:45.392Z</time></trkpt><trkpt lon="34.855955" lat="31.720283"><ele>172.8</ele><time>2018-04-04T12:53:46.392Z</time></trkpt><trkpt lon="34.855942" lat="31.720297"><ele>173.9</ele><time>2018-04-04T12:53:47.392Z</time></trkpt><trkpt lon="34.855927" lat="31.72031"><ele>173.9</ele><time>2018-04-04T12:53:48.392Z</time></trkpt><trkpt lon="34.855915" lat="31.720325"><ele>173.9</ele><time>2018-04-04T12:53:49.392Z</time></trkpt><trkpt lon="34.8559" lat="31.72034"><ele>173.9</ele><time>2018-04-04T12:53:50.392Z</time></trkpt><trkpt lon="34.855883" lat="31.720352"><ele>173.9</ele><time>2018-04-04T12:53:51.392Z</time></trkpt><trkpt lon="34.855862" lat="31.720362"><ele>173.9</ele><time>2018-04-04T12:53:52.392Z</time></trkpt><trkpt lon="34.855838" lat="31.72037"><ele>173.9</ele><time>2018-04-04T12:53:53.392Z</time></trkpt><trkpt lon="34.855817" lat="31.720378"><ele>173.9</ele><time>2018-04-04T12:53:54.392Z</time></trkpt><trkpt lon="34.855797" lat="31.720385"><ele>173.9</ele><time>2018-04-04T12:53:55.392Z</time></trkpt><trkpt lon="34.855773" lat="31.720392"><ele>173.9</ele><time>2018-04-04T12:53:56.392Z</time></trkpt><trkpt lon="34.85575" lat="31.720397"><ele>173.9</ele><time>2018-04-04T12:53:57.392Z</time></trkpt><trkpt lon="34.855725" lat="31.7204"><ele>173.9</ele><time>2018-04-04T12:53:58.392Z</time></trkpt><trkpt lon="34.8557" lat="31.720402"><ele>173.9</ele><time>2018-04-04T12:53:59.392Z</time></trkpt><trkpt lon="34.855673" lat="31.720403"><ele>173.9</ele><time>2018-04-04T12:54:00.392Z</time></trkpt><trkpt lon="34.85564" lat="31.720402"><ele>173.9</ele><time>2018-04-04T12:54:01.392Z</time></trkpt><trkpt lon="34.855605" lat="31.720398"><ele>173.9</ele><time>2018-04-04T12:54:02.392Z</time></trkpt><trkpt lon="34.85557" lat="31.720395"><ele>173.9</ele><time>2018-04-04T12:54:03.392Z</time></trkpt><trkpt lon="34.855533" lat="31.72039"><ele>173.9</ele><time>2018-04-04T12:54:04.392Z</time></trkpt><trkpt lon="34.855493" lat="31.720385"><ele>173.9</ele><time>2018-04-04T12:54:05.392Z</time></trkpt><trkpt lon="34.855457" lat="31.720377"><ele>173.9</ele><time>2018-04-04T12:54:06.392Z</time></trkpt><trkpt lon="34.855422" lat="31.72037"><ele>173.9</ele><time>2018-04-04T12:54:07.392Z</time></trkpt><trkpt lon="34.855387" lat="31.720365"><ele>173.9</ele><time>2018-04-04T12:54:08.392Z</time></trkpt><trkpt lon="34.855352" lat="31.720362"><ele>173.9</ele><time>2018-04-04T12:54:09.392Z</time></trkpt><trkpt lon="34.85532" lat="31.720355"><ele>173.9</ele><time>2018-04-04T12:54:10.392Z</time></trkpt><trkpt lon="34.855287" lat="31.720347"><ele>173.9</ele><time>2018-04-04T12:54:11.392Z</time></trkpt><trkpt lon="34.855255" lat="31.720335"><ele>173.9</ele><time>2018-04-04T12:54:12.392Z</time></trkpt><trkpt lon="34.855225" lat="31.720318"><ele>173.9</ele><time>2018-04-04T12:54:13.392Z</time></trkpt><trkpt lon="34.855195" lat="31.720298"><ele>173.9</ele><time>2018-04-04T12:54:14.392Z</time></trkpt><trkpt lon="34.855167" lat="31.720272"><ele>172.8</ele><time>2018-04-04T12:54:15.392Z</time></trkpt><trkpt lon="34.855135" lat="31.720242"><ele>172.8</ele><time>2018-04-04T12:54:16.392Z</time></trkpt><trkpt lon="34.855102" lat="31.72021"><ele>172.8</ele><time>2018-04-04T12:54:17.392Z</time></trkpt><trkpt lon="34.855072" lat="31.720175"><ele>172.8</ele><time>2018-04-04T12:54:18.392Z</time></trkpt><trkpt lon="34.855047" lat="31.72014"><ele>172.8</ele><time>2018-04-04T12:54:19.392Z</time></trkpt><trkpt lon="34.855027" lat="31.720097"><ele>172.8</ele><time>2018-04-04T12:54:20.392Z</time></trkpt><trkpt lon="34.85501" lat="31.72005"><ele>172.8</ele><time>2018-04-04T12:54:21.392Z</time></trkpt><trkpt lon="34.854993" lat="31.72"><ele>172.8</ele><time>2018-04-04T12:54:22.392Z</time></trkpt><trkpt lon="34.854977" lat="31.719952"><ele>169.9</ele><time>2018-04-04T12:54:23.392Z</time></trkpt><trkpt lon="34.854955" lat="31.719905"><ele>169.9</ele><time>2018-04-04T12:54:24.392Z</time></trkpt><trkpt lon="34.854935" lat="31.719862"><ele>169.9</ele><time>2018-04-04T12:54:25.392Z</time></trkpt><trkpt lon="34.854913" lat="31.71983"><ele>169.9</ele><time>2018-04-04T12:54:26.392Z</time></trkpt><trkpt lon="34.85489" lat="31.719807"><ele>169.9</ele><time>2018-04-04T12:54:27.392Z</time></trkpt><trkpt lon="34.85487" lat="31.71979"><ele>169.9</ele><time>2018-04-04T12:54:28.392Z</time></trkpt><trkpt lon="34.854853" lat="31.719777"><ele>169.9</ele><time>2018-04-04T12:54:29.392Z</time></trkpt><trkpt lon="34.854842" lat="31.719762"><ele>169.9</ele><time>2018-04-04T12:54:30.392Z</time></trkpt><trkpt lon="34.85484" lat="31.719748"><ele>169.9</ele><time>2018-04-04T12:54:31.392Z</time></trkpt><trkpt lon="34.854847" lat="31.719737"><ele>169.9</ele><time>2018-04-04T12:54:32.392Z</time></trkpt><trkpt lon="34.854857" lat="31.719727"><ele>168.9</ele><time>2018-04-04T12:54:33.392Z</time></trkpt><trkpt lon="34.854872" lat="31.719723"><ele>168.9</ele><time>2018-04-04T12:54:34.392Z</time></trkpt><trkpt lon="34.854892" lat="31.719727"><ele>168.9</ele><time>2018-04-04T12:54:35.392Z</time></trkpt><trkpt lon="34.854913" lat="31.719737"><ele>168.9</ele><time>2018-04-04T12:54:36.392Z</time></trkpt><trkpt lon="34.854935" lat="31.719743"><ele>167.9</ele><time>2018-04-04T12:54:37.392Z</time></trkpt><trkpt lon="34.854955" lat="31.71975"><ele>167.9</ele><time>2018-04-04T12:54:38.392Z</time></trkpt><trkpt lon="34.85497" lat="31.719755"><ele>167.9</ele><time>2018-04-04T12:54:39.392Z</time></trkpt><trkpt lon="34.854982" lat="31.719753"><ele>167.9</ele><time>2018-04-04T12:54:40.392Z</time></trkpt><trkpt lon="34.85499" lat="31.719743"><ele>167.9</ele><time>2018-04-04T12:54:41.392Z</time></trkpt><trkpt lon="34.854993" lat="31.719725"><ele>167.9</ele><time>2018-04-04T12:54:42.392Z</time></trkpt><trkpt lon="34.854992" lat="31.719702"><ele>167.9</ele><time>2018-04-04T12:54:43.392Z</time></trkpt><trkpt lon="34.854985" lat="31.719677"><ele>167.9</ele><time>2018-04-04T12:54:44.392Z</time></trkpt><trkpt lon="34.854977" lat="31.719653"><ele>164.9</ele><time>2018-04-04T12:54:45.392Z</time></trkpt><trkpt lon="34.854967" lat="31.719625"><ele>164.9</ele><time>2018-04-04T12:54:46.392Z</time></trkpt><trkpt lon="34.854957" lat="31.719593"><ele>163.8</ele><time>2018-04-04T12:54:47.392Z</time></trkpt><trkpt lon="34.854943" lat="31.719557"><ele>163.8</ele><time>2018-04-04T12:54:48.392Z</time></trkpt><trkpt lon="34.854925" lat="31.719515"><ele>162.9</ele><time>2018-04-04T12:54:49.392Z</time></trkpt><trkpt lon="34.854908" lat="31.719468"><ele>162.9</ele><time>2018-04-04T12:54:50.392Z</time></trkpt><trkpt lon="34.854895" lat="31.719418"><ele>161.9</ele><time>2018-04-04T12:54:51.392Z</time></trkpt><trkpt lon="34.854888" lat="31.719367"><ele>161.9</ele><time>2018-04-04T12:54:52.392Z</time></trkpt><trkpt lon="34.854882" lat="31.71931"><ele>161.9</ele><time>2018-04-04T12:54:53.392Z</time></trkpt><trkpt lon="34.854878" lat="31.719253"><ele>161.9</ele><time>2018-04-04T12:54:54.392Z</time></trkpt><trkpt lon="34.854875" lat="31.719197"><ele>161.9</ele><time>2018-04-04T12:54:55.392Z</time></trkpt><trkpt lon="34.85487" lat="31.719143"><ele>161.9</ele><time>2018-04-04T12:54:56.392Z</time></trkpt><trkpt lon="34.854868" lat="31.719092"><ele>159.9</ele><time>2018-04-04T12:54:57.392Z</time></trkpt><trkpt lon="34.854872" lat="31.719047"><ele>159.9</ele><time>2018-04-04T12:54:58.392Z</time></trkpt><trkpt lon="34.854882" lat="31.719003"><ele>159.9</ele><time>2018-04-04T12:54:59.392Z</time></trkpt><trkpt lon="34.854895" lat="31.718955"><ele>159.9</ele><time>2018-04-04T12:55:00.392Z</time></trkpt><trkpt lon="34.854905" lat="31.718908"><ele>159.9</ele><time>2018-04-04T12:55:01.392Z</time></trkpt><trkpt lon="34.854908" lat="31.718862"><ele>159.9</ele><time>2018-04-04T12:55:02.392Z</time></trkpt><trkpt lon="34.854903" lat="31.718823"><ele>159.9</ele><time>2018-04-04T12:55:03.392Z</time></trkpt><trkpt lon="34.854895" lat="31.718787"><ele>159.9</ele><time>2018-04-04T12:55:04.392Z</time></trkpt><trkpt lon="34.854888" lat="31.71875"><ele>159.9</ele><time>2018-04-04T12:55:05.392Z</time></trkpt><trkpt lon="34.854887" lat="31.718713"><ele>159.9</ele><time>2018-04-04T12:55:06.392Z</time></trkpt><trkpt lon="34.854882" lat="31.718678"><ele>159.9</ele><time>2018-04-04T12:55:07.392Z</time></trkpt><trkpt lon="34.854873" lat="31.71864"><ele>159.9</ele><time>2018-04-04T12:55:08.392Z</time></trkpt><trkpt lon="34.854867" lat="31.718602"><ele>159.9</ele><time>2018-04-04T12:55:09.392Z</time></trkpt><trkpt lon="34.854862" lat="31.718565"><ele>159.9</ele><time>2018-04-04T12:55:10.392Z</time></trkpt><trkpt lon="34.854862" lat="31.718532"><ele>159.9</ele><time>2018-04-04T12:55:11.392Z</time></trkpt><trkpt lon="34.854865" lat="31.718498"><ele>159.9</ele><time>2018-04-04T12:55:12.392Z</time></trkpt><trkpt lon="34.85487" lat="31.718468"><ele>159.9</ele><time>2018-04-04T12:55:13.392Z</time></trkpt><trkpt lon="34.854878" lat="31.718433"><ele>159.9</ele><time>2018-04-04T12:55:14.392Z</time></trkpt><trkpt lon="34.854885" lat="31.7184"><ele>159.9</ele><time>2018-04-04T12:55:15.392Z</time></trkpt><trkpt lon="34.854893" lat="31.718367"><ele>159.9</ele><time>2018-04-04T12:55:16.392Z</time></trkpt><trkpt lon="34.854897" lat="31.718338"><ele>159.9</ele><time>2018-04-04T12:55:17.392Z</time></trkpt><trkpt lon="34.854905" lat="31.718312"><ele>159.9</ele><time>2018-04-04T12:55:18.392Z</time></trkpt><trkpt lon="34.85491" lat="31.718287"><ele>159.9</ele><time>2018-04-04T12:55:19.392Z</time></trkpt><trkpt lon="34.854913" lat="31.718262"><ele>159.9</ele><time>2018-04-04T12:55:20.392Z</time></trkpt><trkpt lon="34.854917" lat="31.718238"><ele>159.9</ele><time>2018-04-04T12:55:21.392Z</time></trkpt><trkpt lon="34.854922" lat="31.718217"><ele>159.9</ele><time>2018-04-04T12:55:22.392Z</time></trkpt><trkpt lon="34.854932" lat="31.718195"><ele>159.9</ele><time>2018-04-04T12:55:23.392Z</time></trkpt><trkpt lon="34.854942" lat="31.718175"><ele>159.9</ele><time>2018-04-04T12:55:24.392Z</time></trkpt><trkpt lon="34.854947" lat="31.718155"><ele>159.9</ele><time>2018-04-04T12:55:25.392Z</time></trkpt><trkpt lon="34.85495" lat="31.71813"><ele>159.9</ele><time>2018-04-04T12:55:26.392Z</time></trkpt><trkpt lon="34.854957" lat="31.718107"><ele>159.9</ele><time>2018-04-04T12:55:27.392Z</time></trkpt><trkpt lon="34.854968" lat="31.718087"><ele>159.9</ele><time>2018-04-04T12:55:28.392Z</time></trkpt><trkpt lon="34.854977" lat="31.718063"><ele>159.9</ele><time>2018-04-04T12:55:29.392Z</time></trkpt><trkpt lon="34.854982" lat="31.718037"><ele>159.9</ele><time>2018-04-04T12:55:30.392Z</time></trkpt><trkpt lon="34.854988" lat="31.718012"><ele>159.9</ele><time>2018-04-04T12:55:31.392Z</time></trkpt><trkpt lon="34.854997" lat="31.717987"><ele>159.9</ele><time>2018-04-04T12:55:32.392Z</time></trkpt><trkpt lon="34.855008" lat="31.71796"><ele>159.9</ele><time>2018-04-04T12:55:33.392Z</time></trkpt><trkpt lon="34.855022" lat="31.717933"><ele>159.9</ele><time>2018-04-04T12:55:34.392Z</time></trkpt><trkpt lon="34.855038" lat="31.717907"><ele>159.9</ele><time>2018-04-04T12:55:35.392Z</time></trkpt><trkpt lon="34.855057" lat="31.717882"><ele>159.9</ele><time>2018-04-04T12:55:36.392Z</time></trkpt><trkpt lon="34.855078" lat="31.717858"><ele>159.9</ele><time>2018-04-04T12:55:37.392Z</time></trkpt><trkpt lon="34.855107" lat="31.717833"><ele>159.9</ele><time>2018-04-04T12:55:38.392Z</time></trkpt><trkpt lon="34.85514" lat="31.71781"><ele>159.9</ele><time>2018-04-04T12:55:39.392Z</time></trkpt><trkpt lon="34.855173" lat="31.717787"><ele>159.9</ele><time>2018-04-04T12:55:40.392Z</time></trkpt><trkpt lon="34.855203" lat="31.717762"><ele>159.9</ele><time>2018-04-04T12:55:41.392Z</time></trkpt><trkpt lon="34.855233" lat="31.71774"><ele>159.9</ele><time>2018-04-04T12:55:42.392Z</time></trkpt><trkpt lon="34.855262" lat="31.717715"><ele>158.8</ele><time>2018-04-04T12:55:43.392Z</time></trkpt><trkpt lon="34.855297" lat="31.717692"><ele>158.8</ele><time>2018-04-04T12:55:44.392Z</time></trkpt><trkpt lon="34.855333" lat="31.717665"><ele>157.9</ele><time>2018-04-04T12:55:45.392Z</time></trkpt><trkpt lon="34.855373" lat="31.717635"><ele>157.9</ele><time>2018-04-04T12:55:46.392Z</time></trkpt><trkpt lon="34.855417" lat="31.717607"><ele>156.8</ele><time>2018-04-04T12:55:47.392Z</time></trkpt><trkpt lon="34.855463" lat="31.717575"><ele>156.8</ele><time>2018-04-04T12:55:48.392Z</time></trkpt><trkpt lon="34.85551" lat="31.717542"><ele>156.8</ele><time>2018-04-04T12:55:49.392Z</time></trkpt><trkpt lon="34.855557" lat="31.717503"><ele>156.8</ele><time>2018-04-04T12:55:50.392Z</time></trkpt><trkpt lon="34.855607" lat="31.717463"><ele>155.9</ele><time>2018-04-04T12:55:51.392Z</time></trkpt><trkpt lon="34.855657" lat="31.717418"><ele>155.9</ele><time>2018-04-04T12:55:52.392Z</time></trkpt><trkpt lon="34.855707" lat="31.717365"><ele>155.9</ele><time>2018-04-04T12:55:53.392Z</time></trkpt><trkpt lon="34.855753" lat="31.717312"><ele>155.9</ele><time>2018-04-04T12:55:54.392Z</time></trkpt><trkpt lon="34.855795" lat="31.71726"><ele>155.9</ele><time>2018-04-04T12:55:55.392Z</time></trkpt><trkpt lon="34.855835" lat="31.717215"><ele>155.9</ele><time>2018-04-04T12:55:56.392Z</time></trkpt><trkpt lon="34.855865" lat="31.717172"><ele>155.9</ele><time>2018-04-04T12:55:57.392Z</time></trkpt><trkpt lon="34.855895" lat="31.717128"><ele>155.9</ele><time>2018-04-04T12:55:58.392Z</time></trkpt><trkpt lon="34.85592" lat="31.717083"><ele>155.9</ele><time>2018-04-04T12:55:59.392Z</time></trkpt><trkpt lon="34.85594" lat="31.717038"><ele>155.9</ele><time>2018-04-04T12:56:00.392Z</time></trkpt><trkpt lon="34.855962" lat="31.716988"><ele>155.9</ele><time>2018-04-04T12:56:01.392Z</time></trkpt><trkpt lon="34.855987" lat="31.716942"><ele>155.9</ele><time>2018-04-04T12:56:02.392Z</time></trkpt><trkpt lon="34.856015" lat="31.716897"><ele>154.8</ele><time>2018-04-04T12:56:03.392Z</time></trkpt><trkpt lon="34.856047" lat="31.71686"><ele>154.8</ele><time>2018-04-04T12:56:04.392Z</time></trkpt><trkpt lon="34.856085" lat="31.716825"><ele>154.8</ele><time>2018-04-04T12:56:05.392Z</time></trkpt><trkpt lon="34.85612" lat="31.716787"><ele>154.8</ele><time>2018-04-04T12:56:06.392Z</time></trkpt><trkpt lon="34.856155" lat="31.716745"><ele>153.9</ele><time>2018-04-04T12:56:07.392Z</time></trkpt><trkpt lon="34.856182" lat="31.7167"><ele>153.9</ele><time>2018-04-04T12:56:08.392Z</time></trkpt><trkpt lon="34.856202" lat="31.716652"><ele>153.9</ele><time>2018-04-04T12:56:09.392Z</time></trkpt><trkpt lon="34.856208" lat="31.716605"><ele>153.9</ele><time>2018-04-04T12:56:10.392Z</time></trkpt><trkpt lon="34.856208" lat="31.716558"><ele>153.9</ele><time>2018-04-04T12:56:11.392Z</time></trkpt><trkpt lon="34.856212" lat="31.716515"><ele>153.9</ele><time>2018-04-04T12:56:12.392Z</time></trkpt><trkpt lon="34.856222" lat="31.716472"><ele>153.9</ele><time>2018-04-04T12:56:13.392Z</time></trkpt><trkpt lon="34.85624" lat="31.71643"><ele>153.9</ele><time>2018-04-04T12:56:14.392Z</time></trkpt><trkpt lon="34.856265" lat="31.716393"><ele>152.9</ele><time>2018-04-04T12:56:15.392Z</time></trkpt><trkpt lon="34.856295" lat="31.716355"><ele>152.9</ele><time>2018-04-04T12:56:16.392Z</time></trkpt><trkpt lon="34.856325" lat="31.716313"><ele>152.9</ele><time>2018-04-04T12:56:17.392Z</time></trkpt><trkpt lon="34.856352" lat="31.71627"><ele>152.9</ele><time>2018-04-04T12:56:18.392Z</time></trkpt><trkpt lon="34.856368" lat="31.716227"><ele>151.9</ele><time>2018-04-04T12:56:19.392Z</time></trkpt><trkpt lon="34.856375" lat="31.716182"><ele>151.9</ele><time>2018-04-04T12:56:20.392Z</time></trkpt><trkpt lon="34.85638" lat="31.71614"><ele>151.9</ele><time>2018-04-04T12:56:21.392Z</time></trkpt><trkpt lon="34.856385" lat="31.716097"><ele>151.9</ele><time>2018-04-04T12:56:22.392Z</time></trkpt><trkpt lon="34.856387" lat="31.716055"><ele>151.9</ele><time>2018-04-04T12:56:23.392Z</time></trkpt><trkpt lon="34.856395" lat="31.716015"><ele>151.9</ele><time>2018-04-04T12:56:24.392Z</time></trkpt><trkpt lon="34.856407" lat="31.715975"><ele>150.9</ele><time>2018-04-04T12:56:25.392Z</time></trkpt><trkpt lon="34.85642" lat="31.71593"><ele>150.9</ele><time>2018-04-04T12:56:26.392Z</time></trkpt><trkpt lon="34.85643" lat="31.715883"><ele>150.9</ele><time>2018-04-04T12:56:27.392Z</time></trkpt><trkpt lon="34.856432" lat="31.715835"><ele>150.9</ele><time>2018-04-04T12:56:28.392Z</time></trkpt><trkpt lon="34.856432" lat="31.715787"><ele>149.8</ele><time>2018-04-04T12:56:29.392Z</time></trkpt><trkpt lon="34.85643" lat="31.715743"><ele>149.8</ele><time>2018-04-04T12:56:30.392Z</time></trkpt><trkpt lon="34.856423" lat="31.715698"><ele>149.8</ele><time>2018-04-04T12:56:31.392Z</time></trkpt><trkpt lon="34.85641" lat="31.715657"><ele>149.8</ele><time>2018-04-04T12:56:32.392Z</time></trkpt><trkpt lon="34.856388" lat="31.715612"><ele>149.8</ele><time>2018-04-04T12:56:33.392Z</time></trkpt><trkpt lon="34.856365" lat="31.715567"><ele>149.8</ele><time>2018-04-04T12:56:34.392Z</time></trkpt><trkpt lon="34.856335" lat="31.715525"><ele>146.9</ele><time>2018-04-04T12:56:35.392Z</time></trkpt><trkpt lon="34.856302" lat="31.715487"><ele>146.9</ele><time>2018-04-04T12:56:36.392Z</time></trkpt><trkpt lon="34.85626" lat="31.715452"><ele>146.9</ele><time>2018-04-04T12:56:37.392Z</time></trkpt><trkpt lon="34.856212" lat="31.71542"><ele>146.9</ele><time>2018-04-04T12:56:38.392Z</time></trkpt><trkpt lon="34.856165" lat="31.715382"><ele>145.8</ele><time>2018-04-04T12:56:39.392Z</time></trkpt><trkpt lon="34.856113" lat="31.71534"><ele>145.8</ele><time>2018-04-04T12:56:40.392Z</time></trkpt><trkpt lon="34.85606" lat="31.7153"><ele>145.8</ele><time>2018-04-04T12:56:41.392Z</time></trkpt><trkpt lon="34.856003" lat="31.715265"><ele>145.8</ele><time>2018-04-04T12:56:42.392Z</time></trkpt><trkpt lon="34.855942" lat="31.715235"><ele>145.8</ele><time>2018-04-04T12:56:43.392Z</time></trkpt><trkpt lon="34.855873" lat="31.715218"><ele>145.8</ele><time>2018-04-04T12:56:44.392Z</time></trkpt><trkpt lon="34.855812" lat="31.715203"><ele>145.8</ele><time>2018-04-04T12:56:45.392Z</time></trkpt><trkpt lon="34.855752" lat="31.715187"><ele>145.8</ele><time>2018-04-04T12:56:46.392Z</time></trkpt><trkpt lon="34.855693" lat="31.71517"><ele>145.8</ele><time>2018-04-04T12:56:47.392Z</time></trkpt><trkpt lon="34.855633" lat="31.715158"><ele>145.8</ele><time>2018-04-04T12:56:48.392Z</time></trkpt><trkpt lon="34.855582" lat="31.715148"><ele>145.8</ele><time>2018-04-04T12:56:49.392Z</time></trkpt><trkpt lon="34.85554" lat="31.715142"><ele>145.8</ele><time>2018-04-04T12:56:50.392Z</time></trkpt><trkpt lon="34.855508" lat="31.715135"><ele>145.8</ele><time>2018-04-04T12:56:51.392Z</time></trkpt><trkpt lon="34.855478" lat="31.71513"><ele>145.8</ele><time>2018-04-04T12:56:52.392Z</time></trkpt><trkpt lon="34.85545" lat="31.715123"><ele>145.8</ele><time>2018-04-04T12:56:53.392Z</time></trkpt><trkpt lon="34.855422" lat="31.715117"><ele>145.8</ele><time>2018-04-04T12:56:54.392Z</time></trkpt><trkpt lon="34.855393" lat="31.715102"><ele>145.8</ele><time>2018-04-04T12:56:55.392Z</time></trkpt><trkpt lon="34.855367" lat="31.715085"><ele>145.8</ele><time>2018-04-04T12:56:56.392Z</time></trkpt><trkpt lon="34.85534" lat="31.715065"><ele>146.9</ele><time>2018-04-04T12:56:57.392Z</time></trkpt><trkpt lon="34.855315" lat="31.715045"><ele>146.9</ele><time>2018-04-04T12:56:58.392Z</time></trkpt><trkpt lon="34.855295" lat="31.715027"><ele>146.9</ele><time>2018-04-04T12:56:59.392Z</time></trkpt><trkpt lon="34.855278" lat="31.715007"><ele>146.9</ele><time>2018-04-04T12:57:00.392Z</time></trkpt><trkpt lon="34.855265" lat="31.714987"><ele>146.9</ele><time>2018-04-04T12:57:01.392Z</time></trkpt><trkpt lon="34.855252" lat="31.714963"><ele>146.9</ele><time>2018-04-04T12:57:02.392Z</time></trkpt><trkpt lon="34.85524" lat="31.714938"><ele>146.9</ele><time>2018-04-04T12:57:03.392Z</time></trkpt><trkpt lon="34.855227" lat="31.714917"><ele>146.9</ele><time>2018-04-04T12:57:04.392Z</time></trkpt><trkpt lon="34.855212" lat="31.714898"><ele>146.9</ele><time>2018-04-04T12:57:05.392Z</time></trkpt><trkpt lon="34.85521" lat="31.714897"><ele>146.9</ele><time>2018-04-04T12:57:06.392Z</time></trkpt><trkpt lon="34.85521" lat="31.714897"><ele>146.9</ele><time>2018-04-04T12:57:07.392Z</time></trkpt><trkpt lon="34.855208" lat="31.714897"><ele>146.9</ele><time>2018-04-04T12:57:08.392Z</time></trkpt><trkpt lon="34.855207" lat="31.714897"><ele>146.9</ele><time>2018-04-04T12:57:09.392Z</time></trkpt><trkpt lon="34.85517" lat="31.714888"><ele>146.9</ele><time>2018-04-04T12:57:47.392Z</time></trkpt><trkpt lon="34.855158" lat="31.71489"><ele>146.9</ele><time>2018-04-04T12:57:48.392Z</time></trkpt><trkpt lon="34.855142" lat="31.714893"><ele>146.9</ele><time>2018-04-04T12:57:49.392Z</time></trkpt><trkpt lon="34.855125" lat="31.714893"><ele>146.9</ele><time>2018-04-04T12:57:50.392Z</time></trkpt><trkpt lon="34.855112" lat="31.714892"><ele>146.9</ele><time>2018-04-04T12:57:51.392Z</time></trkpt><trkpt lon="34.8551" lat="31.714885"><ele>146.9</ele><time>2018-04-04T12:57:52.392Z</time></trkpt><trkpt lon="34.855092" lat="31.714873"><ele>146.9</ele><time>2018-04-04T12:57:53.392Z</time></trkpt><trkpt lon="34.855078" lat="31.714858"><ele>146.9</ele><time>2018-04-04T12:57:54.392Z</time></trkpt><trkpt lon="34.855068" lat="31.71485"><ele>145.8</ele><time>2018-04-04T12:57:55.392Z</time></trkpt><trkpt lon="34.855065" lat="31.71485"><ele>145.8</ele><time>2018-04-04T12:57:56.392Z</time></trkpt><trkpt lon="34.855065" lat="31.714848"><ele>145.8</ele><time>2018-04-04T12:57:57.392Z</time></trkpt><trkpt lon="34.855063" lat="31.714847"><ele>145.8</ele><time>2018-04-04T12:57:58.392Z</time></trkpt><trkpt lon="34.855058" lat="31.714847"><ele>145.8</ele><time>2018-04-04T12:57:59.392Z</time></trkpt><trkpt lon="34.855042" lat="31.714847"><ele>145.8</ele><time>2018-04-04T12:58:00.392Z</time></trkpt><trkpt lon="34.85502" lat="31.714845"><ele>144.9</ele><time>2018-04-04T12:58:01.392Z</time></trkpt><trkpt lon="34.855" lat="31.71484"><ele>144.9</ele><time>2018-04-04T12:58:02.392Z</time></trkpt><trkpt lon="34.854987" lat="31.71483"><ele>144.9</ele><time>2018-04-04T12:58:03.392Z</time></trkpt><trkpt lon="34.854973" lat="31.714815"><ele>144.9</ele><time>2018-04-04T12:58:04.392Z</time></trkpt><trkpt lon="34.854958" lat="31.714793"><ele>143.9</ele><time>2018-04-04T12:58:05.392Z</time></trkpt><trkpt lon="34.85494" lat="31.714772"><ele>143.9</ele><time>2018-04-04T12:58:06.392Z</time></trkpt><trkpt lon="34.854915" lat="31.714753"><ele>143.9</ele><time>2018-04-04T12:58:07.392Z</time></trkpt><trkpt lon="34.85488" lat="31.714737"><ele>143.9</ele><time>2018-04-04T12:58:08.392Z</time></trkpt><trkpt lon="34.85484" lat="31.714715"><ele>143.9</ele><time>2018-04-04T12:58:09.392Z</time></trkpt><trkpt lon="34.854798" lat="31.71469"><ele>143.9</ele><time>2018-04-04T12:58:10.392Z</time></trkpt><trkpt lon="34.854755" lat="31.714658"><ele>139.9</ele><time>2018-04-04T12:58:11.392Z</time></trkpt><trkpt lon="34.854707" lat="31.71463"><ele>139.9</ele><time>2018-04-04T12:58:12.392Z</time></trkpt><trkpt lon="34.85465" lat="31.714612"><ele>139.9</ele><time>2018-04-04T12:58:13.392Z</time></trkpt><trkpt lon="34.854585" lat="31.714603"><ele>139.9</ele><time>2018-04-04T12:58:14.392Z</time></trkpt><trkpt lon="34.854523" lat="31.714602"><ele>139.9</ele><time>2018-04-04T12:58:15.392Z</time></trkpt><trkpt lon="34.854455" lat="31.714608"><ele>139.9</ele><time>2018-04-04T12:58:16.392Z</time></trkpt><trkpt lon="34.854395" lat="31.714623"><ele>139.9</ele><time>2018-04-04T12:58:17.392Z</time></trkpt><trkpt lon="34.854345" lat="31.714647"><ele>139.9</ele><time>2018-04-04T12:58:18.392Z</time></trkpt><trkpt lon="34.854307" lat="31.714677"><ele>139.9</ele><time>2018-04-04T12:58:19.392Z</time></trkpt><trkpt lon="34.854287" lat="31.714713"><ele>139.9</ele><time>2018-04-04T12:58:20.392Z</time></trkpt><trkpt lon="34.854282" lat="31.714743"><ele>140.8</ele><time>2018-04-04T12:58:21.392Z</time></trkpt><trkpt lon="34.854295" lat="31.714763"><ele>140.8</ele><time>2018-04-04T12:58:22.392Z</time></trkpt><trkpt lon="34.854322" lat="31.71478"><ele>140.8</ele><time>2018-04-04T12:58:23.392Z</time></trkpt><trkpt lon="34.85435" lat="31.714792"><ele>140.8</ele><time>2018-04-04T12:58:24.392Z</time></trkpt><trkpt lon="34.854383" lat="31.7148"><ele>141.9</ele><time>2018-04-04T12:58:25.392Z</time></trkpt><trkpt lon="34.854413" lat="31.714808"><ele>141.9</ele><time>2018-04-04T12:58:26.392Z</time></trkpt><trkpt lon="34.854443" lat="31.714818"><ele>141.9</ele><time>2018-04-04T12:58:27.392Z</time></trkpt><trkpt lon="34.854473" lat="31.714828"><ele>141.9</ele><time>2018-04-04T12:58:28.392Z</time></trkpt><trkpt lon="34.854503" lat="31.714838"><ele>141.9</ele><time>2018-04-04T12:58:29.392Z</time></trkpt><trkpt lon="34.854535" lat="31.714848"><ele>141.9</ele><time>2018-04-04T12:58:30.392Z</time></trkpt><trkpt lon="34.854565" lat="31.714857"><ele>141.9</ele><time>2018-04-04T12:58:31.392Z</time></trkpt><trkpt lon="34.854593" lat="31.714865"><ele>141.9</ele><time>2018-04-04T12:58:32.392Z</time></trkpt><trkpt lon="34.85462" lat="31.714873"><ele>142.8</ele><time>2018-04-04T12:58:33.392Z</time></trkpt><trkpt lon="34.854648" lat="31.714883"><ele>142.8</ele><time>2018-04-04T12:58:34.392Z</time></trkpt><trkpt lon="34.854675" lat="31.714892"><ele>142.8</ele><time>2018-04-04T12:58:35.392Z</time></trkpt><trkpt lon="34.8547" lat="31.714903"><ele>142.8</ele><time>2018-04-04T12:58:36.392Z</time></trkpt><trkpt lon="34.854722" lat="31.714918"><ele>143.9</ele><time>2018-04-04T12:58:37.392Z</time></trkpt><trkpt lon="34.854735" lat="31.714933"><ele>143.9</ele><time>2018-04-04T12:58:38.392Z</time></trkpt><trkpt lon="34.854742" lat="31.714947"><ele>143.9</ele><time>2018-04-04T12:58:39.392Z</time></trkpt><trkpt lon="34.854733" lat="31.71496"><ele>143.9</ele><time>2018-04-04T12:58:40.392Z</time></trkpt><trkpt lon="34.854715" lat="31.714975"><ele>143.9</ele><time>2018-04-04T12:58:41.392Z</time></trkpt><trkpt lon="34.854693" lat="31.714985"><ele>143.9</ele><time>2018-04-04T12:58:42.392Z</time></trkpt><trkpt lon="34.85467" lat="31.714992"><ele>143.9</ele><time>2018-04-04T12:58:43.392Z</time></trkpt><trkpt lon="34.854643" lat="31.714995"><ele>143.9</ele><time>2018-04-04T12:58:44.392Z</time></trkpt><trkpt lon="34.854615" lat="31.715"><ele>143.9</ele><time>2018-04-04T12:58:45.392Z</time></trkpt><trkpt lon="34.854585" lat="31.715007"><ele>143.9</ele><time>2018-04-04T12:58:46.392Z</time></trkpt><trkpt lon="34.854558" lat="31.715018"><ele>143.9</ele><time>2018-04-04T12:58:47.392Z</time></trkpt><trkpt lon="34.854538" lat="31.715032"><ele>143.9</ele><time>2018-04-04T12:58:48.392Z</time></trkpt><trkpt lon="34.854525" lat="31.715047"><ele>144.9</ele><time>2018-04-04T12:58:49.392Z</time></trkpt><trkpt lon="34.85452" lat="31.715062"><ele>144.9</ele><time>2018-04-04T12:58:50.392Z</time></trkpt><trkpt lon="34.854522" lat="31.715075"><ele>144.9</ele><time>2018-04-04T12:58:51.392Z</time></trkpt><trkpt lon="34.854527" lat="31.715087"><ele>144.9</ele><time>2018-04-04T12:58:52.392Z</time></trkpt><trkpt lon="34.854537" lat="31.715097"><ele>144.9</ele><time>2018-04-04T12:58:53.392Z</time></trkpt><trkpt lon="34.854553" lat="31.715103"><ele>144.9</ele><time>2018-04-04T12:58:54.392Z</time></trkpt><trkpt lon="34.854575" lat="31.715107"><ele>144.9</ele><time>2018-04-04T12:58:55.392Z</time></trkpt><trkpt lon="34.8546" lat="31.71511"><ele>144.9</ele><time>2018-04-04T12:58:56.392Z</time></trkpt><trkpt lon="34.854625" lat="31.715113"><ele>144.9</ele><time>2018-04-04T12:58:57.392Z</time></trkpt><trkpt lon="34.854653" lat="31.71512"><ele>144.9</ele><time>2018-04-04T12:58:58.392Z</time></trkpt><trkpt lon="34.854682" lat="31.715127"><ele>145.8</ele><time>2018-04-04T12:58:59.392Z</time></trkpt><trkpt lon="34.854708" lat="31.715132"><ele>145.8</ele><time>2018-04-04T12:59:00.392Z</time></trkpt><trkpt lon="34.854737" lat="31.715137"><ele>145.8</ele><time>2018-04-04T12:59:01.392Z</time></trkpt><trkpt lon="34.854763" lat="31.71514"><ele>145.8</ele><time>2018-04-04T12:59:02.392Z</time></trkpt><trkpt lon="34.854788" lat="31.715143"><ele>145.8</ele><time>2018-04-04T12:59:03.392Z</time></trkpt><trkpt lon="34.854812" lat="31.715145"><ele>145.8</ele><time>2018-04-04T12:59:04.392Z</time></trkpt><trkpt lon="34.85483" lat="31.71515"><ele>146.9</ele><time>2018-04-04T12:59:05.392Z</time></trkpt><trkpt lon="34.854843" lat="31.715157"><ele>146.9</ele><time>2018-04-04T12:59:06.392Z</time></trkpt><trkpt lon="34.854848" lat="31.715167"><ele>146.9</ele><time>2018-04-04T12:59:07.392Z</time></trkpt><trkpt lon="34.854848" lat="31.715175"><ele>146.9</ele><time>2018-04-04T12:59:08.392Z</time></trkpt><trkpt lon="34.854838" lat="31.715183"><ele>147.8</ele><time>2018-04-04T12:59:09.392Z</time></trkpt><trkpt lon="34.854825" lat="31.715193"><ele>147.8</ele><time>2018-04-04T12:59:10.392Z</time></trkpt><trkpt lon="34.854812" lat="31.715205"><ele>147.8</ele><time>2018-04-04T12:59:11.392Z</time></trkpt><trkpt lon="34.854798" lat="31.715218"><ele>147.8</ele><time>2018-04-04T12:59:12.392Z</time></trkpt><trkpt lon="34.854783" lat="31.715232"><ele>147.8</ele><time>2018-04-04T12:59:13.392Z</time></trkpt><trkpt lon="34.85477" lat="31.715243"><ele>147.8</ele><time>2018-04-04T12:59:14.392Z</time></trkpt><trkpt lon="34.854757" lat="31.715255"><ele>148.9</ele><time>2018-04-04T12:59:15.392Z</time></trkpt><trkpt lon="34.85474" lat="31.715262"><ele>148.9</ele><time>2018-04-04T12:59:16.392Z</time></trkpt><trkpt lon="34.854725" lat="31.715268"><ele>148.9</ele><time>2018-04-04T12:59:17.392Z</time></trkpt><trkpt lon="34.85471" lat="31.715277"><ele>148.9</ele><time>2018-04-04T12:59:18.392Z</time></trkpt><trkpt lon="34.854697" lat="31.715282"><ele>149.8</ele><time>2018-04-04T12:59:19.392Z</time></trkpt><trkpt lon="34.85468" lat="31.715285"><ele>149.8</ele><time>2018-04-04T12:59:20.392Z</time></trkpt><trkpt lon="34.854663" lat="31.715285"><ele>149.8</ele><time>2018-04-04T12:59:21.392Z</time></trkpt><trkpt lon="34.854647" lat="31.715283"><ele>149.8</ele><time>2018-04-04T12:59:22.392Z</time></trkpt><trkpt lon="34.854628" lat="31.715278"><ele>149.8</ele><time>2018-04-04T12:59:23.392Z</time></trkpt><trkpt lon="34.85461" lat="31.715272"><ele>149.8</ele><time>2018-04-04T12:59:24.392Z</time></trkpt><trkpt lon="34.854592" lat="31.715268"><ele>149.8</ele><time>2018-04-04T12:59:25.392Z</time></trkpt><trkpt lon="34.854573" lat="31.715268"><ele>149.8</ele><time>2018-04-04T12:59:26.392Z</time></trkpt><trkpt lon="34.854557" lat="31.71527"><ele>150.9</ele><time>2018-04-04T12:59:27.392Z</time></trkpt><trkpt lon="34.85454" lat="31.715275"><ele>150.9</ele><time>2018-04-04T12:59:28.392Z</time></trkpt><trkpt lon="34.854525" lat="31.715277"><ele>150.9</ele><time>2018-04-04T12:59:29.392Z</time></trkpt><trkpt lon="34.854508" lat="31.71528"><ele>150.9</ele><time>2018-04-04T12:59:30.392Z</time></trkpt><trkpt lon="34.854495" lat="31.715282"><ele>150.9</ele><time>2018-04-04T12:59:31.392Z</time></trkpt><trkpt lon="34.85448" lat="31.715278"><ele>150.9</ele><time>2018-04-04T12:59:32.392Z</time></trkpt><trkpt lon="34.854465" lat="31.715273"><ele>150.9</ele><time>2018-04-04T12:59:33.392Z</time></trkpt><trkpt lon="34.854448" lat="31.71527"><ele>150.9</ele><time>2018-04-04T12:59:34.392Z</time></trkpt><trkpt lon="34.85443" lat="31.715268"><ele>150.9</ele><time>2018-04-04T12:59:35.392Z</time></trkpt><trkpt lon="34.854412" lat="31.715272"><ele>150.9</ele><time>2018-04-04T12:59:36.392Z</time></trkpt><trkpt lon="34.854393" lat="31.715273"><ele>150.9</ele><time>2018-04-04T12:59:37.392Z</time></trkpt><trkpt lon="34.854375" lat="31.715277"><ele>150.9</ele><time>2018-04-04T12:59:38.392Z</time></trkpt><trkpt lon="34.854357" lat="31.71528"><ele>151.9</ele><time>2018-04-04T12:59:39.392Z</time></trkpt><trkpt lon="34.854342" lat="31.715283"><ele>151.9</ele><time>2018-04-04T12:59:40.392Z</time></trkpt><trkpt lon="34.854327" lat="31.715287"><ele>151.9</ele><time>2018-04-04T12:59:41.392Z</time></trkpt><trkpt lon="34.854313" lat="31.71529"><ele>151.9</ele><time>2018-04-04T12:59:42.392Z</time></trkpt><trkpt lon="34.854302" lat="31.715293"><ele>152.9</ele><time>2018-04-04T12:59:43.392Z</time></trkpt><trkpt lon="34.854287" lat="31.715295"><ele>152.9</ele><time>2018-04-04T12:59:44.392Z</time></trkpt><trkpt lon="34.85427" lat="31.7153"><ele>152.9</ele><time>2018-04-04T12:59:45.392Z</time></trkpt><trkpt lon="34.854253" lat="31.715302"><ele>152.9</ele><time>2018-04-04T12:59:46.392Z</time></trkpt><trkpt lon="34.854238" lat="31.715303"><ele>152.9</ele><time>2018-04-04T12:59:47.392Z</time></trkpt><trkpt lon="34.854222" lat="31.715307"><ele>152.9</ele><time>2018-04-04T12:59:48.392Z</time></trkpt><trkpt lon="34.854202" lat="31.71531"><ele>152.9</ele><time>2018-04-04T12:59:49.392Z</time></trkpt><trkpt lon="34.854182" lat="31.715315"><ele>152.9</ele><time>2018-04-04T12:59:50.392Z</time></trkpt><trkpt lon="34.854165" lat="31.715322"><ele>152.9</ele><time>2018-04-04T12:59:51.392Z</time></trkpt><trkpt lon="34.854148" lat="31.715332"><ele>152.9</ele><time>2018-04-04T12:59:52.392Z</time></trkpt><trkpt lon="34.854135" lat="31.715342"><ele>152.9</ele><time>2018-04-04T12:59:53.392Z</time></trkpt><trkpt lon="34.854125" lat="31.715353"><ele>152.9</ele><time>2018-04-04T12:59:54.392Z</time></trkpt><trkpt lon="34.854118" lat="31.715368"><ele>153.9</ele><time>2018-04-04T12:59:55.392Z</time></trkpt><trkpt lon="34.854115" lat="31.715383"><ele>153.9</ele><time>2018-04-04T12:59:56.392Z</time></trkpt><trkpt lon="34.854113" lat="31.715397"><ele>153.9</ele><time>2018-04-04T12:59:57.392Z</time></trkpt><trkpt lon="34.854113" lat="31.715412"><ele>153.9</ele><time>2018-04-04T12:59:58.392Z</time></trkpt><trkpt lon="34.854115" lat="31.715427"><ele>154.8</ele><time>2018-04-04T12:59:59.392Z</time></trkpt><trkpt lon="34.854117" lat="31.715438"><ele>154.8</ele><time>2018-04-04T13:00:00.392Z</time></trkpt><trkpt lon="34.85412" lat="31.715452"><ele>154.8</ele><time>2018-04-04T13:00:01.392Z</time></trkpt><trkpt lon="34.854127" lat="31.715462"><ele>154.8</ele><time>2018-04-04T13:00:02.392Z</time></trkpt><trkpt lon="34.854137" lat="31.715468"><ele>154.8</ele><time>2018-04-04T13:00:03.392Z</time></trkpt><trkpt lon="34.854148" lat="31.715473"><ele>154.8</ele><time>2018-04-04T13:00:04.392Z</time></trkpt><trkpt lon="34.854158" lat="31.715477"><ele>154.8</ele><time>2018-04-04T13:00:05.392Z</time></trkpt><trkpt lon="34.85417" lat="31.71548"><ele>154.8</ele><time>2018-04-04T13:00:06.392Z</time></trkpt><trkpt lon="34.854182" lat="31.715487"><ele>155.9</ele><time>2018-04-04T13:00:07.392Z</time></trkpt><trkpt lon="34.854195" lat="31.715493"><ele>155.9</ele><time>2018-04-04T13:00:08.392Z</time></trkpt><trkpt lon="34.85421" lat="31.7155"><ele>155.9</ele><time>2018-04-04T13:00:09.392Z</time></trkpt><trkpt lon="34.854227" lat="31.71551"><ele>155.9</ele><time>2018-04-04T13:00:10.392Z</time></trkpt><trkpt lon="34.854242" lat="31.715518"><ele>155.9</ele><time>2018-04-04T13:00:11.392Z</time></trkpt><trkpt lon="34.854255" lat="31.71553"><ele>155.9</ele><time>2018-04-04T13:00:12.392Z</time></trkpt><trkpt lon="34.854268" lat="31.715543"><ele>155.9</ele><time>2018-04-04T13:00:13.392Z</time></trkpt><trkpt lon="34.854282" lat="31.715552"><ele>155.9</ele><time>2018-04-04T13:00:14.392Z</time></trkpt><trkpt lon="34.854293" lat="31.715562"><ele>155.9</ele><time>2018-04-04T13:00:15.392Z</time></trkpt><trkpt lon="34.8543" lat="31.715572"><ele>155.9</ele><time>2018-04-04T13:00:16.392Z</time></trkpt><trkpt lon="34.854302" lat="31.715585"><ele>155.9</ele><time>2018-04-04T13:00:17.392Z</time></trkpt><trkpt lon="34.8543" lat="31.715595"><ele>155.9</ele><time>2018-04-04T13:00:18.392Z</time></trkpt><trkpt lon="34.854297" lat="31.715607"><ele>156.8</ele><time>2018-04-04T13:00:19.392Z</time></trkpt><trkpt lon="34.854288" lat="31.715617"><ele>156.8</ele><time>2018-04-04T13:00:20.392Z</time></trkpt><trkpt lon="34.85428" lat="31.715623"><ele>156.8</ele><time>2018-04-04T13:00:21.392Z</time></trkpt><trkpt lon="34.854268" lat="31.715627"><ele>156.8</ele><time>2018-04-04T13:00:22.392Z</time></trkpt><trkpt lon="34.854252" lat="31.715628"><ele>156.8</ele><time>2018-04-04T13:00:23.392Z</time></trkpt><trkpt lon="34.854233" lat="31.71563"><ele>156.8</ele><time>2018-04-04T13:00:24.392Z</time></trkpt><trkpt lon="34.854215" lat="31.715637"><ele>157.9</ele><time>2018-04-04T13:00:25.392Z</time></trkpt><trkpt lon="34.854202" lat="31.715645"><ele>157.9</ele><time>2018-04-04T13:00:26.392Z</time></trkpt><trkpt lon="34.854185" lat="31.715655"><ele>157.9</ele><time>2018-04-04T13:00:27.392Z</time></trkpt><trkpt lon="34.85417" lat="31.715662"><ele>157.9</ele><time>2018-04-04T13:00:28.392Z</time></trkpt><trkpt lon="34.854152" lat="31.715667"><ele>157.9</ele><time>2018-04-04T13:00:29.392Z</time></trkpt><trkpt lon="34.854135" lat="31.715677"><ele>157.9</ele><time>2018-04-04T13:00:30.392Z</time></trkpt><trkpt lon="34.854118" lat="31.71568"><ele>157.9</ele><time>2018-04-04T13:00:31.392Z</time></trkpt><trkpt lon="34.8541" lat="31.715682"><ele>157.9</ele><time>2018-04-04T13:00:32.392Z</time></trkpt><trkpt lon="34.85408" lat="31.715683"><ele>157.9</ele><time>2018-04-04T13:00:33.392Z</time></trkpt><trkpt lon="34.85406" lat="31.715683"><ele>157.9</ele><time>2018-04-04T13:00:34.392Z</time></trkpt><trkpt lon="34.854042" lat="31.715685"><ele>158.8</ele><time>2018-04-04T13:00:35.392Z</time></trkpt><trkpt lon="34.854022" lat="31.715692"><ele>158.8</ele><time>2018-04-04T13:00:36.392Z</time></trkpt><trkpt lon="34.854007" lat="31.7157"><ele>158.8</ele><time>2018-04-04T13:00:37.392Z</time></trkpt><trkpt lon="34.853993" lat="31.71571"><ele>158.8</ele><time>2018-04-04T13:00:38.392Z</time></trkpt><trkpt lon="34.853985" lat="31.71572"><ele>158.8</ele><time>2018-04-04T13:00:39.392Z</time></trkpt><trkpt lon="34.853972" lat="31.71573"><ele>158.8</ele><time>2018-04-04T13:00:40.392Z</time></trkpt><trkpt lon="34.853957" lat="31.715738"><ele>158.8</ele><time>2018-04-04T13:00:41.392Z</time></trkpt><trkpt lon="34.853938" lat="31.715748"><ele>158.8</ele><time>2018-04-04T13:00:42.392Z</time></trkpt><trkpt lon="34.853922" lat="31.71576"><ele>158.8</ele><time>2018-04-04T13:00:43.392Z</time></trkpt><trkpt lon="34.853907" lat="31.715775"><ele>158.8</ele><time>2018-04-04T13:00:44.392Z</time></trkpt><trkpt lon="34.853897" lat="31.715788"><ele>158.8</ele><time>2018-04-04T13:00:45.392Z</time></trkpt><trkpt lon="34.853887" lat="31.715807"><ele>158.8</ele><time>2018-04-04T13:00:46.392Z</time></trkpt><trkpt lon="34.853878" lat="31.715827"><ele>158.8</ele><time>2018-04-04T13:00:47.392Z</time></trkpt><trkpt lon="34.853873" lat="31.715847"><ele>158.8</ele><time>2018-04-04T13:00:48.392Z</time></trkpt><trkpt lon="34.853867" lat="31.715863"><ele>158.8</ele><time>2018-04-04T13:00:49.392Z</time></trkpt><trkpt lon="34.85386" lat="31.715882"><ele>158.8</ele><time>2018-04-04T13:00:50.392Z</time></trkpt><trkpt lon="34.853855" lat="31.715897"><ele>158.8</ele><time>2018-04-04T13:00:51.392Z</time></trkpt><trkpt lon="34.853848" lat="31.715913"><ele>158.8</ele><time>2018-04-04T13:00:52.392Z</time></trkpt><trkpt lon="34.853842" lat="31.715933"><ele>158.8</ele><time>2018-04-04T13:00:53.392Z</time></trkpt><trkpt lon="34.853833" lat="31.715957"><ele>158.8</ele><time>2018-04-04T13:00:54.392Z</time></trkpt><trkpt lon="34.853823" lat="31.715977"><ele>159.9</ele><time>2018-04-04T13:00:55.392Z</time></trkpt><trkpt lon="34.85381" lat="31.715995"><ele>159.9</ele><time>2018-04-04T13:00:56.392Z</time></trkpt><trkpt lon="34.853793" lat="31.716017"><ele>159.9</ele><time>2018-04-04T13:00:57.392Z</time></trkpt><trkpt lon="34.853777" lat="31.716035"><ele>159.9</ele><time>2018-04-04T13:00:58.392Z</time></trkpt><trkpt lon="34.853757" lat="31.716055"><ele>159.9</ele><time>2018-04-04T13:00:59.392Z</time></trkpt><trkpt lon="34.853737" lat="31.716077"><ele>159.9</ele><time>2018-04-04T13:01:00.392Z</time></trkpt><trkpt lon="34.853723" lat="31.716102"><ele>159.9</ele><time>2018-04-04T13:01:01.392Z</time></trkpt><trkpt lon="34.853713" lat="31.716127"><ele>159.9</ele><time>2018-04-04T13:01:02.392Z</time></trkpt><trkpt lon="34.853703" lat="31.716152"><ele>159.9</ele><time>2018-04-04T13:01:03.392Z</time></trkpt><trkpt lon="34.853693" lat="31.716175"><ele>159.9</ele><time>2018-04-04T13:01:04.392Z</time></trkpt><trkpt lon="34.853685" lat="31.716198"><ele>159.9</ele><time>2018-04-04T13:01:05.392Z</time></trkpt><trkpt lon="34.853673" lat="31.71622"><ele>159.9</ele><time>2018-04-04T13:01:06.392Z</time></trkpt><trkpt lon="34.85366" lat="31.716245"><ele>159.9</ele><time>2018-04-04T13:01:07.392Z</time></trkpt><trkpt lon="34.853643" lat="31.716265"><ele>159.9</ele><time>2018-04-04T13:01:08.392Z</time></trkpt><trkpt lon="34.853622" lat="31.716287"><ele>159.9</ele><time>2018-04-04T13:01:09.392Z</time></trkpt><trkpt lon="34.853597" lat="31.716307"><ele>159.9</ele><time>2018-04-04T13:01:10.392Z</time></trkpt><trkpt lon="34.853577" lat="31.716327"><ele>159.9</ele><time>2018-04-04T13:01:11.392Z</time></trkpt><trkpt lon="34.85356" lat="31.716352"><ele>159.9</ele><time>2018-04-04T13:01:12.392Z</time></trkpt><trkpt lon="34.85355" lat="31.716373"><ele>159.9</ele><time>2018-04-04T13:01:13.392Z</time></trkpt><trkpt lon="34.853538" lat="31.716393"><ele>159.9</ele><time>2018-04-04T13:01:14.392Z</time></trkpt><trkpt lon="34.85352" lat="31.71641"><ele>159.9</ele><time>2018-04-04T13:01:15.392Z</time></trkpt><trkpt lon="34.853495" lat="31.71643"><ele>159.9</ele><time>2018-04-04T13:01:16.392Z</time></trkpt><trkpt lon="34.853468" lat="31.716447"><ele>159.9</ele><time>2018-04-04T13:01:17.392Z</time></trkpt><trkpt lon="34.85344" lat="31.716463"><ele>159.9</ele><time>2018-04-04T13:01:18.392Z</time></trkpt><trkpt lon="34.853407" lat="31.71648"><ele>159.9</ele><time>2018-04-04T13:01:19.392Z</time></trkpt><trkpt lon="34.853372" lat="31.716495"><ele>159.9</ele><time>2018-04-04T13:01:20.392Z</time></trkpt><trkpt lon="34.853333" lat="31.71651"><ele>158.8</ele><time>2018-04-04T13:01:21.392Z</time></trkpt><trkpt lon="34.85329" lat="31.716522"><ele>158.8</ele><time>2018-04-04T13:01:22.392Z</time></trkpt><trkpt lon="34.853245" lat="31.716532"><ele>158.8</ele><time>2018-04-04T13:01:23.392Z</time></trkpt><trkpt lon="34.853193" lat="31.716542"><ele>158.8</ele><time>2018-04-04T13:01:24.392Z</time></trkpt><trkpt lon="34.853133" lat="31.716557"><ele>157.9</ele><time>2018-04-04T13:01:25.392Z</time></trkpt><trkpt lon="34.853073" lat="31.716568"><ele>157.9</ele><time>2018-04-04T13:01:26.392Z</time></trkpt><trkpt lon="34.853008" lat="31.71658"><ele>157.9</ele><time>2018-04-04T13:01:27.392Z</time></trkpt><trkpt lon="34.85294" lat="31.716593"><ele>157.9</ele><time>2018-04-04T13:01:28.392Z</time></trkpt><trkpt lon="34.852873" lat="31.71661"><ele>157.9</ele><time>2018-04-04T13:01:29.392Z</time></trkpt><trkpt lon="34.852812" lat="31.716628"><ele>157.9</ele><time>2018-04-04T13:01:30.392Z</time></trkpt><trkpt lon="34.852757" lat="31.71665"><ele>157.9</ele><time>2018-04-04T13:01:31.392Z</time></trkpt><trkpt lon="34.852713" lat="31.716675"><ele>157.9</ele><time>2018-04-04T13:01:32.392Z</time></trkpt><trkpt lon="34.852705" lat="31.716698"><ele>158.8</ele><time>2018-04-04T13:01:33.392Z</time></trkpt><trkpt lon="34.852697" lat="31.716723"><ele>158.8</ele><time>2018-04-04T13:01:34.392Z</time></trkpt><trkpt lon="34.852692" lat="31.716745"><ele>158.8</ele><time>2018-04-04T13:01:35.392Z</time></trkpt><trkpt lon="34.852687" lat="31.716768"><ele>158.8</ele><time>2018-04-04T13:01:36.392Z</time></trkpt><trkpt lon="34.852677" lat="31.716787"><ele>158.8</ele><time>2018-04-04T13:01:37.392Z</time></trkpt><trkpt lon="34.85266" lat="31.7168"><ele>158.8</ele><time>2018-04-04T13:01:38.392Z</time></trkpt><trkpt lon="34.852642" lat="31.716812"><ele>159.9</ele><time>2018-04-04T13:01:39.392Z</time></trkpt><trkpt lon="34.85263" lat="31.716818"><ele>159.9</ele><time>2018-04-04T13:01:40.392Z</time></trkpt><trkpt lon="34.85263" lat="31.71682"><ele>159.9</ele><time>2018-04-04T13:01:41.392Z</time></trkpt><trkpt lon="34.85263" lat="31.71682"><ele>159.9</ele><time>2018-04-04T13:01:42.392Z</time></trkpt><trkpt lon="34.852628" lat="31.716818"><ele>159.9</ele><time>2018-04-04T13:01:43.392Z</time></trkpt><trkpt lon="34.85262" lat="31.716813"><ele>159.9</ele><time>2018-04-04T13:01:47.392Z</time></trkpt><trkpt lon="34.852613" lat="31.716808"><ele>159.9</ele><time>2018-04-04T13:01:48.392Z</time></trkpt><trkpt lon="34.852607" lat="31.716798"><ele>159.9</ele><time>2018-04-04T13:01:49.392Z</time></trkpt><trkpt lon="34.8526" lat="31.716783"><ele>159.9</ele><time>2018-04-04T13:01:50.392Z</time></trkpt><trkpt lon="34.852593" lat="31.716765"><ele>159.9</ele><time>2018-04-04T13:01:51.392Z</time></trkpt><trkpt lon="34.852583" lat="31.716747"><ele>159.9</ele><time>2018-04-04T13:01:52.392Z</time></trkpt><trkpt lon="34.85257" lat="31.71673"><ele>159.9</ele><time>2018-04-04T13:01:53.392Z</time></trkpt><trkpt lon="34.852565" lat="31.716712"><ele>159.9</ele><time>2018-04-04T13:01:54.392Z</time></trkpt><trkpt lon="34.85256" lat="31.71669"><ele>159.9</ele><time>2018-04-04T13:01:55.392Z</time></trkpt><trkpt lon="34.852547" lat="31.71667"><ele>159.9</ele><time>2018-04-04T13:01:56.392Z</time></trkpt><trkpt lon="34.852528" lat="31.716655"><ele>159.9</ele><time>2018-04-04T13:01:57.392Z</time></trkpt><trkpt lon="34.852508" lat="31.716643"><ele>159.9</ele><time>2018-04-04T13:01:58.392Z</time></trkpt><trkpt lon="34.852497" lat="31.71663"><ele>159.9</ele><time>2018-04-04T13:01:59.392Z</time></trkpt><trkpt lon="34.852478" lat="31.716617"><ele>160.9</ele><time>2018-04-04T13:02:00.392Z</time></trkpt><trkpt lon="34.85246" lat="31.716607"><ele>160.9</ele><time>2018-04-04T13:02:01.392Z</time></trkpt><trkpt lon="34.852443" lat="31.716598"><ele>160.9</ele><time>2018-04-04T13:02:02.392Z</time></trkpt><trkpt lon="34.852425" lat="31.716593"><ele>160.9</ele><time>2018-04-04T13:02:03.392Z</time></trkpt><trkpt lon="34.852407" lat="31.716588"><ele>160.9</ele><time>2018-04-04T13:02:04.392Z</time></trkpt><trkpt lon="34.852387" lat="31.71658"><ele>160.9</ele><time>2018-04-04T13:02:05.392Z</time></trkpt><trkpt lon="34.85237" lat="31.716568"><ele>161.9</ele><time>2018-04-04T13:02:06.392Z</time></trkpt><trkpt lon="34.85235" lat="31.716555"><ele>161.9</ele><time>2018-04-04T13:02:07.392Z</time></trkpt><trkpt lon="34.852328" lat="31.716542"><ele>161.9</ele><time>2018-04-04T13:02:08.392Z</time></trkpt><trkpt lon="34.852303" lat="31.71653"><ele>161.9</ele><time>2018-04-04T13:02:09.392Z</time></trkpt><trkpt lon="34.85228" lat="31.716512"><ele>161.9</ele><time>2018-04-04T13:02:10.392Z</time></trkpt><trkpt lon="34.852258" lat="31.716493"><ele>161.9</ele><time>2018-04-04T13:02:11.392Z</time></trkpt><trkpt lon="34.852237" lat="31.716475"><ele>161.9</ele><time>2018-04-04T13:02:12.392Z</time></trkpt><trkpt lon="34.85222" lat="31.716453"><ele>161.9</ele><time>2018-04-04T13:02:13.392Z</time></trkpt><trkpt lon="34.852208" lat="31.716428"><ele>162.9</ele><time>2018-04-04T13:02:14.392Z</time></trkpt><trkpt lon="34.852205" lat="31.716403"><ele>162.9</ele><time>2018-04-04T13:02:15.392Z</time></trkpt><trkpt lon="34.852205" lat="31.716378"><ele>162.9</ele><time>2018-04-04T13:02:16.392Z</time></trkpt><trkpt lon="34.8522" lat="31.716357"><ele>162.9</ele><time>2018-04-04T13:02:17.392Z</time></trkpt><trkpt lon="34.852185" lat="31.716335"><ele>162.9</ele><time>2018-04-04T13:02:18.392Z</time></trkpt><trkpt lon="34.852167" lat="31.716315"><ele>162.9</ele><time>2018-04-04T13:02:19.392Z</time></trkpt><trkpt lon="34.852152" lat="31.716293"><ele>162.9</ele><time>2018-04-04T13:02:20.392Z</time></trkpt><trkpt lon="34.85214" lat="31.716268"><ele>162.9</ele><time>2018-04-04T13:02:21.392Z</time></trkpt><trkpt lon="34.852137" lat="31.716243"><ele>162.9</ele><time>2018-04-04T13:02:22.392Z</time></trkpt><trkpt lon="34.85214" lat="31.716218"><ele>162.9</ele><time>2018-04-04T13:02:23.392Z</time></trkpt><trkpt lon="34.85214" lat="31.716193"><ele>162.9</ele><time>2018-04-04T13:02:24.392Z</time></trkpt><trkpt lon="34.852133" lat="31.716168"><ele>162.9</ele><time>2018-04-04T13:02:25.392Z</time></trkpt><trkpt lon="34.85212" lat="31.716148"><ele>162.9</ele><time>2018-04-04T13:02:26.392Z</time></trkpt><trkpt lon="34.852098" lat="31.716133"><ele>162.9</ele><time>2018-04-04T13:02:27.392Z</time></trkpt><trkpt lon="34.85208" lat="31.716122"><ele>163.8</ele><time>2018-04-04T13:02:28.392Z</time></trkpt><trkpt lon="34.852067" lat="31.716107"><ele>163.8</ele><time>2018-04-04T13:02:29.392Z</time></trkpt><trkpt lon="34.852052" lat="31.716092"><ele>163.8</ele><time>2018-04-04T13:02:30.392Z</time></trkpt><trkpt lon="34.852035" lat="31.716075"><ele>163.8</ele><time>2018-04-04T13:02:31.392Z</time></trkpt><trkpt lon="34.852023" lat="31.716057"><ele>163.8</ele><time>2018-04-04T13:02:32.392Z</time></trkpt><trkpt lon="34.852013" lat="31.716033"><ele>163.8</ele><time>2018-04-04T13:02:33.392Z</time></trkpt><trkpt lon="34.852008" lat="31.716008"><ele>163.8</ele><time>2018-04-04T13:02:34.392Z</time></trkpt><trkpt lon="34.852002" lat="31.715983"><ele>163.8</ele><time>2018-04-04T13:02:35.392Z</time></trkpt><trkpt lon="34.851993" lat="31.715958"><ele>163.8</ele><time>2018-04-04T13:02:36.392Z</time></trkpt><trkpt lon="34.85199" lat="31.715933"><ele>163.8</ele><time>2018-04-04T13:02:37.392Z</time></trkpt><trkpt lon="34.851987" lat="31.715907"><ele>163.8</ele><time>2018-04-04T13:02:38.392Z</time></trkpt><trkpt lon="34.851978" lat="31.715882"><ele>163.8</ele><time>2018-04-04T13:02:39.392Z</time></trkpt><trkpt lon="34.851962" lat="31.715865"><ele>163.8</ele><time>2018-04-04T13:02:40.392Z</time></trkpt><trkpt lon="34.85194" lat="31.71585"><ele>163.8</ele><time>2018-04-04T13:02:41.392Z</time></trkpt><trkpt lon="34.851925" lat="31.715828"><ele>163.8</ele><time>2018-04-04T13:02:42.392Z</time></trkpt><trkpt lon="34.851907" lat="31.715812"><ele>163.8</ele><time>2018-04-04T13:02:43.392Z</time></trkpt><trkpt lon="34.851887" lat="31.715795"><ele>163.8</ele><time>2018-04-04T13:02:44.392Z</time></trkpt><trkpt lon="34.851865" lat="31.715783"><ele>163.8</ele><time>2018-04-04T13:02:45.392Z</time></trkpt><trkpt lon="34.851843" lat="31.715767"><ele>163.8</ele><time>2018-04-04T13:02:46.392Z</time></trkpt><trkpt lon="34.851823" lat="31.715745"><ele>163.8</ele><time>2018-04-04T13:02:47.392Z</time></trkpt><trkpt lon="34.8518" lat="31.715718"><ele>163.8</ele><time>2018-04-04T13:02:48.392Z</time></trkpt><trkpt lon="34.851777" lat="31.715692"><ele>163.8</ele><time>2018-04-04T13:02:49.392Z</time></trkpt><trkpt lon="34.851755" lat="31.715665"><ele>163.8</ele><time>2018-04-04T13:02:50.392Z</time></trkpt><trkpt lon="34.851748" lat="31.715633"><ele>163.8</ele><time>2018-04-04T13:02:51.392Z</time></trkpt><trkpt lon="34.851757" lat="31.715602"><ele>163.8</ele><time>2018-04-04T13:02:52.392Z</time></trkpt><trkpt lon="34.85177" lat="31.71557"><ele>163.8</ele><time>2018-04-04T13:02:53.392Z</time></trkpt><trkpt lon="34.85177" lat="31.715535"><ele>162.9</ele><time>2018-04-04T13:02:54.392Z</time></trkpt><trkpt lon="34.851745" lat="31.715505"><ele>162.9</ele><time>2018-04-04T13:02:55.392Z</time></trkpt><trkpt lon="34.851712" lat="31.71548"><ele>162.9</ele><time>2018-04-04T13:02:56.392Z</time></trkpt><trkpt lon="34.851673" lat="31.715457"><ele>162.9</ele><time>2018-04-04T13:02:57.392Z</time></trkpt><trkpt lon="34.851622" lat="31.715443"><ele>161.9</ele><time>2018-04-04T13:02:58.392Z</time></trkpt><trkpt lon="34.851563" lat="31.71544"><ele>161.9</ele><time>2018-04-04T13:02:59.392Z</time></trkpt><trkpt lon="34.851503" lat="31.715437"><ele>160.9</ele><time>2018-04-04T13:03:00.392Z</time></trkpt><trkpt lon="34.851447" lat="31.715432"><ele>160.9</ele><time>2018-04-04T13:03:01.392Z</time></trkpt><trkpt lon="34.851395" lat="31.715418"><ele>159.9</ele><time>2018-04-04T13:03:02.392Z</time></trkpt><trkpt lon="34.851358" lat="31.7154"><ele>159.9</ele><time>2018-04-04T13:03:03.392Z</time></trkpt><trkpt lon="34.851337" lat="31.71537"><ele>158.8</ele><time>2018-04-04T13:03:04.392Z</time></trkpt><trkpt lon="34.851328" lat="31.715335"><ele>158.8</ele><time>2018-04-04T13:03:05.392Z</time></trkpt><trkpt lon="34.851333" lat="31.715297"><ele>158.8</ele><time>2018-04-04T13:03:06.392Z</time></trkpt><trkpt lon="34.851365" lat="31.71526"><ele>158.8</ele><time>2018-04-04T13:03:07.392Z</time></trkpt><trkpt lon="34.851407" lat="31.715225"><ele>158.8</ele><time>2018-04-04T13:03:08.392Z</time></trkpt><trkpt lon="34.851452" lat="31.715195"><ele>158.8</ele><time>2018-04-04T13:03:09.392Z</time></trkpt><trkpt lon="34.851495" lat="31.715178"><ele>158.8</ele><time>2018-04-04T13:03:10.392Z</time></trkpt><trkpt lon="34.851538" lat="31.715167"><ele>158.8</ele><time>2018-04-04T13:03:11.392Z</time></trkpt><trkpt lon="34.85158" lat="31.715155"><ele>158.8</ele><time>2018-04-04T13:03:12.392Z</time></trkpt><trkpt lon="34.851623" lat="31.715147"><ele>158.8</ele><time>2018-04-04T13:03:13.392Z</time></trkpt><trkpt lon="34.851663" lat="31.715145"><ele>158.8</ele><time>2018-04-04T13:03:14.392Z</time></trkpt><trkpt lon="34.851702" lat="31.715148"><ele>158.8</ele><time>2018-04-04T13:03:15.392Z</time></trkpt><trkpt lon="34.85174" lat="31.715153"><ele>158.8</ele><time>2018-04-04T13:03:16.392Z</time></trkpt><trkpt lon="34.851782" lat="31.715158"><ele>158.8</ele><time>2018-04-04T13:03:17.392Z</time></trkpt><trkpt lon="34.85182" lat="31.715162"><ele>158.8</ele><time>2018-04-04T13:03:18.392Z</time></trkpt><trkpt lon="34.851858" lat="31.715168"><ele>158.8</ele><time>2018-04-04T13:03:19.392Z</time></trkpt><trkpt lon="34.851895" lat="31.715175"><ele>158.8</ele><time>2018-04-04T13:03:20.392Z</time></trkpt><trkpt lon="34.85193" lat="31.715185"><ele>158.8</ele><time>2018-04-04T13:03:21.392Z</time></trkpt><trkpt lon="34.851962" lat="31.715198"><ele>158.8</ele><time>2018-04-04T13:03:22.392Z</time></trkpt><trkpt lon="34.85199" lat="31.71521"><ele>158.8</ele><time>2018-04-04T13:03:23.392Z</time></trkpt><trkpt lon="34.852007" lat="31.715215"><ele>158.8</ele><time>2018-04-04T13:03:24.392Z</time></trkpt><trkpt lon="34.852015" lat="31.715208"><ele>158.8</ele><time>2018-04-04T13:03:25.392Z</time></trkpt><trkpt lon="34.852007" lat="31.715202"><ele>158.8</ele><time>2018-04-04T13:03:26.392Z</time></trkpt><trkpt lon="34.851985" lat="31.715182"><ele>158.8</ele><time>2018-04-04T13:03:27.392Z</time></trkpt><trkpt lon="34.851968" lat="31.71516"><ele>157.9</ele><time>2018-04-04T13:03:28.392Z</time></trkpt><trkpt lon="34.851957" lat="31.715135"><ele>157.9</ele><time>2018-04-04T13:03:29.392Z</time></trkpt><trkpt lon="34.851952" lat="31.715115"><ele>157.9</ele><time>2018-04-04T13:03:30.392Z</time></trkpt><trkpt lon="34.851957" lat="31.715093"><ele>157.9</ele><time>2018-04-04T13:03:31.392Z</time></trkpt><trkpt lon="34.851967" lat="31.715068"><ele>156.8</ele><time>2018-04-04T13:03:32.392Z</time></trkpt><trkpt lon="34.851978" lat="31.715033"><ele>156.8</ele><time>2018-04-04T13:03:33.392Z</time></trkpt><trkpt lon="34.851993" lat="31.714998"><ele>156.8</ele><time>2018-04-04T13:03:34.392Z</time></trkpt><trkpt lon="34.852013" lat="31.714963"><ele>156.8</ele><time>2018-04-04T13:03:35.392Z</time></trkpt><trkpt lon="34.852033" lat="31.714927"><ele>155.9</ele><time>2018-04-04T13:03:36.392Z</time></trkpt><trkpt lon="34.852053" lat="31.714885"><ele>155.9</ele><time>2018-04-04T13:03:37.392Z</time></trkpt><trkpt lon="34.85207" lat="31.714842"><ele>154.8</ele><time>2018-04-04T13:03:38.392Z</time></trkpt><trkpt lon="34.852092" lat="31.714802"><ele>154.8</ele><time>2018-04-04T13:03:39.392Z</time></trkpt><trkpt lon="34.85212" lat="31.714762"><ele>154.8</ele><time>2018-04-04T13:03:40.392Z</time></trkpt><trkpt lon="34.852153" lat="31.714727"><ele>154.8</ele><time>2018-04-04T13:03:41.392Z</time></trkpt><trkpt lon="34.852195" lat="31.7147"><ele>154.8</ele><time>2018-04-04T13:03:42.392Z</time></trkpt><trkpt lon="34.85224" lat="31.71468"><ele>154.8</ele><time>2018-04-04T13:03:43.392Z</time></trkpt><trkpt lon="34.852283" lat="31.714672"><ele>154.8</ele><time>2018-04-04T13:03:44.392Z</time></trkpt><trkpt lon="34.852325" lat="31.714675"><ele>154.8</ele><time>2018-04-04T13:03:45.392Z</time></trkpt><trkpt lon="34.852367" lat="31.714685"><ele>151.9</ele><time>2018-04-04T13:03:46.392Z</time></trkpt><trkpt lon="34.852405" lat="31.714698"><ele>151.9</ele><time>2018-04-04T13:03:47.392Z</time></trkpt><trkpt lon="34.852442" lat="31.714713"><ele>150.9</ele><time>2018-04-04T13:03:48.392Z</time></trkpt><trkpt lon="34.852482" lat="31.714725"><ele>150.9</ele><time>2018-04-04T13:03:49.392Z</time></trkpt><trkpt lon="34.852523" lat="31.714733"><ele>150.9</ele><time>2018-04-04T13:03:50.392Z</time></trkpt><trkpt lon="34.852557" lat="31.714737"><ele>150.9</ele><time>2018-04-04T13:03:51.392Z</time></trkpt><trkpt lon="34.852578" lat="31.714728"><ele>150.9</ele><time>2018-04-04T13:03:52.392Z</time></trkpt><trkpt lon="34.852582" lat="31.714705"><ele>150.9</ele><time>2018-04-04T13:03:53.392Z</time></trkpt><trkpt lon="34.852573" lat="31.714682"><ele>150.9</ele><time>2018-04-04T13:03:54.392Z</time></trkpt><trkpt lon="34.852557" lat="31.714655"><ele>150.9</ele><time>2018-04-04T13:03:55.392Z</time></trkpt><trkpt lon="34.852535" lat="31.714633"><ele>150.9</ele><time>2018-04-04T13:03:56.392Z</time></trkpt><trkpt lon="34.852512" lat="31.71462"><ele>150.9</ele><time>2018-04-04T13:03:57.392Z</time></trkpt><trkpt lon="34.852482" lat="31.71461"><ele>150.9</ele><time>2018-04-04T13:03:58.392Z</time></trkpt><trkpt lon="34.85245" lat="31.714595"><ele>150.9</ele><time>2018-04-04T13:03:59.392Z</time></trkpt><trkpt lon="34.85242" lat="31.714578"><ele>150.9</ele><time>2018-04-04T13:04:00.392Z</time></trkpt><trkpt lon="34.852393" lat="31.714557"><ele>150.9</ele><time>2018-04-04T13:04:01.392Z</time></trkpt><trkpt lon="34.852362" lat="31.71454"><ele>150.9</ele><time>2018-04-04T13:04:02.392Z</time></trkpt><trkpt lon="34.852325" lat="31.714527"><ele>150.9</ele><time>2018-04-04T13:04:03.392Z</time></trkpt><trkpt lon="34.852288" lat="31.714523"><ele>150.9</ele><time>2018-04-04T13:04:04.392Z</time></trkpt><trkpt lon="34.852265" lat="31.714538"><ele>150.9</ele><time>2018-04-04T13:04:05.392Z</time></trkpt><trkpt lon="34.852242" lat="31.714548"><ele>151.9</ele><time>2018-04-04T13:04:06.392Z</time></trkpt><trkpt lon="34.852217" lat="31.714555"><ele>151.9</ele><time>2018-04-04T13:04:07.392Z</time></trkpt><trkpt lon="34.852188" lat="31.71456"><ele>151.9</ele><time>2018-04-04T13:04:08.392Z</time></trkpt><trkpt lon="34.85216" lat="31.714558"><ele>151.9</ele><time>2018-04-04T13:04:09.392Z</time></trkpt><trkpt lon="34.852137" lat="31.714543"><ele>151.9</ele><time>2018-04-04T13:04:10.392Z</time></trkpt><trkpt lon="34.85212" lat="31.714528"><ele>151.9</ele><time>2018-04-04T13:04:11.392Z</time></trkpt><trkpt lon="34.852115" lat="31.714512"><ele>151.9</ele><time>2018-04-04T13:04:12.392Z</time></trkpt><trkpt lon="34.852113" lat="31.71449"><ele>151.9</ele><time>2018-04-04T13:04:13.392Z</time></trkpt><trkpt lon="34.85212" lat="31.714468"><ele>150.9</ele><time>2018-04-04T13:04:14.392Z</time></trkpt><trkpt lon="34.85214" lat="31.714448"><ele>150.9</ele><time>2018-04-04T13:04:15.392Z</time></trkpt><trkpt lon="34.852167" lat="31.714435"><ele>150.9</ele><time>2018-04-04T13:04:16.392Z</time></trkpt><trkpt lon="34.852193" lat="31.714423"><ele>150.9</ele><time>2018-04-04T13:04:17.392Z</time></trkpt><trkpt lon="34.852222" lat="31.714407"><ele>149.8</ele><time>2018-04-04T13:04:18.392Z</time></trkpt><trkpt lon="34.852247" lat="31.714383"><ele>149.8</ele><time>2018-04-04T13:04:19.392Z</time></trkpt><trkpt lon="34.852265" lat="31.714358"><ele>149.8</ele><time>2018-04-04T13:04:20.392Z</time></trkpt><trkpt lon="34.852267" lat="31.714337"><ele>149.8</ele><time>2018-04-04T13:04:21.392Z</time></trkpt><trkpt lon="34.852252" lat="31.714315"><ele>148.9</ele><time>2018-04-04T13:04:22.392Z</time></trkpt><trkpt lon="34.85222" lat="31.714302"><ele>148.9</ele><time>2018-04-04T13:04:23.392Z</time></trkpt><trkpt lon="34.852183" lat="31.714297"><ele>148.9</ele><time>2018-04-04T13:04:24.392Z</time></trkpt><trkpt lon="34.852147" lat="31.714297"><ele>148.9</ele><time>2018-04-04T13:04:25.392Z</time></trkpt><trkpt lon="34.85211" lat="31.714297"><ele>148.9</ele><time>2018-04-04T13:04:26.392Z</time></trkpt><trkpt lon="34.852077" lat="31.714288"><ele>148.9</ele><time>2018-04-04T13:04:27.392Z</time></trkpt><trkpt lon="34.852045" lat="31.714283"><ele>148.9</ele><time>2018-04-04T13:04:28.392Z</time></trkpt><trkpt lon="34.852015" lat="31.71428"><ele>148.9</ele><time>2018-04-04T13:04:29.392Z</time></trkpt><trkpt lon="34.851985" lat="31.714283"><ele>148.9</ele><time>2018-04-04T13:04:30.392Z</time></trkpt><trkpt lon="34.851963" lat="31.71428"><ele>148.9</ele><time>2018-04-04T13:04:31.392Z</time></trkpt><trkpt lon="34.851933" lat="31.714285"><ele>148.9</ele><time>2018-04-04T13:04:32.392Z</time></trkpt><trkpt lon="34.851905" lat="31.714292"><ele>148.9</ele><time>2018-04-04T13:04:33.392Z</time></trkpt><trkpt lon="34.851877" lat="31.714293"><ele>148.9</ele><time>2018-04-04T13:04:34.392Z</time></trkpt><trkpt lon="34.851853" lat="31.714285"><ele>148.9</ele><time>2018-04-04T13:04:35.392Z</time></trkpt><trkpt lon="34.851833" lat="31.71427"><ele>148.9</ele><time>2018-04-04T13:04:36.392Z</time></trkpt><trkpt lon="34.851808" lat="31.714252"><ele>148.9</ele><time>2018-04-04T13:04:37.392Z</time></trkpt><trkpt lon="34.851783" lat="31.714238"><ele>148.9</ele><time>2018-04-04T13:04:38.392Z</time></trkpt><trkpt lon="34.851755" lat="31.714227"><ele>148.9</ele><time>2018-04-04T13:04:39.392Z</time></trkpt><trkpt lon="34.851725" lat="31.714213"><ele>147.8</ele><time>2018-04-04T13:04:40.392Z</time></trkpt><trkpt lon="34.851697" lat="31.714195"><ele>147.8</ele><time>2018-04-04T13:04:41.392Z</time></trkpt><trkpt lon="34.851672" lat="31.714175"><ele>147.8</ele><time>2018-04-04T13:04:42.392Z</time></trkpt><trkpt lon="34.851652" lat="31.714157"><ele>147.8</ele><time>2018-04-04T13:04:43.392Z</time></trkpt><trkpt lon="34.851638" lat="31.714142"><ele>146.9</ele><time>2018-04-04T13:04:44.392Z</time></trkpt><trkpt lon="34.851643" lat="31.714125"><ele>146.9</ele><time>2018-04-04T13:04:45.392Z</time></trkpt><trkpt lon="34.851665" lat="31.714107"><ele>146.9</ele><time>2018-04-04T13:04:46.392Z</time></trkpt><trkpt lon="34.851697" lat="31.714092"><ele>146.9</ele><time>2018-04-04T13:04:47.392Z</time></trkpt><trkpt lon="34.851733" lat="31.71408"><ele>146.9</ele><time>2018-04-04T13:04:48.392Z</time></trkpt><trkpt lon="34.851768" lat="31.714075"><ele>146.9</ele><time>2018-04-04T13:04:49.392Z</time></trkpt><trkpt lon="34.851803" lat="31.714072"><ele>146.9</ele><time>2018-04-04T13:04:50.392Z</time></trkpt><trkpt lon="34.851837" lat="31.714065"><ele>146.9</ele><time>2018-04-04T13:04:51.392Z</time></trkpt><trkpt lon="34.85187" lat="31.71406"><ele>146.9</ele><time>2018-04-04T13:04:52.392Z</time></trkpt><trkpt lon="34.851902" lat="31.714058"><ele>146.9</ele><time>2018-04-04T13:04:53.392Z</time></trkpt><trkpt lon="34.851935" lat="31.714055"><ele>146.9</ele><time>2018-04-04T13:04:54.392Z</time></trkpt><trkpt lon="34.851967" lat="31.71405"><ele>146.9</ele><time>2018-04-04T13:04:55.392Z</time></trkpt><trkpt lon="34.851997" lat="31.71404"><ele>146.9</ele><time>2018-04-04T13:04:56.392Z</time></trkpt><trkpt lon="34.852022" lat="31.714025"><ele>146.9</ele><time>2018-04-04T13:04:57.392Z</time></trkpt><trkpt lon="34.85204" lat="31.714008"><ele>145.8</ele><time>2018-04-04T13:04:58.392Z</time></trkpt><trkpt lon="34.85205" lat="31.713987"><ele>145.8</ele><time>2018-04-04T13:04:59.392Z</time></trkpt><trkpt lon="34.852047" lat="31.713958"><ele>145.8</ele><time>2018-04-04T13:05:00.392Z</time></trkpt><trkpt lon="34.852037" lat="31.71392"><ele>145.8</ele><time>2018-04-04T13:05:01.392Z</time></trkpt><trkpt lon="34.852028" lat="31.71388"><ele>144.9</ele><time>2018-04-04T13:05:02.392Z</time></trkpt><trkpt lon="34.85202" lat="31.713837"><ele>144.9</ele><time>2018-04-04T13:05:03.392Z</time></trkpt><trkpt lon="34.852013" lat="31.71379"><ele>143.9</ele><time>2018-04-04T13:05:04.392Z</time></trkpt><trkpt lon="34.85201" lat="31.713742"><ele>143.9</ele><time>2018-04-04T13:05:05.392Z</time></trkpt><trkpt lon="34.852008" lat="31.713693"><ele>142.8</ele><time>2018-04-04T13:05:06.392Z</time></trkpt><trkpt lon="34.852013" lat="31.713648"><ele>142.8</ele><time>2018-04-04T13:05:07.392Z</time></trkpt><trkpt lon="34.85202" lat="31.713597"><ele>141.9</ele><time>2018-04-04T13:05:08.392Z</time></trkpt><trkpt lon="34.852025" lat="31.713547"><ele>141.9</ele><time>2018-04-04T13:05:09.392Z</time></trkpt><trkpt lon="34.852025" lat="31.713498"><ele>141.9</ele><time>2018-04-04T13:05:10.392Z</time></trkpt><trkpt lon="34.852023" lat="31.71345"><ele>141.9</ele><time>2018-04-04T13:05:11.392Z</time></trkpt><trkpt lon="34.852015" lat="31.713405"><ele>140.8</ele><time>2018-04-04T13:05:12.392Z</time></trkpt><trkpt lon="34.851993" lat="31.713368"><ele>140.8</ele><time>2018-04-04T13:05:13.392Z</time></trkpt><trkpt lon="34.85196" lat="31.713335"><ele>140.8</ele><time>2018-04-04T13:05:14.392Z</time></trkpt><trkpt lon="34.851925" lat="31.713303"><ele>140.8</ele><time>2018-04-04T13:05:15.392Z</time></trkpt><trkpt lon="34.851887" lat="31.713275"><ele>139.9</ele><time>2018-04-04T13:05:16.392Z</time></trkpt><trkpt lon="34.85185" lat="31.713245"><ele>139.9</ele><time>2018-04-04T13:05:17.392Z</time></trkpt><trkpt lon="34.85182" lat="31.713208"><ele>139.9</ele><time>2018-04-04T13:05:18.392Z</time></trkpt><trkpt lon="34.851787" lat="31.713175"><ele>139.9</ele><time>2018-04-04T13:05:19.392Z</time></trkpt><trkpt lon="34.85175" lat="31.713145"><ele>138.8</ele><time>2018-04-04T13:05:20.392Z</time></trkpt><trkpt lon="34.851702" lat="31.713118"><ele>138.8</ele><time>2018-04-04T13:05:21.392Z</time></trkpt><trkpt lon="34.851662" lat="31.713088"><ele>138.8</ele><time>2018-04-04T13:05:22.392Z</time></trkpt><trkpt lon="34.851628" lat="31.713058"><ele>138.8</ele><time>2018-04-04T13:05:23.392Z</time></trkpt><trkpt lon="34.851608" lat="31.71303"><ele>138.8</ele><time>2018-04-04T13:05:24.392Z</time></trkpt><trkpt lon="34.851598" lat="31.713008"><ele>138.8</ele><time>2018-04-04T13:05:25.392Z</time></trkpt><trkpt lon="34.8516" lat="31.712988"><ele>138.8</ele><time>2018-04-04T13:05:26.392Z</time></trkpt><trkpt lon="34.851612" lat="31.71297"><ele>138.8</ele><time>2018-04-04T13:05:27.392Z</time></trkpt><trkpt lon="34.851628" lat="31.712953"><ele>137.9</ele><time>2018-04-04T13:05:28.392Z</time></trkpt><trkpt lon="34.85165" lat="31.712937"><ele>137.9</ele><time>2018-04-04T13:05:29.392Z</time></trkpt><trkpt lon="34.851677" lat="31.712923"><ele>137.9</ele><time>2018-04-04T13:05:30.392Z</time></trkpt><trkpt lon="34.851715" lat="31.712917"><ele>137.9</ele><time>2018-04-04T13:05:31.392Z</time></trkpt><trkpt lon="34.851755" lat="31.712915"><ele>136.9</ele><time>2018-04-04T13:05:32.392Z</time></trkpt><trkpt lon="34.851797" lat="31.71291"><ele>136.9</ele><time>2018-04-04T13:05:33.392Z</time></trkpt><trkpt lon="34.851837" lat="31.712903"><ele>136.9</ele><time>2018-04-04T13:05:34.392Z</time></trkpt><trkpt lon="34.851873" lat="31.712887"><ele>136.9</ele><time>2018-04-04T13:05:35.392Z</time></trkpt><trkpt lon="34.851902" lat="31.712858"><ele>136.9</ele><time>2018-04-04T13:05:36.392Z</time></trkpt><trkpt lon="34.85192" lat="31.712815"><ele>136.9</ele><time>2018-04-04T13:05:37.392Z</time></trkpt><trkpt lon="34.851925" lat="31.712758"><ele>134.9</ele><time>2018-04-04T13:05:38.392Z</time></trkpt><trkpt lon="34.851915" lat="31.712702"><ele>134.9</ele><time>2018-04-04T13:05:39.392Z</time></trkpt><trkpt lon="34.85189" lat="31.712648"><ele>134.9</ele><time>2018-04-04T13:05:40.392Z</time></trkpt><trkpt lon="34.851858" lat="31.712597"><ele>134.9</ele><time>2018-04-04T13:05:41.392Z</time></trkpt><trkpt lon="34.85182" lat="31.712547"><ele>134.9</ele><time>2018-04-04T13:05:42.392Z</time></trkpt><trkpt lon="34.851777" lat="31.712498"><ele>134.9</ele><time>2018-04-04T13:05:43.392Z</time></trkpt><trkpt lon="34.851725" lat="31.712463"><ele>132.9</ele><time>2018-04-04T13:05:44.392Z</time></trkpt><trkpt lon="34.85167" lat="31.712433"><ele>132.9</ele><time>2018-04-04T13:05:45.392Z</time></trkpt><trkpt lon="34.851622" lat="31.712407"><ele>132.9</ele><time>2018-04-04T13:05:46.392Z</time></trkpt><trkpt lon="34.851577" lat="31.712385"><ele>132.9</ele><time>2018-04-04T13:05:47.392Z</time></trkpt><trkpt lon="34.851532" lat="31.712363"><ele>132.9</ele><time>2018-04-04T13:05:48.392Z</time></trkpt><trkpt lon="34.851485" lat="31.712342"><ele>132.9</ele><time>2018-04-04T13:05:49.392Z</time></trkpt><trkpt lon="34.851442" lat="31.712323"><ele>132.9</ele><time>2018-04-04T13:05:50.392Z</time></trkpt><trkpt lon="34.8514" lat="31.712307"><ele>132.9</ele><time>2018-04-04T13:05:51.392Z</time></trkpt><trkpt lon="34.85136" lat="31.712288"><ele>132.9</ele><time>2018-04-04T13:05:52.392Z</time></trkpt><trkpt lon="34.851333" lat="31.712277"><ele>132.9</ele><time>2018-04-04T13:05:53.392Z</time></trkpt><trkpt lon="34.851315" lat="31.712265"><ele>131.8</ele><time>2018-04-04T13:05:54.392Z</time></trkpt><trkpt lon="34.851303" lat="31.712253"><ele>131.8</ele><time>2018-04-04T13:05:55.392Z</time></trkpt><trkpt lon="34.851292" lat="31.71224"><ele>131.8</ele><time>2018-04-04T13:05:56.392Z</time></trkpt><trkpt lon="34.851277" lat="31.712218"><ele>131.8</ele><time>2018-04-04T13:05:57.392Z</time></trkpt><trkpt lon="34.85126" lat="31.712197"><ele>129.8</ele><time>2018-04-04T13:05:58.392Z</time></trkpt><trkpt lon="34.851247" lat="31.712173"><ele>129.8</ele><time>2018-04-04T13:05:59.392Z</time></trkpt><trkpt lon="34.851242" lat="31.712148"><ele>128.9</ele><time>2018-04-04T13:06:00.392Z</time></trkpt><trkpt lon="34.851238" lat="31.71212"><ele>128.9</ele><time>2018-04-04T13:06:01.392Z</time></trkpt><trkpt lon="34.851238" lat="31.712087"><ele>127.9</ele><time>2018-04-04T13:06:02.392Z</time></trkpt><trkpt lon="34.851238" lat="31.712048"><ele>127.9</ele><time>2018-04-04T13:06:03.392Z</time></trkpt><trkpt lon="34.851235" lat="31.712008"><ele>127.9</ele><time>2018-04-04T13:06:04.392Z</time></trkpt><trkpt lon="34.85123" lat="31.711968"><ele>127.9</ele><time>2018-04-04T13:06:05.392Z</time></trkpt><trkpt lon="34.851223" lat="31.71193"><ele>126.8</ele><time>2018-04-04T13:06:06.392Z</time></trkpt><trkpt lon="34.851208" lat="31.711898"><ele>126.8</ele><time>2018-04-04T13:06:07.392Z</time></trkpt><trkpt lon="34.851183" lat="31.711875"><ele>126.8</ele><time>2018-04-04T13:06:08.392Z</time></trkpt><trkpt lon="34.851158" lat="31.711862"><ele>126.8</ele><time>2018-04-04T13:06:09.392Z</time></trkpt><trkpt lon="34.851133" lat="31.711855"><ele>126.8</ele><time>2018-04-04T13:06:10.392Z</time></trkpt><trkpt lon="34.851108" lat="31.711855"><ele>126.8</ele><time>2018-04-04T13:06:11.392Z</time></trkpt><trkpt lon="34.851083" lat="31.711865"><ele>126.8</ele><time>2018-04-04T13:06:12.392Z</time></trkpt><trkpt lon="34.851065" lat="31.711878"><ele>126.8</ele><time>2018-04-04T13:06:13.392Z</time></trkpt><trkpt lon="34.85105" lat="31.711897"><ele>127.9</ele><time>2018-04-04T13:06:14.392Z</time></trkpt><trkpt lon="34.85104" lat="31.711918"><ele>127.9</ele><time>2018-04-04T13:06:15.392Z</time></trkpt><trkpt lon="34.851032" lat="31.71194"><ele>127.9</ele><time>2018-04-04T13:06:16.392Z</time></trkpt><trkpt lon="34.851028" lat="31.71196"><ele>127.9</ele><time>2018-04-04T13:06:17.392Z</time></trkpt><trkpt lon="34.851023" lat="31.711982"><ele>127.9</ele><time>2018-04-04T13:06:18.392Z</time></trkpt><trkpt lon="34.851018" lat="31.712003"><ele>127.9</ele><time>2018-04-04T13:06:19.392Z</time></trkpt><trkpt lon="34.851017" lat="31.712023"><ele>127.9</ele><time>2018-04-04T13:06:20.392Z</time></trkpt><trkpt lon="34.851012" lat="31.712045"><ele>127.9</ele><time>2018-04-04T13:06:21.392Z</time></trkpt><trkpt lon="34.851007" lat="31.712065"><ele>128.9</ele><time>2018-04-04T13:06:22.392Z</time></trkpt><trkpt lon="34.851002" lat="31.712085"><ele>128.9</ele><time>2018-04-04T13:06:23.392Z</time></trkpt><trkpt lon="34.851" lat="31.712107"><ele>128.9</ele><time>2018-04-04T13:06:24.392Z</time></trkpt><trkpt lon="34.850997" lat="31.712127"><ele>128.9</ele><time>2018-04-04T13:06:25.392Z</time></trkpt><trkpt lon="34.850997" lat="31.712148"><ele>128.9</ele><time>2018-04-04T13:06:26.392Z</time></trkpt><trkpt lon="34.850997" lat="31.71217"><ele>128.9</ele><time>2018-04-04T13:06:27.392Z</time></trkpt><trkpt lon="34.850995" lat="31.71219"><ele>129.8</ele><time>2018-04-04T13:06:28.392Z</time></trkpt><trkpt lon="34.850993" lat="31.712212"><ele>129.8</ele><time>2018-04-04T13:06:29.392Z</time></trkpt><trkpt lon="34.850992" lat="31.712233"><ele>129.8</ele><time>2018-04-04T13:06:30.392Z</time></trkpt><trkpt lon="34.850988" lat="31.712257"><ele>129.8</ele><time>2018-04-04T13:06:31.392Z</time></trkpt><trkpt lon="34.850987" lat="31.712278"><ele>129.8</ele><time>2018-04-04T13:06:32.392Z</time></trkpt><trkpt lon="34.850985" lat="31.7123"><ele>129.8</ele><time>2018-04-04T13:06:33.392Z</time></trkpt><trkpt lon="34.85098" lat="31.71232"><ele>130.9</ele><time>2018-04-04T13:06:34.392Z</time></trkpt><trkpt lon="34.850975" lat="31.71234"><ele>130.9</ele><time>2018-04-04T13:06:35.392Z</time></trkpt><trkpt lon="34.85097" lat="31.712362"><ele>130.9</ele><time>2018-04-04T13:06:36.392Z</time></trkpt><trkpt lon="34.850965" lat="31.712383"><ele>130.9</ele><time>2018-04-04T13:06:37.392Z</time></trkpt><trkpt lon="34.85096" lat="31.712403"><ele>130.9</ele><time>2018-04-04T13:06:38.392Z</time></trkpt><trkpt lon="34.850958" lat="31.712425"><ele>130.9</ele><time>2018-04-04T13:06:39.392Z</time></trkpt><trkpt lon="34.85095" lat="31.712445"><ele>130.9</ele><time>2018-04-04T13:06:40.392Z</time></trkpt><trkpt lon="34.850942" lat="31.712465"><ele>130.9</ele><time>2018-04-04T13:06:41.392Z</time></trkpt><trkpt lon="34.850935" lat="31.712487"><ele>130.9</ele><time>2018-04-04T13:06:42.392Z</time></trkpt><trkpt lon="34.85093" lat="31.712507"><ele>130.9</ele><time>2018-04-04T13:06:43.392Z</time></trkpt><trkpt lon="34.850927" lat="31.712527"><ele>130.9</ele><time>2018-04-04T13:06:44.392Z</time></trkpt><trkpt lon="34.85092" lat="31.712547"><ele>130.9</ele><time>2018-04-04T13:06:45.392Z</time></trkpt><trkpt lon="34.850915" lat="31.712567"><ele>130.9</ele><time>2018-04-04T13:06:46.392Z</time></trkpt><trkpt lon="34.850908" lat="31.712587"><ele>130.9</ele><time>2018-04-04T13:06:47.392Z</time></trkpt><trkpt lon="34.8509" lat="31.712605"><ele>130.9</ele><time>2018-04-04T13:06:48.392Z</time></trkpt><trkpt lon="34.850892" lat="31.712625"><ele>130.9</ele><time>2018-04-04T13:06:49.392Z</time></trkpt><trkpt lon="34.850883" lat="31.712645"><ele>130.9</ele><time>2018-04-04T13:06:50.392Z</time></trkpt><trkpt lon="34.850878" lat="31.712665"><ele>130.9</ele><time>2018-04-04T13:06:51.392Z</time></trkpt><trkpt lon="34.850875" lat="31.712685"><ele>130.9</ele><time>2018-04-04T13:06:52.392Z</time></trkpt><trkpt lon="34.850878" lat="31.712705"><ele>130.9</ele><time>2018-04-04T13:06:53.392Z</time></trkpt><trkpt lon="34.850885" lat="31.712723"><ele>130.9</ele><time>2018-04-04T13:06:54.392Z</time></trkpt><trkpt lon="34.850892" lat="31.71274"><ele>130.9</ele><time>2018-04-04T13:06:55.392Z</time></trkpt><trkpt lon="34.850903" lat="31.712757"><ele>132.9</ele><time>2018-04-04T13:06:56.392Z</time></trkpt><trkpt lon="34.850915" lat="31.712772"><ele>132.9</ele><time>2018-04-04T13:06:57.392Z</time></trkpt><trkpt lon="34.850927" lat="31.712787"><ele>132.9</ele><time>2018-04-04T13:06:58.392Z</time></trkpt><trkpt lon="34.850937" lat="31.712802"><ele>132.9</ele><time>2018-04-04T13:06:59.392Z</time></trkpt><trkpt lon="34.850947" lat="31.712818"><ele>132.9</ele><time>2018-04-04T13:07:00.392Z</time></trkpt><trkpt lon="34.850957" lat="31.712837"><ele>132.9</ele><time>2018-04-04T13:07:01.392Z</time></trkpt><trkpt lon="34.850965" lat="31.712855"><ele>132.9</ele><time>2018-04-04T13:07:02.392Z</time></trkpt><trkpt lon="34.850972" lat="31.712872"><ele>132.9</ele><time>2018-04-04T13:07:03.392Z</time></trkpt><trkpt lon="34.850977" lat="31.712888"><ele>132.9</ele><time>2018-04-04T13:07:04.392Z</time></trkpt><trkpt lon="34.850983" lat="31.712905"><ele>132.9</ele><time>2018-04-04T13:07:05.392Z</time></trkpt><trkpt lon="34.850993" lat="31.712922"><ele>132.9</ele><time>2018-04-04T13:07:06.392Z</time></trkpt><trkpt lon="34.851002" lat="31.712938"><ele>132.9</ele><time>2018-04-04T13:07:07.392Z</time></trkpt><trkpt lon="34.851012" lat="31.712957"><ele>132.9</ele><time>2018-04-04T13:07:08.392Z</time></trkpt><trkpt lon="34.851017" lat="31.712973"><ele>132.9</ele><time>2018-04-04T13:07:09.392Z</time></trkpt><trkpt lon="34.851022" lat="31.712988"><ele>133.8</ele><time>2018-04-04T13:07:10.392Z</time></trkpt><trkpt lon="34.851027" lat="31.713003"><ele>133.8</ele><time>2018-04-04T13:07:11.392Z</time></trkpt><trkpt lon="34.851032" lat="31.71302"><ele>133.8</ele><time>2018-04-04T13:07:12.392Z</time></trkpt><trkpt lon="34.851035" lat="31.713033"><ele>133.8</ele><time>2018-04-04T13:07:13.392Z</time></trkpt><trkpt lon="34.85104" lat="31.713047"><ele>133.8</ele><time>2018-04-04T13:07:14.392Z</time></trkpt><trkpt lon="34.851043" lat="31.713058"><ele>133.8</ele><time>2018-04-04T13:07:15.392Z</time></trkpt><trkpt lon="34.851043" lat="31.71307"><ele>133.8</ele><time>2018-04-04T13:07:16.392Z</time></trkpt><trkpt lon="34.851038" lat="31.713078"><ele>133.8</ele><time>2018-04-04T13:07:17.392Z</time></trkpt><trkpt lon="34.851033" lat="31.713083"><ele>133.8</ele><time>2018-04-04T13:07:18.392Z</time></trkpt><trkpt lon="34.851033" lat="31.713088"><ele>133.8</ele><time>2018-04-04T13:07:19.392Z</time></trkpt><trkpt lon="34.851033" lat="31.713087"><ele>134.9</ele><time>2018-04-04T13:07:20.392Z</time></trkpt><trkpt lon="34.851032" lat="31.713085"><ele>134.9</ele><time>2018-04-04T13:07:21.392Z</time></trkpt><trkpt lon="34.851028" lat="31.713085"><ele>134.9</ele><time>2018-04-04T13:07:22.392Z</time></trkpt><trkpt lon="34.850973" lat="31.713103"><ele>134.9</ele><time>2018-04-04T13:31:54.392Z</time></trkpt><trkpt lon="34.850955" lat="31.71311"><ele>134.9</ele><time>2018-04-04T13:31:55.392Z</time></trkpt><trkpt lon="34.85094" lat="31.71312"><ele>134.9</ele><time>2018-04-04T13:31:56.392Z</time></trkpt><trkpt lon="34.850925" lat="31.71313"><ele>134.9</ele><time>2018-04-04T13:31:57.392Z</time></trkpt><trkpt lon="34.850913" lat="31.71314"><ele>134.9</ele><time>2018-04-04T13:31:58.392Z</time></trkpt><trkpt lon="34.850897" lat="31.713148"><ele>134.9</ele><time>2018-04-04T13:31:59.392Z</time></trkpt><trkpt lon="34.85088" lat="31.713157"><ele>135.9</ele><time>2018-04-04T13:32:00.392Z</time></trkpt><trkpt lon="34.850863" lat="31.713167"><ele>135.9</ele><time>2018-04-04T13:32:01.392Z</time></trkpt><trkpt lon="34.850848" lat="31.713178"><ele>135.9</ele><time>2018-04-04T13:32:02.392Z</time></trkpt><trkpt lon="34.850835" lat="31.713193"><ele>135.9</ele><time>2018-04-04T13:32:03.392Z</time></trkpt><trkpt lon="34.85082" lat="31.713203"><ele>135.9</ele><time>2018-04-04T13:32:04.392Z</time></trkpt><trkpt lon="34.850805" lat="31.71321"><ele>135.9</ele><time>2018-04-04T13:32:05.392Z</time></trkpt><trkpt lon="34.850788" lat="31.713217"><ele>136.9</ele><time>2018-04-04T13:32:06.392Z</time></trkpt><trkpt lon="34.85077" lat="31.713225"><ele>136.9</ele><time>2018-04-04T13:32:07.392Z</time></trkpt><trkpt lon="34.850752" lat="31.71323"><ele>137.9</ele><time>2018-04-04T13:32:08.392Z</time></trkpt><trkpt lon="34.850735" lat="31.713238"><ele>137.9</ele><time>2018-04-04T13:32:09.392Z</time></trkpt><trkpt lon="34.85072" lat="31.713247"><ele>137.9</ele><time>2018-04-04T13:32:10.392Z</time></trkpt><trkpt lon="34.850707" lat="31.713258"><ele>137.9</ele><time>2018-04-04T13:32:11.392Z</time></trkpt><trkpt lon="34.850697" lat="31.713273"><ele>137.9</ele><time>2018-04-04T13:32:12.392Z</time></trkpt><trkpt lon="34.850688" lat="31.71329"><ele>137.9</ele><time>2018-04-04T13:32:13.392Z</time></trkpt><trkpt lon="34.850683" lat="31.713307"><ele>137.9</ele><time>2018-04-04T13:32:14.392Z</time></trkpt><trkpt lon="34.85068" lat="31.713325"><ele>137.9</ele><time>2018-04-04T13:32:15.392Z</time></trkpt><trkpt lon="34.850677" lat="31.71334"><ele>137.9</ele><time>2018-04-04T13:32:16.392Z</time></trkpt><trkpt lon="34.850677" lat="31.713357"><ele>137.9</ele><time>2018-04-04T13:32:17.392Z</time></trkpt><trkpt lon="34.850678" lat="31.71337"><ele>138.8</ele><time>2018-04-04T13:32:18.392Z</time></trkpt><trkpt lon="34.85068" lat="31.71338"><ele>138.8</ele><time>2018-04-04T13:32:19.392Z</time></trkpt><trkpt lon="34.850688" lat="31.713392"><ele>138.8</ele><time>2018-04-04T13:32:20.392Z</time></trkpt><trkpt lon="34.850695" lat="31.713403"><ele>138.8</ele><time>2018-04-04T13:32:21.392Z</time></trkpt><trkpt lon="34.8507" lat="31.713415"><ele>138.8</ele><time>2018-04-04T13:32:22.392Z</time></trkpt><trkpt lon="34.850708" lat="31.713428"><ele>138.8</ele><time>2018-04-04T13:32:23.392Z</time></trkpt><trkpt lon="34.850718" lat="31.713443"><ele>138.8</ele><time>2018-04-04T13:32:24.392Z</time></trkpt><trkpt lon="34.850728" lat="31.713458"><ele>138.8</ele><time>2018-04-04T13:32:25.392Z</time></trkpt><trkpt lon="34.850738" lat="31.71347"><ele>138.8</ele><time>2018-04-04T13:32:26.392Z</time></trkpt><trkpt lon="34.850748" lat="31.713482"><ele>138.8</ele><time>2018-04-04T13:32:27.392Z</time></trkpt><trkpt lon="34.850755" lat="31.713497"><ele>138.8</ele><time>2018-04-04T13:32:28.392Z</time></trkpt><trkpt lon="34.850763" lat="31.713513"><ele>138.8</ele><time>2018-04-04T13:32:29.392Z</time></trkpt><trkpt lon="34.850775" lat="31.713528"><ele>139.9</ele><time>2018-04-04T13:32:30.392Z</time></trkpt><trkpt lon="34.850787" lat="31.713542"><ele>139.9</ele><time>2018-04-04T13:32:31.392Z</time></trkpt><trkpt lon="34.850803" lat="31.713553"><ele>139.9</ele><time>2018-04-04T13:32:32.392Z</time></trkpt><trkpt lon="34.850817" lat="31.713567"><ele>139.9</ele><time>2018-04-04T13:32:33.392Z</time></trkpt><trkpt lon="34.850833" lat="31.713577"><ele>139.9</ele><time>2018-04-04T13:32:34.392Z</time></trkpt><trkpt lon="34.85085" lat="31.713587"><ele>139.9</ele><time>2018-04-04T13:32:35.392Z</time></trkpt><trkpt lon="34.850868" lat="31.7136"><ele>140.8</ele><time>2018-04-04T13:32:36.392Z</time></trkpt><trkpt lon="34.850883" lat="31.713613"><ele>140.8</ele><time>2018-04-04T13:32:37.392Z</time></trkpt><trkpt lon="34.850898" lat="31.713627"><ele>140.8</ele><time>2018-04-04T13:32:38.392Z</time></trkpt><trkpt lon="34.850913" lat="31.713642"><ele>140.8</ele><time>2018-04-04T13:32:39.392Z</time></trkpt><trkpt lon="34.850927" lat="31.713662"><ele>140.8</ele><time>2018-04-04T13:32:40.392Z</time></trkpt><trkpt lon="34.850942" lat="31.713682"><ele>140.8</ele><time>2018-04-04T13:32:41.392Z</time></trkpt><trkpt lon="34.850953" lat="31.713703"><ele>141.9</ele><time>2018-04-04T13:32:42.392Z</time></trkpt><trkpt lon="34.850955" lat="31.713723"><ele>141.9</ele><time>2018-04-04T13:32:43.392Z</time></trkpt><trkpt lon="34.850953" lat="31.713745"><ele>141.9</ele><time>2018-04-04T13:32:44.392Z</time></trkpt><trkpt lon="34.850952" lat="31.713762"><ele>141.9</ele><time>2018-04-04T13:32:45.392Z</time></trkpt><trkpt lon="34.850952" lat="31.713778"><ele>141.9</ele><time>2018-04-04T13:32:46.392Z</time></trkpt><trkpt lon="34.85095" lat="31.713795"><ele>141.9</ele><time>2018-04-04T13:32:47.392Z</time></trkpt><trkpt lon="34.850952" lat="31.713813"><ele>141.9</ele><time>2018-04-04T13:32:48.392Z</time></trkpt><trkpt lon="34.850953" lat="31.713833"><ele>141.9</ele><time>2018-04-04T13:32:49.392Z</time></trkpt><trkpt lon="34.850957" lat="31.713853"><ele>142.8</ele><time>2018-04-04T13:32:50.392Z</time></trkpt><trkpt lon="34.850958" lat="31.71387"><ele>142.8</ele><time>2018-04-04T13:32:51.392Z</time></trkpt><trkpt lon="34.85096" lat="31.713885"><ele>142.8</ele><time>2018-04-04T13:32:52.392Z</time></trkpt><trkpt lon="34.850963" lat="31.713902"><ele>142.8</ele><time>2018-04-04T13:32:53.392Z</time></trkpt><trkpt lon="34.850963" lat="31.713917"><ele>143.9</ele><time>2018-04-04T13:32:54.392Z</time></trkpt><trkpt lon="34.850958" lat="31.713933"><ele>143.9</ele><time>2018-04-04T13:32:55.392Z</time></trkpt><trkpt lon="34.850953" lat="31.713952"><ele>143.9</ele><time>2018-04-04T13:32:56.392Z</time></trkpt><trkpt lon="34.850952" lat="31.71397"><ele>143.9</ele><time>2018-04-04T13:32:57.392Z</time></trkpt><trkpt lon="34.850957" lat="31.713983"><ele>143.9</ele><time>2018-04-04T13:32:58.392Z</time></trkpt><trkpt lon="34.850962" lat="31.714"><ele>143.9</ele><time>2018-04-04T13:32:59.392Z</time></trkpt><trkpt lon="34.850967" lat="31.714017"><ele>143.9</ele><time>2018-04-04T13:33:00.392Z</time></trkpt><trkpt lon="34.850967" lat="31.714035"><ele>143.9</ele><time>2018-04-04T13:33:01.392Z</time></trkpt><trkpt lon="34.850968" lat="31.71405"><ele>143.9</ele><time>2018-04-04T13:33:02.392Z</time></trkpt><trkpt lon="34.850975" lat="31.714067"><ele>143.9</ele><time>2018-04-04T13:33:03.392Z</time></trkpt><trkpt lon="34.850982" lat="31.714082"><ele>143.9</ele><time>2018-04-04T13:33:04.392Z</time></trkpt><trkpt lon="34.85099" lat="31.714095"><ele>143.9</ele><time>2018-04-04T13:33:05.392Z</time></trkpt><trkpt lon="34.850998" lat="31.71411"><ele>144.9</ele><time>2018-04-04T13:33:06.392Z</time></trkpt><trkpt lon="34.851002" lat="31.714125"><ele>144.9</ele><time>2018-04-04T13:33:07.392Z</time></trkpt><trkpt lon="34.851007" lat="31.714138"><ele>144.9</ele><time>2018-04-04T13:33:08.392Z</time></trkpt><trkpt lon="34.85101" lat="31.714152"><ele>144.9</ele><time>2018-04-04T13:33:09.392Z</time></trkpt><trkpt lon="34.85101" lat="31.714165"><ele>145.8</ele><time>2018-04-04T13:33:10.392Z</time></trkpt><trkpt lon="34.851013" lat="31.714178"><ele>145.8</ele><time>2018-04-04T13:33:11.392Z</time></trkpt><trkpt lon="34.851017" lat="31.71419"><ele>145.8</ele><time>2018-04-04T13:33:12.392Z</time></trkpt><trkpt lon="34.851018" lat="31.714202"><ele>145.8</ele><time>2018-04-04T13:33:13.392Z</time></trkpt><trkpt lon="34.851015" lat="31.714208"><ele>145.8</ele><time>2018-04-04T13:33:14.392Z</time></trkpt><trkpt lon="34.85101" lat="31.714217"><ele>145.8</ele><time>2018-04-04T13:33:15.392Z</time></trkpt><trkpt lon="34.850998" lat="31.71423"><ele>145.8</ele><time>2018-04-04T13:33:16.392Z</time></trkpt><trkpt lon="34.850988" lat="31.714243"><ele>145.8</ele><time>2018-04-04T13:33:17.392Z</time></trkpt><trkpt lon="34.850978" lat="31.714257"><ele>146.9</ele><time>2018-04-04T13:33:18.392Z</time></trkpt><trkpt lon="34.85097" lat="31.714272"><ele>146.9</ele><time>2018-04-04T13:33:19.392Z</time></trkpt><trkpt lon="34.850958" lat="31.714283"><ele>146.9</ele><time>2018-04-04T13:33:20.392Z</time></trkpt><trkpt lon="34.850945" lat="31.714292"><ele>146.9</ele><time>2018-04-04T13:33:21.392Z</time></trkpt><trkpt lon="34.850927" lat="31.714298"><ele>146.9</ele><time>2018-04-04T13:33:22.392Z</time></trkpt><trkpt lon="34.850908" lat="31.714303"><ele>146.9</ele><time>2018-04-04T13:33:23.392Z</time></trkpt><trkpt lon="34.850883" lat="31.71431"><ele>146.9</ele><time>2018-04-04T13:33:24.392Z</time></trkpt><trkpt lon="34.850858" lat="31.714313"><ele>146.9</ele><time>2018-04-04T13:33:25.392Z</time></trkpt><trkpt lon="34.850828" lat="31.714322"><ele>146.9</ele><time>2018-04-04T13:33:26.392Z</time></trkpt><trkpt lon="34.850797" lat="31.714332"><ele>146.9</ele><time>2018-04-04T13:33:27.392Z</time></trkpt><trkpt lon="34.850763" lat="31.714345"><ele>146.9</ele><time>2018-04-04T13:33:28.392Z</time></trkpt><trkpt lon="34.850735" lat="31.714357"><ele>146.9</ele><time>2018-04-04T13:33:29.392Z</time></trkpt><trkpt lon="34.850708" lat="31.714368"><ele>146.9</ele><time>2018-04-04T13:33:30.392Z</time></trkpt><trkpt lon="34.850685" lat="31.714377"><ele>146.9</ele><time>2018-04-04T13:33:31.392Z</time></trkpt><trkpt lon="34.85066" lat="31.714387"><ele>145.8</ele><time>2018-04-04T13:33:32.392Z</time></trkpt><trkpt lon="34.850632" lat="31.714393"><ele>145.8</ele><time>2018-04-04T13:33:33.392Z</time></trkpt><trkpt lon="34.8506" lat="31.714402"><ele>145.8</ele><time>2018-04-04T13:33:34.392Z</time></trkpt><trkpt lon="34.850565" lat="31.714413"><ele>145.8</ele><time>2018-04-04T13:33:35.392Z</time></trkpt><trkpt lon="34.850527" lat="31.714423"><ele>145.8</ele><time>2018-04-04T13:33:36.392Z</time></trkpt><trkpt lon="34.85049" lat="31.714437"><ele>145.8</ele><time>2018-04-04T13:33:37.392Z</time></trkpt><trkpt lon="34.850457" lat="31.71445"><ele>144.9</ele><time>2018-04-04T13:33:38.392Z</time></trkpt><trkpt lon="34.850432" lat="31.714463"><ele>144.9</ele><time>2018-04-04T13:33:39.392Z</time></trkpt><trkpt lon="34.850417" lat="31.714478"><ele>144.9</ele><time>2018-04-04T13:33:40.392Z</time></trkpt><trkpt lon="34.8504" lat="31.714497"><ele>144.9</ele><time>2018-04-04T13:33:41.392Z</time></trkpt><trkpt lon="34.850375" lat="31.714512"><ele>144.9</ele><time>2018-04-04T13:33:42.392Z</time></trkpt><trkpt lon="34.85035" lat="31.714527"><ele>144.9</ele><time>2018-04-04T13:33:43.392Z</time></trkpt><trkpt lon="34.85033" lat="31.714542"><ele>144.9</ele><time>2018-04-04T13:33:44.392Z</time></trkpt><trkpt lon="34.850308" lat="31.71456"><ele>144.9</ele><time>2018-04-04T13:33:45.392Z</time></trkpt><trkpt lon="34.850287" lat="31.714583"><ele>144.9</ele><time>2018-04-04T13:33:46.392Z</time></trkpt><trkpt lon="34.85027" lat="31.714613"><ele>144.9</ele><time>2018-04-04T13:33:47.392Z</time></trkpt><trkpt lon="34.85027" lat="31.71464"><ele>144.9</ele><time>2018-04-04T13:33:48.392Z</time></trkpt><trkpt lon="34.850278" lat="31.714665"><ele>144.9</ele><time>2018-04-04T13:33:49.392Z</time></trkpt><trkpt lon="34.850285" lat="31.71469"><ele>144.9</ele><time>2018-04-04T13:33:50.392Z</time></trkpt><trkpt lon="34.850283" lat="31.714712"><ele>144.9</ele><time>2018-04-04T13:33:51.392Z</time></trkpt><trkpt lon="34.850278" lat="31.714735"><ele>144.9</ele><time>2018-04-04T13:33:52.392Z</time></trkpt><trkpt lon="34.85027" lat="31.714763"><ele>144.9</ele><time>2018-04-04T13:33:53.392Z</time></trkpt><trkpt lon="34.850263" lat="31.714788"><ele>144.9</ele><time>2018-04-04T13:33:54.392Z</time></trkpt><trkpt lon="34.850255" lat="31.71481"><ele>144.9</ele><time>2018-04-04T13:33:55.392Z</time></trkpt><trkpt lon="34.850252" lat="31.714833"><ele>145.8</ele><time>2018-04-04T13:33:56.392Z</time></trkpt><trkpt lon="34.850253" lat="31.714858"><ele>145.8</ele><time>2018-04-04T13:33:57.392Z</time></trkpt><trkpt lon="34.850253" lat="31.714885"><ele>145.8</ele><time>2018-04-04T13:33:58.392Z</time></trkpt><trkpt lon="34.850248" lat="31.714908"><ele>145.8</ele><time>2018-04-04T13:33:59.392Z</time></trkpt><trkpt lon="34.850253" lat="31.714932"><ele>145.8</ele><time>2018-04-04T13:34:00.392Z</time></trkpt><trkpt lon="34.850262" lat="31.714953"><ele>145.8</ele><time>2018-04-04T13:34:01.392Z</time></trkpt><trkpt lon="34.850262" lat="31.714973"><ele>146.9</ele><time>2018-04-04T13:34:02.392Z</time></trkpt><trkpt lon="34.850258" lat="31.714993"><ele>146.9</ele><time>2018-04-04T13:34:03.392Z</time></trkpt><trkpt lon="34.850253" lat="31.715012"><ele>146.9</ele><time>2018-04-04T13:34:04.392Z</time></trkpt><trkpt lon="34.850252" lat="31.715033"><ele>146.9</ele><time>2018-04-04T13:34:05.392Z</time></trkpt><trkpt lon="34.850248" lat="31.715055"><ele>146.9</ele><time>2018-04-04T13:34:06.392Z</time></trkpt><trkpt lon="34.850252" lat="31.715078"><ele>146.9</ele><time>2018-04-04T13:34:07.392Z</time></trkpt><trkpt lon="34.850263" lat="31.715097"><ele>147.8</ele><time>2018-04-04T13:34:08.392Z</time></trkpt><trkpt lon="34.85028" lat="31.71511"><ele>147.8</ele><time>2018-04-04T13:34:09.392Z</time></trkpt><trkpt lon="34.850298" lat="31.715123"><ele>147.8</ele><time>2018-04-04T13:34:10.392Z</time></trkpt><trkpt lon="34.850315" lat="31.715135"><ele>147.8</ele><time>2018-04-04T13:34:11.392Z</time></trkpt><trkpt lon="34.850323" lat="31.71515"><ele>147.8</ele><time>2018-04-04T13:34:12.392Z</time></trkpt><trkpt lon="34.850322" lat="31.715168"><ele>147.8</ele><time>2018-04-04T13:34:13.392Z</time></trkpt><trkpt lon="34.850325" lat="31.715187"><ele>147.8</ele><time>2018-04-04T13:34:14.392Z</time></trkpt><trkpt lon="34.850333" lat="31.715205"><ele>147.8</ele><time>2018-04-04T13:34:15.392Z</time></trkpt><trkpt lon="34.85034" lat="31.715223"><ele>148.9</ele><time>2018-04-04T13:34:16.392Z</time></trkpt><trkpt lon="34.85034" lat="31.715243"><ele>148.9</ele><time>2018-04-04T13:34:17.392Z</time></trkpt><trkpt lon="34.850335" lat="31.715258"><ele>148.9</ele><time>2018-04-04T13:34:18.392Z</time></trkpt><trkpt lon="34.850328" lat="31.715273"><ele>148.9</ele><time>2018-04-04T13:34:19.392Z</time></trkpt><trkpt lon="34.850315" lat="31.715292"><ele>148.9</ele><time>2018-04-04T13:34:20.392Z</time></trkpt><trkpt lon="34.850298" lat="31.715313"><ele>148.9</ele><time>2018-04-04T13:34:21.392Z</time></trkpt><trkpt lon="34.850285" lat="31.715338"><ele>148.9</ele><time>2018-04-04T13:34:22.392Z</time></trkpt><trkpt lon="34.850277" lat="31.715363"><ele>148.9</ele><time>2018-04-04T13:34:23.392Z</time></trkpt><trkpt lon="34.85027" lat="31.715387"><ele>148.9</ele><time>2018-04-04T13:34:24.392Z</time></trkpt><trkpt lon="34.850273" lat="31.715413"><ele>148.9</ele><time>2018-04-04T13:34:25.392Z</time></trkpt><trkpt lon="34.850283" lat="31.715433"><ele>148.9</ele><time>2018-04-04T13:34:26.392Z</time></trkpt><trkpt lon="34.850297" lat="31.71545"><ele>148.9</ele><time>2018-04-04T13:34:27.392Z</time></trkpt><trkpt lon="34.85031" lat="31.715467"><ele>148.9</ele><time>2018-04-04T13:34:28.392Z</time></trkpt><trkpt lon="34.85032" lat="31.715485"><ele>148.9</ele><time>2018-04-04T13:34:29.392Z</time></trkpt><trkpt lon="34.850327" lat="31.715508"><ele>148.9</ele><time>2018-04-04T13:34:30.392Z</time></trkpt><trkpt lon="34.85034" lat="31.71553"><ele>148.9</ele><time>2018-04-04T13:34:31.392Z</time></trkpt><trkpt lon="34.850357" lat="31.715552"><ele>148.9</ele><time>2018-04-04T13:34:32.392Z</time></trkpt><trkpt lon="34.850373" lat="31.715572"><ele>148.9</ele><time>2018-04-04T13:34:33.392Z</time></trkpt><trkpt lon="34.850387" lat="31.71559"><ele>149.8</ele><time>2018-04-04T13:34:34.392Z</time></trkpt><trkpt lon="34.850398" lat="31.715608"><ele>149.8</ele><time>2018-04-04T13:34:35.392Z</time></trkpt><trkpt lon="34.850407" lat="31.715625"><ele>149.8</ele><time>2018-04-04T13:34:36.392Z</time></trkpt><trkpt lon="34.85041" lat="31.715643"><ele>149.8</ele><time>2018-04-04T13:34:37.392Z</time></trkpt><trkpt lon="34.850413" lat="31.715667"><ele>149.8</ele><time>2018-04-04T13:34:38.392Z</time></trkpt><trkpt lon="34.850425" lat="31.715688"><ele>149.8</ele><time>2018-04-04T13:34:39.392Z</time></trkpt><trkpt lon="34.85044" lat="31.715708"><ele>150.9</ele><time>2018-04-04T13:34:40.392Z</time></trkpt><trkpt lon="34.850453" lat="31.715725"><ele>150.9</ele><time>2018-04-04T13:34:41.392Z</time></trkpt><trkpt lon="34.850465" lat="31.71574"><ele>150.9</ele><time>2018-04-04T13:34:42.392Z</time></trkpt><trkpt lon="34.850473" lat="31.715757"><ele>150.9</ele><time>2018-04-04T13:34:43.392Z</time></trkpt><trkpt lon="34.85048" lat="31.715772"><ele>150.9</ele><time>2018-04-04T13:34:44.392Z</time></trkpt><trkpt lon="34.850488" lat="31.715785"><ele>150.9</ele><time>2018-04-04T13:34:45.392Z</time></trkpt><trkpt lon="34.8505" lat="31.715795"><ele>150.9</ele><time>2018-04-04T13:34:46.392Z</time></trkpt><trkpt lon="34.850518" lat="31.715803"><ele>150.9</ele><time>2018-04-04T13:34:47.392Z</time></trkpt><trkpt lon="34.850538" lat="31.715807"><ele>150.9</ele><time>2018-04-04T13:34:48.392Z</time></trkpt><trkpt lon="34.850557" lat="31.715805"><ele>150.9</ele><time>2018-04-04T13:34:49.392Z</time></trkpt><trkpt lon="34.850573" lat="31.715802"><ele>150.9</ele><time>2018-04-04T13:34:50.392Z</time></trkpt><trkpt lon="34.850585" lat="31.715798"><ele>150.9</ele><time>2018-04-04T13:34:51.392Z</time></trkpt><trkpt lon="34.850595" lat="31.71579"><ele>150.9</ele><time>2018-04-04T13:34:52.392Z</time></trkpt><trkpt lon="34.8506" lat="31.715777"><ele>150.9</ele><time>2018-04-04T13:34:53.392Z</time></trkpt><trkpt lon="34.850602" lat="31.715763"><ele>152.9</ele><time>2018-04-04T13:34:54.392Z</time></trkpt><trkpt lon="34.850603" lat="31.715748"><ele>152.9</ele><time>2018-04-04T13:34:55.392Z</time></trkpt><trkpt lon="34.850608" lat="31.715732"><ele>152.9</ele><time>2018-04-04T13:34:56.392Z</time></trkpt><trkpt lon="34.85061" lat="31.71571"><ele>152.9</ele><time>2018-04-04T13:34:57.392Z</time></trkpt><trkpt lon="34.850617" lat="31.715688"><ele>152.9</ele><time>2018-04-04T13:34:58.392Z</time></trkpt><trkpt lon="34.850622" lat="31.71567"><ele>152.9</ele><time>2018-04-04T13:34:59.392Z</time></trkpt><trkpt lon="34.850622" lat="31.715652"><ele>152.9</ele><time>2018-04-04T13:35:00.392Z</time></trkpt><trkpt lon="34.850622" lat="31.715637"><ele>152.9</ele><time>2018-04-04T13:35:01.392Z</time></trkpt><trkpt lon="34.850625" lat="31.715618"><ele>152.9</ele><time>2018-04-04T13:35:02.392Z</time></trkpt><trkpt lon="34.85063" lat="31.7156"><ele>152.9</ele><time>2018-04-04T13:35:03.392Z</time></trkpt><trkpt lon="34.850638" lat="31.715585"><ele>152.9</ele><time>2018-04-04T13:35:04.392Z</time></trkpt><trkpt lon="34.85065" lat="31.715568"><ele>152.9</ele><time>2018-04-04T13:35:05.392Z</time></trkpt><trkpt lon="34.850665" lat="31.715557"><ele>152.9</ele><time>2018-04-04T13:35:06.392Z</time></trkpt><trkpt lon="34.850677" lat="31.715545"><ele>152.9</ele><time>2018-04-04T13:35:07.392Z</time></trkpt><trkpt lon="34.850687" lat="31.715533"><ele>152.9</ele><time>2018-04-04T13:35:08.392Z</time></trkpt><trkpt lon="34.850685" lat="31.715518"><ele>152.9</ele><time>2018-04-04T13:35:09.392Z</time></trkpt><trkpt lon="34.850682" lat="31.7155"><ele>152.9</ele><time>2018-04-04T13:35:10.392Z</time></trkpt><trkpt lon="34.850677" lat="31.715483"><ele>152.9</ele><time>2018-04-04T13:35:11.392Z</time></trkpt><trkpt lon="34.850672" lat="31.715467"><ele>152.9</ele><time>2018-04-04T13:35:12.392Z</time></trkpt><trkpt lon="34.850665" lat="31.71545"><ele>152.9</ele><time>2018-04-04T13:35:13.392Z</time></trkpt><trkpt lon="34.850655" lat="31.71543"><ele>152.9</ele><time>2018-04-04T13:35:14.392Z</time></trkpt><trkpt lon="34.850647" lat="31.715403"><ele>152.9</ele><time>2018-04-04T13:35:15.392Z</time></trkpt><trkpt lon="34.850642" lat="31.715372"><ele>152.9</ele><time>2018-04-04T13:35:16.392Z</time></trkpt><trkpt lon="34.850633" lat="31.715338"><ele>152.9</ele><time>2018-04-04T13:35:17.392Z</time></trkpt><trkpt lon="34.850617" lat="31.715307"><ele>151.9</ele><time>2018-04-04T13:35:18.392Z</time></trkpt><trkpt lon="34.850617" lat="31.715307"><ele>151.9</ele><time>2018-04-04T13:35:19.392Z</time></trkpt><trkpt lon="34.8506" lat="31.715243"><ele>151.9</ele><time>2018-04-04T13:35:20.392Z</time></trkpt><trkpt lon="34.850607" lat="31.715217"><ele>151.9</ele><time>2018-04-04T13:35:21.392Z</time></trkpt><trkpt lon="34.85062" lat="31.715197"><ele>151.9</ele><time>2018-04-04T13:35:22.392Z</time></trkpt><trkpt lon="34.850638" lat="31.715187"><ele>151.9</ele><time>2018-04-04T13:35:23.392Z</time></trkpt><trkpt lon="34.850655" lat="31.715192"><ele>151.9</ele><time>2018-04-04T13:35:24.392Z</time></trkpt><trkpt lon="34.850667" lat="31.715205"><ele>151.9</ele><time>2018-04-04T13:35:25.392Z</time></trkpt><trkpt lon="34.850677" lat="31.715218"><ele>152.9</ele><time>2018-04-04T13:35:26.392Z</time></trkpt><trkpt lon="34.850685" lat="31.715232"><ele>152.9</ele><time>2018-04-04T13:35:27.392Z</time></trkpt><trkpt lon="34.850697" lat="31.715245"><ele>152.9</ele><time>2018-04-04T13:35:28.392Z</time></trkpt><trkpt lon="34.850697" lat="31.715245"><ele>152.9</ele><time>2018-04-04T13:35:29.392Z</time></trkpt><trkpt lon="34.850712" lat="31.715253"><ele>152.9</ele><time>2018-04-04T13:35:30.392Z</time></trkpt><trkpt lon="34.850745" lat="31.715248"><ele>152.9</ele><time>2018-04-04T13:35:31.392Z</time></trkpt><trkpt lon="34.850765" lat="31.715247"><ele>152.9</ele><time>2018-04-04T13:35:32.392Z</time></trkpt><trkpt lon="34.850783" lat="31.715242"><ele>152.9</ele><time>2018-04-04T13:35:33.392Z</time></trkpt><trkpt lon="34.8508" lat="31.715237"><ele>153.9</ele><time>2018-04-04T13:35:34.392Z</time></trkpt><trkpt lon="34.85082" lat="31.715233"><ele>153.9</ele><time>2018-04-04T13:35:35.392Z</time></trkpt><trkpt lon="34.850838" lat="31.715232"><ele>153.9</ele><time>2018-04-04T13:35:36.392Z</time></trkpt><trkpt lon="34.850853" lat="31.715227"><ele>153.9</ele><time>2018-04-04T13:35:37.392Z</time></trkpt><trkpt lon="34.850853" lat="31.715227"><ele>153.9</ele><time>2018-04-04T13:35:38.392Z</time></trkpt><trkpt lon="34.850867" lat="31.715205"><ele>153.9</ele><time>2018-04-04T13:35:39.392Z</time></trkpt><trkpt lon="34.850872" lat="31.715192"><ele>153.9</ele><time>2018-04-04T13:35:40.392Z</time></trkpt><trkpt lon="34.850878" lat="31.715182"><ele>153.9</ele><time>2018-04-04T13:35:41.392Z</time></trkpt><trkpt lon="34.850883" lat="31.715168"><ele>153.9</ele><time>2018-04-04T13:35:42.392Z</time></trkpt><trkpt lon="34.850888" lat="31.715158"><ele>153.9</ele><time>2018-04-04T13:35:43.392Z</time></trkpt><trkpt lon="34.850893" lat="31.715143"><ele>153.9</ele><time>2018-04-04T13:35:44.392Z</time></trkpt><trkpt lon="34.850902" lat="31.715127"><ele>153.9</ele><time>2018-04-04T13:35:45.392Z</time></trkpt><trkpt lon="34.850917" lat="31.715112"><ele>153.9</ele><time>2018-04-04T13:35:46.392Z</time></trkpt><trkpt lon="34.850937" lat="31.715102"><ele>153.9</ele><time>2018-04-04T13:35:47.392Z</time></trkpt><trkpt lon="34.850957" lat="31.715093"><ele>153.9</ele><time>2018-04-04T13:35:48.392Z</time></trkpt><trkpt lon="34.850977" lat="31.715087"><ele>153.9</ele><time>2018-04-04T13:35:49.392Z</time></trkpt><trkpt lon="34.850998" lat="31.715085"><ele>154.8</ele><time>2018-04-04T13:35:50.392Z</time></trkpt><trkpt lon="34.851017" lat="31.715093"><ele>154.8</ele><time>2018-04-04T13:35:51.392Z</time></trkpt><trkpt lon="34.851032" lat="31.715105"><ele>154.8</ele><time>2018-04-04T13:35:52.392Z</time></trkpt><trkpt lon="34.851038" lat="31.71512"><ele>154.8</ele><time>2018-04-04T13:35:53.392Z</time></trkpt><trkpt lon="34.851035" lat="31.715135"><ele>154.8</ele><time>2018-04-04T13:35:54.392Z</time></trkpt><trkpt lon="34.851025" lat="31.71515"><ele>154.8</ele><time>2018-04-04T13:35:55.392Z</time></trkpt><trkpt lon="34.851025" lat="31.71515"><ele>154.8</ele><time>2018-04-04T13:35:56.392Z</time></trkpt><trkpt lon="34.850998" lat="31.715178"><ele>154.8</ele><time>2018-04-04T13:35:57.392Z</time></trkpt><trkpt lon="34.850988" lat="31.715197"><ele>154.8</ele><time>2018-04-04T13:35:58.392Z</time></trkpt><trkpt lon="34.85098" lat="31.715215"><ele>154.8</ele><time>2018-04-04T13:35:59.392Z</time></trkpt><trkpt lon="34.850977" lat="31.715232"><ele>155.9</ele><time>2018-04-04T13:36:00.392Z</time></trkpt><trkpt lon="34.85098" lat="31.715245"><ele>155.9</ele><time>2018-04-04T13:36:01.392Z</time></trkpt><trkpt lon="34.850987" lat="31.715258"><ele>155.9</ele><time>2018-04-04T13:36:02.392Z</time></trkpt><trkpt lon="34.850988" lat="31.715272"><ele>155.9</ele><time>2018-04-04T13:36:03.392Z</time></trkpt><trkpt lon="34.850988" lat="31.715283"><ele>156.8</ele><time>2018-04-04T13:36:04.392Z</time></trkpt><trkpt lon="34.850988" lat="31.715297"><ele>156.8</ele><time>2018-04-04T13:36:05.392Z</time></trkpt><trkpt lon="34.850988" lat="31.715308"><ele>156.8</ele><time>2018-04-04T13:36:06.392Z</time></trkpt><trkpt lon="34.850987" lat="31.715318"><ele>156.8</ele><time>2018-04-04T13:36:07.392Z</time></trkpt><trkpt lon="34.850987" lat="31.715327"><ele>156.8</ele><time>2018-04-04T13:36:08.392Z</time></trkpt><trkpt lon="34.850978" lat="31.715333"><ele>156.8</ele><time>2018-04-04T13:36:09.392Z</time></trkpt><trkpt lon="34.850968" lat="31.715343"><ele>156.8</ele><time>2018-04-04T13:36:10.392Z</time></trkpt><trkpt lon="34.850963" lat="31.715363"><ele>156.8</ele><time>2018-04-04T13:36:11.392Z</time></trkpt><trkpt lon="34.850962" lat="31.715383"><ele>156.8</ele><time>2018-04-04T13:36:12.392Z</time></trkpt><trkpt lon="34.85096" lat="31.715403"><ele>156.8</ele><time>2018-04-04T13:36:13.392Z</time></trkpt><trkpt lon="34.85095" lat="31.715423"><ele>156.8</ele><time>2018-04-04T13:36:14.392Z</time></trkpt><trkpt lon="34.850938" lat="31.715445"><ele>156.8</ele><time>2018-04-04T13:36:15.392Z</time></trkpt><trkpt lon="34.850932" lat="31.715465"><ele>156.8</ele><time>2018-04-04T13:36:16.392Z</time></trkpt><trkpt lon="34.850922" lat="31.715485"><ele>156.8</ele><time>2018-04-04T13:36:17.392Z</time></trkpt><trkpt lon="34.850907" lat="31.715505"><ele>156.8</ele><time>2018-04-04T13:36:18.392Z</time></trkpt><trkpt lon="34.85089" lat="31.715527"><ele>156.8</ele><time>2018-04-04T13:36:19.392Z</time></trkpt><trkpt lon="34.850875" lat="31.71555"><ele>156.8</ele><time>2018-04-04T13:36:20.392Z</time></trkpt><trkpt lon="34.85086" lat="31.715572"><ele>156.8</ele><time>2018-04-04T13:36:21.392Z</time></trkpt><trkpt lon="34.850843" lat="31.715592"><ele>156.8</ele><time>2018-04-04T13:36:22.392Z</time></trkpt><trkpt lon="34.850837" lat="31.715613"><ele>156.8</ele><time>2018-04-04T13:36:23.392Z</time></trkpt><trkpt lon="34.850838" lat="31.715633"><ele>156.8</ele><time>2018-04-04T13:36:24.392Z</time></trkpt><trkpt lon="34.850847" lat="31.715652"><ele>156.8</ele><time>2018-04-04T13:36:25.392Z</time></trkpt><trkpt lon="34.850857" lat="31.715668"><ele>156.8</ele><time>2018-04-04T13:36:26.392Z</time></trkpt><trkpt lon="34.850858" lat="31.715688"><ele>156.8</ele><time>2018-04-04T13:36:27.392Z</time></trkpt><trkpt lon="34.850853" lat="31.715703"><ele>156.8</ele><time>2018-04-04T13:36:28.392Z</time></trkpt><trkpt lon="34.850838" lat="31.715722"><ele>156.8</ele><time>2018-04-04T13:36:29.392Z</time></trkpt><trkpt lon="34.850815" lat="31.715752"><ele>155.9</ele><time>2018-04-04T13:36:30.392Z</time></trkpt><trkpt lon="34.850803" lat="31.715792"><ele>155.9</ele><time>2018-04-04T13:36:31.392Z</time></trkpt><trkpt lon="34.850797" lat="31.715833"><ele>155.9</ele><time>2018-04-04T13:36:32.392Z</time></trkpt><trkpt lon="34.850788" lat="31.715873"><ele>155.9</ele><time>2018-04-04T13:36:33.392Z</time></trkpt><trkpt lon="34.850775" lat="31.71591"><ele>155.9</ele><time>2018-04-04T13:36:34.392Z</time></trkpt><trkpt lon="34.850763" lat="31.715948"><ele>155.9</ele><time>2018-04-04T13:36:35.392Z</time></trkpt><trkpt lon="34.850758" lat="31.715983"><ele>155.9</ele><time>2018-04-04T13:36:36.392Z</time></trkpt><trkpt lon="34.850758" lat="31.716018"><ele>155.9</ele><time>2018-04-04T13:36:37.392Z</time></trkpt><trkpt lon="34.850753" lat="31.716047"><ele>153.9</ele><time>2018-04-04T13:36:38.392Z</time></trkpt><trkpt lon="34.850752" lat="31.716073"><ele>153.9</ele><time>2018-04-04T13:36:39.392Z</time></trkpt><trkpt lon="34.850752" lat="31.716073"><ele>153.9</ele><time>2018-04-04T13:36:40.392Z</time></trkpt><trkpt lon="34.850755" lat="31.716115"><ele>153.9</ele><time>2018-04-04T13:36:41.392Z</time></trkpt><trkpt lon="34.85076" lat="31.716133"><ele>153.9</ele><time>2018-04-04T13:36:42.392Z</time></trkpt><trkpt lon="34.850768" lat="31.716152"><ele>153.9</ele><time>2018-04-04T13:36:43.392Z</time></trkpt><trkpt lon="34.850772" lat="31.716165"><ele>153.9</ele><time>2018-04-04T13:36:44.392Z</time></trkpt><trkpt lon="34.850782" lat="31.716177"><ele>153.9</ele><time>2018-04-04T13:36:45.392Z</time></trkpt><trkpt lon="34.850795" lat="31.71619"><ele>153.9</ele><time>2018-04-04T13:36:46.392Z</time></trkpt><trkpt lon="34.850808" lat="31.716205"><ele>153.9</ele><time>2018-04-04T13:36:47.392Z</time></trkpt><trkpt lon="34.850823" lat="31.716218"><ele>153.9</ele><time>2018-04-04T13:36:48.392Z</time></trkpt><trkpt lon="34.850837" lat="31.716228"><ele>153.9</ele><time>2018-04-04T13:36:49.392Z</time></trkpt><trkpt lon="34.850845" lat="31.716228"><ele>153.9</ele><time>2018-04-04T13:36:50.392Z</time></trkpt><trkpt lon="34.850847" lat="31.716232"><ele>153.9</ele><time>2018-04-04T13:36:51.392Z</time></trkpt><trkpt lon="34.850852" lat="31.716237"><ele>153.9</ele><time>2018-04-04T13:36:52.392Z</time></trkpt><trkpt lon="34.850852" lat="31.716237"><ele>153.9</ele><time>2018-04-04T13:36:53.392Z</time></trkpt><trkpt lon="34.850863" lat="31.716248"><ele>153.9</ele><time>2018-04-04T13:36:54.392Z</time></trkpt><trkpt lon="34.850867" lat="31.716257"><ele>153.9</ele><time>2018-04-04T13:36:55.392Z</time></trkpt><trkpt lon="34.850872" lat="31.716263"><ele>153.9</ele><time>2018-04-04T13:36:56.392Z</time></trkpt><trkpt lon="34.850872" lat="31.716263"><ele>153.9</ele><time>2018-04-04T13:36:57.392Z</time></trkpt><trkpt lon="34.85088" lat="31.716275"><ele>153.9</ele><time>2018-04-04T13:36:58.392Z</time></trkpt><trkpt lon="34.850882" lat="31.716275"><ele>153.9</ele><time>2018-04-04T13:36:59.392Z</time></trkpt><trkpt lon="34.850882" lat="31.716275"><ele>153.9</ele><time>2018-04-04T13:37:00.392Z</time></trkpt><trkpt lon="34.850882" lat="31.716278"><ele>153.9</ele><time>2018-04-04T13:37:01.392Z</time></trkpt><trkpt lon="34.850873" lat="31.716293"><ele>153.9</ele><time>2018-04-04T13:37:02.392Z</time></trkpt><trkpt lon="34.850875" lat="31.716293"><ele>153.9</ele><time>2018-04-04T13:37:03.392Z</time></trkpt><trkpt lon="34.850875" lat="31.716293"><ele>153.9</ele><time>2018-04-04T13:37:04.392Z</time></trkpt><trkpt lon="34.850875" lat="31.716293"><ele>153.9</ele><time>2018-04-04T13:37:05.392Z</time></trkpt><trkpt lon="34.850875" lat="31.716293"><ele>153.9</ele><time>2018-04-04T13:37:06.392Z</time></trkpt><trkpt lon="34.850868" lat="31.716312"><ele>153.9</ele><time>2018-04-04T13:37:12.392Z</time></trkpt><trkpt lon="34.850868" lat="31.716322"><ele>153.9</ele><time>2018-04-04T13:37:13.392Z</time></trkpt><trkpt lon="34.850872" lat="31.716335"><ele>153.9</ele><time>2018-04-04T13:37:14.392Z</time></trkpt><trkpt lon="34.850875" lat="31.716353"><ele>153.9</ele><time>2018-04-04T13:37:15.392Z</time></trkpt><trkpt lon="34.850882" lat="31.716378"><ele>152.9</ele><time>2018-04-04T13:37:16.392Z</time></trkpt><trkpt lon="34.850892" lat="31.716403"><ele>152.9</ele><time>2018-04-04T13:37:17.392Z</time></trkpt><trkpt lon="34.850907" lat="31.716422"><ele>152.9</ele><time>2018-04-04T13:37:18.392Z</time></trkpt><trkpt lon="34.850922" lat="31.716435"><ele>152.9</ele><time>2018-04-04T13:37:19.392Z</time></trkpt><trkpt lon="34.850935" lat="31.716443"><ele>152.9</ele><time>2018-04-04T13:37:20.392Z</time></trkpt><trkpt lon="34.850948" lat="31.716455"><ele>152.9</ele><time>2018-04-04T13:37:21.392Z</time></trkpt><trkpt lon="34.85096" lat="31.716468"><ele>152.9</ele><time>2018-04-04T13:37:22.392Z</time></trkpt><trkpt lon="34.850973" lat="31.716485"><ele>152.9</ele><time>2018-04-04T13:37:23.392Z</time></trkpt><trkpt lon="34.85099" lat="31.716503"><ele>152.9</ele><time>2018-04-04T13:37:24.392Z</time></trkpt><trkpt lon="34.851013" lat="31.716517"><ele>152.9</ele><time>2018-04-04T13:37:25.392Z</time></trkpt><trkpt lon="34.851038" lat="31.716527"><ele>152.9</ele><time>2018-04-04T13:37:26.392Z</time></trkpt><trkpt lon="34.851058" lat="31.716538"><ele>152.9</ele><time>2018-04-04T13:37:27.392Z</time></trkpt><trkpt lon="34.851077" lat="31.71655"><ele>152.9</ele><time>2018-04-04T13:37:28.392Z</time></trkpt><trkpt lon="34.851098" lat="31.716562"><ele>152.9</ele><time>2018-04-04T13:37:29.392Z</time></trkpt><trkpt lon="34.851122" lat="31.716567"><ele>152.9</ele><time>2018-04-04T13:37:30.392Z</time></trkpt><trkpt lon="34.851143" lat="31.716563"><ele>152.9</ele><time>2018-04-04T13:37:31.392Z</time></trkpt><trkpt lon="34.851143" lat="31.716563"><ele>153.9</ele><time>2018-04-04T13:37:32.392Z</time></trkpt><trkpt lon="34.851167" lat="31.716558"><ele>153.9</ele><time>2018-04-04T13:37:33.392Z</time></trkpt><trkpt lon="34.85121" lat="31.71654"><ele>153.9</ele><time>2018-04-04T13:37:34.392Z</time></trkpt><trkpt lon="34.85123" lat="31.716532"><ele>153.9</ele><time>2018-04-04T13:37:35.392Z</time></trkpt><trkpt lon="34.851252" lat="31.716525"><ele>154.8</ele><time>2018-04-04T13:37:36.392Z</time></trkpt><trkpt lon="34.851277" lat="31.716523"><ele>154.8</ele><time>2018-04-04T13:37:37.392Z</time></trkpt><trkpt lon="34.8513" lat="31.716525"><ele>154.8</ele><time>2018-04-04T13:37:38.392Z</time></trkpt><trkpt lon="34.851322" lat="31.716528"><ele>154.8</ele><time>2018-04-04T13:37:39.392Z</time></trkpt><trkpt lon="34.851338" lat="31.716535"><ele>154.8</ele><time>2018-04-04T13:37:40.392Z</time></trkpt><trkpt lon="34.851355" lat="31.71655"><ele>154.8</ele><time>2018-04-04T13:37:41.392Z</time></trkpt><trkpt lon="34.851375" lat="31.716567"><ele>154.8</ele><time>2018-04-04T13:37:42.392Z</time></trkpt><trkpt lon="34.8514" lat="31.716582"><ele>154.8</ele><time>2018-04-04T13:37:43.392Z</time></trkpt><trkpt lon="34.851427" lat="31.716592"><ele>154.8</ele><time>2018-04-04T13:37:44.392Z</time></trkpt><trkpt lon="34.851455" lat="31.716598"><ele>154.8</ele><time>2018-04-04T13:37:45.392Z</time></trkpt><trkpt lon="34.851483" lat="31.716608"><ele>154.8</ele><time>2018-04-04T13:37:46.392Z</time></trkpt><trkpt lon="34.851508" lat="31.716622"><ele>154.8</ele><time>2018-04-04T13:37:47.392Z</time></trkpt><trkpt lon="34.851508" lat="31.716622"><ele>154.8</ele><time>2018-04-04T13:37:48.392Z</time></trkpt><trkpt lon="34.851558" lat="31.716653"><ele>154.8</ele><time>2018-04-04T13:37:49.392Z</time></trkpt><trkpt lon="34.851585" lat="31.716675"><ele>154.8</ele><time>2018-04-04T13:37:50.392Z</time></trkpt><trkpt lon="34.851608" lat="31.7167"><ele>154.8</ele><time>2018-04-04T13:37:51.392Z</time></trkpt><trkpt lon="34.851628" lat="31.716727"><ele>154.8</ele><time>2018-04-04T13:37:52.392Z</time></trkpt><trkpt lon="34.851645" lat="31.71676"><ele>154.8</ele><time>2018-04-04T13:37:53.392Z</time></trkpt><trkpt lon="34.851665" lat="31.716798"><ele>153.9</ele><time>2018-04-04T13:37:54.392Z</time></trkpt><trkpt lon="34.851688" lat="31.716837"><ele>153.9</ele><time>2018-04-04T13:37:55.392Z</time></trkpt><trkpt lon="34.851713" lat="31.71687"><ele>153.9</ele><time>2018-04-04T13:37:56.392Z</time></trkpt><trkpt lon="34.851737" lat="31.716907"><ele>153.9</ele><time>2018-04-04T13:37:57.392Z</time></trkpt><trkpt lon="34.851762" lat="31.716943"><ele>152.9</ele><time>2018-04-04T13:37:58.392Z</time></trkpt><trkpt lon="34.85179" lat="31.716978"><ele>152.9</ele><time>2018-04-04T13:37:59.392Z</time></trkpt><trkpt lon="34.85182" lat="31.71701"><ele>152.9</ele><time>2018-04-04T13:38:00.392Z</time></trkpt><trkpt lon="34.85185" lat="31.71703"><ele>152.9</ele><time>2018-04-04T13:38:01.392Z</time></trkpt><trkpt lon="34.851873" lat="31.717038"><ele>152.9</ele><time>2018-04-04T13:38:02.392Z</time></trkpt><trkpt lon="34.851898" lat="31.717042"><ele>152.9</ele><time>2018-04-04T13:38:03.392Z</time></trkpt><trkpt lon="34.851898" lat="31.717042"><ele>152.9</ele><time>2018-04-04T13:38:04.392Z</time></trkpt><trkpt lon="34.851913" lat="31.717057"><ele>152.9</ele><time>2018-04-04T13:38:05.392Z</time></trkpt><trkpt lon="34.851927" lat="31.717095"><ele>152.9</ele><time>2018-04-04T13:38:06.392Z</time></trkpt><trkpt lon="34.851938" lat="31.717115"><ele>152.9</ele><time>2018-04-04T13:38:07.392Z</time></trkpt><trkpt lon="34.851938" lat="31.717115"><ele>152.9</ele><time>2018-04-04T13:38:08.392Z</time></trkpt><trkpt lon="34.851963" lat="31.71713"><ele>152.9</ele><time>2018-04-04T13:38:09.392Z</time></trkpt><trkpt lon="34.851975" lat="31.717135"><ele>152.9</ele><time>2018-04-04T13:38:10.392Z</time></trkpt><trkpt lon="34.851993" lat="31.717137"><ele>152.9</ele><time>2018-04-04T13:38:11.392Z</time></trkpt><trkpt lon="34.851993" lat="31.717137"><ele>152.9</ele><time>2018-04-04T13:38:12.392Z</time></trkpt><trkpt lon="34.85202" lat="31.717137"><ele>152.9</ele><time>2018-04-04T13:38:13.392Z</time></trkpt><trkpt lon="34.852068" lat="31.71713"><ele>152.9</ele><time>2018-04-04T13:38:14.392Z</time></trkpt><trkpt lon="34.852092" lat="31.717125"><ele>152.9</ele><time>2018-04-04T13:38:15.392Z</time></trkpt><trkpt lon="34.852108" lat="31.71712"><ele>153.9</ele><time>2018-04-04T13:38:16.392Z</time></trkpt><trkpt lon="34.852125" lat="31.717115"><ele>153.9</ele><time>2018-04-04T13:38:17.392Z</time></trkpt><trkpt lon="34.852143" lat="31.717108"><ele>153.9</ele><time>2018-04-04T13:38:18.392Z</time></trkpt><trkpt lon="34.852143" lat="31.717108"><ele>153.9</ele><time>2018-04-04T13:38:19.392Z</time></trkpt><trkpt lon="34.852188" lat="31.717098"><ele>153.9</ele><time>2018-04-04T13:38:20.392Z</time></trkpt><trkpt lon="34.852212" lat="31.717097"><ele>153.9</ele><time>2018-04-04T13:38:21.392Z</time></trkpt><trkpt lon="34.852228" lat="31.717093"><ele>154.8</ele><time>2018-04-04T13:38:22.392Z</time></trkpt><trkpt lon="34.852232" lat="31.717093"><ele>154.8</ele><time>2018-04-04T13:38:23.392Z</time></trkpt><trkpt lon="34.852232" lat="31.717093"><ele>154.8</ele><time>2018-04-04T13:38:24.392Z</time></trkpt><trkpt lon="34.85224" lat="31.717088"><ele>154.8</ele><time>2018-04-04T13:38:25.392Z</time></trkpt><trkpt lon="34.85225" lat="31.717087"><ele>155.9</ele><time>2018-04-04T13:38:26.392Z</time></trkpt><trkpt lon="34.852265" lat="31.717082"><ele>155.9</ele><time>2018-04-04T13:38:27.392Z</time></trkpt><trkpt lon="34.852265" lat="31.717082"><ele>155.9</ele><time>2018-04-04T13:38:28.392Z</time></trkpt><trkpt lon="34.852272" lat="31.717077"><ele>155.9</ele><time>2018-04-04T13:38:29.392Z</time></trkpt><trkpt lon="34.85228" lat="31.717072"><ele>155.9</ele><time>2018-04-04T13:38:30.392Z</time></trkpt><trkpt lon="34.852295" lat="31.717062"><ele>155.9</ele><time>2018-04-04T13:38:31.392Z</time></trkpt><trkpt lon="34.852295" lat="31.717062"><ele>155.9</ele><time>2018-04-04T13:38:32.392Z</time></trkpt><trkpt lon="34.852302" lat="31.717058"><ele>155.9</ele><time>2018-04-04T13:38:33.392Z</time></trkpt><trkpt lon="34.852307" lat="31.717055"><ele>155.9</ele><time>2018-04-04T13:38:34.392Z</time></trkpt><trkpt lon="34.852313" lat="31.717052"><ele>155.9</ele><time>2018-04-04T13:38:35.392Z</time></trkpt><trkpt lon="34.852318" lat="31.717048"><ele>156.8</ele><time>2018-04-04T13:38:36.392Z</time></trkpt><trkpt lon="34.852325" lat="31.717047"><ele>156.8</ele><time>2018-04-04T13:38:37.392Z</time></trkpt><trkpt lon="34.852332" lat="31.717043"><ele>156.8</ele><time>2018-04-04T13:38:38.392Z</time></trkpt><trkpt lon="34.852337" lat="31.717043"><ele>156.8</ele><time>2018-04-04T13:38:39.392Z</time></trkpt><trkpt lon="34.852342" lat="31.71704"><ele>156.8</ele><time>2018-04-04T13:38:40.392Z</time></trkpt><trkpt lon="34.852342" lat="31.71704"><ele>156.8</ele><time>2018-04-04T13:38:41.392Z</time></trkpt><trkpt lon="34.852357" lat="31.71703"><ele>156.8</ele><time>2018-04-04T13:38:42.392Z</time></trkpt><trkpt lon="34.852357" lat="31.71703"><ele>156.8</ele><time>2018-04-04T13:38:43.392Z</time></trkpt><trkpt lon="34.852363" lat="31.717025"><ele>156.8</ele><time>2018-04-04T13:38:44.392Z</time></trkpt><trkpt lon="34.852373" lat="31.717018"><ele>156.8</ele><time>2018-04-04T13:38:45.392Z</time></trkpt><trkpt lon="34.852383" lat="31.717013"><ele>157.9</ele><time>2018-04-04T13:38:46.392Z</time></trkpt><trkpt lon="34.852403" lat="31.717013"><ele>157.9</ele><time>2018-04-04T13:38:47.392Z</time></trkpt><trkpt lon="34.852403" lat="31.717013"><ele>157.9</ele><time>2018-04-04T13:38:48.392Z</time></trkpt><trkpt lon="34.852407" lat="31.717015"><ele>157.9</ele><time>2018-04-04T13:38:49.392Z</time></trkpt><trkpt lon="34.852412" lat="31.717017"><ele>157.9</ele><time>2018-04-04T13:38:50.392Z</time></trkpt><trkpt lon="34.852418" lat="31.717018"><ele>157.9</ele><time>2018-04-04T13:38:51.392Z</time></trkpt><trkpt lon="34.852427" lat="31.717018"><ele>157.9</ele><time>2018-04-04T13:38:52.392Z</time></trkpt><trkpt lon="34.85244" lat="31.71702"><ele>157.9</ele><time>2018-04-04T13:38:53.392Z</time></trkpt><trkpt lon="34.85244" lat="31.71702"><ele>157.9</ele><time>2018-04-04T13:38:54.392Z</time></trkpt><trkpt lon="34.852453" lat="31.717013"><ele>157.9</ele><time>2018-04-04T13:38:55.392Z</time></trkpt><trkpt lon="34.852453" lat="31.717013"><ele>157.9</ele><time>2018-04-04T13:38:56.392Z</time></trkpt><trkpt lon="34.852462" lat="31.717012"><ele>157.9</ele><time>2018-04-04T13:38:57.392Z</time></trkpt><trkpt lon="34.852472" lat="31.71701"><ele>157.9</ele><time>2018-04-04T13:38:58.392Z</time></trkpt><trkpt lon="34.85248" lat="31.71701"><ele>157.9</ele><time>2018-04-04T13:38:59.392Z</time></trkpt><trkpt lon="34.852487" lat="31.71701"><ele>157.9</ele><time>2018-04-04T13:39:00.392Z</time></trkpt><trkpt lon="34.85249" lat="31.717008"><ele>157.9</ele><time>2018-04-04T13:39:01.392Z</time></trkpt><trkpt lon="34.852488" lat="31.717008"><ele>157.9</ele><time>2018-04-04T13:39:02.392Z</time></trkpt><trkpt lon="34.85249" lat="31.71701"><ele>157.9</ele><time>2018-04-04T13:39:03.392Z</time></trkpt><trkpt lon="34.852528" lat="31.717003"><ele>157.9</ele><time>2018-04-04T13:39:33.392Z</time></trkpt><trkpt lon="34.85254" lat="31.717003"><ele>157.9</ele><time>2018-04-04T13:39:34.392Z</time></trkpt><trkpt lon="34.852558" lat="31.717003"><ele>157.9</ele><time>2018-04-04T13:39:35.392Z</time></trkpt><trkpt lon="34.852577" lat="31.71701"><ele>157.9</ele><time>2018-04-04T13:39:36.392Z</time></trkpt><trkpt lon="34.852602" lat="31.717023"><ele>157.9</ele><time>2018-04-04T13:39:37.392Z</time></trkpt><trkpt lon="34.852632" lat="31.717037"><ele>157.9</ele><time>2018-04-04T13:39:38.392Z</time></trkpt><trkpt lon="34.852663" lat="31.717057"><ele>157.9</ele><time>2018-04-04T13:39:39.392Z</time></trkpt><trkpt lon="34.852698" lat="31.717098"><ele>157.9</ele><time>2018-04-04T13:39:40.392Z</time></trkpt><trkpt lon="34.852698" lat="31.717098"><ele>157.9</ele><time>2018-04-04T13:39:41.392Z</time></trkpt><trkpt lon="34.852705" lat="31.717122"><ele>157.9</ele><time>2018-04-04T13:39:42.392Z</time></trkpt><trkpt lon="34.852707" lat="31.717147"><ele>157.9</ele><time>2018-04-04T13:39:43.392Z</time></trkpt><trkpt lon="34.85271" lat="31.717175"><ele>157.9</ele><time>2018-04-04T13:39:44.392Z</time></trkpt><trkpt lon="34.852713" lat="31.717205"><ele>157.9</ele><time>2018-04-04T13:39:45.392Z</time></trkpt><trkpt lon="34.852728" lat="31.717253"><ele>157.9</ele><time>2018-04-04T13:39:46.392Z</time></trkpt><trkpt lon="34.852728" lat="31.717253"><ele>157.9</ele><time>2018-04-04T13:39:47.392Z</time></trkpt><trkpt lon="34.852733" lat="31.717275"><ele>157.9</ele><time>2018-04-04T13:39:48.392Z</time></trkpt><trkpt lon="34.852735" lat="31.7173"><ele>157.9</ele><time>2018-04-04T13:39:49.392Z</time></trkpt><trkpt lon="34.852733" lat="31.717353"><ele>157.9</ele><time>2018-04-04T13:39:50.392Z</time></trkpt><trkpt lon="34.852733" lat="31.717388"><ele>157.9</ele><time>2018-04-04T13:39:51.392Z</time></trkpt><trkpt lon="34.852733" lat="31.717388"><ele>157.9</ele><time>2018-04-04T13:39:52.392Z</time></trkpt><trkpt lon="34.85273" lat="31.717428"><ele>157.9</ele><time>2018-04-04T13:39:53.392Z</time></trkpt><trkpt lon="34.852728" lat="31.717472"><ele>157.9</ele><time>2018-04-04T13:39:54.392Z</time></trkpt><trkpt lon="34.852733" lat="31.717562"><ele>157.9</ele><time>2018-04-04T13:39:55.392Z</time></trkpt><trkpt lon="34.852733" lat="31.717562"><ele>157.9</ele><time>2018-04-04T13:39:56.392Z</time></trkpt><trkpt lon="34.852735" lat="31.717603"><ele>157.9</ele><time>2018-04-04T13:39:57.392Z</time></trkpt><trkpt lon="34.852732" lat="31.71764"><ele>157.9</ele><time>2018-04-04T13:39:58.392Z</time></trkpt><trkpt lon="34.852718" lat="31.717673"><ele>157.9</ele><time>2018-04-04T13:39:59.392Z</time></trkpt><trkpt lon="34.852698" lat="31.7177"><ele>157.9</ele><time>2018-04-04T13:40:00.392Z</time></trkpt><trkpt lon="34.85267" lat="31.717723"><ele>157.9</ele><time>2018-04-04T13:40:01.392Z</time></trkpt><trkpt lon="34.852632" lat="31.717747"><ele>157.9</ele><time>2018-04-04T13:40:02.392Z</time></trkpt><trkpt lon="34.852542" lat="31.71779"><ele>157.9</ele><time>2018-04-04T13:40:03.392Z</time></trkpt><trkpt lon="34.852542" lat="31.71779"><ele>156.8</ele><time>2018-04-04T13:40:04.392Z</time></trkpt><trkpt lon="34.852493" lat="31.717798"><ele>156.8</ele><time>2018-04-04T13:40:05.392Z</time></trkpt><trkpt lon="34.852447" lat="31.71781"><ele>156.8</ele><time>2018-04-04T13:40:06.392Z</time></trkpt><trkpt lon="34.852375" lat="31.717835"><ele>156.8</ele><time>2018-04-04T13:40:07.392Z</time></trkpt><trkpt lon="34.852375" lat="31.717835"><ele>156.8</ele><time>2018-04-04T13:40:08.392Z</time></trkpt><trkpt lon="34.852352" lat="31.71785"><ele>156.8</ele><time>2018-04-04T13:40:09.392Z</time></trkpt><trkpt lon="34.852338" lat="31.717873"><ele>156.8</ele><time>2018-04-04T13:40:10.392Z</time></trkpt><trkpt lon="34.852335" lat="31.717902"><ele>156.8</ele><time>2018-04-04T13:40:11.392Z</time></trkpt><trkpt lon="34.852333" lat="31.71793"><ele>156.8</ele><time>2018-04-04T13:40:12.392Z</time></trkpt><trkpt lon="34.852335" lat="31.717963"><ele>156.8</ele><time>2018-04-04T13:40:13.392Z</time></trkpt><trkpt lon="34.852347" lat="31.717988"><ele>156.8</ele><time>2018-04-04T13:40:14.392Z</time></trkpt><trkpt lon="34.852377" lat="31.718033"><ele>156.8</ele><time>2018-04-04T13:40:15.392Z</time></trkpt><trkpt lon="34.852392" lat="31.718052"><ele>157.9</ele><time>2018-04-04T13:40:16.392Z</time></trkpt><trkpt lon="34.852392" lat="31.718052"><ele>157.9</ele><time>2018-04-04T13:40:17.392Z</time></trkpt><trkpt lon="34.852403" lat="31.71807"><ele>157.9</ele><time>2018-04-04T13:40:18.392Z</time></trkpt><trkpt lon="34.852433" lat="31.718098"><ele>157.9</ele><time>2018-04-04T13:40:19.392Z</time></trkpt><trkpt lon="34.852453" lat="31.718103"><ele>157.9</ele><time>2018-04-04T13:40:20.392Z</time></trkpt><trkpt lon="34.85247" lat="31.718112"><ele>157.9</ele><time>2018-04-04T13:40:21.392Z</time></trkpt><trkpt lon="34.852487" lat="31.718123"><ele>158.8</ele><time>2018-04-04T13:40:22.392Z</time></trkpt><trkpt lon="34.852487" lat="31.718123"><ele>158.8</ele><time>2018-04-04T13:40:23.392Z</time></trkpt><trkpt lon="34.852497" lat="31.718138"><ele>158.8</ele><time>2018-04-04T13:40:24.392Z</time></trkpt><trkpt lon="34.85251" lat="31.718147"><ele>158.8</ele><time>2018-04-04T13:40:25.392Z</time></trkpt><trkpt lon="34.852525" lat="31.71815"><ele>159.9</ele><time>2018-04-04T13:40:26.392Z</time></trkpt><trkpt lon="34.852545" lat="31.718168"><ele>159.9</ele><time>2018-04-04T13:40:27.392Z</time></trkpt><trkpt lon="34.852545" lat="31.718168"><ele>159.9</ele><time>2018-04-04T13:40:28.392Z</time></trkpt><trkpt lon="34.852557" lat="31.718182"><ele>159.9</ele><time>2018-04-04T13:40:29.392Z</time></trkpt><trkpt lon="34.852568" lat="31.718195"><ele>159.9</ele><time>2018-04-04T13:40:30.392Z</time></trkpt><trkpt lon="34.85258" lat="31.718223"><ele>159.9</ele><time>2018-04-04T13:40:31.392Z</time></trkpt><trkpt lon="34.85258" lat="31.718223"><ele>160.9</ele><time>2018-04-04T13:40:32.392Z</time></trkpt><trkpt lon="34.852585" lat="31.718242"><ele>160.9</ele><time>2018-04-04T13:40:33.392Z</time></trkpt><trkpt lon="34.852593" lat="31.718258"><ele>160.9</ele><time>2018-04-04T13:40:34.392Z</time></trkpt><trkpt lon="34.8526" lat="31.718275"><ele>160.9</ele><time>2018-04-04T13:40:35.392Z</time></trkpt><trkpt lon="34.852607" lat="31.718293"><ele>160.9</ele><time>2018-04-04T13:40:36.392Z</time></trkpt><trkpt lon="34.852615" lat="31.71831"><ele>160.9</ele><time>2018-04-04T13:40:37.392Z</time></trkpt><trkpt lon="34.852627" lat="31.718323"><ele>160.9</ele><time>2018-04-04T13:40:38.392Z</time></trkpt><trkpt lon="34.852642" lat="31.71833"><ele>160.9</ele><time>2018-04-04T13:40:39.392Z</time></trkpt><trkpt lon="34.852658" lat="31.718337"><ele>160.9</ele><time>2018-04-04T13:40:40.392Z</time></trkpt><trkpt lon="34.852677" lat="31.718347"><ele>160.9</ele><time>2018-04-04T13:40:41.392Z</time></trkpt><trkpt lon="34.852687" lat="31.71836"><ele>160.9</ele><time>2018-04-04T13:40:42.392Z</time></trkpt><trkpt lon="34.852693" lat="31.718377"><ele>160.9</ele><time>2018-04-04T13:40:43.392Z</time></trkpt><trkpt lon="34.852698" lat="31.718392"><ele>161.9</ele><time>2018-04-04T13:40:44.392Z</time></trkpt><trkpt lon="34.85271" lat="31.718407"><ele>161.9</ele><time>2018-04-04T13:40:45.392Z</time></trkpt><trkpt lon="34.852722" lat="31.718423"><ele>161.9</ele><time>2018-04-04T13:40:46.392Z</time></trkpt><trkpt lon="34.852725" lat="31.718433"><ele>161.9</ele><time>2018-04-04T13:40:47.392Z</time></trkpt><trkpt lon="34.852727" lat="31.718445"><ele>161.9</ele><time>2018-04-04T13:40:48.392Z</time></trkpt><trkpt lon="34.85273" lat="31.718453"><ele>161.9</ele><time>2018-04-04T13:40:49.392Z</time></trkpt><trkpt lon="34.852727" lat="31.718455"><ele>161.9</ele><time>2018-04-04T13:40:50.392Z</time></trkpt><trkpt lon="34.852725" lat="31.718455"><ele>161.9</ele><time>2018-04-04T13:40:51.392Z</time></trkpt><trkpt lon="34.852727" lat="31.718455"><ele>161.9</ele><time>2018-04-04T13:40:52.392Z</time></trkpt><trkpt lon="34.852738" lat="31.718467"><ele>161.9</ele><time>2018-04-04T13:40:56.392Z</time></trkpt><trkpt lon="34.852742" lat="31.718473"><ele>161.9</ele><time>2018-04-04T13:40:57.392Z</time></trkpt><trkpt lon="34.852742" lat="31.718482"><ele>161.9</ele><time>2018-04-04T13:40:58.392Z</time></trkpt><trkpt lon="34.852745" lat="31.718502"><ele>161.9</ele><time>2018-04-04T13:40:59.392Z</time></trkpt><trkpt lon="34.85275" lat="31.718515"><ele>162.9</ele><time>2018-04-04T13:41:00.392Z</time></trkpt><trkpt lon="34.852753" lat="31.718533"><ele>162.9</ele><time>2018-04-04T13:41:01.392Z</time></trkpt><trkpt lon="34.852753" lat="31.718533"><ele>162.9</ele><time>2018-04-04T13:41:02.392Z</time></trkpt><trkpt lon="34.852753" lat="31.718548"><ele>162.9</ele><time>2018-04-04T13:41:03.392Z</time></trkpt><trkpt lon="34.852758" lat="31.718562"><ele>162.9</ele><time>2018-04-04T13:41:04.392Z</time></trkpt><trkpt lon="34.852765" lat="31.718575"><ele>162.9</ele><time>2018-04-04T13:41:05.392Z</time></trkpt><trkpt lon="34.852777" lat="31.718587"><ele>163.8</ele><time>2018-04-04T13:41:06.392Z</time></trkpt><trkpt lon="34.852785" lat="31.718588"><ele>163.8</ele><time>2018-04-04T13:41:07.392Z</time></trkpt><trkpt lon="34.852788" lat="31.71859"><ele>163.8</ele><time>2018-04-04T13:41:08.392Z</time></trkpt><trkpt lon="34.852787" lat="31.718592"><ele>163.8</ele><time>2018-04-04T13:41:09.392Z</time></trkpt><trkpt lon="34.852792" lat="31.718593"><ele>163.8</ele><time>2018-04-04T13:41:10.392Z</time></trkpt><trkpt lon="34.852798" lat="31.718595"><ele>163.8</ele><time>2018-04-04T13:41:11.392Z</time></trkpt><trkpt lon="34.852805" lat="31.718595"><ele>163.8</ele><time>2018-04-04T13:41:12.392Z</time></trkpt><trkpt lon="34.852813" lat="31.718597"><ele>163.8</ele><time>2018-04-04T13:41:13.392Z</time></trkpt><trkpt lon="34.852822" lat="31.718597"><ele>163.8</ele><time>2018-04-04T13:41:14.392Z</time></trkpt><trkpt lon="34.852833" lat="31.7186"><ele>163.8</ele><time>2018-04-04T13:41:15.392Z</time></trkpt><trkpt lon="34.85284" lat="31.7186"><ele>164.9</ele><time>2018-04-04T13:41:16.392Z</time></trkpt><trkpt lon="34.852847" lat="31.718603"><ele>164.9</ele><time>2018-04-04T13:41:17.392Z</time></trkpt><trkpt lon="34.852852" lat="31.718603"><ele>164.9</ele><time>2018-04-04T13:41:18.392Z</time></trkpt><trkpt lon="34.852862" lat="31.718607"><ele>164.9</ele><time>2018-04-04T13:41:19.392Z</time></trkpt><trkpt lon="34.852868" lat="31.71861"><ele>164.9</ele><time>2018-04-04T13:41:20.392Z</time></trkpt><trkpt lon="34.852875" lat="31.718613"><ele>164.9</ele><time>2018-04-04T13:41:21.392Z</time></trkpt><trkpt lon="34.85288" lat="31.718613"><ele>164.9</ele><time>2018-04-04T13:41:22.392Z</time></trkpt><trkpt lon="34.852885" lat="31.718615"><ele>164.9</ele><time>2018-04-04T13:41:23.392Z</time></trkpt><trkpt lon="34.852893" lat="31.718617"><ele>165.8</ele><time>2018-04-04T13:41:24.392Z</time></trkpt><trkpt lon="34.8529" lat="31.718622"><ele>165.8</ele><time>2018-04-04T13:41:25.392Z</time></trkpt><trkpt lon="34.852907" lat="31.718622"><ele>165.8</ele><time>2018-04-04T13:41:26.392Z</time></trkpt><trkpt lon="34.852915" lat="31.718622"><ele>165.8</ele><time>2018-04-04T13:41:27.392Z</time></trkpt><trkpt lon="34.852923" lat="31.718622"><ele>165.8</ele><time>2018-04-04T13:41:28.392Z</time></trkpt><trkpt lon="34.85293" lat="31.718628"><ele>165.8</ele><time>2018-04-04T13:41:29.392Z</time></trkpt><trkpt lon="34.852933" lat="31.718632"><ele>166.9</ele><time>2018-04-04T13:41:30.392Z</time></trkpt><trkpt lon="34.852935" lat="31.718635"><ele>166.9</ele><time>2018-04-04T13:41:31.392Z</time></trkpt><trkpt lon="34.852937" lat="31.718642"><ele>166.9</ele><time>2018-04-04T13:41:32.392Z</time></trkpt><trkpt lon="34.852937" lat="31.718648"><ele>166.9</ele><time>2018-04-04T13:41:33.392Z</time></trkpt><trkpt lon="34.852935" lat="31.71865"><ele>166.9</ele><time>2018-04-04T13:41:34.392Z</time></trkpt><trkpt lon="34.85294" lat="31.718647"><ele>166.9</ele><time>2018-04-04T13:41:35.392Z</time></trkpt><trkpt lon="34.852945" lat="31.718648"><ele>166.9</ele><time>2018-04-04T13:41:36.392Z</time></trkpt><trkpt lon="34.852948" lat="31.718652"><ele>166.9</ele><time>2018-04-04T13:41:37.392Z</time></trkpt><trkpt lon="34.85295" lat="31.71866"><ele>166.9</ele><time>2018-04-04T13:41:38.392Z</time></trkpt><trkpt lon="34.85295" lat="31.718668"><ele>166.9</ele><time>2018-04-04T13:41:39.392Z</time></trkpt><trkpt lon="34.85295" lat="31.71867"><ele>166.9</ele><time>2018-04-04T13:41:40.392Z</time></trkpt><trkpt lon="34.852952" lat="31.71867"><ele>166.9</ele><time>2018-04-04T13:41:41.392Z</time></trkpt><trkpt lon="34.852952" lat="31.718683"><ele>166.9</ele><time>2018-04-04T13:41:42.392Z</time></trkpt><trkpt lon="34.852955" lat="31.718693"><ele>166.9</ele><time>2018-04-04T13:41:43.392Z</time></trkpt><trkpt lon="34.852957" lat="31.718707"><ele>166.9</ele><time>2018-04-04T13:41:44.392Z</time></trkpt><trkpt lon="34.852957" lat="31.71872"><ele>166.9</ele><time>2018-04-04T13:41:45.392Z</time></trkpt><trkpt lon="34.852957" lat="31.718737"><ele>166.9</ele><time>2018-04-04T13:41:46.392Z</time></trkpt><trkpt lon="34.852957" lat="31.718753"><ele>166.9</ele><time>2018-04-04T13:41:47.392Z</time></trkpt><trkpt lon="34.852957" lat="31.718773"><ele>166.9</ele><time>2018-04-04T13:41:48.392Z</time></trkpt><trkpt lon="34.85296" lat="31.718795"><ele>166.9</ele><time>2018-04-04T13:41:49.392Z</time></trkpt><trkpt lon="34.852977" lat="31.71883"><ele>166.9</ele><time>2018-04-04T13:41:50.392Z</time></trkpt><trkpt lon="34.852988" lat="31.718842"><ele>166.9</ele><time>2018-04-04T13:41:51.392Z</time></trkpt><trkpt lon="34.852988" lat="31.718842"><ele>167.9</ele><time>2018-04-04T13:41:52.392Z</time></trkpt><trkpt lon="34.853" lat="31.718848"><ele>167.9</ele><time>2018-04-04T13:41:53.392Z</time></trkpt><trkpt lon="34.853008" lat="31.718853"><ele>167.9</ele><time>2018-04-04T13:41:54.392Z</time></trkpt><trkpt lon="34.853012" lat="31.71886"><ele>167.9</ele><time>2018-04-04T13:41:55.392Z</time></trkpt><trkpt lon="34.85302" lat="31.718868"><ele>168.9</ele><time>2018-04-04T13:41:56.392Z</time></trkpt><trkpt lon="34.853032" lat="31.71888"><ele>168.9</ele><time>2018-04-04T13:41:57.392Z</time></trkpt><trkpt lon="34.853038" lat="31.718892"><ele>168.9</ele><time>2018-04-04T13:41:58.392Z</time></trkpt><trkpt lon="34.853042" lat="31.718905"><ele>168.9</ele><time>2018-04-04T13:41:59.392Z</time></trkpt><trkpt lon="34.853045" lat="31.71892"><ele>168.9</ele><time>2018-04-04T13:42:00.392Z</time></trkpt><trkpt lon="34.853045" lat="31.718935"><ele>168.9</ele><time>2018-04-04T13:42:01.392Z</time></trkpt><trkpt lon="34.853033" lat="31.718953"><ele>168.9</ele><time>2018-04-04T13:42:02.392Z</time></trkpt><trkpt lon="34.853022" lat="31.718975"><ele>168.9</ele><time>2018-04-04T13:42:03.392Z</time></trkpt><trkpt lon="34.85302" lat="31.718995"><ele>168.9</ele><time>2018-04-04T13:42:04.392Z</time></trkpt><trkpt lon="34.853027" lat="31.719007"><ele>168.9</ele><time>2018-04-04T13:42:05.392Z</time></trkpt><trkpt lon="34.85304" lat="31.719013"><ele>168.9</ele><time>2018-04-04T13:42:06.392Z</time></trkpt><trkpt lon="34.85305" lat="31.719025"><ele>168.9</ele><time>2018-04-04T13:42:07.392Z</time></trkpt><trkpt lon="34.853055" lat="31.71904"><ele>168.9</ele><time>2018-04-04T13:42:08.392Z</time></trkpt><trkpt lon="34.853053" lat="31.719055"><ele>168.9</ele><time>2018-04-04T13:42:09.392Z</time></trkpt><trkpt lon="34.85305" lat="31.719072"><ele>168.9</ele><time>2018-04-04T13:42:10.392Z</time></trkpt><trkpt lon="34.853045" lat="31.71909"><ele>168.9</ele><time>2018-04-04T13:42:11.392Z</time></trkpt><trkpt lon="34.853045" lat="31.719107"><ele>168.9</ele><time>2018-04-04T13:42:12.392Z</time></trkpt><trkpt lon="34.853053" lat="31.719123"><ele>168.9</ele><time>2018-04-04T13:42:13.392Z</time></trkpt><trkpt lon="34.853058" lat="31.719142"><ele>168.9</ele><time>2018-04-04T13:42:14.392Z</time></trkpt><trkpt lon="34.853065" lat="31.719158"><ele>168.9</ele><time>2018-04-04T13:42:15.392Z</time></trkpt><trkpt lon="34.853072" lat="31.719182"><ele>168.9</ele><time>2018-04-04T13:42:16.392Z</time></trkpt><trkpt lon="34.853077" lat="31.719207"><ele>168.9</ele><time>2018-04-04T13:42:17.392Z</time></trkpt><trkpt lon="34.853085" lat="31.71923"><ele>168.9</ele><time>2018-04-04T13:42:18.392Z</time></trkpt><trkpt lon="34.853093" lat="31.719253"><ele>168.9</ele><time>2018-04-04T13:42:19.392Z</time></trkpt><trkpt lon="34.853102" lat="31.719277"><ele>168.9</ele><time>2018-04-04T13:42:20.392Z</time></trkpt><trkpt lon="34.85311" lat="31.719298"><ele>168.9</ele><time>2018-04-04T13:42:21.392Z</time></trkpt><trkpt lon="34.853122" lat="31.719315"><ele>168.9</ele><time>2018-04-04T13:42:22.392Z</time></trkpt><trkpt lon="34.853138" lat="31.719328"><ele>168.9</ele><time>2018-04-04T13:42:23.392Z</time></trkpt><trkpt lon="34.853152" lat="31.71934"><ele>168.9</ele><time>2018-04-04T13:42:24.392Z</time></trkpt><trkpt lon="34.853165" lat="31.71935"><ele>168.9</ele><time>2018-04-04T13:42:25.392Z</time></trkpt><trkpt lon="34.85318" lat="31.719362"><ele>168.9</ele><time>2018-04-04T13:42:26.392Z</time></trkpt><trkpt lon="34.853193" lat="31.719375"><ele>168.9</ele><time>2018-04-04T13:42:27.392Z</time></trkpt><trkpt lon="34.853208" lat="31.719385"><ele>168.9</ele><time>2018-04-04T13:42:28.392Z</time></trkpt><trkpt lon="34.853227" lat="31.719393"><ele>168.9</ele><time>2018-04-04T13:42:29.392Z</time></trkpt><trkpt lon="34.853235" lat="31.719408"><ele>168.9</ele><time>2018-04-04T13:42:30.392Z</time></trkpt><trkpt lon="34.853233" lat="31.719447"><ele>168.9</ele><time>2018-04-04T13:42:31.392Z</time></trkpt><trkpt lon="34.853233" lat="31.719447"><ele>168.9</ele><time>2018-04-04T13:42:32.392Z</time></trkpt><trkpt lon="34.853248" lat="31.719462"><ele>168.9</ele><time>2018-04-04T13:42:33.392Z</time></trkpt><trkpt lon="34.853282" lat="31.719478"><ele>168.9</ele><time>2018-04-04T13:42:34.392Z</time></trkpt><trkpt lon="34.853282" lat="31.719478"><ele>168.9</ele><time>2018-04-04T13:42:35.392Z</time></trkpt><trkpt lon="34.853293" lat="31.719482"><ele>168.9</ele><time>2018-04-04T13:42:36.392Z</time></trkpt><trkpt lon="34.85331" lat="31.719487"><ele>168.9</ele><time>2018-04-04T13:42:37.392Z</time></trkpt><trkpt lon="34.853328" lat="31.719493"><ele>168.9</ele><time>2018-04-04T13:42:38.392Z</time></trkpt><trkpt lon="34.853343" lat="31.719505"><ele>168.9</ele><time>2018-04-04T13:42:39.392Z</time></trkpt><trkpt lon="34.853358" lat="31.719518"><ele>168.9</ele><time>2018-04-04T13:42:40.392Z</time></trkpt><trkpt lon="34.853372" lat="31.719533"><ele>168.9</ele><time>2018-04-04T13:42:41.392Z</time></trkpt><trkpt lon="34.853385" lat="31.719553"><ele>168.9</ele><time>2018-04-04T13:42:42.392Z</time></trkpt><trkpt lon="34.853402" lat="31.719577"><ele>168.9</ele><time>2018-04-04T13:42:43.392Z</time></trkpt><trkpt lon="34.853423" lat="31.7196"><ele>168.9</ele><time>2018-04-04T13:42:44.392Z</time></trkpt><trkpt lon="34.85345" lat="31.719623"><ele>168.9</ele><time>2018-04-04T13:42:45.392Z</time></trkpt><trkpt lon="34.853475" lat="31.719642"><ele>168.9</ele><time>2018-04-04T13:42:46.392Z</time></trkpt><trkpt lon="34.853498" lat="31.719657"><ele>168.9</ele><time>2018-04-04T13:42:47.392Z</time></trkpt><trkpt lon="34.853522" lat="31.71967"><ele>168.9</ele><time>2018-04-04T13:42:48.392Z</time></trkpt><trkpt lon="34.853543" lat="31.719685"><ele>168.9</ele><time>2018-04-04T13:42:49.392Z</time></trkpt><trkpt lon="34.853563" lat="31.7197"><ele>168.9</ele><time>2018-04-04T13:42:50.392Z</time></trkpt><trkpt lon="34.853578" lat="31.719715"><ele>168.9</ele><time>2018-04-04T13:42:51.392Z</time></trkpt><trkpt lon="34.853595" lat="31.719732"><ele>168.9</ele><time>2018-04-04T13:42:52.392Z</time></trkpt><trkpt lon="34.853615" lat="31.719747"><ele>168.9</ele><time>2018-04-04T13:42:53.392Z</time></trkpt><trkpt lon="34.85364" lat="31.719755"><ele>168.9</ele><time>2018-04-04T13:42:54.392Z</time></trkpt><trkpt lon="34.853665" lat="31.719753"><ele>168.9</ele><time>2018-04-04T13:42:55.392Z</time></trkpt><trkpt lon="34.853692" lat="31.71975"><ele>168.9</ele><time>2018-04-04T13:42:56.392Z</time></trkpt><trkpt lon="34.853715" lat="31.719757"><ele>168.9</ele><time>2018-04-04T13:42:57.392Z</time></trkpt><trkpt lon="34.85374" lat="31.719767"><ele>168.9</ele><time>2018-04-04T13:42:58.392Z</time></trkpt><trkpt lon="34.853765" lat="31.71978"><ele>168.9</ele><time>2018-04-04T13:42:59.392Z</time></trkpt><trkpt lon="34.85379" lat="31.719792"><ele>168.9</ele><time>2018-04-04T13:43:00.392Z</time></trkpt><trkpt lon="34.853817" lat="31.719805"><ele>168.9</ele><time>2018-04-04T13:43:01.392Z</time></trkpt><trkpt lon="34.853842" lat="31.719818"><ele>168.9</ele><time>2018-04-04T13:43:02.392Z</time></trkpt><trkpt lon="34.853865" lat="31.719837"><ele>168.9</ele><time>2018-04-04T13:43:03.392Z</time></trkpt><trkpt lon="34.85389" lat="31.719858"><ele>168.9</ele><time>2018-04-04T13:43:04.392Z</time></trkpt><trkpt lon="34.853918" lat="31.719875"><ele>168.9</ele><time>2018-04-04T13:43:05.392Z</time></trkpt><trkpt lon="34.853947" lat="31.71989"><ele>168.9</ele><time>2018-04-04T13:43:06.392Z</time></trkpt><trkpt lon="34.853972" lat="31.719897"><ele>168.9</ele><time>2018-04-04T13:43:07.392Z</time></trkpt><trkpt lon="34.85399" lat="31.719905"><ele>169.9</ele><time>2018-04-04T13:43:08.392Z</time></trkpt><trkpt lon="34.854005" lat="31.719913"><ele>169.9</ele><time>2018-04-04T13:43:09.392Z</time></trkpt><trkpt lon="34.854018" lat="31.719925"><ele>169.9</ele><time>2018-04-04T13:43:10.392Z</time></trkpt><trkpt lon="34.85403" lat="31.719933"><ele>169.9</ele><time>2018-04-04T13:43:11.392Z</time></trkpt><trkpt lon="34.854052" lat="31.719937"><ele>169.9</ele><time>2018-04-04T13:43:12.392Z</time></trkpt><trkpt lon="34.854073" lat="31.719937"><ele>169.9</ele><time>2018-04-04T13:43:13.392Z</time></trkpt><trkpt lon="34.854093" lat="31.71994"><ele>170.8</ele><time>2018-04-04T13:43:14.392Z</time></trkpt><trkpt lon="34.85411" lat="31.719948"><ele>170.8</ele><time>2018-04-04T13:43:15.392Z</time></trkpt><trkpt lon="34.854127" lat="31.719955"><ele>170.8</ele><time>2018-04-04T13:43:16.392Z</time></trkpt><trkpt lon="34.854135" lat="31.719967"><ele>170.8</ele><time>2018-04-04T13:43:17.392Z</time></trkpt><trkpt lon="34.854142" lat="31.719983"><ele>170.8</ele><time>2018-04-04T13:43:18.392Z</time></trkpt><trkpt lon="34.854145" lat="31.720003"><ele>170.8</ele><time>2018-04-04T13:43:19.392Z</time></trkpt><trkpt lon="34.854148" lat="31.720023"><ele>170.8</ele><time>2018-04-04T13:43:20.392Z</time></trkpt><trkpt lon="34.854153" lat="31.720043"><ele>170.8</ele><time>2018-04-04T13:43:21.392Z</time></trkpt><trkpt lon="34.854163" lat="31.720063"><ele>171.9</ele><time>2018-04-04T13:43:22.392Z</time></trkpt><trkpt lon="34.854175" lat="31.720085"><ele>171.9</ele><time>2018-04-04T13:43:23.392Z</time></trkpt><trkpt lon="34.85419" lat="31.720102"><ele>171.9</ele><time>2018-04-04T13:43:24.392Z</time></trkpt><trkpt lon="34.8542" lat="31.720122"><ele>171.9</ele><time>2018-04-04T13:43:25.392Z</time></trkpt><trkpt lon="34.85421" lat="31.720142"><ele>171.9</ele><time>2018-04-04T13:43:26.392Z</time></trkpt><trkpt lon="34.854215" lat="31.720162"><ele>171.9</ele><time>2018-04-04T13:43:27.392Z</time></trkpt><trkpt lon="34.854225" lat="31.720178"><ele>171.9</ele><time>2018-04-04T13:43:28.392Z</time></trkpt><trkpt lon="34.85424" lat="31.720192"><ele>171.9</ele><time>2018-04-04T13:43:29.392Z</time></trkpt><trkpt lon="34.854258" lat="31.720202"><ele>171.9</ele><time>2018-04-04T13:43:30.392Z</time></trkpt><trkpt lon="34.85428" lat="31.720212"><ele>171.9</ele><time>2018-04-04T13:43:31.392Z</time></trkpt><trkpt lon="34.854298" lat="31.72022"><ele>171.9</ele><time>2018-04-04T13:43:32.392Z</time></trkpt><trkpt lon="34.854315" lat="31.720232"><ele>171.9</ele><time>2018-04-04T13:43:33.392Z</time></trkpt><trkpt lon="34.854332" lat="31.72024"><ele>172.8</ele><time>2018-04-04T13:43:34.392Z</time></trkpt><trkpt lon="34.854348" lat="31.720243"><ele>172.8</ele><time>2018-04-04T13:43:35.392Z</time></trkpt><trkpt lon="34.854362" lat="31.720252"><ele>172.8</ele><time>2018-04-04T13:43:36.392Z</time></trkpt><trkpt lon="34.854373" lat="31.720263"><ele>172.8</ele><time>2018-04-04T13:43:37.392Z</time></trkpt><trkpt lon="34.854385" lat="31.720275"><ele>172.8</ele><time>2018-04-04T13:43:38.392Z</time></trkpt><trkpt lon="34.8544" lat="31.72029"><ele>172.8</ele><time>2018-04-04T13:43:39.392Z</time></trkpt><trkpt lon="34.854418" lat="31.720302"><ele>173.9</ele><time>2018-04-04T13:43:40.392Z</time></trkpt><trkpt lon="34.854435" lat="31.720313"><ele>173.9</ele><time>2018-04-04T13:43:41.392Z</time></trkpt><trkpt lon="34.854447" lat="31.720328"><ele>173.9</ele><time>2018-04-04T13:43:42.392Z</time></trkpt><trkpt lon="34.854455" lat="31.720338"><ele>173.9</ele><time>2018-04-04T13:43:43.392Z</time></trkpt><trkpt lon="34.854462" lat="31.72034"><ele>173.9</ele><time>2018-04-04T13:43:44.392Z</time></trkpt><trkpt lon="34.854467" lat="31.720343"><ele>173.9</ele><time>2018-04-04T13:43:45.392Z</time></trkpt><trkpt lon="34.85447" lat="31.720345"><ele>174.8</ele><time>2018-04-04T13:43:46.392Z</time></trkpt><trkpt lon="34.854472" lat="31.720342"><ele>174.8</ele><time>2018-04-04T13:43:47.392Z</time></trkpt><trkpt lon="34.854478" lat="31.720343"><ele>174.8</ele><time>2018-04-04T13:43:48.392Z</time></trkpt><trkpt lon="34.854487" lat="31.720343"><ele>174.8</ele><time>2018-04-04T13:43:49.392Z</time></trkpt><trkpt lon="34.854495" lat="31.720345"><ele>174.8</ele><time>2018-04-04T13:43:50.392Z</time></trkpt><trkpt lon="34.854502" lat="31.720348"><ele>174.8</ele><time>2018-04-04T13:43:51.392Z</time></trkpt><trkpt lon="34.85451" lat="31.720352"><ele>174.8</ele><time>2018-04-04T13:43:52.392Z</time></trkpt><trkpt lon="34.854517" lat="31.720353"><ele>174.8</ele><time>2018-04-04T13:43:53.392Z</time></trkpt><trkpt lon="34.854523" lat="31.720355"><ele>174.8</ele><time>2018-04-04T13:43:54.392Z</time></trkpt><trkpt lon="34.85453" lat="31.720358"><ele>174.8</ele><time>2018-04-04T13:43:55.392Z</time></trkpt><trkpt lon="34.854533" lat="31.720362"><ele>175.9</ele><time>2018-04-04T13:43:56.392Z</time></trkpt><trkpt lon="34.854535" lat="31.720365"><ele>175.9</ele><time>2018-04-04T13:43:57.392Z</time></trkpt><trkpt lon="34.854537" lat="31.72037"><ele>175.9</ele><time>2018-04-04T13:43:58.392Z</time></trkpt><trkpt lon="34.854537" lat="31.720372"><ele>175.9</ele><time>2018-04-04T13:43:59.392Z</time></trkpt><trkpt lon="34.854535" lat="31.720377"><ele>175.9</ele><time>2018-04-04T13:44:00.392Z</time></trkpt><trkpt lon="34.85453" lat="31.720395"><ele>175.9</ele><time>2018-04-04T13:44:28.392Z</time></trkpt><trkpt lon="34.854527" lat="31.7204"><ele>175.9</ele><time>2018-04-04T13:44:29.392Z</time></trkpt><trkpt lon="34.854525" lat="31.720408"><ele>175.9</ele><time>2018-04-04T13:44:30.392Z</time></trkpt><trkpt lon="34.854525" lat="31.72041"><ele>175.9</ele><time>2018-04-04T13:44:31.392Z</time></trkpt><trkpt lon="34.854525" lat="31.72041"><ele>175.9</ele><time>2018-04-04T13:44:32.392Z</time></trkpt><trkpt lon="34.854525" lat="31.720412"><ele>175.9</ele><time>2018-04-04T13:44:33.392Z</time></trkpt><trkpt lon="34.854513" lat="31.72042"><ele>175.9</ele><time>2018-04-04T13:45:02.392Z</time></trkpt><trkpt lon="34.85451" lat="31.720425"><ele>175.9</ele><time>2018-04-04T13:45:03.392Z</time></trkpt><trkpt lon="34.854507" lat="31.72043"><ele>175.9</ele><time>2018-04-04T13:45:04.392Z</time></trkpt><trkpt lon="34.854505" lat="31.720435"><ele>175.9</ele><time>2018-04-04T13:45:05.392Z</time></trkpt><trkpt lon="34.854505" lat="31.72044"><ele>175.9</ele><time>2018-04-04T13:45:06.392Z</time></trkpt><trkpt lon="34.854505" lat="31.720442"><ele>175.9</ele><time>2018-04-04T13:45:07.392Z</time></trkpt><trkpt lon="34.854507" lat="31.72044"><ele>175.9</ele><time>2018-04-04T13:45:08.392Z</time></trkpt><trkpt lon="34.854525" lat="31.72046"><ele>175.9</ele><time>2018-04-04T13:45:48.392Z</time></trkpt><trkpt lon="34.854532" lat="31.720472"><ele>175.9</ele><time>2018-04-04T13:45:49.392Z</time></trkpt><trkpt lon="34.85454" lat="31.720483"><ele>175.9</ele><time>2018-04-04T13:45:50.392Z</time></trkpt><trkpt lon="34.854553" lat="31.720497"><ele>175.9</ele><time>2018-04-04T13:45:51.392Z</time></trkpt><trkpt lon="34.854563" lat="31.720513"><ele>175.9</ele><time>2018-04-04T13:45:52.392Z</time></trkpt><trkpt lon="34.854568" lat="31.720527"><ele>175.9</ele><time>2018-04-04T13:45:53.392Z</time></trkpt><trkpt lon="34.854577" lat="31.720542"><ele>175.9</ele><time>2018-04-04T13:45:54.392Z</time></trkpt><trkpt lon="34.854588" lat="31.720557"><ele>175.9</ele><time>2018-04-04T13:45:55.392Z</time></trkpt><trkpt lon="34.854605" lat="31.72057"><ele>175.9</ele><time>2018-04-04T13:45:56.392Z</time></trkpt><trkpt lon="34.854618" lat="31.720582"><ele>175.9</ele><time>2018-04-04T13:45:57.392Z</time></trkpt><trkpt lon="34.854627" lat="31.720592"><ele>175.9</ele><time>2018-04-04T13:45:58.392Z</time></trkpt><trkpt lon="34.854637" lat="31.720603"><ele>175.9</ele><time>2018-04-04T13:45:59.392Z</time></trkpt><trkpt lon="34.854645" lat="31.720617"><ele>175.9</ele><time>2018-04-04T13:46:00.392Z</time></trkpt><trkpt lon="34.854653" lat="31.720633"><ele>175.9</ele><time>2018-04-04T13:46:01.392Z</time></trkpt><trkpt lon="34.854658" lat="31.720653"><ele>175.9</ele><time>2018-04-04T13:46:02.392Z</time></trkpt><trkpt lon="34.854662" lat="31.720677"><ele>175.9</ele><time>2018-04-04T13:46:03.392Z</time></trkpt><trkpt lon="34.854668" lat="31.7207"><ele>175.9</ele><time>2018-04-04T13:46:04.392Z</time></trkpt><trkpt lon="34.854685" lat="31.72072"><ele>175.9</ele><time>2018-04-04T13:46:05.392Z</time></trkpt><trkpt lon="34.854707" lat="31.720738"><ele>175.9</ele><time>2018-04-04T13:46:06.392Z</time></trkpt><trkpt lon="34.85473" lat="31.72075"><ele>175.9</ele><time>2018-04-04T13:46:07.392Z</time></trkpt><trkpt lon="34.854755" lat="31.720758"><ele>175.9</ele><time>2018-04-04T13:46:08.392Z</time></trkpt><trkpt lon="34.854782" lat="31.720767"><ele>175.9</ele><time>2018-04-04T13:46:09.392Z</time></trkpt><trkpt lon="34.854807" lat="31.720775"><ele>175.9</ele><time>2018-04-04T13:46:10.392Z</time></trkpt><trkpt lon="34.854833" lat="31.720783"><ele>175.9</ele><time>2018-04-04T13:46:11.392Z</time></trkpt><trkpt lon="34.854858" lat="31.72079"><ele>176.9</ele><time>2018-04-04T13:46:12.392Z</time></trkpt><trkpt lon="34.854883" lat="31.720793"><ele>176.9</ele><time>2018-04-04T13:46:13.392Z</time></trkpt><trkpt lon="34.854903" lat="31.720798"><ele>176.9</ele><time>2018-04-04T13:46:14.392Z</time></trkpt><trkpt lon="34.854923" lat="31.720805"><ele>176.9</ele><time>2018-04-04T13:46:15.392Z</time></trkpt><trkpt lon="34.854938" lat="31.720813"><ele>177.9</ele><time>2018-04-04T13:46:16.392Z</time></trkpt><trkpt lon="34.85496" lat="31.72082"><ele>177.9</ele><time>2018-04-04T13:46:17.392Z</time></trkpt><trkpt lon="34.85498" lat="31.720828"><ele>177.9</ele><time>2018-04-04T13:46:18.392Z</time></trkpt><trkpt lon="34.855" lat="31.720837"><ele>177.9</ele><time>2018-04-04T13:46:19.392Z</time></trkpt><trkpt lon="34.855018" lat="31.720845"><ele>177.9</ele><time>2018-04-04T13:46:20.392Z</time></trkpt><trkpt lon="34.855037" lat="31.720855"><ele>177.9</ele><time>2018-04-04T13:46:21.392Z</time></trkpt><trkpt lon="34.855052" lat="31.720865"><ele>177.9</ele><time>2018-04-04T13:46:22.392Z</time></trkpt><trkpt lon="34.855065" lat="31.720877"><ele>177.9</ele><time>2018-04-04T13:46:23.392Z</time></trkpt><trkpt lon="34.855078" lat="31.720888"><ele>177.9</ele><time>2018-04-04T13:46:24.392Z</time></trkpt><trkpt lon="34.855095" lat="31.7209"><ele>177.9</ele><time>2018-04-04T13:46:25.392Z</time></trkpt><trkpt lon="34.855108" lat="31.720915"><ele>177.9</ele><time>2018-04-04T13:46:26.392Z</time></trkpt><trkpt lon="34.855122" lat="31.72093"><ele>177.9</ele><time>2018-04-04T13:46:27.392Z</time></trkpt><trkpt lon="34.855135" lat="31.720947"><ele>177.9</ele><time>2018-04-04T13:46:28.392Z</time></trkpt><trkpt lon="34.855148" lat="31.720965"><ele>177.9</ele><time>2018-04-04T13:46:29.392Z</time></trkpt><trkpt lon="34.85516" lat="31.720985"><ele>178.9</ele><time>2018-04-04T13:46:30.392Z</time></trkpt><trkpt lon="34.855172" lat="31.721005"><ele>178.9</ele><time>2018-04-04T13:46:31.392Z</time></trkpt><trkpt lon="34.855185" lat="31.721025"><ele>178.9</ele><time>2018-04-04T13:46:32.392Z</time></trkpt><trkpt lon="34.855202" lat="31.721043"><ele>178.9</ele><time>2018-04-04T13:46:33.392Z</time></trkpt><trkpt lon="34.855212" lat="31.721063"><ele>178.9</ele><time>2018-04-04T13:46:34.392Z</time></trkpt><trkpt lon="34.855223" lat="31.721085"><ele>178.9</ele><time>2018-04-04T13:46:35.392Z</time></trkpt><trkpt lon="34.855233" lat="31.721105"><ele>178.9</ele><time>2018-04-04T13:46:36.392Z</time></trkpt><trkpt lon="34.855243" lat="31.721127"><ele>178.9</ele><time>2018-04-04T13:46:37.392Z</time></trkpt><trkpt lon="34.855252" lat="31.72115"><ele>178.9</ele><time>2018-04-04T13:46:38.392Z</time></trkpt><trkpt lon="34.855262" lat="31.721175"><ele>178.9</ele><time>2018-04-04T13:46:39.392Z</time></trkpt><trkpt lon="34.85527" lat="31.721202"><ele>177.9</ele><time>2018-04-04T13:46:40.392Z</time></trkpt><trkpt lon="34.855273" lat="31.72123"><ele>177.9</ele><time>2018-04-04T13:46:41.392Z</time></trkpt><trkpt lon="34.855273" lat="31.721258"><ele>177.9</ele><time>2018-04-04T13:46:42.392Z</time></trkpt><trkpt lon="34.855265" lat="31.721287"><ele>177.9</ele><time>2018-04-04T13:46:43.392Z</time></trkpt><trkpt lon="34.855262" lat="31.721318"><ele>177.9</ele><time>2018-04-04T13:46:44.392Z</time></trkpt><trkpt lon="34.85526" lat="31.721353"><ele>177.9</ele><time>2018-04-04T13:46:45.392Z</time></trkpt><trkpt lon="34.855268" lat="31.721392"><ele>177.9</ele><time>2018-04-04T13:46:46.392Z</time></trkpt><trkpt lon="34.855283" lat="31.721435"><ele>177.9</ele><time>2018-04-04T13:46:47.392Z</time></trkpt><trkpt lon="34.855305" lat="31.721475"><ele>177.9</ele><time>2018-04-04T13:46:48.392Z</time></trkpt><trkpt lon="34.855328" lat="31.721513"><ele>177.9</ele><time>2018-04-04T13:46:49.392Z</time></trkpt><trkpt lon="34.855357" lat="31.721547"><ele>177.9</ele><time>2018-04-04T13:46:50.392Z</time></trkpt><trkpt lon="34.85538" lat="31.721577"><ele>177.9</ele><time>2018-04-04T13:46:51.392Z</time></trkpt><trkpt lon="34.855398" lat="31.7216"><ele>177.9</ele><time>2018-04-04T13:46:52.392Z</time></trkpt><trkpt lon="34.85541" lat="31.721623"><ele>177.9</ele><time>2018-04-04T13:46:53.392Z</time></trkpt><trkpt lon="34.85542" lat="31.721647"><ele>177.9</ele><time>2018-04-04T13:46:54.392Z</time></trkpt><trkpt lon="34.855433" lat="31.721673"><ele>177.9</ele><time>2018-04-04T13:46:55.392Z</time></trkpt><trkpt lon="34.855455" lat="31.721695"><ele>177.9</ele><time>2018-04-04T13:46:56.392Z</time></trkpt><trkpt lon="34.855478" lat="31.721715"><ele>177.9</ele><time>2018-04-04T13:46:57.392Z</time></trkpt><trkpt lon="34.855502" lat="31.721735"><ele>177.9</ele><time>2018-04-04T13:46:58.392Z</time></trkpt><trkpt lon="34.855527" lat="31.721753"><ele>177.9</ele><time>2018-04-04T13:46:59.392Z</time></trkpt><trkpt lon="34.855553" lat="31.721768"><ele>177.9</ele><time>2018-04-04T13:47:00.392Z</time></trkpt><trkpt lon="34.855577" lat="31.721787"><ele>177.9</ele><time>2018-04-04T13:47:01.392Z</time></trkpt><trkpt lon="34.855597" lat="31.721803"><ele>177.9</ele><time>2018-04-04T13:47:02.392Z</time></trkpt><trkpt lon="34.855618" lat="31.721823"><ele>177.9</ele><time>2018-04-04T13:47:03.392Z</time></trkpt><trkpt lon="34.855642" lat="31.721842"><ele>177.9</ele><time>2018-04-04T13:47:04.392Z</time></trkpt><trkpt lon="34.855667" lat="31.72186"><ele>177.9</ele><time>2018-04-04T13:47:05.392Z</time></trkpt><trkpt lon="34.855693" lat="31.721877"><ele>177.9</ele><time>2018-04-04T13:47:06.392Z</time></trkpt><trkpt lon="34.85572" lat="31.721895"><ele>177.9</ele><time>2018-04-04T13:47:07.392Z</time></trkpt><trkpt lon="34.855752" lat="31.721912"><ele>177.9</ele><time>2018-04-04T13:47:08.392Z</time></trkpt><trkpt lon="34.855782" lat="31.72193"><ele>177.9</ele><time>2018-04-04T13:47:09.392Z</time></trkpt><trkpt lon="34.855807" lat="31.72195"><ele>177.9</ele><time>2018-04-04T13:47:10.392Z</time></trkpt><trkpt lon="34.855833" lat="31.721968"><ele>177.9</ele><time>2018-04-04T13:47:11.392Z</time></trkpt><trkpt lon="34.855857" lat="31.72199"><ele>177.9</ele><time>2018-04-04T13:47:12.392Z</time></trkpt><trkpt lon="34.855873" lat="31.722015"><ele>177.9</ele><time>2018-04-04T13:47:13.392Z</time></trkpt><trkpt lon="34.85589" lat="31.722038"><ele>177.9</ele><time>2018-04-04T13:47:14.392Z</time></trkpt><trkpt lon="34.855903" lat="31.72206"><ele>177.9</ele><time>2018-04-04T13:47:15.392Z</time></trkpt><trkpt lon="34.855908" lat="31.722085"><ele>177.9</ele><time>2018-04-04T13:47:16.392Z</time></trkpt><trkpt lon="34.85591" lat="31.722115"><ele>177.9</ele><time>2018-04-04T13:47:17.392Z</time></trkpt><trkpt lon="34.855913" lat="31.722148"><ele>177.9</ele><time>2018-04-04T13:47:18.392Z</time></trkpt><trkpt lon="34.855925" lat="31.72218"><ele>177.9</ele><time>2018-04-04T13:47:19.392Z</time></trkpt><trkpt lon="34.855938" lat="31.722207"><ele>177.9</ele><time>2018-04-04T13:47:20.392Z</time></trkpt><trkpt lon="34.855955" lat="31.72223"><ele>177.9</ele><time>2018-04-04T13:47:21.392Z</time></trkpt><trkpt lon="34.855973" lat="31.72225"><ele>177.9</ele><time>2018-04-04T13:47:22.392Z</time></trkpt><trkpt lon="34.85599" lat="31.722267"><ele>177.9</ele><time>2018-04-04T13:47:23.392Z</time></trkpt><trkpt lon="34.85601" lat="31.722282"><ele>177.9</ele><time>2018-04-04T13:47:24.392Z</time></trkpt><trkpt lon="34.856028" lat="31.722295"><ele>177.9</ele><time>2018-04-04T13:47:25.392Z</time></trkpt><trkpt lon="34.856048" lat="31.72231"><ele>177.9</ele><time>2018-04-04T13:47:26.392Z</time></trkpt><trkpt lon="34.856065" lat="31.722327"><ele>177.9</ele><time>2018-04-04T13:47:27.392Z</time></trkpt><trkpt lon="34.856075" lat="31.722347"><ele>177.9</ele><time>2018-04-04T13:47:28.392Z</time></trkpt><trkpt lon="34.856082" lat="31.72237"><ele>177.9</ele><time>2018-04-04T13:47:29.392Z</time></trkpt><trkpt lon="34.856087" lat="31.722397"><ele>177.9</ele><time>2018-04-04T13:47:30.392Z</time></trkpt><trkpt lon="34.856092" lat="31.722422"><ele>177.9</ele><time>2018-04-04T13:47:31.392Z</time></trkpt><trkpt lon="34.856103" lat="31.722442"><ele>177.9</ele><time>2018-04-04T13:47:32.392Z</time></trkpt><trkpt lon="34.856118" lat="31.722457"><ele>177.9</ele><time>2018-04-04T13:47:33.392Z</time></trkpt><trkpt lon="34.856137" lat="31.722468"><ele>177.9</ele><time>2018-04-04T13:47:34.392Z</time></trkpt><trkpt lon="34.85615" lat="31.722482"><ele>177.9</ele><time>2018-04-04T13:47:35.392Z</time></trkpt><trkpt lon="34.856158" lat="31.722498"><ele>177.9</ele><time>2018-04-04T13:47:36.392Z</time></trkpt><trkpt lon="34.856158" lat="31.722515"><ele>177.9</ele><time>2018-04-04T13:47:37.392Z</time></trkpt><trkpt lon="34.856152" lat="31.722537"><ele>176.9</ele><time>2018-04-04T13:47:38.392Z</time></trkpt><trkpt lon="34.856148" lat="31.72256"><ele>176.9</ele><time>2018-04-04T13:47:39.392Z</time></trkpt><trkpt lon="34.856147" lat="31.722585"><ele>176.9</ele><time>2018-04-04T13:47:40.392Z</time></trkpt><trkpt lon="34.85615" lat="31.72261"><ele>176.9</ele><time>2018-04-04T13:47:41.392Z</time></trkpt><trkpt lon="34.856155" lat="31.722638"><ele>176.9</ele><time>2018-04-04T13:47:42.392Z</time></trkpt><trkpt lon="34.856158" lat="31.722668"><ele>176.9</ele><time>2018-04-04T13:47:43.392Z</time></trkpt><trkpt lon="34.856167" lat="31.722693"><ele>176.9</ele><time>2018-04-04T13:47:44.392Z</time></trkpt><trkpt lon="34.85618" lat="31.722715"><ele>176.9</ele><time>2018-04-04T13:47:45.392Z</time></trkpt><trkpt lon="34.8562" lat="31.722732"><ele>176.9</ele><time>2018-04-04T13:47:46.392Z</time></trkpt><trkpt lon="34.856215" lat="31.72275"><ele>176.9</ele><time>2018-04-04T13:47:47.392Z</time></trkpt><trkpt lon="34.856223" lat="31.72277"><ele>176.9</ele><time>2018-04-04T13:47:48.392Z</time></trkpt><trkpt lon="34.856225" lat="31.722793"><ele>176.9</ele><time>2018-04-04T13:47:49.392Z</time></trkpt><trkpt lon="34.856227" lat="31.722815"><ele>176.9</ele><time>2018-04-04T13:47:50.392Z</time></trkpt><trkpt lon="34.856232" lat="31.722837"><ele>176.9</ele><time>2018-04-04T13:47:51.392Z</time></trkpt><trkpt lon="34.856243" lat="31.722858"><ele>176.9</ele><time>2018-04-04T13:47:52.392Z</time></trkpt><trkpt lon="34.85626" lat="31.72288"><ele>176.9</ele><time>2018-04-04T13:47:53.392Z</time></trkpt><trkpt lon="34.85628" lat="31.722903"><ele>176.9</ele><time>2018-04-04T13:47:54.392Z</time></trkpt><trkpt lon="34.8563" lat="31.722923"><ele>176.9</ele><time>2018-04-04T13:47:55.392Z</time></trkpt><trkpt lon="34.856322" lat="31.72294"><ele>176.9</ele><time>2018-04-04T13:47:56.392Z</time></trkpt><trkpt lon="34.856338" lat="31.72296"><ele>176.9</ele><time>2018-04-04T13:47:57.392Z</time></trkpt><trkpt lon="34.856355" lat="31.722982"><ele>176.9</ele><time>2018-04-04T13:47:58.392Z</time></trkpt><trkpt lon="34.85637" lat="31.723008"><ele>176.9</ele><time>2018-04-04T13:47:59.392Z</time></trkpt><trkpt lon="34.856382" lat="31.723035"><ele>175.9</ele><time>2018-04-04T13:48:00.392Z</time></trkpt><trkpt lon="34.85639" lat="31.723062"><ele>175.9</ele><time>2018-04-04T13:48:01.392Z</time></trkpt><trkpt lon="34.856397" lat="31.723087"><ele>175.9</ele><time>2018-04-04T13:48:02.392Z</time></trkpt><trkpt lon="34.856408" lat="31.72311"><ele>175.9</ele><time>2018-04-04T13:48:03.392Z</time></trkpt><trkpt lon="34.856427" lat="31.723163"><ele>175.9</ele><time>2018-04-04T13:48:04.392Z</time></trkpt><trkpt lon="34.856427" lat="31.723163"><ele>175.9</ele><time>2018-04-04T13:48:05.392Z</time></trkpt><trkpt lon="34.85644" lat="31.723188"><ele>175.9</ele><time>2018-04-04T13:48:06.392Z</time></trkpt><trkpt lon="34.856457" lat="31.723208"><ele>175.9</ele><time>2018-04-04T13:48:07.392Z</time></trkpt><trkpt lon="34.85648" lat="31.723225"><ele>174.8</ele><time>2018-04-04T13:48:08.392Z</time></trkpt><trkpt lon="34.856498" lat="31.723243"><ele>174.8</ele><time>2018-04-04T13:48:09.392Z</time></trkpt><trkpt lon="34.85651" lat="31.723263"><ele>174.8</ele><time>2018-04-04T13:48:10.392Z</time></trkpt><trkpt lon="34.85652" lat="31.723277"><ele>174.8</ele><time>2018-04-04T13:48:11.392Z</time></trkpt><trkpt lon="34.856533" lat="31.723288"><ele>173.9</ele><time>2018-04-04T13:48:12.392Z</time></trkpt><trkpt lon="34.856548" lat="31.723303"><ele>173.9</ele><time>2018-04-04T13:48:13.392Z</time></trkpt><trkpt lon="34.856562" lat="31.72332"><ele>173.9</ele><time>2018-04-04T13:48:14.392Z</time></trkpt><trkpt lon="34.856573" lat="31.723345"><ele>173.9</ele><time>2018-04-04T13:48:15.392Z</time></trkpt><trkpt lon="34.856592" lat="31.72337"><ele>172.8</ele><time>2018-04-04T13:48:16.392Z</time></trkpt><trkpt lon="34.856615" lat="31.723393"><ele>172.8</ele><time>2018-04-04T13:48:17.392Z</time></trkpt><trkpt lon="34.856642" lat="31.72341"><ele>172.8</ele><time>2018-04-04T13:48:18.392Z</time></trkpt><trkpt lon="34.856673" lat="31.72342"><ele>172.8</ele><time>2018-04-04T13:48:19.392Z</time></trkpt><trkpt lon="34.856712" lat="31.723427"><ele>171.9</ele><time>2018-04-04T13:48:20.392Z</time></trkpt><trkpt lon="34.856748" lat="31.723433"><ele>171.9</ele><time>2018-04-04T13:48:21.392Z</time></trkpt><trkpt lon="34.856785" lat="31.723443"><ele>171.9</ele><time>2018-04-04T13:48:22.392Z</time></trkpt><trkpt lon="34.856822" lat="31.723462"><ele>171.9</ele><time>2018-04-04T13:48:23.392Z</time></trkpt><trkpt lon="34.856865" lat="31.723473"><ele>170.8</ele><time>2018-04-04T13:48:24.392Z</time></trkpt><trkpt lon="34.856912" lat="31.723482"><ele>170.8</ele><time>2018-04-04T13:48:25.392Z</time></trkpt><trkpt lon="34.856962" lat="31.723483"><ele>170.8</ele><time>2018-04-04T13:48:26.392Z</time></trkpt><trkpt lon="34.857013" lat="31.723483"><ele>170.8</ele><time>2018-04-04T13:48:27.392Z</time></trkpt><trkpt lon="34.857062" lat="31.723483"><ele>169.9</ele><time>2018-04-04T13:48:28.392Z</time></trkpt><trkpt lon="34.85711" lat="31.723487"><ele>169.9</ele><time>2018-04-04T13:48:29.392Z</time></trkpt><trkpt lon="34.857157" lat="31.723497"><ele>169.9</ele><time>2018-04-04T13:48:30.392Z</time></trkpt><trkpt lon="34.857207" lat="31.723503"><ele>169.9</ele><time>2018-04-04T13:48:31.392Z</time></trkpt><trkpt lon="34.857255" lat="31.723515"><ele>168.9</ele><time>2018-04-04T13:48:32.392Z</time></trkpt><trkpt lon="34.857303" lat="31.72353"><ele>168.9</ele><time>2018-04-04T13:48:33.392Z</time></trkpt><trkpt lon="34.85735" lat="31.723543"><ele>168.9</ele><time>2018-04-04T13:48:34.392Z</time></trkpt><trkpt lon="34.857397" lat="31.723558"><ele>168.9</ele><time>2018-04-04T13:48:35.392Z</time></trkpt><trkpt lon="34.857443" lat="31.723577"><ele>168.9</ele><time>2018-04-04T13:48:36.392Z</time></trkpt><trkpt lon="34.857485" lat="31.723602"><ele>168.9</ele><time>2018-04-04T13:48:37.392Z</time></trkpt><trkpt lon="34.857518" lat="31.723627"><ele>168.9</ele><time>2018-04-04T13:48:38.392Z</time></trkpt><trkpt lon="34.857545" lat="31.723652"><ele>168.9</ele><time>2018-04-04T13:48:39.392Z</time></trkpt><trkpt lon="34.857562" lat="31.723678"><ele>168.9</ele><time>2018-04-04T13:48:40.392Z</time></trkpt><trkpt lon="34.857563" lat="31.723702"><ele>168.9</ele><time>2018-04-04T13:48:41.392Z</time></trkpt><trkpt lon="34.857562" lat="31.723723"><ele>168.9</ele><time>2018-04-04T13:48:42.392Z</time></trkpt><trkpt lon="34.85756" lat="31.723743"><ele>168.9</ele><time>2018-04-04T13:48:43.392Z</time></trkpt><trkpt lon="34.857558" lat="31.723763"><ele>168.9</ele><time>2018-04-04T13:48:44.392Z</time></trkpt><trkpt lon="34.857558" lat="31.723782"><ele>168.9</ele><time>2018-04-04T13:48:45.392Z</time></trkpt><trkpt lon="34.857563" lat="31.7238"><ele>168.9</ele><time>2018-04-04T13:48:46.392Z</time></trkpt><trkpt lon="34.857565" lat="31.723817"><ele>168.9</ele><time>2018-04-04T13:48:47.392Z</time></trkpt><trkpt lon="34.857563" lat="31.723832"><ele>168.9</ele><time>2018-04-04T13:48:48.392Z</time></trkpt><trkpt lon="34.857558" lat="31.723845"><ele>168.9</ele><time>2018-04-04T13:48:49.392Z</time></trkpt><trkpt lon="34.857555" lat="31.723863"><ele>168.9</ele><time>2018-04-04T13:48:50.392Z</time></trkpt><trkpt lon="34.857548" lat="31.72388"><ele>168.9</ele><time>2018-04-04T13:48:51.392Z</time></trkpt><trkpt lon="34.85754" lat="31.723898"><ele>168.9</ele><time>2018-04-04T13:48:52.392Z</time></trkpt><trkpt lon="34.85753" lat="31.723917"><ele>168.9</ele><time>2018-04-04T13:48:53.392Z</time></trkpt><trkpt lon="34.85752" lat="31.723938"><ele>168.9</ele><time>2018-04-04T13:48:54.392Z</time></trkpt><trkpt lon="34.857512" lat="31.723962"><ele>168.9</ele><time>2018-04-04T13:48:55.392Z</time></trkpt><trkpt lon="34.857503" lat="31.723987"><ele>168.9</ele><time>2018-04-04T13:48:56.392Z</time></trkpt><trkpt lon="34.857493" lat="31.724013"><ele>168.9</ele><time>2018-04-04T13:48:57.392Z</time></trkpt><trkpt lon="34.857482" lat="31.724042"><ele>168.9</ele><time>2018-04-04T13:48:58.392Z</time></trkpt><trkpt lon="34.857468" lat="31.724068"><ele>168.9</ele><time>2018-04-04T13:48:59.392Z</time></trkpt><trkpt lon="34.85745" lat="31.724093"><ele>168.9</ele><time>2018-04-04T13:49:00.392Z</time></trkpt><trkpt lon="34.85744" lat="31.724118"><ele>168.9</ele><time>2018-04-04T13:49:01.392Z</time></trkpt><trkpt lon="34.857437" lat="31.724147"><ele>168.9</ele><time>2018-04-04T13:49:02.392Z</time></trkpt><trkpt lon="34.857438" lat="31.724173"><ele>168.9</ele><time>2018-04-04T13:49:03.392Z</time></trkpt><trkpt lon="34.857437" lat="31.724202"><ele>168.9</ele><time>2018-04-04T13:49:04.392Z</time></trkpt><trkpt lon="34.857435" lat="31.724232"><ele>168.9</ele><time>2018-04-04T13:49:05.392Z</time></trkpt><trkpt lon="34.857432" lat="31.72426"><ele>168.9</ele><time>2018-04-04T13:49:06.392Z</time></trkpt><trkpt lon="34.857432" lat="31.724288"><ele>168.9</ele><time>2018-04-04T13:49:07.392Z</time></trkpt><trkpt lon="34.857437" lat="31.724313"><ele>168.9</ele><time>2018-04-04T13:49:08.392Z</time></trkpt><trkpt lon="34.857442" lat="31.724335"><ele>168.9</ele><time>2018-04-04T13:49:09.392Z</time></trkpt><trkpt lon="34.857448" lat="31.724357"><ele>168.9</ele><time>2018-04-04T13:49:10.392Z</time></trkpt><trkpt lon="34.857452" lat="31.724377"><ele>168.9</ele><time>2018-04-04T13:49:11.392Z</time></trkpt><trkpt lon="34.85746" lat="31.724395"><ele>168.9</ele><time>2018-04-04T13:49:12.392Z</time></trkpt><trkpt lon="34.85747" lat="31.724413"><ele>168.9</ele><time>2018-04-04T13:49:13.392Z</time></trkpt><trkpt lon="34.857477" lat="31.724432"><ele>168.9</ele><time>2018-04-04T13:49:14.392Z</time></trkpt><trkpt lon="34.857478" lat="31.72445"><ele>168.9</ele><time>2018-04-04T13:49:15.392Z</time></trkpt><trkpt lon="34.857485" lat="31.72447"><ele>168.9</ele><time>2018-04-04T13:49:16.392Z</time></trkpt><trkpt lon="34.857495" lat="31.72449"><ele>168.9</ele><time>2018-04-04T13:49:17.392Z</time></trkpt><trkpt lon="34.857508" lat="31.724508"><ele>169.9</ele><time>2018-04-04T13:49:18.392Z</time></trkpt><trkpt lon="34.857525" lat="31.724525"><ele>169.9</ele><time>2018-04-04T13:49:19.392Z</time></trkpt><trkpt lon="34.857543" lat="31.72454"><ele>169.9</ele><time>2018-04-04T13:49:20.392Z</time></trkpt><trkpt lon="34.857557" lat="31.724555"><ele>169.9</ele><time>2018-04-04T13:49:21.392Z</time></trkpt><trkpt lon="34.857563" lat="31.724567"><ele>169.9</ele><time>2018-04-04T13:49:22.392Z</time></trkpt><trkpt lon="34.857562" lat="31.724575"><ele>169.9</ele><time>2018-04-04T13:49:23.392Z</time></trkpt><trkpt lon="34.857565" lat="31.724578"><ele>169.9</ele><time>2018-04-04T13:49:24.392Z</time></trkpt><trkpt lon="34.857568" lat="31.724578"><ele>169.9</ele><time>2018-04-04T13:49:25.392Z</time></trkpt><trkpt lon="34.85757" lat="31.724577"><ele>170.8</ele><time>2018-04-04T13:49:26.392Z</time></trkpt><trkpt lon="34.85757" lat="31.724578"><ele>170.8</ele><time>2018-04-04T13:49:27.392Z</time></trkpt><trkpt lon="34.857563" lat="31.724592"><ele>170.8</ele><time>2018-04-04T13:49:34.392Z</time></trkpt><trkpt lon="34.857565" lat="31.724602"><ele>170.8</ele><time>2018-04-04T13:49:35.392Z</time></trkpt><trkpt lon="34.85757" lat="31.724617"><ele>170.8</ele><time>2018-04-04T13:49:36.392Z</time></trkpt><trkpt lon="34.857573" lat="31.724635"><ele>170.8</ele><time>2018-04-04T13:49:37.392Z</time></trkpt><trkpt lon="34.857575" lat="31.724655"><ele>170.8</ele><time>2018-04-04T13:49:38.392Z</time></trkpt><trkpt lon="34.85758" lat="31.72467"><ele>170.8</ele><time>2018-04-04T13:49:39.392Z</time></trkpt><trkpt lon="34.85759" lat="31.724682"><ele>171.9</ele><time>2018-04-04T13:49:40.392Z</time></trkpt><trkpt lon="34.857598" lat="31.724695"><ele>171.9</ele><time>2018-04-04T13:49:41.392Z</time></trkpt><trkpt lon="34.857603" lat="31.724707"><ele>171.9</ele><time>2018-04-04T13:49:42.392Z</time></trkpt><trkpt lon="34.857612" lat="31.724717"><ele>171.9</ele><time>2018-04-04T13:49:43.392Z</time></trkpt><trkpt lon="34.857623" lat="31.724728"><ele>171.9</ele><time>2018-04-04T13:49:44.392Z</time></trkpt><trkpt lon="34.857635" lat="31.724737"><ele>171.9</ele><time>2018-04-04T13:49:45.392Z</time></trkpt><trkpt lon="34.857647" lat="31.724742"><ele>171.9</ele><time>2018-04-04T13:49:46.392Z</time></trkpt><trkpt lon="34.85765" lat="31.724747"><ele>171.9</ele><time>2018-04-04T13:49:47.392Z</time></trkpt><trkpt lon="34.857655" lat="31.724752"><ele>172.8</ele><time>2018-04-04T13:49:48.392Z</time></trkpt><trkpt lon="34.857662" lat="31.724757"><ele>172.8</ele><time>2018-04-04T13:49:49.392Z</time></trkpt><trkpt lon="34.857665" lat="31.724762"><ele>172.8</ele><time>2018-04-04T13:49:50.392Z</time></trkpt><trkpt lon="34.857672" lat="31.724765"><ele>172.8</ele><time>2018-04-04T13:49:51.392Z</time></trkpt><trkpt lon="34.85768" lat="31.724768"><ele>172.8</ele><time>2018-04-04T13:49:52.392Z</time></trkpt><trkpt lon="34.857687" lat="31.724773"><ele>172.8</ele><time>2018-04-04T13:49:53.392Z</time></trkpt><trkpt lon="34.857693" lat="31.724778"><ele>173.9</ele><time>2018-04-04T13:49:54.392Z</time></trkpt><trkpt lon="34.8577" lat="31.724785"><ele>173.9</ele><time>2018-04-04T13:49:55.392Z</time></trkpt><trkpt lon="34.857705" lat="31.724792"><ele>173.9</ele><time>2018-04-04T13:49:56.392Z</time></trkpt><trkpt lon="34.85771" lat="31.7248"><ele>173.9</ele><time>2018-04-04T13:49:57.392Z</time></trkpt><trkpt lon="34.857712" lat="31.724807"><ele>173.9</ele><time>2018-04-04T13:49:58.392Z</time></trkpt><trkpt lon="34.857708" lat="31.724813"><ele>173.9</ele><time>2018-04-04T13:49:59.392Z</time></trkpt><trkpt lon="34.857705" lat="31.724818"><ele>173.9</ele><time>2018-04-04T13:50:00.392Z</time></trkpt><trkpt lon="34.857702" lat="31.724823"><ele>173.9</ele><time>2018-04-04T13:50:01.392Z</time></trkpt><trkpt lon="34.8577" lat="31.724827"><ele>173.9</ele><time>2018-04-04T13:50:02.392Z</time></trkpt><trkpt lon="34.857698" lat="31.724832"><ele>173.9</ele><time>2018-04-04T13:50:03.392Z</time></trkpt><trkpt lon="34.8577" lat="31.724833"><ele>173.9</ele><time>2018-04-04T13:50:04.392Z</time></trkpt><trkpt lon="34.857698" lat="31.724833"><ele>173.9</ele><time>2018-04-04T13:50:05.392Z</time></trkpt><trkpt lon="34.857698" lat="31.724835"><ele>173.9</ele><time>2018-04-04T13:50:06.392Z</time></trkpt><trkpt lon="34.857695" lat="31.724838"><ele>173.9</ele><time>2018-04-04T13:50:07.392Z</time></trkpt><trkpt lon="34.857685" lat="31.724858"><ele>173.9</ele><time>2018-04-04T13:50:10.392Z</time></trkpt><trkpt lon="34.857685" lat="31.724865"><ele>173.9</ele><time>2018-04-04T13:50:11.392Z</time></trkpt><trkpt lon="34.857685" lat="31.72487"><ele>173.9</ele><time>2018-04-04T13:50:12.392Z</time></trkpt><trkpt lon="34.857683" lat="31.724873"><ele>173.9</ele><time>2018-04-04T13:50:13.392Z</time></trkpt><trkpt lon="34.857685" lat="31.724882"><ele>173.9</ele><time>2018-04-04T13:50:14.392Z</time></trkpt><trkpt lon="34.85769" lat="31.72489"><ele>173.9</ele><time>2018-04-04T13:50:15.392Z</time></trkpt><trkpt lon="34.857697" lat="31.724897"><ele>173.9</ele><time>2018-04-04T13:50:16.392Z</time></trkpt><trkpt lon="34.857698" lat="31.724905"><ele>173.9</ele><time>2018-04-04T13:50:17.392Z</time></trkpt><trkpt lon="34.8577" lat="31.724912"><ele>173.9</ele><time>2018-04-04T13:50:18.392Z</time></trkpt><trkpt lon="34.857698" lat="31.724913"><ele>173.9</ele><time>2018-04-04T13:50:19.392Z</time></trkpt><trkpt lon="34.857695" lat="31.724915"><ele>173.9</ele><time>2018-04-04T13:50:20.392Z</time></trkpt><trkpt lon="34.857695" lat="31.724917"><ele>173.9</ele><time>2018-04-04T13:50:21.392Z</time></trkpt><trkpt lon="34.857673" lat="31.724935"><ele>173.9</ele><time>2018-04-04T13:50:24.392Z</time></trkpt><trkpt lon="34.857662" lat="31.724947"><ele>173.9</ele><time>2018-04-04T13:50:25.392Z</time></trkpt><trkpt lon="34.857645" lat="31.724955"><ele>173.9</ele><time>2018-04-04T13:50:26.392Z</time></trkpt><trkpt lon="34.857628" lat="31.724968"><ele>173.9</ele><time>2018-04-04T13:50:27.392Z</time></trkpt><trkpt lon="34.857617" lat="31.724982"><ele>173.9</ele><time>2018-04-04T13:50:28.392Z</time></trkpt><trkpt lon="34.857612" lat="31.724997"><ele>173.9</ele><time>2018-04-04T13:50:29.392Z</time></trkpt><trkpt lon="34.857615" lat="31.725012"><ele>173.9</ele><time>2018-04-04T13:50:30.392Z</time></trkpt><trkpt lon="34.857628" lat="31.725027"><ele>173.9</ele><time>2018-04-04T13:50:31.392Z</time></trkpt><trkpt lon="34.857643" lat="31.725038"><ele>173.9</ele><time>2018-04-04T13:50:32.392Z</time></trkpt><trkpt lon="34.857657" lat="31.725047"><ele>173.9</ele><time>2018-04-04T13:50:33.392Z</time></trkpt><trkpt lon="34.857667" lat="31.725058"><ele>173.9</ele><time>2018-04-04T13:50:34.392Z</time></trkpt><trkpt lon="34.857667" lat="31.725075"><ele>173.9</ele><time>2018-04-04T13:50:35.392Z</time></trkpt><trkpt lon="34.857668" lat="31.725095"><ele>173.9</ele><time>2018-04-04T13:50:36.392Z</time></trkpt><trkpt lon="34.857675" lat="31.725112"><ele>173.9</ele><time>2018-04-04T13:50:37.392Z</time></trkpt><trkpt lon="34.857685" lat="31.725127"><ele>173.9</ele><time>2018-04-04T13:50:38.392Z</time></trkpt><trkpt lon="34.857693" lat="31.725143"><ele>173.9</ele><time>2018-04-04T13:50:39.392Z</time></trkpt><trkpt lon="34.857702" lat="31.72516"><ele>173.9</ele><time>2018-04-04T13:50:40.392Z</time></trkpt><trkpt lon="34.857708" lat="31.725178"><ele>173.9</ele><time>2018-04-04T13:50:41.392Z</time></trkpt><trkpt lon="34.85771" lat="31.725195"><ele>173.9</ele><time>2018-04-04T13:50:42.392Z</time></trkpt><trkpt lon="34.85771" lat="31.725213"><ele>173.9</ele><time>2018-04-04T13:50:43.392Z</time></trkpt><trkpt lon="34.857708" lat="31.725238"><ele>173.9</ele><time>2018-04-04T13:50:44.392Z</time></trkpt><trkpt lon="34.857712" lat="31.725262"><ele>173.9</ele><time>2018-04-04T13:50:45.392Z</time></trkpt><trkpt lon="34.857722" lat="31.725278"><ele>173.9</ele><time>2018-04-04T13:50:46.392Z</time></trkpt><trkpt lon="34.857737" lat="31.72529"><ele>173.9</ele><time>2018-04-04T13:50:47.392Z</time></trkpt><trkpt lon="34.857753" lat="31.7253"><ele>173.9</ele><time>2018-04-04T13:50:48.392Z</time></trkpt><trkpt lon="34.857768" lat="31.725315"><ele>173.9</ele><time>2018-04-04T13:50:49.392Z</time></trkpt><trkpt lon="34.857775" lat="31.725332"><ele>173.9</ele><time>2018-04-04T13:50:50.392Z</time></trkpt><trkpt lon="34.857782" lat="31.725353"><ele>173.9</ele><time>2018-04-04T13:50:51.392Z</time></trkpt><trkpt lon="34.85779" lat="31.725377"><ele>173.9</ele><time>2018-04-04T13:50:52.392Z</time></trkpt><trkpt lon="34.857803" lat="31.725402"><ele>173.9</ele><time>2018-04-04T13:50:53.392Z</time></trkpt><trkpt lon="34.85781" lat="31.725425"><ele>173.9</ele><time>2018-04-04T13:50:54.392Z</time></trkpt><trkpt lon="34.857823" lat="31.725442"><ele>173.9</ele><time>2018-04-04T13:50:55.392Z</time></trkpt><trkpt lon="34.85784" lat="31.725455"><ele>173.9</ele><time>2018-04-04T13:50:56.392Z</time></trkpt><trkpt lon="34.857853" lat="31.725462"><ele>173.9</ele><time>2018-04-04T13:50:57.392Z</time></trkpt><trkpt lon="34.857868" lat="31.725468"><ele>173.9</ele><time>2018-04-04T13:50:58.392Z</time></trkpt><trkpt lon="34.85788" lat="31.725478"><ele>173.9</ele><time>2018-04-04T13:50:59.392Z</time></trkpt><trkpt lon="34.857888" lat="31.725492"><ele>173.9</ele><time>2018-04-04T13:51:00.392Z</time></trkpt><trkpt lon="34.857897" lat="31.72551"><ele>173.9</ele><time>2018-04-04T13:51:01.392Z</time></trkpt><trkpt lon="34.857912" lat="31.725532"><ele>173.9</ele><time>2018-04-04T13:51:02.392Z</time></trkpt><trkpt lon="34.857928" lat="31.725553"><ele>173.9</ele><time>2018-04-04T13:51:03.392Z</time></trkpt><trkpt lon="34.857943" lat="31.725573"><ele>173.9</ele><time>2018-04-04T13:51:04.392Z</time></trkpt><trkpt lon="34.85796" lat="31.725592"><ele>173.9</ele><time>2018-04-04T13:51:05.392Z</time></trkpt><trkpt lon="34.857968" lat="31.725608"><ele>173.9</ele><time>2018-04-04T13:51:06.392Z</time></trkpt><trkpt lon="34.857967" lat="31.725625"><ele>173.9</ele><time>2018-04-04T13:51:07.392Z</time></trkpt><trkpt lon="34.857967" lat="31.725643"><ele>173.9</ele><time>2018-04-04T13:51:08.392Z</time></trkpt><trkpt lon="34.857975" lat="31.725665"><ele>173.9</ele><time>2018-04-04T13:51:09.392Z</time></trkpt><trkpt lon="34.857992" lat="31.72568"><ele>173.9</ele><time>2018-04-04T13:51:10.392Z</time></trkpt><trkpt lon="34.858015" lat="31.725692"><ele>173.9</ele><time>2018-04-04T13:51:11.392Z</time></trkpt><trkpt lon="34.858035" lat="31.725705"><ele>173.9</ele><time>2018-04-04T13:51:12.392Z</time></trkpt><trkpt lon="34.85805" lat="31.725717"><ele>174.8</ele><time>2018-04-04T13:51:13.392Z</time></trkpt><trkpt lon="34.858062" lat="31.725727"><ele>174.8</ele><time>2018-04-04T13:51:14.392Z</time></trkpt><trkpt lon="34.858072" lat="31.72574"><ele>174.8</ele><time>2018-04-04T13:51:15.392Z</time></trkpt><trkpt lon="34.858073" lat="31.725752"><ele>174.8</ele><time>2018-04-04T13:51:16.392Z</time></trkpt><trkpt lon="34.858073" lat="31.725765"><ele>174.8</ele><time>2018-04-04T13:51:17.392Z</time></trkpt><trkpt lon="34.858077" lat="31.72578"><ele>174.8</ele><time>2018-04-04T13:51:18.392Z</time></trkpt><trkpt lon="34.858082" lat="31.725795"><ele>174.8</ele><time>2018-04-04T13:51:19.392Z</time></trkpt><trkpt lon="34.858095" lat="31.725812"><ele>174.8</ele><time>2018-04-04T13:51:20.392Z</time></trkpt><trkpt lon="34.858103" lat="31.72583"><ele>174.8</ele><time>2018-04-04T13:51:21.392Z</time></trkpt><trkpt lon="34.858107" lat="31.725852"><ele>174.8</ele><time>2018-04-04T13:51:22.392Z</time></trkpt><trkpt lon="34.858108" lat="31.725872"><ele>174.8</ele><time>2018-04-04T13:51:23.392Z</time></trkpt><trkpt lon="34.858117" lat="31.72589"><ele>174.8</ele><time>2018-04-04T13:51:24.392Z</time></trkpt><trkpt lon="34.858127" lat="31.725905"><ele>174.8</ele><time>2018-04-04T13:51:25.392Z</time></trkpt><trkpt lon="34.858142" lat="31.725917"><ele>174.8</ele><time>2018-04-04T13:51:26.392Z</time></trkpt><trkpt lon="34.858157" lat="31.725928"><ele>174.8</ele><time>2018-04-04T13:51:27.392Z</time></trkpt><trkpt lon="34.858168" lat="31.725938"><ele>174.8</ele><time>2018-04-04T13:51:28.392Z</time></trkpt><trkpt lon="34.858175" lat="31.725952"><ele>174.8</ele><time>2018-04-04T13:51:29.392Z</time></trkpt><trkpt lon="34.858182" lat="31.72597"><ele>174.8</ele><time>2018-04-04T13:51:30.392Z</time></trkpt><trkpt lon="34.858195" lat="31.725987"><ele>174.8</ele><time>2018-04-04T13:51:31.392Z</time></trkpt><trkpt lon="34.858208" lat="31.726003"><ele>174.8</ele><time>2018-04-04T13:51:32.392Z</time></trkpt><trkpt lon="34.85822" lat="31.726017"><ele>174.8</ele><time>2018-04-04T13:51:33.392Z</time></trkpt><trkpt lon="34.858233" lat="31.726028"><ele>174.8</ele><time>2018-04-04T13:51:34.392Z</time></trkpt><trkpt lon="34.858245" lat="31.72604"><ele>174.8</ele><time>2018-04-04T13:51:35.392Z</time></trkpt><trkpt lon="34.858255" lat="31.726057"><ele>174.8</ele><time>2018-04-04T13:51:36.392Z</time></trkpt><trkpt lon="34.858258" lat="31.726075"><ele>174.8</ele><time>2018-04-04T13:51:37.392Z</time></trkpt><trkpt lon="34.85826" lat="31.726097"><ele>174.8</ele><time>2018-04-04T13:51:38.392Z</time></trkpt><trkpt lon="34.858263" lat="31.726117"><ele>174.8</ele><time>2018-04-04T13:51:39.392Z</time></trkpt><trkpt lon="34.858273" lat="31.726142"><ele>174.8</ele><time>2018-04-04T13:51:40.392Z</time></trkpt><trkpt lon="34.858285" lat="31.726167"><ele>174.8</ele><time>2018-04-04T13:51:41.392Z</time></trkpt><trkpt lon="34.858295" lat="31.726193"><ele>174.8</ele><time>2018-04-04T13:51:42.392Z</time></trkpt><trkpt lon="34.858307" lat="31.726218"><ele>174.8</ele><time>2018-04-04T13:51:43.392Z</time></trkpt><trkpt lon="34.858315" lat="31.726238"><ele>174.8</ele><time>2018-04-04T13:51:44.392Z</time></trkpt><trkpt lon="34.85832" lat="31.726255"><ele>173.9</ele><time>2018-04-04T13:51:45.392Z</time></trkpt><trkpt lon="34.858317" lat="31.726265"><ele>173.9</ele><time>2018-04-04T13:51:46.392Z</time></trkpt><trkpt lon="34.858307" lat="31.726278"><ele>173.9</ele><time>2018-04-04T13:51:47.392Z</time></trkpt><trkpt lon="34.858292" lat="31.726297"><ele>173.9</ele><time>2018-04-04T13:51:48.392Z</time></trkpt><trkpt lon="34.858273" lat="31.726318"><ele>173.9</ele><time>2018-04-04T13:51:49.392Z</time></trkpt><trkpt lon="34.858252" lat="31.726343"><ele>173.9</ele><time>2018-04-04T13:51:50.392Z</time></trkpt><trkpt lon="34.858232" lat="31.72637"><ele>173.9</ele><time>2018-04-04T13:51:51.392Z</time></trkpt><trkpt lon="34.85822" lat="31.726398"><ele>173.9</ele><time>2018-04-04T13:51:52.392Z</time></trkpt><trkpt lon="34.858215" lat="31.726423"><ele>171.9</ele><time>2018-04-04T13:51:53.392Z</time></trkpt><trkpt lon="34.858218" lat="31.726445"><ele>171.9</ele><time>2018-04-04T13:51:54.392Z</time></trkpt><trkpt lon="34.858222" lat="31.72646"><ele>171.9</ele><time>2018-04-04T13:51:55.392Z</time></trkpt><trkpt lon="34.858223" lat="31.726462"><ele>171.9</ele><time>2018-04-04T13:51:56.392Z</time></trkpt><trkpt lon="34.858227" lat="31.726462"><ele>171.9</ele><time>2018-04-04T13:51:57.392Z</time></trkpt><trkpt lon="34.858228" lat="31.726463"><ele>171.9</ele><time>2018-04-04T13:51:58.392Z</time></trkpt><trkpt lon="34.858233" lat="31.726465"><ele>171.9</ele><time>2018-04-04T13:51:59.392Z</time></trkpt><trkpt lon="34.858255" lat="31.726472"><ele>171.9</ele><time>2018-04-04T13:52:03.392Z</time></trkpt><trkpt lon="34.858265" lat="31.726475"><ele>171.9</ele><time>2018-04-04T13:52:04.392Z</time></trkpt><trkpt lon="34.858278" lat="31.726477"><ele>171.9</ele><time>2018-04-04T13:52:05.392Z</time></trkpt><trkpt lon="34.858292" lat="31.726478"><ele>171.9</ele><time>2018-04-04T13:52:06.392Z</time></trkpt><trkpt lon="34.858303" lat="31.726483"><ele>171.9</ele><time>2018-04-04T13:52:07.392Z</time></trkpt><trkpt lon="34.858312" lat="31.726492"><ele>171.9</ele><time>2018-04-04T13:52:08.392Z</time></trkpt><trkpt lon="34.858315" lat="31.726497"><ele>171.9</ele><time>2018-04-04T13:52:09.392Z</time></trkpt><trkpt lon="34.858318" lat="31.7265"><ele>171.9</ele><time>2018-04-04T13:52:10.392Z</time></trkpt><trkpt lon="34.858318" lat="31.726502"><ele>171.9</ele><time>2018-04-04T13:52:11.392Z</time></trkpt><trkpt lon="34.858322" lat="31.726502"><ele>171.9</ele><time>2018-04-04T13:52:12.392Z</time></trkpt><trkpt lon="34.858323" lat="31.726505"><ele>171.9</ele><time>2018-04-04T13:52:13.392Z</time></trkpt><trkpt lon="34.858332" lat="31.726517"><ele>171.9</ele><time>2018-04-04T13:52:14.392Z</time></trkpt><trkpt lon="34.858343" lat="31.726525"><ele>171.9</ele><time>2018-04-04T13:52:15.392Z</time></trkpt><trkpt lon="34.858357" lat="31.72654"><ele>171.9</ele><time>2018-04-04T13:52:16.392Z</time></trkpt><trkpt lon="34.858372" lat="31.726555"><ele>171.9</ele><time>2018-04-04T13:52:17.392Z</time></trkpt><trkpt lon="34.858383" lat="31.726575"><ele>171.9</ele><time>2018-04-04T13:52:18.392Z</time></trkpt><trkpt lon="34.85839" lat="31.726595"><ele>171.9</ele><time>2018-04-04T13:52:19.392Z</time></trkpt><trkpt lon="34.858403" lat="31.72662"><ele>171.9</ele><time>2018-04-04T13:52:20.392Z</time></trkpt><trkpt lon="34.858415" lat="31.726643"><ele>171.9</ele><time>2018-04-04T13:52:21.392Z</time></trkpt><trkpt lon="34.858432" lat="31.726665"><ele>171.9</ele><time>2018-04-04T13:52:22.392Z</time></trkpt><trkpt lon="34.858453" lat="31.726683"><ele>171.9</ele><time>2018-04-04T13:52:23.392Z</time></trkpt><trkpt lon="34.858477" lat="31.726702"><ele>171.9</ele><time>2018-04-04T13:52:24.392Z</time></trkpt><trkpt lon="34.858503" lat="31.72672"><ele>171.9</ele><time>2018-04-04T13:52:25.392Z</time></trkpt><trkpt lon="34.858527" lat="31.726742"><ele>171.9</ele><time>2018-04-04T13:52:26.392Z</time></trkpt><trkpt lon="34.858547" lat="31.726763"><ele>171.9</ele><time>2018-04-04T13:52:27.392Z</time></trkpt><trkpt lon="34.858567" lat="31.726783"><ele>171.9</ele><time>2018-04-04T13:52:28.392Z</time></trkpt><trkpt lon="34.858588" lat="31.726805"><ele>171.9</ele><time>2018-04-04T13:52:29.392Z</time></trkpt><trkpt lon="34.858607" lat="31.726825"><ele>172.8</ele><time>2018-04-04T13:52:30.392Z</time></trkpt><trkpt lon="34.858622" lat="31.726847"><ele>172.8</ele><time>2018-04-04T13:52:31.392Z</time></trkpt><trkpt lon="34.858628" lat="31.72687"><ele>172.8</ele><time>2018-04-04T13:52:32.392Z</time></trkpt><trkpt lon="34.858632" lat="31.726893"><ele>172.8</ele><time>2018-04-04T13:52:33.392Z</time></trkpt><trkpt lon="34.858635" lat="31.726917"><ele>172.8</ele><time>2018-04-04T13:52:34.392Z</time></trkpt><trkpt lon="34.858633" lat="31.72694"><ele>172.8</ele><time>2018-04-04T13:52:35.392Z</time></trkpt><trkpt lon="34.858637" lat="31.72696"><ele>172.8</ele><time>2018-04-04T13:52:36.392Z</time></trkpt><trkpt lon="34.85864" lat="31.726985"><ele>172.8</ele><time>2018-04-04T13:52:37.392Z</time></trkpt><trkpt lon="34.858643" lat="31.727013"><ele>172.8</ele><time>2018-04-04T13:52:38.392Z</time></trkpt><trkpt lon="34.858642" lat="31.727047"><ele>172.8</ele><time>2018-04-04T13:52:39.392Z</time></trkpt><trkpt lon="34.858638" lat="31.727077"><ele>172.8</ele><time>2018-04-04T13:52:40.392Z</time></trkpt><trkpt lon="34.85864" lat="31.727108"><ele>172.8</ele><time>2018-04-04T13:52:41.392Z</time></trkpt><trkpt lon="34.858643" lat="31.727142"><ele>172.8</ele><time>2018-04-04T13:52:42.392Z</time></trkpt><trkpt lon="34.858643" lat="31.727175"><ele>172.8</ele><time>2018-04-04T13:52:43.392Z</time></trkpt><trkpt lon="34.858637" lat="31.727205"><ele>172.8</ele><time>2018-04-04T13:52:44.392Z</time></trkpt><trkpt lon="34.858625" lat="31.727237"><ele>172.8</ele><time>2018-04-04T13:52:45.392Z</time></trkpt><trkpt lon="34.858613" lat="31.727272"><ele>171.9</ele><time>2018-04-04T13:52:46.392Z</time></trkpt><trkpt lon="34.858603" lat="31.72731"><ele>171.9</ele><time>2018-04-04T13:52:47.392Z</time></trkpt><trkpt lon="34.858602" lat="31.727352"><ele>171.9</ele><time>2018-04-04T13:52:48.392Z</time></trkpt><trkpt lon="34.858597" lat="31.727392"><ele>171.9</ele><time>2018-04-04T13:52:49.392Z</time></trkpt><trkpt lon="34.858587" lat="31.727432"><ele>171.9</ele><time>2018-04-04T13:52:50.392Z</time></trkpt><trkpt lon="34.858577" lat="31.727473"><ele>171.9</ele><time>2018-04-04T13:52:51.392Z</time></trkpt><trkpt lon="34.858563" lat="31.727513"><ele>170.8</ele><time>2018-04-04T13:52:52.392Z</time></trkpt><trkpt lon="34.858545" lat="31.727553"><ele>170.8</ele><time>2018-04-04T13:52:53.392Z</time></trkpt><trkpt lon="34.858525" lat="31.727595"><ele>170.8</ele><time>2018-04-04T13:52:54.392Z</time></trkpt><trkpt lon="34.858498" lat="31.727637"><ele>170.8</ele><time>2018-04-04T13:52:55.392Z</time></trkpt><trkpt lon="34.858467" lat="31.727673"><ele>170.8</ele><time>2018-04-04T13:52:56.392Z</time></trkpt><trkpt lon="34.85843" lat="31.727703"><ele>170.8</ele><time>2018-04-04T13:52:57.392Z</time></trkpt><trkpt lon="34.858387" lat="31.727725"><ele>170.8</ele><time>2018-04-04T13:52:58.392Z</time></trkpt><trkpt lon="34.858347" lat="31.727742"><ele>170.8</ele><time>2018-04-04T13:52:59.392Z</time></trkpt><trkpt lon="34.858305" lat="31.727757"><ele>170.8</ele><time>2018-04-04T13:53:00.392Z</time></trkpt><trkpt lon="34.858262" lat="31.727768"><ele>170.8</ele><time>2018-04-04T13:53:01.392Z</time></trkpt><trkpt lon="34.858222" lat="31.727782"><ele>170.8</ele><time>2018-04-04T13:53:02.392Z</time></trkpt><trkpt lon="34.858187" lat="31.727797"><ele>170.8</ele><time>2018-04-04T13:53:03.392Z</time></trkpt><trkpt lon="34.858152" lat="31.727812"><ele>170.8</ele><time>2018-04-04T13:53:04.392Z</time></trkpt><trkpt lon="34.858122" lat="31.727825"><ele>170.8</ele><time>2018-04-04T13:53:05.392Z</time></trkpt><trkpt lon="34.85809" lat="31.727835"><ele>170.8</ele><time>2018-04-04T13:53:06.392Z</time></trkpt><trkpt lon="34.858058" lat="31.727838"><ele>170.8</ele><time>2018-04-04T13:53:07.392Z</time></trkpt><trkpt lon="34.858027" lat="31.727845"><ele>171.9</ele><time>2018-04-04T13:53:08.392Z</time></trkpt><trkpt lon="34.857995" lat="31.727855"><ele>171.9</ele><time>2018-04-04T13:53:09.392Z</time></trkpt><trkpt lon="34.857962" lat="31.727867"><ele>171.9</ele><time>2018-04-04T13:53:10.392Z</time></trkpt><trkpt lon="34.857933" lat="31.727883"><ele>171.9</ele><time>2018-04-04T13:53:11.392Z</time></trkpt><trkpt lon="34.857907" lat="31.727898"><ele>172.8</ele><time>2018-04-04T13:53:12.392Z</time></trkpt><trkpt lon="34.85788" lat="31.727913"><ele>172.8</ele><time>2018-04-04T13:53:13.392Z</time></trkpt><trkpt lon="34.857853" lat="31.727922"><ele>172.8</ele><time>2018-04-04T13:53:14.392Z</time></trkpt><trkpt lon="34.857823" lat="31.727925"><ele>172.8</ele><time>2018-04-04T13:53:15.392Z</time></trkpt><trkpt lon="34.857792" lat="31.727928"><ele>173.9</ele><time>2018-04-04T13:53:16.392Z</time></trkpt><trkpt lon="34.857758" lat="31.727928"><ele>173.9</ele><time>2018-04-04T13:53:17.392Z</time></trkpt><trkpt lon="34.857725" lat="31.727925"><ele>173.9</ele><time>2018-04-04T13:53:18.392Z</time></trkpt><trkpt lon="34.857693" lat="31.72792"><ele>173.9</ele><time>2018-04-04T13:53:19.392Z</time></trkpt><trkpt lon="34.857663" lat="31.727908"><ele>173.9</ele><time>2018-04-04T13:53:20.392Z</time></trkpt><trkpt lon="34.857637" lat="31.727893"><ele>173.9</ele><time>2018-04-04T13:53:21.392Z</time></trkpt><trkpt lon="34.857612" lat="31.727877"><ele>173.9</ele><time>2018-04-04T13:53:22.392Z</time></trkpt><trkpt lon="34.857587" lat="31.727857"><ele>173.9</ele><time>2018-04-04T13:53:23.392Z</time></trkpt><trkpt lon="34.85757" lat="31.727832"><ele>173.9</ele><time>2018-04-04T13:53:24.392Z</time></trkpt><trkpt lon="34.857553" lat="31.727803"><ele>173.9</ele><time>2018-04-04T13:53:25.392Z</time></trkpt><trkpt lon="34.857532" lat="31.727773"><ele>173.9</ele><time>2018-04-04T13:53:26.392Z</time></trkpt><trkpt lon="34.857503" lat="31.727748"><ele>173.9</ele><time>2018-04-04T13:53:27.392Z</time></trkpt><trkpt lon="34.857473" lat="31.727727"><ele>173.9</ele><time>2018-04-04T13:53:28.392Z</time></trkpt><trkpt lon="34.857442" lat="31.727707"><ele>173.9</ele><time>2018-04-04T13:53:29.392Z</time></trkpt><trkpt lon="34.857415" lat="31.727685"><ele>173.9</ele><time>2018-04-04T13:53:30.392Z</time></trkpt><trkpt lon="34.8574" lat="31.72766"><ele>173.9</ele><time>2018-04-04T13:53:31.392Z</time></trkpt><trkpt lon="34.857382" lat="31.72763"><ele>173.9</ele><time>2018-04-04T13:53:32.392Z</time></trkpt><trkpt lon="34.857358" lat="31.727602"><ele>173.9</ele><time>2018-04-04T13:53:33.392Z</time></trkpt><trkpt lon="34.857332" lat="31.727572"><ele>173.9</ele><time>2018-04-04T13:53:34.392Z</time></trkpt><trkpt lon="34.857308" lat="31.72754"><ele>173.9</ele><time>2018-04-04T13:53:35.392Z</time></trkpt><trkpt lon="34.857283" lat="31.727505"><ele>173.9</ele><time>2018-04-04T13:53:36.392Z</time></trkpt><trkpt lon="34.857255" lat="31.727472"><ele>173.9</ele><time>2018-04-04T13:53:37.392Z</time></trkpt><trkpt lon="34.85723" lat="31.727435"><ele>173.9</ele><time>2018-04-04T13:53:38.392Z</time></trkpt><trkpt lon="34.857197" lat="31.727403"><ele>173.9</ele><time>2018-04-04T13:53:39.392Z</time></trkpt><trkpt lon="34.857163" lat="31.727373"><ele>173.9</ele><time>2018-04-04T13:53:40.392Z</time></trkpt><trkpt lon="34.857127" lat="31.727345"><ele>173.9</ele><time>2018-04-04T13:53:41.392Z</time></trkpt><trkpt lon="34.857085" lat="31.727322"><ele>173.9</ele><time>2018-04-04T13:53:42.392Z</time></trkpt><trkpt lon="34.857042" lat="31.727305"><ele>173.9</ele><time>2018-04-04T13:53:43.392Z</time></trkpt><trkpt lon="34.857003" lat="31.727287"><ele>173.9</ele><time>2018-04-04T13:53:44.392Z</time></trkpt><trkpt lon="34.856973" lat="31.727262"><ele>173.9</ele><time>2018-04-04T13:53:45.392Z</time></trkpt><trkpt lon="34.856943" lat="31.727233"><ele>173.9</ele><time>2018-04-04T13:53:46.392Z</time></trkpt><trkpt lon="34.856915" lat="31.727205"><ele>173.9</ele><time>2018-04-04T13:53:47.392Z</time></trkpt><trkpt lon="34.856883" lat="31.72718"><ele>172.8</ele><time>2018-04-04T13:53:48.392Z</time></trkpt><trkpt lon="34.856852" lat="31.727162"><ele>172.8</ele><time>2018-04-04T13:53:49.392Z</time></trkpt><trkpt lon="34.856822" lat="31.72714"><ele>172.8</ele><time>2018-04-04T13:53:50.392Z</time></trkpt><trkpt lon="34.856792" lat="31.727115"><ele>172.8</ele><time>2018-04-04T13:53:51.392Z</time></trkpt><trkpt lon="34.856758" lat="31.727097"><ele>172.8</ele><time>2018-04-04T13:53:52.392Z</time></trkpt><trkpt lon="34.856723" lat="31.727085"><ele>172.8</ele><time>2018-04-04T13:53:53.392Z</time></trkpt><trkpt lon="34.856697" lat="31.727065"><ele>171.9</ele><time>2018-04-04T13:53:54.392Z</time></trkpt><trkpt lon="34.856672" lat="31.72704"><ele>171.9</ele><time>2018-04-04T13:53:55.392Z</time></trkpt><trkpt lon="34.856653" lat="31.727013"><ele>171.9</ele><time>2018-04-04T13:53:56.392Z</time></trkpt><trkpt lon="34.856633" lat="31.726985"><ele>171.9</ele><time>2018-04-04T13:53:57.392Z</time></trkpt><trkpt lon="34.856608" lat="31.726958"><ele>170.8</ele><time>2018-04-04T13:53:58.392Z</time></trkpt><trkpt lon="34.856578" lat="31.726935"><ele>170.8</ele><time>2018-04-04T13:53:59.392Z</time></trkpt><trkpt lon="34.85655" lat="31.72691"><ele>170.8</ele><time>2018-04-04T13:54:00.392Z</time></trkpt><trkpt lon="34.856522" lat="31.726883"><ele>170.8</ele><time>2018-04-04T13:54:01.392Z</time></trkpt><trkpt lon="34.85649" lat="31.726862"><ele>170.8</ele><time>2018-04-04T13:54:02.392Z</time></trkpt><trkpt lon="34.856452" lat="31.726843"><ele>170.8</ele><time>2018-04-04T13:54:03.392Z</time></trkpt><trkpt lon="34.856412" lat="31.726832"><ele>169.9</ele><time>2018-04-04T13:54:04.392Z</time></trkpt><trkpt lon="34.856375" lat="31.726815"><ele>169.9</ele><time>2018-04-04T13:54:05.392Z</time></trkpt><trkpt lon="34.856342" lat="31.726785"><ele>169.9</ele><time>2018-04-04T13:54:06.392Z</time></trkpt><trkpt lon="34.856315" lat="31.726748"><ele>169.9</ele><time>2018-04-04T13:54:07.392Z</time></trkpt><trkpt lon="34.856292" lat="31.726705"><ele>169.9</ele><time>2018-04-04T13:54:08.392Z</time></trkpt><trkpt lon="34.856267" lat="31.726662"><ele>169.9</ele><time>2018-04-04T13:54:09.392Z</time></trkpt><trkpt lon="34.85624" lat="31.726622"><ele>169.9</ele><time>2018-04-04T13:54:10.392Z</time></trkpt><trkpt lon="34.856203" lat="31.726587"><ele>169.9</ele><time>2018-04-04T13:54:11.392Z</time></trkpt><trkpt lon="34.856155" lat="31.726565"><ele>166.9</ele><time>2018-04-04T13:54:12.392Z</time></trkpt><trkpt lon="34.856098" lat="31.72655"><ele>166.9</ele><time>2018-04-04T13:54:13.392Z</time></trkpt><trkpt lon="34.856042" lat="31.726542"><ele>166.9</ele><time>2018-04-04T13:54:14.392Z</time></trkpt><trkpt lon="34.855983" lat="31.726537"><ele>166.9</ele><time>2018-04-04T13:54:15.392Z</time></trkpt><trkpt lon="34.855928" lat="31.72654"><ele>166.9</ele><time>2018-04-04T13:54:16.392Z</time></trkpt><trkpt lon="34.855875" lat="31.726547"><ele>166.9</ele><time>2018-04-04T13:54:17.392Z</time></trkpt><trkpt lon="34.855825" lat="31.726558"><ele>166.9</ele><time>2018-04-04T13:54:18.392Z</time></trkpt><trkpt lon="34.855775" lat="31.726568"><ele>166.9</ele><time>2018-04-04T13:54:19.392Z</time></trkpt><trkpt lon="34.855727" lat="31.726575"><ele>166.9</ele><time>2018-04-04T13:54:20.392Z</time></trkpt><trkpt lon="34.855685" lat="31.726572"><ele>166.9</ele><time>2018-04-04T13:54:21.392Z</time></trkpt><trkpt lon="34.855652" lat="31.726558"><ele>166.9</ele><time>2018-04-04T13:54:22.392Z</time></trkpt><trkpt lon="34.855627" lat="31.72653"><ele>166.9</ele><time>2018-04-04T13:54:23.392Z</time></trkpt><trkpt lon="34.855605" lat="31.726497"><ele>166.9</ele><time>2018-04-04T13:54:24.392Z</time></trkpt><trkpt lon="34.855582" lat="31.726455"><ele>166.9</ele><time>2018-04-04T13:54:25.392Z</time></trkpt><trkpt lon="34.855552" lat="31.726415"><ele>164.9</ele><time>2018-04-04T13:54:26.392Z</time></trkpt><trkpt lon="34.855515" lat="31.726377"><ele>164.9</ele><time>2018-04-04T13:54:27.392Z</time></trkpt><trkpt lon="34.85548" lat="31.726342"><ele>162.9</ele><time>2018-04-04T13:54:28.392Z</time></trkpt><trkpt lon="34.855438" lat="31.726313"><ele>162.9</ele><time>2018-04-04T13:54:29.392Z</time></trkpt><trkpt lon="34.855397" lat="31.72629"><ele>161.9</ele><time>2018-04-04T13:54:30.392Z</time></trkpt><trkpt lon="34.855357" lat="31.726272"><ele>161.9</ele><time>2018-04-04T13:54:31.392Z</time></trkpt><trkpt lon="34.855318" lat="31.726253"><ele>161.9</ele><time>2018-04-04T13:54:32.392Z</time></trkpt><trkpt lon="34.85528" lat="31.726233"><ele>161.9</ele><time>2018-04-04T13:54:33.392Z</time></trkpt><trkpt lon="34.855235" lat="31.726215"><ele>161.9</ele><time>2018-04-04T13:54:34.392Z</time></trkpt><trkpt lon="34.855182" lat="31.726207"><ele>161.9</ele><time>2018-04-04T13:54:35.392Z</time></trkpt><trkpt lon="34.855128" lat="31.726203"><ele>161.9</ele><time>2018-04-04T13:54:36.392Z</time></trkpt><trkpt lon="34.855075" lat="31.726212"><ele>161.9</ele><time>2018-04-04T13:54:37.392Z</time></trkpt><trkpt lon="34.855028" lat="31.726223"><ele>161.9</ele><time>2018-04-04T13:54:38.392Z</time></trkpt><trkpt lon="34.85499" lat="31.726243"><ele>161.9</ele><time>2018-04-04T13:54:39.392Z</time></trkpt><trkpt lon="34.854955" lat="31.72627"><ele>161.9</ele><time>2018-04-04T13:54:40.392Z</time></trkpt><trkpt lon="34.85493" lat="31.726302"><ele>161.9</ele><time>2018-04-04T13:54:41.392Z</time></trkpt><trkpt lon="34.854922" lat="31.726335"><ele>161.9</ele><time>2018-04-04T13:54:42.392Z</time></trkpt><trkpt lon="34.854923" lat="31.726367"><ele>161.9</ele><time>2018-04-04T13:54:43.392Z</time></trkpt><trkpt lon="34.854938" lat="31.726392"><ele>162.9</ele><time>2018-04-04T13:54:44.392Z</time></trkpt><trkpt lon="34.854957" lat="31.726412"><ele>162.9</ele><time>2018-04-04T13:54:45.392Z</time></trkpt><trkpt lon="34.85498" lat="31.72643"><ele>162.9</ele><time>2018-04-04T13:54:46.392Z</time></trkpt><trkpt lon="34.855005" lat="31.72644"><ele>162.9</ele><time>2018-04-04T13:54:47.392Z</time></trkpt><trkpt lon="34.855027" lat="31.726453"><ele>162.9</ele><time>2018-04-04T13:54:48.392Z</time></trkpt><trkpt lon="34.855053" lat="31.726463"><ele>162.9</ele><time>2018-04-04T13:54:49.392Z</time></trkpt><trkpt lon="34.855087" lat="31.726468"><ele>163.8</ele><time>2018-04-04T13:54:50.392Z</time></trkpt><trkpt lon="34.855117" lat="31.726468"><ele>163.8</ele><time>2018-04-04T13:54:51.392Z</time></trkpt><trkpt lon="34.855148" lat="31.726462"><ele>163.8</ele><time>2018-04-04T13:54:52.392Z</time></trkpt><trkpt lon="34.85518" lat="31.726455"><ele>163.8</ele><time>2018-04-04T13:54:53.392Z</time></trkpt><trkpt lon="34.855212" lat="31.72645"><ele>163.8</ele><time>2018-04-04T13:54:54.392Z</time></trkpt><trkpt lon="34.855242" lat="31.726447"><ele>163.8</ele><time>2018-04-04T13:54:55.392Z</time></trkpt><trkpt lon="34.855268" lat="31.726448"><ele>164.9</ele><time>2018-04-04T13:54:56.392Z</time></trkpt><trkpt lon="34.855295" lat="31.72645"><ele>164.9</ele><time>2018-04-04T13:54:57.392Z</time></trkpt><trkpt lon="34.855322" lat="31.726458"><ele>164.9</ele><time>2018-04-04T13:54:58.392Z</time></trkpt><trkpt lon="34.855342" lat="31.726472"><ele>164.9</ele><time>2018-04-04T13:54:59.392Z</time></trkpt><trkpt lon="34.855362" lat="31.726488"><ele>164.9</ele><time>2018-04-04T13:55:00.392Z</time></trkpt><trkpt lon="34.855377" lat="31.7265"><ele>164.9</ele><time>2018-04-04T13:55:01.392Z</time></trkpt><trkpt lon="34.855382" lat="31.726507"><ele>164.9</ele><time>2018-04-04T13:55:02.392Z</time></trkpt><trkpt lon="34.855373" lat="31.726512"><ele>164.9</ele><time>2018-04-04T13:55:03.392Z</time></trkpt><trkpt lon="34.855357" lat="31.726515"><ele>164.9</ele><time>2018-04-04T13:55:04.392Z</time></trkpt><trkpt lon="34.855338" lat="31.726518"><ele>164.9</ele><time>2018-04-04T13:55:05.392Z</time></trkpt><trkpt lon="34.855317" lat="31.726525"><ele>164.9</ele><time>2018-04-04T13:55:06.392Z</time></trkpt><trkpt lon="34.855295" lat="31.726535"><ele>164.9</ele><time>2018-04-04T13:55:07.392Z</time></trkpt><trkpt lon="34.855275" lat="31.726548"><ele>164.9</ele><time>2018-04-04T13:55:08.392Z</time></trkpt><trkpt lon="34.855258" lat="31.726567"><ele>164.9</ele><time>2018-04-04T13:55:09.392Z</time></trkpt><trkpt lon="34.855243" lat="31.726583"><ele>164.9</ele><time>2018-04-04T13:55:10.392Z</time></trkpt><trkpt lon="34.855227" lat="31.7266"><ele>164.9</ele><time>2018-04-04T13:55:11.392Z</time></trkpt><trkpt lon="34.85521" lat="31.726613"><ele>164.9</ele><time>2018-04-04T13:55:12.392Z</time></trkpt><trkpt lon="34.855197" lat="31.726632"><ele>164.9</ele><time>2018-04-04T13:55:13.392Z</time></trkpt><trkpt lon="34.855187" lat="31.726647"><ele>164.9</ele><time>2018-04-04T13:55:14.392Z</time></trkpt><trkpt lon="34.855183" lat="31.726658"><ele>164.9</ele><time>2018-04-04T13:55:15.392Z</time></trkpt><trkpt lon="34.855182" lat="31.726663"><ele>164.9</ele><time>2018-04-04T13:55:16.392Z</time></trkpt><trkpt lon="34.85518" lat="31.726665"><ele>164.9</ele><time>2018-04-04T13:55:17.392Z</time></trkpt><trkpt lon="34.855178" lat="31.726668"><ele>165.8</ele><time>2018-04-04T13:55:18.392Z</time></trkpt><trkpt lon="34.855177" lat="31.72667"><ele>165.8</ele><time>2018-04-04T13:55:19.392Z</time></trkpt><trkpt lon="34.855175" lat="31.726702"><ele>165.8</ele><time>2018-04-04T13:56:06.392Z</time></trkpt><trkpt lon="34.855188" lat="31.726702"><ele>165.8</ele><time>2018-04-04T13:56:07.392Z</time></trkpt><trkpt lon="34.855202" lat="31.726702"><ele>165.8</ele><time>2018-04-04T13:56:08.392Z</time></trkpt><trkpt lon="34.85522" lat="31.726702"><ele>165.8</ele><time>2018-04-04T13:56:09.392Z</time></trkpt><trkpt lon="34.855238" lat="31.726695"><ele>165.8</ele><time>2018-04-04T13:56:10.392Z</time></trkpt><trkpt lon="34.855262" lat="31.726687"><ele>165.8</ele><time>2018-04-04T13:56:11.392Z</time></trkpt><trkpt lon="34.855283" lat="31.72668"><ele>165.8</ele><time>2018-04-04T13:56:12.392Z</time></trkpt><trkpt lon="34.855303" lat="31.726678"><ele>165.8</ele><time>2018-04-04T13:56:13.392Z</time></trkpt><trkpt lon="34.855327" lat="31.726678"><ele>165.8</ele><time>2018-04-04T13:56:14.392Z</time></trkpt><trkpt lon="34.855348" lat="31.726683"><ele>165.8</ele><time>2018-04-04T13:56:15.392Z</time></trkpt><trkpt lon="34.855367" lat="31.72669"><ele>165.8</ele><time>2018-04-04T13:56:16.392Z</time></trkpt><trkpt lon="34.855388" lat="31.726698"><ele>165.8</ele><time>2018-04-04T13:56:17.392Z</time></trkpt><trkpt lon="34.855405" lat="31.726708"><ele>165.8</ele><time>2018-04-04T13:56:18.392Z</time></trkpt><trkpt lon="34.855415" lat="31.726723"><ele>165.8</ele><time>2018-04-04T13:56:19.392Z</time></trkpt><trkpt lon="34.855422" lat="31.726738"><ele>166.9</ele><time>2018-04-04T13:56:20.392Z</time></trkpt><trkpt lon="34.855422" lat="31.726755"><ele>166.9</ele><time>2018-04-04T13:56:21.392Z</time></trkpt><trkpt lon="34.855417" lat="31.726773"><ele>166.9</ele><time>2018-04-04T13:56:22.392Z</time></trkpt><trkpt lon="34.855408" lat="31.726788"><ele>166.9</ele><time>2018-04-04T13:56:23.392Z</time></trkpt><trkpt lon="34.855397" lat="31.7268"><ele>166.9</ele><time>2018-04-04T13:56:24.392Z</time></trkpt><trkpt lon="34.85538" lat="31.726808"><ele>166.9</ele><time>2018-04-04T13:56:25.392Z</time></trkpt><trkpt lon="34.855358" lat="31.726813"><ele>166.9</ele><time>2018-04-04T13:56:26.392Z</time></trkpt><trkpt lon="34.855333" lat="31.726822"><ele>166.9</ele><time>2018-04-04T13:56:27.392Z</time></trkpt><trkpt lon="34.855308" lat="31.726835"><ele>166.9</ele><time>2018-04-04T13:56:28.392Z</time></trkpt><trkpt lon="34.855283" lat="31.726847"><ele>166.9</ele><time>2018-04-04T13:56:29.392Z</time></trkpt><trkpt lon="34.855262" lat="31.726858"><ele>166.9</ele><time>2018-04-04T13:56:30.392Z</time></trkpt><trkpt lon="34.855243" lat="31.726873"><ele>166.9</ele><time>2018-04-04T13:56:31.392Z</time></trkpt><trkpt lon="34.855228" lat="31.726888"><ele>166.9</ele><time>2018-04-04T13:56:32.392Z</time></trkpt><trkpt lon="34.85521" lat="31.726903"><ele>166.9</ele><time>2018-04-04T13:56:33.392Z</time></trkpt><trkpt lon="34.85519" lat="31.726918"><ele>166.9</ele><time>2018-04-04T13:56:34.392Z</time></trkpt><trkpt lon="34.855172" lat="31.726933"><ele>166.9</ele><time>2018-04-04T13:56:35.392Z</time></trkpt><trkpt lon="34.855158" lat="31.726952"><ele>166.9</ele><time>2018-04-04T13:56:36.392Z</time></trkpt><trkpt lon="34.855147" lat="31.726968"><ele>166.9</ele><time>2018-04-04T13:56:37.392Z</time></trkpt><trkpt lon="34.85514" lat="31.726983"><ele>166.9</ele><time>2018-04-04T13:56:38.392Z</time></trkpt><trkpt lon="34.85514" lat="31.726995"><ele>166.9</ele><time>2018-04-04T13:56:39.392Z</time></trkpt><trkpt lon="34.85515" lat="31.727"><ele>166.9</ele><time>2018-04-04T13:56:40.392Z</time></trkpt><trkpt lon="34.85516" lat="31.727005"><ele>166.9</ele><time>2018-04-04T13:56:41.392Z</time></trkpt><trkpt lon="34.855173" lat="31.727012"><ele>167.9</ele><time>2018-04-04T13:56:42.392Z</time></trkpt><trkpt lon="34.855183" lat="31.727018"><ele>167.9</ele><time>2018-04-04T13:56:43.392Z</time></trkpt><trkpt lon="34.855198" lat="31.727023"><ele>167.9</ele><time>2018-04-04T13:56:44.392Z</time></trkpt><trkpt lon="34.855218" lat="31.727027"><ele>167.9</ele><time>2018-04-04T13:56:45.392Z</time></trkpt><trkpt lon="34.855243" lat="31.727028"><ele>168.9</ele><time>2018-04-04T13:56:46.392Z</time></trkpt><trkpt lon="34.855267" lat="31.727035"><ele>168.9</ele><time>2018-04-04T13:56:47.392Z</time></trkpt><trkpt lon="34.855283" lat="31.727047"><ele>168.9</ele><time>2018-04-04T13:56:48.392Z</time></trkpt><trkpt lon="34.855298" lat="31.727057"><ele>168.9</ele><time>2018-04-04T13:56:49.392Z</time></trkpt><trkpt lon="34.855313" lat="31.727067"><ele>169.9</ele><time>2018-04-04T13:56:50.392Z</time></trkpt><trkpt lon="34.855327" lat="31.727077"><ele>169.9</ele><time>2018-04-04T13:56:51.392Z</time></trkpt><trkpt lon="34.855337" lat="31.72709"><ele>169.9</ele><time>2018-04-04T13:56:52.392Z</time></trkpt><trkpt lon="34.855342" lat="31.727103"><ele>169.9</ele><time>2018-04-04T13:56:53.392Z</time></trkpt><trkpt lon="34.855338" lat="31.727118"><ele>169.9</ele><time>2018-04-04T13:56:54.392Z</time></trkpt><trkpt lon="34.855335" lat="31.727132"><ele>169.9</ele><time>2018-04-04T13:56:55.392Z</time></trkpt><trkpt lon="34.855328" lat="31.727145"><ele>169.9</ele><time>2018-04-04T13:56:56.392Z</time></trkpt><trkpt lon="34.855323" lat="31.727162"><ele>169.9</ele><time>2018-04-04T13:56:57.392Z</time></trkpt><trkpt lon="34.855318" lat="31.727178"><ele>169.9</ele><time>2018-04-04T13:56:58.392Z</time></trkpt><trkpt lon="34.855312" lat="31.727195"><ele>169.9</ele><time>2018-04-04T13:56:59.392Z</time></trkpt><trkpt lon="34.855302" lat="31.72721"><ele>169.9</ele><time>2018-04-04T13:57:00.392Z</time></trkpt><trkpt lon="34.855297" lat="31.727227"><ele>169.9</ele><time>2018-04-04T13:57:01.392Z</time></trkpt><trkpt lon="34.855293" lat="31.727243"><ele>169.9</ele><time>2018-04-04T13:57:02.392Z</time></trkpt><trkpt lon="34.855292" lat="31.727258"><ele>169.9</ele><time>2018-04-04T13:57:03.392Z</time></trkpt><trkpt lon="34.855295" lat="31.72727"><ele>170.8</ele><time>2018-04-04T13:57:04.392Z</time></trkpt><trkpt lon="34.855303" lat="31.727282"><ele>170.8</ele><time>2018-04-04T13:57:05.392Z</time></trkpt><trkpt lon="34.855313" lat="31.727297"><ele>170.8</ele><time>2018-04-04T13:57:06.392Z</time></trkpt><trkpt lon="34.855322" lat="31.727312"><ele>170.8</ele><time>2018-04-04T13:57:07.392Z</time></trkpt><trkpt lon="34.855333" lat="31.727325"><ele>170.8</ele><time>2018-04-04T13:57:08.392Z</time></trkpt><trkpt lon="34.855348" lat="31.727332"><ele>170.8</ele><time>2018-04-04T13:57:09.392Z</time></trkpt><trkpt lon="34.855365" lat="31.727335"><ele>170.8</ele><time>2018-04-04T13:57:10.392Z</time></trkpt><trkpt lon="34.855382" lat="31.727338"><ele>170.8</ele><time>2018-04-04T13:57:11.392Z</time></trkpt><trkpt lon="34.855395" lat="31.727333"><ele>170.8</ele><time>2018-04-04T13:57:12.392Z</time></trkpt><trkpt lon="34.855415" lat="31.727328"><ele>170.8</ele><time>2018-04-04T13:57:13.392Z</time></trkpt><trkpt lon="34.855433" lat="31.727327"><ele>170.8</ele><time>2018-04-04T13:57:14.392Z</time></trkpt><trkpt lon="34.855452" lat="31.727332"><ele>170.8</ele><time>2018-04-04T13:57:15.392Z</time></trkpt><trkpt lon="34.855467" lat="31.727342"><ele>170.8</ele><time>2018-04-04T13:57:16.392Z</time></trkpt><trkpt lon="34.855485" lat="31.727347"><ele>170.8</ele><time>2018-04-04T13:57:17.392Z</time></trkpt><trkpt lon="34.855498" lat="31.72735"><ele>171.9</ele><time>2018-04-04T13:57:18.392Z</time></trkpt><trkpt lon="34.855515" lat="31.72735"><ele>171.9</ele><time>2018-04-04T13:57:19.392Z</time></trkpt><trkpt lon="34.855532" lat="31.727347"><ele>171.9</ele><time>2018-04-04T13:57:20.392Z</time></trkpt><trkpt lon="34.855545" lat="31.727338"><ele>171.9</ele><time>2018-04-04T13:57:21.392Z</time></trkpt><trkpt lon="34.855558" lat="31.727333"><ele>171.9</ele><time>2018-04-04T13:57:22.392Z</time></trkpt><trkpt lon="34.855573" lat="31.72733"><ele>171.9</ele><time>2018-04-04T13:57:23.392Z</time></trkpt><trkpt lon="34.855588" lat="31.727323"><ele>172.8</ele><time>2018-04-04T13:57:24.392Z</time></trkpt><trkpt lon="34.855603" lat="31.727315"><ele>172.8</ele><time>2018-04-04T13:57:25.392Z</time></trkpt><trkpt lon="34.855618" lat="31.72731"><ele>172.8</ele><time>2018-04-04T13:57:26.392Z</time></trkpt><trkpt lon="34.855635" lat="31.727303"><ele>172.8</ele><time>2018-04-04T13:57:27.392Z</time></trkpt><trkpt lon="34.855652" lat="31.727298"><ele>172.8</ele><time>2018-04-04T13:57:28.392Z</time></trkpt><trkpt lon="34.855672" lat="31.727293"><ele>172.8</ele><time>2018-04-04T13:57:29.392Z</time></trkpt><trkpt lon="34.855688" lat="31.727287"><ele>172.8</ele><time>2018-04-04T13:57:30.392Z</time></trkpt><trkpt lon="34.855705" lat="31.727277"><ele>172.8</ele><time>2018-04-04T13:57:31.392Z</time></trkpt><trkpt lon="34.855723" lat="31.727268"><ele>172.8</ele><time>2018-04-04T13:57:32.392Z</time></trkpt><trkpt lon="34.855745" lat="31.72726"><ele>172.8</ele><time>2018-04-04T13:57:33.392Z</time></trkpt><trkpt lon="34.855765" lat="31.727248"><ele>172.8</ele><time>2018-04-04T13:57:34.392Z</time></trkpt><trkpt lon="34.855785" lat="31.727238"><ele>172.8</ele><time>2018-04-04T13:57:35.392Z</time></trkpt><trkpt lon="34.855805" lat="31.727232"><ele>172.8</ele><time>2018-04-04T13:57:36.392Z</time></trkpt><trkpt lon="34.855825" lat="31.727227"><ele>172.8</ele><time>2018-04-04T13:57:37.392Z</time></trkpt><trkpt lon="34.855842" lat="31.72722"><ele>172.8</ele><time>2018-04-04T13:57:38.392Z</time></trkpt><trkpt lon="34.85586" lat="31.72721"><ele>172.8</ele><time>2018-04-04T13:57:39.392Z</time></trkpt><trkpt lon="34.855878" lat="31.727205"><ele>172.8</ele><time>2018-04-04T13:57:40.392Z</time></trkpt><trkpt lon="34.855898" lat="31.727202"><ele>172.8</ele><time>2018-04-04T13:57:41.392Z</time></trkpt><trkpt lon="34.855913" lat="31.727197"><ele>172.8</ele><time>2018-04-04T13:57:42.392Z</time></trkpt><trkpt lon="34.855928" lat="31.727195"><ele>172.8</ele><time>2018-04-04T13:57:43.392Z</time></trkpt><trkpt lon="34.855942" lat="31.727197"><ele>172.8</ele><time>2018-04-04T13:57:44.392Z</time></trkpt><trkpt lon="34.855952" lat="31.727202"><ele>172.8</ele><time>2018-04-04T13:57:45.392Z</time></trkpt><trkpt lon="34.855958" lat="31.72721"><ele>172.8</ele><time>2018-04-04T13:57:46.392Z</time></trkpt><trkpt lon="34.85596" lat="31.727218"><ele>172.8</ele><time>2018-04-04T13:57:47.392Z</time></trkpt><trkpt lon="34.855957" lat="31.72723"><ele>173.9</ele><time>2018-04-04T13:57:48.392Z</time></trkpt><trkpt lon="34.855952" lat="31.727242"><ele>173.9</ele><time>2018-04-04T13:57:49.392Z</time></trkpt><trkpt lon="34.855948" lat="31.727257"><ele>173.9</ele><time>2018-04-04T13:57:50.392Z</time></trkpt><trkpt lon="34.855938" lat="31.727268"><ele>173.9</ele><time>2018-04-04T13:57:51.392Z</time></trkpt><trkpt lon="34.855932" lat="31.727283"><ele>173.9</ele><time>2018-04-04T13:57:52.392Z</time></trkpt><trkpt lon="34.855923" lat="31.727298"><ele>173.9</ele><time>2018-04-04T13:57:53.392Z</time></trkpt><trkpt lon="34.855913" lat="31.727312"><ele>173.9</ele><time>2018-04-04T13:57:54.392Z</time></trkpt><trkpt lon="34.855905" lat="31.727322"><ele>173.9</ele><time>2018-04-04T13:57:55.392Z</time></trkpt><trkpt lon="34.855902" lat="31.727332"><ele>174.8</ele><time>2018-04-04T13:57:56.392Z</time></trkpt><trkpt lon="34.855895" lat="31.727337"><ele>174.8</ele><time>2018-04-04T13:57:57.392Z</time></trkpt><trkpt lon="34.855887" lat="31.727343"><ele>174.8</ele><time>2018-04-04T13:57:58.392Z</time></trkpt><trkpt lon="34.855878" lat="31.727353"><ele>174.8</ele><time>2018-04-04T13:57:59.392Z</time></trkpt><trkpt lon="34.855868" lat="31.727363"><ele>174.8</ele><time>2018-04-04T13:58:00.392Z</time></trkpt><trkpt lon="34.855858" lat="31.727375"><ele>174.8</ele><time>2018-04-04T13:58:01.392Z</time></trkpt><trkpt lon="34.855853" lat="31.727385"><ele>174.8</ele><time>2018-04-04T13:58:02.392Z</time></trkpt><trkpt lon="34.855853" lat="31.727392"><ele>174.8</ele><time>2018-04-04T13:58:03.392Z</time></trkpt><trkpt lon="34.855852" lat="31.7274"><ele>174.8</ele><time>2018-04-04T13:58:04.392Z</time></trkpt><trkpt lon="34.855855" lat="31.727405"><ele>174.8</ele><time>2018-04-04T13:58:05.392Z</time></trkpt><trkpt lon="34.855857" lat="31.727408"><ele>174.8</ele><time>2018-04-04T13:58:06.392Z</time></trkpt><trkpt lon="34.855858" lat="31.727415"><ele>174.8</ele><time>2018-04-04T13:58:07.392Z</time></trkpt><trkpt lon="34.855862" lat="31.727425"><ele>175.9</ele><time>2018-04-04T13:58:08.392Z</time></trkpt><trkpt lon="34.85586" lat="31.727437"><ele>175.9</ele><time>2018-04-04T13:58:09.392Z</time></trkpt><trkpt lon="34.855857" lat="31.727448"><ele>175.9</ele><time>2018-04-04T13:58:10.392Z</time></trkpt><trkpt lon="34.855852" lat="31.727463"><ele>175.9</ele><time>2018-04-04T13:58:11.392Z</time></trkpt><trkpt lon="34.855852" lat="31.727478"><ele>175.9</ele><time>2018-04-04T13:58:12.392Z</time></trkpt><trkpt lon="34.85585" lat="31.727493"><ele>175.9</ele><time>2018-04-04T13:58:13.392Z</time></trkpt><trkpt lon="34.855845" lat="31.727507"><ele>175.9</ele><time>2018-04-04T13:58:14.392Z</time></trkpt><trkpt lon="34.855833" lat="31.72752"><ele>175.9</ele><time>2018-04-04T13:58:15.392Z</time></trkpt><trkpt lon="34.85582" lat="31.727533"><ele>175.9</ele><time>2018-04-04T13:58:16.392Z</time></trkpt><trkpt lon="34.855805" lat="31.727543"><ele>175.9</ele><time>2018-04-04T13:58:17.392Z</time></trkpt><trkpt lon="34.855797" lat="31.727553"><ele>175.9</ele><time>2018-04-04T13:58:18.392Z</time></trkpt><trkpt lon="34.855785" lat="31.727563"><ele>175.9</ele><time>2018-04-04T13:58:19.392Z</time></trkpt><trkpt lon="34.855773" lat="31.727575"><ele>175.9</ele><time>2018-04-04T13:58:20.392Z</time></trkpt><trkpt lon="34.855763" lat="31.727587"><ele>175.9</ele><time>2018-04-04T13:58:21.392Z</time></trkpt><trkpt lon="34.855752" lat="31.727602"><ele>175.9</ele><time>2018-04-04T13:58:22.392Z</time></trkpt><trkpt lon="34.855747" lat="31.727618"><ele>175.9</ele><time>2018-04-04T13:58:23.392Z</time></trkpt><trkpt lon="34.855747" lat="31.727635"><ele>175.9</ele><time>2018-04-04T13:58:24.392Z</time></trkpt><trkpt lon="34.855748" lat="31.727652"><ele>175.9</ele><time>2018-04-04T13:58:25.392Z</time></trkpt><trkpt lon="34.855752" lat="31.727667"><ele>175.9</ele><time>2018-04-04T13:58:26.392Z</time></trkpt><trkpt lon="34.855758" lat="31.727682"><ele>175.9</ele><time>2018-04-04T13:58:27.392Z</time></trkpt><trkpt lon="34.855765" lat="31.7277"><ele>176.9</ele><time>2018-04-04T13:58:28.392Z</time></trkpt><trkpt lon="34.855768" lat="31.727718"><ele>176.9</ele><time>2018-04-04T13:58:29.392Z</time></trkpt><trkpt lon="34.85577" lat="31.727737"><ele>176.9</ele><time>2018-04-04T13:58:30.392Z</time></trkpt><trkpt lon="34.855767" lat="31.727753"><ele>176.9</ele><time>2018-04-04T13:58:31.392Z</time></trkpt><trkpt lon="34.855767" lat="31.727767"><ele>176.9</ele><time>2018-04-04T13:58:32.392Z</time></trkpt><trkpt lon="34.855765" lat="31.727783"><ele>176.9</ele><time>2018-04-04T13:58:33.392Z</time></trkpt><trkpt lon="34.855762" lat="31.727798"><ele>176.9</ele><time>2018-04-04T13:58:34.392Z</time></trkpt><trkpt lon="34.855763" lat="31.727812"><ele>176.9</ele><time>2018-04-04T13:58:35.392Z</time></trkpt><trkpt lon="34.855767" lat="31.72783"><ele>176.9</ele><time>2018-04-04T13:58:36.392Z</time></trkpt><trkpt lon="34.855773" lat="31.727848"><ele>176.9</ele><time>2018-04-04T13:58:37.392Z</time></trkpt><trkpt lon="34.855783" lat="31.727863"><ele>177.9</ele><time>2018-04-04T13:58:38.392Z</time></trkpt><trkpt lon="34.855795" lat="31.727877"><ele>177.9</ele><time>2018-04-04T13:58:39.392Z</time></trkpt><trkpt lon="34.855805" lat="31.727885"><ele>177.9</ele><time>2018-04-04T13:58:40.392Z</time></trkpt><trkpt lon="34.855817" lat="31.727892"><ele>177.9</ele><time>2018-04-04T13:58:41.392Z</time></trkpt><trkpt lon="34.855823" lat="31.727902"><ele>177.9</ele><time>2018-04-04T13:58:42.392Z</time></trkpt><trkpt lon="34.855825" lat="31.727913"><ele>177.9</ele><time>2018-04-04T13:58:43.392Z</time></trkpt><trkpt lon="34.855827" lat="31.727927"><ele>178.9</ele><time>2018-04-04T13:58:44.392Z</time></trkpt><trkpt lon="34.855827" lat="31.727942"><ele>178.9</ele><time>2018-04-04T13:58:45.392Z</time></trkpt><trkpt lon="34.855825" lat="31.727955"><ele>178.9</ele><time>2018-04-04T13:58:46.392Z</time></trkpt><trkpt lon="34.855828" lat="31.727968"><ele>178.9</ele><time>2018-04-04T13:58:47.392Z</time></trkpt><trkpt lon="34.855833" lat="31.727983"><ele>178.9</ele><time>2018-04-04T13:58:48.392Z</time></trkpt><trkpt lon="34.855838" lat="31.728"><ele>178.9</ele><time>2018-04-04T13:58:49.392Z</time></trkpt><trkpt lon="34.855845" lat="31.728012"><ele>178.9</ele><time>2018-04-04T13:58:50.392Z</time></trkpt><trkpt lon="34.855852" lat="31.728025"><ele>178.9</ele><time>2018-04-04T13:58:51.392Z</time></trkpt><trkpt lon="34.855853" lat="31.728042"><ele>178.9</ele><time>2018-04-04T13:58:52.392Z</time></trkpt><trkpt lon="34.855857" lat="31.728058"><ele>178.9</ele><time>2018-04-04T13:58:53.392Z</time></trkpt><trkpt lon="34.85586" lat="31.728078"><ele>178.9</ele><time>2018-04-04T13:58:54.392Z</time></trkpt><trkpt lon="34.855863" lat="31.728098"><ele>178.9</ele><time>2018-04-04T13:58:55.392Z</time></trkpt><trkpt lon="34.855868" lat="31.728115"><ele>178.9</ele><time>2018-04-04T13:58:56.392Z</time></trkpt><trkpt lon="34.855875" lat="31.728135"><ele>178.9</ele><time>2018-04-04T13:58:57.392Z</time></trkpt><trkpt lon="34.85588" lat="31.728152"><ele>178.9</ele><time>2018-04-04T13:58:58.392Z</time></trkpt><trkpt lon="34.855883" lat="31.72817"><ele>178.9</ele><time>2018-04-04T13:58:59.392Z</time></trkpt><trkpt lon="34.855885" lat="31.728188"><ele>179.8</ele><time>2018-04-04T13:59:00.392Z</time></trkpt><trkpt lon="34.85589" lat="31.728208"><ele>179.8</ele><time>2018-04-04T13:59:01.392Z</time></trkpt><trkpt lon="34.855895" lat="31.728227"><ele>179.8</ele><time>2018-04-04T13:59:02.392Z</time></trkpt><trkpt lon="34.855905" lat="31.728245"><ele>179.8</ele><time>2018-04-04T13:59:03.392Z</time></trkpt><trkpt lon="34.855918" lat="31.728257"><ele>179.8</ele><time>2018-04-04T13:59:04.392Z</time></trkpt><trkpt lon="34.855938" lat="31.728265"><ele>179.8</ele><time>2018-04-04T13:59:05.392Z</time></trkpt><trkpt lon="34.855958" lat="31.728272"><ele>180.9</ele><time>2018-04-04T13:59:06.392Z</time></trkpt><trkpt lon="34.855977" lat="31.728277"><ele>180.9</ele><time>2018-04-04T13:59:07.392Z</time></trkpt><trkpt lon="34.855997" lat="31.728283"><ele>180.9</ele><time>2018-04-04T13:59:08.392Z</time></trkpt><trkpt lon="34.856012" lat="31.728293"><ele>180.9</ele><time>2018-04-04T13:59:09.392Z</time></trkpt><trkpt lon="34.856027" lat="31.728307"><ele>181.8</ele><time>2018-04-04T13:59:10.392Z</time></trkpt><trkpt lon="34.85604" lat="31.728318"><ele>181.8</ele><time>2018-04-04T13:59:11.392Z</time></trkpt><trkpt lon="34.85605" lat="31.728332"><ele>181.8</ele><time>2018-04-04T13:59:12.392Z</time></trkpt><trkpt lon="34.856063" lat="31.728345"><ele>181.8</ele><time>2018-04-04T13:59:13.392Z</time></trkpt><trkpt lon="34.856075" lat="31.728357"><ele>182.9</ele><time>2018-04-04T13:59:14.392Z</time></trkpt><trkpt lon="34.856082" lat="31.72837"><ele>182.9</ele><time>2018-04-04T13:59:15.392Z</time></trkpt><trkpt lon="34.856087" lat="31.728382"><ele>182.9</ele><time>2018-04-04T13:59:16.392Z</time></trkpt><trkpt lon="34.856088" lat="31.728392"><ele>182.9</ele><time>2018-04-04T13:59:17.392Z</time></trkpt><trkpt lon="34.856087" lat="31.728405"><ele>182.9</ele><time>2018-04-04T13:59:18.392Z</time></trkpt><trkpt lon="34.856085" lat="31.728422"><ele>182.9</ele><time>2018-04-04T13:59:19.392Z</time></trkpt><trkpt lon="34.856083" lat="31.72844"><ele>182.9</ele><time>2018-04-04T13:59:20.392Z</time></trkpt><trkpt lon="34.856083" lat="31.728462"><ele>182.9</ele><time>2018-04-04T13:59:21.392Z</time></trkpt><trkpt lon="34.856085" lat="31.728482"><ele>182.9</ele><time>2018-04-04T13:59:22.392Z</time></trkpt><trkpt lon="34.85609" lat="31.7285"><ele>182.9</ele><time>2018-04-04T13:59:23.392Z</time></trkpt><trkpt lon="34.856097" lat="31.728517"><ele>182.9</ele><time>2018-04-04T13:59:24.392Z</time></trkpt><trkpt lon="34.856102" lat="31.728533"><ele>182.9</ele><time>2018-04-04T13:59:25.392Z</time></trkpt><trkpt lon="34.856102" lat="31.728548"><ele>182.9</ele><time>2018-04-04T13:59:26.392Z</time></trkpt><trkpt lon="34.8561" lat="31.728565"><ele>182.9</ele><time>2018-04-04T13:59:27.392Z</time></trkpt><trkpt lon="34.8561" lat="31.728583"><ele>182.9</ele><time>2018-04-04T13:59:28.392Z</time></trkpt><trkpt lon="34.8561" lat="31.728597"><ele>182.9</ele><time>2018-04-04T13:59:29.392Z</time></trkpt><trkpt lon="34.8561" lat="31.728613"><ele>182.9</ele><time>2018-04-04T13:59:30.392Z</time></trkpt><trkpt lon="34.856095" lat="31.728633"><ele>182.9</ele><time>2018-04-04T13:59:31.392Z</time></trkpt><trkpt lon="34.856092" lat="31.728655"><ele>183.8</ele><time>2018-04-04T13:59:32.392Z</time></trkpt><trkpt lon="34.856087" lat="31.728677"><ele>183.8</ele><time>2018-04-04T13:59:33.392Z</time></trkpt><trkpt lon="34.856085" lat="31.728698"><ele>183.8</ele><time>2018-04-04T13:59:34.392Z</time></trkpt><trkpt lon="34.856083" lat="31.728718"><ele>183.8</ele><time>2018-04-04T13:59:35.392Z</time></trkpt><trkpt lon="34.856075" lat="31.728737"><ele>183.8</ele><time>2018-04-04T13:59:36.392Z</time></trkpt><trkpt lon="34.856065" lat="31.728755"><ele>183.8</ele><time>2018-04-04T13:59:37.392Z</time></trkpt><trkpt lon="34.856053" lat="31.728772"><ele>183.8</ele><time>2018-04-04T13:59:38.392Z</time></trkpt><trkpt lon="34.856038" lat="31.728787"><ele>183.8</ele><time>2018-04-04T13:59:39.392Z</time></trkpt><trkpt lon="34.856022" lat="31.728798"><ele>183.8</ele><time>2018-04-04T13:59:40.392Z</time></trkpt><trkpt lon="34.856007" lat="31.728813"><ele>183.8</ele><time>2018-04-04T13:59:41.392Z</time></trkpt><trkpt lon="34.855997" lat="31.72883"><ele>183.8</ele><time>2018-04-04T13:59:42.392Z</time></trkpt><trkpt lon="34.855987" lat="31.728848"><ele>183.8</ele><time>2018-04-04T13:59:43.392Z</time></trkpt><trkpt lon="34.855973" lat="31.728865"><ele>183.8</ele><time>2018-04-04T13:59:44.392Z</time></trkpt><trkpt lon="34.85596" lat="31.728878"><ele>183.8</ele><time>2018-04-04T13:59:45.392Z</time></trkpt><trkpt lon="34.855943" lat="31.72889"><ele>183.8</ele><time>2018-04-04T13:59:46.392Z</time></trkpt><trkpt lon="34.855932" lat="31.728902"><ele>183.8</ele><time>2018-04-04T13:59:47.392Z</time></trkpt><trkpt lon="34.855918" lat="31.728913"><ele>183.8</ele><time>2018-04-04T13:59:48.392Z</time></trkpt><trkpt lon="34.855905" lat="31.728922"><ele>183.8</ele><time>2018-04-04T13:59:49.392Z</time></trkpt><trkpt lon="34.855893" lat="31.72894"><ele>183.8</ele><time>2018-04-04T13:59:50.392Z</time></trkpt><trkpt lon="34.855885" lat="31.728958"><ele>183.8</ele><time>2018-04-04T13:59:51.392Z</time></trkpt><trkpt lon="34.855878" lat="31.728977"><ele>183.8</ele><time>2018-04-04T13:59:52.392Z</time></trkpt><trkpt lon="34.855868" lat="31.72899"><ele>183.8</ele><time>2018-04-04T13:59:53.392Z</time></trkpt><trkpt lon="34.85586" lat="31.729007"><ele>184.9</ele><time>2018-04-04T13:59:54.392Z</time></trkpt><trkpt lon="34.855848" lat="31.729022"><ele>184.9</ele><time>2018-04-04T13:59:55.392Z</time></trkpt><trkpt lon="34.855833" lat="31.729037"><ele>184.9</ele><time>2018-04-04T13:59:56.392Z</time></trkpt><trkpt lon="34.855817" lat="31.729052"><ele>184.9</ele><time>2018-04-04T13:59:57.392Z</time></trkpt><trkpt lon="34.855802" lat="31.729068"><ele>184.9</ele><time>2018-04-04T13:59:58.392Z</time></trkpt><trkpt lon="34.855787" lat="31.729083"><ele>184.9</ele><time>2018-04-04T13:59:59.392Z</time></trkpt><trkpt lon="34.855775" lat="31.729098"><ele>184.9</ele><time>2018-04-04T14:00:00.392Z</time></trkpt><trkpt lon="34.855768" lat="31.729115"><ele>184.9</ele><time>2018-04-04T14:00:01.392Z</time></trkpt><trkpt lon="34.85576" lat="31.729132"><ele>184.9</ele><time>2018-04-04T14:00:02.392Z</time></trkpt><trkpt lon="34.855752" lat="31.729147"><ele>184.9</ele><time>2018-04-04T14:00:03.392Z</time></trkpt><trkpt lon="34.855745" lat="31.729162"><ele>184.9</ele><time>2018-04-04T14:00:04.392Z</time></trkpt><trkpt lon="34.855735" lat="31.72918"><ele>184.9</ele><time>2018-04-04T14:00:05.392Z</time></trkpt><trkpt lon="34.855727" lat="31.729197"><ele>185.9</ele><time>2018-04-04T14:00:06.392Z</time></trkpt><trkpt lon="34.855715" lat="31.72921"><ele>185.9</ele><time>2018-04-04T14:00:07.392Z</time></trkpt><trkpt lon="34.855705" lat="31.729228"><ele>185.9</ele><time>2018-04-04T14:00:08.392Z</time></trkpt><trkpt lon="34.855693" lat="31.729247"><ele>185.9</ele><time>2018-04-04T14:00:09.392Z</time></trkpt><trkpt lon="34.855683" lat="31.729262"><ele>185.9</ele><time>2018-04-04T14:00:10.392Z</time></trkpt><trkpt lon="34.85568" lat="31.729278"><ele>185.9</ele><time>2018-04-04T14:00:11.392Z</time></trkpt><trkpt lon="34.855678" lat="31.729292"><ele>185.9</ele><time>2018-04-04T14:00:12.392Z</time></trkpt><trkpt lon="34.855678" lat="31.729307"><ele>185.9</ele><time>2018-04-04T14:00:13.392Z</time></trkpt><trkpt lon="34.855672" lat="31.729322"><ele>185.9</ele><time>2018-04-04T14:00:14.392Z</time></trkpt><trkpt lon="34.855663" lat="31.729335"><ele>185.9</ele><time>2018-04-04T14:00:15.392Z</time></trkpt><trkpt lon="34.855653" lat="31.729352"><ele>185.9</ele><time>2018-04-04T14:00:16.392Z</time></trkpt><trkpt lon="34.855648" lat="31.729368"><ele>185.9</ele><time>2018-04-04T14:00:17.392Z</time></trkpt><trkpt lon="34.855643" lat="31.729385"><ele>185.9</ele><time>2018-04-04T14:00:18.392Z</time></trkpt><trkpt lon="34.855638" lat="31.729405"><ele>185.9</ele><time>2018-04-04T14:00:19.392Z</time></trkpt><trkpt lon="34.855633" lat="31.729427"><ele>185.9</ele><time>2018-04-04T14:00:20.392Z</time></trkpt><trkpt lon="34.855625" lat="31.72945"><ele>185.9</ele><time>2018-04-04T14:00:21.392Z</time></trkpt><trkpt lon="34.855612" lat="31.729472"><ele>185.9</ele><time>2018-04-04T14:00:22.392Z</time></trkpt><trkpt lon="34.855597" lat="31.729493"><ele>185.9</ele><time>2018-04-04T14:00:23.392Z</time></trkpt><trkpt lon="34.855582" lat="31.729515"><ele>185.9</ele><time>2018-04-04T14:00:24.392Z</time></trkpt><trkpt lon="34.855567" lat="31.729535"><ele>185.9</ele><time>2018-04-04T14:00:25.392Z</time></trkpt><trkpt lon="34.855557" lat="31.729555"><ele>185.9</ele><time>2018-04-04T14:00:26.392Z</time></trkpt><trkpt lon="34.855557" lat="31.729577"><ele>185.9</ele><time>2018-04-04T14:00:27.392Z</time></trkpt><trkpt lon="34.855567" lat="31.729595"><ele>185.9</ele><time>2018-04-04T14:00:28.392Z</time></trkpt><trkpt lon="34.855575" lat="31.729613"><ele>185.9</ele><time>2018-04-04T14:00:29.392Z</time></trkpt><trkpt lon="34.855583" lat="31.729628"><ele>185.9</ele><time>2018-04-04T14:00:30.392Z</time></trkpt><trkpt lon="34.855587" lat="31.729645"><ele>185.9</ele><time>2018-04-04T14:00:31.392Z</time></trkpt><trkpt lon="34.855597" lat="31.729658"><ele>185.9</ele><time>2018-04-04T14:00:32.392Z</time></trkpt><trkpt lon="34.855607" lat="31.729677"><ele>185.9</ele><time>2018-04-04T14:00:33.392Z</time></trkpt><trkpt lon="34.855615" lat="31.729695"><ele>185.9</ele><time>2018-04-04T14:00:34.392Z</time></trkpt><trkpt lon="34.85562" lat="31.729717"><ele>185.9</ele><time>2018-04-04T14:00:35.392Z</time></trkpt><trkpt lon="34.855618" lat="31.729738"><ele>185.9</ele><time>2018-04-04T14:00:36.392Z</time></trkpt><trkpt lon="34.855613" lat="31.729762"><ele>185.9</ele><time>2018-04-04T14:00:37.392Z</time></trkpt><trkpt lon="34.8556" lat="31.729785"><ele>185.9</ele><time>2018-04-04T14:00:38.392Z</time></trkpt><trkpt lon="34.855582" lat="31.729807"><ele>185.9</ele><time>2018-04-04T14:00:39.392Z</time></trkpt><trkpt lon="34.855555" lat="31.729828"><ele>184.9</ele><time>2018-04-04T14:00:40.392Z</time></trkpt><trkpt lon="34.855528" lat="31.729853"><ele>184.9</ele><time>2018-04-04T14:00:41.392Z</time></trkpt><trkpt lon="34.855502" lat="31.729883"><ele>183.8</ele><time>2018-04-04T14:00:42.392Z</time></trkpt><trkpt lon="34.855478" lat="31.729917"><ele>183.8</ele><time>2018-04-04T14:00:43.392Z</time></trkpt><trkpt lon="34.855455" lat="31.729947"><ele>183.8</ele><time>2018-04-04T14:00:44.392Z</time></trkpt><trkpt lon="34.855427" lat="31.729968"><ele>183.8</ele><time>2018-04-04T14:00:45.392Z</time></trkpt><trkpt lon="34.855402" lat="31.72998"><ele>182.9</ele><time>2018-04-04T14:00:46.392Z</time></trkpt><trkpt lon="34.855382" lat="31.72997"><ele>182.9</ele><time>2018-04-04T14:00:47.392Z</time></trkpt><trkpt lon="34.855358" lat="31.729957"><ele>182.9</ele><time>2018-04-04T14:00:48.392Z</time></trkpt><trkpt lon="34.85533" lat="31.729943"><ele>182.9</ele><time>2018-04-04T14:00:49.392Z</time></trkpt><trkpt lon="34.855297" lat="31.729933"><ele>182.9</ele><time>2018-04-04T14:00:50.392Z</time></trkpt><trkpt lon="34.85526" lat="31.729923"><ele>182.9</ele><time>2018-04-04T14:00:51.392Z</time></trkpt><trkpt lon="34.855225" lat="31.729908"><ele>181.8</ele><time>2018-04-04T14:00:52.392Z</time></trkpt><trkpt lon="34.855192" lat="31.729893"><ele>181.8</ele><time>2018-04-04T14:00:53.392Z</time></trkpt><trkpt lon="34.855157" lat="31.72988"><ele>180.9</ele><time>2018-04-04T14:00:54.392Z</time></trkpt><trkpt lon="34.85512" lat="31.72987"><ele>180.9</ele><time>2018-04-04T14:00:55.392Z</time></trkpt><trkpt lon="34.855087" lat="31.729858"><ele>179.8</ele><time>2018-04-04T14:00:56.392Z</time></trkpt><trkpt lon="34.855053" lat="31.729852"><ele>179.8</ele><time>2018-04-04T14:00:57.392Z</time></trkpt><trkpt lon="34.855023" lat="31.729848"><ele>179.8</ele><time>2018-04-04T14:00:58.392Z</time></trkpt><trkpt lon="34.855" lat="31.729853"><ele>179.8</ele><time>2018-04-04T14:00:59.392Z</time></trkpt><trkpt lon="34.854982" lat="31.729858"><ele>179.8</ele><time>2018-04-04T14:01:00.392Z</time></trkpt><trkpt lon="34.854977" lat="31.729872"><ele>179.8</ele><time>2018-04-04T14:01:01.392Z</time></trkpt><trkpt lon="34.854988" lat="31.72989"><ele>179.8</ele><time>2018-04-04T14:01:02.392Z</time></trkpt><trkpt lon="34.855005" lat="31.729908"><ele>179.8</ele><time>2018-04-04T14:01:03.392Z</time></trkpt><trkpt lon="34.855023" lat="31.729925"><ele>179.8</ele><time>2018-04-04T14:01:04.392Z</time></trkpt><trkpt lon="34.855045" lat="31.72994"><ele>179.8</ele><time>2018-04-04T14:01:05.392Z</time></trkpt><trkpt lon="34.85506" lat="31.729957"><ele>179.8</ele><time>2018-04-04T14:01:06.392Z</time></trkpt><trkpt lon="34.855075" lat="31.729975"><ele>179.8</ele><time>2018-04-04T14:01:07.392Z</time></trkpt><trkpt lon="34.855088" lat="31.729993"><ele>179.8</ele><time>2018-04-04T14:01:08.392Z</time></trkpt><trkpt lon="34.855102" lat="31.730017"><ele>179.8</ele><time>2018-04-04T14:01:09.392Z</time></trkpt><trkpt lon="34.855115" lat="31.730038"><ele>179.8</ele><time>2018-04-04T14:01:10.392Z</time></trkpt><trkpt lon="34.85513" lat="31.730058"><ele>179.8</ele><time>2018-04-04T14:01:11.392Z</time></trkpt><trkpt lon="34.855147" lat="31.730077"><ele>179.8</ele><time>2018-04-04T14:01:12.392Z</time></trkpt><trkpt lon="34.855162" lat="31.730098"><ele>179.8</ele><time>2018-04-04T14:01:13.392Z</time></trkpt><trkpt lon="34.855175" lat="31.730122"><ele>179.8</ele><time>2018-04-04T14:01:14.392Z</time></trkpt><trkpt lon="34.855193" lat="31.730145"><ele>179.8</ele><time>2018-04-04T14:01:15.392Z</time></trkpt><trkpt lon="34.855213" lat="31.73017"><ele>179.8</ele><time>2018-04-04T14:01:16.392Z</time></trkpt><trkpt lon="34.855232" lat="31.730195"><ele>179.8</ele><time>2018-04-04T14:01:17.392Z</time></trkpt><trkpt lon="34.85525" lat="31.730222"><ele>179.8</ele><time>2018-04-04T14:01:18.392Z</time></trkpt><trkpt lon="34.855272" lat="31.730248"><ele>179.8</ele><time>2018-04-04T14:01:19.392Z</time></trkpt><trkpt lon="34.855297" lat="31.730275"><ele>178.9</ele><time>2018-04-04T14:01:20.392Z</time></trkpt><trkpt lon="34.855317" lat="31.730303"><ele>178.9</ele><time>2018-04-04T14:01:21.392Z</time></trkpt><trkpt lon="34.855332" lat="31.730337"><ele>177.9</ele><time>2018-04-04T14:01:22.392Z</time></trkpt><trkpt lon="34.855337" lat="31.730373"><ele>177.9</ele><time>2018-04-04T14:01:23.392Z</time></trkpt><trkpt lon="34.85534" lat="31.730413"><ele>176.9</ele><time>2018-04-04T14:01:24.392Z</time></trkpt><trkpt lon="34.855347" lat="31.730458"><ele>176.9</ele><time>2018-04-04T14:01:25.392Z</time></trkpt><trkpt lon="34.855353" lat="31.730507"><ele>175.9</ele><time>2018-04-04T14:01:26.392Z</time></trkpt><trkpt lon="34.855357" lat="31.730557"><ele>175.9</ele><time>2018-04-04T14:01:27.392Z</time></trkpt><trkpt lon="34.855363" lat="31.730607"><ele>175.9</ele><time>2018-04-04T14:01:28.392Z</time></trkpt><trkpt lon="34.855377" lat="31.730655"><ele>175.9</ele><time>2018-04-04T14:01:29.392Z</time></trkpt><trkpt lon="34.855402" lat="31.730702"><ele>175.9</ele><time>2018-04-04T14:01:30.392Z</time></trkpt><trkpt lon="34.855432" lat="31.730742"><ele>175.9</ele><time>2018-04-04T14:01:31.392Z</time></trkpt><trkpt lon="34.85546" lat="31.730783"><ele>175.9</ele><time>2018-04-04T14:01:32.392Z</time></trkpt><trkpt lon="34.855493" lat="31.730822"><ele>175.9</ele><time>2018-04-04T14:01:33.392Z</time></trkpt><trkpt lon="34.855527" lat="31.730857"><ele>175.9</ele><time>2018-04-04T14:01:34.392Z</time></trkpt><trkpt lon="34.855557" lat="31.730885"><ele>175.9</ele><time>2018-04-04T14:01:35.392Z</time></trkpt><trkpt lon="34.855583" lat="31.730915"><ele>175.9</ele><time>2018-04-04T14:01:36.392Z</time></trkpt><trkpt lon="34.855602" lat="31.730947"><ele>175.9</ele><time>2018-04-04T14:01:37.392Z</time></trkpt><trkpt lon="34.855602" lat="31.730973"><ele>175.9</ele><time>2018-04-04T14:01:38.392Z</time></trkpt><trkpt lon="34.8556" lat="31.731005"><ele>175.9</ele><time>2018-04-04T14:01:39.392Z</time></trkpt><trkpt lon="34.855588" lat="31.731038"><ele>175.9</ele><time>2018-04-04T14:01:40.392Z</time></trkpt><trkpt lon="34.855568" lat="31.731065"><ele>175.9</ele><time>2018-04-04T14:01:41.392Z</time></trkpt><trkpt lon="34.855543" lat="31.731082"><ele>175.9</ele><time>2018-04-04T14:01:42.392Z</time></trkpt><trkpt lon="34.855513" lat="31.73109"><ele>175.9</ele><time>2018-04-04T14:01:43.392Z</time></trkpt><trkpt lon="34.855488" lat="31.731097"><ele>171.9</ele><time>2018-04-04T14:01:44.392Z</time></trkpt><trkpt lon="34.855458" lat="31.731105"><ele>171.9</ele><time>2018-04-04T14:01:45.392Z</time></trkpt><trkpt lon="34.855433" lat="31.731115"><ele>171.9</ele><time>2018-04-04T14:01:46.392Z</time></trkpt><trkpt lon="34.855413" lat="31.731128"><ele>171.9</ele><time>2018-04-04T14:01:47.392Z</time></trkpt><trkpt lon="34.855393" lat="31.731145"><ele>170.8</ele><time>2018-04-04T14:01:48.392Z</time></trkpt><trkpt lon="34.855385" lat="31.731163"><ele>170.8</ele><time>2018-04-04T14:01:49.392Z</time></trkpt><trkpt lon="34.855382" lat="31.731188"><ele>170.8</ele><time>2018-04-04T14:01:50.392Z</time></trkpt><trkpt lon="34.855387" lat="31.731218"><ele>170.8</ele><time>2018-04-04T14:01:51.392Z</time></trkpt><trkpt lon="34.85539" lat="31.73125"><ele>169.9</ele><time>2018-04-04T14:01:52.392Z</time></trkpt><trkpt lon="34.85539" lat="31.731283"><ele>169.9</ele><time>2018-04-04T14:01:53.392Z</time></trkpt><trkpt lon="34.855383" lat="31.731315"><ele>168.9</ele><time>2018-04-04T14:01:54.392Z</time></trkpt><trkpt lon="34.855365" lat="31.731347"><ele>168.9</ele><time>2018-04-04T14:01:55.392Z</time></trkpt><trkpt lon="34.855345" lat="31.731382"><ele>168.9</ele><time>2018-04-04T14:01:56.392Z</time></trkpt><trkpt lon="34.85533" lat="31.731422"><ele>168.9</ele><time>2018-04-04T14:01:57.392Z</time></trkpt><trkpt lon="34.855322" lat="31.731473"><ele>168.9</ele><time>2018-04-04T14:01:58.392Z</time></trkpt><trkpt lon="34.855317" lat="31.731525"><ele>168.9</ele><time>2018-04-04T14:01:59.392Z</time></trkpt><trkpt lon="34.855317" lat="31.731578"><ele>165.8</ele><time>2018-04-04T14:02:00.392Z</time></trkpt><trkpt lon="34.855322" lat="31.731633"><ele>165.8</ele><time>2018-04-04T14:02:01.392Z</time></trkpt><trkpt lon="34.855335" lat="31.731683"><ele>164.9</ele><time>2018-04-04T14:02:02.392Z</time></trkpt><trkpt lon="34.855353" lat="31.731723"><ele>164.9</ele><time>2018-04-04T14:02:03.392Z</time></trkpt><trkpt lon="34.855377" lat="31.731752"><ele>164.9</ele><time>2018-04-04T14:02:04.392Z</time></trkpt><trkpt lon="34.855405" lat="31.731765"><ele>164.9</ele><time>2018-04-04T14:02:05.392Z</time></trkpt><trkpt lon="34.855435" lat="31.731772"><ele>164.9</ele><time>2018-04-04T14:02:06.392Z</time></trkpt><trkpt lon="34.855465" lat="31.731778"><ele>164.9</ele><time>2018-04-04T14:02:07.392Z</time></trkpt><trkpt lon="34.855493" lat="31.731785"><ele>164.9</ele><time>2018-04-04T14:02:08.392Z</time></trkpt><trkpt lon="34.855518" lat="31.731793"><ele>164.9</ele><time>2018-04-04T14:02:09.392Z</time></trkpt><trkpt lon="34.855543" lat="31.731807"><ele>164.9</ele><time>2018-04-04T14:02:10.392Z</time></trkpt><trkpt lon="34.855572" lat="31.731817"><ele>164.9</ele><time>2018-04-04T14:02:11.392Z</time></trkpt><trkpt lon="34.855603" lat="31.731823"><ele>164.9</ele><time>2018-04-04T14:02:12.392Z</time></trkpt><trkpt lon="34.855632" lat="31.731833"><ele>164.9</ele><time>2018-04-04T14:02:13.392Z</time></trkpt><trkpt lon="34.855663" lat="31.73184"><ele>165.8</ele><time>2018-04-04T14:02:14.392Z</time></trkpt><trkpt lon="34.855693" lat="31.73184"><ele>165.8</ele><time>2018-04-04T14:02:15.392Z</time></trkpt><trkpt lon="34.85572" lat="31.731837"><ele>165.8</ele><time>2018-04-04T14:02:16.392Z</time></trkpt><trkpt lon="34.855745" lat="31.73183"><ele>165.8</ele><time>2018-04-04T14:02:17.392Z</time></trkpt><trkpt lon="34.85577" lat="31.731825"><ele>165.8</ele><time>2018-04-04T14:02:18.392Z</time></trkpt><trkpt lon="34.855797" lat="31.731825"><ele>165.8</ele><time>2018-04-04T14:02:19.392Z</time></trkpt><trkpt lon="34.855822" lat="31.731828"><ele>165.8</ele><time>2018-04-04T14:02:20.392Z</time></trkpt><trkpt lon="34.855848" lat="31.731828"><ele>165.8</ele><time>2018-04-04T14:02:21.392Z</time></trkpt><trkpt lon="34.855872" lat="31.73183"><ele>165.8</ele><time>2018-04-04T14:02:22.392Z</time></trkpt><trkpt lon="34.855895" lat="31.73183"><ele>165.8</ele><time>2018-04-04T14:02:23.392Z</time></trkpt><trkpt lon="34.85592" lat="31.731832"><ele>165.8</ele><time>2018-04-04T14:02:24.392Z</time></trkpt><trkpt lon="34.855947" lat="31.731837"><ele>165.8</ele><time>2018-04-04T14:02:25.392Z</time></trkpt><trkpt lon="34.855972" lat="31.731843"><ele>165.8</ele><time>2018-04-04T14:02:26.392Z</time></trkpt><trkpt lon="34.855992" lat="31.731853"><ele>165.8</ele><time>2018-04-04T14:02:27.392Z</time></trkpt><trkpt lon="34.85601" lat="31.731865"><ele>165.8</ele><time>2018-04-04T14:02:28.392Z</time></trkpt><trkpt lon="34.856025" lat="31.731873"><ele>165.8</ele><time>2018-04-04T14:02:29.392Z</time></trkpt><trkpt lon="34.856042" lat="31.731882"><ele>165.8</ele><time>2018-04-04T14:02:30.392Z</time></trkpt><trkpt lon="34.856058" lat="31.731892"><ele>165.8</ele><time>2018-04-04T14:02:31.392Z</time></trkpt><trkpt lon="34.856083" lat="31.731905"><ele>165.8</ele><time>2018-04-04T14:02:32.392Z</time></trkpt><trkpt lon="34.85611" lat="31.731915"><ele>165.8</ele><time>2018-04-04T14:02:33.392Z</time></trkpt><trkpt lon="34.856137" lat="31.73192"><ele>165.8</ele><time>2018-04-04T14:02:34.392Z</time></trkpt><trkpt lon="34.856165" lat="31.73192"><ele>165.8</ele><time>2018-04-04T14:02:35.392Z</time></trkpt><trkpt lon="34.85619" lat="31.731917"><ele>165.8</ele><time>2018-04-04T14:02:36.392Z</time></trkpt><trkpt lon="34.856213" lat="31.731912"><ele>165.8</ele><time>2018-04-04T14:02:37.392Z</time></trkpt><trkpt lon="34.856232" lat="31.731903"><ele>166.9</ele><time>2018-04-04T14:02:38.392Z</time></trkpt><trkpt lon="34.856253" lat="31.731895"><ele>166.9</ele><time>2018-04-04T14:02:39.392Z</time></trkpt><trkpt lon="34.856277" lat="31.731888"><ele>166.9</ele><time>2018-04-04T14:02:40.392Z</time></trkpt><trkpt lon="34.856298" lat="31.73188"><ele>166.9</ele><time>2018-04-04T14:02:41.392Z</time></trkpt><trkpt lon="34.85632" lat="31.731873"><ele>166.9</ele><time>2018-04-04T14:02:42.392Z</time></trkpt><trkpt lon="34.856342" lat="31.731872"><ele>166.9</ele><time>2018-04-04T14:02:43.392Z</time></trkpt><trkpt lon="34.856363" lat="31.731873"><ele>167.9</ele><time>2018-04-04T14:02:44.392Z</time></trkpt><trkpt lon="34.856385" lat="31.731873"><ele>167.9</ele><time>2018-04-04T14:02:45.392Z</time></trkpt><trkpt lon="34.856403" lat="31.731878"><ele>167.9</ele><time>2018-04-04T14:02:46.392Z</time></trkpt><trkpt lon="34.856415" lat="31.73189"><ele>167.9</ele><time>2018-04-04T14:02:47.392Z</time></trkpt><trkpt lon="34.856428" lat="31.7319"><ele>167.9</ele><time>2018-04-04T14:02:48.392Z</time></trkpt><trkpt lon="34.856442" lat="31.731913"><ele>167.9</ele><time>2018-04-04T14:02:49.392Z</time></trkpt><trkpt lon="34.856448" lat="31.731923"><ele>167.9</ele><time>2018-04-04T14:02:50.392Z</time></trkpt><trkpt lon="34.856452" lat="31.731923"><ele>167.9</ele><time>2018-04-04T14:02:51.392Z</time></trkpt><trkpt lon="34.856453" lat="31.731925"><ele>167.9</ele><time>2018-04-04T14:02:52.392Z</time></trkpt><trkpt lon="34.85646" lat="31.731923"><ele>167.9</ele><time>2018-04-04T14:02:53.392Z</time></trkpt><trkpt lon="34.856462" lat="31.731923"><ele>167.9</ele><time>2018-04-04T14:02:54.392Z</time></trkpt><trkpt lon="34.856473" lat="31.731935"><ele>167.9</ele><time>2018-04-04T14:03:43.392Z</time></trkpt><trkpt lon="34.856478" lat="31.731947"><ele>166.9</ele><time>2018-04-04T14:03:44.392Z</time></trkpt><trkpt lon="34.856483" lat="31.731958"><ele>166.9</ele><time>2018-04-04T14:03:45.392Z</time></trkpt><trkpt lon="34.856492" lat="31.731982"><ele>165.8</ele><time>2018-04-04T14:03:46.392Z</time></trkpt><trkpt lon="34.856493" lat="31.732013"><ele>165.8</ele><time>2018-04-04T14:03:47.392Z</time></trkpt><trkpt lon="34.856488" lat="31.732043"><ele>164.9</ele><time>2018-04-04T14:03:48.392Z</time></trkpt><trkpt lon="34.856475" lat="31.732073"><ele>164.9</ele><time>2018-04-04T14:03:49.392Z</time></trkpt><trkpt lon="34.856462" lat="31.732107"><ele>164.9</ele><time>2018-04-04T14:03:50.392Z</time></trkpt><trkpt lon="34.856447" lat="31.732138"><ele>164.9</ele><time>2018-04-04T14:03:51.392Z</time></trkpt><trkpt lon="34.856437" lat="31.732167"><ele>164.9</ele><time>2018-04-04T14:03:52.392Z</time></trkpt><trkpt lon="34.85643" lat="31.732195"><ele>164.9</ele><time>2018-04-04T14:03:53.392Z</time></trkpt><trkpt lon="34.856427" lat="31.732203"><ele>164.9</ele><time>2018-04-04T14:03:54.392Z</time></trkpt><trkpt lon="34.856425" lat="31.732207"><ele>164.9</ele><time>2018-04-04T14:03:55.392Z</time></trkpt><trkpt lon="34.856422" lat="31.732213"><ele>163.8</ele><time>2018-04-04T14:03:56.392Z</time></trkpt><trkpt lon="34.856418" lat="31.732222"><ele>163.8</ele><time>2018-04-04T14:03:57.392Z</time></trkpt><trkpt lon="34.856415" lat="31.732233"><ele>163.8</ele><time>2018-04-04T14:03:58.392Z</time></trkpt><trkpt lon="34.85641" lat="31.732242"><ele>163.8</ele><time>2018-04-04T14:03:59.392Z</time></trkpt><trkpt lon="34.85641" lat="31.732242"><ele>162.9</ele><time>2018-04-04T14:04:00.392Z</time></trkpt><trkpt lon="34.856402" lat="31.732243"><ele>162.9</ele><time>2018-04-04T14:04:01.392Z</time></trkpt><trkpt lon="34.856387" lat="31.732252"><ele>162.9</ele><time>2018-04-04T14:04:02.392Z</time></trkpt><trkpt lon="34.856363" lat="31.73227"><ele>162.9</ele><time>2018-04-04T14:04:03.392Z</time></trkpt><trkpt lon="34.856338" lat="31.732293"><ele>162.9</ele><time>2018-04-04T14:04:04.392Z</time></trkpt><trkpt lon="34.856313" lat="31.732322"><ele>162.9</ele><time>2018-04-04T14:04:05.392Z</time></trkpt><trkpt lon="34.856293" lat="31.732353"><ele>162.9</ele><time>2018-04-04T14:04:06.392Z</time></trkpt><trkpt lon="34.856277" lat="31.732383"><ele>162.9</ele><time>2018-04-04T14:04:07.392Z</time></trkpt><trkpt lon="34.85627" lat="31.73241"><ele>158.8</ele><time>2018-04-04T14:04:08.392Z</time></trkpt><trkpt lon="34.85628" lat="31.732433"><ele>158.8</ele><time>2018-04-04T14:04:09.392Z</time></trkpt><trkpt lon="34.856297" lat="31.732455"><ele>158.8</ele><time>2018-04-04T14:04:10.392Z</time></trkpt><trkpt lon="34.856318" lat="31.732473"><ele>158.8</ele><time>2018-04-04T14:04:11.392Z</time></trkpt><trkpt lon="34.856347" lat="31.732475"><ele>158.8</ele><time>2018-04-04T14:04:12.392Z</time></trkpt><trkpt lon="34.856368" lat="31.732468"><ele>158.8</ele><time>2018-04-04T14:04:13.392Z</time></trkpt><trkpt lon="34.85639" lat="31.73246"><ele>158.8</ele><time>2018-04-04T14:04:14.392Z</time></trkpt><trkpt lon="34.85641" lat="31.73245"><ele>158.8</ele><time>2018-04-04T14:04:15.392Z</time></trkpt><trkpt lon="34.856428" lat="31.73244"><ele>158.8</ele><time>2018-04-04T14:04:16.392Z</time></trkpt><trkpt lon="34.856443" lat="31.73243"><ele>158.8</ele><time>2018-04-04T14:04:17.392Z</time></trkpt><trkpt lon="34.856458" lat="31.732422"><ele>158.8</ele><time>2018-04-04T14:04:18.392Z</time></trkpt><trkpt lon="34.856472" lat="31.732413"><ele>158.8</ele><time>2018-04-04T14:04:19.392Z</time></trkpt><trkpt lon="34.856485" lat="31.73241"><ele>158.8</ele><time>2018-04-04T14:04:20.392Z</time></trkpt><trkpt lon="34.8565" lat="31.732408"><ele>158.8</ele><time>2018-04-04T14:04:21.392Z</time></trkpt><trkpt lon="34.856512" lat="31.732403"><ele>158.8</ele><time>2018-04-04T14:04:22.392Z</time></trkpt><trkpt lon="34.856518" lat="31.732402"><ele>158.8</ele><time>2018-04-04T14:04:23.392Z</time></trkpt><trkpt lon="34.85652" lat="31.732402"><ele>158.8</ele><time>2018-04-04T14:04:24.392Z</time></trkpt><trkpt lon="34.856522" lat="31.732402"><ele>158.8</ele><time>2018-04-04T14:04:25.392Z</time></trkpt><trkpt lon="34.856523" lat="31.732402"><ele>158.8</ele><time>2018-04-04T14:04:26.392Z</time></trkpt><trkpt lon="34.856545" lat="31.732397"><ele>158.8</ele><time>2018-04-04T14:04:42.392Z</time></trkpt><trkpt lon="34.856562" lat="31.732388"><ele>158.8</ele><time>2018-04-04T14:04:43.392Z</time></trkpt><trkpt lon="34.856573" lat="31.732373"><ele>158.8</ele><time>2018-04-04T14:04:44.392Z</time></trkpt><trkpt lon="34.85658" lat="31.732357"><ele>158.8</ele><time>2018-04-04T14:04:45.392Z</time></trkpt><trkpt lon="34.856592" lat="31.732342"><ele>158.8</ele><time>2018-04-04T14:04:46.392Z</time></trkpt><trkpt lon="34.856603" lat="31.732327"><ele>158.8</ele><time>2018-04-04T14:04:47.392Z</time></trkpt><trkpt lon="34.856613" lat="31.732312"><ele>158.8</ele><time>2018-04-04T14:04:48.392Z</time></trkpt><trkpt lon="34.856628" lat="31.732297"><ele>158.8</ele><time>2018-04-04T14:04:49.392Z</time></trkpt><trkpt lon="34.85665" lat="31.732282"><ele>158.8</ele><time>2018-04-04T14:04:50.392Z</time></trkpt><trkpt lon="34.85668" lat="31.73226"><ele>158.8</ele><time>2018-04-04T14:04:51.392Z</time></trkpt><trkpt lon="34.856715" lat="31.732235"><ele>158.8</ele><time>2018-04-04T14:04:52.392Z</time></trkpt><trkpt lon="34.856745" lat="31.73221"><ele>158.8</ele><time>2018-04-04T14:04:53.392Z</time></trkpt><trkpt lon="34.856777" lat="31.732187"><ele>158.8</ele><time>2018-04-04T14:04:54.392Z</time></trkpt><trkpt lon="34.856808" lat="31.732165"><ele>158.8</ele><time>2018-04-04T14:04:55.392Z</time></trkpt><trkpt lon="34.856842" lat="31.732145"><ele>158.8</ele><time>2018-04-04T14:04:56.392Z</time></trkpt><trkpt lon="34.856872" lat="31.73213"><ele>158.8</ele><time>2018-04-04T14:04:57.392Z</time></trkpt><trkpt lon="34.856908" lat="31.732115"><ele>158.8</ele><time>2018-04-04T14:04:58.392Z</time></trkpt><trkpt lon="34.856948" lat="31.732105"><ele>158.8</ele><time>2018-04-04T14:04:59.392Z</time></trkpt><trkpt lon="34.856988" lat="31.732095"><ele>158.8</ele><time>2018-04-04T14:05:00.392Z</time></trkpt><trkpt lon="34.85703" lat="31.732087"><ele>158.8</ele><time>2018-04-04T14:05:01.392Z</time></trkpt><trkpt lon="34.857068" lat="31.73208"><ele>158.8</ele><time>2018-04-04T14:05:02.392Z</time></trkpt><trkpt lon="34.857107" lat="31.732073"><ele>158.8</ele><time>2018-04-04T14:05:03.392Z</time></trkpt><trkpt lon="34.857142" lat="31.732065"><ele>158.8</ele><time>2018-04-04T14:05:04.392Z</time></trkpt><trkpt lon="34.857173" lat="31.732057"><ele>158.8</ele><time>2018-04-04T14:05:05.392Z</time></trkpt><trkpt lon="34.857207" lat="31.73205"><ele>159.9</ele><time>2018-04-04T14:05:06.392Z</time></trkpt><trkpt lon="34.857238" lat="31.732047"><ele>159.9</ele><time>2018-04-04T14:05:07.392Z</time></trkpt><trkpt lon="34.85727" lat="31.732043"><ele>159.9</ele><time>2018-04-04T14:05:08.392Z</time></trkpt><trkpt lon="34.857302" lat="31.732045"><ele>159.9</ele><time>2018-04-04T14:05:09.392Z</time></trkpt><trkpt lon="34.857337" lat="31.732048"><ele>159.9</ele><time>2018-04-04T14:05:10.392Z</time></trkpt><trkpt lon="34.85737" lat="31.732052"><ele>159.9</ele><time>2018-04-04T14:05:11.392Z</time></trkpt><trkpt lon="34.857402" lat="31.732055"><ele>160.9</ele><time>2018-04-04T14:05:12.392Z</time></trkpt><trkpt lon="34.85743" lat="31.73206"><ele>160.9</ele><time>2018-04-04T14:05:13.392Z</time></trkpt><trkpt lon="34.857455" lat="31.732063"><ele>160.9</ele><time>2018-04-04T14:05:14.392Z</time></trkpt><trkpt lon="34.857477" lat="31.73207"><ele>160.9</ele><time>2018-04-04T14:05:15.392Z</time></trkpt><trkpt lon="34.857498" lat="31.732078"><ele>160.9</ele><time>2018-04-04T14:05:16.392Z</time></trkpt><trkpt lon="34.85752" lat="31.732088"><ele>160.9</ele><time>2018-04-04T14:05:17.392Z</time></trkpt><trkpt lon="34.85754" lat="31.732098"><ele>161.9</ele><time>2018-04-04T14:05:18.392Z</time></trkpt><trkpt lon="34.857558" lat="31.732107"><ele>161.9</ele><time>2018-04-04T14:05:19.392Z</time></trkpt><trkpt lon="34.857577" lat="31.73212"><ele>161.9</ele><time>2018-04-04T14:05:20.392Z</time></trkpt><trkpt lon="34.857595" lat="31.732133"><ele>161.9</ele><time>2018-04-04T14:05:21.392Z</time></trkpt><trkpt lon="34.85761" lat="31.732147"><ele>162.9</ele><time>2018-04-04T14:05:22.392Z</time></trkpt><trkpt lon="34.857623" lat="31.73216"><ele>162.9</ele><time>2018-04-04T14:05:23.392Z</time></trkpt><trkpt lon="34.857633" lat="31.732175"><ele>162.9</ele><time>2018-04-04T14:05:24.392Z</time></trkpt><trkpt lon="34.857643" lat="31.73219"><ele>162.9</ele><time>2018-04-04T14:05:25.392Z</time></trkpt><trkpt lon="34.85765" lat="31.732205"><ele>163.8</ele><time>2018-04-04T14:05:26.392Z</time></trkpt><trkpt lon="34.857658" lat="31.732222"><ele>163.8</ele><time>2018-04-04T14:05:27.392Z</time></trkpt><trkpt lon="34.857662" lat="31.732242"><ele>163.8</ele><time>2018-04-04T14:05:28.392Z</time></trkpt><trkpt lon="34.857667" lat="31.732263"><ele>163.8</ele><time>2018-04-04T14:05:29.392Z</time></trkpt><trkpt lon="34.857668" lat="31.732283"><ele>163.8</ele><time>2018-04-04T14:05:30.392Z</time></trkpt><trkpt lon="34.85767" lat="31.732303"><ele>163.8</ele><time>2018-04-04T14:05:31.392Z</time></trkpt><trkpt lon="34.85767" lat="31.732325"><ele>163.8</ele><time>2018-04-04T14:05:32.392Z</time></trkpt><trkpt lon="34.857672" lat="31.732348"><ele>163.8</ele><time>2018-04-04T14:05:33.392Z</time></trkpt><trkpt lon="34.85767" lat="31.732373"><ele>163.8</ele><time>2018-04-04T14:05:34.392Z</time></trkpt><trkpt lon="34.857668" lat="31.732398"><ele>163.8</ele><time>2018-04-04T14:05:35.392Z</time></trkpt><trkpt lon="34.85767" lat="31.732422"><ele>163.8</ele><time>2018-04-04T14:05:36.392Z</time></trkpt><trkpt lon="34.85767" lat="31.732445"><ele>163.8</ele><time>2018-04-04T14:05:37.392Z</time></trkpt><trkpt lon="34.85767" lat="31.732468"><ele>163.8</ele><time>2018-04-04T14:05:38.392Z</time></trkpt><trkpt lon="34.857668" lat="31.732493"><ele>163.8</ele><time>2018-04-04T14:05:39.392Z</time></trkpt><trkpt lon="34.857667" lat="31.732517"><ele>163.8</ele><time>2018-04-04T14:05:40.392Z</time></trkpt><trkpt lon="34.857665" lat="31.732542"><ele>163.8</ele><time>2018-04-04T14:05:41.392Z</time></trkpt><trkpt lon="34.857663" lat="31.732568"><ele>163.8</ele><time>2018-04-04T14:05:42.392Z</time></trkpt><trkpt lon="34.857662" lat="31.732595"><ele>163.8</ele><time>2018-04-04T14:05:43.392Z</time></trkpt><trkpt lon="34.85766" lat="31.732622"><ele>163.8</ele><time>2018-04-04T14:05:44.392Z</time></trkpt><trkpt lon="34.857658" lat="31.732648"><ele>163.8</ele><time>2018-04-04T14:05:45.392Z</time></trkpt><trkpt lon="34.857657" lat="31.732673"><ele>163.8</ele><time>2018-04-04T14:05:46.392Z</time></trkpt><trkpt lon="34.857657" lat="31.7327"><ele>163.8</ele><time>2018-04-04T14:05:47.392Z</time></trkpt><trkpt lon="34.857655" lat="31.732725"><ele>163.8</ele><time>2018-04-04T14:05:48.392Z</time></trkpt><trkpt lon="34.857655" lat="31.732753"><ele>163.8</ele><time>2018-04-04T14:05:49.392Z</time></trkpt><trkpt lon="34.857655" lat="31.732782"><ele>163.8</ele><time>2018-04-04T14:05:50.392Z</time></trkpt><trkpt lon="34.857653" lat="31.732808"><ele>163.8</ele><time>2018-04-04T14:05:51.392Z</time></trkpt><trkpt lon="34.857652" lat="31.732838"><ele>163.8</ele><time>2018-04-04T14:05:52.392Z</time></trkpt><trkpt lon="34.857648" lat="31.732868"><ele>163.8</ele><time>2018-04-04T14:05:53.392Z</time></trkpt><trkpt lon="34.857647" lat="31.732898"><ele>163.8</ele><time>2018-04-04T14:05:54.392Z</time></trkpt><trkpt lon="34.857643" lat="31.732927"><ele>163.8</ele><time>2018-04-04T14:05:55.392Z</time></trkpt><trkpt lon="34.85764" lat="31.732957"><ele>163.8</ele><time>2018-04-04T14:05:56.392Z</time></trkpt><trkpt lon="34.857637" lat="31.732985"><ele>163.8</ele><time>2018-04-04T14:05:57.392Z</time></trkpt><trkpt lon="34.857632" lat="31.733013"><ele>163.8</ele><time>2018-04-04T14:05:58.392Z</time></trkpt><trkpt lon="34.857627" lat="31.733043"><ele>163.8</ele><time>2018-04-04T14:05:59.392Z</time></trkpt><trkpt lon="34.857623" lat="31.733072"><ele>163.8</ele><time>2018-04-04T14:06:00.392Z</time></trkpt><trkpt lon="34.857623" lat="31.733102"><ele>163.8</ele><time>2018-04-04T14:06:01.392Z</time></trkpt><trkpt lon="34.857628" lat="31.733128"><ele>164.9</ele><time>2018-04-04T14:06:02.392Z</time></trkpt><trkpt lon="34.857637" lat="31.733153"><ele>164.9</ele><time>2018-04-04T14:06:03.392Z</time></trkpt><trkpt lon="34.857645" lat="31.733175"><ele>164.9</ele><time>2018-04-04T14:06:04.392Z</time></trkpt><trkpt lon="34.857648" lat="31.733195"><ele>164.9</ele><time>2018-04-04T14:06:05.392Z</time></trkpt><trkpt lon="34.85765" lat="31.733217"><ele>164.9</ele><time>2018-04-04T14:06:06.392Z</time></trkpt><trkpt lon="34.857652" lat="31.73324"><ele>164.9</ele><time>2018-04-04T14:06:07.392Z</time></trkpt><trkpt lon="34.857653" lat="31.733263"><ele>164.9</ele><time>2018-04-04T14:06:08.392Z</time></trkpt><trkpt lon="34.857653" lat="31.733287"><ele>164.9</ele><time>2018-04-04T14:06:09.392Z</time></trkpt><trkpt lon="34.857653" lat="31.733308"><ele>164.9</ele><time>2018-04-04T14:06:10.392Z</time></trkpt><trkpt lon="34.857653" lat="31.733332"><ele>164.9</ele><time>2018-04-04T14:06:11.392Z</time></trkpt><trkpt lon="34.857653" lat="31.733355"><ele>164.9</ele><time>2018-04-04T14:06:12.392Z</time></trkpt><trkpt lon="34.857652" lat="31.733382"><ele>164.9</ele><time>2018-04-04T14:06:13.392Z</time></trkpt><trkpt lon="34.85765" lat="31.73341"><ele>164.9</ele><time>2018-04-04T14:06:14.392Z</time></trkpt><trkpt lon="34.857652" lat="31.733443"><ele>164.9</ele><time>2018-04-04T14:06:15.392Z</time></trkpt><trkpt lon="34.857655" lat="31.733477"><ele>164.9</ele><time>2018-04-04T14:06:16.392Z</time></trkpt><trkpt lon="34.857658" lat="31.733512"><ele>164.9</ele><time>2018-04-04T14:06:17.392Z</time></trkpt><trkpt lon="34.857663" lat="31.733552"><ele>164.9</ele><time>2018-04-04T14:06:18.392Z</time></trkpt><trkpt lon="34.857688" lat="31.733587"><ele>164.9</ele><time>2018-04-04T14:06:19.392Z</time></trkpt><trkpt lon="34.857718" lat="31.73362"><ele>164.9</ele><time>2018-04-04T14:06:20.392Z</time></trkpt><trkpt lon="34.857748" lat="31.733645"><ele>164.9</ele><time>2018-04-04T14:06:21.392Z</time></trkpt><trkpt lon="34.857768" lat="31.733658"><ele>164.9</ele><time>2018-04-04T14:06:22.392Z</time></trkpt><trkpt lon="34.857787" lat="31.733672"><ele>164.9</ele><time>2018-04-04T14:06:23.392Z</time></trkpt><trkpt lon="34.857805" lat="31.733688"><ele>164.9</ele><time>2018-04-04T14:06:24.392Z</time></trkpt><trkpt lon="34.857823" lat="31.733703"><ele>164.9</ele><time>2018-04-04T14:06:25.392Z</time></trkpt><trkpt lon="34.85784" lat="31.733713"><ele>164.9</ele><time>2018-04-04T14:06:26.392Z</time></trkpt><trkpt lon="34.857857" lat="31.733723"><ele>164.9</ele><time>2018-04-04T14:06:27.392Z</time></trkpt><trkpt lon="34.857873" lat="31.733737"><ele>164.9</ele><time>2018-04-04T14:06:28.392Z</time></trkpt><trkpt lon="34.857893" lat="31.733755"><ele>164.9</ele><time>2018-04-04T14:06:29.392Z</time></trkpt><trkpt lon="34.857917" lat="31.733775"><ele>163.8</ele><time>2018-04-04T14:06:30.392Z</time></trkpt><trkpt lon="34.857943" lat="31.733798"><ele>163.8</ele><time>2018-04-04T14:06:31.392Z</time></trkpt><trkpt lon="34.857975" lat="31.733823"><ele>163.8</ele><time>2018-04-04T14:06:32.392Z</time></trkpt><trkpt lon="34.858008" lat="31.733852"><ele>163.8</ele><time>2018-04-04T14:06:33.392Z</time></trkpt><trkpt lon="34.858042" lat="31.733878"><ele>163.8</ele><time>2018-04-04T14:06:34.392Z</time></trkpt><trkpt lon="34.858073" lat="31.733902"><ele>163.8</ele><time>2018-04-04T14:06:35.392Z</time></trkpt><trkpt lon="34.858103" lat="31.733923"><ele>163.8</ele><time>2018-04-04T14:06:36.392Z</time></trkpt><trkpt lon="34.85813" lat="31.733942"><ele>163.8</ele><time>2018-04-04T14:06:37.392Z</time></trkpt><trkpt lon="34.858155" lat="31.733958"><ele>163.8</ele><time>2018-04-04T14:06:38.392Z</time></trkpt><trkpt lon="34.858175" lat="31.733977"><ele>163.8</ele><time>2018-04-04T14:06:39.392Z</time></trkpt><trkpt lon="34.858195" lat="31.733993"><ele>163.8</ele><time>2018-04-04T14:06:40.392Z</time></trkpt><trkpt lon="34.858213" lat="31.734012"><ele>163.8</ele><time>2018-04-04T14:06:41.392Z</time></trkpt><trkpt lon="34.858232" lat="31.734033"><ele>163.8</ele><time>2018-04-04T14:06:42.392Z</time></trkpt><trkpt lon="34.858248" lat="31.734057"><ele>163.8</ele><time>2018-04-04T14:06:43.392Z</time></trkpt><trkpt lon="34.858263" lat="31.734082"><ele>163.8</ele><time>2018-04-04T14:06:44.392Z</time></trkpt><trkpt lon="34.858272" lat="31.73411"><ele>163.8</ele><time>2018-04-04T14:06:45.392Z</time></trkpt><trkpt lon="34.858273" lat="31.734138"><ele>163.8</ele><time>2018-04-04T14:06:46.392Z</time></trkpt><trkpt lon="34.858272" lat="31.734163"><ele>163.8</ele><time>2018-04-04T14:06:47.392Z</time></trkpt><trkpt lon="34.858268" lat="31.73419"><ele>163.8</ele><time>2018-04-04T14:06:48.392Z</time></trkpt><trkpt lon="34.858263" lat="31.734215"><ele>163.8</ele><time>2018-04-04T14:06:49.392Z</time></trkpt><trkpt lon="34.858255" lat="31.734238"><ele>163.8</ele><time>2018-04-04T14:06:50.392Z</time></trkpt><trkpt lon="34.858247" lat="31.734262"><ele>163.8</ele><time>2018-04-04T14:06:51.392Z</time></trkpt><trkpt lon="34.858235" lat="31.734283"><ele>163.8</ele><time>2018-04-04T14:06:52.392Z</time></trkpt><trkpt lon="34.858223" lat="31.734305"><ele>163.8</ele><time>2018-04-04T14:06:53.392Z</time></trkpt><trkpt lon="34.858207" lat="31.734323"><ele>163.8</ele><time>2018-04-04T14:06:54.392Z</time></trkpt><trkpt lon="34.858187" lat="31.734345"><ele>163.8</ele><time>2018-04-04T14:06:55.392Z</time></trkpt><trkpt lon="34.858162" lat="31.734365"><ele>163.8</ele><time>2018-04-04T14:06:56.392Z</time></trkpt><trkpt lon="34.858128" lat="31.734388"><ele>163.8</ele><time>2018-04-04T14:06:57.392Z</time></trkpt><trkpt lon="34.858092" lat="31.734415"><ele>163.8</ele><time>2018-04-04T14:06:58.392Z</time></trkpt><trkpt lon="34.858057" lat="31.734443"><ele>163.8</ele><time>2018-04-04T14:06:59.392Z</time></trkpt><trkpt lon="34.858022" lat="31.734472"><ele>162.9</ele><time>2018-04-04T14:07:00.392Z</time></trkpt><trkpt lon="34.857985" lat="31.734493"><ele>162.9</ele><time>2018-04-04T14:07:01.392Z</time></trkpt><trkpt lon="34.857943" lat="31.734515"><ele>162.9</ele><time>2018-04-04T14:07:02.392Z</time></trkpt><trkpt lon="34.8579" lat="31.734537"><ele>162.9</ele><time>2018-04-04T14:07:03.392Z</time></trkpt><trkpt lon="34.857857" lat="31.734558"><ele>162.9</ele><time>2018-04-04T14:07:04.392Z</time></trkpt><trkpt lon="34.857812" lat="31.734578"><ele>162.9</ele><time>2018-04-04T14:07:05.392Z</time></trkpt><trkpt lon="34.857763" lat="31.734597"><ele>161.9</ele><time>2018-04-04T14:07:06.392Z</time></trkpt><trkpt lon="34.857708" lat="31.734612"><ele>161.9</ele><time>2018-04-04T14:07:07.392Z</time></trkpt><trkpt lon="34.85765" lat="31.734623"><ele>160.9</ele><time>2018-04-04T14:07:08.392Z</time></trkpt><trkpt lon="34.857587" lat="31.734633"><ele>160.9</ele><time>2018-04-04T14:07:09.392Z</time></trkpt><trkpt lon="34.857517" lat="31.734638"><ele>159.9</ele><time>2018-04-04T14:07:10.392Z</time></trkpt><trkpt lon="34.857447" lat="31.734647"><ele>159.9</ele><time>2018-04-04T14:07:11.392Z</time></trkpt><trkpt lon="34.857378" lat="31.734663"><ele>159.9</ele><time>2018-04-04T14:07:12.392Z</time></trkpt><trkpt lon="34.857315" lat="31.734682"><ele>159.9</ele><time>2018-04-04T14:07:13.392Z</time></trkpt><trkpt lon="34.857252" lat="31.734698"><ele>158.8</ele><time>2018-04-04T14:07:14.392Z</time></trkpt><trkpt lon="34.857188" lat="31.73472"><ele>158.8</ele><time>2018-04-04T14:07:15.392Z</time></trkpt><trkpt lon="34.857128" lat="31.73474"><ele>158.8</ele><time>2018-04-04T14:07:16.392Z</time></trkpt><trkpt lon="34.857067" lat="31.734758"><ele>158.8</ele><time>2018-04-04T14:07:17.392Z</time></trkpt><trkpt lon="34.857008" lat="31.73478"><ele>157.9</ele><time>2018-04-04T14:07:18.392Z</time></trkpt><trkpt lon="34.856952" lat="31.734803"><ele>157.9</ele><time>2018-04-04T14:07:19.392Z</time></trkpt><trkpt lon="34.856892" lat="31.734823"><ele>157.9</ele><time>2018-04-04T14:07:20.392Z</time></trkpt><trkpt lon="34.856835" lat="31.73485"><ele>157.9</ele><time>2018-04-04T14:07:21.392Z</time></trkpt><trkpt lon="34.856783" lat="31.73489"><ele>156.8</ele><time>2018-04-04T14:07:22.392Z</time></trkpt><trkpt lon="34.856738" lat="31.734933"><ele>156.8</ele><time>2018-04-04T14:07:23.392Z</time></trkpt><trkpt lon="34.856697" lat="31.734977"><ele>156.8</ele><time>2018-04-04T14:07:24.392Z</time></trkpt><trkpt lon="34.856652" lat="31.735017"><ele>156.8</ele><time>2018-04-04T14:07:25.392Z</time></trkpt><trkpt lon="34.856603" lat="31.735047"><ele>155.9</ele><time>2018-04-04T14:07:26.392Z</time></trkpt><trkpt lon="34.856545" lat="31.735062"><ele>155.9</ele><time>2018-04-04T14:07:27.392Z</time></trkpt><trkpt lon="34.85649" lat="31.735075"><ele>155.9</ele><time>2018-04-04T14:07:28.392Z</time></trkpt><trkpt lon="34.856438" lat="31.735088"><ele>155.9</ele><time>2018-04-04T14:07:29.392Z</time></trkpt><trkpt lon="34.856383" lat="31.735108"><ele>155.9</ele><time>2018-04-04T14:07:30.392Z</time></trkpt><trkpt lon="34.856333" lat="31.735135"><ele>155.9</ele><time>2018-04-04T14:07:31.392Z</time></trkpt><trkpt lon="34.856295" lat="31.735158"><ele>155.9</ele><time>2018-04-04T14:07:32.392Z</time></trkpt><trkpt lon="34.85626" lat="31.735177"><ele>155.9</ele><time>2018-04-04T14:07:33.392Z</time></trkpt><trkpt lon="34.85623" lat="31.735198"><ele>155.9</ele><time>2018-04-04T14:07:34.392Z</time></trkpt><trkpt lon="34.856208" lat="31.735218"><ele>155.9</ele><time>2018-04-04T14:07:35.392Z</time></trkpt><trkpt lon="34.856187" lat="31.735237"><ele>155.9</ele><time>2018-04-04T14:07:36.392Z</time></trkpt><trkpt lon="34.856167" lat="31.735255"><ele>155.9</ele><time>2018-04-04T14:07:37.392Z</time></trkpt><trkpt lon="34.856153" lat="31.735275"><ele>156.8</ele><time>2018-04-04T14:07:38.392Z</time></trkpt><trkpt lon="34.856157" lat="31.735293"><ele>156.8</ele><time>2018-04-04T14:07:39.392Z</time></trkpt><trkpt lon="34.856167" lat="31.735305"><ele>156.8</ele><time>2018-04-04T14:07:40.392Z</time></trkpt><trkpt lon="34.85618" lat="31.735313"><ele>156.8</ele><time>2018-04-04T14:07:41.392Z</time></trkpt><trkpt lon="34.856192" lat="31.735318"><ele>156.8</ele><time>2018-04-04T14:07:42.392Z</time></trkpt><trkpt lon="34.856198" lat="31.735323"><ele>156.8</ele><time>2018-04-04T14:07:43.392Z</time></trkpt><trkpt lon="34.856202" lat="31.735325"><ele>157.9</ele><time>2018-04-04T14:07:44.392Z</time></trkpt><trkpt lon="34.856203" lat="31.735327"><ele>157.9</ele><time>2018-04-04T14:07:45.392Z</time></trkpt><trkpt lon="34.856212" lat="31.735332"><ele>157.9</ele><time>2018-04-04T14:07:46.392Z</time></trkpt><trkpt lon="34.856218" lat="31.735333"><ele>157.9</ele><time>2018-04-04T14:07:47.392Z</time></trkpt><trkpt lon="34.856222" lat="31.735333"><ele>157.9</ele><time>2018-04-04T14:07:48.392Z</time></trkpt><trkpt lon="34.856225" lat="31.735335"><ele>157.9</ele><time>2018-04-04T14:07:49.392Z</time></trkpt><trkpt lon="34.856232" lat="31.735335"><ele>157.9</ele><time>2018-04-04T14:07:50.392Z</time></trkpt><trkpt lon="34.856233" lat="31.735333"><ele>157.9</ele><time>2018-04-04T14:07:51.392Z</time></trkpt><trkpt lon="34.856238" lat="31.735332"><ele>157.9</ele><time>2018-04-04T14:07:52.392Z</time></trkpt><trkpt lon="34.856245" lat="31.73533"><ele>157.9</ele><time>2018-04-04T14:07:53.392Z</time></trkpt><trkpt lon="34.856248" lat="31.735325"><ele>157.9</ele><time>2018-04-04T14:07:54.392Z</time></trkpt><trkpt lon="34.856252" lat="31.735323"><ele>157.9</ele><time>2018-04-04T14:07:55.392Z</time></trkpt><trkpt lon="34.856257" lat="31.735325"><ele>157.9</ele><time>2018-04-04T14:07:56.392Z</time></trkpt><trkpt lon="34.856262" lat="31.735327"><ele>157.9</ele><time>2018-04-04T14:07:57.392Z</time></trkpt><trkpt lon="34.856268" lat="31.735325"><ele>157.9</ele><time>2018-04-04T14:07:58.392Z</time></trkpt><trkpt lon="34.856272" lat="31.735322"><ele>157.9</ele><time>2018-04-04T14:07:59.392Z</time></trkpt><trkpt lon="34.856278" lat="31.735318"><ele>157.9</ele><time>2018-04-04T14:08:00.392Z</time></trkpt><trkpt lon="34.85629" lat="31.735317"><ele>157.9</ele><time>2018-04-04T14:08:01.392Z</time></trkpt><trkpt lon="34.856303" lat="31.735317"><ele>157.9</ele><time>2018-04-04T14:08:02.392Z</time></trkpt><trkpt lon="34.856317" lat="31.735318"><ele>157.9</ele><time>2018-04-04T14:08:03.392Z</time></trkpt><trkpt lon="34.856328" lat="31.735322"><ele>157.9</ele><time>2018-04-04T14:08:04.392Z</time></trkpt><trkpt lon="34.856335" lat="31.735323"><ele>157.9</ele><time>2018-04-04T14:08:05.392Z</time></trkpt><trkpt lon="34.856345" lat="31.735323"><ele>158.8</ele><time>2018-04-04T14:08:06.392Z</time></trkpt><trkpt lon="34.856358" lat="31.735325"><ele>158.8</ele><time>2018-04-04T14:08:07.392Z</time></trkpt><trkpt lon="34.856367" lat="31.73533"><ele>158.8</ele><time>2018-04-04T14:08:08.392Z</time></trkpt><trkpt lon="34.856373" lat="31.735335"><ele>158.8</ele><time>2018-04-04T14:08:09.392Z</time></trkpt><trkpt lon="34.856373" lat="31.735337"><ele>158.8</ele><time>2018-04-04T14:08:10.392Z</time></trkpt><trkpt lon="34.856373" lat="31.735337"><ele>158.8</ele><time>2018-04-04T14:08:11.392Z</time></trkpt><trkpt lon="34.856373" lat="31.735337"><ele>158.8</ele><time>2018-04-04T14:08:12.392Z</time></trkpt><trkpt lon="34.856375" lat="31.735337"><ele>158.8</ele><time>2018-04-04T14:08:13.392Z</time></trkpt><trkpt lon="34.856393" lat="31.735352"><ele>158.8</ele><time>2018-04-04T14:09:32.392Z</time></trkpt><trkpt lon="34.856395" lat="31.735362"><ele>158.8</ele><time>2018-04-04T14:09:33.392Z</time></trkpt><trkpt lon="34.856398" lat="31.735377"><ele>158.8</ele><time>2018-04-04T14:09:34.392Z</time></trkpt><trkpt lon="34.8564" lat="31.735397"><ele>158.8</ele><time>2018-04-04T14:09:35.392Z</time></trkpt><trkpt lon="34.856402" lat="31.73542"><ele>158.8</ele><time>2018-04-04T14:09:36.392Z</time></trkpt><trkpt lon="34.856408" lat="31.73544"><ele>158.8</ele><time>2018-04-04T14:09:37.392Z</time></trkpt><trkpt lon="34.856418" lat="31.735457"><ele>158.8</ele><time>2018-04-04T14:09:38.392Z</time></trkpt><trkpt lon="34.85643" lat="31.73547"><ele>158.8</ele><time>2018-04-04T14:09:39.392Z</time></trkpt><trkpt lon="34.856437" lat="31.735487"><ele>158.8</ele><time>2018-04-04T14:09:40.392Z</time></trkpt><trkpt lon="34.856437" lat="31.735507"><ele>158.8</ele><time>2018-04-04T14:09:41.392Z</time></trkpt><trkpt lon="34.856433" lat="31.73553"><ele>158.8</ele><time>2018-04-04T14:09:42.392Z</time></trkpt><trkpt lon="34.856428" lat="31.735557"><ele>158.8</ele><time>2018-04-04T14:09:43.392Z</time></trkpt><trkpt lon="34.856415" lat="31.735585"><ele>158.8</ele><time>2018-04-04T14:09:44.392Z</time></trkpt><trkpt lon="34.856397" lat="31.735612"><ele>158.8</ele><time>2018-04-04T14:09:45.392Z</time></trkpt><trkpt lon="34.856375" lat="31.735635"><ele>157.9</ele><time>2018-04-04T14:09:46.392Z</time></trkpt><trkpt lon="34.856343" lat="31.735647"><ele>157.9</ele><time>2018-04-04T14:09:47.392Z</time></trkpt><trkpt lon="34.856305" lat="31.735662"><ele>157.9</ele><time>2018-04-04T14:09:48.392Z</time></trkpt><trkpt lon="34.856262" lat="31.735672"><ele>157.9</ele><time>2018-04-04T14:09:49.392Z</time></trkpt><trkpt lon="34.85622" lat="31.735673"><ele>156.8</ele><time>2018-04-04T14:09:50.392Z</time></trkpt><trkpt lon="34.856185" lat="31.735662"><ele>156.8</ele><time>2018-04-04T14:09:51.392Z</time></trkpt><trkpt lon="34.856142" lat="31.735648"><ele>155.9</ele><time>2018-04-04T14:09:52.392Z</time></trkpt><trkpt lon="34.856088" lat="31.73564"><ele>155.9</ele><time>2018-04-04T14:09:53.392Z</time></trkpt><trkpt lon="34.856033" lat="31.735637"><ele>154.8</ele><time>2018-04-04T14:09:54.392Z</time></trkpt><trkpt lon="34.85598" lat="31.735638"><ele>154.8</ele><time>2018-04-04T14:09:55.392Z</time></trkpt><trkpt lon="34.855927" lat="31.73564"><ele>154.8</ele><time>2018-04-04T14:09:56.392Z</time></trkpt><trkpt lon="34.855875" lat="31.735645"><ele>154.8</ele><time>2018-04-04T14:09:57.392Z</time></trkpt><trkpt lon="34.855827" lat="31.735652"><ele>153.9</ele><time>2018-04-04T14:09:58.392Z</time></trkpt><trkpt lon="34.855782" lat="31.735658"><ele>153.9</ele><time>2018-04-04T14:09:59.392Z</time></trkpt><trkpt lon="34.85574" lat="31.735658"><ele>152.9</ele><time>2018-04-04T14:10:00.392Z</time></trkpt><trkpt lon="34.855697" lat="31.735653"><ele>152.9</ele><time>2018-04-04T14:10:01.392Z</time></trkpt><trkpt lon="34.855652" lat="31.735645"><ele>151.9</ele><time>2018-04-04T14:10:02.392Z</time></trkpt><trkpt lon="34.855603" lat="31.73564"><ele>151.9</ele><time>2018-04-04T14:10:03.392Z</time></trkpt><trkpt lon="34.855558" lat="31.73564"><ele>151.9</ele><time>2018-04-04T14:10:04.392Z</time></trkpt><trkpt lon="34.855512" lat="31.735645"><ele>151.9</ele><time>2018-04-04T14:10:05.392Z</time></trkpt><trkpt lon="34.855467" lat="31.735657"><ele>151.9</ele><time>2018-04-04T14:10:06.392Z</time></trkpt><trkpt lon="34.85542" lat="31.735672"><ele>151.9</ele><time>2018-04-04T14:10:07.392Z</time></trkpt><trkpt lon="34.85538" lat="31.735693"><ele>151.9</ele><time>2018-04-04T14:10:08.392Z</time></trkpt><trkpt lon="34.855342" lat="31.735723"><ele>151.9</ele><time>2018-04-04T14:10:09.392Z</time></trkpt><trkpt lon="34.855308" lat="31.735762"><ele>147.8</ele><time>2018-04-04T14:10:10.392Z</time></trkpt><trkpt lon="34.855278" lat="31.735807"><ele>147.8</ele><time>2018-04-04T14:10:11.392Z</time></trkpt><trkpt lon="34.855253" lat="31.735858"><ele>146.9</ele><time>2018-04-04T14:10:12.392Z</time></trkpt><trkpt lon="34.855228" lat="31.73591"><ele>146.9</ele><time>2018-04-04T14:10:13.392Z</time></trkpt><trkpt lon="34.85521" lat="31.735963"><ele>145.8</ele><time>2018-04-04T14:10:14.392Z</time></trkpt><trkpt lon="34.855198" lat="31.73602"><ele>145.8</ele><time>2018-04-04T14:10:15.392Z</time></trkpt><trkpt lon="34.855187" lat="31.736078"><ele>145.8</ele><time>2018-04-04T14:10:16.392Z</time></trkpt><trkpt lon="34.855177" lat="31.736135"><ele>145.8</ele><time>2018-04-04T14:10:17.392Z</time></trkpt><trkpt lon="34.855163" lat="31.73619"><ele>144.9</ele><time>2018-04-04T14:10:18.392Z</time></trkpt><trkpt lon="34.855147" lat="31.736242"><ele>144.9</ele><time>2018-04-04T14:10:19.392Z</time></trkpt><trkpt lon="34.855128" lat="31.73629"><ele>144.9</ele><time>2018-04-04T14:10:20.392Z</time></trkpt><trkpt lon="34.8551" lat="31.736333"><ele>144.9</ele><time>2018-04-04T14:10:21.392Z</time></trkpt><trkpt lon="34.855063" lat="31.736368"><ele>144.9</ele><time>2018-04-04T14:10:22.392Z</time></trkpt><trkpt lon="34.855022" lat="31.736393"><ele>144.9</ele><time>2018-04-04T14:10:23.392Z</time></trkpt><trkpt lon="34.854973" lat="31.73641"><ele>140.8</ele><time>2018-04-04T14:10:24.392Z</time></trkpt><trkpt lon="34.854923" lat="31.736422"><ele>140.8</ele><time>2018-04-04T14:10:25.392Z</time></trkpt><trkpt lon="34.854877" lat="31.736437"><ele>139.9</ele><time>2018-04-04T14:10:26.392Z</time></trkpt><trkpt lon="34.854832" lat="31.736452"><ele>139.9</ele><time>2018-04-04T14:10:27.392Z</time></trkpt><trkpt lon="34.854783" lat="31.736462"><ele>138.8</ele><time>2018-04-04T14:10:28.392Z</time></trkpt><trkpt lon="34.85473" lat="31.736463"><ele>138.8</ele><time>2018-04-04T14:10:29.392Z</time></trkpt><trkpt lon="34.854675" lat="31.73646"><ele>137.9</ele><time>2018-04-04T14:10:30.392Z</time></trkpt><trkpt lon="34.85462" lat="31.736457"><ele>137.9</ele><time>2018-04-04T14:10:31.392Z</time></trkpt><trkpt lon="34.854563" lat="31.736457"><ele>136.9</ele><time>2018-04-04T14:10:32.392Z</time></trkpt><trkpt lon="34.854503" lat="31.736462"><ele>136.9</ele><time>2018-04-04T14:10:33.392Z</time></trkpt><trkpt lon="34.854442" lat="31.736468"><ele>135.9</ele><time>2018-04-04T14:10:34.392Z</time></trkpt><trkpt lon="34.854377" lat="31.736473"><ele>135.9</ele><time>2018-04-04T14:10:35.392Z</time></trkpt><trkpt lon="34.854317" lat="31.736478"><ele>134.9</ele><time>2018-04-04T14:10:36.392Z</time></trkpt><trkpt lon="34.854258" lat="31.736487"><ele>134.9</ele><time>2018-04-04T14:10:37.392Z</time></trkpt><trkpt lon="34.854203" lat="31.7365"><ele>132.9</ele><time>2018-04-04T14:10:38.392Z</time></trkpt><trkpt lon="34.854157" lat="31.736518"><ele>132.9</ele><time>2018-04-04T14:10:39.392Z</time></trkpt><trkpt lon="34.854125" lat="31.736543"><ele>132.9</ele><time>2018-04-04T14:10:40.392Z</time></trkpt><trkpt lon="34.854117" lat="31.736572"><ele>132.9</ele><time>2018-04-04T14:10:41.392Z</time></trkpt><trkpt lon="34.854128" lat="31.736598"><ele>131.8</ele><time>2018-04-04T14:10:42.392Z</time></trkpt><trkpt lon="34.85414" lat="31.736628"><ele>131.8</ele><time>2018-04-04T14:10:43.392Z</time></trkpt><trkpt lon="34.854148" lat="31.736658"><ele>130.9</ele><time>2018-04-04T14:10:44.392Z</time></trkpt><trkpt lon="34.854153" lat="31.736685"><ele>130.9</ele><time>2018-04-04T14:10:45.392Z</time></trkpt><trkpt lon="34.854148" lat="31.736703"><ele>129.8</ele><time>2018-04-04T14:10:46.392Z</time></trkpt><trkpt lon="34.854133" lat="31.736712"><ele>129.8</ele><time>2018-04-04T14:10:47.392Z</time></trkpt><trkpt lon="34.854108" lat="31.736713"><ele>129.8</ele><time>2018-04-04T14:10:48.392Z</time></trkpt><trkpt lon="34.85407" lat="31.736707"><ele>129.8</ele><time>2018-04-04T14:10:49.392Z</time></trkpt><trkpt lon="34.854032" lat="31.736705"><ele>129.8</ele><time>2018-04-04T14:10:50.392Z</time></trkpt><trkpt lon="34.853997" lat="31.736705"><ele>129.8</ele><time>2018-04-04T14:10:51.392Z</time></trkpt><trkpt lon="34.853973" lat="31.736708"><ele>128.9</ele><time>2018-04-04T14:10:52.392Z</time></trkpt><trkpt lon="34.853962" lat="31.736715"><ele>128.9</ele><time>2018-04-04T14:10:53.392Z</time></trkpt><trkpt lon="34.853965" lat="31.736727"><ele>128.9</ele><time>2018-04-04T14:10:54.392Z</time></trkpt><trkpt lon="34.853985" lat="31.736747"><ele>128.9</ele><time>2018-04-04T14:10:55.392Z</time></trkpt><trkpt lon="34.854012" lat="31.736775"><ele>127.9</ele><time>2018-04-04T14:10:56.392Z</time></trkpt><trkpt lon="34.854037" lat="31.73681"><ele>127.9</ele><time>2018-04-04T14:10:57.392Z</time></trkpt><trkpt lon="34.854052" lat="31.73685"><ele>127.9</ele><time>2018-04-04T14:10:58.392Z</time></trkpt><trkpt lon="34.85406" lat="31.73689"><ele>127.9</ele><time>2018-04-04T14:10:59.392Z</time></trkpt><trkpt lon="34.854077" lat="31.736927"><ele>127.9</ele><time>2018-04-04T14:11:00.392Z</time></trkpt><trkpt lon="34.854092" lat="31.736965"><ele>127.9</ele><time>2018-04-04T14:11:01.392Z</time></trkpt><trkpt lon="34.854098" lat="31.737003"><ele>127.9</ele><time>2018-04-04T14:11:02.392Z</time></trkpt><trkpt lon="34.854102" lat="31.73704"><ele>127.9</ele><time>2018-04-04T14:11:03.392Z</time></trkpt><trkpt lon="34.854098" lat="31.73707"><ele>126.8</ele><time>2018-04-04T14:11:04.392Z</time></trkpt><trkpt lon="34.854078" lat="31.737095"><ele>126.8</ele><time>2018-04-04T14:11:05.392Z</time></trkpt><trkpt lon="34.85405" lat="31.737125"><ele>126.8</ele><time>2018-04-04T14:11:06.392Z</time></trkpt><trkpt lon="34.854018" lat="31.737155"><ele>126.8</ele><time>2018-04-04T14:11:07.392Z</time></trkpt><trkpt lon="34.85398" lat="31.737182"><ele>125.9</ele><time>2018-04-04T14:11:08.392Z</time></trkpt><trkpt lon="34.85394" lat="31.737198"><ele>125.9</ele><time>2018-04-04T14:11:09.392Z</time></trkpt><trkpt lon="34.853898" lat="31.737202"><ele>125.9</ele><time>2018-04-04T14:11:10.392Z</time></trkpt><trkpt lon="34.853858" lat="31.737195"><ele>125.9</ele><time>2018-04-04T14:11:11.392Z</time></trkpt><trkpt lon="34.853808" lat="31.737185"><ele>125.9</ele><time>2018-04-04T14:11:12.392Z</time></trkpt><trkpt lon="34.853757" lat="31.737178"><ele>125.9</ele><time>2018-04-04T14:11:13.392Z</time></trkpt><trkpt lon="34.853702" lat="31.737177"><ele>125.9</ele><time>2018-04-04T14:11:14.392Z</time></trkpt><trkpt lon="34.853648" lat="31.737183"><ele>125.9</ele><time>2018-04-04T14:11:15.392Z</time></trkpt><trkpt lon="34.8536" lat="31.737197"><ele>125.9</ele><time>2018-04-04T14:11:16.392Z</time></trkpt><trkpt lon="34.853557" lat="31.737227"><ele>125.9</ele><time>2018-04-04T14:11:17.392Z</time></trkpt><trkpt lon="34.85351" lat="31.737257"><ele>123.9</ele><time>2018-04-04T14:11:18.392Z</time></trkpt><trkpt lon="34.853467" lat="31.737285"><ele>123.9</ele><time>2018-04-04T14:11:19.392Z</time></trkpt><trkpt lon="34.853422" lat="31.73731"><ele>123.9</ele><time>2018-04-04T14:11:20.392Z</time></trkpt><trkpt lon="34.853377" lat="31.737333"><ele>123.9</ele><time>2018-04-04T14:11:21.392Z</time></trkpt><trkpt lon="34.853328" lat="31.737357"><ele>124.8</ele><time>2018-04-04T14:11:22.392Z</time></trkpt><trkpt lon="34.85328" lat="31.737378"><ele>124.8</ele><time>2018-04-04T14:11:23.392Z</time></trkpt><trkpt lon="34.853232" lat="31.737405"><ele>124.8</ele><time>2018-04-04T14:11:24.392Z</time></trkpt><trkpt lon="34.853182" lat="31.73743"><ele>124.8</ele><time>2018-04-04T14:11:25.392Z</time></trkpt><trkpt lon="34.853135" lat="31.737458"><ele>124.8</ele><time>2018-04-04T14:11:26.392Z</time></trkpt><trkpt lon="34.853095" lat="31.737488"><ele>124.8</ele><time>2018-04-04T14:11:27.392Z</time></trkpt><trkpt lon="34.853058" lat="31.737518"><ele>124.8</ele><time>2018-04-04T14:11:28.392Z</time></trkpt><trkpt lon="34.853023" lat="31.737547"><ele>124.8</ele><time>2018-04-04T14:11:29.392Z</time></trkpt><trkpt lon="34.85299" lat="31.737573"><ele>124.8</ele><time>2018-04-04T14:11:30.392Z</time></trkpt><trkpt lon="34.852953" lat="31.737597"><ele>124.8</ele><time>2018-04-04T14:11:31.392Z</time></trkpt><trkpt lon="34.852912" lat="31.737617"><ele>124.8</ele><time>2018-04-04T14:11:32.392Z</time></trkpt><trkpt lon="34.852872" lat="31.737635"><ele>124.8</ele><time>2018-04-04T14:11:33.392Z</time></trkpt><trkpt lon="34.852828" lat="31.737658"><ele>124.8</ele><time>2018-04-04T14:11:34.392Z</time></trkpt><trkpt lon="34.852782" lat="31.737682"><ele>124.8</ele><time>2018-04-04T14:11:35.392Z</time></trkpt><trkpt lon="34.852732" lat="31.737708"><ele>124.8</ele><time>2018-04-04T14:11:36.392Z</time></trkpt><trkpt lon="34.852682" lat="31.737737"><ele>124.8</ele><time>2018-04-04T14:11:37.392Z</time></trkpt><trkpt lon="34.852632" lat="31.737765"><ele>123.9</ele><time>2018-04-04T14:11:38.392Z</time></trkpt><trkpt lon="34.852587" lat="31.737795"><ele>123.9</ele><time>2018-04-04T14:11:39.392Z</time></trkpt><trkpt lon="34.85254" lat="31.737828"><ele>123.9</ele><time>2018-04-04T14:11:40.392Z</time></trkpt><trkpt lon="34.852492" lat="31.737858"><ele>123.9</ele><time>2018-04-04T14:11:41.392Z</time></trkpt><trkpt lon="34.852445" lat="31.737887"><ele>123.9</ele><time>2018-04-04T14:11:42.392Z</time></trkpt><trkpt lon="34.8524" lat="31.737917"><ele>123.9</ele><time>2018-04-04T14:11:43.392Z</time></trkpt><trkpt lon="34.852355" lat="31.737948"><ele>123.9</ele><time>2018-04-04T14:11:44.392Z</time></trkpt><trkpt lon="34.852312" lat="31.737982"><ele>123.9</ele><time>2018-04-04T14:11:45.392Z</time></trkpt><trkpt lon="34.852272" lat="31.738017"><ele>123.9</ele><time>2018-04-04T14:11:46.392Z</time></trkpt><trkpt lon="34.852233" lat="31.738053"><ele>123.9</ele><time>2018-04-04T14:11:47.392Z</time></trkpt><trkpt lon="34.852202" lat="31.738093"><ele>123.9</ele><time>2018-04-04T14:11:48.392Z</time></trkpt><trkpt lon="34.852178" lat="31.738133"><ele>123.9</ele><time>2018-04-04T14:11:49.392Z</time></trkpt><trkpt lon="34.852167" lat="31.738172"><ele>123.9</ele><time>2018-04-04T14:11:50.392Z</time></trkpt><trkpt lon="34.852158" lat="31.738207"><ele>123.9</ele><time>2018-04-04T14:11:51.392Z</time></trkpt><trkpt lon="34.85215" lat="31.73824"><ele>123.9</ele><time>2018-04-04T14:11:52.392Z</time></trkpt><trkpt lon="34.852143" lat="31.738277"><ele>123.9</ele><time>2018-04-04T14:11:53.392Z</time></trkpt><trkpt lon="34.852143" lat="31.738317"><ele>123.9</ele><time>2018-04-04T14:11:54.392Z</time></trkpt><trkpt lon="34.852145" lat="31.738352"><ele>123.9</ele><time>2018-04-04T14:11:55.392Z</time></trkpt><trkpt lon="34.852152" lat="31.738382"><ele>123.9</ele><time>2018-04-04T14:11:56.392Z</time></trkpt><trkpt lon="34.852158" lat="31.73841"><ele>123.9</ele><time>2018-04-04T14:11:57.392Z</time></trkpt><trkpt lon="34.852163" lat="31.73844"><ele>123.9</ele><time>2018-04-04T14:11:58.392Z</time></trkpt><trkpt lon="34.852165" lat="31.738473"><ele>123.9</ele><time>2018-04-04T14:11:59.392Z</time></trkpt><trkpt lon="34.852163" lat="31.738508"><ele>123.9</ele><time>2018-04-04T14:12:00.392Z</time></trkpt><trkpt lon="34.852163" lat="31.738545"><ele>123.9</ele><time>2018-04-04T14:12:01.392Z</time></trkpt><trkpt lon="34.85217" lat="31.738583"><ele>123.9</ele><time>2018-04-04T14:12:02.392Z</time></trkpt><trkpt lon="34.852183" lat="31.73862"><ele>123.9</ele><time>2018-04-04T14:12:03.392Z</time></trkpt><trkpt lon="34.852202" lat="31.738653"><ele>123.9</ele><time>2018-04-04T14:12:04.392Z</time></trkpt><trkpt lon="34.852218" lat="31.738682"><ele>123.9</ele><time>2018-04-04T14:12:05.392Z</time></trkpt><trkpt lon="34.852232" lat="31.73871"><ele>123.9</ele><time>2018-04-04T14:12:06.392Z</time></trkpt><trkpt lon="34.85224" lat="31.738738"><ele>123.9</ele><time>2018-04-04T14:12:07.392Z</time></trkpt><trkpt lon="34.852247" lat="31.738772"><ele>123.9</ele><time>2018-04-04T14:12:08.392Z</time></trkpt><trkpt lon="34.85225" lat="31.738805"><ele>123.9</ele><time>2018-04-04T14:12:09.392Z</time></trkpt><trkpt lon="34.852257" lat="31.738833"><ele>123.9</ele><time>2018-04-04T14:12:10.392Z</time></trkpt><trkpt lon="34.852265" lat="31.73885"><ele>123.9</ele><time>2018-04-04T14:12:11.392Z</time></trkpt><trkpt lon="34.852272" lat="31.738855"><ele>123.9</ele><time>2018-04-04T14:12:12.392Z</time></trkpt><trkpt lon="34.852273" lat="31.73886"><ele>123.9</ele><time>2018-04-04T14:12:13.392Z</time></trkpt></trkseg></trk></gpx>